<?xml version="1.0" encoding="UTF-8"?>
<gpx xmlns="http://www.topografix.com/GPX/1/1"
     creator="GpsDumpMac 0.29"
     version="1.1"
     xmlns:xsi="http://www.w3.org/2001/XMLSchema-instance"
     xsi:schemaLocation="http://www.topografix.com/GPX/1/1 http://www.topografix.com/GPX/1/1/gpx.xsd">
  <metadata>
    <link href="http://www.gethome.no/stein.sorensen/">
      <text>GPS dump for www.flightlog.org</text>
    </link>
    <time>2015-03-17T18:16:11Z</time>
    <bounds minlat="40.237900" minlon="-4.918900" maxlat="40.341500" maxlon="-4.571167"/>
  </metadata>
  <trk>
    <name>Track 001</name>
    <trkseg>
      <trkpt lat="40.256283" lon="-4.905833">
        <ele>1242.0</ele>
        <time>2015-03-15T13:28:21Z</time>
      </trkpt>
      <trkpt lat="40.256250" lon="-4.905900">
        <ele>1242.0</ele>
        <time>2015-03-15T13:28:22Z</time>
      </trkpt>
      <trkpt lat="40.256217" lon="-4.905950">
        <ele>1243.0</ele>
        <time>2015-03-15T13:28:23Z</time>
      </trkpt>
      <trkpt lat="40.256183" lon="-4.906017">
        <ele>1238.0</ele>
        <time>2015-03-15T13:28:24Z</time>
      </trkpt>
      <trkpt lat="40.256150" lon="-4.906100">
        <ele>1237.0</ele>
        <time>2015-03-15T13:28:25Z</time>
      </trkpt>
      <trkpt lat="40.256083" lon="-4.906167">
        <ele>1240.0</ele>
        <time>2015-03-15T13:28:26Z</time>
      </trkpt>
      <trkpt lat="40.256000" lon="-4.906200">
        <ele>1241.0</ele>
        <time>2015-03-15T13:28:27Z</time>
      </trkpt>
      <trkpt lat="40.255933" lon="-4.906217">
        <ele>1242.0</ele>
        <time>2015-03-15T13:28:28Z</time>
      </trkpt>
      <trkpt lat="40.255867" lon="-4.906200">
        <ele>1243.0</ele>
        <time>2015-03-15T13:28:29Z</time>
      </trkpt>
      <trkpt lat="40.255817" lon="-4.906167">
        <ele>1243.0</ele>
        <time>2015-03-15T13:28:30Z</time>
      </trkpt>
      <trkpt lat="40.255750" lon="-4.906133">
        <ele>1244.0</ele>
        <time>2015-03-15T13:28:31Z</time>
      </trkpt>
      <trkpt lat="40.255683" lon="-4.906083">
        <ele>1243.0</ele>
        <time>2015-03-15T13:28:32Z</time>
      </trkpt>
      <trkpt lat="40.255617" lon="-4.906033">
        <ele>1244.0</ele>
        <time>2015-03-15T13:28:33Z</time>
      </trkpt>
      <trkpt lat="40.255567" lon="-4.905983">
        <ele>1245.0</ele>
        <time>2015-03-15T13:28:34Z</time>
      </trkpt>
      <trkpt lat="40.255500" lon="-4.905933">
        <ele>1248.0</ele>
        <time>2015-03-15T13:28:35Z</time>
      </trkpt>
      <trkpt lat="40.255433" lon="-4.905883">
        <ele>1250.0</ele>
        <time>2015-03-15T13:28:36Z</time>
      </trkpt>
      <trkpt lat="40.255400" lon="-4.905833">
        <ele>1252.0</ele>
        <time>2015-03-15T13:28:37Z</time>
      </trkpt>
      <trkpt lat="40.255367" lon="-4.905783">
        <ele>1253.0</ele>
        <time>2015-03-15T13:28:38Z</time>
      </trkpt>
      <trkpt lat="40.255333" lon="-4.905733">
        <ele>1254.0</ele>
        <time>2015-03-15T13:28:39Z</time>
      </trkpt>
      <trkpt lat="40.255300" lon="-4.905683">
        <ele>1254.0</ele>
        <time>2015-03-15T13:28:40Z</time>
      </trkpt>
      <trkpt lat="40.255267" lon="-4.905633">
        <ele>1253.0</ele>
        <time>2015-03-15T13:28:41Z</time>
      </trkpt>
      <trkpt lat="40.255217" lon="-4.905600">
        <ele>1252.0</ele>
        <time>2015-03-15T13:28:42Z</time>
      </trkpt>
      <trkpt lat="40.255167" lon="-4.905583">
        <ele>1251.0</ele>
        <time>2015-03-15T13:28:43Z</time>
      </trkpt>
      <trkpt lat="40.255100" lon="-4.905550">
        <ele>1251.0</ele>
        <time>2015-03-15T13:28:44Z</time>
      </trkpt>
      <trkpt lat="40.255033" lon="-4.905517">
        <ele>1250.0</ele>
        <time>2015-03-15T13:28:45Z</time>
      </trkpt>
      <trkpt lat="40.254983" lon="-4.905500">
        <ele>1250.0</ele>
        <time>2015-03-15T13:28:46Z</time>
      </trkpt>
      <trkpt lat="40.254933" lon="-4.905467">
        <ele>1249.0</ele>
        <time>2015-03-15T13:28:47Z</time>
      </trkpt>
      <trkpt lat="40.254867" lon="-4.905450">
        <ele>1247.0</ele>
        <time>2015-03-15T13:28:48Z</time>
      </trkpt>
      <trkpt lat="40.254800" lon="-4.905433">
        <ele>1246.0</ele>
        <time>2015-03-15T13:28:49Z</time>
      </trkpt>
      <trkpt lat="40.254717" lon="-4.905400">
        <ele>1244.0</ele>
        <time>2015-03-15T13:28:50Z</time>
      </trkpt>
      <trkpt lat="40.254650" lon="-4.905367">
        <ele>1242.0</ele>
        <time>2015-03-15T13:28:51Z</time>
      </trkpt>
      <trkpt lat="40.254550" lon="-4.905317">
        <ele>1241.0</ele>
        <time>2015-03-15T13:28:52Z</time>
      </trkpt>
      <trkpt lat="40.254467" lon="-4.905283">
        <ele>1241.0</ele>
        <time>2015-03-15T13:28:53Z</time>
      </trkpt>
      <trkpt lat="40.254383" lon="-4.905283">
        <ele>1241.0</ele>
        <time>2015-03-15T13:28:54Z</time>
      </trkpt>
      <trkpt lat="40.254317" lon="-4.905283">
        <ele>1243.0</ele>
        <time>2015-03-15T13:28:55Z</time>
      </trkpt>
      <trkpt lat="40.254250" lon="-4.905250">
        <ele>1244.0</ele>
        <time>2015-03-15T13:28:56Z</time>
      </trkpt>
      <trkpt lat="40.254183" lon="-4.905200">
        <ele>1243.0</ele>
        <time>2015-03-15T13:28:57Z</time>
      </trkpt>
      <trkpt lat="40.254117" lon="-4.905167">
        <ele>1242.0</ele>
        <time>2015-03-15T13:28:58Z</time>
      </trkpt>
      <trkpt lat="40.254050" lon="-4.905117">
        <ele>1240.0</ele>
        <time>2015-03-15T13:28:59Z</time>
      </trkpt>
      <trkpt lat="40.253967" lon="-4.905067">
        <ele>1239.0</ele>
        <time>2015-03-15T13:29:00Z</time>
      </trkpt>
      <trkpt lat="40.253883" lon="-4.905000">
        <ele>1238.0</ele>
        <time>2015-03-15T13:29:01Z</time>
      </trkpt>
      <trkpt lat="40.253817" lon="-4.904950">
        <ele>1238.0</ele>
        <time>2015-03-15T13:29:02Z</time>
      </trkpt>
      <trkpt lat="40.253750" lon="-4.904917">
        <ele>1238.0</ele>
        <time>2015-03-15T13:29:03Z</time>
      </trkpt>
      <trkpt lat="40.253667" lon="-4.904900">
        <ele>1237.0</ele>
        <time>2015-03-15T13:29:04Z</time>
      </trkpt>
      <trkpt lat="40.253600" lon="-4.904883">
        <ele>1236.0</ele>
        <time>2015-03-15T13:29:05Z</time>
      </trkpt>
      <trkpt lat="40.253517" lon="-4.904867">
        <ele>1236.0</ele>
        <time>2015-03-15T13:29:06Z</time>
      </trkpt>
      <trkpt lat="40.253450" lon="-4.904817">
        <ele>1236.0</ele>
        <time>2015-03-15T13:29:07Z</time>
      </trkpt>
      <trkpt lat="40.253367" lon="-4.904783">
        <ele>1236.0</ele>
        <time>2015-03-15T13:29:08Z</time>
      </trkpt>
      <trkpt lat="40.253300" lon="-4.904733">
        <ele>1236.0</ele>
        <time>2015-03-15T13:29:09Z</time>
      </trkpt>
      <trkpt lat="40.253233" lon="-4.904700">
        <ele>1235.0</ele>
        <time>2015-03-15T13:29:10Z</time>
      </trkpt>
      <trkpt lat="40.253150" lon="-4.904650">
        <ele>1235.0</ele>
        <time>2015-03-15T13:29:11Z</time>
      </trkpt>
      <trkpt lat="40.253083" lon="-4.904617">
        <ele>1234.0</ele>
        <time>2015-03-15T13:29:12Z</time>
      </trkpt>
      <trkpt lat="40.253017" lon="-4.904583">
        <ele>1233.0</ele>
        <time>2015-03-15T13:29:13Z</time>
      </trkpt>
      <trkpt lat="40.252933" lon="-4.904533">
        <ele>1231.0</ele>
        <time>2015-03-15T13:29:14Z</time>
      </trkpt>
      <trkpt lat="40.252867" lon="-4.904500">
        <ele>1230.0</ele>
        <time>2015-03-15T13:29:15Z</time>
      </trkpt>
      <trkpt lat="40.252783" lon="-4.904450">
        <ele>1229.0</ele>
        <time>2015-03-15T13:29:16Z</time>
      </trkpt>
      <trkpt lat="40.252683" lon="-4.904383">
        <ele>1229.0</ele>
        <time>2015-03-15T13:29:17Z</time>
      </trkpt>
      <trkpt lat="40.252583" lon="-4.904333">
        <ele>1230.0</ele>
        <time>2015-03-15T13:29:18Z</time>
      </trkpt>
      <trkpt lat="40.252483" lon="-4.904267">
        <ele>1233.0</ele>
        <time>2015-03-15T13:29:19Z</time>
      </trkpt>
      <trkpt lat="40.252417" lon="-4.904217">
        <ele>1237.0</ele>
        <time>2015-03-15T13:29:20Z</time>
      </trkpt>
      <trkpt lat="40.252367" lon="-4.904150">
        <ele>1240.0</ele>
        <time>2015-03-15T13:29:21Z</time>
      </trkpt>
      <trkpt lat="40.252317" lon="-4.904100">
        <ele>1241.0</ele>
        <time>2015-03-15T13:29:22Z</time>
      </trkpt>
      <trkpt lat="40.252267" lon="-4.904050">
        <ele>1241.0</ele>
        <time>2015-03-15T13:29:23Z</time>
      </trkpt>
      <trkpt lat="40.252217" lon="-4.904000">
        <ele>1240.0</ele>
        <time>2015-03-15T13:29:24Z</time>
      </trkpt>
      <trkpt lat="40.252150" lon="-4.903933">
        <ele>1239.0</ele>
        <time>2015-03-15T13:29:25Z</time>
      </trkpt>
      <trkpt lat="40.252083" lon="-4.903867">
        <ele>1238.0</ele>
        <time>2015-03-15T13:29:26Z</time>
      </trkpt>
      <trkpt lat="40.252017" lon="-4.903800">
        <ele>1237.0</ele>
        <time>2015-03-15T13:29:27Z</time>
      </trkpt>
      <trkpt lat="40.251933" lon="-4.903733">
        <ele>1236.0</ele>
        <time>2015-03-15T13:29:28Z</time>
      </trkpt>
      <trkpt lat="40.251867" lon="-4.903683">
        <ele>1236.0</ele>
        <time>2015-03-15T13:29:29Z</time>
      </trkpt>
      <trkpt lat="40.251783" lon="-4.903633">
        <ele>1236.0</ele>
        <time>2015-03-15T13:29:30Z</time>
      </trkpt>
      <trkpt lat="40.251717" lon="-4.903567">
        <ele>1235.0</ele>
        <time>2015-03-15T13:29:31Z</time>
      </trkpt>
      <trkpt lat="40.251650" lon="-4.903500">
        <ele>1234.0</ele>
        <time>2015-03-15T13:29:32Z</time>
      </trkpt>
      <trkpt lat="40.251567" lon="-4.903433">
        <ele>1234.0</ele>
        <time>2015-03-15T13:29:33Z</time>
      </trkpt>
      <trkpt lat="40.251483" lon="-4.903367">
        <ele>1234.0</ele>
        <time>2015-03-15T13:29:34Z</time>
      </trkpt>
      <trkpt lat="40.251400" lon="-4.903300">
        <ele>1234.0</ele>
        <time>2015-03-15T13:29:35Z</time>
      </trkpt>
      <trkpt lat="40.251300" lon="-4.903267">
        <ele>1235.0</ele>
        <time>2015-03-15T13:29:36Z</time>
      </trkpt>
      <trkpt lat="40.251217" lon="-4.903217">
        <ele>1237.0</ele>
        <time>2015-03-15T13:29:37Z</time>
      </trkpt>
      <trkpt lat="40.251133" lon="-4.903167">
        <ele>1239.0</ele>
        <time>2015-03-15T13:29:38Z</time>
      </trkpt>
      <trkpt lat="40.251067" lon="-4.903117">
        <ele>1240.0</ele>
        <time>2015-03-15T13:29:39Z</time>
      </trkpt>
      <trkpt lat="40.251000" lon="-4.903050">
        <ele>1242.0</ele>
        <time>2015-03-15T13:29:40Z</time>
      </trkpt>
      <trkpt lat="40.250933" lon="-4.903000">
        <ele>1244.0</ele>
        <time>2015-03-15T13:29:41Z</time>
      </trkpt>
      <trkpt lat="40.250867" lon="-4.902933">
        <ele>1245.0</ele>
        <time>2015-03-15T13:29:42Z</time>
      </trkpt>
      <trkpt lat="40.250800" lon="-4.902883">
        <ele>1247.0</ele>
        <time>2015-03-15T13:29:43Z</time>
      </trkpt>
      <trkpt lat="40.250733" lon="-4.902833">
        <ele>1247.0</ele>
        <time>2015-03-15T13:29:44Z</time>
      </trkpt>
      <trkpt lat="40.250650" lon="-4.902800">
        <ele>1248.0</ele>
        <time>2015-03-15T13:29:45Z</time>
      </trkpt>
      <trkpt lat="40.250583" lon="-4.902800">
        <ele>1249.0</ele>
        <time>2015-03-15T13:29:46Z</time>
      </trkpt>
      <trkpt lat="40.250517" lon="-4.902817">
        <ele>1251.0</ele>
        <time>2015-03-15T13:29:47Z</time>
      </trkpt>
      <trkpt lat="40.250467" lon="-4.902833">
        <ele>1253.0</ele>
        <time>2015-03-15T13:29:48Z</time>
      </trkpt>
      <trkpt lat="40.250417" lon="-4.902800">
        <ele>1256.0</ele>
        <time>2015-03-15T13:29:49Z</time>
      </trkpt>
      <trkpt lat="40.250367" lon="-4.902750">
        <ele>1257.0</ele>
        <time>2015-03-15T13:29:50Z</time>
      </trkpt>
      <trkpt lat="40.250333" lon="-4.902700">
        <ele>1259.0</ele>
        <time>2015-03-15T13:29:51Z</time>
      </trkpt>
      <trkpt lat="40.250283" lon="-4.902667">
        <ele>1260.0</ele>
        <time>2015-03-15T13:29:52Z</time>
      </trkpt>
      <trkpt lat="40.250250" lon="-4.902667">
        <ele>1260.0</ele>
        <time>2015-03-15T13:29:53Z</time>
      </trkpt>
      <trkpt lat="40.250200" lon="-4.902683">
        <ele>1260.0</ele>
        <time>2015-03-15T13:29:54Z</time>
      </trkpt>
      <trkpt lat="40.250167" lon="-4.902750">
        <ele>1258.0</ele>
        <time>2015-03-15T13:29:55Z</time>
      </trkpt>
      <trkpt lat="40.250133" lon="-4.902850">
        <ele>1257.0</ele>
        <time>2015-03-15T13:29:56Z</time>
      </trkpt>
      <trkpt lat="40.250150" lon="-4.902967">
        <ele>1258.0</ele>
        <time>2015-03-15T13:29:57Z</time>
      </trkpt>
      <trkpt lat="40.250217" lon="-4.903083">
        <ele>1259.0</ele>
        <time>2015-03-15T13:29:58Z</time>
      </trkpt>
      <trkpt lat="40.250317" lon="-4.903150">
        <ele>1260.0</ele>
        <time>2015-03-15T13:29:59Z</time>
      </trkpt>
      <trkpt lat="40.250433" lon="-4.903183">
        <ele>1261.0</ele>
        <time>2015-03-15T13:30:00Z</time>
      </trkpt>
      <trkpt lat="40.250550" lon="-4.903200">
        <ele>1261.0</ele>
        <time>2015-03-15T13:30:01Z</time>
      </trkpt>
      <trkpt lat="40.250667" lon="-4.903183">
        <ele>1262.0</ele>
        <time>2015-03-15T13:30:02Z</time>
      </trkpt>
      <trkpt lat="40.250783" lon="-4.903183">
        <ele>1263.0</ele>
        <time>2015-03-15T13:30:03Z</time>
      </trkpt>
      <trkpt lat="40.250883" lon="-4.903167">
        <ele>1264.0</ele>
        <time>2015-03-15T13:30:04Z</time>
      </trkpt>
      <trkpt lat="40.251000" lon="-4.903150">
        <ele>1265.0</ele>
        <time>2015-03-15T13:30:05Z</time>
      </trkpt>
      <trkpt lat="40.251117" lon="-4.903117">
        <ele>1266.0</ele>
        <time>2015-03-15T13:30:06Z</time>
      </trkpt>
      <trkpt lat="40.251233" lon="-4.903083">
        <ele>1268.0</ele>
        <time>2015-03-15T13:30:07Z</time>
      </trkpt>
      <trkpt lat="40.251333" lon="-4.903067">
        <ele>1270.0</ele>
        <time>2015-03-15T13:30:08Z</time>
      </trkpt>
      <trkpt lat="40.251417" lon="-4.903067">
        <ele>1272.0</ele>
        <time>2015-03-15T13:30:09Z</time>
      </trkpt>
      <trkpt lat="40.251500" lon="-4.903100">
        <ele>1272.0</ele>
        <time>2015-03-15T13:30:10Z</time>
      </trkpt>
      <trkpt lat="40.251550" lon="-4.903167">
        <ele>1272.0</ele>
        <time>2015-03-15T13:30:11Z</time>
      </trkpt>
      <trkpt lat="40.251600" lon="-4.903233">
        <ele>1272.0</ele>
        <time>2015-03-15T13:30:12Z</time>
      </trkpt>
      <trkpt lat="40.251633" lon="-4.903317">
        <ele>1272.0</ele>
        <time>2015-03-15T13:30:13Z</time>
      </trkpt>
      <trkpt lat="40.251617" lon="-4.903383">
        <ele>1271.0</ele>
        <time>2015-03-15T13:30:14Z</time>
      </trkpt>
      <trkpt lat="40.251583" lon="-4.903450">
        <ele>1271.0</ele>
        <time>2015-03-15T13:30:15Z</time>
      </trkpt>
      <trkpt lat="40.251533" lon="-4.903483">
        <ele>1271.0</ele>
        <time>2015-03-15T13:30:16Z</time>
      </trkpt>
      <trkpt lat="40.251467" lon="-4.903500">
        <ele>1271.0</ele>
        <time>2015-03-15T13:30:17Z</time>
      </trkpt>
      <trkpt lat="40.251417" lon="-4.903483">
        <ele>1272.0</ele>
        <time>2015-03-15T13:30:18Z</time>
      </trkpt>
      <trkpt lat="40.251350" lon="-4.903450">
        <ele>1273.0</ele>
        <time>2015-03-15T13:30:19Z</time>
      </trkpt>
      <trkpt lat="40.251283" lon="-4.903417">
        <ele>1274.0</ele>
        <time>2015-03-15T13:30:20Z</time>
      </trkpt>
      <trkpt lat="40.251233" lon="-4.903367">
        <ele>1276.0</ele>
        <time>2015-03-15T13:30:21Z</time>
      </trkpt>
      <trkpt lat="40.251167" lon="-4.903350">
        <ele>1277.0</ele>
        <time>2015-03-15T13:30:22Z</time>
      </trkpt>
      <trkpt lat="40.251100" lon="-4.903350">
        <ele>1277.0</ele>
        <time>2015-03-15T13:30:23Z</time>
      </trkpt>
      <trkpt lat="40.251050" lon="-4.903333">
        <ele>1278.0</ele>
        <time>2015-03-15T13:30:24Z</time>
      </trkpt>
      <trkpt lat="40.250983" lon="-4.903317">
        <ele>1279.0</ele>
        <time>2015-03-15T13:30:25Z</time>
      </trkpt>
      <trkpt lat="40.250933" lon="-4.903267">
        <ele>1279.0</ele>
        <time>2015-03-15T13:30:26Z</time>
      </trkpt>
      <trkpt lat="40.250883" lon="-4.903200">
        <ele>1279.0</ele>
        <time>2015-03-15T13:30:27Z</time>
      </trkpt>
      <trkpt lat="40.250833" lon="-4.903100">
        <ele>1278.0</ele>
        <time>2015-03-15T13:30:28Z</time>
      </trkpt>
      <trkpt lat="40.250783" lon="-4.902983">
        <ele>1279.0</ele>
        <time>2015-03-15T13:30:29Z</time>
      </trkpt>
      <trkpt lat="40.250750" lon="-4.902883">
        <ele>1281.0</ele>
        <time>2015-03-15T13:30:30Z</time>
      </trkpt>
      <trkpt lat="40.250717" lon="-4.902800">
        <ele>1283.0</ele>
        <time>2015-03-15T13:30:31Z</time>
      </trkpt>
      <trkpt lat="40.250667" lon="-4.902733">
        <ele>1285.0</ele>
        <time>2015-03-15T13:30:32Z</time>
      </trkpt>
      <trkpt lat="40.250617" lon="-4.902700">
        <ele>1286.0</ele>
        <time>2015-03-15T13:30:33Z</time>
      </trkpt>
      <trkpt lat="40.250567" lon="-4.902667">
        <ele>1287.0</ele>
        <time>2015-03-15T13:30:34Z</time>
      </trkpt>
      <trkpt lat="40.250533" lon="-4.902650">
        <ele>1289.0</ele>
        <time>2015-03-15T13:30:35Z</time>
      </trkpt>
      <trkpt lat="40.250483" lon="-4.902650">
        <ele>1289.0</ele>
        <time>2015-03-15T13:30:36Z</time>
      </trkpt>
      <trkpt lat="40.250450" lon="-4.902667">
        <ele>1289.0</ele>
        <time>2015-03-15T13:30:37Z</time>
      </trkpt>
      <trkpt lat="40.250417" lon="-4.902717">
        <ele>1289.0</ele>
        <time>2015-03-15T13:30:38Z</time>
      </trkpt>
      <trkpt lat="40.250383" lon="-4.902783">
        <ele>1289.0</ele>
        <time>2015-03-15T13:30:39Z</time>
      </trkpt>
      <trkpt lat="40.250383" lon="-4.902867">
        <ele>1289.0</ele>
        <time>2015-03-15T13:30:40Z</time>
      </trkpt>
      <trkpt lat="40.250400" lon="-4.902983">
        <ele>1288.0</ele>
        <time>2015-03-15T13:30:41Z</time>
      </trkpt>
      <trkpt lat="40.250450" lon="-4.903083">
        <ele>1288.0</ele>
        <time>2015-03-15T13:30:42Z</time>
      </trkpt>
      <trkpt lat="40.250533" lon="-4.903183">
        <ele>1287.0</ele>
        <time>2015-03-15T13:30:43Z</time>
      </trkpt>
      <trkpt lat="40.250633" lon="-4.903250">
        <ele>1286.0</ele>
        <time>2015-03-15T13:30:44Z</time>
      </trkpt>
      <trkpt lat="40.250767" lon="-4.903267">
        <ele>1285.0</ele>
        <time>2015-03-15T13:30:45Z</time>
      </trkpt>
      <trkpt lat="40.250883" lon="-4.903217">
        <ele>1286.0</ele>
        <time>2015-03-15T13:30:46Z</time>
      </trkpt>
      <trkpt lat="40.250983" lon="-4.903150">
        <ele>1289.0</ele>
        <time>2015-03-15T13:30:47Z</time>
      </trkpt>
      <trkpt lat="40.251067" lon="-4.903067">
        <ele>1292.0</ele>
        <time>2015-03-15T13:30:48Z</time>
      </trkpt>
      <trkpt lat="40.251150" lon="-4.903000">
        <ele>1294.0</ele>
        <time>2015-03-15T13:30:49Z</time>
      </trkpt>
      <trkpt lat="40.251233" lon="-4.902950">
        <ele>1296.0</ele>
        <time>2015-03-15T13:30:50Z</time>
      </trkpt>
      <trkpt lat="40.251317" lon="-4.902933">
        <ele>1297.0</ele>
        <time>2015-03-15T13:30:51Z</time>
      </trkpt>
      <trkpt lat="40.251400" lon="-4.902917">
        <ele>1297.0</ele>
        <time>2015-03-15T13:30:52Z</time>
      </trkpt>
      <trkpt lat="40.251500" lon="-4.902917">
        <ele>1297.0</ele>
        <time>2015-03-15T13:30:53Z</time>
      </trkpt>
      <trkpt lat="40.251600" lon="-4.902917">
        <ele>1297.0</ele>
        <time>2015-03-15T13:30:54Z</time>
      </trkpt>
      <trkpt lat="40.251700" lon="-4.902950">
        <ele>1297.0</ele>
        <time>2015-03-15T13:30:55Z</time>
      </trkpt>
      <trkpt lat="40.251783" lon="-4.903000">
        <ele>1298.0</ele>
        <time>2015-03-15T13:30:56Z</time>
      </trkpt>
      <trkpt lat="40.251850" lon="-4.903067">
        <ele>1298.0</ele>
        <time>2015-03-15T13:30:57Z</time>
      </trkpt>
      <trkpt lat="40.251883" lon="-4.903167">
        <ele>1298.0</ele>
        <time>2015-03-15T13:30:58Z</time>
      </trkpt>
      <trkpt lat="40.251900" lon="-4.903267">
        <ele>1298.0</ele>
        <time>2015-03-15T13:30:59Z</time>
      </trkpt>
      <trkpt lat="40.251883" lon="-4.903350">
        <ele>1298.0</ele>
        <time>2015-03-15T13:31:00Z</time>
      </trkpt>
      <trkpt lat="40.251850" lon="-4.903400">
        <ele>1299.0</ele>
        <time>2015-03-15T13:31:01Z</time>
      </trkpt>
      <trkpt lat="40.251817" lon="-4.903417">
        <ele>1299.0</ele>
        <time>2015-03-15T13:31:02Z</time>
      </trkpt>
      <trkpt lat="40.251767" lon="-4.903400">
        <ele>1300.0</ele>
        <time>2015-03-15T13:31:03Z</time>
      </trkpt>
      <trkpt lat="40.251717" lon="-4.903350">
        <ele>1300.0</ele>
        <time>2015-03-15T13:31:04Z</time>
      </trkpt>
      <trkpt lat="40.251667" lon="-4.903283">
        <ele>1301.0</ele>
        <time>2015-03-15T13:31:05Z</time>
      </trkpt>
      <trkpt lat="40.251617" lon="-4.903183">
        <ele>1302.0</ele>
        <time>2015-03-15T13:31:06Z</time>
      </trkpt>
      <trkpt lat="40.251583" lon="-4.903100">
        <ele>1303.0</ele>
        <time>2015-03-15T13:31:07Z</time>
      </trkpt>
      <trkpt lat="40.251567" lon="-4.903000">
        <ele>1305.0</ele>
        <time>2015-03-15T13:31:08Z</time>
      </trkpt>
      <trkpt lat="40.251533" lon="-4.902900">
        <ele>1306.0</ele>
        <time>2015-03-15T13:31:09Z</time>
      </trkpt>
      <trkpt lat="40.251517" lon="-4.902783">
        <ele>1307.0</ele>
        <time>2015-03-15T13:31:10Z</time>
      </trkpt>
      <trkpt lat="40.251483" lon="-4.902683">
        <ele>1309.0</ele>
        <time>2015-03-15T13:31:11Z</time>
      </trkpt>
      <trkpt lat="40.251467" lon="-4.902600">
        <ele>1311.0</ele>
        <time>2015-03-15T13:31:12Z</time>
      </trkpt>
      <trkpt lat="40.251433" lon="-4.902533">
        <ele>1312.0</ele>
        <time>2015-03-15T13:31:13Z</time>
      </trkpt>
      <trkpt lat="40.251400" lon="-4.902467">
        <ele>1312.0</ele>
        <time>2015-03-15T13:31:14Z</time>
      </trkpt>
      <trkpt lat="40.251350" lon="-4.902400">
        <ele>1312.0</ele>
        <time>2015-03-15T13:31:15Z</time>
      </trkpt>
      <trkpt lat="40.251283" lon="-4.902333">
        <ele>1312.0</ele>
        <time>2015-03-15T13:31:16Z</time>
      </trkpt>
      <trkpt lat="40.251217" lon="-4.902283">
        <ele>1312.0</ele>
        <time>2015-03-15T13:31:17Z</time>
      </trkpt>
      <trkpt lat="40.251150" lon="-4.902233">
        <ele>1313.0</ele>
        <time>2015-03-15T13:31:18Z</time>
      </trkpt>
      <trkpt lat="40.251083" lon="-4.902217">
        <ele>1314.0</ele>
        <time>2015-03-15T13:31:19Z</time>
      </trkpt>
      <trkpt lat="40.251033" lon="-4.902200">
        <ele>1316.0</ele>
        <time>2015-03-15T13:31:20Z</time>
      </trkpt>
      <trkpt lat="40.250967" lon="-4.902200">
        <ele>1318.0</ele>
        <time>2015-03-15T13:31:21Z</time>
      </trkpt>
      <trkpt lat="40.250917" lon="-4.902200">
        <ele>1319.0</ele>
        <time>2015-03-15T13:31:22Z</time>
      </trkpt>
      <trkpt lat="40.250883" lon="-4.902217">
        <ele>1320.0</ele>
        <time>2015-03-15T13:31:23Z</time>
      </trkpt>
      <trkpt lat="40.250833" lon="-4.902267">
        <ele>1321.0</ele>
        <time>2015-03-15T13:31:24Z</time>
      </trkpt>
      <trkpt lat="40.250800" lon="-4.902350">
        <ele>1321.0</ele>
        <time>2015-03-15T13:31:25Z</time>
      </trkpt>
      <trkpt lat="40.250800" lon="-4.902450">
        <ele>1322.0</ele>
        <time>2015-03-15T13:31:26Z</time>
      </trkpt>
      <trkpt lat="40.250800" lon="-4.902550">
        <ele>1323.0</ele>
        <time>2015-03-15T13:31:27Z</time>
      </trkpt>
      <trkpt lat="40.250833" lon="-4.902667">
        <ele>1325.0</ele>
        <time>2015-03-15T13:31:28Z</time>
      </trkpt>
      <trkpt lat="40.250883" lon="-4.902750">
        <ele>1326.0</ele>
        <time>2015-03-15T13:31:29Z</time>
      </trkpt>
      <trkpt lat="40.250950" lon="-4.902833">
        <ele>1327.0</ele>
        <time>2015-03-15T13:31:30Z</time>
      </trkpt>
      <trkpt lat="40.251017" lon="-4.902900">
        <ele>1327.0</ele>
        <time>2015-03-15T13:31:31Z</time>
      </trkpt>
      <trkpt lat="40.251100" lon="-4.902967">
        <ele>1328.0</ele>
        <time>2015-03-15T13:31:32Z</time>
      </trkpt>
      <trkpt lat="40.251200" lon="-4.903017">
        <ele>1327.0</ele>
        <time>2015-03-15T13:31:33Z</time>
      </trkpt>
      <trkpt lat="40.251317" lon="-4.903050">
        <ele>1326.0</ele>
        <time>2015-03-15T13:31:34Z</time>
      </trkpt>
      <trkpt lat="40.251433" lon="-4.903083">
        <ele>1327.0</ele>
        <time>2015-03-15T13:31:35Z</time>
      </trkpt>
      <trkpt lat="40.251550" lon="-4.903083">
        <ele>1327.0</ele>
        <time>2015-03-15T13:31:36Z</time>
      </trkpt>
      <trkpt lat="40.251667" lon="-4.903067">
        <ele>1328.0</ele>
        <time>2015-03-15T13:31:37Z</time>
      </trkpt>
      <trkpt lat="40.251783" lon="-4.903017">
        <ele>1327.0</ele>
        <time>2015-03-15T13:31:38Z</time>
      </trkpt>
      <trkpt lat="40.251900" lon="-4.902967">
        <ele>1327.0</ele>
        <time>2015-03-15T13:31:39Z</time>
      </trkpt>
      <trkpt lat="40.252017" lon="-4.902900">
        <ele>1327.0</ele>
        <time>2015-03-15T13:31:40Z</time>
      </trkpt>
      <trkpt lat="40.252133" lon="-4.902867">
        <ele>1327.0</ele>
        <time>2015-03-15T13:31:41Z</time>
      </trkpt>
      <trkpt lat="40.252267" lon="-4.902833">
        <ele>1326.0</ele>
        <time>2015-03-15T13:31:42Z</time>
      </trkpt>
      <trkpt lat="40.252400" lon="-4.902850">
        <ele>1326.0</ele>
        <time>2015-03-15T13:31:43Z</time>
      </trkpt>
      <trkpt lat="40.252517" lon="-4.902883">
        <ele>1327.0</ele>
        <time>2015-03-15T13:31:44Z</time>
      </trkpt>
      <trkpt lat="40.252617" lon="-4.902967">
        <ele>1326.0</ele>
        <time>2015-03-15T13:31:45Z</time>
      </trkpt>
      <trkpt lat="40.252683" lon="-4.903067">
        <ele>1325.0</ele>
        <time>2015-03-15T13:31:46Z</time>
      </trkpt>
      <trkpt lat="40.252733" lon="-4.903167">
        <ele>1324.0</ele>
        <time>2015-03-15T13:31:47Z</time>
      </trkpt>
      <trkpt lat="40.252750" lon="-4.903267">
        <ele>1323.0</ele>
        <time>2015-03-15T13:31:48Z</time>
      </trkpt>
      <trkpt lat="40.252750" lon="-4.903350">
        <ele>1323.0</ele>
        <time>2015-03-15T13:31:49Z</time>
      </trkpt>
      <trkpt lat="40.252717" lon="-4.903417">
        <ele>1323.0</ele>
        <time>2015-03-15T13:31:50Z</time>
      </trkpt>
      <trkpt lat="40.252667" lon="-4.903433">
        <ele>1323.0</ele>
        <time>2015-03-15T13:31:51Z</time>
      </trkpt>
      <trkpt lat="40.252617" lon="-4.903417">
        <ele>1323.0</ele>
        <time>2015-03-15T13:31:52Z</time>
      </trkpt>
      <trkpt lat="40.252567" lon="-4.903367">
        <ele>1323.0</ele>
        <time>2015-03-15T13:31:53Z</time>
      </trkpt>
      <trkpt lat="40.252517" lon="-4.903300">
        <ele>1323.0</ele>
        <time>2015-03-15T13:31:54Z</time>
      </trkpt>
      <trkpt lat="40.252467" lon="-4.903250">
        <ele>1323.0</ele>
        <time>2015-03-15T13:31:55Z</time>
      </trkpt>
      <trkpt lat="40.252417" lon="-4.903200">
        <ele>1323.0</ele>
        <time>2015-03-15T13:31:56Z</time>
      </trkpt>
      <trkpt lat="40.252367" lon="-4.903150">
        <ele>1322.0</ele>
        <time>2015-03-15T13:31:57Z</time>
      </trkpt>
      <trkpt lat="40.252300" lon="-4.903117">
        <ele>1323.0</ele>
        <time>2015-03-15T13:31:58Z</time>
      </trkpt>
      <trkpt lat="40.252250" lon="-4.903067">
        <ele>1323.0</ele>
        <time>2015-03-15T13:31:59Z</time>
      </trkpt>
      <trkpt lat="40.252200" lon="-4.903050">
        <ele>1323.0</ele>
        <time>2015-03-15T13:32:00Z</time>
      </trkpt>
      <trkpt lat="40.252150" lon="-4.903017">
        <ele>1323.0</ele>
        <time>2015-03-15T13:32:01Z</time>
      </trkpt>
      <trkpt lat="40.252100" lon="-4.903017">
        <ele>1323.0</ele>
        <time>2015-03-15T13:32:02Z</time>
      </trkpt>
      <trkpt lat="40.252033" lon="-4.903000">
        <ele>1323.0</ele>
        <time>2015-03-15T13:32:03Z</time>
      </trkpt>
      <trkpt lat="40.251967" lon="-4.902983">
        <ele>1323.0</ele>
        <time>2015-03-15T13:32:04Z</time>
      </trkpt>
      <trkpt lat="40.251900" lon="-4.902950">
        <ele>1325.0</ele>
        <time>2015-03-15T13:32:05Z</time>
      </trkpt>
      <trkpt lat="40.251833" lon="-4.902900">
        <ele>1328.0</ele>
        <time>2015-03-15T13:32:06Z</time>
      </trkpt>
      <trkpt lat="40.251783" lon="-4.902867">
        <ele>1330.0</ele>
        <time>2015-03-15T13:32:07Z</time>
      </trkpt>
      <trkpt lat="40.251750" lon="-4.902850">
        <ele>1332.0</ele>
        <time>2015-03-15T13:32:08Z</time>
      </trkpt>
      <trkpt lat="40.251700" lon="-4.902850">
        <ele>1332.0</ele>
        <time>2015-03-15T13:32:09Z</time>
      </trkpt>
      <trkpt lat="40.251667" lon="-4.902883">
        <ele>1332.0</ele>
        <time>2015-03-15T13:32:10Z</time>
      </trkpt>
      <trkpt lat="40.251633" lon="-4.902900">
        <ele>1332.0</ele>
        <time>2015-03-15T13:32:11Z</time>
      </trkpt>
      <trkpt lat="40.251583" lon="-4.902917">
        <ele>1331.0</ele>
        <time>2015-03-15T13:32:12Z</time>
      </trkpt>
      <trkpt lat="40.251533" lon="-4.902900">
        <ele>1330.0</ele>
        <time>2015-03-15T13:32:13Z</time>
      </trkpt>
      <trkpt lat="40.251483" lon="-4.902867">
        <ele>1330.0</ele>
        <time>2015-03-15T13:32:14Z</time>
      </trkpt>
      <trkpt lat="40.251433" lon="-4.902850">
        <ele>1328.0</ele>
        <time>2015-03-15T13:32:15Z</time>
      </trkpt>
      <trkpt lat="40.251383" lon="-4.902817">
        <ele>1328.0</ele>
        <time>2015-03-15T13:32:16Z</time>
      </trkpt>
      <trkpt lat="40.251333" lon="-4.902783">
        <ele>1327.0</ele>
        <time>2015-03-15T13:32:17Z</time>
      </trkpt>
      <trkpt lat="40.251283" lon="-4.902750">
        <ele>1327.0</ele>
        <time>2015-03-15T13:32:18Z</time>
      </trkpt>
      <trkpt lat="40.251233" lon="-4.902733">
        <ele>1326.0</ele>
        <time>2015-03-15T13:32:19Z</time>
      </trkpt>
      <trkpt lat="40.251183" lon="-4.902717">
        <ele>1324.0</ele>
        <time>2015-03-15T13:32:20Z</time>
      </trkpt>
      <trkpt lat="40.251133" lon="-4.902683">
        <ele>1323.0</ele>
        <time>2015-03-15T13:32:21Z</time>
      </trkpt>
      <trkpt lat="40.251067" lon="-4.902667">
        <ele>1322.0</ele>
        <time>2015-03-15T13:32:22Z</time>
      </trkpt>
      <trkpt lat="40.251017" lon="-4.902667">
        <ele>1320.0</ele>
        <time>2015-03-15T13:32:23Z</time>
      </trkpt>
      <trkpt lat="40.250950" lon="-4.902650">
        <ele>1319.0</ele>
        <time>2015-03-15T13:32:24Z</time>
      </trkpt>
      <trkpt lat="40.250883" lon="-4.902633">
        <ele>1318.0</ele>
        <time>2015-03-15T13:32:25Z</time>
      </trkpt>
      <trkpt lat="40.250800" lon="-4.902600">
        <ele>1318.0</ele>
        <time>2015-03-15T13:32:26Z</time>
      </trkpt>
      <trkpt lat="40.250733" lon="-4.902567">
        <ele>1319.0</ele>
        <time>2015-03-15T13:32:27Z</time>
      </trkpt>
      <trkpt lat="40.250667" lon="-4.902533">
        <ele>1321.0</ele>
        <time>2015-03-15T13:32:28Z</time>
      </trkpt>
      <trkpt lat="40.250600" lon="-4.902533">
        <ele>1323.0</ele>
        <time>2015-03-15T13:32:29Z</time>
      </trkpt>
      <trkpt lat="40.250550" lon="-4.902567">
        <ele>1323.0</ele>
        <time>2015-03-15T13:32:30Z</time>
      </trkpt>
      <trkpt lat="40.250500" lon="-4.902617">
        <ele>1324.0</ele>
        <time>2015-03-15T13:32:31Z</time>
      </trkpt>
      <trkpt lat="40.250450" lon="-4.902683">
        <ele>1324.0</ele>
        <time>2015-03-15T13:32:32Z</time>
      </trkpt>
      <trkpt lat="40.250417" lon="-4.902767">
        <ele>1325.0</ele>
        <time>2015-03-15T13:32:33Z</time>
      </trkpt>
      <trkpt lat="40.250400" lon="-4.902850">
        <ele>1327.0</ele>
        <time>2015-03-15T13:32:34Z</time>
      </trkpt>
      <trkpt lat="40.250383" lon="-4.902917">
        <ele>1329.0</ele>
        <time>2015-03-15T13:32:35Z</time>
      </trkpt>
      <trkpt lat="40.250383" lon="-4.903000">
        <ele>1329.0</ele>
        <time>2015-03-15T13:32:36Z</time>
      </trkpt>
      <trkpt lat="40.250367" lon="-4.903067">
        <ele>1330.0</ele>
        <time>2015-03-15T13:32:37Z</time>
      </trkpt>
      <trkpt lat="40.250333" lon="-4.903133">
        <ele>1330.0</ele>
        <time>2015-03-15T13:32:38Z</time>
      </trkpt>
      <trkpt lat="40.250267" lon="-4.903167">
        <ele>1331.0</ele>
        <time>2015-03-15T13:32:39Z</time>
      </trkpt>
      <trkpt lat="40.250183" lon="-4.903167">
        <ele>1332.0</ele>
        <time>2015-03-15T13:32:40Z</time>
      </trkpt>
      <trkpt lat="40.250117" lon="-4.903117">
        <ele>1334.0</ele>
        <time>2015-03-15T13:32:41Z</time>
      </trkpt>
      <trkpt lat="40.250067" lon="-4.903050">
        <ele>1336.0</ele>
        <time>2015-03-15T13:32:42Z</time>
      </trkpt>
      <trkpt lat="40.250050" lon="-4.902950">
        <ele>1337.0</ele>
        <time>2015-03-15T13:32:43Z</time>
      </trkpt>
      <trkpt lat="40.250050" lon="-4.902850">
        <ele>1338.0</ele>
        <time>2015-03-15T13:32:44Z</time>
      </trkpt>
      <trkpt lat="40.250067" lon="-4.902767">
        <ele>1339.0</ele>
        <time>2015-03-15T13:32:45Z</time>
      </trkpt>
      <trkpt lat="40.250083" lon="-4.902667">
        <ele>1339.0</ele>
        <time>2015-03-15T13:32:46Z</time>
      </trkpt>
      <trkpt lat="40.250133" lon="-4.902600">
        <ele>1339.0</ele>
        <time>2015-03-15T13:32:47Z</time>
      </trkpt>
      <trkpt lat="40.250200" lon="-4.902550">
        <ele>1338.0</ele>
        <time>2015-03-15T13:32:48Z</time>
      </trkpt>
      <trkpt lat="40.250300" lon="-4.902500">
        <ele>1337.0</ele>
        <time>2015-03-15T13:32:49Z</time>
      </trkpt>
      <trkpt lat="40.250400" lon="-4.902467">
        <ele>1337.0</ele>
        <time>2015-03-15T13:32:50Z</time>
      </trkpt>
      <trkpt lat="40.250517" lon="-4.902467">
        <ele>1337.0</ele>
        <time>2015-03-15T13:32:51Z</time>
      </trkpt>
      <trkpt lat="40.250617" lon="-4.902483">
        <ele>1337.0</ele>
        <time>2015-03-15T13:32:52Z</time>
      </trkpt>
      <trkpt lat="40.250717" lon="-4.902533">
        <ele>1338.0</ele>
        <time>2015-03-15T13:32:53Z</time>
      </trkpt>
      <trkpt lat="40.250800" lon="-4.902617">
        <ele>1338.0</ele>
        <time>2015-03-15T13:32:54Z</time>
      </trkpt>
      <trkpt lat="40.250850" lon="-4.902717">
        <ele>1339.0</ele>
        <time>2015-03-15T13:32:55Z</time>
      </trkpt>
      <trkpt lat="40.250867" lon="-4.902817">
        <ele>1340.0</ele>
        <time>2015-03-15T13:32:56Z</time>
      </trkpt>
      <trkpt lat="40.250850" lon="-4.902917">
        <ele>1341.0</ele>
        <time>2015-03-15T13:32:57Z</time>
      </trkpt>
      <trkpt lat="40.250817" lon="-4.902983">
        <ele>1343.0</ele>
        <time>2015-03-15T13:32:58Z</time>
      </trkpt>
      <trkpt lat="40.250750" lon="-4.903017">
        <ele>1344.0</ele>
        <time>2015-03-15T13:32:59Z</time>
      </trkpt>
      <trkpt lat="40.250683" lon="-4.903033">
        <ele>1345.0</ele>
        <time>2015-03-15T13:33:00Z</time>
      </trkpt>
      <trkpt lat="40.250617" lon="-4.903000">
        <ele>1348.0</ele>
        <time>2015-03-15T13:33:01Z</time>
      </trkpt>
      <trkpt lat="40.250567" lon="-4.902950">
        <ele>1350.0</ele>
        <time>2015-03-15T13:33:02Z</time>
      </trkpt>
      <trkpt lat="40.250517" lon="-4.902883">
        <ele>1352.0</ele>
        <time>2015-03-15T13:33:03Z</time>
      </trkpt>
      <trkpt lat="40.250483" lon="-4.902833">
        <ele>1354.0</ele>
        <time>2015-03-15T13:33:04Z</time>
      </trkpt>
      <trkpt lat="40.250467" lon="-4.902767">
        <ele>1354.0</ele>
        <time>2015-03-15T13:33:05Z</time>
      </trkpt>
      <trkpt lat="40.250467" lon="-4.902700">
        <ele>1354.0</ele>
        <time>2015-03-15T13:33:06Z</time>
      </trkpt>
      <trkpt lat="40.250483" lon="-4.902600">
        <ele>1353.0</ele>
        <time>2015-03-15T13:33:07Z</time>
      </trkpt>
      <trkpt lat="40.250533" lon="-4.902483">
        <ele>1352.0</ele>
        <time>2015-03-15T13:33:08Z</time>
      </trkpt>
      <trkpt lat="40.250583" lon="-4.902367">
        <ele>1352.0</ele>
        <time>2015-03-15T13:33:09Z</time>
      </trkpt>
      <trkpt lat="40.250667" lon="-4.902283">
        <ele>1352.0</ele>
        <time>2015-03-15T13:33:10Z</time>
      </trkpt>
      <trkpt lat="40.250750" lon="-4.902217">
        <ele>1353.0</ele>
        <time>2015-03-15T13:33:11Z</time>
      </trkpt>
      <trkpt lat="40.250867" lon="-4.902200">
        <ele>1352.0</ele>
        <time>2015-03-15T13:33:12Z</time>
      </trkpt>
      <trkpt lat="40.250983" lon="-4.902217">
        <ele>1351.0</ele>
        <time>2015-03-15T13:33:13Z</time>
      </trkpt>
      <trkpt lat="40.251067" lon="-4.902283">
        <ele>1352.0</ele>
        <time>2015-03-15T13:33:14Z</time>
      </trkpt>
      <trkpt lat="40.251133" lon="-4.902383">
        <ele>1353.0</ele>
        <time>2015-03-15T13:33:15Z</time>
      </trkpt>
      <trkpt lat="40.251150" lon="-4.902500">
        <ele>1354.0</ele>
        <time>2015-03-15T13:33:16Z</time>
      </trkpt>
      <trkpt lat="40.251150" lon="-4.902583">
        <ele>1357.0</ele>
        <time>2015-03-15T13:33:17Z</time>
      </trkpt>
      <trkpt lat="40.251133" lon="-4.902667">
        <ele>1359.0</ele>
        <time>2015-03-15T13:33:18Z</time>
      </trkpt>
      <trkpt lat="40.251133" lon="-4.902750">
        <ele>1361.0</ele>
        <time>2015-03-15T13:33:19Z</time>
      </trkpt>
      <trkpt lat="40.251117" lon="-4.902817">
        <ele>1363.0</ele>
        <time>2015-03-15T13:33:20Z</time>
      </trkpt>
      <trkpt lat="40.251083" lon="-4.902883">
        <ele>1364.0</ele>
        <time>2015-03-15T13:33:21Z</time>
      </trkpt>
      <trkpt lat="40.251050" lon="-4.902950">
        <ele>1365.0</ele>
        <time>2015-03-15T13:33:22Z</time>
      </trkpt>
      <trkpt lat="40.251000" lon="-4.903000">
        <ele>1366.0</ele>
        <time>2015-03-15T13:33:23Z</time>
      </trkpt>
      <trkpt lat="40.250933" lon="-4.903033">
        <ele>1366.0</ele>
        <time>2015-03-15T13:33:24Z</time>
      </trkpt>
      <trkpt lat="40.250867" lon="-4.903033">
        <ele>1367.0</ele>
        <time>2015-03-15T13:33:25Z</time>
      </trkpt>
      <trkpt lat="40.250800" lon="-4.903017">
        <ele>1367.0</ele>
        <time>2015-03-15T13:33:26Z</time>
      </trkpt>
      <trkpt lat="40.250717" lon="-4.902983">
        <ele>1368.0</ele>
        <time>2015-03-15T13:33:27Z</time>
      </trkpt>
      <trkpt lat="40.250650" lon="-4.902967">
        <ele>1370.0</ele>
        <time>2015-03-15T13:33:28Z</time>
      </trkpt>
      <trkpt lat="40.250567" lon="-4.902933">
        <ele>1373.0</ele>
        <time>2015-03-15T13:33:29Z</time>
      </trkpt>
      <trkpt lat="40.250517" lon="-4.902867">
        <ele>1374.0</ele>
        <time>2015-03-15T13:33:30Z</time>
      </trkpt>
      <trkpt lat="40.250500" lon="-4.902800">
        <ele>1375.0</ele>
        <time>2015-03-15T13:33:31Z</time>
      </trkpt>
      <trkpt lat="40.250517" lon="-4.902700">
        <ele>1373.0</ele>
        <time>2015-03-15T13:33:32Z</time>
      </trkpt>
      <trkpt lat="40.250533" lon="-4.902567">
        <ele>1372.0</ele>
        <time>2015-03-15T13:33:33Z</time>
      </trkpt>
      <trkpt lat="40.250583" lon="-4.902450">
        <ele>1372.0</ele>
        <time>2015-03-15T13:33:34Z</time>
      </trkpt>
      <trkpt lat="40.250667" lon="-4.902333">
        <ele>1374.0</ele>
        <time>2015-03-15T13:33:35Z</time>
      </trkpt>
      <trkpt lat="40.250750" lon="-4.902267">
        <ele>1375.0</ele>
        <time>2015-03-15T13:33:36Z</time>
      </trkpt>
      <trkpt lat="40.250850" lon="-4.902217">
        <ele>1375.0</ele>
        <time>2015-03-15T13:33:37Z</time>
      </trkpt>
      <trkpt lat="40.250950" lon="-4.902217">
        <ele>1376.0</ele>
        <time>2015-03-15T13:33:38Z</time>
      </trkpt>
      <trkpt lat="40.251050" lon="-4.902233">
        <ele>1376.0</ele>
        <time>2015-03-15T13:33:39Z</time>
      </trkpt>
      <trkpt lat="40.251133" lon="-4.902267">
        <ele>1376.0</ele>
        <time>2015-03-15T13:33:40Z</time>
      </trkpt>
      <trkpt lat="40.251217" lon="-4.902350">
        <ele>1376.0</ele>
        <time>2015-03-15T13:33:41Z</time>
      </trkpt>
      <trkpt lat="40.251267" lon="-4.902433">
        <ele>1376.0</ele>
        <time>2015-03-15T13:33:42Z</time>
      </trkpt>
      <trkpt lat="40.251300" lon="-4.902533">
        <ele>1376.0</ele>
        <time>2015-03-15T13:33:43Z</time>
      </trkpt>
      <trkpt lat="40.251300" lon="-4.902650">
        <ele>1377.0</ele>
        <time>2015-03-15T13:33:44Z</time>
      </trkpt>
      <trkpt lat="40.251300" lon="-4.902750">
        <ele>1379.0</ele>
        <time>2015-03-15T13:33:45Z</time>
      </trkpt>
      <trkpt lat="40.251283" lon="-4.902850">
        <ele>1381.0</ele>
        <time>2015-03-15T13:33:46Z</time>
      </trkpt>
      <trkpt lat="40.251250" lon="-4.902933">
        <ele>1382.0</ele>
        <time>2015-03-15T13:33:47Z</time>
      </trkpt>
      <trkpt lat="40.251217" lon="-4.903000">
        <ele>1384.0</ele>
        <time>2015-03-15T13:33:48Z</time>
      </trkpt>
      <trkpt lat="40.251183" lon="-4.903083">
        <ele>1385.0</ele>
        <time>2015-03-15T13:33:49Z</time>
      </trkpt>
      <trkpt lat="40.251133" lon="-4.903167">
        <ele>1385.0</ele>
        <time>2015-03-15T13:33:50Z</time>
      </trkpt>
      <trkpt lat="40.251100" lon="-4.903250">
        <ele>1386.0</ele>
        <time>2015-03-15T13:33:51Z</time>
      </trkpt>
      <trkpt lat="40.251067" lon="-4.903333">
        <ele>1387.0</ele>
        <time>2015-03-15T13:33:52Z</time>
      </trkpt>
      <trkpt lat="40.251017" lon="-4.903400">
        <ele>1388.0</ele>
        <time>2015-03-15T13:33:53Z</time>
      </trkpt>
      <trkpt lat="40.250983" lon="-4.903483">
        <ele>1388.0</ele>
        <time>2015-03-15T13:33:54Z</time>
      </trkpt>
      <trkpt lat="40.250933" lon="-4.903567">
        <ele>1387.0</ele>
        <time>2015-03-15T13:33:55Z</time>
      </trkpt>
      <trkpt lat="40.250867" lon="-4.903617">
        <ele>1385.0</ele>
        <time>2015-03-15T13:33:56Z</time>
      </trkpt>
      <trkpt lat="40.250783" lon="-4.903617">
        <ele>1383.0</ele>
        <time>2015-03-15T13:33:57Z</time>
      </trkpt>
      <trkpt lat="40.250733" lon="-4.903583">
        <ele>1382.0</ele>
        <time>2015-03-15T13:33:58Z</time>
      </trkpt>
      <trkpt lat="40.250683" lon="-4.903517">
        <ele>1381.0</ele>
        <time>2015-03-15T13:33:59Z</time>
      </trkpt>
      <trkpt lat="40.250667" lon="-4.903433">
        <ele>1382.0</ele>
        <time>2015-03-15T13:34:00Z</time>
      </trkpt>
      <trkpt lat="40.250650" lon="-4.903350">
        <ele>1382.0</ele>
        <time>2015-03-15T13:34:01Z</time>
      </trkpt>
      <trkpt lat="40.250617" lon="-4.903267">
        <ele>1382.0</ele>
        <time>2015-03-15T13:34:02Z</time>
      </trkpt>
      <trkpt lat="40.250583" lon="-4.903183">
        <ele>1383.0</ele>
        <time>2015-03-15T13:34:03Z</time>
      </trkpt>
      <trkpt lat="40.250567" lon="-4.903083">
        <ele>1384.0</ele>
        <time>2015-03-15T13:34:04Z</time>
      </trkpt>
      <trkpt lat="40.250567" lon="-4.902983">
        <ele>1384.0</ele>
        <time>2015-03-15T13:34:05Z</time>
      </trkpt>
      <trkpt lat="40.250583" lon="-4.902883">
        <ele>1385.0</ele>
        <time>2015-03-15T13:34:06Z</time>
      </trkpt>
      <trkpt lat="40.250633" lon="-4.902767">
        <ele>1386.0</ele>
        <time>2015-03-15T13:34:07Z</time>
      </trkpt>
      <trkpt lat="40.250683" lon="-4.902650">
        <ele>1387.0</ele>
        <time>2015-03-15T13:34:08Z</time>
      </trkpt>
      <trkpt lat="40.250750" lon="-4.902550">
        <ele>1389.0</ele>
        <time>2015-03-15T13:34:09Z</time>
      </trkpt>
      <trkpt lat="40.250817" lon="-4.902467">
        <ele>1391.0</ele>
        <time>2015-03-15T13:34:10Z</time>
      </trkpt>
      <trkpt lat="40.250900" lon="-4.902383">
        <ele>1393.0</ele>
        <time>2015-03-15T13:34:11Z</time>
      </trkpt>
      <trkpt lat="40.250983" lon="-4.902300">
        <ele>1395.0</ele>
        <time>2015-03-15T13:34:12Z</time>
      </trkpt>
      <trkpt lat="40.251050" lon="-4.902233">
        <ele>1398.0</ele>
        <time>2015-03-15T13:34:13Z</time>
      </trkpt>
      <trkpt lat="40.251133" lon="-4.902183">
        <ele>1399.0</ele>
        <time>2015-03-15T13:34:14Z</time>
      </trkpt>
      <trkpt lat="40.251217" lon="-4.902150">
        <ele>1400.0</ele>
        <time>2015-03-15T13:34:15Z</time>
      </trkpt>
      <trkpt lat="40.251317" lon="-4.902133">
        <ele>1401.0</ele>
        <time>2015-03-15T13:34:16Z</time>
      </trkpt>
      <trkpt lat="40.251417" lon="-4.902117">
        <ele>1402.0</ele>
        <time>2015-03-15T13:34:17Z</time>
      </trkpt>
      <trkpt lat="40.251533" lon="-4.902133">
        <ele>1404.0</ele>
        <time>2015-03-15T13:34:18Z</time>
      </trkpt>
      <trkpt lat="40.251633" lon="-4.902150">
        <ele>1407.0</ele>
        <time>2015-03-15T13:34:19Z</time>
      </trkpt>
      <trkpt lat="40.251717" lon="-4.902200">
        <ele>1410.0</ele>
        <time>2015-03-15T13:34:20Z</time>
      </trkpt>
      <trkpt lat="40.251767" lon="-4.902267">
        <ele>1413.0</ele>
        <time>2015-03-15T13:34:21Z</time>
      </trkpt>
      <trkpt lat="40.251817" lon="-4.902333">
        <ele>1415.0</ele>
        <time>2015-03-15T13:34:22Z</time>
      </trkpt>
      <trkpt lat="40.251867" lon="-4.902400">
        <ele>1417.0</ele>
        <time>2015-03-15T13:34:23Z</time>
      </trkpt>
      <trkpt lat="40.251917" lon="-4.902483">
        <ele>1419.0</ele>
        <time>2015-03-15T13:34:24Z</time>
      </trkpt>
      <trkpt lat="40.251950" lon="-4.902567">
        <ele>1420.0</ele>
        <time>2015-03-15T13:34:25Z</time>
      </trkpt>
      <trkpt lat="40.251983" lon="-4.902650">
        <ele>1422.0</ele>
        <time>2015-03-15T13:34:26Z</time>
      </trkpt>
      <trkpt lat="40.252000" lon="-4.902750">
        <ele>1424.0</ele>
        <time>2015-03-15T13:34:27Z</time>
      </trkpt>
      <trkpt lat="40.252000" lon="-4.902867">
        <ele>1426.0</ele>
        <time>2015-03-15T13:34:28Z</time>
      </trkpt>
      <trkpt lat="40.251983" lon="-4.902950">
        <ele>1428.0</ele>
        <time>2015-03-15T13:34:29Z</time>
      </trkpt>
      <trkpt lat="40.251967" lon="-4.903050">
        <ele>1429.0</ele>
        <time>2015-03-15T13:34:30Z</time>
      </trkpt>
      <trkpt lat="40.251933" lon="-4.903117">
        <ele>1430.0</ele>
        <time>2015-03-15T13:34:31Z</time>
      </trkpt>
      <trkpt lat="40.251883" lon="-4.903183">
        <ele>1431.0</ele>
        <time>2015-03-15T13:34:32Z</time>
      </trkpt>
      <trkpt lat="40.251833" lon="-4.903217">
        <ele>1431.0</ele>
        <time>2015-03-15T13:34:33Z</time>
      </trkpt>
      <trkpt lat="40.251783" lon="-4.903217">
        <ele>1431.0</ele>
        <time>2015-03-15T13:34:34Z</time>
      </trkpt>
      <trkpt lat="40.251733" lon="-4.903183">
        <ele>1430.0</ele>
        <time>2015-03-15T13:34:35Z</time>
      </trkpt>
      <trkpt lat="40.251683" lon="-4.903133">
        <ele>1428.0</ele>
        <time>2015-03-15T13:34:36Z</time>
      </trkpt>
      <trkpt lat="40.251633" lon="-4.903033">
        <ele>1428.0</ele>
        <time>2015-03-15T13:34:37Z</time>
      </trkpt>
      <trkpt lat="40.251617" lon="-4.902900">
        <ele>1429.0</ele>
        <time>2015-03-15T13:34:38Z</time>
      </trkpt>
      <trkpt lat="40.251617" lon="-4.902767">
        <ele>1431.0</ele>
        <time>2015-03-15T13:34:39Z</time>
      </trkpt>
      <trkpt lat="40.251650" lon="-4.902633">
        <ele>1433.0</ele>
        <time>2015-03-15T13:34:40Z</time>
      </trkpt>
      <trkpt lat="40.251683" lon="-4.902533">
        <ele>1435.0</ele>
        <time>2015-03-15T13:34:41Z</time>
      </trkpt>
      <trkpt lat="40.251750" lon="-4.902433">
        <ele>1436.0</ele>
        <time>2015-03-15T13:34:42Z</time>
      </trkpt>
      <trkpt lat="40.251817" lon="-4.902333">
        <ele>1437.0</ele>
        <time>2015-03-15T13:34:43Z</time>
      </trkpt>
      <trkpt lat="40.251917" lon="-4.902267">
        <ele>1438.0</ele>
        <time>2015-03-15T13:34:44Z</time>
      </trkpt>
      <trkpt lat="40.252033" lon="-4.902217">
        <ele>1439.0</ele>
        <time>2015-03-15T13:34:45Z</time>
      </trkpt>
      <trkpt lat="40.252150" lon="-4.902183">
        <ele>1441.0</ele>
        <time>2015-03-15T13:34:46Z</time>
      </trkpt>
      <trkpt lat="40.252267" lon="-4.902167">
        <ele>1444.0</ele>
        <time>2015-03-15T13:34:47Z</time>
      </trkpt>
      <trkpt lat="40.252367" lon="-4.902167">
        <ele>1447.0</ele>
        <time>2015-03-15T13:34:48Z</time>
      </trkpt>
      <trkpt lat="40.252467" lon="-4.902167">
        <ele>1450.0</ele>
        <time>2015-03-15T13:34:49Z</time>
      </trkpt>
      <trkpt lat="40.252567" lon="-4.902150">
        <ele>1453.0</ele>
        <time>2015-03-15T13:34:50Z</time>
      </trkpt>
      <trkpt lat="40.252650" lon="-4.902133">
        <ele>1455.0</ele>
        <time>2015-03-15T13:34:51Z</time>
      </trkpt>
      <trkpt lat="40.252717" lon="-4.902100">
        <ele>1456.0</ele>
        <time>2015-03-15T13:34:52Z</time>
      </trkpt>
      <trkpt lat="40.252817" lon="-4.902083">
        <ele>1456.0</ele>
        <time>2015-03-15T13:34:53Z</time>
      </trkpt>
      <trkpt lat="40.252900" lon="-4.902067">
        <ele>1456.0</ele>
        <time>2015-03-15T13:34:54Z</time>
      </trkpt>
      <trkpt lat="40.253000" lon="-4.902100">
        <ele>1456.0</ele>
        <time>2015-03-15T13:34:55Z</time>
      </trkpt>
      <trkpt lat="40.253083" lon="-4.902167">
        <ele>1455.0</ele>
        <time>2015-03-15T13:34:56Z</time>
      </trkpt>
      <trkpt lat="40.253133" lon="-4.902267">
        <ele>1455.0</ele>
        <time>2015-03-15T13:34:57Z</time>
      </trkpt>
      <trkpt lat="40.253167" lon="-4.902367">
        <ele>1455.0</ele>
        <time>2015-03-15T13:34:58Z</time>
      </trkpt>
      <trkpt lat="40.253167" lon="-4.902467">
        <ele>1456.0</ele>
        <time>2015-03-15T13:34:59Z</time>
      </trkpt>
      <trkpt lat="40.253167" lon="-4.902567">
        <ele>1457.0</ele>
        <time>2015-03-15T13:35:00Z</time>
      </trkpt>
      <trkpt lat="40.253150" lon="-4.902650">
        <ele>1457.0</ele>
        <time>2015-03-15T13:35:01Z</time>
      </trkpt>
      <trkpt lat="40.253117" lon="-4.902733">
        <ele>1457.0</ele>
        <time>2015-03-15T13:35:02Z</time>
      </trkpt>
      <trkpt lat="40.253050" lon="-4.902800">
        <ele>1457.0</ele>
        <time>2015-03-15T13:35:03Z</time>
      </trkpt>
      <trkpt lat="40.252967" lon="-4.902850">
        <ele>1458.0</ele>
        <time>2015-03-15T13:35:04Z</time>
      </trkpt>
      <trkpt lat="40.252900" lon="-4.902883">
        <ele>1461.0</ele>
        <time>2015-03-15T13:35:05Z</time>
      </trkpt>
      <trkpt lat="40.252850" lon="-4.902917">
        <ele>1463.0</ele>
        <time>2015-03-15T13:35:06Z</time>
      </trkpt>
      <trkpt lat="40.252783" lon="-4.902917">
        <ele>1465.0</ele>
        <time>2015-03-15T13:35:07Z</time>
      </trkpt>
      <trkpt lat="40.252717" lon="-4.902933">
        <ele>1467.0</ele>
        <time>2015-03-15T13:35:08Z</time>
      </trkpt>
      <trkpt lat="40.252667" lon="-4.902933">
        <ele>1468.0</ele>
        <time>2015-03-15T13:35:09Z</time>
      </trkpt>
      <trkpt lat="40.252617" lon="-4.902917">
        <ele>1469.0</ele>
        <time>2015-03-15T13:35:10Z</time>
      </trkpt>
      <trkpt lat="40.252550" lon="-4.902917">
        <ele>1470.0</ele>
        <time>2015-03-15T13:35:11Z</time>
      </trkpt>
      <trkpt lat="40.252483" lon="-4.902917">
        <ele>1471.0</ele>
        <time>2015-03-15T13:35:12Z</time>
      </trkpt>
      <trkpt lat="40.252433" lon="-4.902917">
        <ele>1471.0</ele>
        <time>2015-03-15T13:35:13Z</time>
      </trkpt>
      <trkpt lat="40.252367" lon="-4.902900">
        <ele>1472.0</ele>
        <time>2015-03-15T13:35:14Z</time>
      </trkpt>
      <trkpt lat="40.252317" lon="-4.902867">
        <ele>1473.0</ele>
        <time>2015-03-15T13:35:15Z</time>
      </trkpt>
      <trkpt lat="40.252267" lon="-4.902783">
        <ele>1473.0</ele>
        <time>2015-03-15T13:35:16Z</time>
      </trkpt>
      <trkpt lat="40.252233" lon="-4.902683">
        <ele>1474.0</ele>
        <time>2015-03-15T13:35:17Z</time>
      </trkpt>
      <trkpt lat="40.252233" lon="-4.902567">
        <ele>1474.0</ele>
        <time>2015-03-15T13:35:18Z</time>
      </trkpt>
      <trkpt lat="40.252267" lon="-4.902433">
        <ele>1475.0</ele>
        <time>2015-03-15T13:35:19Z</time>
      </trkpt>
      <trkpt lat="40.252317" lon="-4.902317">
        <ele>1477.0</ele>
        <time>2015-03-15T13:35:20Z</time>
      </trkpt>
      <trkpt lat="40.252383" lon="-4.902200">
        <ele>1478.0</ele>
        <time>2015-03-15T13:35:21Z</time>
      </trkpt>
      <trkpt lat="40.252467" lon="-4.902100">
        <ele>1480.0</ele>
        <time>2015-03-15T13:35:22Z</time>
      </trkpt>
      <trkpt lat="40.252550" lon="-4.902033">
        <ele>1481.0</ele>
        <time>2015-03-15T13:35:23Z</time>
      </trkpt>
      <trkpt lat="40.252667" lon="-4.902000">
        <ele>1484.0</ele>
        <time>2015-03-15T13:35:24Z</time>
      </trkpt>
      <trkpt lat="40.252783" lon="-4.902000">
        <ele>1486.0</ele>
        <time>2015-03-15T13:35:25Z</time>
      </trkpt>
      <trkpt lat="40.252883" lon="-4.902033">
        <ele>1490.0</ele>
        <time>2015-03-15T13:35:26Z</time>
      </trkpt>
      <trkpt lat="40.252983" lon="-4.902067">
        <ele>1494.0</ele>
        <time>2015-03-15T13:35:27Z</time>
      </trkpt>
      <trkpt lat="40.253050" lon="-4.902117">
        <ele>1498.0</ele>
        <time>2015-03-15T13:35:28Z</time>
      </trkpt>
      <trkpt lat="40.253100" lon="-4.902167">
        <ele>1501.0</ele>
        <time>2015-03-15T13:35:29Z</time>
      </trkpt>
      <trkpt lat="40.253167" lon="-4.902233">
        <ele>1501.0</ele>
        <time>2015-03-15T13:35:30Z</time>
      </trkpt>
      <trkpt lat="40.253217" lon="-4.902317">
        <ele>1502.0</ele>
        <time>2015-03-15T13:35:31Z</time>
      </trkpt>
      <trkpt lat="40.253250" lon="-4.902417">
        <ele>1503.0</ele>
        <time>2015-03-15T13:35:32Z</time>
      </trkpt>
      <trkpt lat="40.253267" lon="-4.902533">
        <ele>1503.0</ele>
        <time>2015-03-15T13:35:33Z</time>
      </trkpt>
      <trkpt lat="40.253250" lon="-4.902633">
        <ele>1504.0</ele>
        <time>2015-03-15T13:35:34Z</time>
      </trkpt>
      <trkpt lat="40.253200" lon="-4.902717">
        <ele>1505.0</ele>
        <time>2015-03-15T13:35:35Z</time>
      </trkpt>
      <trkpt lat="40.253133" lon="-4.902767">
        <ele>1506.0</ele>
        <time>2015-03-15T13:35:36Z</time>
      </trkpt>
      <trkpt lat="40.253050" lon="-4.902800">
        <ele>1508.0</ele>
        <time>2015-03-15T13:35:37Z</time>
      </trkpt>
      <trkpt lat="40.252983" lon="-4.902800">
        <ele>1510.0</ele>
        <time>2015-03-15T13:35:38Z</time>
      </trkpt>
      <trkpt lat="40.252933" lon="-4.902800">
        <ele>1512.0</ele>
        <time>2015-03-15T13:35:39Z</time>
      </trkpt>
      <trkpt lat="40.252867" lon="-4.902767">
        <ele>1512.0</ele>
        <time>2015-03-15T13:35:40Z</time>
      </trkpt>
      <trkpt lat="40.252817" lon="-4.902717">
        <ele>1512.0</ele>
        <time>2015-03-15T13:35:41Z</time>
      </trkpt>
      <trkpt lat="40.252767" lon="-4.902633">
        <ele>1512.0</ele>
        <time>2015-03-15T13:35:42Z</time>
      </trkpt>
      <trkpt lat="40.252733" lon="-4.902533">
        <ele>1510.0</ele>
        <time>2015-03-15T13:35:43Z</time>
      </trkpt>
      <trkpt lat="40.252700" lon="-4.902417">
        <ele>1510.0</ele>
        <time>2015-03-15T13:35:44Z</time>
      </trkpt>
      <trkpt lat="40.252700" lon="-4.902283">
        <ele>1512.0</ele>
        <time>2015-03-15T13:35:45Z</time>
      </trkpt>
      <trkpt lat="40.252717" lon="-4.902133">
        <ele>1513.0</ele>
        <time>2015-03-15T13:35:46Z</time>
      </trkpt>
      <trkpt lat="40.252767" lon="-4.902017">
        <ele>1515.0</ele>
        <time>2015-03-15T13:35:47Z</time>
      </trkpt>
      <trkpt lat="40.252850" lon="-4.901917">
        <ele>1517.0</ele>
        <time>2015-03-15T13:35:48Z</time>
      </trkpt>
      <trkpt lat="40.252950" lon="-4.901833">
        <ele>1519.0</ele>
        <time>2015-03-15T13:35:49Z</time>
      </trkpt>
      <trkpt lat="40.253033" lon="-4.901783">
        <ele>1523.0</ele>
        <time>2015-03-15T13:35:50Z</time>
      </trkpt>
      <trkpt lat="40.253133" lon="-4.901767">
        <ele>1526.0</ele>
        <time>2015-03-15T13:35:51Z</time>
      </trkpt>
      <trkpt lat="40.253217" lon="-4.901783">
        <ele>1528.0</ele>
        <time>2015-03-15T13:35:52Z</time>
      </trkpt>
      <trkpt lat="40.253300" lon="-4.901800">
        <ele>1531.0</ele>
        <time>2015-03-15T13:35:53Z</time>
      </trkpt>
      <trkpt lat="40.253383" lon="-4.901850">
        <ele>1533.0</ele>
        <time>2015-03-15T13:35:54Z</time>
      </trkpt>
      <trkpt lat="40.253450" lon="-4.901917">
        <ele>1535.0</ele>
        <time>2015-03-15T13:35:55Z</time>
      </trkpt>
      <trkpt lat="40.253517" lon="-4.902000">
        <ele>1536.0</ele>
        <time>2015-03-15T13:35:56Z</time>
      </trkpt>
      <trkpt lat="40.253567" lon="-4.902083">
        <ele>1538.0</ele>
        <time>2015-03-15T13:35:57Z</time>
      </trkpt>
      <trkpt lat="40.253600" lon="-4.902167">
        <ele>1539.0</ele>
        <time>2015-03-15T13:35:58Z</time>
      </trkpt>
      <trkpt lat="40.253617" lon="-4.902267">
        <ele>1540.0</ele>
        <time>2015-03-15T13:35:59Z</time>
      </trkpt>
      <trkpt lat="40.253600" lon="-4.902350">
        <ele>1541.0</ele>
        <time>2015-03-15T13:36:00Z</time>
      </trkpt>
      <trkpt lat="40.253567" lon="-4.902450">
        <ele>1541.0</ele>
        <time>2015-03-15T13:36:01Z</time>
      </trkpt>
      <trkpt lat="40.253517" lon="-4.902517">
        <ele>1543.0</ele>
        <time>2015-03-15T13:36:02Z</time>
      </trkpt>
      <trkpt lat="40.253467" lon="-4.902583">
        <ele>1545.0</ele>
        <time>2015-03-15T13:36:03Z</time>
      </trkpt>
      <trkpt lat="40.253417" lon="-4.902633">
        <ele>1546.0</ele>
        <time>2015-03-15T13:36:04Z</time>
      </trkpt>
      <trkpt lat="40.253367" lon="-4.902667">
        <ele>1547.0</ele>
        <time>2015-03-15T13:36:05Z</time>
      </trkpt>
      <trkpt lat="40.253300" lon="-4.902683">
        <ele>1547.0</ele>
        <time>2015-03-15T13:36:06Z</time>
      </trkpt>
      <trkpt lat="40.253233" lon="-4.902667">
        <ele>1546.0</ele>
        <time>2015-03-15T13:36:07Z</time>
      </trkpt>
      <trkpt lat="40.253167" lon="-4.902633">
        <ele>1545.0</ele>
        <time>2015-03-15T13:36:08Z</time>
      </trkpt>
      <trkpt lat="40.253083" lon="-4.902567">
        <ele>1545.0</ele>
        <time>2015-03-15T13:36:09Z</time>
      </trkpt>
      <trkpt lat="40.253033" lon="-4.902483">
        <ele>1546.0</ele>
        <time>2015-03-15T13:36:10Z</time>
      </trkpt>
      <trkpt lat="40.252983" lon="-4.902383">
        <ele>1547.0</ele>
        <time>2015-03-15T13:36:11Z</time>
      </trkpt>
      <trkpt lat="40.252950" lon="-4.902267">
        <ele>1547.0</ele>
        <time>2015-03-15T13:36:12Z</time>
      </trkpt>
      <trkpt lat="40.252933" lon="-4.902150">
        <ele>1548.0</ele>
        <time>2015-03-15T13:36:13Z</time>
      </trkpt>
      <trkpt lat="40.252917" lon="-4.902017">
        <ele>1549.0</ele>
        <time>2015-03-15T13:36:14Z</time>
      </trkpt>
      <trkpt lat="40.252950" lon="-4.901867">
        <ele>1551.0</ele>
        <time>2015-03-15T13:36:15Z</time>
      </trkpt>
      <trkpt lat="40.253000" lon="-4.901750">
        <ele>1553.0</ele>
        <time>2015-03-15T13:36:16Z</time>
      </trkpt>
      <trkpt lat="40.253083" lon="-4.901650">
        <ele>1555.0</ele>
        <time>2015-03-15T13:36:17Z</time>
      </trkpt>
      <trkpt lat="40.253183" lon="-4.901583">
        <ele>1557.0</ele>
        <time>2015-03-15T13:36:18Z</time>
      </trkpt>
      <trkpt lat="40.253283" lon="-4.901550">
        <ele>1560.0</ele>
        <time>2015-03-15T13:36:19Z</time>
      </trkpt>
      <trkpt lat="40.253383" lon="-4.901550">
        <ele>1563.0</ele>
        <time>2015-03-15T13:36:20Z</time>
      </trkpt>
      <trkpt lat="40.253467" lon="-4.901583">
        <ele>1565.0</ele>
        <time>2015-03-15T13:36:21Z</time>
      </trkpt>
      <trkpt lat="40.253550" lon="-4.901650">
        <ele>1567.0</ele>
        <time>2015-03-15T13:36:22Z</time>
      </trkpt>
      <trkpt lat="40.253617" lon="-4.901733">
        <ele>1569.0</ele>
        <time>2015-03-15T13:36:23Z</time>
      </trkpt>
      <trkpt lat="40.253650" lon="-4.901833">
        <ele>1571.0</ele>
        <time>2015-03-15T13:36:24Z</time>
      </trkpt>
      <trkpt lat="40.253700" lon="-4.901933">
        <ele>1573.0</ele>
        <time>2015-03-15T13:36:25Z</time>
      </trkpt>
      <trkpt lat="40.253700" lon="-4.902017">
        <ele>1575.0</ele>
        <time>2015-03-15T13:36:26Z</time>
      </trkpt>
      <trkpt lat="40.253700" lon="-4.902117">
        <ele>1576.0</ele>
        <time>2015-03-15T13:36:27Z</time>
      </trkpt>
      <trkpt lat="40.253683" lon="-4.902200">
        <ele>1578.0</ele>
        <time>2015-03-15T13:36:28Z</time>
      </trkpt>
      <trkpt lat="40.253633" lon="-4.902283">
        <ele>1578.0</ele>
        <time>2015-03-15T13:36:29Z</time>
      </trkpt>
      <trkpt lat="40.253567" lon="-4.902333">
        <ele>1578.0</ele>
        <time>2015-03-15T13:36:30Z</time>
      </trkpt>
      <trkpt lat="40.253500" lon="-4.902350">
        <ele>1579.0</ele>
        <time>2015-03-15T13:36:31Z</time>
      </trkpt>
      <trkpt lat="40.253417" lon="-4.902333">
        <ele>1579.0</ele>
        <time>2015-03-15T13:36:32Z</time>
      </trkpt>
      <trkpt lat="40.253333" lon="-4.902300">
        <ele>1579.0</ele>
        <time>2015-03-15T13:36:33Z</time>
      </trkpt>
      <trkpt lat="40.253267" lon="-4.902233">
        <ele>1580.0</ele>
        <time>2015-03-15T13:36:34Z</time>
      </trkpt>
      <trkpt lat="40.253200" lon="-4.902167">
        <ele>1580.0</ele>
        <time>2015-03-15T13:36:35Z</time>
      </trkpt>
      <trkpt lat="40.253133" lon="-4.902067">
        <ele>1581.0</ele>
        <time>2015-03-15T13:36:36Z</time>
      </trkpt>
      <trkpt lat="40.253083" lon="-4.901950">
        <ele>1582.0</ele>
        <time>2015-03-15T13:36:37Z</time>
      </trkpt>
      <trkpt lat="40.253067" lon="-4.901817">
        <ele>1583.0</ele>
        <time>2015-03-15T13:36:38Z</time>
      </trkpt>
      <trkpt lat="40.253083" lon="-4.901683">
        <ele>1586.0</ele>
        <time>2015-03-15T13:36:39Z</time>
      </trkpt>
      <trkpt lat="40.253133" lon="-4.901567">
        <ele>1589.0</ele>
        <time>2015-03-15T13:36:40Z</time>
      </trkpt>
      <trkpt lat="40.253200" lon="-4.901467">
        <ele>1591.0</ele>
        <time>2015-03-15T13:36:41Z</time>
      </trkpt>
      <trkpt lat="40.253267" lon="-4.901383">
        <ele>1594.0</ele>
        <time>2015-03-15T13:36:42Z</time>
      </trkpt>
      <trkpt lat="40.253350" lon="-4.901300">
        <ele>1597.0</ele>
        <time>2015-03-15T13:36:43Z</time>
      </trkpt>
      <trkpt lat="40.253433" lon="-4.901233">
        <ele>1600.0</ele>
        <time>2015-03-15T13:36:44Z</time>
      </trkpt>
      <trkpt lat="40.253533" lon="-4.901217">
        <ele>1603.0</ele>
        <time>2015-03-15T13:36:45Z</time>
      </trkpt>
      <trkpt lat="40.253633" lon="-4.901217">
        <ele>1605.0</ele>
        <time>2015-03-15T13:36:46Z</time>
      </trkpt>
      <trkpt lat="40.253733" lon="-4.901250">
        <ele>1607.0</ele>
        <time>2015-03-15T13:36:47Z</time>
      </trkpt>
      <trkpt lat="40.253817" lon="-4.901317">
        <ele>1610.0</ele>
        <time>2015-03-15T13:36:48Z</time>
      </trkpt>
      <trkpt lat="40.253867" lon="-4.901383">
        <ele>1612.0</ele>
        <time>2015-03-15T13:36:49Z</time>
      </trkpt>
      <trkpt lat="40.253917" lon="-4.901450">
        <ele>1615.0</ele>
        <time>2015-03-15T13:36:50Z</time>
      </trkpt>
      <trkpt lat="40.253933" lon="-4.901550">
        <ele>1617.0</ele>
        <time>2015-03-15T13:36:51Z</time>
      </trkpt>
      <trkpt lat="40.253933" lon="-4.901633">
        <ele>1618.0</ele>
        <time>2015-03-15T13:36:52Z</time>
      </trkpt>
      <trkpt lat="40.253933" lon="-4.901733">
        <ele>1619.0</ele>
        <time>2015-03-15T13:36:53Z</time>
      </trkpt>
      <trkpt lat="40.253900" lon="-4.901833">
        <ele>1620.0</ele>
        <time>2015-03-15T13:36:54Z</time>
      </trkpt>
      <trkpt lat="40.253867" lon="-4.901917">
        <ele>1621.0</ele>
        <time>2015-03-15T13:36:55Z</time>
      </trkpt>
      <trkpt lat="40.253833" lon="-4.901983">
        <ele>1623.0</ele>
        <time>2015-03-15T13:36:56Z</time>
      </trkpt>
      <trkpt lat="40.253767" lon="-4.902033">
        <ele>1623.0</ele>
        <time>2015-03-15T13:36:57Z</time>
      </trkpt>
      <trkpt lat="40.253700" lon="-4.902050">
        <ele>1623.0</ele>
        <time>2015-03-15T13:36:58Z</time>
      </trkpt>
      <trkpt lat="40.253617" lon="-4.902067">
        <ele>1623.0</ele>
        <time>2015-03-15T13:36:59Z</time>
      </trkpt>
      <trkpt lat="40.253517" lon="-4.902033">
        <ele>1624.0</ele>
        <time>2015-03-15T13:37:00Z</time>
      </trkpt>
      <trkpt lat="40.253433" lon="-4.901983">
        <ele>1626.0</ele>
        <time>2015-03-15T13:37:01Z</time>
      </trkpt>
      <trkpt lat="40.253367" lon="-4.901900">
        <ele>1627.0</ele>
        <time>2015-03-15T13:37:02Z</time>
      </trkpt>
      <trkpt lat="40.253317" lon="-4.901817">
        <ele>1628.0</ele>
        <time>2015-03-15T13:37:03Z</time>
      </trkpt>
      <trkpt lat="40.253267" lon="-4.901700">
        <ele>1629.0</ele>
        <time>2015-03-15T13:37:04Z</time>
      </trkpt>
      <trkpt lat="40.253250" lon="-4.901583">
        <ele>1630.0</ele>
        <time>2015-03-15T13:37:05Z</time>
      </trkpt>
      <trkpt lat="40.253250" lon="-4.901433">
        <ele>1632.0</ele>
        <time>2015-03-15T13:37:06Z</time>
      </trkpt>
      <trkpt lat="40.253283" lon="-4.901300">
        <ele>1635.0</ele>
        <time>2015-03-15T13:37:07Z</time>
      </trkpt>
      <trkpt lat="40.253317" lon="-4.901183">
        <ele>1638.0</ele>
        <time>2015-03-15T13:37:08Z</time>
      </trkpt>
      <trkpt lat="40.253350" lon="-4.901083">
        <ele>1643.0</ele>
        <time>2015-03-15T13:37:09Z</time>
      </trkpt>
      <trkpt lat="40.253400" lon="-4.901000">
        <ele>1647.0</ele>
        <time>2015-03-15T13:37:10Z</time>
      </trkpt>
      <trkpt lat="40.253450" lon="-4.900900">
        <ele>1650.0</ele>
        <time>2015-03-15T13:37:11Z</time>
      </trkpt>
      <trkpt lat="40.253517" lon="-4.900833">
        <ele>1651.0</ele>
        <time>2015-03-15T13:37:12Z</time>
      </trkpt>
      <trkpt lat="40.253600" lon="-4.900750">
        <ele>1652.0</ele>
        <time>2015-03-15T13:37:13Z</time>
      </trkpt>
      <trkpt lat="40.253717" lon="-4.900717">
        <ele>1654.0</ele>
        <time>2015-03-15T13:37:14Z</time>
      </trkpt>
      <trkpt lat="40.253833" lon="-4.900717">
        <ele>1656.0</ele>
        <time>2015-03-15T13:37:15Z</time>
      </trkpt>
      <trkpt lat="40.253933" lon="-4.900783">
        <ele>1658.0</ele>
        <time>2015-03-15T13:37:16Z</time>
      </trkpt>
      <trkpt lat="40.254017" lon="-4.900883">
        <ele>1662.0</ele>
        <time>2015-03-15T13:37:17Z</time>
      </trkpt>
      <trkpt lat="40.254050" lon="-4.901000">
        <ele>1666.0</ele>
        <time>2015-03-15T13:37:18Z</time>
      </trkpt>
      <trkpt lat="40.254083" lon="-4.901100">
        <ele>1671.0</ele>
        <time>2015-03-15T13:37:19Z</time>
      </trkpt>
      <trkpt lat="40.254083" lon="-4.901183">
        <ele>1674.0</ele>
        <time>2015-03-15T13:37:20Z</time>
      </trkpt>
      <trkpt lat="40.254083" lon="-4.901267">
        <ele>1676.0</ele>
        <time>2015-03-15T13:37:21Z</time>
      </trkpt>
      <trkpt lat="40.254067" lon="-4.901367">
        <ele>1677.0</ele>
        <time>2015-03-15T13:37:22Z</time>
      </trkpt>
      <trkpt lat="40.254033" lon="-4.901450">
        <ele>1678.0</ele>
        <time>2015-03-15T13:37:23Z</time>
      </trkpt>
      <trkpt lat="40.253983" lon="-4.901533">
        <ele>1678.0</ele>
        <time>2015-03-15T13:37:24Z</time>
      </trkpt>
      <trkpt lat="40.253917" lon="-4.901617">
        <ele>1679.0</ele>
        <time>2015-03-15T13:37:25Z</time>
      </trkpt>
      <trkpt lat="40.253833" lon="-4.901667">
        <ele>1680.0</ele>
        <time>2015-03-15T13:37:26Z</time>
      </trkpt>
      <trkpt lat="40.253767" lon="-4.901700">
        <ele>1682.0</ele>
        <time>2015-03-15T13:37:27Z</time>
      </trkpt>
      <trkpt lat="40.253683" lon="-4.901733">
        <ele>1682.0</ele>
        <time>2015-03-15T13:37:28Z</time>
      </trkpt>
      <trkpt lat="40.253600" lon="-4.901733">
        <ele>1683.0</ele>
        <time>2015-03-15T13:37:29Z</time>
      </trkpt>
      <trkpt lat="40.253517" lon="-4.901717">
        <ele>1682.0</ele>
        <time>2015-03-15T13:37:30Z</time>
      </trkpt>
      <trkpt lat="40.253433" lon="-4.901667">
        <ele>1682.0</ele>
        <time>2015-03-15T13:37:31Z</time>
      </trkpt>
      <trkpt lat="40.253350" lon="-4.901567">
        <ele>1682.0</ele>
        <time>2015-03-15T13:37:32Z</time>
      </trkpt>
      <trkpt lat="40.253283" lon="-4.901433">
        <ele>1684.0</ele>
        <time>2015-03-15T13:37:33Z</time>
      </trkpt>
      <trkpt lat="40.253267" lon="-4.901300">
        <ele>1689.0</ele>
        <time>2015-03-15T13:37:34Z</time>
      </trkpt>
      <trkpt lat="40.253267" lon="-4.901183">
        <ele>1693.0</ele>
        <time>2015-03-15T13:37:35Z</time>
      </trkpt>
      <trkpt lat="40.253283" lon="-4.901083">
        <ele>1697.0</ele>
        <time>2015-03-15T13:37:36Z</time>
      </trkpt>
      <trkpt lat="40.253333" lon="-4.901000">
        <ele>1700.0</ele>
        <time>2015-03-15T13:37:37Z</time>
      </trkpt>
      <trkpt lat="40.253383" lon="-4.900933">
        <ele>1702.0</ele>
        <time>2015-03-15T13:37:38Z</time>
      </trkpt>
      <trkpt lat="40.253450" lon="-4.900900">
        <ele>1703.0</ele>
        <time>2015-03-15T13:37:39Z</time>
      </trkpt>
      <trkpt lat="40.253533" lon="-4.900850">
        <ele>1702.0</ele>
        <time>2015-03-15T13:37:40Z</time>
      </trkpt>
      <trkpt lat="40.253617" lon="-4.900800">
        <ele>1701.0</ele>
        <time>2015-03-15T13:37:41Z</time>
      </trkpt>
      <trkpt lat="40.253717" lon="-4.900750">
        <ele>1700.0</ele>
        <time>2015-03-15T13:37:42Z</time>
      </trkpt>
      <trkpt lat="40.253833" lon="-4.900733">
        <ele>1699.0</ele>
        <time>2015-03-15T13:37:43Z</time>
      </trkpt>
      <trkpt lat="40.253950" lon="-4.900783">
        <ele>1699.0</ele>
        <time>2015-03-15T13:37:44Z</time>
      </trkpt>
      <trkpt lat="40.254050" lon="-4.900867">
        <ele>1701.0</ele>
        <time>2015-03-15T13:37:45Z</time>
      </trkpt>
      <trkpt lat="40.254117" lon="-4.900983">
        <ele>1704.0</ele>
        <time>2015-03-15T13:37:46Z</time>
      </trkpt>
      <trkpt lat="40.254150" lon="-4.901100">
        <ele>1709.0</ele>
        <time>2015-03-15T13:37:47Z</time>
      </trkpt>
      <trkpt lat="40.254167" lon="-4.901217">
        <ele>1713.0</ele>
        <time>2015-03-15T13:37:48Z</time>
      </trkpt>
      <trkpt lat="40.254167" lon="-4.901317">
        <ele>1717.0</ele>
        <time>2015-03-15T13:37:49Z</time>
      </trkpt>
      <trkpt lat="40.254183" lon="-4.901400">
        <ele>1719.0</ele>
        <time>2015-03-15T13:37:50Z</time>
      </trkpt>
      <trkpt lat="40.254183" lon="-4.901500">
        <ele>1720.0</ele>
        <time>2015-03-15T13:37:51Z</time>
      </trkpt>
      <trkpt lat="40.254167" lon="-4.901583">
        <ele>1721.0</ele>
        <time>2015-03-15T13:37:52Z</time>
      </trkpt>
      <trkpt lat="40.254133" lon="-4.901667">
        <ele>1721.0</ele>
        <time>2015-03-15T13:37:53Z</time>
      </trkpt>
      <trkpt lat="40.254083" lon="-4.901750">
        <ele>1720.0</ele>
        <time>2015-03-15T13:37:54Z</time>
      </trkpt>
      <trkpt lat="40.254000" lon="-4.901833">
        <ele>1721.0</ele>
        <time>2015-03-15T13:37:55Z</time>
      </trkpt>
      <trkpt lat="40.253933" lon="-4.901933">
        <ele>1722.0</ele>
        <time>2015-03-15T13:37:56Z</time>
      </trkpt>
      <trkpt lat="40.253850" lon="-4.902000">
        <ele>1724.0</ele>
        <time>2015-03-15T13:37:57Z</time>
      </trkpt>
      <trkpt lat="40.253750" lon="-4.902033">
        <ele>1726.0</ele>
        <time>2015-03-15T13:37:58Z</time>
      </trkpt>
      <trkpt lat="40.253667" lon="-4.902050">
        <ele>1728.0</ele>
        <time>2015-03-15T13:37:59Z</time>
      </trkpt>
      <trkpt lat="40.253583" lon="-4.902033">
        <ele>1729.0</ele>
        <time>2015-03-15T13:38:00Z</time>
      </trkpt>
      <trkpt lat="40.253500" lon="-4.902000">
        <ele>1730.0</ele>
        <time>2015-03-15T13:38:01Z</time>
      </trkpt>
      <trkpt lat="40.253417" lon="-4.901950">
        <ele>1731.0</ele>
        <time>2015-03-15T13:38:02Z</time>
      </trkpt>
      <trkpt lat="40.253333" lon="-4.901883">
        <ele>1732.0</ele>
        <time>2015-03-15T13:38:03Z</time>
      </trkpt>
      <trkpt lat="40.253267" lon="-4.901800">
        <ele>1734.0</ele>
        <time>2015-03-15T13:38:04Z</time>
      </trkpt>
      <trkpt lat="40.253233" lon="-4.901700">
        <ele>1737.0</ele>
        <time>2015-03-15T13:38:05Z</time>
      </trkpt>
      <trkpt lat="40.253200" lon="-4.901600">
        <ele>1738.0</ele>
        <time>2015-03-15T13:38:06Z</time>
      </trkpt>
      <trkpt lat="40.253200" lon="-4.901483">
        <ele>1740.0</ele>
        <time>2015-03-15T13:38:07Z</time>
      </trkpt>
      <trkpt lat="40.253217" lon="-4.901350">
        <ele>1742.0</ele>
        <time>2015-03-15T13:38:08Z</time>
      </trkpt>
      <trkpt lat="40.253267" lon="-4.901250">
        <ele>1743.0</ele>
        <time>2015-03-15T13:38:09Z</time>
      </trkpt>
      <trkpt lat="40.253333" lon="-4.901183">
        <ele>1745.0</ele>
        <time>2015-03-15T13:38:10Z</time>
      </trkpt>
      <trkpt lat="40.253433" lon="-4.901150">
        <ele>1745.0</ele>
        <time>2015-03-15T13:38:11Z</time>
      </trkpt>
      <trkpt lat="40.253533" lon="-4.901167">
        <ele>1745.0</ele>
        <time>2015-03-15T13:38:12Z</time>
      </trkpt>
      <trkpt lat="40.253633" lon="-4.901233">
        <ele>1745.0</ele>
        <time>2015-03-15T13:38:13Z</time>
      </trkpt>
      <trkpt lat="40.253717" lon="-4.901333">
        <ele>1746.0</ele>
        <time>2015-03-15T13:38:14Z</time>
      </trkpt>
      <trkpt lat="40.253767" lon="-4.901467">
        <ele>1748.0</ele>
        <time>2015-03-15T13:38:15Z</time>
      </trkpt>
      <trkpt lat="40.253783" lon="-4.901600">
        <ele>1749.0</ele>
        <time>2015-03-15T13:38:16Z</time>
      </trkpt>
      <trkpt lat="40.253750" lon="-4.901733">
        <ele>1751.0</ele>
        <time>2015-03-15T13:38:17Z</time>
      </trkpt>
      <trkpt lat="40.253733" lon="-4.901850">
        <ele>1752.0</ele>
        <time>2015-03-15T13:38:18Z</time>
      </trkpt>
      <trkpt lat="40.253700" lon="-4.901967">
        <ele>1753.0</ele>
        <time>2015-03-15T13:38:19Z</time>
      </trkpt>
      <trkpt lat="40.253650" lon="-4.902083">
        <ele>1754.0</ele>
        <time>2015-03-15T13:38:20Z</time>
      </trkpt>
      <trkpt lat="40.253583" lon="-4.902183">
        <ele>1754.0</ele>
        <time>2015-03-15T13:38:21Z</time>
      </trkpt>
      <trkpt lat="40.253500" lon="-4.902267">
        <ele>1753.0</ele>
        <time>2015-03-15T13:38:22Z</time>
      </trkpt>
      <trkpt lat="40.253400" lon="-4.902350">
        <ele>1753.0</ele>
        <time>2015-03-15T13:38:23Z</time>
      </trkpt>
      <trkpt lat="40.253317" lon="-4.902417">
        <ele>1755.0</ele>
        <time>2015-03-15T13:38:24Z</time>
      </trkpt>
      <trkpt lat="40.253250" lon="-4.902450">
        <ele>1758.0</ele>
        <time>2015-03-15T13:38:25Z</time>
      </trkpt>
      <trkpt lat="40.253183" lon="-4.902467">
        <ele>1761.0</ele>
        <time>2015-03-15T13:38:26Z</time>
      </trkpt>
      <trkpt lat="40.253117" lon="-4.902483">
        <ele>1763.0</ele>
        <time>2015-03-15T13:38:27Z</time>
      </trkpt>
      <trkpt lat="40.253033" lon="-4.902517">
        <ele>1765.0</ele>
        <time>2015-03-15T13:38:28Z</time>
      </trkpt>
      <trkpt lat="40.252967" lon="-4.902550">
        <ele>1766.0</ele>
        <time>2015-03-15T13:38:29Z</time>
      </trkpt>
      <trkpt lat="40.252883" lon="-4.902583">
        <ele>1767.0</ele>
        <time>2015-03-15T13:38:30Z</time>
      </trkpt>
      <trkpt lat="40.252800" lon="-4.902617">
        <ele>1767.0</ele>
        <time>2015-03-15T13:38:31Z</time>
      </trkpt>
      <trkpt lat="40.252733" lon="-4.902633">
        <ele>1768.0</ele>
        <time>2015-03-15T13:38:32Z</time>
      </trkpt>
      <trkpt lat="40.252667" lon="-4.902650">
        <ele>1767.0</ele>
        <time>2015-03-15T13:38:33Z</time>
      </trkpt>
      <trkpt lat="40.252583" lon="-4.902667">
        <ele>1766.0</ele>
        <time>2015-03-15T13:38:34Z</time>
      </trkpt>
      <trkpt lat="40.252500" lon="-4.902700">
        <ele>1765.0</ele>
        <time>2015-03-15T13:38:35Z</time>
      </trkpt>
      <trkpt lat="40.252417" lon="-4.902717">
        <ele>1765.0</ele>
        <time>2015-03-15T13:38:36Z</time>
      </trkpt>
      <trkpt lat="40.252333" lon="-4.902733">
        <ele>1766.0</ele>
        <time>2015-03-15T13:38:37Z</time>
      </trkpt>
      <trkpt lat="40.252233" lon="-4.902733">
        <ele>1767.0</ele>
        <time>2015-03-15T13:38:38Z</time>
      </trkpt>
      <trkpt lat="40.252167" lon="-4.902700">
        <ele>1768.0</ele>
        <time>2015-03-15T13:38:39Z</time>
      </trkpt>
      <trkpt lat="40.252100" lon="-4.902667">
        <ele>1769.0</ele>
        <time>2015-03-15T13:38:40Z</time>
      </trkpt>
      <trkpt lat="40.252067" lon="-4.902650">
        <ele>1769.0</ele>
        <time>2015-03-15T13:38:41Z</time>
      </trkpt>
      <trkpt lat="40.252017" lon="-4.902633">
        <ele>1768.0</ele>
        <time>2015-03-15T13:38:42Z</time>
      </trkpt>
      <trkpt lat="40.251967" lon="-4.902617">
        <ele>1765.0</ele>
        <time>2015-03-15T13:38:43Z</time>
      </trkpt>
      <trkpt lat="40.251900" lon="-4.902583">
        <ele>1763.0</ele>
        <time>2015-03-15T13:38:44Z</time>
      </trkpt>
      <trkpt lat="40.251817" lon="-4.902567">
        <ele>1760.0</ele>
        <time>2015-03-15T13:38:45Z</time>
      </trkpt>
      <trkpt lat="40.251750" lon="-4.902533">
        <ele>1759.0</ele>
        <time>2015-03-15T13:38:46Z</time>
      </trkpt>
      <trkpt lat="40.251683" lon="-4.902517">
        <ele>1758.0</ele>
        <time>2015-03-15T13:38:47Z</time>
      </trkpt>
      <trkpt lat="40.251617" lon="-4.902517">
        <ele>1758.0</ele>
        <time>2015-03-15T13:38:48Z</time>
      </trkpt>
      <trkpt lat="40.251550" lon="-4.902500">
        <ele>1757.0</ele>
        <time>2015-03-15T13:38:49Z</time>
      </trkpt>
      <trkpt lat="40.251500" lon="-4.902483">
        <ele>1756.0</ele>
        <time>2015-03-15T13:38:50Z</time>
      </trkpt>
      <trkpt lat="40.251433" lon="-4.902467">
        <ele>1754.0</ele>
        <time>2015-03-15T13:38:51Z</time>
      </trkpt>
      <trkpt lat="40.251350" lon="-4.902467">
        <ele>1753.0</ele>
        <time>2015-03-15T13:38:52Z</time>
      </trkpt>
      <trkpt lat="40.251283" lon="-4.902467">
        <ele>1752.0</ele>
        <time>2015-03-15T13:38:53Z</time>
      </trkpt>
      <trkpt lat="40.251217" lon="-4.902467">
        <ele>1751.0</ele>
        <time>2015-03-15T13:38:54Z</time>
      </trkpt>
      <trkpt lat="40.251150" lon="-4.902467">
        <ele>1749.0</ele>
        <time>2015-03-15T13:38:55Z</time>
      </trkpt>
      <trkpt lat="40.251083" lon="-4.902467">
        <ele>1748.0</ele>
        <time>2015-03-15T13:38:56Z</time>
      </trkpt>
      <trkpt lat="40.251017" lon="-4.902467">
        <ele>1746.0</ele>
        <time>2015-03-15T13:38:57Z</time>
      </trkpt>
      <trkpt lat="40.250950" lon="-4.902483">
        <ele>1744.0</ele>
        <time>2015-03-15T13:38:58Z</time>
      </trkpt>
      <trkpt lat="40.250867" lon="-4.902500">
        <ele>1743.0</ele>
        <time>2015-03-15T13:38:59Z</time>
      </trkpt>
      <trkpt lat="40.250800" lon="-4.902500">
        <ele>1742.0</ele>
        <time>2015-03-15T13:39:00Z</time>
      </trkpt>
      <trkpt lat="40.250717" lon="-4.902533">
        <ele>1740.0</ele>
        <time>2015-03-15T13:39:01Z</time>
      </trkpt>
      <trkpt lat="40.250650" lon="-4.902550">
        <ele>1738.0</ele>
        <time>2015-03-15T13:39:02Z</time>
      </trkpt>
      <trkpt lat="40.250583" lon="-4.902567">
        <ele>1736.0</ele>
        <time>2015-03-15T13:39:03Z</time>
      </trkpt>
      <trkpt lat="40.250500" lon="-4.902600">
        <ele>1734.0</ele>
        <time>2015-03-15T13:39:04Z</time>
      </trkpt>
      <trkpt lat="40.250417" lon="-4.902617">
        <ele>1732.0</ele>
        <time>2015-03-15T13:39:05Z</time>
      </trkpt>
      <trkpt lat="40.250333" lon="-4.902617">
        <ele>1731.0</ele>
        <time>2015-03-15T13:39:06Z</time>
      </trkpt>
      <trkpt lat="40.250250" lon="-4.902633">
        <ele>1730.0</ele>
        <time>2015-03-15T13:39:07Z</time>
      </trkpt>
      <trkpt lat="40.250167" lon="-4.902650">
        <ele>1730.0</ele>
        <time>2015-03-15T13:39:08Z</time>
      </trkpt>
      <trkpt lat="40.250100" lon="-4.902650">
        <ele>1729.0</ele>
        <time>2015-03-15T13:39:09Z</time>
      </trkpt>
      <trkpt lat="40.250017" lon="-4.902667">
        <ele>1729.0</ele>
        <time>2015-03-15T13:39:10Z</time>
      </trkpt>
      <trkpt lat="40.249950" lon="-4.902667">
        <ele>1728.0</ele>
        <time>2015-03-15T13:39:11Z</time>
      </trkpt>
      <trkpt lat="40.249883" lon="-4.902683">
        <ele>1728.0</ele>
        <time>2015-03-15T13:39:12Z</time>
      </trkpt>
      <trkpt lat="40.249800" lon="-4.902683">
        <ele>1727.0</ele>
        <time>2015-03-15T13:39:13Z</time>
      </trkpt>
      <trkpt lat="40.249733" lon="-4.902683">
        <ele>1726.0</ele>
        <time>2015-03-15T13:39:14Z</time>
      </trkpt>
      <trkpt lat="40.249650" lon="-4.902700">
        <ele>1725.0</ele>
        <time>2015-03-15T13:39:15Z</time>
      </trkpt>
      <trkpt lat="40.249583" lon="-4.902683">
        <ele>1725.0</ele>
        <time>2015-03-15T13:39:16Z</time>
      </trkpt>
      <trkpt lat="40.249500" lon="-4.902683">
        <ele>1724.0</ele>
        <time>2015-03-15T13:39:17Z</time>
      </trkpt>
      <trkpt lat="40.249417" lon="-4.902683">
        <ele>1724.0</ele>
        <time>2015-03-15T13:39:18Z</time>
      </trkpt>
      <trkpt lat="40.249333" lon="-4.902683">
        <ele>1723.0</ele>
        <time>2015-03-15T13:39:19Z</time>
      </trkpt>
      <trkpt lat="40.249267" lon="-4.902683">
        <ele>1723.0</ele>
        <time>2015-03-15T13:39:20Z</time>
      </trkpt>
      <trkpt lat="40.249183" lon="-4.902683">
        <ele>1722.0</ele>
        <time>2015-03-15T13:39:21Z</time>
      </trkpt>
      <trkpt lat="40.249100" lon="-4.902683">
        <ele>1722.0</ele>
        <time>2015-03-15T13:39:22Z</time>
      </trkpt>
      <trkpt lat="40.249017" lon="-4.902683">
        <ele>1722.0</ele>
        <time>2015-03-15T13:39:23Z</time>
      </trkpt>
      <trkpt lat="40.248933" lon="-4.902683">
        <ele>1722.0</ele>
        <time>2015-03-15T13:39:24Z</time>
      </trkpt>
      <trkpt lat="40.248867" lon="-4.902683">
        <ele>1723.0</ele>
        <time>2015-03-15T13:39:25Z</time>
      </trkpt>
      <trkpt lat="40.248783" lon="-4.902700">
        <ele>1723.0</ele>
        <time>2015-03-15T13:39:26Z</time>
      </trkpt>
      <trkpt lat="40.248717" lon="-4.902733">
        <ele>1723.0</ele>
        <time>2015-03-15T13:39:27Z</time>
      </trkpt>
      <trkpt lat="40.248633" lon="-4.902750">
        <ele>1722.0</ele>
        <time>2015-03-15T13:39:28Z</time>
      </trkpt>
      <trkpt lat="40.248550" lon="-4.902767">
        <ele>1722.0</ele>
        <time>2015-03-15T13:39:29Z</time>
      </trkpt>
      <trkpt lat="40.248467" lon="-4.902783">
        <ele>1722.0</ele>
        <time>2015-03-15T13:39:30Z</time>
      </trkpt>
      <trkpt lat="40.248383" lon="-4.902800">
        <ele>1723.0</ele>
        <time>2015-03-15T13:39:31Z</time>
      </trkpt>
      <trkpt lat="40.248317" lon="-4.902817">
        <ele>1724.0</ele>
        <time>2015-03-15T13:39:32Z</time>
      </trkpt>
      <trkpt lat="40.248250" lon="-4.902850">
        <ele>1724.0</ele>
        <time>2015-03-15T13:39:33Z</time>
      </trkpt>
      <trkpt lat="40.248183" lon="-4.902883">
        <ele>1724.0</ele>
        <time>2015-03-15T13:39:34Z</time>
      </trkpt>
      <trkpt lat="40.248117" lon="-4.902900">
        <ele>1722.0</ele>
        <time>2015-03-15T13:39:35Z</time>
      </trkpt>
      <trkpt lat="40.248050" lon="-4.902933">
        <ele>1721.0</ele>
        <time>2015-03-15T13:39:36Z</time>
      </trkpt>
      <trkpt lat="40.247967" lon="-4.902950">
        <ele>1720.0</ele>
        <time>2015-03-15T13:39:37Z</time>
      </trkpt>
      <trkpt lat="40.247883" lon="-4.902967">
        <ele>1719.0</ele>
        <time>2015-03-15T13:39:38Z</time>
      </trkpt>
      <trkpt lat="40.247800" lon="-4.902983">
        <ele>1718.0</ele>
        <time>2015-03-15T13:39:39Z</time>
      </trkpt>
      <trkpt lat="40.247717" lon="-4.902983">
        <ele>1718.0</ele>
        <time>2015-03-15T13:39:40Z</time>
      </trkpt>
      <trkpt lat="40.247633" lon="-4.902983">
        <ele>1718.0</ele>
        <time>2015-03-15T13:39:41Z</time>
      </trkpt>
      <trkpt lat="40.247567" lon="-4.902983">
        <ele>1717.0</ele>
        <time>2015-03-15T13:39:42Z</time>
      </trkpt>
      <trkpt lat="40.247500" lon="-4.902967">
        <ele>1715.0</ele>
        <time>2015-03-15T13:39:43Z</time>
      </trkpt>
      <trkpt lat="40.247417" lon="-4.902983">
        <ele>1714.0</ele>
        <time>2015-03-15T13:39:44Z</time>
      </trkpt>
      <trkpt lat="40.247350" lon="-4.902983">
        <ele>1712.0</ele>
        <time>2015-03-15T13:39:45Z</time>
      </trkpt>
      <trkpt lat="40.247267" lon="-4.902983">
        <ele>1711.0</ele>
        <time>2015-03-15T13:39:46Z</time>
      </trkpt>
      <trkpt lat="40.247183" lon="-4.903000">
        <ele>1710.0</ele>
        <time>2015-03-15T13:39:47Z</time>
      </trkpt>
      <trkpt lat="40.247100" lon="-4.902983">
        <ele>1709.0</ele>
        <time>2015-03-15T13:39:48Z</time>
      </trkpt>
      <trkpt lat="40.247017" lon="-4.902983">
        <ele>1708.0</ele>
        <time>2015-03-15T13:39:49Z</time>
      </trkpt>
      <trkpt lat="40.246950" lon="-4.902967">
        <ele>1708.0</ele>
        <time>2015-03-15T13:39:50Z</time>
      </trkpt>
      <trkpt lat="40.246883" lon="-4.902967">
        <ele>1707.0</ele>
        <time>2015-03-15T13:39:51Z</time>
      </trkpt>
      <trkpt lat="40.246800" lon="-4.902967">
        <ele>1705.0</ele>
        <time>2015-03-15T13:39:52Z</time>
      </trkpt>
      <trkpt lat="40.246733" lon="-4.902967">
        <ele>1703.0</ele>
        <time>2015-03-15T13:39:53Z</time>
      </trkpt>
      <trkpt lat="40.246633" lon="-4.902967">
        <ele>1701.0</ele>
        <time>2015-03-15T13:39:54Z</time>
      </trkpt>
      <trkpt lat="40.246550" lon="-4.902967">
        <ele>1700.0</ele>
        <time>2015-03-15T13:39:55Z</time>
      </trkpt>
      <trkpt lat="40.246450" lon="-4.902967">
        <ele>1699.0</ele>
        <time>2015-03-15T13:39:56Z</time>
      </trkpt>
      <trkpt lat="40.246367" lon="-4.902950">
        <ele>1699.0</ele>
        <time>2015-03-15T13:39:57Z</time>
      </trkpt>
      <trkpt lat="40.246300" lon="-4.902967">
        <ele>1698.0</ele>
        <time>2015-03-15T13:39:58Z</time>
      </trkpt>
      <trkpt lat="40.246217" lon="-4.902967">
        <ele>1697.0</ele>
        <time>2015-03-15T13:39:59Z</time>
      </trkpt>
      <trkpt lat="40.246133" lon="-4.902967">
        <ele>1695.0</ele>
        <time>2015-03-15T13:40:00Z</time>
      </trkpt>
      <trkpt lat="40.246050" lon="-4.902967">
        <ele>1693.0</ele>
        <time>2015-03-15T13:40:01Z</time>
      </trkpt>
      <trkpt lat="40.245967" lon="-4.902967">
        <ele>1691.0</ele>
        <time>2015-03-15T13:40:02Z</time>
      </trkpt>
      <trkpt lat="40.245883" lon="-4.902950">
        <ele>1689.0</ele>
        <time>2015-03-15T13:40:03Z</time>
      </trkpt>
      <trkpt lat="40.245800" lon="-4.902950">
        <ele>1688.0</ele>
        <time>2015-03-15T13:40:04Z</time>
      </trkpt>
      <trkpt lat="40.245717" lon="-4.902950">
        <ele>1686.0</ele>
        <time>2015-03-15T13:40:05Z</time>
      </trkpt>
      <trkpt lat="40.245633" lon="-4.902967">
        <ele>1684.0</ele>
        <time>2015-03-15T13:40:06Z</time>
      </trkpt>
      <trkpt lat="40.245550" lon="-4.902967">
        <ele>1682.0</ele>
        <time>2015-03-15T13:40:07Z</time>
      </trkpt>
      <trkpt lat="40.245467" lon="-4.902983">
        <ele>1681.0</ele>
        <time>2015-03-15T13:40:08Z</time>
      </trkpt>
      <trkpt lat="40.245367" lon="-4.902983">
        <ele>1679.0</ele>
        <time>2015-03-15T13:40:09Z</time>
      </trkpt>
      <trkpt lat="40.245283" lon="-4.902983">
        <ele>1678.0</ele>
        <time>2015-03-15T13:40:10Z</time>
      </trkpt>
      <trkpt lat="40.245200" lon="-4.902983">
        <ele>1677.0</ele>
        <time>2015-03-15T13:40:11Z</time>
      </trkpt>
      <trkpt lat="40.245117" lon="-4.902967">
        <ele>1675.0</ele>
        <time>2015-03-15T13:40:12Z</time>
      </trkpt>
      <trkpt lat="40.245033" lon="-4.902967">
        <ele>1674.0</ele>
        <time>2015-03-15T13:40:13Z</time>
      </trkpt>
      <trkpt lat="40.244933" lon="-4.902967">
        <ele>1672.0</ele>
        <time>2015-03-15T13:40:14Z</time>
      </trkpt>
      <trkpt lat="40.244833" lon="-4.902967">
        <ele>1671.0</ele>
        <time>2015-03-15T13:40:15Z</time>
      </trkpt>
      <trkpt lat="40.244733" lon="-4.902967">
        <ele>1670.0</ele>
        <time>2015-03-15T13:40:16Z</time>
      </trkpt>
      <trkpt lat="40.244650" lon="-4.902967">
        <ele>1670.0</ele>
        <time>2015-03-15T13:40:17Z</time>
      </trkpt>
      <trkpt lat="40.244550" lon="-4.902950">
        <ele>1668.0</ele>
        <time>2015-03-15T13:40:18Z</time>
      </trkpt>
      <trkpt lat="40.244467" lon="-4.902933">
        <ele>1667.0</ele>
        <time>2015-03-15T13:40:19Z</time>
      </trkpt>
      <trkpt lat="40.244367" lon="-4.902917">
        <ele>1666.0</ele>
        <time>2015-03-15T13:40:20Z</time>
      </trkpt>
      <trkpt lat="40.244283" lon="-4.902917">
        <ele>1664.0</ele>
        <time>2015-03-15T13:40:21Z</time>
      </trkpt>
      <trkpt lat="40.244183" lon="-4.902917">
        <ele>1662.0</ele>
        <time>2015-03-15T13:40:22Z</time>
      </trkpt>
      <trkpt lat="40.244083" lon="-4.902900">
        <ele>1661.0</ele>
        <time>2015-03-15T13:40:23Z</time>
      </trkpt>
      <trkpt lat="40.243983" lon="-4.902883">
        <ele>1659.0</ele>
        <time>2015-03-15T13:40:24Z</time>
      </trkpt>
      <trkpt lat="40.243883" lon="-4.902883">
        <ele>1658.0</ele>
        <time>2015-03-15T13:40:25Z</time>
      </trkpt>
      <trkpt lat="40.243783" lon="-4.902883">
        <ele>1656.0</ele>
        <time>2015-03-15T13:40:26Z</time>
      </trkpt>
      <trkpt lat="40.243683" lon="-4.902883">
        <ele>1655.0</ele>
        <time>2015-03-15T13:40:27Z</time>
      </trkpt>
      <trkpt lat="40.243583" lon="-4.902883">
        <ele>1653.0</ele>
        <time>2015-03-15T13:40:28Z</time>
      </trkpt>
      <trkpt lat="40.243483" lon="-4.902883">
        <ele>1651.0</ele>
        <time>2015-03-15T13:40:29Z</time>
      </trkpt>
      <trkpt lat="40.243383" lon="-4.902883">
        <ele>1650.0</ele>
        <time>2015-03-15T13:40:30Z</time>
      </trkpt>
      <trkpt lat="40.243283" lon="-4.902883">
        <ele>1649.0</ele>
        <time>2015-03-15T13:40:31Z</time>
      </trkpt>
      <trkpt lat="40.243183" lon="-4.902883">
        <ele>1649.0</ele>
        <time>2015-03-15T13:40:32Z</time>
      </trkpt>
      <trkpt lat="40.243083" lon="-4.902883">
        <ele>1649.0</ele>
        <time>2015-03-15T13:40:33Z</time>
      </trkpt>
      <trkpt lat="40.243000" lon="-4.902883">
        <ele>1649.0</ele>
        <time>2015-03-15T13:40:34Z</time>
      </trkpt>
      <trkpt lat="40.242917" lon="-4.902883">
        <ele>1648.0</ele>
        <time>2015-03-15T13:40:35Z</time>
      </trkpt>
      <trkpt lat="40.242833" lon="-4.902883">
        <ele>1647.0</ele>
        <time>2015-03-15T13:40:36Z</time>
      </trkpt>
      <trkpt lat="40.242733" lon="-4.902867">
        <ele>1645.0</ele>
        <time>2015-03-15T13:40:37Z</time>
      </trkpt>
      <trkpt lat="40.242650" lon="-4.902867">
        <ele>1643.0</ele>
        <time>2015-03-15T13:40:38Z</time>
      </trkpt>
      <trkpt lat="40.242550" lon="-4.902867">
        <ele>1641.0</ele>
        <time>2015-03-15T13:40:39Z</time>
      </trkpt>
      <trkpt lat="40.242450" lon="-4.902867">
        <ele>1639.0</ele>
        <time>2015-03-15T13:40:40Z</time>
      </trkpt>
      <trkpt lat="40.242350" lon="-4.902850">
        <ele>1639.0</ele>
        <time>2015-03-15T13:40:41Z</time>
      </trkpt>
      <trkpt lat="40.242267" lon="-4.902833">
        <ele>1638.0</ele>
        <time>2015-03-15T13:40:42Z</time>
      </trkpt>
      <trkpt lat="40.242167" lon="-4.902833">
        <ele>1636.0</ele>
        <time>2015-03-15T13:40:43Z</time>
      </trkpt>
      <trkpt lat="40.242083" lon="-4.902817">
        <ele>1635.0</ele>
        <time>2015-03-15T13:40:44Z</time>
      </trkpt>
      <trkpt lat="40.241983" lon="-4.902800">
        <ele>1632.0</ele>
        <time>2015-03-15T13:40:45Z</time>
      </trkpt>
      <trkpt lat="40.241883" lon="-4.902783">
        <ele>1630.0</ele>
        <time>2015-03-15T13:40:46Z</time>
      </trkpt>
      <trkpt lat="40.241783" lon="-4.902767">
        <ele>1628.0</ele>
        <time>2015-03-15T13:40:47Z</time>
      </trkpt>
      <trkpt lat="40.241683" lon="-4.902750">
        <ele>1626.0</ele>
        <time>2015-03-15T13:40:48Z</time>
      </trkpt>
      <trkpt lat="40.241583" lon="-4.902750">
        <ele>1624.0</ele>
        <time>2015-03-15T13:40:49Z</time>
      </trkpt>
      <trkpt lat="40.241483" lon="-4.902750">
        <ele>1622.0</ele>
        <time>2015-03-15T13:40:50Z</time>
      </trkpt>
      <trkpt lat="40.241383" lon="-4.902733">
        <ele>1621.0</ele>
        <time>2015-03-15T13:40:51Z</time>
      </trkpt>
      <trkpt lat="40.241283" lon="-4.902717">
        <ele>1619.0</ele>
        <time>2015-03-15T13:40:52Z</time>
      </trkpt>
      <trkpt lat="40.241200" lon="-4.902700">
        <ele>1618.0</ele>
        <time>2015-03-15T13:40:53Z</time>
      </trkpt>
      <trkpt lat="40.241100" lon="-4.902683">
        <ele>1616.0</ele>
        <time>2015-03-15T13:40:54Z</time>
      </trkpt>
      <trkpt lat="40.241000" lon="-4.902683">
        <ele>1613.0</ele>
        <time>2015-03-15T13:40:55Z</time>
      </trkpt>
      <trkpt lat="40.240900" lon="-4.902667">
        <ele>1611.0</ele>
        <time>2015-03-15T13:40:56Z</time>
      </trkpt>
      <trkpt lat="40.240817" lon="-4.902650">
        <ele>1609.0</ele>
        <time>2015-03-15T13:40:57Z</time>
      </trkpt>
      <trkpt lat="40.240717" lon="-4.902633">
        <ele>1606.0</ele>
        <time>2015-03-15T13:40:58Z</time>
      </trkpt>
      <trkpt lat="40.240617" lon="-4.902617">
        <ele>1605.0</ele>
        <time>2015-03-15T13:40:59Z</time>
      </trkpt>
      <trkpt lat="40.240533" lon="-4.902617">
        <ele>1603.0</ele>
        <time>2015-03-15T13:41:00Z</time>
      </trkpt>
      <trkpt lat="40.240450" lon="-4.902633">
        <ele>1602.0</ele>
        <time>2015-03-15T13:41:01Z</time>
      </trkpt>
      <trkpt lat="40.240367" lon="-4.902633">
        <ele>1600.0</ele>
        <time>2015-03-15T13:41:02Z</time>
      </trkpt>
      <trkpt lat="40.240283" lon="-4.902650">
        <ele>1599.0</ele>
        <time>2015-03-15T13:41:03Z</time>
      </trkpt>
      <trkpt lat="40.240200" lon="-4.902650">
        <ele>1596.0</ele>
        <time>2015-03-15T13:41:04Z</time>
      </trkpt>
      <trkpt lat="40.240117" lon="-4.902650">
        <ele>1594.0</ele>
        <time>2015-03-15T13:41:05Z</time>
      </trkpt>
      <trkpt lat="40.240033" lon="-4.902667">
        <ele>1592.0</ele>
        <time>2015-03-15T13:41:06Z</time>
      </trkpt>
      <trkpt lat="40.239933" lon="-4.902683">
        <ele>1590.0</ele>
        <time>2015-03-15T13:41:07Z</time>
      </trkpt>
      <trkpt lat="40.239850" lon="-4.902700">
        <ele>1589.0</ele>
        <time>2015-03-15T13:41:08Z</time>
      </trkpt>
      <trkpt lat="40.239783" lon="-4.902683">
        <ele>1589.0</ele>
        <time>2015-03-15T13:41:09Z</time>
      </trkpt>
      <trkpt lat="40.239717" lon="-4.902667">
        <ele>1588.0</ele>
        <time>2015-03-15T13:41:10Z</time>
      </trkpt>
      <trkpt lat="40.239650" lon="-4.902650">
        <ele>1587.0</ele>
        <time>2015-03-15T13:41:11Z</time>
      </trkpt>
      <trkpt lat="40.239583" lon="-4.902650">
        <ele>1585.0</ele>
        <time>2015-03-15T13:41:12Z</time>
      </trkpt>
      <trkpt lat="40.239500" lon="-4.902650">
        <ele>1584.0</ele>
        <time>2015-03-15T13:41:13Z</time>
      </trkpt>
      <trkpt lat="40.239417" lon="-4.902650">
        <ele>1583.0</ele>
        <time>2015-03-15T13:41:14Z</time>
      </trkpt>
      <trkpt lat="40.239350" lon="-4.902633">
        <ele>1583.0</ele>
        <time>2015-03-15T13:41:15Z</time>
      </trkpt>
      <trkpt lat="40.239283" lon="-4.902633">
        <ele>1583.0</ele>
        <time>2015-03-15T13:41:16Z</time>
      </trkpt>
      <trkpt lat="40.239217" lon="-4.902617">
        <ele>1582.0</ele>
        <time>2015-03-15T13:41:17Z</time>
      </trkpt>
      <trkpt lat="40.239150" lon="-4.902583">
        <ele>1580.0</ele>
        <time>2015-03-15T13:41:18Z</time>
      </trkpt>
      <trkpt lat="40.239067" lon="-4.902550">
        <ele>1578.0</ele>
        <time>2015-03-15T13:41:19Z</time>
      </trkpt>
      <trkpt lat="40.239000" lon="-4.902533">
        <ele>1577.0</ele>
        <time>2015-03-15T13:41:20Z</time>
      </trkpt>
      <trkpt lat="40.238917" lon="-4.902517">
        <ele>1576.0</ele>
        <time>2015-03-15T13:41:21Z</time>
      </trkpt>
      <trkpt lat="40.238833" lon="-4.902500">
        <ele>1575.0</ele>
        <time>2015-03-15T13:41:22Z</time>
      </trkpt>
      <trkpt lat="40.238750" lon="-4.902467">
        <ele>1574.0</ele>
        <time>2015-03-15T13:41:23Z</time>
      </trkpt>
      <trkpt lat="40.238683" lon="-4.902433">
        <ele>1573.0</ele>
        <time>2015-03-15T13:41:24Z</time>
      </trkpt>
      <trkpt lat="40.238600" lon="-4.902400">
        <ele>1571.0</ele>
        <time>2015-03-15T13:41:25Z</time>
      </trkpt>
      <trkpt lat="40.238517" lon="-4.902367">
        <ele>1569.0</ele>
        <time>2015-03-15T13:41:26Z</time>
      </trkpt>
      <trkpt lat="40.238433" lon="-4.902350">
        <ele>1568.0</ele>
        <time>2015-03-15T13:41:27Z</time>
      </trkpt>
      <trkpt lat="40.238367" lon="-4.902317">
        <ele>1567.0</ele>
        <time>2015-03-15T13:41:28Z</time>
      </trkpt>
      <trkpt lat="40.238283" lon="-4.902300">
        <ele>1567.0</ele>
        <time>2015-03-15T13:41:29Z</time>
      </trkpt>
      <trkpt lat="40.238217" lon="-4.902283">
        <ele>1565.0</ele>
        <time>2015-03-15T13:41:30Z</time>
      </trkpt>
      <trkpt lat="40.238150" lon="-4.902267">
        <ele>1562.0</ele>
        <time>2015-03-15T13:41:31Z</time>
      </trkpt>
      <trkpt lat="40.238100" lon="-4.902250">
        <ele>1560.0</ele>
        <time>2015-03-15T13:41:32Z</time>
      </trkpt>
      <trkpt lat="40.238033" lon="-4.902183">
        <ele>1558.0</ele>
        <time>2015-03-15T13:41:33Z</time>
      </trkpt>
      <trkpt lat="40.237967" lon="-4.902117">
        <ele>1555.0</ele>
        <time>2015-03-15T13:41:34Z</time>
      </trkpt>
      <trkpt lat="40.237933" lon="-4.902000">
        <ele>1552.0</ele>
        <time>2015-03-15T13:41:35Z</time>
      </trkpt>
      <trkpt lat="40.237900" lon="-4.901883">
        <ele>1549.0</ele>
        <time>2015-03-15T13:41:36Z</time>
      </trkpt>
      <trkpt lat="40.237917" lon="-4.901733">
        <ele>1546.0</ele>
        <time>2015-03-15T13:41:37Z</time>
      </trkpt>
      <trkpt lat="40.237950" lon="-4.901600">
        <ele>1543.0</ele>
        <time>2015-03-15T13:41:38Z</time>
      </trkpt>
      <trkpt lat="40.238000" lon="-4.901467">
        <ele>1540.0</ele>
        <time>2015-03-15T13:41:39Z</time>
      </trkpt>
      <trkpt lat="40.238083" lon="-4.901350">
        <ele>1538.0</ele>
        <time>2015-03-15T13:41:40Z</time>
      </trkpt>
      <trkpt lat="40.238167" lon="-4.901267">
        <ele>1537.0</ele>
        <time>2015-03-15T13:41:41Z</time>
      </trkpt>
      <trkpt lat="40.238283" lon="-4.901200">
        <ele>1535.0</ele>
        <time>2015-03-15T13:41:42Z</time>
      </trkpt>
      <trkpt lat="40.238383" lon="-4.901150">
        <ele>1533.0</ele>
        <time>2015-03-15T13:41:43Z</time>
      </trkpt>
      <trkpt lat="40.238500" lon="-4.901117">
        <ele>1532.0</ele>
        <time>2015-03-15T13:41:44Z</time>
      </trkpt>
      <trkpt lat="40.238617" lon="-4.901083">
        <ele>1532.0</ele>
        <time>2015-03-15T13:41:45Z</time>
      </trkpt>
      <trkpt lat="40.238717" lon="-4.901017">
        <ele>1531.0</ele>
        <time>2015-03-15T13:41:46Z</time>
      </trkpt>
      <trkpt lat="40.238800" lon="-4.900967">
        <ele>1530.0</ele>
        <time>2015-03-15T13:41:47Z</time>
      </trkpt>
      <trkpt lat="40.238900" lon="-4.900917">
        <ele>1529.0</ele>
        <time>2015-03-15T13:41:48Z</time>
      </trkpt>
      <trkpt lat="40.238983" lon="-4.900883">
        <ele>1528.0</ele>
        <time>2015-03-15T13:41:49Z</time>
      </trkpt>
      <trkpt lat="40.239100" lon="-4.900883">
        <ele>1526.0</ele>
        <time>2015-03-15T13:41:50Z</time>
      </trkpt>
      <trkpt lat="40.239200" lon="-4.900867">
        <ele>1524.0</ele>
        <time>2015-03-15T13:41:51Z</time>
      </trkpt>
      <trkpt lat="40.239300" lon="-4.900867">
        <ele>1523.0</ele>
        <time>2015-03-15T13:41:52Z</time>
      </trkpt>
      <trkpt lat="40.239417" lon="-4.900867">
        <ele>1521.0</ele>
        <time>2015-03-15T13:41:53Z</time>
      </trkpt>
      <trkpt lat="40.239533" lon="-4.900883">
        <ele>1520.0</ele>
        <time>2015-03-15T13:41:54Z</time>
      </trkpt>
      <trkpt lat="40.239633" lon="-4.900883">
        <ele>1519.0</ele>
        <time>2015-03-15T13:41:55Z</time>
      </trkpt>
      <trkpt lat="40.239733" lon="-4.900900">
        <ele>1518.0</ele>
        <time>2015-03-15T13:41:56Z</time>
      </trkpt>
      <trkpt lat="40.239833" lon="-4.900900">
        <ele>1516.0</ele>
        <time>2015-03-15T13:41:57Z</time>
      </trkpt>
      <trkpt lat="40.239933" lon="-4.900917">
        <ele>1514.0</ele>
        <time>2015-03-15T13:41:58Z</time>
      </trkpt>
      <trkpt lat="40.240033" lon="-4.900933">
        <ele>1511.0</ele>
        <time>2015-03-15T13:41:59Z</time>
      </trkpt>
      <trkpt lat="40.240150" lon="-4.900950">
        <ele>1509.0</ele>
        <time>2015-03-15T13:42:00Z</time>
      </trkpt>
      <trkpt lat="40.240250" lon="-4.900967">
        <ele>1507.0</ele>
        <time>2015-03-15T13:42:01Z</time>
      </trkpt>
      <trkpt lat="40.240367" lon="-4.900983">
        <ele>1506.0</ele>
        <time>2015-03-15T13:42:02Z</time>
      </trkpt>
      <trkpt lat="40.240467" lon="-4.900983">
        <ele>1504.0</ele>
        <time>2015-03-15T13:42:03Z</time>
      </trkpt>
      <trkpt lat="40.240567" lon="-4.901000">
        <ele>1502.0</ele>
        <time>2015-03-15T13:42:04Z</time>
      </trkpt>
      <trkpt lat="40.240683" lon="-4.901000">
        <ele>1499.0</ele>
        <time>2015-03-15T13:42:05Z</time>
      </trkpt>
      <trkpt lat="40.240783" lon="-4.901017">
        <ele>1497.0</ele>
        <time>2015-03-15T13:42:06Z</time>
      </trkpt>
      <trkpt lat="40.240883" lon="-4.901017">
        <ele>1494.0</ele>
        <time>2015-03-15T13:42:07Z</time>
      </trkpt>
      <trkpt lat="40.241000" lon="-4.901017">
        <ele>1491.0</ele>
        <time>2015-03-15T13:42:08Z</time>
      </trkpt>
      <trkpt lat="40.241117" lon="-4.901000">
        <ele>1488.0</ele>
        <time>2015-03-15T13:42:09Z</time>
      </trkpt>
      <trkpt lat="40.241233" lon="-4.900983">
        <ele>1486.0</ele>
        <time>2015-03-15T13:42:10Z</time>
      </trkpt>
      <trkpt lat="40.241333" lon="-4.900967">
        <ele>1485.0</ele>
        <time>2015-03-15T13:42:11Z</time>
      </trkpt>
      <trkpt lat="40.241433" lon="-4.900950">
        <ele>1484.0</ele>
        <time>2015-03-15T13:42:12Z</time>
      </trkpt>
      <trkpt lat="40.241533" lon="-4.900917">
        <ele>1482.0</ele>
        <time>2015-03-15T13:42:13Z</time>
      </trkpt>
      <trkpt lat="40.241650" lon="-4.900900">
        <ele>1480.0</ele>
        <time>2015-03-15T13:42:14Z</time>
      </trkpt>
      <trkpt lat="40.241750" lon="-4.900883">
        <ele>1478.0</ele>
        <time>2015-03-15T13:42:15Z</time>
      </trkpt>
      <trkpt lat="40.241867" lon="-4.900867">
        <ele>1477.0</ele>
        <time>2015-03-15T13:42:16Z</time>
      </trkpt>
      <trkpt lat="40.241983" lon="-4.900867">
        <ele>1475.0</ele>
        <time>2015-03-15T13:42:17Z</time>
      </trkpt>
      <trkpt lat="40.242100" lon="-4.900867">
        <ele>1475.0</ele>
        <time>2015-03-15T13:42:18Z</time>
      </trkpt>
      <trkpt lat="40.242200" lon="-4.900850">
        <ele>1475.0</ele>
        <time>2015-03-15T13:42:19Z</time>
      </trkpt>
      <trkpt lat="40.242300" lon="-4.900850">
        <ele>1474.0</ele>
        <time>2015-03-15T13:42:20Z</time>
      </trkpt>
      <trkpt lat="40.242400" lon="-4.900833">
        <ele>1472.0</ele>
        <time>2015-03-15T13:42:21Z</time>
      </trkpt>
      <trkpt lat="40.242517" lon="-4.900850">
        <ele>1470.0</ele>
        <time>2015-03-15T13:42:22Z</time>
      </trkpt>
      <trkpt lat="40.242617" lon="-4.900850">
        <ele>1469.0</ele>
        <time>2015-03-15T13:42:23Z</time>
      </trkpt>
      <trkpt lat="40.242717" lon="-4.900883">
        <ele>1467.0</ele>
        <time>2015-03-15T13:42:24Z</time>
      </trkpt>
      <trkpt lat="40.242833" lon="-4.900900">
        <ele>1466.0</ele>
        <time>2015-03-15T13:42:25Z</time>
      </trkpt>
      <trkpt lat="40.242933" lon="-4.900933">
        <ele>1465.0</ele>
        <time>2015-03-15T13:42:26Z</time>
      </trkpt>
      <trkpt lat="40.243050" lon="-4.900950">
        <ele>1464.0</ele>
        <time>2015-03-15T13:42:27Z</time>
      </trkpt>
      <trkpt lat="40.243150" lon="-4.900983">
        <ele>1463.0</ele>
        <time>2015-03-15T13:42:28Z</time>
      </trkpt>
      <trkpt lat="40.243250" lon="-4.901017">
        <ele>1462.0</ele>
        <time>2015-03-15T13:42:29Z</time>
      </trkpt>
      <trkpt lat="40.243350" lon="-4.901050">
        <ele>1460.0</ele>
        <time>2015-03-15T13:42:30Z</time>
      </trkpt>
      <trkpt lat="40.243450" lon="-4.901083">
        <ele>1458.0</ele>
        <time>2015-03-15T13:42:31Z</time>
      </trkpt>
      <trkpt lat="40.243550" lon="-4.901100">
        <ele>1457.0</ele>
        <time>2015-03-15T13:42:32Z</time>
      </trkpt>
      <trkpt lat="40.243650" lon="-4.901133">
        <ele>1455.0</ele>
        <time>2015-03-15T13:42:33Z</time>
      </trkpt>
      <trkpt lat="40.243767" lon="-4.901167">
        <ele>1453.0</ele>
        <time>2015-03-15T13:42:34Z</time>
      </trkpt>
      <trkpt lat="40.243867" lon="-4.901183">
        <ele>1451.0</ele>
        <time>2015-03-15T13:42:35Z</time>
      </trkpt>
      <trkpt lat="40.243983" lon="-4.901217">
        <ele>1450.0</ele>
        <time>2015-03-15T13:42:36Z</time>
      </trkpt>
      <trkpt lat="40.244083" lon="-4.901233">
        <ele>1449.0</ele>
        <time>2015-03-15T13:42:37Z</time>
      </trkpt>
      <trkpt lat="40.244200" lon="-4.901250">
        <ele>1448.0</ele>
        <time>2015-03-15T13:42:38Z</time>
      </trkpt>
      <trkpt lat="40.244300" lon="-4.901267">
        <ele>1446.0</ele>
        <time>2015-03-15T13:42:39Z</time>
      </trkpt>
      <trkpt lat="40.244400" lon="-4.901267">
        <ele>1445.0</ele>
        <time>2015-03-15T13:42:40Z</time>
      </trkpt>
      <trkpt lat="40.244517" lon="-4.901283">
        <ele>1444.0</ele>
        <time>2015-03-15T13:42:41Z</time>
      </trkpt>
      <trkpt lat="40.244617" lon="-4.901283">
        <ele>1442.0</ele>
        <time>2015-03-15T13:42:42Z</time>
      </trkpt>
      <trkpt lat="40.244717" lon="-4.901283">
        <ele>1441.0</ele>
        <time>2015-03-15T13:42:43Z</time>
      </trkpt>
      <trkpt lat="40.244817" lon="-4.901283">
        <ele>1439.0</ele>
        <time>2015-03-15T13:42:44Z</time>
      </trkpt>
      <trkpt lat="40.244933" lon="-4.901267">
        <ele>1438.0</ele>
        <time>2015-03-15T13:42:45Z</time>
      </trkpt>
      <trkpt lat="40.245033" lon="-4.901267">
        <ele>1436.0</ele>
        <time>2015-03-15T13:42:46Z</time>
      </trkpt>
      <trkpt lat="40.245133" lon="-4.901250">
        <ele>1434.0</ele>
        <time>2015-03-15T13:42:47Z</time>
      </trkpt>
      <trkpt lat="40.245250" lon="-4.901233">
        <ele>1433.0</ele>
        <time>2015-03-15T13:42:48Z</time>
      </trkpt>
      <trkpt lat="40.245350" lon="-4.901200">
        <ele>1431.0</ele>
        <time>2015-03-15T13:42:49Z</time>
      </trkpt>
      <trkpt lat="40.245467" lon="-4.901183">
        <ele>1430.0</ele>
        <time>2015-03-15T13:42:50Z</time>
      </trkpt>
      <trkpt lat="40.245567" lon="-4.901167">
        <ele>1429.0</ele>
        <time>2015-03-15T13:42:51Z</time>
      </trkpt>
      <trkpt lat="40.245667" lon="-4.901150">
        <ele>1428.0</ele>
        <time>2015-03-15T13:42:52Z</time>
      </trkpt>
      <trkpt lat="40.245767" lon="-4.901117">
        <ele>1426.0</ele>
        <time>2015-03-15T13:42:53Z</time>
      </trkpt>
      <trkpt lat="40.245867" lon="-4.901100">
        <ele>1424.0</ele>
        <time>2015-03-15T13:42:54Z</time>
      </trkpt>
      <trkpt lat="40.245983" lon="-4.901067">
        <ele>1422.0</ele>
        <time>2015-03-15T13:42:55Z</time>
      </trkpt>
      <trkpt lat="40.246083" lon="-4.901050">
        <ele>1421.0</ele>
        <time>2015-03-15T13:42:56Z</time>
      </trkpt>
      <trkpt lat="40.246200" lon="-4.901050">
        <ele>1419.0</ele>
        <time>2015-03-15T13:42:57Z</time>
      </trkpt>
      <trkpt lat="40.246300" lon="-4.901033">
        <ele>1418.0</ele>
        <time>2015-03-15T13:42:58Z</time>
      </trkpt>
      <trkpt lat="40.246417" lon="-4.901050">
        <ele>1416.0</ele>
        <time>2015-03-15T13:42:59Z</time>
      </trkpt>
      <trkpt lat="40.246517" lon="-4.901050">
        <ele>1415.0</ele>
        <time>2015-03-15T13:43:00Z</time>
      </trkpt>
      <trkpt lat="40.246617" lon="-4.901067">
        <ele>1413.0</ele>
        <time>2015-03-15T13:43:01Z</time>
      </trkpt>
      <trkpt lat="40.246717" lon="-4.901083">
        <ele>1412.0</ele>
        <time>2015-03-15T13:43:02Z</time>
      </trkpt>
      <trkpt lat="40.246817" lon="-4.901100">
        <ele>1411.0</ele>
        <time>2015-03-15T13:43:03Z</time>
      </trkpt>
      <trkpt lat="40.246917" lon="-4.901117">
        <ele>1409.0</ele>
        <time>2015-03-15T13:43:04Z</time>
      </trkpt>
      <trkpt lat="40.247017" lon="-4.901133">
        <ele>1407.0</ele>
        <time>2015-03-15T13:43:05Z</time>
      </trkpt>
      <trkpt lat="40.247133" lon="-4.901150">
        <ele>1405.0</ele>
        <time>2015-03-15T13:43:06Z</time>
      </trkpt>
      <trkpt lat="40.247233" lon="-4.901167">
        <ele>1404.0</ele>
        <time>2015-03-15T13:43:07Z</time>
      </trkpt>
      <trkpt lat="40.247333" lon="-4.901183">
        <ele>1403.0</ele>
        <time>2015-03-15T13:43:08Z</time>
      </trkpt>
      <trkpt lat="40.247450" lon="-4.901200">
        <ele>1402.0</ele>
        <time>2015-03-15T13:43:09Z</time>
      </trkpt>
      <trkpt lat="40.247550" lon="-4.901217">
        <ele>1403.0</ele>
        <time>2015-03-15T13:43:10Z</time>
      </trkpt>
      <trkpt lat="40.247667" lon="-4.901250">
        <ele>1403.0</ele>
        <time>2015-03-15T13:43:11Z</time>
      </trkpt>
      <trkpt lat="40.247800" lon="-4.901267">
        <ele>1404.0</ele>
        <time>2015-03-15T13:43:12Z</time>
      </trkpt>
      <trkpt lat="40.247917" lon="-4.901300">
        <ele>1405.0</ele>
        <time>2015-03-15T13:43:13Z</time>
      </trkpt>
      <trkpt lat="40.248033" lon="-4.901300">
        <ele>1407.0</ele>
        <time>2015-03-15T13:43:14Z</time>
      </trkpt>
      <trkpt lat="40.248167" lon="-4.901317">
        <ele>1409.0</ele>
        <time>2015-03-15T13:43:15Z</time>
      </trkpt>
      <trkpt lat="40.248283" lon="-4.901333">
        <ele>1411.0</ele>
        <time>2015-03-15T13:43:16Z</time>
      </trkpt>
      <trkpt lat="40.248417" lon="-4.901367">
        <ele>1414.0</ele>
        <time>2015-03-15T13:43:17Z</time>
      </trkpt>
      <trkpt lat="40.248533" lon="-4.901400">
        <ele>1417.0</ele>
        <time>2015-03-15T13:43:18Z</time>
      </trkpt>
      <trkpt lat="40.248633" lon="-4.901467">
        <ele>1420.0</ele>
        <time>2015-03-15T13:43:19Z</time>
      </trkpt>
      <trkpt lat="40.248717" lon="-4.901533">
        <ele>1422.0</ele>
        <time>2015-03-15T13:43:20Z</time>
      </trkpt>
      <trkpt lat="40.248767" lon="-4.901633">
        <ele>1423.0</ele>
        <time>2015-03-15T13:43:21Z</time>
      </trkpt>
      <trkpt lat="40.248783" lon="-4.901733">
        <ele>1424.0</ele>
        <time>2015-03-15T13:43:22Z</time>
      </trkpt>
      <trkpt lat="40.248800" lon="-4.901833">
        <ele>1424.0</ele>
        <time>2015-03-15T13:43:23Z</time>
      </trkpt>
      <trkpt lat="40.248783" lon="-4.901917">
        <ele>1424.0</ele>
        <time>2015-03-15T13:43:24Z</time>
      </trkpt>
      <trkpt lat="40.248733" lon="-4.901983">
        <ele>1423.0</ele>
        <time>2015-03-15T13:43:25Z</time>
      </trkpt>
      <trkpt lat="40.248683" lon="-4.902033">
        <ele>1421.0</ele>
        <time>2015-03-15T13:43:26Z</time>
      </trkpt>
      <trkpt lat="40.248617" lon="-4.902033">
        <ele>1420.0</ele>
        <time>2015-03-15T13:43:27Z</time>
      </trkpt>
      <trkpt lat="40.248550" lon="-4.901983">
        <ele>1418.0</ele>
        <time>2015-03-15T13:43:28Z</time>
      </trkpt>
      <trkpt lat="40.248517" lon="-4.901867">
        <ele>1415.0</ele>
        <time>2015-03-15T13:43:29Z</time>
      </trkpt>
      <trkpt lat="40.248517" lon="-4.901700">
        <ele>1413.0</ele>
        <time>2015-03-15T13:43:30Z</time>
      </trkpt>
      <trkpt lat="40.248567" lon="-4.901517">
        <ele>1413.0</ele>
        <time>2015-03-15T13:43:31Z</time>
      </trkpt>
      <trkpt lat="40.248667" lon="-4.901367">
        <ele>1414.0</ele>
        <time>2015-03-15T13:43:32Z</time>
      </trkpt>
      <trkpt lat="40.248767" lon="-4.901267">
        <ele>1417.0</ele>
        <time>2015-03-15T13:43:33Z</time>
      </trkpt>
      <trkpt lat="40.248883" lon="-4.901183">
        <ele>1422.0</ele>
        <time>2015-03-15T13:43:34Z</time>
      </trkpt>
      <trkpt lat="40.249000" lon="-4.901100">
        <ele>1426.0</ele>
        <time>2015-03-15T13:43:35Z</time>
      </trkpt>
      <trkpt lat="40.249100" lon="-4.901033">
        <ele>1429.0</ele>
        <time>2015-03-15T13:43:36Z</time>
      </trkpt>
      <trkpt lat="40.249183" lon="-4.900950">
        <ele>1432.0</ele>
        <time>2015-03-15T13:43:37Z</time>
      </trkpt>
      <trkpt lat="40.249283" lon="-4.900883">
        <ele>1434.0</ele>
        <time>2015-03-15T13:43:38Z</time>
      </trkpt>
      <trkpt lat="40.249367" lon="-4.900850">
        <ele>1436.0</ele>
        <time>2015-03-15T13:43:39Z</time>
      </trkpt>
      <trkpt lat="40.249467" lon="-4.900833">
        <ele>1436.0</ele>
        <time>2015-03-15T13:43:40Z</time>
      </trkpt>
      <trkpt lat="40.249583" lon="-4.900833">
        <ele>1437.0</ele>
        <time>2015-03-15T13:43:41Z</time>
      </trkpt>
      <trkpt lat="40.249683" lon="-4.900850">
        <ele>1437.0</ele>
        <time>2015-03-15T13:43:42Z</time>
      </trkpt>
      <trkpt lat="40.249783" lon="-4.900900">
        <ele>1438.0</ele>
        <time>2015-03-15T13:43:43Z</time>
      </trkpt>
      <trkpt lat="40.249883" lon="-4.900950">
        <ele>1439.0</ele>
        <time>2015-03-15T13:43:44Z</time>
      </trkpt>
      <trkpt lat="40.249967" lon="-4.901033">
        <ele>1440.0</ele>
        <time>2015-03-15T13:43:45Z</time>
      </trkpt>
      <trkpt lat="40.250033" lon="-4.901117">
        <ele>1440.0</ele>
        <time>2015-03-15T13:43:46Z</time>
      </trkpt>
      <trkpt lat="40.250100" lon="-4.901217">
        <ele>1440.0</ele>
        <time>2015-03-15T13:43:47Z</time>
      </trkpt>
      <trkpt lat="40.250183" lon="-4.901300">
        <ele>1440.0</ele>
        <time>2015-03-15T13:43:48Z</time>
      </trkpt>
      <trkpt lat="40.250267" lon="-4.901367">
        <ele>1440.0</ele>
        <time>2015-03-15T13:43:49Z</time>
      </trkpt>
      <trkpt lat="40.250333" lon="-4.901433">
        <ele>1439.0</ele>
        <time>2015-03-15T13:43:50Z</time>
      </trkpt>
      <trkpt lat="40.250417" lon="-4.901500">
        <ele>1438.0</ele>
        <time>2015-03-15T13:43:51Z</time>
      </trkpt>
      <trkpt lat="40.250517" lon="-4.901583">
        <ele>1436.0</ele>
        <time>2015-03-15T13:43:52Z</time>
      </trkpt>
      <trkpt lat="40.250617" lon="-4.901667">
        <ele>1434.0</ele>
        <time>2015-03-15T13:43:53Z</time>
      </trkpt>
      <trkpt lat="40.250717" lon="-4.901717">
        <ele>1434.0</ele>
        <time>2015-03-15T13:43:54Z</time>
      </trkpt>
      <trkpt lat="40.250817" lon="-4.901767">
        <ele>1433.0</ele>
        <time>2015-03-15T13:43:55Z</time>
      </trkpt>
      <trkpt lat="40.250917" lon="-4.901800">
        <ele>1432.0</ele>
        <time>2015-03-15T13:43:56Z</time>
      </trkpt>
      <trkpt lat="40.251033" lon="-4.901817">
        <ele>1430.0</ele>
        <time>2015-03-15T13:43:57Z</time>
      </trkpt>
      <trkpt lat="40.251150" lon="-4.901833">
        <ele>1428.0</ele>
        <time>2015-03-15T13:43:58Z</time>
      </trkpt>
      <trkpt lat="40.251267" lon="-4.901850">
        <ele>1425.0</ele>
        <time>2015-03-15T13:43:59Z</time>
      </trkpt>
      <trkpt lat="40.251383" lon="-4.901867">
        <ele>1423.0</ele>
        <time>2015-03-15T13:44:00Z</time>
      </trkpt>
      <trkpt lat="40.251517" lon="-4.901883">
        <ele>1422.0</ele>
        <time>2015-03-15T13:44:01Z</time>
      </trkpt>
      <trkpt lat="40.251633" lon="-4.901917">
        <ele>1421.0</ele>
        <time>2015-03-15T13:44:02Z</time>
      </trkpt>
      <trkpt lat="40.251750" lon="-4.901933">
        <ele>1419.0</ele>
        <time>2015-03-15T13:44:03Z</time>
      </trkpt>
      <trkpt lat="40.251867" lon="-4.901967">
        <ele>1418.0</ele>
        <time>2015-03-15T13:44:04Z</time>
      </trkpt>
      <trkpt lat="40.251967" lon="-4.902017">
        <ele>1417.0</ele>
        <time>2015-03-15T13:44:05Z</time>
      </trkpt>
      <trkpt lat="40.252067" lon="-4.902083">
        <ele>1416.0</ele>
        <time>2015-03-15T13:44:06Z</time>
      </trkpt>
      <trkpt lat="40.252167" lon="-4.902150">
        <ele>1415.0</ele>
        <time>2015-03-15T13:44:07Z</time>
      </trkpt>
      <trkpt lat="40.252267" lon="-4.902217">
        <ele>1415.0</ele>
        <time>2015-03-15T13:44:08Z</time>
      </trkpt>
      <trkpt lat="40.252350" lon="-4.902283">
        <ele>1414.0</ele>
        <time>2015-03-15T13:44:09Z</time>
      </trkpt>
      <trkpt lat="40.252433" lon="-4.902367">
        <ele>1413.0</ele>
        <time>2015-03-15T13:44:10Z</time>
      </trkpt>
      <trkpt lat="40.252517" lon="-4.902450">
        <ele>1412.0</ele>
        <time>2015-03-15T13:44:11Z</time>
      </trkpt>
      <trkpt lat="40.252600" lon="-4.902533">
        <ele>1411.0</ele>
        <time>2015-03-15T13:44:12Z</time>
      </trkpt>
      <trkpt lat="40.252667" lon="-4.902617">
        <ele>1410.0</ele>
        <time>2015-03-15T13:44:13Z</time>
      </trkpt>
      <trkpt lat="40.252750" lon="-4.902717">
        <ele>1410.0</ele>
        <time>2015-03-15T13:44:14Z</time>
      </trkpt>
      <trkpt lat="40.252833" lon="-4.902800">
        <ele>1409.0</ele>
        <time>2015-03-15T13:44:15Z</time>
      </trkpt>
      <trkpt lat="40.252917" lon="-4.902867">
        <ele>1408.0</ele>
        <time>2015-03-15T13:44:16Z</time>
      </trkpt>
      <trkpt lat="40.253000" lon="-4.902950">
        <ele>1407.0</ele>
        <time>2015-03-15T13:44:17Z</time>
      </trkpt>
      <trkpt lat="40.253083" lon="-4.903033">
        <ele>1405.0</ele>
        <time>2015-03-15T13:44:18Z</time>
      </trkpt>
      <trkpt lat="40.253167" lon="-4.903133">
        <ele>1403.0</ele>
        <time>2015-03-15T13:44:19Z</time>
      </trkpt>
      <trkpt lat="40.253250" lon="-4.903217">
        <ele>1401.0</ele>
        <time>2015-03-15T13:44:20Z</time>
      </trkpt>
      <trkpt lat="40.253333" lon="-4.903300">
        <ele>1400.0</ele>
        <time>2015-03-15T13:44:21Z</time>
      </trkpt>
      <trkpt lat="40.253417" lon="-4.903383">
        <ele>1398.0</ele>
        <time>2015-03-15T13:44:22Z</time>
      </trkpt>
      <trkpt lat="40.253500" lon="-4.903467">
        <ele>1397.0</ele>
        <time>2015-03-15T13:44:23Z</time>
      </trkpt>
      <trkpt lat="40.253600" lon="-4.903550">
        <ele>1395.0</ele>
        <time>2015-03-15T13:44:24Z</time>
      </trkpt>
      <trkpt lat="40.253683" lon="-4.903633">
        <ele>1394.0</ele>
        <time>2015-03-15T13:44:25Z</time>
      </trkpt>
      <trkpt lat="40.253767" lon="-4.903717">
        <ele>1392.0</ele>
        <time>2015-03-15T13:44:26Z</time>
      </trkpt>
      <trkpt lat="40.253867" lon="-4.903817">
        <ele>1391.0</ele>
        <time>2015-03-15T13:44:27Z</time>
      </trkpt>
      <trkpt lat="40.253950" lon="-4.903917">
        <ele>1389.0</ele>
        <time>2015-03-15T13:44:28Z</time>
      </trkpt>
      <trkpt lat="40.254017" lon="-4.904000">
        <ele>1389.0</ele>
        <time>2015-03-15T13:44:29Z</time>
      </trkpt>
      <trkpt lat="40.254100" lon="-4.904100">
        <ele>1388.0</ele>
        <time>2015-03-15T13:44:30Z</time>
      </trkpt>
      <trkpt lat="40.254183" lon="-4.904183">
        <ele>1387.0</ele>
        <time>2015-03-15T13:44:31Z</time>
      </trkpt>
      <trkpt lat="40.254267" lon="-4.904267">
        <ele>1386.0</ele>
        <time>2015-03-15T13:44:32Z</time>
      </trkpt>
      <trkpt lat="40.254350" lon="-4.904367">
        <ele>1385.0</ele>
        <time>2015-03-15T13:44:33Z</time>
      </trkpt>
      <trkpt lat="40.254417" lon="-4.904450">
        <ele>1383.0</ele>
        <time>2015-03-15T13:44:34Z</time>
      </trkpt>
      <trkpt lat="40.254500" lon="-4.904533">
        <ele>1382.0</ele>
        <time>2015-03-15T13:44:35Z</time>
      </trkpt>
      <trkpt lat="40.254583" lon="-4.904633">
        <ele>1381.0</ele>
        <time>2015-03-15T13:44:36Z</time>
      </trkpt>
      <trkpt lat="40.254667" lon="-4.904717">
        <ele>1380.0</ele>
        <time>2015-03-15T13:44:37Z</time>
      </trkpt>
      <trkpt lat="40.254733" lon="-4.904800">
        <ele>1379.0</ele>
        <time>2015-03-15T13:44:38Z</time>
      </trkpt>
      <trkpt lat="40.254817" lon="-4.904900">
        <ele>1378.0</ele>
        <time>2015-03-15T13:44:39Z</time>
      </trkpt>
      <trkpt lat="40.254883" lon="-4.904983">
        <ele>1378.0</ele>
        <time>2015-03-15T13:44:40Z</time>
      </trkpt>
      <trkpt lat="40.254967" lon="-4.905067">
        <ele>1377.0</ele>
        <time>2015-03-15T13:44:41Z</time>
      </trkpt>
      <trkpt lat="40.255033" lon="-4.905150">
        <ele>1376.0</ele>
        <time>2015-03-15T13:44:42Z</time>
      </trkpt>
      <trkpt lat="40.255117" lon="-4.905233">
        <ele>1375.0</ele>
        <time>2015-03-15T13:44:43Z</time>
      </trkpt>
      <trkpt lat="40.255183" lon="-4.905300">
        <ele>1375.0</ele>
        <time>2015-03-15T13:44:44Z</time>
      </trkpt>
      <trkpt lat="40.255267" lon="-4.905383">
        <ele>1375.0</ele>
        <time>2015-03-15T13:44:45Z</time>
      </trkpt>
      <trkpt lat="40.255333" lon="-4.905483">
        <ele>1376.0</ele>
        <time>2015-03-15T13:44:46Z</time>
      </trkpt>
      <trkpt lat="40.255417" lon="-4.905567">
        <ele>1376.0</ele>
        <time>2015-03-15T13:44:47Z</time>
      </trkpt>
      <trkpt lat="40.255483" lon="-4.905650">
        <ele>1376.0</ele>
        <time>2015-03-15T13:44:48Z</time>
      </trkpt>
      <trkpt lat="40.255567" lon="-4.905733">
        <ele>1375.0</ele>
        <time>2015-03-15T13:44:49Z</time>
      </trkpt>
      <trkpt lat="40.255633" lon="-4.905817">
        <ele>1375.0</ele>
        <time>2015-03-15T13:44:50Z</time>
      </trkpt>
      <trkpt lat="40.255700" lon="-4.905917">
        <ele>1374.0</ele>
        <time>2015-03-15T13:44:51Z</time>
      </trkpt>
      <trkpt lat="40.255767" lon="-4.906017">
        <ele>1373.0</ele>
        <time>2015-03-15T13:44:52Z</time>
      </trkpt>
      <trkpt lat="40.255817" lon="-4.906133">
        <ele>1373.0</ele>
        <time>2015-03-15T13:44:53Z</time>
      </trkpt>
      <trkpt lat="40.255867" lon="-4.906250">
        <ele>1373.0</ele>
        <time>2015-03-15T13:44:54Z</time>
      </trkpt>
      <trkpt lat="40.255917" lon="-4.906367">
        <ele>1373.0</ele>
        <time>2015-03-15T13:44:55Z</time>
      </trkpt>
      <trkpt lat="40.255967" lon="-4.906483">
        <ele>1372.0</ele>
        <time>2015-03-15T13:44:56Z</time>
      </trkpt>
      <trkpt lat="40.256017" lon="-4.906600">
        <ele>1372.0</ele>
        <time>2015-03-15T13:44:57Z</time>
      </trkpt>
      <trkpt lat="40.256067" lon="-4.906717">
        <ele>1371.0</ele>
        <time>2015-03-15T13:44:58Z</time>
      </trkpt>
      <trkpt lat="40.256100" lon="-4.906833">
        <ele>1369.0</ele>
        <time>2015-03-15T13:44:59Z</time>
      </trkpt>
      <trkpt lat="40.256150" lon="-4.906950">
        <ele>1368.0</ele>
        <time>2015-03-15T13:45:00Z</time>
      </trkpt>
      <trkpt lat="40.256200" lon="-4.907083">
        <ele>1368.0</ele>
        <time>2015-03-15T13:45:01Z</time>
      </trkpt>
      <trkpt lat="40.256250" lon="-4.907183">
        <ele>1367.0</ele>
        <time>2015-03-15T13:45:02Z</time>
      </trkpt>
      <trkpt lat="40.256317" lon="-4.907283">
        <ele>1366.0</ele>
        <time>2015-03-15T13:45:03Z</time>
      </trkpt>
      <trkpt lat="40.256383" lon="-4.907383">
        <ele>1365.0</ele>
        <time>2015-03-15T13:45:04Z</time>
      </trkpt>
      <trkpt lat="40.256450" lon="-4.907467">
        <ele>1363.0</ele>
        <time>2015-03-15T13:45:05Z</time>
      </trkpt>
      <trkpt lat="40.256517" lon="-4.907567">
        <ele>1361.0</ele>
        <time>2015-03-15T13:45:06Z</time>
      </trkpt>
      <trkpt lat="40.256600" lon="-4.907650">
        <ele>1359.0</ele>
        <time>2015-03-15T13:45:07Z</time>
      </trkpt>
      <trkpt lat="40.256700" lon="-4.907733">
        <ele>1358.0</ele>
        <time>2015-03-15T13:45:08Z</time>
      </trkpt>
      <trkpt lat="40.256800" lon="-4.907817">
        <ele>1356.0</ele>
        <time>2015-03-15T13:45:09Z</time>
      </trkpt>
      <trkpt lat="40.256883" lon="-4.907883">
        <ele>1355.0</ele>
        <time>2015-03-15T13:45:10Z</time>
      </trkpt>
      <trkpt lat="40.256967" lon="-4.907967">
        <ele>1354.0</ele>
        <time>2015-03-15T13:45:11Z</time>
      </trkpt>
      <trkpt lat="40.257067" lon="-4.908050">
        <ele>1352.0</ele>
        <time>2015-03-15T13:45:12Z</time>
      </trkpt>
      <trkpt lat="40.257150" lon="-4.908133">
        <ele>1351.0</ele>
        <time>2015-03-15T13:45:13Z</time>
      </trkpt>
      <trkpt lat="40.257233" lon="-4.908217">
        <ele>1348.0</ele>
        <time>2015-03-15T13:45:14Z</time>
      </trkpt>
      <trkpt lat="40.257300" lon="-4.908317">
        <ele>1346.0</ele>
        <time>2015-03-15T13:45:15Z</time>
      </trkpt>
      <trkpt lat="40.257367" lon="-4.908433">
        <ele>1344.0</ele>
        <time>2015-03-15T13:45:16Z</time>
      </trkpt>
      <trkpt lat="40.257450" lon="-4.908533">
        <ele>1342.0</ele>
        <time>2015-03-15T13:45:17Z</time>
      </trkpt>
      <trkpt lat="40.257517" lon="-4.908650">
        <ele>1341.0</ele>
        <time>2015-03-15T13:45:18Z</time>
      </trkpt>
      <trkpt lat="40.257567" lon="-4.908750">
        <ele>1341.0</ele>
        <time>2015-03-15T13:45:19Z</time>
      </trkpt>
      <trkpt lat="40.257633" lon="-4.908867">
        <ele>1340.0</ele>
        <time>2015-03-15T13:45:20Z</time>
      </trkpt>
      <trkpt lat="40.257683" lon="-4.908983">
        <ele>1339.0</ele>
        <time>2015-03-15T13:45:21Z</time>
      </trkpt>
      <trkpt lat="40.257733" lon="-4.909117">
        <ele>1338.0</ele>
        <time>2015-03-15T13:45:22Z</time>
      </trkpt>
      <trkpt lat="40.257800" lon="-4.909250">
        <ele>1336.0</ele>
        <time>2015-03-15T13:45:23Z</time>
      </trkpt>
      <trkpt lat="40.257850" lon="-4.909383">
        <ele>1336.0</ele>
        <time>2015-03-15T13:45:24Z</time>
      </trkpt>
      <trkpt lat="40.257900" lon="-4.909500">
        <ele>1336.0</ele>
        <time>2015-03-15T13:45:25Z</time>
      </trkpt>
      <trkpt lat="40.257950" lon="-4.909633">
        <ele>1336.0</ele>
        <time>2015-03-15T13:45:26Z</time>
      </trkpt>
      <trkpt lat="40.258000" lon="-4.909767">
        <ele>1337.0</ele>
        <time>2015-03-15T13:45:27Z</time>
      </trkpt>
      <trkpt lat="40.258067" lon="-4.909883">
        <ele>1337.0</ele>
        <time>2015-03-15T13:45:28Z</time>
      </trkpt>
      <trkpt lat="40.258117" lon="-4.910017">
        <ele>1337.0</ele>
        <time>2015-03-15T13:45:29Z</time>
      </trkpt>
      <trkpt lat="40.258183" lon="-4.910133">
        <ele>1337.0</ele>
        <time>2015-03-15T13:45:30Z</time>
      </trkpt>
      <trkpt lat="40.258233" lon="-4.910267">
        <ele>1337.0</ele>
        <time>2015-03-15T13:45:31Z</time>
      </trkpt>
      <trkpt lat="40.258283" lon="-4.910400">
        <ele>1337.0</ele>
        <time>2015-03-15T13:45:32Z</time>
      </trkpt>
      <trkpt lat="40.258350" lon="-4.910533">
        <ele>1338.0</ele>
        <time>2015-03-15T13:45:33Z</time>
      </trkpt>
      <trkpt lat="40.258417" lon="-4.910667">
        <ele>1338.0</ele>
        <time>2015-03-15T13:45:34Z</time>
      </trkpt>
      <trkpt lat="40.258483" lon="-4.910800">
        <ele>1339.0</ele>
        <time>2015-03-15T13:45:35Z</time>
      </trkpt>
      <trkpt lat="40.258533" lon="-4.910933">
        <ele>1342.0</ele>
        <time>2015-03-15T13:45:36Z</time>
      </trkpt>
      <trkpt lat="40.258583" lon="-4.911067">
        <ele>1345.0</ele>
        <time>2015-03-15T13:45:37Z</time>
      </trkpt>
      <trkpt lat="40.258600" lon="-4.911183">
        <ele>1348.0</ele>
        <time>2015-03-15T13:45:38Z</time>
      </trkpt>
      <trkpt lat="40.258617" lon="-4.911283">
        <ele>1349.0</ele>
        <time>2015-03-15T13:45:39Z</time>
      </trkpt>
      <trkpt lat="40.258600" lon="-4.911383">
        <ele>1350.0</ele>
        <time>2015-03-15T13:45:40Z</time>
      </trkpt>
      <trkpt lat="40.258567" lon="-4.911483">
        <ele>1351.0</ele>
        <time>2015-03-15T13:45:41Z</time>
      </trkpt>
      <trkpt lat="40.258517" lon="-4.911567">
        <ele>1353.0</ele>
        <time>2015-03-15T13:45:42Z</time>
      </trkpt>
      <trkpt lat="40.258450" lon="-4.911583">
        <ele>1354.0</ele>
        <time>2015-03-15T13:45:43Z</time>
      </trkpt>
      <trkpt lat="40.258383" lon="-4.911533">
        <ele>1355.0</ele>
        <time>2015-03-15T13:45:44Z</time>
      </trkpt>
      <trkpt lat="40.258350" lon="-4.911450">
        <ele>1356.0</ele>
        <time>2015-03-15T13:45:45Z</time>
      </trkpt>
      <trkpt lat="40.258333" lon="-4.911350">
        <ele>1358.0</ele>
        <time>2015-03-15T13:45:46Z</time>
      </trkpt>
      <trkpt lat="40.258350" lon="-4.911233">
        <ele>1361.0</ele>
        <time>2015-03-15T13:45:47Z</time>
      </trkpt>
      <trkpt lat="40.258367" lon="-4.911133">
        <ele>1365.0</ele>
        <time>2015-03-15T13:45:48Z</time>
      </trkpt>
      <trkpt lat="40.258400" lon="-4.911017">
        <ele>1367.0</ele>
        <time>2015-03-15T13:45:49Z</time>
      </trkpt>
      <trkpt lat="40.258450" lon="-4.910917">
        <ele>1369.0</ele>
        <time>2015-03-15T13:45:50Z</time>
      </trkpt>
      <trkpt lat="40.258533" lon="-4.910833">
        <ele>1370.0</ele>
        <time>2015-03-15T13:45:51Z</time>
      </trkpt>
      <trkpt lat="40.258600" lon="-4.910733">
        <ele>1371.0</ele>
        <time>2015-03-15T13:45:52Z</time>
      </trkpt>
      <trkpt lat="40.258667" lon="-4.910633">
        <ele>1372.0</ele>
        <time>2015-03-15T13:45:53Z</time>
      </trkpt>
      <trkpt lat="40.258717" lon="-4.910517">
        <ele>1373.0</ele>
        <time>2015-03-15T13:45:54Z</time>
      </trkpt>
      <trkpt lat="40.258767" lon="-4.910383">
        <ele>1373.0</ele>
        <time>2015-03-15T13:45:55Z</time>
      </trkpt>
      <trkpt lat="40.258783" lon="-4.910267">
        <ele>1373.0</ele>
        <time>2015-03-15T13:45:56Z</time>
      </trkpt>
      <trkpt lat="40.258783" lon="-4.910167">
        <ele>1374.0</ele>
        <time>2015-03-15T13:45:57Z</time>
      </trkpt>
      <trkpt lat="40.258767" lon="-4.910100">
        <ele>1374.0</ele>
        <time>2015-03-15T13:45:58Z</time>
      </trkpt>
      <trkpt lat="40.258733" lon="-4.910050">
        <ele>1372.0</ele>
        <time>2015-03-15T13:45:59Z</time>
      </trkpt>
      <trkpt lat="40.258667" lon="-4.910033">
        <ele>1371.0</ele>
        <time>2015-03-15T13:46:00Z</time>
      </trkpt>
      <trkpt lat="40.258617" lon="-4.910083">
        <ele>1370.0</ele>
        <time>2015-03-15T13:46:01Z</time>
      </trkpt>
      <trkpt lat="40.258567" lon="-4.910167">
        <ele>1369.0</ele>
        <time>2015-03-15T13:46:02Z</time>
      </trkpt>
      <trkpt lat="40.258567" lon="-4.910283">
        <ele>1369.0</ele>
        <time>2015-03-15T13:46:03Z</time>
      </trkpt>
      <trkpt lat="40.258583" lon="-4.910417">
        <ele>1369.0</ele>
        <time>2015-03-15T13:46:04Z</time>
      </trkpt>
      <trkpt lat="40.258617" lon="-4.910533">
        <ele>1371.0</ele>
        <time>2015-03-15T13:46:05Z</time>
      </trkpt>
      <trkpt lat="40.258650" lon="-4.910650">
        <ele>1373.0</ele>
        <time>2015-03-15T13:46:06Z</time>
      </trkpt>
      <trkpt lat="40.258700" lon="-4.910767">
        <ele>1375.0</ele>
        <time>2015-03-15T13:46:07Z</time>
      </trkpt>
      <trkpt lat="40.258750" lon="-4.910900">
        <ele>1376.0</ele>
        <time>2015-03-15T13:46:08Z</time>
      </trkpt>
      <trkpt lat="40.258800" lon="-4.911033">
        <ele>1377.0</ele>
        <time>2015-03-15T13:46:09Z</time>
      </trkpt>
      <trkpt lat="40.258833" lon="-4.911150">
        <ele>1380.0</ele>
        <time>2015-03-15T13:46:10Z</time>
      </trkpt>
      <trkpt lat="40.258850" lon="-4.911267">
        <ele>1383.0</ele>
        <time>2015-03-15T13:46:11Z</time>
      </trkpt>
      <trkpt lat="40.258867" lon="-4.911367">
        <ele>1386.0</ele>
        <time>2015-03-15T13:46:12Z</time>
      </trkpt>
      <trkpt lat="40.258900" lon="-4.911467">
        <ele>1387.0</ele>
        <time>2015-03-15T13:46:13Z</time>
      </trkpt>
      <trkpt lat="40.258933" lon="-4.911550">
        <ele>1387.0</ele>
        <time>2015-03-15T13:46:14Z</time>
      </trkpt>
      <trkpt lat="40.258950" lon="-4.911633">
        <ele>1386.0</ele>
        <time>2015-03-15T13:46:15Z</time>
      </trkpt>
      <trkpt lat="40.258933" lon="-4.911717">
        <ele>1384.0</ele>
        <time>2015-03-15T13:46:16Z</time>
      </trkpt>
      <trkpt lat="40.258883" lon="-4.911767">
        <ele>1382.0</ele>
        <time>2015-03-15T13:46:17Z</time>
      </trkpt>
      <trkpt lat="40.258833" lon="-4.911783">
        <ele>1381.0</ele>
        <time>2015-03-15T13:46:18Z</time>
      </trkpt>
      <trkpt lat="40.258767" lon="-4.911750">
        <ele>1380.0</ele>
        <time>2015-03-15T13:46:19Z</time>
      </trkpt>
      <trkpt lat="40.258717" lon="-4.911667">
        <ele>1379.0</ele>
        <time>2015-03-15T13:46:20Z</time>
      </trkpt>
      <trkpt lat="40.258717" lon="-4.911550">
        <ele>1379.0</ele>
        <time>2015-03-15T13:46:21Z</time>
      </trkpt>
      <trkpt lat="40.258733" lon="-4.911417">
        <ele>1379.0</ele>
        <time>2015-03-15T13:46:22Z</time>
      </trkpt>
      <trkpt lat="40.258783" lon="-4.911300">
        <ele>1379.0</ele>
        <time>2015-03-15T13:46:23Z</time>
      </trkpt>
      <trkpt lat="40.258850" lon="-4.911183">
        <ele>1379.0</ele>
        <time>2015-03-15T13:46:24Z</time>
      </trkpt>
      <trkpt lat="40.258917" lon="-4.911083">
        <ele>1380.0</ele>
        <time>2015-03-15T13:46:25Z</time>
      </trkpt>
      <trkpt lat="40.258967" lon="-4.910967">
        <ele>1380.0</ele>
        <time>2015-03-15T13:46:26Z</time>
      </trkpt>
      <trkpt lat="40.259017" lon="-4.910867">
        <ele>1380.0</ele>
        <time>2015-03-15T13:46:27Z</time>
      </trkpt>
      <trkpt lat="40.259050" lon="-4.910750">
        <ele>1380.0</ele>
        <time>2015-03-15T13:46:28Z</time>
      </trkpt>
      <trkpt lat="40.259067" lon="-4.910633">
        <ele>1380.0</ele>
        <time>2015-03-15T13:46:29Z</time>
      </trkpt>
      <trkpt lat="40.259100" lon="-4.910517">
        <ele>1380.0</ele>
        <time>2015-03-15T13:46:30Z</time>
      </trkpt>
      <trkpt lat="40.259133" lon="-4.910400">
        <ele>1381.0</ele>
        <time>2015-03-15T13:46:31Z</time>
      </trkpt>
      <trkpt lat="40.259150" lon="-4.910300">
        <ele>1382.0</ele>
        <time>2015-03-15T13:46:32Z</time>
      </trkpt>
      <trkpt lat="40.259167" lon="-4.910217">
        <ele>1383.0</ele>
        <time>2015-03-15T13:46:33Z</time>
      </trkpt>
      <trkpt lat="40.259167" lon="-4.910100">
        <ele>1384.0</ele>
        <time>2015-03-15T13:46:34Z</time>
      </trkpt>
      <trkpt lat="40.259150" lon="-4.910000">
        <ele>1384.0</ele>
        <time>2015-03-15T13:46:35Z</time>
      </trkpt>
      <trkpt lat="40.259150" lon="-4.909917">
        <ele>1385.0</ele>
        <time>2015-03-15T13:46:36Z</time>
      </trkpt>
      <trkpt lat="40.259133" lon="-4.909833">
        <ele>1385.0</ele>
        <time>2015-03-15T13:46:37Z</time>
      </trkpt>
      <trkpt lat="40.259117" lon="-4.909750">
        <ele>1386.0</ele>
        <time>2015-03-15T13:46:38Z</time>
      </trkpt>
      <trkpt lat="40.259083" lon="-4.909667">
        <ele>1385.0</ele>
        <time>2015-03-15T13:46:39Z</time>
      </trkpt>
      <trkpt lat="40.259050" lon="-4.909600">
        <ele>1385.0</ele>
        <time>2015-03-15T13:46:40Z</time>
      </trkpt>
      <trkpt lat="40.259000" lon="-4.909533">
        <ele>1385.0</ele>
        <time>2015-03-15T13:46:41Z</time>
      </trkpt>
      <trkpt lat="40.258967" lon="-4.909500">
        <ele>1385.0</ele>
        <time>2015-03-15T13:46:42Z</time>
      </trkpt>
      <trkpt lat="40.258917" lon="-4.909500">
        <ele>1385.0</ele>
        <time>2015-03-15T13:46:43Z</time>
      </trkpt>
      <trkpt lat="40.258867" lon="-4.909517">
        <ele>1383.0</ele>
        <time>2015-03-15T13:46:44Z</time>
      </trkpt>
      <trkpt lat="40.258817" lon="-4.909567">
        <ele>1383.0</ele>
        <time>2015-03-15T13:46:45Z</time>
      </trkpt>
      <trkpt lat="40.258767" lon="-4.909617">
        <ele>1382.0</ele>
        <time>2015-03-15T13:46:46Z</time>
      </trkpt>
      <trkpt lat="40.258733" lon="-4.909700">
        <ele>1383.0</ele>
        <time>2015-03-15T13:46:47Z</time>
      </trkpt>
      <trkpt lat="40.258700" lon="-4.909767">
        <ele>1382.0</ele>
        <time>2015-03-15T13:46:48Z</time>
      </trkpt>
      <trkpt lat="40.258700" lon="-4.909867">
        <ele>1382.0</ele>
        <time>2015-03-15T13:46:49Z</time>
      </trkpt>
      <trkpt lat="40.258700" lon="-4.909983">
        <ele>1380.0</ele>
        <time>2015-03-15T13:46:50Z</time>
      </trkpt>
      <trkpt lat="40.258717" lon="-4.910100">
        <ele>1378.0</ele>
        <time>2015-03-15T13:46:51Z</time>
      </trkpt>
      <trkpt lat="40.258750" lon="-4.910233">
        <ele>1377.0</ele>
        <time>2015-03-15T13:46:52Z</time>
      </trkpt>
      <trkpt lat="40.258783" lon="-4.910350">
        <ele>1376.0</ele>
        <time>2015-03-15T13:46:53Z</time>
      </trkpt>
      <trkpt lat="40.258817" lon="-4.910483">
        <ele>1375.0</ele>
        <time>2015-03-15T13:46:54Z</time>
      </trkpt>
      <trkpt lat="40.258833" lon="-4.910583">
        <ele>1375.0</ele>
        <time>2015-03-15T13:46:55Z</time>
      </trkpt>
      <trkpt lat="40.258850" lon="-4.910700">
        <ele>1374.0</ele>
        <time>2015-03-15T13:46:56Z</time>
      </trkpt>
      <trkpt lat="40.258867" lon="-4.910817">
        <ele>1374.0</ele>
        <time>2015-03-15T13:46:57Z</time>
      </trkpt>
      <trkpt lat="40.258867" lon="-4.910933">
        <ele>1374.0</ele>
        <time>2015-03-15T13:46:58Z</time>
      </trkpt>
      <trkpt lat="40.258900" lon="-4.911033">
        <ele>1374.0</ele>
        <time>2015-03-15T13:46:59Z</time>
      </trkpt>
      <trkpt lat="40.258933" lon="-4.911133">
        <ele>1374.0</ele>
        <time>2015-03-15T13:47:00Z</time>
      </trkpt>
      <trkpt lat="40.258967" lon="-4.911233">
        <ele>1374.0</ele>
        <time>2015-03-15T13:47:01Z</time>
      </trkpt>
      <trkpt lat="40.259000" lon="-4.911333">
        <ele>1373.0</ele>
        <time>2015-03-15T13:47:02Z</time>
      </trkpt>
      <trkpt lat="40.259033" lon="-4.911433">
        <ele>1373.0</ele>
        <time>2015-03-15T13:47:03Z</time>
      </trkpt>
      <trkpt lat="40.259067" lon="-4.911533">
        <ele>1371.0</ele>
        <time>2015-03-15T13:47:04Z</time>
      </trkpt>
      <trkpt lat="40.259067" lon="-4.911633">
        <ele>1370.0</ele>
        <time>2015-03-15T13:47:05Z</time>
      </trkpt>
      <trkpt lat="40.259050" lon="-4.911733">
        <ele>1369.0</ele>
        <time>2015-03-15T13:47:06Z</time>
      </trkpt>
      <trkpt lat="40.259017" lon="-4.911817">
        <ele>1366.0</ele>
        <time>2015-03-15T13:47:07Z</time>
      </trkpt>
      <trkpt lat="40.258967" lon="-4.911900">
        <ele>1365.0</ele>
        <time>2015-03-15T13:47:08Z</time>
      </trkpt>
      <trkpt lat="40.258917" lon="-4.911950">
        <ele>1364.0</ele>
        <time>2015-03-15T13:47:09Z</time>
      </trkpt>
      <trkpt lat="40.258850" lon="-4.912033">
        <ele>1363.0</ele>
        <time>2015-03-15T13:47:10Z</time>
      </trkpt>
      <trkpt lat="40.258817" lon="-4.912117">
        <ele>1362.0</ele>
        <time>2015-03-15T13:47:11Z</time>
      </trkpt>
      <trkpt lat="40.258767" lon="-4.912217">
        <ele>1361.0</ele>
        <time>2015-03-15T13:47:12Z</time>
      </trkpt>
      <trkpt lat="40.258717" lon="-4.912300">
        <ele>1360.0</ele>
        <time>2015-03-15T13:47:13Z</time>
      </trkpt>
      <trkpt lat="40.258667" lon="-4.912383">
        <ele>1360.0</ele>
        <time>2015-03-15T13:47:14Z</time>
      </trkpt>
      <trkpt lat="40.258617" lon="-4.912450">
        <ele>1360.0</ele>
        <time>2015-03-15T13:47:15Z</time>
      </trkpt>
      <trkpt lat="40.258583" lon="-4.912517">
        <ele>1359.0</ele>
        <time>2015-03-15T13:47:16Z</time>
      </trkpt>
      <trkpt lat="40.258533" lon="-4.912600">
        <ele>1357.0</ele>
        <time>2015-03-15T13:47:17Z</time>
      </trkpt>
      <trkpt lat="40.258500" lon="-4.912683">
        <ele>1356.0</ele>
        <time>2015-03-15T13:47:18Z</time>
      </trkpt>
      <trkpt lat="40.258450" lon="-4.912767">
        <ele>1355.0</ele>
        <time>2015-03-15T13:47:19Z</time>
      </trkpt>
      <trkpt lat="40.258417" lon="-4.912850">
        <ele>1354.0</ele>
        <time>2015-03-15T13:47:20Z</time>
      </trkpt>
      <trkpt lat="40.258367" lon="-4.912933">
        <ele>1354.0</ele>
        <time>2015-03-15T13:47:21Z</time>
      </trkpt>
      <trkpt lat="40.258333" lon="-4.913000">
        <ele>1354.0</ele>
        <time>2015-03-15T13:47:22Z</time>
      </trkpt>
      <trkpt lat="40.258300" lon="-4.913083">
        <ele>1353.0</ele>
        <time>2015-03-15T13:47:23Z</time>
      </trkpt>
      <trkpt lat="40.258267" lon="-4.913167">
        <ele>1352.0</ele>
        <time>2015-03-15T13:47:24Z</time>
      </trkpt>
      <trkpt lat="40.258217" lon="-4.913233">
        <ele>1351.0</ele>
        <time>2015-03-15T13:47:25Z</time>
      </trkpt>
      <trkpt lat="40.258150" lon="-4.913317">
        <ele>1351.0</ele>
        <time>2015-03-15T13:47:26Z</time>
      </trkpt>
      <trkpt lat="40.258100" lon="-4.913417">
        <ele>1352.0</ele>
        <time>2015-03-15T13:47:27Z</time>
      </trkpt>
      <trkpt lat="40.258050" lon="-4.913500">
        <ele>1353.0</ele>
        <time>2015-03-15T13:47:28Z</time>
      </trkpt>
      <trkpt lat="40.258017" lon="-4.913583">
        <ele>1354.0</ele>
        <time>2015-03-15T13:47:29Z</time>
      </trkpt>
      <trkpt lat="40.257983" lon="-4.913683">
        <ele>1355.0</ele>
        <time>2015-03-15T13:47:30Z</time>
      </trkpt>
      <trkpt lat="40.257950" lon="-4.913750">
        <ele>1356.0</ele>
        <time>2015-03-15T13:47:31Z</time>
      </trkpt>
      <trkpt lat="40.257917" lon="-4.913817">
        <ele>1356.0</ele>
        <time>2015-03-15T13:47:32Z</time>
      </trkpt>
      <trkpt lat="40.257883" lon="-4.913883">
        <ele>1357.0</ele>
        <time>2015-03-15T13:47:33Z</time>
      </trkpt>
      <trkpt lat="40.257833" lon="-4.913950">
        <ele>1356.0</ele>
        <time>2015-03-15T13:47:34Z</time>
      </trkpt>
      <trkpt lat="40.257783" lon="-4.914017">
        <ele>1356.0</ele>
        <time>2015-03-15T13:47:35Z</time>
      </trkpt>
      <trkpt lat="40.257733" lon="-4.914067">
        <ele>1355.0</ele>
        <time>2015-03-15T13:47:36Z</time>
      </trkpt>
      <trkpt lat="40.257667" lon="-4.914117">
        <ele>1354.0</ele>
        <time>2015-03-15T13:47:37Z</time>
      </trkpt>
      <trkpt lat="40.257600" lon="-4.914183">
        <ele>1353.0</ele>
        <time>2015-03-15T13:47:38Z</time>
      </trkpt>
      <trkpt lat="40.257550" lon="-4.914250">
        <ele>1352.0</ele>
        <time>2015-03-15T13:47:39Z</time>
      </trkpt>
      <trkpt lat="40.257500" lon="-4.914317">
        <ele>1351.0</ele>
        <time>2015-03-15T13:47:40Z</time>
      </trkpt>
      <trkpt lat="40.257450" lon="-4.914383">
        <ele>1349.0</ele>
        <time>2015-03-15T13:47:41Z</time>
      </trkpt>
      <trkpt lat="40.257400" lon="-4.914467">
        <ele>1348.0</ele>
        <time>2015-03-15T13:47:42Z</time>
      </trkpt>
      <trkpt lat="40.257333" lon="-4.914533">
        <ele>1346.0</ele>
        <time>2015-03-15T13:47:43Z</time>
      </trkpt>
      <trkpt lat="40.257267" lon="-4.914583">
        <ele>1344.0</ele>
        <time>2015-03-15T13:47:44Z</time>
      </trkpt>
      <trkpt lat="40.257200" lon="-4.914650">
        <ele>1343.0</ele>
        <time>2015-03-15T13:47:45Z</time>
      </trkpt>
      <trkpt lat="40.257133" lon="-4.914700">
        <ele>1341.0</ele>
        <time>2015-03-15T13:47:46Z</time>
      </trkpt>
      <trkpt lat="40.257067" lon="-4.914767">
        <ele>1340.0</ele>
        <time>2015-03-15T13:47:47Z</time>
      </trkpt>
      <trkpt lat="40.257000" lon="-4.914833">
        <ele>1340.0</ele>
        <time>2015-03-15T13:47:48Z</time>
      </trkpt>
      <trkpt lat="40.256933" lon="-4.914900">
        <ele>1340.0</ele>
        <time>2015-03-15T13:47:49Z</time>
      </trkpt>
      <trkpt lat="40.256883" lon="-4.914967">
        <ele>1339.0</ele>
        <time>2015-03-15T13:47:50Z</time>
      </trkpt>
      <trkpt lat="40.256833" lon="-4.915033">
        <ele>1338.0</ele>
        <time>2015-03-15T13:47:51Z</time>
      </trkpt>
      <trkpt lat="40.256767" lon="-4.915100">
        <ele>1336.0</ele>
        <time>2015-03-15T13:47:52Z</time>
      </trkpt>
      <trkpt lat="40.256700" lon="-4.915150">
        <ele>1334.0</ele>
        <time>2015-03-15T13:47:53Z</time>
      </trkpt>
      <trkpt lat="40.256633" lon="-4.915217">
        <ele>1333.0</ele>
        <time>2015-03-15T13:47:54Z</time>
      </trkpt>
      <trkpt lat="40.256567" lon="-4.915300">
        <ele>1333.0</ele>
        <time>2015-03-15T13:47:55Z</time>
      </trkpt>
      <trkpt lat="40.256517" lon="-4.915367">
        <ele>1334.0</ele>
        <time>2015-03-15T13:47:56Z</time>
      </trkpt>
      <trkpt lat="40.256467" lon="-4.915433">
        <ele>1335.0</ele>
        <time>2015-03-15T13:47:57Z</time>
      </trkpt>
      <trkpt lat="40.256417" lon="-4.915500">
        <ele>1335.0</ele>
        <time>2015-03-15T13:47:58Z</time>
      </trkpt>
      <trkpt lat="40.256350" lon="-4.915550">
        <ele>1333.0</ele>
        <time>2015-03-15T13:47:59Z</time>
      </trkpt>
      <trkpt lat="40.256300" lon="-4.915600">
        <ele>1332.0</ele>
        <time>2015-03-15T13:48:00Z</time>
      </trkpt>
      <trkpt lat="40.256233" lon="-4.915650">
        <ele>1330.0</ele>
        <time>2015-03-15T13:48:01Z</time>
      </trkpt>
      <trkpt lat="40.256167" lon="-4.915717">
        <ele>1329.0</ele>
        <time>2015-03-15T13:48:02Z</time>
      </trkpt>
      <trkpt lat="40.256100" lon="-4.915767">
        <ele>1328.0</ele>
        <time>2015-03-15T13:48:03Z</time>
      </trkpt>
      <trkpt lat="40.256033" lon="-4.915817">
        <ele>1327.0</ele>
        <time>2015-03-15T13:48:04Z</time>
      </trkpt>
      <trkpt lat="40.255967" lon="-4.915883">
        <ele>1327.0</ele>
        <time>2015-03-15T13:48:05Z</time>
      </trkpt>
      <trkpt lat="40.255917" lon="-4.915933">
        <ele>1326.0</ele>
        <time>2015-03-15T13:48:06Z</time>
      </trkpt>
      <trkpt lat="40.255850" lon="-4.916000">
        <ele>1325.0</ele>
        <time>2015-03-15T13:48:07Z</time>
      </trkpt>
      <trkpt lat="40.255783" lon="-4.916050">
        <ele>1325.0</ele>
        <time>2015-03-15T13:48:08Z</time>
      </trkpt>
      <trkpt lat="40.255733" lon="-4.916117">
        <ele>1324.0</ele>
        <time>2015-03-15T13:48:09Z</time>
      </trkpt>
      <trkpt lat="40.255683" lon="-4.916183">
        <ele>1324.0</ele>
        <time>2015-03-15T13:48:10Z</time>
      </trkpt>
      <trkpt lat="40.255633" lon="-4.916233">
        <ele>1323.0</ele>
        <time>2015-03-15T13:48:11Z</time>
      </trkpt>
      <trkpt lat="40.255567" lon="-4.916283">
        <ele>1323.0</ele>
        <time>2015-03-15T13:48:12Z</time>
      </trkpt>
      <trkpt lat="40.255517" lon="-4.916350">
        <ele>1323.0</ele>
        <time>2015-03-15T13:48:13Z</time>
      </trkpt>
      <trkpt lat="40.255450" lon="-4.916383">
        <ele>1324.0</ele>
        <time>2015-03-15T13:48:14Z</time>
      </trkpt>
      <trkpt lat="40.255400" lon="-4.916433">
        <ele>1325.0</ele>
        <time>2015-03-15T13:48:15Z</time>
      </trkpt>
      <trkpt lat="40.255350" lon="-4.916500">
        <ele>1325.0</ele>
        <time>2015-03-15T13:48:16Z</time>
      </trkpt>
      <trkpt lat="40.255283" lon="-4.916583">
        <ele>1326.0</ele>
        <time>2015-03-15T13:48:17Z</time>
      </trkpt>
      <trkpt lat="40.255250" lon="-4.916683">
        <ele>1326.0</ele>
        <time>2015-03-15T13:48:18Z</time>
      </trkpt>
      <trkpt lat="40.255200" lon="-4.916783">
        <ele>1327.0</ele>
        <time>2015-03-15T13:48:19Z</time>
      </trkpt>
      <trkpt lat="40.255133" lon="-4.916883">
        <ele>1328.0</ele>
        <time>2015-03-15T13:48:20Z</time>
      </trkpt>
      <trkpt lat="40.255083" lon="-4.916950">
        <ele>1329.0</ele>
        <time>2015-03-15T13:48:21Z</time>
      </trkpt>
      <trkpt lat="40.255033" lon="-4.917033">
        <ele>1330.0</ele>
        <time>2015-03-15T13:48:22Z</time>
      </trkpt>
      <trkpt lat="40.254967" lon="-4.917117">
        <ele>1331.0</ele>
        <time>2015-03-15T13:48:23Z</time>
      </trkpt>
      <trkpt lat="40.254900" lon="-4.917200">
        <ele>1331.0</ele>
        <time>2015-03-15T13:48:24Z</time>
      </trkpt>
      <trkpt lat="40.254833" lon="-4.917267">
        <ele>1332.0</ele>
        <time>2015-03-15T13:48:25Z</time>
      </trkpt>
      <trkpt lat="40.254767" lon="-4.917333">
        <ele>1334.0</ele>
        <time>2015-03-15T13:48:26Z</time>
      </trkpt>
      <trkpt lat="40.254700" lon="-4.917383">
        <ele>1336.0</ele>
        <time>2015-03-15T13:48:27Z</time>
      </trkpt>
      <trkpt lat="40.254650" lon="-4.917417">
        <ele>1338.0</ele>
        <time>2015-03-15T13:48:28Z</time>
      </trkpt>
      <trkpt lat="40.254583" lon="-4.917467">
        <ele>1339.0</ele>
        <time>2015-03-15T13:48:29Z</time>
      </trkpt>
      <trkpt lat="40.254533" lon="-4.917533">
        <ele>1339.0</ele>
        <time>2015-03-15T13:48:30Z</time>
      </trkpt>
      <trkpt lat="40.254467" lon="-4.917567">
        <ele>1341.0</ele>
        <time>2015-03-15T13:48:31Z</time>
      </trkpt>
      <trkpt lat="40.254400" lon="-4.917533">
        <ele>1342.0</ele>
        <time>2015-03-15T13:48:32Z</time>
      </trkpt>
      <trkpt lat="40.254350" lon="-4.917467">
        <ele>1343.0</ele>
        <time>2015-03-15T13:48:33Z</time>
      </trkpt>
      <trkpt lat="40.254333" lon="-4.917367">
        <ele>1343.0</ele>
        <time>2015-03-15T13:48:34Z</time>
      </trkpt>
      <trkpt lat="40.254333" lon="-4.917250">
        <ele>1344.0</ele>
        <time>2015-03-15T13:48:35Z</time>
      </trkpt>
      <trkpt lat="40.254350" lon="-4.917133">
        <ele>1346.0</ele>
        <time>2015-03-15T13:48:36Z</time>
      </trkpt>
      <trkpt lat="40.254417" lon="-4.917033">
        <ele>1348.0</ele>
        <time>2015-03-15T13:48:37Z</time>
      </trkpt>
      <trkpt lat="40.254517" lon="-4.916967">
        <ele>1349.0</ele>
        <time>2015-03-15T13:48:38Z</time>
      </trkpt>
      <trkpt lat="40.254667" lon="-4.916950">
        <ele>1348.0</ele>
        <time>2015-03-15T13:48:39Z</time>
      </trkpt>
      <trkpt lat="40.254800" lon="-4.917000">
        <ele>1348.0</ele>
        <time>2015-03-15T13:48:40Z</time>
      </trkpt>
      <trkpt lat="40.254933" lon="-4.917067">
        <ele>1349.0</ele>
        <time>2015-03-15T13:48:41Z</time>
      </trkpt>
      <trkpt lat="40.255033" lon="-4.917167">
        <ele>1350.0</ele>
        <time>2015-03-15T13:48:42Z</time>
      </trkpt>
      <trkpt lat="40.255100" lon="-4.917300">
        <ele>1351.0</ele>
        <time>2015-03-15T13:48:43Z</time>
      </trkpt>
      <trkpt lat="40.255133" lon="-4.917433">
        <ele>1350.0</ele>
        <time>2015-03-15T13:48:44Z</time>
      </trkpt>
      <trkpt lat="40.255117" lon="-4.917583">
        <ele>1348.0</ele>
        <time>2015-03-15T13:48:45Z</time>
      </trkpt>
      <trkpt lat="40.255067" lon="-4.917717">
        <ele>1347.0</ele>
        <time>2015-03-15T13:48:46Z</time>
      </trkpt>
      <trkpt lat="40.255000" lon="-4.917817">
        <ele>1347.0</ele>
        <time>2015-03-15T13:48:47Z</time>
      </trkpt>
      <trkpt lat="40.254900" lon="-4.917900">
        <ele>1348.0</ele>
        <time>2015-03-15T13:48:48Z</time>
      </trkpt>
      <trkpt lat="40.254833" lon="-4.917967">
        <ele>1351.0</ele>
        <time>2015-03-15T13:48:49Z</time>
      </trkpt>
      <trkpt lat="40.254783" lon="-4.918033">
        <ele>1355.0</ele>
        <time>2015-03-15T13:48:50Z</time>
      </trkpt>
      <trkpt lat="40.254750" lon="-4.918100">
        <ele>1357.0</ele>
        <time>2015-03-15T13:48:51Z</time>
      </trkpt>
      <trkpt lat="40.254717" lon="-4.918167">
        <ele>1358.0</ele>
        <time>2015-03-15T13:48:52Z</time>
      </trkpt>
      <trkpt lat="40.254667" lon="-4.918217">
        <ele>1358.0</ele>
        <time>2015-03-15T13:48:53Z</time>
      </trkpt>
      <trkpt lat="40.254617" lon="-4.918283">
        <ele>1358.0</ele>
        <time>2015-03-15T13:48:54Z</time>
      </trkpt>
      <trkpt lat="40.254550" lon="-4.918333">
        <ele>1358.0</ele>
        <time>2015-03-15T13:48:55Z</time>
      </trkpt>
      <trkpt lat="40.254483" lon="-4.918333">
        <ele>1359.0</ele>
        <time>2015-03-15T13:48:56Z</time>
      </trkpt>
      <trkpt lat="40.254417" lon="-4.918283">
        <ele>1360.0</ele>
        <time>2015-03-15T13:48:57Z</time>
      </trkpt>
      <trkpt lat="40.254383" lon="-4.918200">
        <ele>1361.0</ele>
        <time>2015-03-15T13:48:58Z</time>
      </trkpt>
      <trkpt lat="40.254367" lon="-4.918100">
        <ele>1362.0</ele>
        <time>2015-03-15T13:48:59Z</time>
      </trkpt>
      <trkpt lat="40.254383" lon="-4.918000">
        <ele>1364.0</ele>
        <time>2015-03-15T13:49:00Z</time>
      </trkpt>
      <trkpt lat="40.254417" lon="-4.917900">
        <ele>1366.0</ele>
        <time>2015-03-15T13:49:01Z</time>
      </trkpt>
      <trkpt lat="40.254467" lon="-4.917783">
        <ele>1366.0</ele>
        <time>2015-03-15T13:49:02Z</time>
      </trkpt>
      <trkpt lat="40.254567" lon="-4.917700">
        <ele>1367.0</ele>
        <time>2015-03-15T13:49:03Z</time>
      </trkpt>
      <trkpt lat="40.254683" lon="-4.917650">
        <ele>1368.0</ele>
        <time>2015-03-15T13:49:04Z</time>
      </trkpt>
      <trkpt lat="40.254800" lon="-4.917667">
        <ele>1369.0</ele>
        <time>2015-03-15T13:49:05Z</time>
      </trkpt>
      <trkpt lat="40.254917" lon="-4.917717">
        <ele>1370.0</ele>
        <time>2015-03-15T13:49:06Z</time>
      </trkpt>
      <trkpt lat="40.255000" lon="-4.917817">
        <ele>1371.0</ele>
        <time>2015-03-15T13:49:07Z</time>
      </trkpt>
      <trkpt lat="40.255033" lon="-4.917950">
        <ele>1372.0</ele>
        <time>2015-03-15T13:49:08Z</time>
      </trkpt>
      <trkpt lat="40.255050" lon="-4.918067">
        <ele>1372.0</ele>
        <time>2015-03-15T13:49:09Z</time>
      </trkpt>
      <trkpt lat="40.255017" lon="-4.918183">
        <ele>1373.0</ele>
        <time>2015-03-15T13:49:10Z</time>
      </trkpt>
      <trkpt lat="40.254967" lon="-4.918267">
        <ele>1374.0</ele>
        <time>2015-03-15T13:49:11Z</time>
      </trkpt>
      <trkpt lat="40.254917" lon="-4.918317">
        <ele>1376.0</ele>
        <time>2015-03-15T13:49:12Z</time>
      </trkpt>
      <trkpt lat="40.254867" lon="-4.918367">
        <ele>1379.0</ele>
        <time>2015-03-15T13:49:13Z</time>
      </trkpt>
      <trkpt lat="40.254833" lon="-4.918400">
        <ele>1380.0</ele>
        <time>2015-03-15T13:49:14Z</time>
      </trkpt>
      <trkpt lat="40.254783" lon="-4.918417">
        <ele>1380.0</ele>
        <time>2015-03-15T13:49:15Z</time>
      </trkpt>
      <trkpt lat="40.254733" lon="-4.918383">
        <ele>1380.0</ele>
        <time>2015-03-15T13:49:16Z</time>
      </trkpt>
      <trkpt lat="40.254667" lon="-4.918317">
        <ele>1381.0</ele>
        <time>2015-03-15T13:49:17Z</time>
      </trkpt>
      <trkpt lat="40.254633" lon="-4.918233">
        <ele>1383.0</ele>
        <time>2015-03-15T13:49:18Z</time>
      </trkpt>
      <trkpt lat="40.254633" lon="-4.918117">
        <ele>1386.0</ele>
        <time>2015-03-15T13:49:19Z</time>
      </trkpt>
      <trkpt lat="40.254633" lon="-4.918017">
        <ele>1388.0</ele>
        <time>2015-03-15T13:49:20Z</time>
      </trkpt>
      <trkpt lat="40.254667" lon="-4.917917">
        <ele>1390.0</ele>
        <time>2015-03-15T13:49:21Z</time>
      </trkpt>
      <trkpt lat="40.254700" lon="-4.917800">
        <ele>1392.0</ele>
        <time>2015-03-15T13:49:22Z</time>
      </trkpt>
      <trkpt lat="40.254767" lon="-4.917700">
        <ele>1393.0</ele>
        <time>2015-03-15T13:49:23Z</time>
      </trkpt>
      <trkpt lat="40.254867" lon="-4.917617">
        <ele>1394.0</ele>
        <time>2015-03-15T13:49:24Z</time>
      </trkpt>
      <trkpt lat="40.254967" lon="-4.917567">
        <ele>1395.0</ele>
        <time>2015-03-15T13:49:25Z</time>
      </trkpt>
      <trkpt lat="40.255100" lon="-4.917567">
        <ele>1397.0</ele>
        <time>2015-03-15T13:49:26Z</time>
      </trkpt>
      <trkpt lat="40.255233" lon="-4.917600">
        <ele>1398.0</ele>
        <time>2015-03-15T13:49:27Z</time>
      </trkpt>
      <trkpt lat="40.255350" lon="-4.917667">
        <ele>1400.0</ele>
        <time>2015-03-15T13:49:28Z</time>
      </trkpt>
      <trkpt lat="40.255450" lon="-4.917767">
        <ele>1402.0</ele>
        <time>2015-03-15T13:49:29Z</time>
      </trkpt>
      <trkpt lat="40.255517" lon="-4.917900">
        <ele>1404.0</ele>
        <time>2015-03-15T13:49:30Z</time>
      </trkpt>
      <trkpt lat="40.255533" lon="-4.918033">
        <ele>1406.0</ele>
        <time>2015-03-15T13:49:31Z</time>
      </trkpt>
      <trkpt lat="40.255533" lon="-4.918150">
        <ele>1408.0</ele>
        <time>2015-03-15T13:49:32Z</time>
      </trkpt>
      <trkpt lat="40.255500" lon="-4.918250">
        <ele>1409.0</ele>
        <time>2015-03-15T13:49:33Z</time>
      </trkpt>
      <trkpt lat="40.255450" lon="-4.918317">
        <ele>1410.0</ele>
        <time>2015-03-15T13:49:34Z</time>
      </trkpt>
      <trkpt lat="40.255400" lon="-4.918367">
        <ele>1412.0</ele>
        <time>2015-03-15T13:49:35Z</time>
      </trkpt>
      <trkpt lat="40.255333" lon="-4.918417">
        <ele>1413.0</ele>
        <time>2015-03-15T13:49:36Z</time>
      </trkpt>
      <trkpt lat="40.255283" lon="-4.918450">
        <ele>1415.0</ele>
        <time>2015-03-15T13:49:37Z</time>
      </trkpt>
      <trkpt lat="40.255217" lon="-4.918450">
        <ele>1417.0</ele>
        <time>2015-03-15T13:49:38Z</time>
      </trkpt>
      <trkpt lat="40.255133" lon="-4.918450">
        <ele>1418.0</ele>
        <time>2015-03-15T13:49:39Z</time>
      </trkpt>
      <trkpt lat="40.255067" lon="-4.918433">
        <ele>1420.0</ele>
        <time>2015-03-15T13:49:40Z</time>
      </trkpt>
      <trkpt lat="40.255017" lon="-4.918367">
        <ele>1422.0</ele>
        <time>2015-03-15T13:49:41Z</time>
      </trkpt>
      <trkpt lat="40.254983" lon="-4.918283">
        <ele>1424.0</ele>
        <time>2015-03-15T13:49:42Z</time>
      </trkpt>
      <trkpt lat="40.254967" lon="-4.918183">
        <ele>1425.0</ele>
        <time>2015-03-15T13:49:43Z</time>
      </trkpt>
      <trkpt lat="40.254983" lon="-4.918067">
        <ele>1426.0</ele>
        <time>2015-03-15T13:49:44Z</time>
      </trkpt>
      <trkpt lat="40.255017" lon="-4.917933">
        <ele>1427.0</ele>
        <time>2015-03-15T13:49:45Z</time>
      </trkpt>
      <trkpt lat="40.255083" lon="-4.917817">
        <ele>1429.0</ele>
        <time>2015-03-15T13:49:46Z</time>
      </trkpt>
      <trkpt lat="40.255150" lon="-4.917700">
        <ele>1431.0</ele>
        <time>2015-03-15T13:49:47Z</time>
      </trkpt>
      <trkpt lat="40.255250" lon="-4.917633">
        <ele>1432.0</ele>
        <time>2015-03-15T13:49:48Z</time>
      </trkpt>
      <trkpt lat="40.255367" lon="-4.917583">
        <ele>1434.0</ele>
        <time>2015-03-15T13:49:49Z</time>
      </trkpt>
      <trkpt lat="40.255483" lon="-4.917567">
        <ele>1434.0</ele>
        <time>2015-03-15T13:49:50Z</time>
      </trkpt>
      <trkpt lat="40.255617" lon="-4.917567">
        <ele>1434.0</ele>
        <time>2015-03-15T13:49:51Z</time>
      </trkpt>
      <trkpt lat="40.255750" lon="-4.917617">
        <ele>1434.0</ele>
        <time>2015-03-15T13:49:52Z</time>
      </trkpt>
      <trkpt lat="40.255867" lon="-4.917700">
        <ele>1435.0</ele>
        <time>2015-03-15T13:49:53Z</time>
      </trkpt>
      <trkpt lat="40.255967" lon="-4.917817">
        <ele>1437.0</ele>
        <time>2015-03-15T13:49:54Z</time>
      </trkpt>
      <trkpt lat="40.256033" lon="-4.917950">
        <ele>1440.0</ele>
        <time>2015-03-15T13:49:55Z</time>
      </trkpt>
      <trkpt lat="40.256067" lon="-4.918083">
        <ele>1443.0</ele>
        <time>2015-03-15T13:49:56Z</time>
      </trkpt>
      <trkpt lat="40.256083" lon="-4.918217">
        <ele>1445.0</ele>
        <time>2015-03-15T13:49:57Z</time>
      </trkpt>
      <trkpt lat="40.256067" lon="-4.918333">
        <ele>1448.0</ele>
        <time>2015-03-15T13:49:58Z</time>
      </trkpt>
      <trkpt lat="40.256033" lon="-4.918433">
        <ele>1450.0</ele>
        <time>2015-03-15T13:49:59Z</time>
      </trkpt>
      <trkpt lat="40.256000" lon="-4.918517">
        <ele>1452.0</ele>
        <time>2015-03-15T13:50:00Z</time>
      </trkpt>
      <trkpt lat="40.255950" lon="-4.918600">
        <ele>1454.0</ele>
        <time>2015-03-15T13:50:01Z</time>
      </trkpt>
      <trkpt lat="40.255883" lon="-4.918650">
        <ele>1456.0</ele>
        <time>2015-03-15T13:50:02Z</time>
      </trkpt>
      <trkpt lat="40.255833" lon="-4.918667">
        <ele>1457.0</ele>
        <time>2015-03-15T13:50:03Z</time>
      </trkpt>
      <trkpt lat="40.255767" lon="-4.918700">
        <ele>1458.0</ele>
        <time>2015-03-15T13:50:04Z</time>
      </trkpt>
      <trkpt lat="40.255700" lon="-4.918717">
        <ele>1459.0</ele>
        <time>2015-03-15T13:50:05Z</time>
      </trkpt>
      <trkpt lat="40.255617" lon="-4.918700">
        <ele>1461.0</ele>
        <time>2015-03-15T13:50:06Z</time>
      </trkpt>
      <trkpt lat="40.255567" lon="-4.918650">
        <ele>1464.0</ele>
        <time>2015-03-15T13:50:07Z</time>
      </trkpt>
      <trkpt lat="40.255517" lon="-4.918567">
        <ele>1467.0</ele>
        <time>2015-03-15T13:50:08Z</time>
      </trkpt>
      <trkpt lat="40.255500" lon="-4.918467">
        <ele>1471.0</ele>
        <time>2015-03-15T13:50:09Z</time>
      </trkpt>
      <trkpt lat="40.255517" lon="-4.918367">
        <ele>1474.0</ele>
        <time>2015-03-15T13:50:10Z</time>
      </trkpt>
      <trkpt lat="40.255550" lon="-4.918267">
        <ele>1477.0</ele>
        <time>2015-03-15T13:50:11Z</time>
      </trkpt>
      <trkpt lat="40.255583" lon="-4.918167">
        <ele>1479.0</ele>
        <time>2015-03-15T13:50:12Z</time>
      </trkpt>
      <trkpt lat="40.255633" lon="-4.918050">
        <ele>1481.0</ele>
        <time>2015-03-15T13:50:13Z</time>
      </trkpt>
      <trkpt lat="40.255717" lon="-4.917950">
        <ele>1483.0</ele>
        <time>2015-03-15T13:50:14Z</time>
      </trkpt>
      <trkpt lat="40.255817" lon="-4.917883">
        <ele>1485.0</ele>
        <time>2015-03-15T13:50:15Z</time>
      </trkpt>
      <trkpt lat="40.255933" lon="-4.917850">
        <ele>1486.0</ele>
        <time>2015-03-15T13:50:16Z</time>
      </trkpt>
      <trkpt lat="40.256067" lon="-4.917867">
        <ele>1486.0</ele>
        <time>2015-03-15T13:50:17Z</time>
      </trkpt>
      <trkpt lat="40.256200" lon="-4.917917">
        <ele>1488.0</ele>
        <time>2015-03-15T13:50:18Z</time>
      </trkpt>
      <trkpt lat="40.256300" lon="-4.918017">
        <ele>1489.0</ele>
        <time>2015-03-15T13:50:19Z</time>
      </trkpt>
      <trkpt lat="40.256367" lon="-4.918133">
        <ele>1491.0</ele>
        <time>2015-03-15T13:50:20Z</time>
      </trkpt>
      <trkpt lat="40.256383" lon="-4.918267">
        <ele>1493.0</ele>
        <time>2015-03-15T13:50:21Z</time>
      </trkpt>
      <trkpt lat="40.256383" lon="-4.918383">
        <ele>1496.0</ele>
        <time>2015-03-15T13:50:22Z</time>
      </trkpt>
      <trkpt lat="40.256350" lon="-4.918467">
        <ele>1500.0</ele>
        <time>2015-03-15T13:50:23Z</time>
      </trkpt>
      <trkpt lat="40.256317" lon="-4.918517">
        <ele>1502.0</ele>
        <time>2015-03-15T13:50:24Z</time>
      </trkpt>
      <trkpt lat="40.256267" lon="-4.918533">
        <ele>1504.0</ele>
        <time>2015-03-15T13:50:25Z</time>
      </trkpt>
      <trkpt lat="40.256217" lon="-4.918550">
        <ele>1506.0</ele>
        <time>2015-03-15T13:50:26Z</time>
      </trkpt>
      <trkpt lat="40.256150" lon="-4.918533">
        <ele>1507.0</ele>
        <time>2015-03-15T13:50:27Z</time>
      </trkpt>
      <trkpt lat="40.256083" lon="-4.918500">
        <ele>1509.0</ele>
        <time>2015-03-15T13:50:28Z</time>
      </trkpt>
      <trkpt lat="40.256033" lon="-4.918433">
        <ele>1512.0</ele>
        <time>2015-03-15T13:50:29Z</time>
      </trkpt>
      <trkpt lat="40.256000" lon="-4.918333">
        <ele>1514.0</ele>
        <time>2015-03-15T13:50:30Z</time>
      </trkpt>
      <trkpt lat="40.256017" lon="-4.918217">
        <ele>1516.0</ele>
        <time>2015-03-15T13:50:31Z</time>
      </trkpt>
      <trkpt lat="40.256033" lon="-4.918083">
        <ele>1519.0</ele>
        <time>2015-03-15T13:50:32Z</time>
      </trkpt>
      <trkpt lat="40.256083" lon="-4.917950">
        <ele>1522.0</ele>
        <time>2015-03-15T13:50:33Z</time>
      </trkpt>
      <trkpt lat="40.256150" lon="-4.917833">
        <ele>1525.0</ele>
        <time>2015-03-15T13:50:34Z</time>
      </trkpt>
      <trkpt lat="40.256217" lon="-4.917733">
        <ele>1528.0</ele>
        <time>2015-03-15T13:50:35Z</time>
      </trkpt>
      <trkpt lat="40.256317" lon="-4.917650">
        <ele>1530.0</ele>
        <time>2015-03-15T13:50:36Z</time>
      </trkpt>
      <trkpt lat="40.256417" lon="-4.917617">
        <ele>1531.0</ele>
        <time>2015-03-15T13:50:37Z</time>
      </trkpt>
      <trkpt lat="40.256550" lon="-4.917600">
        <ele>1531.0</ele>
        <time>2015-03-15T13:50:38Z</time>
      </trkpt>
      <trkpt lat="40.256700" lon="-4.917617">
        <ele>1533.0</ele>
        <time>2015-03-15T13:50:39Z</time>
      </trkpt>
      <trkpt lat="40.256833" lon="-4.917650">
        <ele>1535.0</ele>
        <time>2015-03-15T13:50:40Z</time>
      </trkpt>
      <trkpt lat="40.256950" lon="-4.917700">
        <ele>1539.0</ele>
        <time>2015-03-15T13:50:41Z</time>
      </trkpt>
      <trkpt lat="40.257033" lon="-4.917767">
        <ele>1541.0</ele>
        <time>2015-03-15T13:50:42Z</time>
      </trkpt>
      <trkpt lat="40.257133" lon="-4.917867">
        <ele>1543.0</ele>
        <time>2015-03-15T13:50:43Z</time>
      </trkpt>
      <trkpt lat="40.257200" lon="-4.917967">
        <ele>1545.0</ele>
        <time>2015-03-15T13:50:44Z</time>
      </trkpt>
      <trkpt lat="40.257283" lon="-4.918083">
        <ele>1546.0</ele>
        <time>2015-03-15T13:50:45Z</time>
      </trkpt>
      <trkpt lat="40.257333" lon="-4.918217">
        <ele>1548.0</ele>
        <time>2015-03-15T13:50:46Z</time>
      </trkpt>
      <trkpt lat="40.257367" lon="-4.918350">
        <ele>1550.0</ele>
        <time>2015-03-15T13:50:47Z</time>
      </trkpt>
      <trkpt lat="40.257367" lon="-4.918467">
        <ele>1553.0</ele>
        <time>2015-03-15T13:50:48Z</time>
      </trkpt>
      <trkpt lat="40.257350" lon="-4.918583">
        <ele>1555.0</ele>
        <time>2015-03-15T13:50:49Z</time>
      </trkpt>
      <trkpt lat="40.257300" lon="-4.918667">
        <ele>1557.0</ele>
        <time>2015-03-15T13:50:50Z</time>
      </trkpt>
      <trkpt lat="40.257250" lon="-4.918733">
        <ele>1560.0</ele>
        <time>2015-03-15T13:50:51Z</time>
      </trkpt>
      <trkpt lat="40.257183" lon="-4.918767">
        <ele>1562.0</ele>
        <time>2015-03-15T13:50:52Z</time>
      </trkpt>
      <trkpt lat="40.257117" lon="-4.918783">
        <ele>1565.0</ele>
        <time>2015-03-15T13:50:53Z</time>
      </trkpt>
      <trkpt lat="40.257050" lon="-4.918767">
        <ele>1568.0</ele>
        <time>2015-03-15T13:50:54Z</time>
      </trkpt>
      <trkpt lat="40.256983" lon="-4.918733">
        <ele>1570.0</ele>
        <time>2015-03-15T13:50:55Z</time>
      </trkpt>
      <trkpt lat="40.256950" lon="-4.918650">
        <ele>1571.0</ele>
        <time>2015-03-15T13:50:56Z</time>
      </trkpt>
      <trkpt lat="40.256933" lon="-4.918550">
        <ele>1571.0</ele>
        <time>2015-03-15T13:50:57Z</time>
      </trkpt>
      <trkpt lat="40.256917" lon="-4.918433">
        <ele>1572.0</ele>
        <time>2015-03-15T13:50:58Z</time>
      </trkpt>
      <trkpt lat="40.256933" lon="-4.918300">
        <ele>1575.0</ele>
        <time>2015-03-15T13:50:59Z</time>
      </trkpt>
      <trkpt lat="40.256983" lon="-4.918183">
        <ele>1579.0</ele>
        <time>2015-03-15T13:51:00Z</time>
      </trkpt>
      <trkpt lat="40.257067" lon="-4.918083">
        <ele>1583.0</ele>
        <time>2015-03-15T13:51:01Z</time>
      </trkpt>
      <trkpt lat="40.257150" lon="-4.918017">
        <ele>1585.0</ele>
        <time>2015-03-15T13:51:02Z</time>
      </trkpt>
      <trkpt lat="40.257250" lon="-4.917967">
        <ele>1587.0</ele>
        <time>2015-03-15T13:51:03Z</time>
      </trkpt>
      <trkpt lat="40.257367" lon="-4.917917">
        <ele>1589.0</ele>
        <time>2015-03-15T13:51:04Z</time>
      </trkpt>
      <trkpt lat="40.257500" lon="-4.917883">
        <ele>1591.0</ele>
        <time>2015-03-15T13:51:05Z</time>
      </trkpt>
      <trkpt lat="40.257617" lon="-4.917883">
        <ele>1593.0</ele>
        <time>2015-03-15T13:51:06Z</time>
      </trkpt>
      <trkpt lat="40.257733" lon="-4.917900">
        <ele>1595.0</ele>
        <time>2015-03-15T13:51:07Z</time>
      </trkpt>
      <trkpt lat="40.257850" lon="-4.917950">
        <ele>1597.0</ele>
        <time>2015-03-15T13:51:08Z</time>
      </trkpt>
      <trkpt lat="40.257967" lon="-4.918017">
        <ele>1598.0</ele>
        <time>2015-03-15T13:51:09Z</time>
      </trkpt>
      <trkpt lat="40.258050" lon="-4.918117">
        <ele>1600.0</ele>
        <time>2015-03-15T13:51:10Z</time>
      </trkpt>
      <trkpt lat="40.258133" lon="-4.918233">
        <ele>1602.0</ele>
        <time>2015-03-15T13:51:11Z</time>
      </trkpt>
      <trkpt lat="40.258167" lon="-4.918367">
        <ele>1604.0</ele>
        <time>2015-03-15T13:51:12Z</time>
      </trkpt>
      <trkpt lat="40.258183" lon="-4.918483">
        <ele>1606.0</ele>
        <time>2015-03-15T13:51:13Z</time>
      </trkpt>
      <trkpt lat="40.258183" lon="-4.918600">
        <ele>1609.0</ele>
        <time>2015-03-15T13:51:14Z</time>
      </trkpt>
      <trkpt lat="40.258167" lon="-4.918700">
        <ele>1611.0</ele>
        <time>2015-03-15T13:51:15Z</time>
      </trkpt>
      <trkpt lat="40.258133" lon="-4.918783">
        <ele>1614.0</ele>
        <time>2015-03-15T13:51:16Z</time>
      </trkpt>
      <trkpt lat="40.258083" lon="-4.918850">
        <ele>1616.0</ele>
        <time>2015-03-15T13:51:17Z</time>
      </trkpt>
      <trkpt lat="40.258033" lon="-4.918900">
        <ele>1618.0</ele>
        <time>2015-03-15T13:51:18Z</time>
      </trkpt>
      <trkpt lat="40.257967" lon="-4.918900">
        <ele>1620.0</ele>
        <time>2015-03-15T13:51:19Z</time>
      </trkpt>
      <trkpt lat="40.257883" lon="-4.918883">
        <ele>1623.0</ele>
        <time>2015-03-15T13:51:20Z</time>
      </trkpt>
      <trkpt lat="40.257817" lon="-4.918850">
        <ele>1626.0</ele>
        <time>2015-03-15T13:51:21Z</time>
      </trkpt>
      <trkpt lat="40.257783" lon="-4.918783">
        <ele>1630.0</ele>
        <time>2015-03-15T13:51:22Z</time>
      </trkpt>
      <trkpt lat="40.257767" lon="-4.918700">
        <ele>1632.0</ele>
        <time>2015-03-15T13:51:23Z</time>
      </trkpt>
      <trkpt lat="40.257750" lon="-4.918600">
        <ele>1634.0</ele>
        <time>2015-03-15T13:51:24Z</time>
      </trkpt>
      <trkpt lat="40.257750" lon="-4.918483">
        <ele>1635.0</ele>
        <time>2015-03-15T13:51:25Z</time>
      </trkpt>
      <trkpt lat="40.257767" lon="-4.918383">
        <ele>1638.0</ele>
        <time>2015-03-15T13:51:26Z</time>
      </trkpt>
      <trkpt lat="40.257783" lon="-4.918250">
        <ele>1640.0</ele>
        <time>2015-03-15T13:51:27Z</time>
      </trkpt>
      <trkpt lat="40.257850" lon="-4.918133">
        <ele>1642.0</ele>
        <time>2015-03-15T13:51:28Z</time>
      </trkpt>
      <trkpt lat="40.257933" lon="-4.918017">
        <ele>1644.0</ele>
        <time>2015-03-15T13:51:29Z</time>
      </trkpt>
      <trkpt lat="40.258033" lon="-4.917933">
        <ele>1646.0</ele>
        <time>2015-03-15T13:51:30Z</time>
      </trkpt>
      <trkpt lat="40.258150" lon="-4.917867">
        <ele>1648.0</ele>
        <time>2015-03-15T13:51:31Z</time>
      </trkpt>
      <trkpt lat="40.258283" lon="-4.917833">
        <ele>1650.0</ele>
        <time>2015-03-15T13:51:32Z</time>
      </trkpt>
      <trkpt lat="40.258400" lon="-4.917800">
        <ele>1651.0</ele>
        <time>2015-03-15T13:51:33Z</time>
      </trkpt>
      <trkpt lat="40.258533" lon="-4.917800">
        <ele>1653.0</ele>
        <time>2015-03-15T13:51:34Z</time>
      </trkpt>
      <trkpt lat="40.258650" lon="-4.917833">
        <ele>1655.0</ele>
        <time>2015-03-15T13:51:35Z</time>
      </trkpt>
      <trkpt lat="40.258767" lon="-4.917900">
        <ele>1656.0</ele>
        <time>2015-03-15T13:51:36Z</time>
      </trkpt>
      <trkpt lat="40.258850" lon="-4.918000">
        <ele>1657.0</ele>
        <time>2015-03-15T13:51:37Z</time>
      </trkpt>
      <trkpt lat="40.258900" lon="-4.918117">
        <ele>1659.0</ele>
        <time>2015-03-15T13:51:38Z</time>
      </trkpt>
      <trkpt lat="40.258950" lon="-4.918233">
        <ele>1660.0</ele>
        <time>2015-03-15T13:51:39Z</time>
      </trkpt>
      <trkpt lat="40.258983" lon="-4.918350">
        <ele>1663.0</ele>
        <time>2015-03-15T13:51:40Z</time>
      </trkpt>
      <trkpt lat="40.259000" lon="-4.918450">
        <ele>1666.0</ele>
        <time>2015-03-15T13:51:41Z</time>
      </trkpt>
      <trkpt lat="40.259000" lon="-4.918550">
        <ele>1670.0</ele>
        <time>2015-03-15T13:51:42Z</time>
      </trkpt>
      <trkpt lat="40.258983" lon="-4.918633">
        <ele>1674.0</ele>
        <time>2015-03-15T13:51:43Z</time>
      </trkpt>
      <trkpt lat="40.258950" lon="-4.918700">
        <ele>1676.0</ele>
        <time>2015-03-15T13:51:44Z</time>
      </trkpt>
      <trkpt lat="40.258900" lon="-4.918750">
        <ele>1678.0</ele>
        <time>2015-03-15T13:51:45Z</time>
      </trkpt>
      <trkpt lat="40.258850" lon="-4.918783">
        <ele>1680.0</ele>
        <time>2015-03-15T13:51:46Z</time>
      </trkpt>
      <trkpt lat="40.258783" lon="-4.918817">
        <ele>1683.0</ele>
        <time>2015-03-15T13:51:47Z</time>
      </trkpt>
      <trkpt lat="40.258717" lon="-4.918833">
        <ele>1685.0</ele>
        <time>2015-03-15T13:51:48Z</time>
      </trkpt>
      <trkpt lat="40.258650" lon="-4.918817">
        <ele>1689.0</ele>
        <time>2015-03-15T13:51:49Z</time>
      </trkpt>
      <trkpt lat="40.258600" lon="-4.918767">
        <ele>1692.0</ele>
        <time>2015-03-15T13:51:50Z</time>
      </trkpt>
      <trkpt lat="40.258583" lon="-4.918683">
        <ele>1694.0</ele>
        <time>2015-03-15T13:51:51Z</time>
      </trkpt>
      <trkpt lat="40.258567" lon="-4.918583">
        <ele>1697.0</ele>
        <time>2015-03-15T13:51:52Z</time>
      </trkpt>
      <trkpt lat="40.258567" lon="-4.918500">
        <ele>1700.0</ele>
        <time>2015-03-15T13:51:53Z</time>
      </trkpt>
      <trkpt lat="40.258567" lon="-4.918433">
        <ele>1704.0</ele>
        <time>2015-03-15T13:51:54Z</time>
      </trkpt>
      <trkpt lat="40.258583" lon="-4.918350">
        <ele>1707.0</ele>
        <time>2015-03-15T13:51:55Z</time>
      </trkpt>
      <trkpt lat="40.258617" lon="-4.918267">
        <ele>1710.0</ele>
        <time>2015-03-15T13:51:56Z</time>
      </trkpt>
      <trkpt lat="40.258683" lon="-4.918167">
        <ele>1711.0</ele>
        <time>2015-03-15T13:51:57Z</time>
      </trkpt>
      <trkpt lat="40.258783" lon="-4.918083">
        <ele>1713.0</ele>
        <time>2015-03-15T13:51:58Z</time>
      </trkpt>
      <trkpt lat="40.258883" lon="-4.918017">
        <ele>1716.0</ele>
        <time>2015-03-15T13:51:59Z</time>
      </trkpt>
      <trkpt lat="40.258983" lon="-4.917983">
        <ele>1718.0</ele>
        <time>2015-03-15T13:52:00Z</time>
      </trkpt>
      <trkpt lat="40.259100" lon="-4.917983">
        <ele>1719.0</ele>
        <time>2015-03-15T13:52:01Z</time>
      </trkpt>
      <trkpt lat="40.259217" lon="-4.918000">
        <ele>1719.0</ele>
        <time>2015-03-15T13:52:02Z</time>
      </trkpt>
      <trkpt lat="40.259333" lon="-4.918050">
        <ele>1718.0</ele>
        <time>2015-03-15T13:52:03Z</time>
      </trkpt>
      <trkpt lat="40.259450" lon="-4.918117">
        <ele>1717.0</ele>
        <time>2015-03-15T13:52:04Z</time>
      </trkpt>
      <trkpt lat="40.259550" lon="-4.918217">
        <ele>1718.0</ele>
        <time>2015-03-15T13:52:05Z</time>
      </trkpt>
      <trkpt lat="40.259617" lon="-4.918350">
        <ele>1718.0</ele>
        <time>2015-03-15T13:52:06Z</time>
      </trkpt>
      <trkpt lat="40.259650" lon="-4.918483">
        <ele>1719.0</ele>
        <time>2015-03-15T13:52:07Z</time>
      </trkpt>
      <trkpt lat="40.259633" lon="-4.918617">
        <ele>1720.0</ele>
        <time>2015-03-15T13:52:08Z</time>
      </trkpt>
      <trkpt lat="40.259600" lon="-4.918717">
        <ele>1723.0</ele>
        <time>2015-03-15T13:52:09Z</time>
      </trkpt>
      <trkpt lat="40.259550" lon="-4.918783">
        <ele>1726.0</ele>
        <time>2015-03-15T13:52:10Z</time>
      </trkpt>
      <trkpt lat="40.259500" lon="-4.918817">
        <ele>1729.0</ele>
        <time>2015-03-15T13:52:11Z</time>
      </trkpt>
      <trkpt lat="40.259433" lon="-4.918817">
        <ele>1732.0</ele>
        <time>2015-03-15T13:52:12Z</time>
      </trkpt>
      <trkpt lat="40.259367" lon="-4.918800">
        <ele>1734.0</ele>
        <time>2015-03-15T13:52:13Z</time>
      </trkpt>
      <trkpt lat="40.259317" lon="-4.918750">
        <ele>1737.0</ele>
        <time>2015-03-15T13:52:14Z</time>
      </trkpt>
      <trkpt lat="40.259267" lon="-4.918700">
        <ele>1740.0</ele>
        <time>2015-03-15T13:52:15Z</time>
      </trkpt>
      <trkpt lat="40.259217" lon="-4.918633">
        <ele>1743.0</ele>
        <time>2015-03-15T13:52:16Z</time>
      </trkpt>
      <trkpt lat="40.259200" lon="-4.918550">
        <ele>1745.0</ele>
        <time>2015-03-15T13:52:17Z</time>
      </trkpt>
      <trkpt lat="40.259167" lon="-4.918450">
        <ele>1747.0</ele>
        <time>2015-03-15T13:52:18Z</time>
      </trkpt>
      <trkpt lat="40.259167" lon="-4.918333">
        <ele>1749.0</ele>
        <time>2015-03-15T13:52:19Z</time>
      </trkpt>
      <trkpt lat="40.259150" lon="-4.918217">
        <ele>1752.0</ele>
        <time>2015-03-15T13:52:20Z</time>
      </trkpt>
      <trkpt lat="40.259150" lon="-4.918083">
        <ele>1756.0</ele>
        <time>2015-03-15T13:52:21Z</time>
      </trkpt>
      <trkpt lat="40.259133" lon="-4.918000">
        <ele>1760.0</ele>
        <time>2015-03-15T13:52:22Z</time>
      </trkpt>
      <trkpt lat="40.259117" lon="-4.917917">
        <ele>1764.0</ele>
        <time>2015-03-15T13:52:23Z</time>
      </trkpt>
      <trkpt lat="40.259100" lon="-4.917833">
        <ele>1768.0</ele>
        <time>2015-03-15T13:52:24Z</time>
      </trkpt>
      <trkpt lat="40.259083" lon="-4.917750">
        <ele>1770.0</ele>
        <time>2015-03-15T13:52:25Z</time>
      </trkpt>
      <trkpt lat="40.259083" lon="-4.917650">
        <ele>1773.0</ele>
        <time>2015-03-15T13:52:26Z</time>
      </trkpt>
      <trkpt lat="40.259100" lon="-4.917533">
        <ele>1775.0</ele>
        <time>2015-03-15T13:52:27Z</time>
      </trkpt>
      <trkpt lat="40.259133" lon="-4.917417">
        <ele>1778.0</ele>
        <time>2015-03-15T13:52:28Z</time>
      </trkpt>
      <trkpt lat="40.259200" lon="-4.917283">
        <ele>1780.0</ele>
        <time>2015-03-15T13:52:29Z</time>
      </trkpt>
      <trkpt lat="40.259283" lon="-4.917183">
        <ele>1783.0</ele>
        <time>2015-03-15T13:52:30Z</time>
      </trkpt>
      <trkpt lat="40.259367" lon="-4.917117">
        <ele>1786.0</ele>
        <time>2015-03-15T13:52:31Z</time>
      </trkpt>
      <trkpt lat="40.259467" lon="-4.917083">
        <ele>1787.0</ele>
        <time>2015-03-15T13:52:32Z</time>
      </trkpt>
      <trkpt lat="40.259550" lon="-4.917083">
        <ele>1787.0</ele>
        <time>2015-03-15T13:52:33Z</time>
      </trkpt>
      <trkpt lat="40.259667" lon="-4.917117">
        <ele>1787.0</ele>
        <time>2015-03-15T13:52:34Z</time>
      </trkpt>
      <trkpt lat="40.259783" lon="-4.917167">
        <ele>1787.0</ele>
        <time>2015-03-15T13:52:35Z</time>
      </trkpt>
      <trkpt lat="40.259883" lon="-4.917250">
        <ele>1787.0</ele>
        <time>2015-03-15T13:52:36Z</time>
      </trkpt>
      <trkpt lat="40.259967" lon="-4.917350">
        <ele>1789.0</ele>
        <time>2015-03-15T13:52:37Z</time>
      </trkpt>
      <trkpt lat="40.260033" lon="-4.917467">
        <ele>1790.0</ele>
        <time>2015-03-15T13:52:38Z</time>
      </trkpt>
      <trkpt lat="40.260083" lon="-4.917583">
        <ele>1791.0</ele>
        <time>2015-03-15T13:52:39Z</time>
      </trkpt>
      <trkpt lat="40.260117" lon="-4.917700">
        <ele>1791.0</ele>
        <time>2015-03-15T13:52:40Z</time>
      </trkpt>
      <trkpt lat="40.260133" lon="-4.917833">
        <ele>1793.0</ele>
        <time>2015-03-15T13:52:41Z</time>
      </trkpt>
      <trkpt lat="40.260150" lon="-4.917950">
        <ele>1795.0</ele>
        <time>2015-03-15T13:52:42Z</time>
      </trkpt>
      <trkpt lat="40.260150" lon="-4.918083">
        <ele>1797.0</ele>
        <time>2015-03-15T13:52:43Z</time>
      </trkpt>
      <trkpt lat="40.260150" lon="-4.918183">
        <ele>1799.0</ele>
        <time>2015-03-15T13:52:44Z</time>
      </trkpt>
      <trkpt lat="40.260117" lon="-4.918283">
        <ele>1802.0</ele>
        <time>2015-03-15T13:52:45Z</time>
      </trkpt>
      <trkpt lat="40.260083" lon="-4.918367">
        <ele>1806.0</ele>
        <time>2015-03-15T13:52:46Z</time>
      </trkpt>
      <trkpt lat="40.260033" lon="-4.918417">
        <ele>1810.0</ele>
        <time>2015-03-15T13:52:47Z</time>
      </trkpt>
      <trkpt lat="40.259983" lon="-4.918450">
        <ele>1813.0</ele>
        <time>2015-03-15T13:52:48Z</time>
      </trkpt>
      <trkpt lat="40.259917" lon="-4.918433">
        <ele>1816.0</ele>
        <time>2015-03-15T13:52:49Z</time>
      </trkpt>
      <trkpt lat="40.259867" lon="-4.918400">
        <ele>1818.0</ele>
        <time>2015-03-15T13:52:50Z</time>
      </trkpt>
      <trkpt lat="40.259817" lon="-4.918367">
        <ele>1821.0</ele>
        <time>2015-03-15T13:52:51Z</time>
      </trkpt>
      <trkpt lat="40.259767" lon="-4.918300">
        <ele>1824.0</ele>
        <time>2015-03-15T13:52:52Z</time>
      </trkpt>
      <trkpt lat="40.259750" lon="-4.918217">
        <ele>1827.0</ele>
        <time>2015-03-15T13:52:53Z</time>
      </trkpt>
      <trkpt lat="40.259717" lon="-4.918117">
        <ele>1829.0</ele>
        <time>2015-03-15T13:52:54Z</time>
      </trkpt>
      <trkpt lat="40.259717" lon="-4.918000">
        <ele>1832.0</ele>
        <time>2015-03-15T13:52:55Z</time>
      </trkpt>
      <trkpt lat="40.259733" lon="-4.917867">
        <ele>1834.0</ele>
        <time>2015-03-15T13:52:56Z</time>
      </trkpt>
      <trkpt lat="40.259767" lon="-4.917750">
        <ele>1837.0</ele>
        <time>2015-03-15T13:52:57Z</time>
      </trkpt>
      <trkpt lat="40.259817" lon="-4.917617">
        <ele>1839.0</ele>
        <time>2015-03-15T13:52:58Z</time>
      </trkpt>
      <trkpt lat="40.259883" lon="-4.917500">
        <ele>1842.0</ele>
        <time>2015-03-15T13:52:59Z</time>
      </trkpt>
      <trkpt lat="40.259950" lon="-4.917400">
        <ele>1844.0</ele>
        <time>2015-03-15T13:53:00Z</time>
      </trkpt>
      <trkpt lat="40.260033" lon="-4.917317">
        <ele>1847.0</ele>
        <time>2015-03-15T13:53:01Z</time>
      </trkpt>
      <trkpt lat="40.260133" lon="-4.917267">
        <ele>1848.0</ele>
        <time>2015-03-15T13:53:02Z</time>
      </trkpt>
      <trkpt lat="40.260233" lon="-4.917233">
        <ele>1849.0</ele>
        <time>2015-03-15T13:53:03Z</time>
      </trkpt>
      <trkpt lat="40.260350" lon="-4.917233">
        <ele>1849.0</ele>
        <time>2015-03-15T13:53:04Z</time>
      </trkpt>
      <trkpt lat="40.260467" lon="-4.917250">
        <ele>1850.0</ele>
        <time>2015-03-15T13:53:05Z</time>
      </trkpt>
      <trkpt lat="40.260567" lon="-4.917317">
        <ele>1851.0</ele>
        <time>2015-03-15T13:53:06Z</time>
      </trkpt>
      <trkpt lat="40.260667" lon="-4.917400">
        <ele>1852.0</ele>
        <time>2015-03-15T13:53:07Z</time>
      </trkpt>
      <trkpt lat="40.260767" lon="-4.917500">
        <ele>1854.0</ele>
        <time>2015-03-15T13:53:08Z</time>
      </trkpt>
      <trkpt lat="40.260850" lon="-4.917583">
        <ele>1856.0</ele>
        <time>2015-03-15T13:53:09Z</time>
      </trkpt>
      <trkpt lat="40.260933" lon="-4.917700">
        <ele>1858.0</ele>
        <time>2015-03-15T13:53:10Z</time>
      </trkpt>
      <trkpt lat="40.260983" lon="-4.917800">
        <ele>1859.0</ele>
        <time>2015-03-15T13:53:11Z</time>
      </trkpt>
      <trkpt lat="40.261033" lon="-4.917933">
        <ele>1860.0</ele>
        <time>2015-03-15T13:53:12Z</time>
      </trkpt>
      <trkpt lat="40.261033" lon="-4.918050">
        <ele>1861.0</ele>
        <time>2015-03-15T13:53:13Z</time>
      </trkpt>
      <trkpt lat="40.261033" lon="-4.918183">
        <ele>1863.0</ele>
        <time>2015-03-15T13:53:14Z</time>
      </trkpt>
      <trkpt lat="40.261017" lon="-4.918317">
        <ele>1866.0</ele>
        <time>2015-03-15T13:53:15Z</time>
      </trkpt>
      <trkpt lat="40.261000" lon="-4.918417">
        <ele>1870.0</ele>
        <time>2015-03-15T13:53:16Z</time>
      </trkpt>
      <trkpt lat="40.260983" lon="-4.918500">
        <ele>1873.0</ele>
        <time>2015-03-15T13:53:17Z</time>
      </trkpt>
      <trkpt lat="40.260950" lon="-4.918567">
        <ele>1874.0</ele>
        <time>2015-03-15T13:53:18Z</time>
      </trkpt>
      <trkpt lat="40.260917" lon="-4.918617">
        <ele>1874.0</ele>
        <time>2015-03-15T13:53:19Z</time>
      </trkpt>
      <trkpt lat="40.260850" lon="-4.918667">
        <ele>1875.0</ele>
        <time>2015-03-15T13:53:20Z</time>
      </trkpt>
      <trkpt lat="40.260783" lon="-4.918700">
        <ele>1876.0</ele>
        <time>2015-03-15T13:53:21Z</time>
      </trkpt>
      <trkpt lat="40.260733" lon="-4.918700">
        <ele>1877.0</ele>
        <time>2015-03-15T13:53:22Z</time>
      </trkpt>
      <trkpt lat="40.260667" lon="-4.918650">
        <ele>1877.0</ele>
        <time>2015-03-15T13:53:23Z</time>
      </trkpt>
      <trkpt lat="40.260617" lon="-4.918567">
        <ele>1877.0</ele>
        <time>2015-03-15T13:53:24Z</time>
      </trkpt>
      <trkpt lat="40.260583" lon="-4.918450">
        <ele>1879.0</ele>
        <time>2015-03-15T13:53:25Z</time>
      </trkpt>
      <trkpt lat="40.260567" lon="-4.918350">
        <ele>1881.0</ele>
        <time>2015-03-15T13:53:26Z</time>
      </trkpt>
      <trkpt lat="40.260550" lon="-4.918250">
        <ele>1885.0</ele>
        <time>2015-03-15T13:53:27Z</time>
      </trkpt>
      <trkpt lat="40.260533" lon="-4.918150">
        <ele>1889.0</ele>
        <time>2015-03-15T13:53:28Z</time>
      </trkpt>
      <trkpt lat="40.260533" lon="-4.918050">
        <ele>1892.0</ele>
        <time>2015-03-15T13:53:29Z</time>
      </trkpt>
      <trkpt lat="40.260533" lon="-4.917967">
        <ele>1895.0</ele>
        <time>2015-03-15T13:53:30Z</time>
      </trkpt>
      <trkpt lat="40.260550" lon="-4.917850">
        <ele>1897.0</ele>
        <time>2015-03-15T13:53:31Z</time>
      </trkpt>
      <trkpt lat="40.260583" lon="-4.917733">
        <ele>1898.0</ele>
        <time>2015-03-15T13:53:32Z</time>
      </trkpt>
      <trkpt lat="40.260650" lon="-4.917600">
        <ele>1901.0</ele>
        <time>2015-03-15T13:53:33Z</time>
      </trkpt>
      <trkpt lat="40.260717" lon="-4.917483">
        <ele>1904.0</ele>
        <time>2015-03-15T13:53:34Z</time>
      </trkpt>
      <trkpt lat="40.260800" lon="-4.917400">
        <ele>1907.0</ele>
        <time>2015-03-15T13:53:35Z</time>
      </trkpt>
      <trkpt lat="40.260900" lon="-4.917333">
        <ele>1909.0</ele>
        <time>2015-03-15T13:53:36Z</time>
      </trkpt>
      <trkpt lat="40.261000" lon="-4.917283">
        <ele>1911.0</ele>
        <time>2015-03-15T13:53:37Z</time>
      </trkpt>
      <trkpt lat="40.261083" lon="-4.917283">
        <ele>1912.0</ele>
        <time>2015-03-15T13:53:38Z</time>
      </trkpt>
      <trkpt lat="40.261183" lon="-4.917317">
        <ele>1912.0</ele>
        <time>2015-03-15T13:53:39Z</time>
      </trkpt>
      <trkpt lat="40.261283" lon="-4.917367">
        <ele>1912.0</ele>
        <time>2015-03-15T13:53:40Z</time>
      </trkpt>
      <trkpt lat="40.261400" lon="-4.917450">
        <ele>1911.0</ele>
        <time>2015-03-15T13:53:41Z</time>
      </trkpt>
      <trkpt lat="40.261483" lon="-4.917550">
        <ele>1912.0</ele>
        <time>2015-03-15T13:53:42Z</time>
      </trkpt>
      <trkpt lat="40.261550" lon="-4.917667">
        <ele>1913.0</ele>
        <time>2015-03-15T13:53:43Z</time>
      </trkpt>
      <trkpt lat="40.261583" lon="-4.917800">
        <ele>1915.0</ele>
        <time>2015-03-15T13:53:44Z</time>
      </trkpt>
      <trkpt lat="40.261617" lon="-4.917933">
        <ele>1917.0</ele>
        <time>2015-03-15T13:53:45Z</time>
      </trkpt>
      <trkpt lat="40.261617" lon="-4.918050">
        <ele>1920.0</ele>
        <time>2015-03-15T13:53:46Z</time>
      </trkpt>
      <trkpt lat="40.261617" lon="-4.918150">
        <ele>1922.0</ele>
        <time>2015-03-15T13:53:47Z</time>
      </trkpt>
      <trkpt lat="40.261600" lon="-4.918250">
        <ele>1924.0</ele>
        <time>2015-03-15T13:53:48Z</time>
      </trkpt>
      <trkpt lat="40.261567" lon="-4.918333">
        <ele>1926.0</ele>
        <time>2015-03-15T13:53:49Z</time>
      </trkpt>
      <trkpt lat="40.261500" lon="-4.918400">
        <ele>1928.0</ele>
        <time>2015-03-15T13:53:50Z</time>
      </trkpt>
      <trkpt lat="40.261433" lon="-4.918450">
        <ele>1931.0</ele>
        <time>2015-03-15T13:53:51Z</time>
      </trkpt>
      <trkpt lat="40.261367" lon="-4.918483">
        <ele>1934.0</ele>
        <time>2015-03-15T13:53:52Z</time>
      </trkpt>
      <trkpt lat="40.261300" lon="-4.918483">
        <ele>1936.0</ele>
        <time>2015-03-15T13:53:53Z</time>
      </trkpt>
      <trkpt lat="40.261233" lon="-4.918467">
        <ele>1938.0</ele>
        <time>2015-03-15T13:53:54Z</time>
      </trkpt>
      <trkpt lat="40.261167" lon="-4.918417">
        <ele>1939.0</ele>
        <time>2015-03-15T13:53:55Z</time>
      </trkpt>
      <trkpt lat="40.261117" lon="-4.918350">
        <ele>1940.0</ele>
        <time>2015-03-15T13:53:56Z</time>
      </trkpt>
      <trkpt lat="40.261067" lon="-4.918267">
        <ele>1942.0</ele>
        <time>2015-03-15T13:53:57Z</time>
      </trkpt>
      <trkpt lat="40.261033" lon="-4.918150">
        <ele>1943.0</ele>
        <time>2015-03-15T13:53:58Z</time>
      </trkpt>
      <trkpt lat="40.261000" lon="-4.918050">
        <ele>1946.0</ele>
        <time>2015-03-15T13:53:59Z</time>
      </trkpt>
      <trkpt lat="40.260983" lon="-4.917933">
        <ele>1948.0</ele>
        <time>2015-03-15T13:54:00Z</time>
      </trkpt>
      <trkpt lat="40.260983" lon="-4.917833">
        <ele>1949.0</ele>
        <time>2015-03-15T13:54:01Z</time>
      </trkpt>
      <trkpt lat="40.261017" lon="-4.917700">
        <ele>1951.0</ele>
        <time>2015-03-15T13:54:02Z</time>
      </trkpt>
      <trkpt lat="40.261067" lon="-4.917567">
        <ele>1951.0</ele>
        <time>2015-03-15T13:54:03Z</time>
      </trkpt>
      <trkpt lat="40.261117" lon="-4.917450">
        <ele>1951.0</ele>
        <time>2015-03-15T13:54:04Z</time>
      </trkpt>
      <trkpt lat="40.261183" lon="-4.917300">
        <ele>1952.0</ele>
        <time>2015-03-15T13:54:05Z</time>
      </trkpt>
      <trkpt lat="40.261250" lon="-4.917183">
        <ele>1955.0</ele>
        <time>2015-03-15T13:54:06Z</time>
      </trkpt>
      <trkpt lat="40.261333" lon="-4.917083">
        <ele>1959.0</ele>
        <time>2015-03-15T13:54:07Z</time>
      </trkpt>
      <trkpt lat="40.261417" lon="-4.917033">
        <ele>1961.0</ele>
        <time>2015-03-15T13:54:08Z</time>
      </trkpt>
      <trkpt lat="40.261483" lon="-4.916983">
        <ele>1962.0</ele>
        <time>2015-03-15T13:54:09Z</time>
      </trkpt>
      <trkpt lat="40.261583" lon="-4.916950">
        <ele>1962.0</ele>
        <time>2015-03-15T13:54:10Z</time>
      </trkpt>
      <trkpt lat="40.261667" lon="-4.916917">
        <ele>1961.0</ele>
        <time>2015-03-15T13:54:11Z</time>
      </trkpt>
      <trkpt lat="40.261783" lon="-4.916867">
        <ele>1960.0</ele>
        <time>2015-03-15T13:54:12Z</time>
      </trkpt>
      <trkpt lat="40.261917" lon="-4.916850">
        <ele>1960.0</ele>
        <time>2015-03-15T13:54:13Z</time>
      </trkpt>
      <trkpt lat="40.262050" lon="-4.916867">
        <ele>1961.0</ele>
        <time>2015-03-15T13:54:14Z</time>
      </trkpt>
      <trkpt lat="40.262167" lon="-4.916933">
        <ele>1963.0</ele>
        <time>2015-03-15T13:54:15Z</time>
      </trkpt>
      <trkpt lat="40.262250" lon="-4.917033">
        <ele>1965.0</ele>
        <time>2015-03-15T13:54:16Z</time>
      </trkpt>
      <trkpt lat="40.262317" lon="-4.917133">
        <ele>1968.0</ele>
        <time>2015-03-15T13:54:17Z</time>
      </trkpt>
      <trkpt lat="40.262367" lon="-4.917250">
        <ele>1970.0</ele>
        <time>2015-03-15T13:54:18Z</time>
      </trkpt>
      <trkpt lat="40.262400" lon="-4.917333">
        <ele>1972.0</ele>
        <time>2015-03-15T13:54:19Z</time>
      </trkpt>
      <trkpt lat="40.262417" lon="-4.917450">
        <ele>1973.0</ele>
        <time>2015-03-15T13:54:20Z</time>
      </trkpt>
      <trkpt lat="40.262417" lon="-4.917550">
        <ele>1972.0</ele>
        <time>2015-03-15T13:54:21Z</time>
      </trkpt>
      <trkpt lat="40.262400" lon="-4.917667">
        <ele>1972.0</ele>
        <time>2015-03-15T13:54:22Z</time>
      </trkpt>
      <trkpt lat="40.262367" lon="-4.917750">
        <ele>1972.0</ele>
        <time>2015-03-15T13:54:23Z</time>
      </trkpt>
      <trkpt lat="40.262300" lon="-4.917800">
        <ele>1971.0</ele>
        <time>2015-03-15T13:54:24Z</time>
      </trkpt>
      <trkpt lat="40.262217" lon="-4.917800">
        <ele>1973.0</ele>
        <time>2015-03-15T13:54:25Z</time>
      </trkpt>
      <trkpt lat="40.262150" lon="-4.917800">
        <ele>1977.0</ele>
        <time>2015-03-15T13:54:26Z</time>
      </trkpt>
      <trkpt lat="40.262083" lon="-4.917800">
        <ele>1981.0</ele>
        <time>2015-03-15T13:54:27Z</time>
      </trkpt>
      <trkpt lat="40.262033" lon="-4.917783">
        <ele>1985.0</ele>
        <time>2015-03-15T13:54:28Z</time>
      </trkpt>
      <trkpt lat="40.261983" lon="-4.917767">
        <ele>1987.0</ele>
        <time>2015-03-15T13:54:29Z</time>
      </trkpt>
      <trkpt lat="40.261933" lon="-4.917750">
        <ele>1988.0</ele>
        <time>2015-03-15T13:54:30Z</time>
      </trkpt>
      <trkpt lat="40.261883" lon="-4.917717">
        <ele>1990.0</ele>
        <time>2015-03-15T13:54:31Z</time>
      </trkpt>
      <trkpt lat="40.261833" lon="-4.917700">
        <ele>1991.0</ele>
        <time>2015-03-15T13:54:32Z</time>
      </trkpt>
      <trkpt lat="40.261767" lon="-4.917667">
        <ele>1993.0</ele>
        <time>2015-03-15T13:54:33Z</time>
      </trkpt>
      <trkpt lat="40.261717" lon="-4.917617">
        <ele>1994.0</ele>
        <time>2015-03-15T13:54:34Z</time>
      </trkpt>
      <trkpt lat="40.261667" lon="-4.917533">
        <ele>1997.0</ele>
        <time>2015-03-15T13:54:35Z</time>
      </trkpt>
      <trkpt lat="40.261617" lon="-4.917433">
        <ele>1999.0</ele>
        <time>2015-03-15T13:54:36Z</time>
      </trkpt>
      <trkpt lat="40.261583" lon="-4.917317">
        <ele>2002.0</ele>
        <time>2015-03-15T13:54:37Z</time>
      </trkpt>
      <trkpt lat="40.261550" lon="-4.917217">
        <ele>2006.0</ele>
        <time>2015-03-15T13:54:38Z</time>
      </trkpt>
      <trkpt lat="40.261517" lon="-4.917133">
        <ele>2008.0</ele>
        <time>2015-03-15T13:54:39Z</time>
      </trkpt>
      <trkpt lat="40.261467" lon="-4.917050">
        <ele>2010.0</ele>
        <time>2015-03-15T13:54:40Z</time>
      </trkpt>
      <trkpt lat="40.261433" lon="-4.916983">
        <ele>2012.0</ele>
        <time>2015-03-15T13:54:41Z</time>
      </trkpt>
      <trkpt lat="40.261383" lon="-4.916917">
        <ele>2013.0</ele>
        <time>2015-03-15T13:54:42Z</time>
      </trkpt>
      <trkpt lat="40.261350" lon="-4.916850">
        <ele>2014.0</ele>
        <time>2015-03-15T13:54:43Z</time>
      </trkpt>
      <trkpt lat="40.261317" lon="-4.916750">
        <ele>2015.0</ele>
        <time>2015-03-15T13:54:44Z</time>
      </trkpt>
      <trkpt lat="40.261300" lon="-4.916650">
        <ele>2016.0</ele>
        <time>2015-03-15T13:54:45Z</time>
      </trkpt>
      <trkpt lat="40.261317" lon="-4.916517">
        <ele>2017.0</ele>
        <time>2015-03-15T13:54:46Z</time>
      </trkpt>
      <trkpt lat="40.261350" lon="-4.916400">
        <ele>2018.0</ele>
        <time>2015-03-15T13:54:47Z</time>
      </trkpt>
      <trkpt lat="40.261400" lon="-4.916267">
        <ele>2019.0</ele>
        <time>2015-03-15T13:54:48Z</time>
      </trkpt>
      <trkpt lat="40.261467" lon="-4.916150">
        <ele>2020.0</ele>
        <time>2015-03-15T13:54:49Z</time>
      </trkpt>
      <trkpt lat="40.261533" lon="-4.916033">
        <ele>2021.0</ele>
        <time>2015-03-15T13:54:50Z</time>
      </trkpt>
      <trkpt lat="40.261633" lon="-4.915950">
        <ele>2022.0</ele>
        <time>2015-03-15T13:54:51Z</time>
      </trkpt>
      <trkpt lat="40.261733" lon="-4.915883">
        <ele>2022.0</ele>
        <time>2015-03-15T13:54:52Z</time>
      </trkpt>
      <trkpt lat="40.261850" lon="-4.915833">
        <ele>2022.0</ele>
        <time>2015-03-15T13:54:53Z</time>
      </trkpt>
      <trkpt lat="40.261967" lon="-4.915800">
        <ele>2023.0</ele>
        <time>2015-03-15T13:54:54Z</time>
      </trkpt>
      <trkpt lat="40.262067" lon="-4.915783">
        <ele>2023.0</ele>
        <time>2015-03-15T13:54:55Z</time>
      </trkpt>
      <trkpt lat="40.262183" lon="-4.915800">
        <ele>2024.0</ele>
        <time>2015-03-15T13:54:56Z</time>
      </trkpt>
      <trkpt lat="40.262267" lon="-4.915833">
        <ele>2025.0</ele>
        <time>2015-03-15T13:54:57Z</time>
      </trkpt>
      <trkpt lat="40.262350" lon="-4.915900">
        <ele>2026.0</ele>
        <time>2015-03-15T13:54:58Z</time>
      </trkpt>
      <trkpt lat="40.262417" lon="-4.915983">
        <ele>2027.0</ele>
        <time>2015-03-15T13:54:59Z</time>
      </trkpt>
      <trkpt lat="40.262467" lon="-4.916083">
        <ele>2028.0</ele>
        <time>2015-03-15T13:55:00Z</time>
      </trkpt>
      <trkpt lat="40.262500" lon="-4.916183">
        <ele>2029.0</ele>
        <time>2015-03-15T13:55:01Z</time>
      </trkpt>
      <trkpt lat="40.262500" lon="-4.916267">
        <ele>2030.0</ele>
        <time>2015-03-15T13:55:02Z</time>
      </trkpt>
      <trkpt lat="40.262517" lon="-4.916367">
        <ele>2031.0</ele>
        <time>2015-03-15T13:55:03Z</time>
      </trkpt>
      <trkpt lat="40.262500" lon="-4.916450">
        <ele>2031.0</ele>
        <time>2015-03-15T13:55:04Z</time>
      </trkpt>
      <trkpt lat="40.262467" lon="-4.916533">
        <ele>2031.0</ele>
        <time>2015-03-15T13:55:05Z</time>
      </trkpt>
      <trkpt lat="40.262417" lon="-4.916617">
        <ele>2031.0</ele>
        <time>2015-03-15T13:55:06Z</time>
      </trkpt>
      <trkpt lat="40.262350" lon="-4.916683">
        <ele>2032.0</ele>
        <time>2015-03-15T13:55:07Z</time>
      </trkpt>
      <trkpt lat="40.262300" lon="-4.916750">
        <ele>2034.0</ele>
        <time>2015-03-15T13:55:08Z</time>
      </trkpt>
      <trkpt lat="40.262250" lon="-4.916783">
        <ele>2036.0</ele>
        <time>2015-03-15T13:55:09Z</time>
      </trkpt>
      <trkpt lat="40.262200" lon="-4.916800">
        <ele>2037.0</ele>
        <time>2015-03-15T13:55:10Z</time>
      </trkpt>
      <trkpt lat="40.262150" lon="-4.916817">
        <ele>2038.0</ele>
        <time>2015-03-15T13:55:11Z</time>
      </trkpt>
      <trkpt lat="40.262083" lon="-4.916817">
        <ele>2038.0</ele>
        <time>2015-03-15T13:55:12Z</time>
      </trkpt>
      <trkpt lat="40.262000" lon="-4.916783">
        <ele>2039.0</ele>
        <time>2015-03-15T13:55:13Z</time>
      </trkpt>
      <trkpt lat="40.261917" lon="-4.916733">
        <ele>2040.0</ele>
        <time>2015-03-15T13:55:14Z</time>
      </trkpt>
      <trkpt lat="40.261850" lon="-4.916667">
        <ele>2043.0</ele>
        <time>2015-03-15T13:55:15Z</time>
      </trkpt>
      <trkpt lat="40.261800" lon="-4.916600">
        <ele>2046.0</ele>
        <time>2015-03-15T13:55:16Z</time>
      </trkpt>
      <trkpt lat="40.261750" lon="-4.916517">
        <ele>2049.0</ele>
        <time>2015-03-15T13:55:17Z</time>
      </trkpt>
      <trkpt lat="40.261700" lon="-4.916417">
        <ele>2051.0</ele>
        <time>2015-03-15T13:55:18Z</time>
      </trkpt>
      <trkpt lat="40.261667" lon="-4.916300">
        <ele>2054.0</ele>
        <time>2015-03-15T13:55:19Z</time>
      </trkpt>
      <trkpt lat="40.261633" lon="-4.916200">
        <ele>2056.0</ele>
        <time>2015-03-15T13:55:20Z</time>
      </trkpt>
      <trkpt lat="40.261617" lon="-4.916067">
        <ele>2058.0</ele>
        <time>2015-03-15T13:55:21Z</time>
      </trkpt>
      <trkpt lat="40.261600" lon="-4.915950">
        <ele>2060.0</ele>
        <time>2015-03-15T13:55:22Z</time>
      </trkpt>
      <trkpt lat="40.261600" lon="-4.915833">
        <ele>2062.0</ele>
        <time>2015-03-15T13:55:23Z</time>
      </trkpt>
      <trkpt lat="40.261617" lon="-4.915700">
        <ele>2063.0</ele>
        <time>2015-03-15T13:55:24Z</time>
      </trkpt>
      <trkpt lat="40.261650" lon="-4.915567">
        <ele>2064.0</ele>
        <time>2015-03-15T13:55:25Z</time>
      </trkpt>
      <trkpt lat="40.261683" lon="-4.915433">
        <ele>2065.0</ele>
        <time>2015-03-15T13:55:26Z</time>
      </trkpt>
      <trkpt lat="40.261717" lon="-4.915317">
        <ele>2067.0</ele>
        <time>2015-03-15T13:55:27Z</time>
      </trkpt>
      <trkpt lat="40.261783" lon="-4.915200">
        <ele>2068.0</ele>
        <time>2015-03-15T13:55:28Z</time>
      </trkpt>
      <trkpt lat="40.261850" lon="-4.915100">
        <ele>2068.0</ele>
        <time>2015-03-15T13:55:29Z</time>
      </trkpt>
      <trkpt lat="40.261917" lon="-4.915000">
        <ele>2068.0</ele>
        <time>2015-03-15T13:55:30Z</time>
      </trkpt>
      <trkpt lat="40.262000" lon="-4.914900">
        <ele>2067.0</ele>
        <time>2015-03-15T13:55:31Z</time>
      </trkpt>
      <trkpt lat="40.262067" lon="-4.914783">
        <ele>2066.0</ele>
        <time>2015-03-15T13:55:32Z</time>
      </trkpt>
      <trkpt lat="40.262133" lon="-4.914667">
        <ele>2066.0</ele>
        <time>2015-03-15T13:55:33Z</time>
      </trkpt>
      <trkpt lat="40.262200" lon="-4.914550">
        <ele>2066.0</ele>
        <time>2015-03-15T13:55:34Z</time>
      </trkpt>
      <trkpt lat="40.262283" lon="-4.914433">
        <ele>2066.0</ele>
        <time>2015-03-15T13:55:35Z</time>
      </trkpt>
      <trkpt lat="40.262383" lon="-4.914317">
        <ele>2067.0</ele>
        <time>2015-03-15T13:55:36Z</time>
      </trkpt>
      <trkpt lat="40.262467" lon="-4.914200">
        <ele>2068.0</ele>
        <time>2015-03-15T13:55:37Z</time>
      </trkpt>
      <trkpt lat="40.262533" lon="-4.914100">
        <ele>2070.0</ele>
        <time>2015-03-15T13:55:38Z</time>
      </trkpt>
      <trkpt lat="40.262600" lon="-4.913983">
        <ele>2072.0</ele>
        <time>2015-03-15T13:55:39Z</time>
      </trkpt>
      <trkpt lat="40.262667" lon="-4.913883">
        <ele>2073.0</ele>
        <time>2015-03-15T13:55:40Z</time>
      </trkpt>
      <trkpt lat="40.262750" lon="-4.913783">
        <ele>2074.0</ele>
        <time>2015-03-15T13:55:41Z</time>
      </trkpt>
      <trkpt lat="40.262817" lon="-4.913683">
        <ele>2074.0</ele>
        <time>2015-03-15T13:55:42Z</time>
      </trkpt>
      <trkpt lat="40.262883" lon="-4.913583">
        <ele>2075.0</ele>
        <time>2015-03-15T13:55:43Z</time>
      </trkpt>
      <trkpt lat="40.262950" lon="-4.913467">
        <ele>2076.0</ele>
        <time>2015-03-15T13:55:44Z</time>
      </trkpt>
      <trkpt lat="40.263000" lon="-4.913333">
        <ele>2077.0</ele>
        <time>2015-03-15T13:55:45Z</time>
      </trkpt>
      <trkpt lat="40.263067" lon="-4.913217">
        <ele>2078.0</ele>
        <time>2015-03-15T13:55:46Z</time>
      </trkpt>
      <trkpt lat="40.263133" lon="-4.913117">
        <ele>2080.0</ele>
        <time>2015-03-15T13:55:47Z</time>
      </trkpt>
      <trkpt lat="40.263167" lon="-4.913000">
        <ele>2082.0</ele>
        <time>2015-03-15T13:55:48Z</time>
      </trkpt>
      <trkpt lat="40.263200" lon="-4.912867">
        <ele>2083.0</ele>
        <time>2015-03-15T13:55:49Z</time>
      </trkpt>
      <trkpt lat="40.263217" lon="-4.912750">
        <ele>2084.0</ele>
        <time>2015-03-15T13:55:50Z</time>
      </trkpt>
      <trkpt lat="40.263233" lon="-4.912617">
        <ele>2085.0</ele>
        <time>2015-03-15T13:55:51Z</time>
      </trkpt>
      <trkpt lat="40.263217" lon="-4.912483">
        <ele>2086.0</ele>
        <time>2015-03-15T13:55:52Z</time>
      </trkpt>
      <trkpt lat="40.263183" lon="-4.912350">
        <ele>2087.0</ele>
        <time>2015-03-15T13:55:53Z</time>
      </trkpt>
      <trkpt lat="40.263133" lon="-4.912250">
        <ele>2088.0</ele>
        <time>2015-03-15T13:55:54Z</time>
      </trkpt>
      <trkpt lat="40.263083" lon="-4.912150">
        <ele>2090.0</ele>
        <time>2015-03-15T13:55:55Z</time>
      </trkpt>
      <trkpt lat="40.263017" lon="-4.912083">
        <ele>2091.0</ele>
        <time>2015-03-15T13:55:56Z</time>
      </trkpt>
      <trkpt lat="40.262933" lon="-4.912033">
        <ele>2091.0</ele>
        <time>2015-03-15T13:55:57Z</time>
      </trkpt>
      <trkpt lat="40.262850" lon="-4.912000">
        <ele>2091.0</ele>
        <time>2015-03-15T13:55:58Z</time>
      </trkpt>
      <trkpt lat="40.262767" lon="-4.912000">
        <ele>2091.0</ele>
        <time>2015-03-15T13:55:59Z</time>
      </trkpt>
      <trkpt lat="40.262700" lon="-4.912017">
        <ele>2092.0</ele>
        <time>2015-03-15T13:56:00Z</time>
      </trkpt>
      <trkpt lat="40.262633" lon="-4.912050">
        <ele>2093.0</ele>
        <time>2015-03-15T13:56:01Z</time>
      </trkpt>
      <trkpt lat="40.262583" lon="-4.912100">
        <ele>2095.0</ele>
        <time>2015-03-15T13:56:02Z</time>
      </trkpt>
      <trkpt lat="40.262533" lon="-4.912167">
        <ele>2095.0</ele>
        <time>2015-03-15T13:56:03Z</time>
      </trkpt>
      <trkpt lat="40.262500" lon="-4.912250">
        <ele>2095.0</ele>
        <time>2015-03-15T13:56:04Z</time>
      </trkpt>
      <trkpt lat="40.262467" lon="-4.912333">
        <ele>2095.0</ele>
        <time>2015-03-15T13:56:05Z</time>
      </trkpt>
      <trkpt lat="40.262467" lon="-4.912433">
        <ele>2096.0</ele>
        <time>2015-03-15T13:56:06Z</time>
      </trkpt>
      <trkpt lat="40.262467" lon="-4.912550">
        <ele>2096.0</ele>
        <time>2015-03-15T13:56:07Z</time>
      </trkpt>
      <trkpt lat="40.262500" lon="-4.912650">
        <ele>2096.0</ele>
        <time>2015-03-15T13:56:08Z</time>
      </trkpt>
      <trkpt lat="40.262550" lon="-4.912733">
        <ele>2096.0</ele>
        <time>2015-03-15T13:56:09Z</time>
      </trkpt>
      <trkpt lat="40.262617" lon="-4.912817">
        <ele>2096.0</ele>
        <time>2015-03-15T13:56:10Z</time>
      </trkpt>
      <trkpt lat="40.262717" lon="-4.912867">
        <ele>2096.0</ele>
        <time>2015-03-15T13:56:11Z</time>
      </trkpt>
      <trkpt lat="40.262817" lon="-4.912900">
        <ele>2097.0</ele>
        <time>2015-03-15T13:56:12Z</time>
      </trkpt>
      <trkpt lat="40.262917" lon="-4.912883">
        <ele>2097.0</ele>
        <time>2015-03-15T13:56:13Z</time>
      </trkpt>
      <trkpt lat="40.263017" lon="-4.912833">
        <ele>2097.0</ele>
        <time>2015-03-15T13:56:14Z</time>
      </trkpt>
      <trkpt lat="40.263100" lon="-4.912733">
        <ele>2096.0</ele>
        <time>2015-03-15T13:56:15Z</time>
      </trkpt>
      <trkpt lat="40.263183" lon="-4.912617">
        <ele>2096.0</ele>
        <time>2015-03-15T13:56:16Z</time>
      </trkpt>
      <trkpt lat="40.263267" lon="-4.912483">
        <ele>2096.0</ele>
        <time>2015-03-15T13:56:17Z</time>
      </trkpt>
      <trkpt lat="40.263350" lon="-4.912367">
        <ele>2097.0</ele>
        <time>2015-03-15T13:56:18Z</time>
      </trkpt>
      <trkpt lat="40.263417" lon="-4.912233">
        <ele>2098.0</ele>
        <time>2015-03-15T13:56:19Z</time>
      </trkpt>
      <trkpt lat="40.263467" lon="-4.912100">
        <ele>2100.0</ele>
        <time>2015-03-15T13:56:20Z</time>
      </trkpt>
      <trkpt lat="40.263500" lon="-4.911967">
        <ele>2100.0</ele>
        <time>2015-03-15T13:56:21Z</time>
      </trkpt>
      <trkpt lat="40.263533" lon="-4.911833">
        <ele>2100.0</ele>
        <time>2015-03-15T13:56:22Z</time>
      </trkpt>
      <trkpt lat="40.263533" lon="-4.911683">
        <ele>2099.0</ele>
        <time>2015-03-15T13:56:23Z</time>
      </trkpt>
      <trkpt lat="40.263533" lon="-4.911533">
        <ele>2099.0</ele>
        <time>2015-03-15T13:56:24Z</time>
      </trkpt>
      <trkpt lat="40.263517" lon="-4.911400">
        <ele>2099.0</ele>
        <time>2015-03-15T13:56:25Z</time>
      </trkpt>
      <trkpt lat="40.263483" lon="-4.911267">
        <ele>2100.0</ele>
        <time>2015-03-15T13:56:26Z</time>
      </trkpt>
      <trkpt lat="40.263450" lon="-4.911150">
        <ele>2100.0</ele>
        <time>2015-03-15T13:56:27Z</time>
      </trkpt>
      <trkpt lat="40.263417" lon="-4.911033">
        <ele>2100.0</ele>
        <time>2015-03-15T13:56:28Z</time>
      </trkpt>
      <trkpt lat="40.263367" lon="-4.910933">
        <ele>2099.0</ele>
        <time>2015-03-15T13:56:29Z</time>
      </trkpt>
      <trkpt lat="40.263283" lon="-4.910850">
        <ele>2098.0</ele>
        <time>2015-03-15T13:56:30Z</time>
      </trkpt>
      <trkpt lat="40.263217" lon="-4.910783">
        <ele>2097.0</ele>
        <time>2015-03-15T13:56:31Z</time>
      </trkpt>
      <trkpt lat="40.263133" lon="-4.910717">
        <ele>2097.0</ele>
        <time>2015-03-15T13:56:32Z</time>
      </trkpt>
      <trkpt lat="40.263050" lon="-4.910683">
        <ele>2099.0</ele>
        <time>2015-03-15T13:56:33Z</time>
      </trkpt>
      <trkpt lat="40.262983" lon="-4.910667">
        <ele>2100.0</ele>
        <time>2015-03-15T13:56:34Z</time>
      </trkpt>
      <trkpt lat="40.262917" lon="-4.910667">
        <ele>2100.0</ele>
        <time>2015-03-15T13:56:35Z</time>
      </trkpt>
      <trkpt lat="40.262850" lon="-4.910683">
        <ele>2099.0</ele>
        <time>2015-03-15T13:56:36Z</time>
      </trkpt>
      <trkpt lat="40.262783" lon="-4.910717">
        <ele>2099.0</ele>
        <time>2015-03-15T13:56:37Z</time>
      </trkpt>
      <trkpt lat="40.262717" lon="-4.910750">
        <ele>2099.0</ele>
        <time>2015-03-15T13:56:38Z</time>
      </trkpt>
      <trkpt lat="40.262667" lon="-4.910800">
        <ele>2099.0</ele>
        <time>2015-03-15T13:56:39Z</time>
      </trkpt>
      <trkpt lat="40.262617" lon="-4.910850">
        <ele>2099.0</ele>
        <time>2015-03-15T13:56:40Z</time>
      </trkpt>
      <trkpt lat="40.262583" lon="-4.910917">
        <ele>2099.0</ele>
        <time>2015-03-15T13:56:41Z</time>
      </trkpt>
      <trkpt lat="40.262533" lon="-4.910983">
        <ele>2098.0</ele>
        <time>2015-03-15T13:56:42Z</time>
      </trkpt>
      <trkpt lat="40.262483" lon="-4.911050">
        <ele>2099.0</ele>
        <time>2015-03-15T13:56:43Z</time>
      </trkpt>
      <trkpt lat="40.262450" lon="-4.911133">
        <ele>2099.0</ele>
        <time>2015-03-15T13:56:44Z</time>
      </trkpt>
      <trkpt lat="40.262433" lon="-4.911217">
        <ele>2100.0</ele>
        <time>2015-03-15T13:56:45Z</time>
      </trkpt>
      <trkpt lat="40.262417" lon="-4.911283">
        <ele>2101.0</ele>
        <time>2015-03-15T13:56:46Z</time>
      </trkpt>
      <trkpt lat="40.262400" lon="-4.911367">
        <ele>2101.0</ele>
        <time>2015-03-15T13:56:47Z</time>
      </trkpt>
      <trkpt lat="40.262383" lon="-4.911450">
        <ele>2101.0</ele>
        <time>2015-03-15T13:56:48Z</time>
      </trkpt>
      <trkpt lat="40.262367" lon="-4.911533">
        <ele>2101.0</ele>
        <time>2015-03-15T13:56:49Z</time>
      </trkpt>
      <trkpt lat="40.262333" lon="-4.911617">
        <ele>2102.0</ele>
        <time>2015-03-15T13:56:50Z</time>
      </trkpt>
      <trkpt lat="40.262333" lon="-4.911717">
        <ele>2102.0</ele>
        <time>2015-03-15T13:56:51Z</time>
      </trkpt>
      <trkpt lat="40.262333" lon="-4.911800">
        <ele>2102.0</ele>
        <time>2015-03-15T13:56:52Z</time>
      </trkpt>
      <trkpt lat="40.262333" lon="-4.911900">
        <ele>2103.0</ele>
        <time>2015-03-15T13:56:53Z</time>
      </trkpt>
      <trkpt lat="40.262350" lon="-4.912000">
        <ele>2104.0</ele>
        <time>2015-03-15T13:56:54Z</time>
      </trkpt>
      <trkpt lat="40.262333" lon="-4.912083">
        <ele>2105.0</ele>
        <time>2015-03-15T13:56:55Z</time>
      </trkpt>
      <trkpt lat="40.262333" lon="-4.912167">
        <ele>2106.0</ele>
        <time>2015-03-15T13:56:56Z</time>
      </trkpt>
      <trkpt lat="40.262317" lon="-4.912250">
        <ele>2107.0</ele>
        <time>2015-03-15T13:56:57Z</time>
      </trkpt>
      <trkpt lat="40.262317" lon="-4.912333">
        <ele>2107.0</ele>
        <time>2015-03-15T13:56:58Z</time>
      </trkpt>
      <trkpt lat="40.262333" lon="-4.912417">
        <ele>2107.0</ele>
        <time>2015-03-15T13:56:59Z</time>
      </trkpt>
      <trkpt lat="40.262350" lon="-4.912517">
        <ele>2108.0</ele>
        <time>2015-03-15T13:57:00Z</time>
      </trkpt>
      <trkpt lat="40.262383" lon="-4.912600">
        <ele>2109.0</ele>
        <time>2015-03-15T13:57:01Z</time>
      </trkpt>
      <trkpt lat="40.262417" lon="-4.912683">
        <ele>2110.0</ele>
        <time>2015-03-15T13:57:02Z</time>
      </trkpt>
      <trkpt lat="40.262467" lon="-4.912767">
        <ele>2110.0</ele>
        <time>2015-03-15T13:57:03Z</time>
      </trkpt>
      <trkpt lat="40.262500" lon="-4.912850">
        <ele>2110.0</ele>
        <time>2015-03-15T13:57:04Z</time>
      </trkpt>
      <trkpt lat="40.262550" lon="-4.912933">
        <ele>2110.0</ele>
        <time>2015-03-15T13:57:05Z</time>
      </trkpt>
      <trkpt lat="40.262583" lon="-4.913017">
        <ele>2110.0</ele>
        <time>2015-03-15T13:57:06Z</time>
      </trkpt>
      <trkpt lat="40.262633" lon="-4.913100">
        <ele>2110.0</ele>
        <time>2015-03-15T13:57:07Z</time>
      </trkpt>
      <trkpt lat="40.262667" lon="-4.913183">
        <ele>2109.0</ele>
        <time>2015-03-15T13:57:08Z</time>
      </trkpt>
      <trkpt lat="40.262717" lon="-4.913267">
        <ele>2109.0</ele>
        <time>2015-03-15T13:57:09Z</time>
      </trkpt>
      <trkpt lat="40.262767" lon="-4.913350">
        <ele>2109.0</ele>
        <time>2015-03-15T13:57:10Z</time>
      </trkpt>
      <trkpt lat="40.262817" lon="-4.913433">
        <ele>2109.0</ele>
        <time>2015-03-15T13:57:11Z</time>
      </trkpt>
      <trkpt lat="40.262867" lon="-4.913517">
        <ele>2109.0</ele>
        <time>2015-03-15T13:57:12Z</time>
      </trkpt>
      <trkpt lat="40.262917" lon="-4.913583">
        <ele>2109.0</ele>
        <time>2015-03-15T13:57:13Z</time>
      </trkpt>
      <trkpt lat="40.262983" lon="-4.913667">
        <ele>2108.0</ele>
        <time>2015-03-15T13:57:14Z</time>
      </trkpt>
      <trkpt lat="40.263067" lon="-4.913733">
        <ele>2107.0</ele>
        <time>2015-03-15T13:57:15Z</time>
      </trkpt>
      <trkpt lat="40.263150" lon="-4.913783">
        <ele>2107.0</ele>
        <time>2015-03-15T13:57:16Z</time>
      </trkpt>
      <trkpt lat="40.263233" lon="-4.913817">
        <ele>2108.0</ele>
        <time>2015-03-15T13:57:17Z</time>
      </trkpt>
      <trkpt lat="40.263317" lon="-4.913817">
        <ele>2107.0</ele>
        <time>2015-03-15T13:57:18Z</time>
      </trkpt>
      <trkpt lat="40.263417" lon="-4.913800">
        <ele>2106.0</ele>
        <time>2015-03-15T13:57:19Z</time>
      </trkpt>
      <trkpt lat="40.263500" lon="-4.913767">
        <ele>2104.0</ele>
        <time>2015-03-15T13:57:20Z</time>
      </trkpt>
      <trkpt lat="40.263583" lon="-4.913733">
        <ele>2103.0</ele>
        <time>2015-03-15T13:57:21Z</time>
      </trkpt>
      <trkpt lat="40.263667" lon="-4.913667">
        <ele>2102.0</ele>
        <time>2015-03-15T13:57:22Z</time>
      </trkpt>
      <trkpt lat="40.263750" lon="-4.913600">
        <ele>2101.0</ele>
        <time>2015-03-15T13:57:23Z</time>
      </trkpt>
      <trkpt lat="40.263817" lon="-4.913517">
        <ele>2101.0</ele>
        <time>2015-03-15T13:57:24Z</time>
      </trkpt>
      <trkpt lat="40.263867" lon="-4.913433">
        <ele>2100.0</ele>
        <time>2015-03-15T13:57:25Z</time>
      </trkpt>
      <trkpt lat="40.263917" lon="-4.913317">
        <ele>2099.0</ele>
        <time>2015-03-15T13:57:26Z</time>
      </trkpt>
      <trkpt lat="40.263933" lon="-4.913200">
        <ele>2098.0</ele>
        <time>2015-03-15T13:57:27Z</time>
      </trkpt>
      <trkpt lat="40.263950" lon="-4.913067">
        <ele>2097.0</ele>
        <time>2015-03-15T13:57:28Z</time>
      </trkpt>
      <trkpt lat="40.263950" lon="-4.912933">
        <ele>2096.0</ele>
        <time>2015-03-15T13:57:29Z</time>
      </trkpt>
      <trkpt lat="40.263933" lon="-4.912800">
        <ele>2095.0</ele>
        <time>2015-03-15T13:57:30Z</time>
      </trkpt>
      <trkpt lat="40.263917" lon="-4.912667">
        <ele>2094.0</ele>
        <time>2015-03-15T13:57:31Z</time>
      </trkpt>
      <trkpt lat="40.263883" lon="-4.912533">
        <ele>2093.0</ele>
        <time>2015-03-15T13:57:32Z</time>
      </trkpt>
      <trkpt lat="40.263850" lon="-4.912383">
        <ele>2094.0</ele>
        <time>2015-03-15T13:57:33Z</time>
      </trkpt>
      <trkpt lat="40.263817" lon="-4.912267">
        <ele>2094.0</ele>
        <time>2015-03-15T13:57:34Z</time>
      </trkpt>
      <trkpt lat="40.263783" lon="-4.912150">
        <ele>2093.0</ele>
        <time>2015-03-15T13:57:35Z</time>
      </trkpt>
      <trkpt lat="40.263750" lon="-4.912033">
        <ele>2092.0</ele>
        <time>2015-03-15T13:57:36Z</time>
      </trkpt>
      <trkpt lat="40.263700" lon="-4.911900">
        <ele>2090.0</ele>
        <time>2015-03-15T13:57:37Z</time>
      </trkpt>
      <trkpt lat="40.263650" lon="-4.911767">
        <ele>2089.0</ele>
        <time>2015-03-15T13:57:38Z</time>
      </trkpt>
      <trkpt lat="40.263583" lon="-4.911650">
        <ele>2089.0</ele>
        <time>2015-03-15T13:57:39Z</time>
      </trkpt>
      <trkpt lat="40.263533" lon="-4.911517">
        <ele>2089.0</ele>
        <time>2015-03-15T13:57:40Z</time>
      </trkpt>
      <trkpt lat="40.263483" lon="-4.911417">
        <ele>2089.0</ele>
        <time>2015-03-15T13:57:41Z</time>
      </trkpt>
      <trkpt lat="40.263433" lon="-4.911300">
        <ele>2089.0</ele>
        <time>2015-03-15T13:57:42Z</time>
      </trkpt>
      <trkpt lat="40.263383" lon="-4.911167">
        <ele>2089.0</ele>
        <time>2015-03-15T13:57:43Z</time>
      </trkpt>
      <trkpt lat="40.263333" lon="-4.911050">
        <ele>2089.0</ele>
        <time>2015-03-15T13:57:44Z</time>
      </trkpt>
      <trkpt lat="40.263283" lon="-4.910917">
        <ele>2088.0</ele>
        <time>2015-03-15T13:57:45Z</time>
      </trkpt>
      <trkpt lat="40.263233" lon="-4.910800">
        <ele>2088.0</ele>
        <time>2015-03-15T13:57:46Z</time>
      </trkpt>
      <trkpt lat="40.263200" lon="-4.910667">
        <ele>2087.0</ele>
        <time>2015-03-15T13:57:47Z</time>
      </trkpt>
      <trkpt lat="40.263150" lon="-4.910533">
        <ele>2086.0</ele>
        <time>2015-03-15T13:57:48Z</time>
      </trkpt>
      <trkpt lat="40.263100" lon="-4.910400">
        <ele>2085.0</ele>
        <time>2015-03-15T13:57:49Z</time>
      </trkpt>
      <trkpt lat="40.263050" lon="-4.910250">
        <ele>2084.0</ele>
        <time>2015-03-15T13:57:50Z</time>
      </trkpt>
      <trkpt lat="40.263000" lon="-4.910100">
        <ele>2084.0</ele>
        <time>2015-03-15T13:57:51Z</time>
      </trkpt>
      <trkpt lat="40.262967" lon="-4.909967">
        <ele>2084.0</ele>
        <time>2015-03-15T13:57:52Z</time>
      </trkpt>
      <trkpt lat="40.262933" lon="-4.909817">
        <ele>2084.0</ele>
        <time>2015-03-15T13:57:53Z</time>
      </trkpt>
      <trkpt lat="40.262900" lon="-4.909683">
        <ele>2084.0</ele>
        <time>2015-03-15T13:57:54Z</time>
      </trkpt>
      <trkpt lat="40.262867" lon="-4.909550">
        <ele>2084.0</ele>
        <time>2015-03-15T13:57:55Z</time>
      </trkpt>
      <trkpt lat="40.262833" lon="-4.909400">
        <ele>2083.0</ele>
        <time>2015-03-15T13:57:56Z</time>
      </trkpt>
      <trkpt lat="40.262800" lon="-4.909267">
        <ele>2083.0</ele>
        <time>2015-03-15T13:57:57Z</time>
      </trkpt>
      <trkpt lat="40.262767" lon="-4.909117">
        <ele>2082.0</ele>
        <time>2015-03-15T13:57:58Z</time>
      </trkpt>
      <trkpt lat="40.262750" lon="-4.908967">
        <ele>2082.0</ele>
        <time>2015-03-15T13:57:59Z</time>
      </trkpt>
      <trkpt lat="40.262750" lon="-4.908817">
        <ele>2082.0</ele>
        <time>2015-03-15T13:58:00Z</time>
      </trkpt>
      <trkpt lat="40.262750" lon="-4.908683">
        <ele>2081.0</ele>
        <time>2015-03-15T13:58:01Z</time>
      </trkpt>
      <trkpt lat="40.262767" lon="-4.908533">
        <ele>2079.0</ele>
        <time>2015-03-15T13:58:02Z</time>
      </trkpt>
      <trkpt lat="40.262783" lon="-4.908383">
        <ele>2077.0</ele>
        <time>2015-03-15T13:58:03Z</time>
      </trkpt>
      <trkpt lat="40.262817" lon="-4.908233">
        <ele>2075.0</ele>
        <time>2015-03-15T13:58:04Z</time>
      </trkpt>
      <trkpt lat="40.262850" lon="-4.908067">
        <ele>2073.0</ele>
        <time>2015-03-15T13:58:05Z</time>
      </trkpt>
      <trkpt lat="40.262883" lon="-4.907917">
        <ele>2071.0</ele>
        <time>2015-03-15T13:58:06Z</time>
      </trkpt>
      <trkpt lat="40.262933" lon="-4.907750">
        <ele>2069.0</ele>
        <time>2015-03-15T13:58:07Z</time>
      </trkpt>
      <trkpt lat="40.262983" lon="-4.907600">
        <ele>2069.0</ele>
        <time>2015-03-15T13:58:08Z</time>
      </trkpt>
      <trkpt lat="40.263050" lon="-4.907467">
        <ele>2068.0</ele>
        <time>2015-03-15T13:58:09Z</time>
      </trkpt>
      <trkpt lat="40.263117" lon="-4.907333">
        <ele>2067.0</ele>
        <time>2015-03-15T13:58:10Z</time>
      </trkpt>
      <trkpt lat="40.263183" lon="-4.907217">
        <ele>2066.0</ele>
        <time>2015-03-15T13:58:11Z</time>
      </trkpt>
      <trkpt lat="40.263267" lon="-4.907100">
        <ele>2064.0</ele>
        <time>2015-03-15T13:58:12Z</time>
      </trkpt>
      <trkpt lat="40.263367" lon="-4.907000">
        <ele>2061.0</ele>
        <time>2015-03-15T13:58:13Z</time>
      </trkpt>
      <trkpt lat="40.263483" lon="-4.906933">
        <ele>2059.0</ele>
        <time>2015-03-15T13:58:14Z</time>
      </trkpt>
      <trkpt lat="40.263617" lon="-4.906883">
        <ele>2058.0</ele>
        <time>2015-03-15T13:58:15Z</time>
      </trkpt>
      <trkpt lat="40.263717" lon="-4.906883">
        <ele>2057.0</ele>
        <time>2015-03-15T13:58:16Z</time>
      </trkpt>
      <trkpt lat="40.263817" lon="-4.906900">
        <ele>2057.0</ele>
        <time>2015-03-15T13:58:17Z</time>
      </trkpt>
      <trkpt lat="40.263900" lon="-4.906950">
        <ele>2056.0</ele>
        <time>2015-03-15T13:58:18Z</time>
      </trkpt>
      <trkpt lat="40.263967" lon="-4.907017">
        <ele>2055.0</ele>
        <time>2015-03-15T13:58:19Z</time>
      </trkpt>
      <trkpt lat="40.264017" lon="-4.907100">
        <ele>2054.0</ele>
        <time>2015-03-15T13:58:20Z</time>
      </trkpt>
      <trkpt lat="40.264067" lon="-4.907183">
        <ele>2053.0</ele>
        <time>2015-03-15T13:58:21Z</time>
      </trkpt>
      <trkpt lat="40.264100" lon="-4.907283">
        <ele>2053.0</ele>
        <time>2015-03-15T13:58:22Z</time>
      </trkpt>
      <trkpt lat="40.264117" lon="-4.907400">
        <ele>2054.0</ele>
        <time>2015-03-15T13:58:23Z</time>
      </trkpt>
      <trkpt lat="40.264133" lon="-4.907500">
        <ele>2054.0</ele>
        <time>2015-03-15T13:58:24Z</time>
      </trkpt>
      <trkpt lat="40.264133" lon="-4.907617">
        <ele>2056.0</ele>
        <time>2015-03-15T13:58:25Z</time>
      </trkpt>
      <trkpt lat="40.264150" lon="-4.907717">
        <ele>2057.0</ele>
        <time>2015-03-15T13:58:26Z</time>
      </trkpt>
      <trkpt lat="40.264167" lon="-4.907817">
        <ele>2057.0</ele>
        <time>2015-03-15T13:58:27Z</time>
      </trkpt>
      <trkpt lat="40.264200" lon="-4.907917">
        <ele>2058.0</ele>
        <time>2015-03-15T13:58:28Z</time>
      </trkpt>
      <trkpt lat="40.264217" lon="-4.908000">
        <ele>2059.0</ele>
        <time>2015-03-15T13:58:29Z</time>
      </trkpt>
      <trkpt lat="40.264233" lon="-4.908083">
        <ele>2059.0</ele>
        <time>2015-03-15T13:58:30Z</time>
      </trkpt>
      <trkpt lat="40.264233" lon="-4.908167">
        <ele>2059.0</ele>
        <time>2015-03-15T13:58:31Z</time>
      </trkpt>
      <trkpt lat="40.264233" lon="-4.908267">
        <ele>2058.0</ele>
        <time>2015-03-15T13:58:32Z</time>
      </trkpt>
      <trkpt lat="40.264233" lon="-4.908367">
        <ele>2057.0</ele>
        <time>2015-03-15T13:58:33Z</time>
      </trkpt>
      <trkpt lat="40.264217" lon="-4.908467">
        <ele>2056.0</ele>
        <time>2015-03-15T13:58:34Z</time>
      </trkpt>
      <trkpt lat="40.264200" lon="-4.908567">
        <ele>2055.0</ele>
        <time>2015-03-15T13:58:35Z</time>
      </trkpt>
      <trkpt lat="40.264183" lon="-4.908650">
        <ele>2054.0</ele>
        <time>2015-03-15T13:58:36Z</time>
      </trkpt>
      <trkpt lat="40.264150" lon="-4.908717">
        <ele>2053.0</ele>
        <time>2015-03-15T13:58:37Z</time>
      </trkpt>
      <trkpt lat="40.264117" lon="-4.908817">
        <ele>2052.0</ele>
        <time>2015-03-15T13:58:38Z</time>
      </trkpt>
      <trkpt lat="40.264100" lon="-4.908917">
        <ele>2050.0</ele>
        <time>2015-03-15T13:58:39Z</time>
      </trkpt>
      <trkpt lat="40.264067" lon="-4.909017">
        <ele>2049.0</ele>
        <time>2015-03-15T13:58:40Z</time>
      </trkpt>
      <trkpt lat="40.264033" lon="-4.909117">
        <ele>2049.0</ele>
        <time>2015-03-15T13:58:41Z</time>
      </trkpt>
      <trkpt lat="40.264000" lon="-4.909200">
        <ele>2050.0</ele>
        <time>2015-03-15T13:58:42Z</time>
      </trkpt>
      <trkpt lat="40.263967" lon="-4.909267">
        <ele>2051.0</ele>
        <time>2015-03-15T13:58:43Z</time>
      </trkpt>
      <trkpt lat="40.263950" lon="-4.909333">
        <ele>2051.0</ele>
        <time>2015-03-15T13:58:44Z</time>
      </trkpt>
      <trkpt lat="40.263900" lon="-4.909417">
        <ele>2050.0</ele>
        <time>2015-03-15T13:58:45Z</time>
      </trkpt>
      <trkpt lat="40.263867" lon="-4.909500">
        <ele>2050.0</ele>
        <time>2015-03-15T13:58:46Z</time>
      </trkpt>
      <trkpt lat="40.263817" lon="-4.909567">
        <ele>2050.0</ele>
        <time>2015-03-15T13:58:47Z</time>
      </trkpt>
      <trkpt lat="40.263767" lon="-4.909650">
        <ele>2050.0</ele>
        <time>2015-03-15T13:58:48Z</time>
      </trkpt>
      <trkpt lat="40.263717" lon="-4.909717">
        <ele>2051.0</ele>
        <time>2015-03-15T13:58:49Z</time>
      </trkpt>
      <trkpt lat="40.263667" lon="-4.909767">
        <ele>2052.0</ele>
        <time>2015-03-15T13:58:50Z</time>
      </trkpt>
      <trkpt lat="40.263633" lon="-4.909817">
        <ele>2052.0</ele>
        <time>2015-03-15T13:58:51Z</time>
      </trkpt>
      <trkpt lat="40.263583" lon="-4.909883">
        <ele>2052.0</ele>
        <time>2015-03-15T13:58:52Z</time>
      </trkpt>
      <trkpt lat="40.263550" lon="-4.909950">
        <ele>2052.0</ele>
        <time>2015-03-15T13:58:53Z</time>
      </trkpt>
      <trkpt lat="40.263500" lon="-4.910017">
        <ele>2052.0</ele>
        <time>2015-03-15T13:58:54Z</time>
      </trkpt>
      <trkpt lat="40.263467" lon="-4.910083">
        <ele>2051.0</ele>
        <time>2015-03-15T13:58:55Z</time>
      </trkpt>
      <trkpt lat="40.263417" lon="-4.910150">
        <ele>2051.0</ele>
        <time>2015-03-15T13:58:56Z</time>
      </trkpt>
      <trkpt lat="40.263383" lon="-4.910233">
        <ele>2050.0</ele>
        <time>2015-03-15T13:58:57Z</time>
      </trkpt>
      <trkpt lat="40.263367" lon="-4.910300">
        <ele>2049.0</ele>
        <time>2015-03-15T13:58:58Z</time>
      </trkpt>
      <trkpt lat="40.263350" lon="-4.910383">
        <ele>2048.0</ele>
        <time>2015-03-15T13:58:59Z</time>
      </trkpt>
      <trkpt lat="40.263350" lon="-4.910467">
        <ele>2047.0</ele>
        <time>2015-03-15T13:59:00Z</time>
      </trkpt>
      <trkpt lat="40.263350" lon="-4.910567">
        <ele>2046.0</ele>
        <time>2015-03-15T13:59:01Z</time>
      </trkpt>
      <trkpt lat="40.263350" lon="-4.910650">
        <ele>2046.0</ele>
        <time>2015-03-15T13:59:02Z</time>
      </trkpt>
      <trkpt lat="40.263383" lon="-4.910717">
        <ele>2045.0</ele>
        <time>2015-03-15T13:59:03Z</time>
      </trkpt>
      <trkpt lat="40.263417" lon="-4.910783">
        <ele>2045.0</ele>
        <time>2015-03-15T13:59:04Z</time>
      </trkpt>
      <trkpt lat="40.263450" lon="-4.910867">
        <ele>2043.0</ele>
        <time>2015-03-15T13:59:05Z</time>
      </trkpt>
      <trkpt lat="40.263500" lon="-4.910933">
        <ele>2042.0</ele>
        <time>2015-03-15T13:59:06Z</time>
      </trkpt>
      <trkpt lat="40.263583" lon="-4.910983">
        <ele>2041.0</ele>
        <time>2015-03-15T13:59:07Z</time>
      </trkpt>
      <trkpt lat="40.263667" lon="-4.911033">
        <ele>2041.0</ele>
        <time>2015-03-15T13:59:08Z</time>
      </trkpt>
      <trkpt lat="40.263767" lon="-4.911067">
        <ele>2041.0</ele>
        <time>2015-03-15T13:59:09Z</time>
      </trkpt>
      <trkpt lat="40.263867" lon="-4.911067">
        <ele>2041.0</ele>
        <time>2015-03-15T13:59:10Z</time>
      </trkpt>
      <trkpt lat="40.263967" lon="-4.911083">
        <ele>2042.0</ele>
        <time>2015-03-15T13:59:11Z</time>
      </trkpt>
      <trkpt lat="40.264067" lon="-4.911067">
        <ele>2042.0</ele>
        <time>2015-03-15T13:59:12Z</time>
      </trkpt>
      <trkpt lat="40.264183" lon="-4.911050">
        <ele>2042.0</ele>
        <time>2015-03-15T13:59:13Z</time>
      </trkpt>
      <trkpt lat="40.264283" lon="-4.911017">
        <ele>2042.0</ele>
        <time>2015-03-15T13:59:14Z</time>
      </trkpt>
      <trkpt lat="40.264383" lon="-4.910950">
        <ele>2043.0</ele>
        <time>2015-03-15T13:59:15Z</time>
      </trkpt>
      <trkpt lat="40.264467" lon="-4.910883">
        <ele>2043.0</ele>
        <time>2015-03-15T13:59:16Z</time>
      </trkpt>
      <trkpt lat="40.264550" lon="-4.910783">
        <ele>2044.0</ele>
        <time>2015-03-15T13:59:17Z</time>
      </trkpt>
      <trkpt lat="40.264633" lon="-4.910683">
        <ele>2044.0</ele>
        <time>2015-03-15T13:59:18Z</time>
      </trkpt>
      <trkpt lat="40.264700" lon="-4.910567">
        <ele>2044.0</ele>
        <time>2015-03-15T13:59:19Z</time>
      </trkpt>
      <trkpt lat="40.264767" lon="-4.910450">
        <ele>2044.0</ele>
        <time>2015-03-15T13:59:20Z</time>
      </trkpt>
      <trkpt lat="40.264817" lon="-4.910317">
        <ele>2044.0</ele>
        <time>2015-03-15T13:59:21Z</time>
      </trkpt>
      <trkpt lat="40.264867" lon="-4.910183">
        <ele>2044.0</ele>
        <time>2015-03-15T13:59:22Z</time>
      </trkpt>
      <trkpt lat="40.264900" lon="-4.910050">
        <ele>2045.0</ele>
        <time>2015-03-15T13:59:23Z</time>
      </trkpt>
      <trkpt lat="40.264917" lon="-4.909900">
        <ele>2045.0</ele>
        <time>2015-03-15T13:59:24Z</time>
      </trkpt>
      <trkpt lat="40.264917" lon="-4.909767">
        <ele>2046.0</ele>
        <time>2015-03-15T13:59:25Z</time>
      </trkpt>
      <trkpt lat="40.264883" lon="-4.909650">
        <ele>2047.0</ele>
        <time>2015-03-15T13:59:26Z</time>
      </trkpt>
      <trkpt lat="40.264867" lon="-4.909517">
        <ele>2047.0</ele>
        <time>2015-03-15T13:59:27Z</time>
      </trkpt>
      <trkpt lat="40.264833" lon="-4.909417">
        <ele>2048.0</ele>
        <time>2015-03-15T13:59:28Z</time>
      </trkpt>
      <trkpt lat="40.264783" lon="-4.909300">
        <ele>2049.0</ele>
        <time>2015-03-15T13:59:29Z</time>
      </trkpt>
      <trkpt lat="40.264717" lon="-4.909217">
        <ele>2050.0</ele>
        <time>2015-03-15T13:59:30Z</time>
      </trkpt>
      <trkpt lat="40.264650" lon="-4.909133">
        <ele>2051.0</ele>
        <time>2015-03-15T13:59:31Z</time>
      </trkpt>
      <trkpt lat="40.264583" lon="-4.909067">
        <ele>2052.0</ele>
        <time>2015-03-15T13:59:32Z</time>
      </trkpt>
      <trkpt lat="40.264500" lon="-4.909050">
        <ele>2053.0</ele>
        <time>2015-03-15T13:59:33Z</time>
      </trkpt>
      <trkpt lat="40.264433" lon="-4.909033">
        <ele>2054.0</ele>
        <time>2015-03-15T13:59:34Z</time>
      </trkpt>
      <trkpt lat="40.264367" lon="-4.909050">
        <ele>2055.0</ele>
        <time>2015-03-15T13:59:35Z</time>
      </trkpt>
      <trkpt lat="40.264317" lon="-4.909083">
        <ele>2054.0</ele>
        <time>2015-03-15T13:59:36Z</time>
      </trkpt>
      <trkpt lat="40.264267" lon="-4.909133">
        <ele>2053.0</ele>
        <time>2015-03-15T13:59:37Z</time>
      </trkpt>
      <trkpt lat="40.264233" lon="-4.909183">
        <ele>2052.0</ele>
        <time>2015-03-15T13:59:38Z</time>
      </trkpt>
      <trkpt lat="40.264200" lon="-4.909267">
        <ele>2050.0</ele>
        <time>2015-03-15T13:59:39Z</time>
      </trkpt>
      <trkpt lat="40.264167" lon="-4.909367">
        <ele>2049.0</ele>
        <time>2015-03-15T13:59:40Z</time>
      </trkpt>
      <trkpt lat="40.264167" lon="-4.909483">
        <ele>2048.0</ele>
        <time>2015-03-15T13:59:41Z</time>
      </trkpt>
      <trkpt lat="40.264167" lon="-4.909583">
        <ele>2049.0</ele>
        <time>2015-03-15T13:59:42Z</time>
      </trkpt>
      <trkpt lat="40.264183" lon="-4.909683">
        <ele>2050.0</ele>
        <time>2015-03-15T13:59:43Z</time>
      </trkpt>
      <trkpt lat="40.264200" lon="-4.909750">
        <ele>2051.0</ele>
        <time>2015-03-15T13:59:44Z</time>
      </trkpt>
      <trkpt lat="40.264233" lon="-4.909833">
        <ele>2051.0</ele>
        <time>2015-03-15T13:59:45Z</time>
      </trkpt>
      <trkpt lat="40.264267" lon="-4.909917">
        <ele>2051.0</ele>
        <time>2015-03-15T13:59:46Z</time>
      </trkpt>
      <trkpt lat="40.264333" lon="-4.910000">
        <ele>2050.0</ele>
        <time>2015-03-15T13:59:47Z</time>
      </trkpt>
      <trkpt lat="40.264400" lon="-4.910067">
        <ele>2050.0</ele>
        <time>2015-03-15T13:59:48Z</time>
      </trkpt>
      <trkpt lat="40.264500" lon="-4.910117">
        <ele>2049.0</ele>
        <time>2015-03-15T13:59:49Z</time>
      </trkpt>
      <trkpt lat="40.264600" lon="-4.910133">
        <ele>2051.0</ele>
        <time>2015-03-15T13:59:50Z</time>
      </trkpt>
      <trkpt lat="40.264700" lon="-4.910117">
        <ele>2052.0</ele>
        <time>2015-03-15T13:59:51Z</time>
      </trkpt>
      <trkpt lat="40.264783" lon="-4.910083">
        <ele>2053.0</ele>
        <time>2015-03-15T13:59:52Z</time>
      </trkpt>
      <trkpt lat="40.264883" lon="-4.910017">
        <ele>2053.0</ele>
        <time>2015-03-15T13:59:53Z</time>
      </trkpt>
      <trkpt lat="40.264950" lon="-4.909933">
        <ele>2052.0</ele>
        <time>2015-03-15T13:59:54Z</time>
      </trkpt>
      <trkpt lat="40.265033" lon="-4.909850">
        <ele>2053.0</ele>
        <time>2015-03-15T13:59:55Z</time>
      </trkpt>
      <trkpt lat="40.265100" lon="-4.909733">
        <ele>2053.0</ele>
        <time>2015-03-15T13:59:56Z</time>
      </trkpt>
      <trkpt lat="40.265167" lon="-4.909633">
        <ele>2053.0</ele>
        <time>2015-03-15T13:59:57Z</time>
      </trkpt>
      <trkpt lat="40.265217" lon="-4.909517">
        <ele>2053.0</ele>
        <time>2015-03-15T13:59:58Z</time>
      </trkpt>
      <trkpt lat="40.265250" lon="-4.909383">
        <ele>2052.0</ele>
        <time>2015-03-15T13:59:59Z</time>
      </trkpt>
      <trkpt lat="40.265283" lon="-4.909250">
        <ele>2052.0</ele>
        <time>2015-03-15T14:00:00Z</time>
      </trkpt>
      <trkpt lat="40.265300" lon="-4.909117">
        <ele>2052.0</ele>
        <time>2015-03-15T14:00:01Z</time>
      </trkpt>
      <trkpt lat="40.265333" lon="-4.908967">
        <ele>2052.0</ele>
        <time>2015-03-15T14:00:02Z</time>
      </trkpt>
      <trkpt lat="40.265367" lon="-4.908833">
        <ele>2052.0</ele>
        <time>2015-03-15T14:00:03Z</time>
      </trkpt>
      <trkpt lat="40.265383" lon="-4.908683">
        <ele>2053.0</ele>
        <time>2015-03-15T14:00:04Z</time>
      </trkpt>
      <trkpt lat="40.265400" lon="-4.908550">
        <ele>2053.0</ele>
        <time>2015-03-15T14:00:05Z</time>
      </trkpt>
      <trkpt lat="40.265417" lon="-4.908417">
        <ele>2053.0</ele>
        <time>2015-03-15T14:00:06Z</time>
      </trkpt>
      <trkpt lat="40.265433" lon="-4.908267">
        <ele>2053.0</ele>
        <time>2015-03-15T14:00:07Z</time>
      </trkpt>
      <trkpt lat="40.265450" lon="-4.908117">
        <ele>2052.0</ele>
        <time>2015-03-15T14:00:08Z</time>
      </trkpt>
      <trkpt lat="40.265467" lon="-4.907967">
        <ele>2051.0</ele>
        <time>2015-03-15T14:00:09Z</time>
      </trkpt>
      <trkpt lat="40.265467" lon="-4.907817">
        <ele>2050.0</ele>
        <time>2015-03-15T14:00:10Z</time>
      </trkpt>
      <trkpt lat="40.265483" lon="-4.907667">
        <ele>2049.0</ele>
        <time>2015-03-15T14:00:11Z</time>
      </trkpt>
      <trkpt lat="40.265500" lon="-4.907500">
        <ele>2048.0</ele>
        <time>2015-03-15T14:00:12Z</time>
      </trkpt>
      <trkpt lat="40.265500" lon="-4.907350">
        <ele>2048.0</ele>
        <time>2015-03-15T14:00:13Z</time>
      </trkpt>
      <trkpt lat="40.265483" lon="-4.907200">
        <ele>2048.0</ele>
        <time>2015-03-15T14:00:14Z</time>
      </trkpt>
      <trkpt lat="40.265483" lon="-4.907067">
        <ele>2048.0</ele>
        <time>2015-03-15T14:00:15Z</time>
      </trkpt>
      <trkpt lat="40.265483" lon="-4.906917">
        <ele>2048.0</ele>
        <time>2015-03-15T14:00:16Z</time>
      </trkpt>
      <trkpt lat="40.265500" lon="-4.906783">
        <ele>2048.0</ele>
        <time>2015-03-15T14:00:17Z</time>
      </trkpt>
      <trkpt lat="40.265517" lon="-4.906650">
        <ele>2048.0</ele>
        <time>2015-03-15T14:00:18Z</time>
      </trkpt>
      <trkpt lat="40.265533" lon="-4.906517">
        <ele>2048.0</ele>
        <time>2015-03-15T14:00:19Z</time>
      </trkpt>
      <trkpt lat="40.265567" lon="-4.906383">
        <ele>2048.0</ele>
        <time>2015-03-15T14:00:20Z</time>
      </trkpt>
      <trkpt lat="40.265600" lon="-4.906250">
        <ele>2048.0</ele>
        <time>2015-03-15T14:00:21Z</time>
      </trkpt>
      <trkpt lat="40.265633" lon="-4.906100">
        <ele>2048.0</ele>
        <time>2015-03-15T14:00:22Z</time>
      </trkpt>
      <trkpt lat="40.265667" lon="-4.905967">
        <ele>2048.0</ele>
        <time>2015-03-15T14:00:23Z</time>
      </trkpt>
      <trkpt lat="40.265700" lon="-4.905800">
        <ele>2047.0</ele>
        <time>2015-03-15T14:00:24Z</time>
      </trkpt>
      <trkpt lat="40.265733" lon="-4.905650">
        <ele>2047.0</ele>
        <time>2015-03-15T14:00:25Z</time>
      </trkpt>
      <trkpt lat="40.265767" lon="-4.905500">
        <ele>2047.0</ele>
        <time>2015-03-15T14:00:26Z</time>
      </trkpt>
      <trkpt lat="40.265783" lon="-4.905333">
        <ele>2047.0</ele>
        <time>2015-03-15T14:00:27Z</time>
      </trkpt>
      <trkpt lat="40.265817" lon="-4.905183">
        <ele>2047.0</ele>
        <time>2015-03-15T14:00:28Z</time>
      </trkpt>
      <trkpt lat="40.265850" lon="-4.905033">
        <ele>2048.0</ele>
        <time>2015-03-15T14:00:29Z</time>
      </trkpt>
      <trkpt lat="40.265900" lon="-4.904900">
        <ele>2049.0</ele>
        <time>2015-03-15T14:00:30Z</time>
      </trkpt>
      <trkpt lat="40.265950" lon="-4.904750">
        <ele>2049.0</ele>
        <time>2015-03-15T14:00:31Z</time>
      </trkpt>
      <trkpt lat="40.265983" lon="-4.904617">
        <ele>2050.0</ele>
        <time>2015-03-15T14:00:32Z</time>
      </trkpt>
      <trkpt lat="40.266033" lon="-4.904483">
        <ele>2050.0</ele>
        <time>2015-03-15T14:00:33Z</time>
      </trkpt>
      <trkpt lat="40.266050" lon="-4.904333">
        <ele>2050.0</ele>
        <time>2015-03-15T14:00:34Z</time>
      </trkpt>
      <trkpt lat="40.266050" lon="-4.904200">
        <ele>2049.0</ele>
        <time>2015-03-15T14:00:35Z</time>
      </trkpt>
      <trkpt lat="40.266033" lon="-4.904067">
        <ele>2048.0</ele>
        <time>2015-03-15T14:00:36Z</time>
      </trkpt>
      <trkpt lat="40.266017" lon="-4.903950">
        <ele>2048.0</ele>
        <time>2015-03-15T14:00:37Z</time>
      </trkpt>
      <trkpt lat="40.266017" lon="-4.903817">
        <ele>2048.0</ele>
        <time>2015-03-15T14:00:38Z</time>
      </trkpt>
      <trkpt lat="40.266017" lon="-4.903667">
        <ele>2046.0</ele>
        <time>2015-03-15T14:00:39Z</time>
      </trkpt>
      <trkpt lat="40.266050" lon="-4.903517">
        <ele>2046.0</ele>
        <time>2015-03-15T14:00:40Z</time>
      </trkpt>
      <trkpt lat="40.266067" lon="-4.903350">
        <ele>2046.0</ele>
        <time>2015-03-15T14:00:41Z</time>
      </trkpt>
      <trkpt lat="40.266100" lon="-4.903183">
        <ele>2047.0</ele>
        <time>2015-03-15T14:00:42Z</time>
      </trkpt>
      <trkpt lat="40.266117" lon="-4.903050">
        <ele>2048.0</ele>
        <time>2015-03-15T14:00:43Z</time>
      </trkpt>
      <trkpt lat="40.266133" lon="-4.902917">
        <ele>2049.0</ele>
        <time>2015-03-15T14:00:44Z</time>
      </trkpt>
      <trkpt lat="40.266133" lon="-4.902783">
        <ele>2049.0</ele>
        <time>2015-03-15T14:00:45Z</time>
      </trkpt>
      <trkpt lat="40.266167" lon="-4.902667">
        <ele>2049.0</ele>
        <time>2015-03-15T14:00:46Z</time>
      </trkpt>
      <trkpt lat="40.266200" lon="-4.902550">
        <ele>2048.0</ele>
        <time>2015-03-15T14:00:47Z</time>
      </trkpt>
      <trkpt lat="40.266250" lon="-4.902417">
        <ele>2046.0</ele>
        <time>2015-03-15T14:00:48Z</time>
      </trkpt>
      <trkpt lat="40.266317" lon="-4.902300">
        <ele>2045.0</ele>
        <time>2015-03-15T14:00:49Z</time>
      </trkpt>
      <trkpt lat="40.266383" lon="-4.902167">
        <ele>2044.0</ele>
        <time>2015-03-15T14:00:50Z</time>
      </trkpt>
      <trkpt lat="40.266450" lon="-4.902033">
        <ele>2044.0</ele>
        <time>2015-03-15T14:00:51Z</time>
      </trkpt>
      <trkpt lat="40.266517" lon="-4.901883">
        <ele>2045.0</ele>
        <time>2015-03-15T14:00:52Z</time>
      </trkpt>
      <trkpt lat="40.266567" lon="-4.901750">
        <ele>2046.0</ele>
        <time>2015-03-15T14:00:53Z</time>
      </trkpt>
      <trkpt lat="40.266617" lon="-4.901617">
        <ele>2047.0</ele>
        <time>2015-03-15T14:00:54Z</time>
      </trkpt>
      <trkpt lat="40.266667" lon="-4.901467">
        <ele>2048.0</ele>
        <time>2015-03-15T14:00:55Z</time>
      </trkpt>
      <trkpt lat="40.266683" lon="-4.901317">
        <ele>2050.0</ele>
        <time>2015-03-15T14:00:56Z</time>
      </trkpt>
      <trkpt lat="40.266717" lon="-4.901167">
        <ele>2052.0</ele>
        <time>2015-03-15T14:00:57Z</time>
      </trkpt>
      <trkpt lat="40.266750" lon="-4.901017">
        <ele>2055.0</ele>
        <time>2015-03-15T14:00:58Z</time>
      </trkpt>
      <trkpt lat="40.266783" lon="-4.900883">
        <ele>2056.0</ele>
        <time>2015-03-15T14:00:59Z</time>
      </trkpt>
      <trkpt lat="40.266783" lon="-4.900750">
        <ele>2058.0</ele>
        <time>2015-03-15T14:01:00Z</time>
      </trkpt>
      <trkpt lat="40.266767" lon="-4.900617">
        <ele>2060.0</ele>
        <time>2015-03-15T14:01:01Z</time>
      </trkpt>
      <trkpt lat="40.266733" lon="-4.900483">
        <ele>2062.0</ele>
        <time>2015-03-15T14:01:02Z</time>
      </trkpt>
      <trkpt lat="40.266650" lon="-4.900383">
        <ele>2064.0</ele>
        <time>2015-03-15T14:01:03Z</time>
      </trkpt>
      <trkpt lat="40.266567" lon="-4.900317">
        <ele>2066.0</ele>
        <time>2015-03-15T14:01:04Z</time>
      </trkpt>
      <trkpt lat="40.266467" lon="-4.900283">
        <ele>2068.0</ele>
        <time>2015-03-15T14:01:05Z</time>
      </trkpt>
      <trkpt lat="40.266367" lon="-4.900283">
        <ele>2071.0</ele>
        <time>2015-03-15T14:01:06Z</time>
      </trkpt>
      <trkpt lat="40.266283" lon="-4.900300">
        <ele>2074.0</ele>
        <time>2015-03-15T14:01:07Z</time>
      </trkpt>
      <trkpt lat="40.266200" lon="-4.900350">
        <ele>2077.0</ele>
        <time>2015-03-15T14:01:08Z</time>
      </trkpt>
      <trkpt lat="40.266150" lon="-4.900417">
        <ele>2079.0</ele>
        <time>2015-03-15T14:01:09Z</time>
      </trkpt>
      <trkpt lat="40.266133" lon="-4.900500">
        <ele>2080.0</ele>
        <time>2015-03-15T14:01:10Z</time>
      </trkpt>
      <trkpt lat="40.266133" lon="-4.900583">
        <ele>2081.0</ele>
        <time>2015-03-15T14:01:11Z</time>
      </trkpt>
      <trkpt lat="40.266150" lon="-4.900667">
        <ele>2082.0</ele>
        <time>2015-03-15T14:01:12Z</time>
      </trkpt>
      <trkpt lat="40.266183" lon="-4.900750">
        <ele>2084.0</ele>
        <time>2015-03-15T14:01:13Z</time>
      </trkpt>
      <trkpt lat="40.266250" lon="-4.900800">
        <ele>2085.0</ele>
        <time>2015-03-15T14:01:14Z</time>
      </trkpt>
      <trkpt lat="40.266333" lon="-4.900817">
        <ele>2085.0</ele>
        <time>2015-03-15T14:01:15Z</time>
      </trkpt>
      <trkpt lat="40.266433" lon="-4.900800">
        <ele>2086.0</ele>
        <time>2015-03-15T14:01:16Z</time>
      </trkpt>
      <trkpt lat="40.266533" lon="-4.900733">
        <ele>2088.0</ele>
        <time>2015-03-15T14:01:17Z</time>
      </trkpt>
      <trkpt lat="40.266617" lon="-4.900633">
        <ele>2091.0</ele>
        <time>2015-03-15T14:01:18Z</time>
      </trkpt>
      <trkpt lat="40.266683" lon="-4.900517">
        <ele>2095.0</ele>
        <time>2015-03-15T14:01:19Z</time>
      </trkpt>
      <trkpt lat="40.266717" lon="-4.900417">
        <ele>2098.0</ele>
        <time>2015-03-15T14:01:20Z</time>
      </trkpt>
      <trkpt lat="40.266733" lon="-4.900300">
        <ele>2100.0</ele>
        <time>2015-03-15T14:01:21Z</time>
      </trkpt>
      <trkpt lat="40.266750" lon="-4.900167">
        <ele>2102.0</ele>
        <time>2015-03-15T14:01:22Z</time>
      </trkpt>
      <trkpt lat="40.266750" lon="-4.900033">
        <ele>2104.0</ele>
        <time>2015-03-15T14:01:23Z</time>
      </trkpt>
      <trkpt lat="40.266750" lon="-4.899883">
        <ele>2107.0</ele>
        <time>2015-03-15T14:01:24Z</time>
      </trkpt>
      <trkpt lat="40.266700" lon="-4.899750">
        <ele>2110.0</ele>
        <time>2015-03-15T14:01:25Z</time>
      </trkpt>
      <trkpt lat="40.266650" lon="-4.899633">
        <ele>2113.0</ele>
        <time>2015-03-15T14:01:26Z</time>
      </trkpt>
      <trkpt lat="40.266583" lon="-4.899533">
        <ele>2116.0</ele>
        <time>2015-03-15T14:01:27Z</time>
      </trkpt>
      <trkpt lat="40.266500" lon="-4.899483">
        <ele>2120.0</ele>
        <time>2015-03-15T14:01:28Z</time>
      </trkpt>
      <trkpt lat="40.266400" lon="-4.899433">
        <ele>2123.0</ele>
        <time>2015-03-15T14:01:29Z</time>
      </trkpt>
      <trkpt lat="40.266300" lon="-4.899433">
        <ele>2126.0</ele>
        <time>2015-03-15T14:01:30Z</time>
      </trkpt>
      <trkpt lat="40.266217" lon="-4.899450">
        <ele>2128.0</ele>
        <time>2015-03-15T14:01:31Z</time>
      </trkpt>
      <trkpt lat="40.266167" lon="-4.899500">
        <ele>2130.0</ele>
        <time>2015-03-15T14:01:32Z</time>
      </trkpt>
      <trkpt lat="40.266100" lon="-4.899550">
        <ele>2132.0</ele>
        <time>2015-03-15T14:01:33Z</time>
      </trkpt>
      <trkpt lat="40.266067" lon="-4.899600">
        <ele>2133.0</ele>
        <time>2015-03-15T14:01:34Z</time>
      </trkpt>
      <trkpt lat="40.266033" lon="-4.899667">
        <ele>2135.0</ele>
        <time>2015-03-15T14:01:35Z</time>
      </trkpt>
      <trkpt lat="40.266000" lon="-4.899717">
        <ele>2136.0</ele>
        <time>2015-03-15T14:01:36Z</time>
      </trkpt>
      <trkpt lat="40.266017" lon="-4.899800">
        <ele>2136.0</ele>
        <time>2015-03-15T14:01:37Z</time>
      </trkpt>
      <trkpt lat="40.266033" lon="-4.899867">
        <ele>2136.0</ele>
        <time>2015-03-15T14:01:38Z</time>
      </trkpt>
      <trkpt lat="40.266100" lon="-4.899933">
        <ele>2136.0</ele>
        <time>2015-03-15T14:01:39Z</time>
      </trkpt>
      <trkpt lat="40.266167" lon="-4.900000">
        <ele>2137.0</ele>
        <time>2015-03-15T14:01:40Z</time>
      </trkpt>
      <trkpt lat="40.266250" lon="-4.900033">
        <ele>2139.0</ele>
        <time>2015-03-15T14:01:41Z</time>
      </trkpt>
      <trkpt lat="40.266333" lon="-4.900050">
        <ele>2142.0</ele>
        <time>2015-03-15T14:01:42Z</time>
      </trkpt>
      <trkpt lat="40.266400" lon="-4.900050">
        <ele>2145.0</ele>
        <time>2015-03-15T14:01:43Z</time>
      </trkpt>
      <trkpt lat="40.266483" lon="-4.900033">
        <ele>2147.0</ele>
        <time>2015-03-15T14:01:44Z</time>
      </trkpt>
      <trkpt lat="40.266567" lon="-4.900000">
        <ele>2149.0</ele>
        <time>2015-03-15T14:01:45Z</time>
      </trkpt>
      <trkpt lat="40.266650" lon="-4.899933">
        <ele>2151.0</ele>
        <time>2015-03-15T14:01:46Z</time>
      </trkpt>
      <trkpt lat="40.266733" lon="-4.899850">
        <ele>2153.0</ele>
        <time>2015-03-15T14:01:47Z</time>
      </trkpt>
      <trkpt lat="40.266800" lon="-4.899733">
        <ele>2155.0</ele>
        <time>2015-03-15T14:01:48Z</time>
      </trkpt>
      <trkpt lat="40.266833" lon="-4.899617">
        <ele>2158.0</ele>
        <time>2015-03-15T14:01:49Z</time>
      </trkpt>
      <trkpt lat="40.266850" lon="-4.899483">
        <ele>2160.0</ele>
        <time>2015-03-15T14:01:50Z</time>
      </trkpt>
      <trkpt lat="40.266833" lon="-4.899333">
        <ele>2162.0</ele>
        <time>2015-03-15T14:01:51Z</time>
      </trkpt>
      <trkpt lat="40.266817" lon="-4.899200">
        <ele>2164.0</ele>
        <time>2015-03-15T14:01:52Z</time>
      </trkpt>
      <trkpt lat="40.266783" lon="-4.899050">
        <ele>2166.0</ele>
        <time>2015-03-15T14:01:53Z</time>
      </trkpt>
      <trkpt lat="40.266750" lon="-4.898917">
        <ele>2170.0</ele>
        <time>2015-03-15T14:01:54Z</time>
      </trkpt>
      <trkpt lat="40.266717" lon="-4.898783">
        <ele>2173.0</ele>
        <time>2015-03-15T14:01:55Z</time>
      </trkpt>
      <trkpt lat="40.266650" lon="-4.898667">
        <ele>2177.0</ele>
        <time>2015-03-15T14:01:56Z</time>
      </trkpt>
      <trkpt lat="40.266583" lon="-4.898567">
        <ele>2179.0</ele>
        <time>2015-03-15T14:01:57Z</time>
      </trkpt>
      <trkpt lat="40.266500" lon="-4.898500">
        <ele>2180.0</ele>
        <time>2015-03-15T14:01:58Z</time>
      </trkpt>
      <trkpt lat="40.266400" lon="-4.898450">
        <ele>2181.0</ele>
        <time>2015-03-15T14:01:59Z</time>
      </trkpt>
      <trkpt lat="40.266300" lon="-4.898450">
        <ele>2183.0</ele>
        <time>2015-03-15T14:02:00Z</time>
      </trkpt>
      <trkpt lat="40.266217" lon="-4.898467">
        <ele>2184.0</ele>
        <time>2015-03-15T14:02:01Z</time>
      </trkpt>
      <trkpt lat="40.266133" lon="-4.898517">
        <ele>2186.0</ele>
        <time>2015-03-15T14:02:02Z</time>
      </trkpt>
      <trkpt lat="40.266067" lon="-4.898550">
        <ele>2187.0</ele>
        <time>2015-03-15T14:02:03Z</time>
      </trkpt>
      <trkpt lat="40.266017" lon="-4.898600">
        <ele>2189.0</ele>
        <time>2015-03-15T14:02:04Z</time>
      </trkpt>
      <trkpt lat="40.265950" lon="-4.898633">
        <ele>2191.0</ele>
        <time>2015-03-15T14:02:05Z</time>
      </trkpt>
      <trkpt lat="40.265900" lon="-4.898700">
        <ele>2192.0</ele>
        <time>2015-03-15T14:02:06Z</time>
      </trkpt>
      <trkpt lat="40.265883" lon="-4.898767">
        <ele>2192.0</ele>
        <time>2015-03-15T14:02:07Z</time>
      </trkpt>
      <trkpt lat="40.265900" lon="-4.898850">
        <ele>2192.0</ele>
        <time>2015-03-15T14:02:08Z</time>
      </trkpt>
      <trkpt lat="40.265917" lon="-4.898933">
        <ele>2193.0</ele>
        <time>2015-03-15T14:02:09Z</time>
      </trkpt>
      <trkpt lat="40.265967" lon="-4.899000">
        <ele>2193.0</ele>
        <time>2015-03-15T14:02:10Z</time>
      </trkpt>
      <trkpt lat="40.266033" lon="-4.899067">
        <ele>2195.0</ele>
        <time>2015-03-15T14:02:11Z</time>
      </trkpt>
      <trkpt lat="40.266117" lon="-4.899100">
        <ele>2195.0</ele>
        <time>2015-03-15T14:02:12Z</time>
      </trkpt>
      <trkpt lat="40.266200" lon="-4.899117">
        <ele>2195.0</ele>
        <time>2015-03-15T14:02:13Z</time>
      </trkpt>
      <trkpt lat="40.266317" lon="-4.899083">
        <ele>2195.0</ele>
        <time>2015-03-15T14:02:14Z</time>
      </trkpt>
      <trkpt lat="40.266417" lon="-4.899017">
        <ele>2196.0</ele>
        <time>2015-03-15T14:02:15Z</time>
      </trkpt>
      <trkpt lat="40.266517" lon="-4.898933">
        <ele>2199.0</ele>
        <time>2015-03-15T14:02:16Z</time>
      </trkpt>
      <trkpt lat="40.266583" lon="-4.898850">
        <ele>2203.0</ele>
        <time>2015-03-15T14:02:17Z</time>
      </trkpt>
      <trkpt lat="40.266633" lon="-4.898767">
        <ele>2207.0</ele>
        <time>2015-03-15T14:02:18Z</time>
      </trkpt>
      <trkpt lat="40.266683" lon="-4.898667">
        <ele>2209.0</ele>
        <time>2015-03-15T14:02:19Z</time>
      </trkpt>
      <trkpt lat="40.266700" lon="-4.898550">
        <ele>2210.0</ele>
        <time>2015-03-15T14:02:20Z</time>
      </trkpt>
      <trkpt lat="40.266733" lon="-4.898417">
        <ele>2210.0</ele>
        <time>2015-03-15T14:02:21Z</time>
      </trkpt>
      <trkpt lat="40.266733" lon="-4.898267">
        <ele>2211.0</ele>
        <time>2015-03-15T14:02:22Z</time>
      </trkpt>
      <trkpt lat="40.266733" lon="-4.898117">
        <ele>2213.0</ele>
        <time>2015-03-15T14:02:23Z</time>
      </trkpt>
      <trkpt lat="40.266683" lon="-4.897967">
        <ele>2215.0</ele>
        <time>2015-03-15T14:02:24Z</time>
      </trkpt>
      <trkpt lat="40.266633" lon="-4.897850">
        <ele>2217.0</ele>
        <time>2015-03-15T14:02:25Z</time>
      </trkpt>
      <trkpt lat="40.266550" lon="-4.897750">
        <ele>2220.0</ele>
        <time>2015-03-15T14:02:26Z</time>
      </trkpt>
      <trkpt lat="40.266483" lon="-4.897650">
        <ele>2223.0</ele>
        <time>2015-03-15T14:02:27Z</time>
      </trkpt>
      <trkpt lat="40.266417" lon="-4.897583">
        <ele>2225.0</ele>
        <time>2015-03-15T14:02:28Z</time>
      </trkpt>
      <trkpt lat="40.266333" lon="-4.897533">
        <ele>2225.0</ele>
        <time>2015-03-15T14:02:29Z</time>
      </trkpt>
      <trkpt lat="40.266250" lon="-4.897500">
        <ele>2225.0</ele>
        <time>2015-03-15T14:02:30Z</time>
      </trkpt>
      <trkpt lat="40.266150" lon="-4.897467">
        <ele>2224.0</ele>
        <time>2015-03-15T14:02:31Z</time>
      </trkpt>
      <trkpt lat="40.266050" lon="-4.897467">
        <ele>2224.0</ele>
        <time>2015-03-15T14:02:32Z</time>
      </trkpt>
      <trkpt lat="40.265967" lon="-4.897467">
        <ele>2224.0</ele>
        <time>2015-03-15T14:02:33Z</time>
      </trkpt>
      <trkpt lat="40.265867" lon="-4.897483">
        <ele>2225.0</ele>
        <time>2015-03-15T14:02:34Z</time>
      </trkpt>
      <trkpt lat="40.265767" lon="-4.897500">
        <ele>2227.0</ele>
        <time>2015-03-15T14:02:35Z</time>
      </trkpt>
      <trkpt lat="40.265683" lon="-4.897533">
        <ele>2228.0</ele>
        <time>2015-03-15T14:02:36Z</time>
      </trkpt>
      <trkpt lat="40.265617" lon="-4.897533">
        <ele>2228.0</ele>
        <time>2015-03-15T14:02:37Z</time>
      </trkpt>
      <trkpt lat="40.265533" lon="-4.897550">
        <ele>2228.0</ele>
        <time>2015-03-15T14:02:38Z</time>
      </trkpt>
      <trkpt lat="40.265450" lon="-4.897567">
        <ele>2226.0</ele>
        <time>2015-03-15T14:02:39Z</time>
      </trkpt>
      <trkpt lat="40.265367" lon="-4.897600">
        <ele>2224.0</ele>
        <time>2015-03-15T14:02:40Z</time>
      </trkpt>
      <trkpt lat="40.265283" lon="-4.897650">
        <ele>2223.0</ele>
        <time>2015-03-15T14:02:41Z</time>
      </trkpt>
      <trkpt lat="40.265217" lon="-4.897717">
        <ele>2223.0</ele>
        <time>2015-03-15T14:02:42Z</time>
      </trkpt>
      <trkpt lat="40.265150" lon="-4.897783">
        <ele>2222.0</ele>
        <time>2015-03-15T14:02:43Z</time>
      </trkpt>
      <trkpt lat="40.265100" lon="-4.897833">
        <ele>2222.0</ele>
        <time>2015-03-15T14:02:44Z</time>
      </trkpt>
      <trkpt lat="40.265033" lon="-4.897900">
        <ele>2222.0</ele>
        <time>2015-03-15T14:02:45Z</time>
      </trkpt>
      <trkpt lat="40.265000" lon="-4.897967">
        <ele>2221.0</ele>
        <time>2015-03-15T14:02:46Z</time>
      </trkpt>
      <trkpt lat="40.264983" lon="-4.898033">
        <ele>2219.0</ele>
        <time>2015-03-15T14:02:47Z</time>
      </trkpt>
      <trkpt lat="40.265000" lon="-4.898133">
        <ele>2217.0</ele>
        <time>2015-03-15T14:02:48Z</time>
      </trkpt>
      <trkpt lat="40.265050" lon="-4.898217">
        <ele>2214.0</ele>
        <time>2015-03-15T14:02:49Z</time>
      </trkpt>
      <trkpt lat="40.265117" lon="-4.898283">
        <ele>2211.0</ele>
        <time>2015-03-15T14:02:50Z</time>
      </trkpt>
      <trkpt lat="40.265183" lon="-4.898333">
        <ele>2211.0</ele>
        <time>2015-03-15T14:02:51Z</time>
      </trkpt>
      <trkpt lat="40.265250" lon="-4.898383">
        <ele>2212.0</ele>
        <time>2015-03-15T14:02:52Z</time>
      </trkpt>
      <trkpt lat="40.265317" lon="-4.898400">
        <ele>2212.0</ele>
        <time>2015-03-15T14:02:53Z</time>
      </trkpt>
      <trkpt lat="40.265383" lon="-4.898400">
        <ele>2212.0</ele>
        <time>2015-03-15T14:02:54Z</time>
      </trkpt>
      <trkpt lat="40.265467" lon="-4.898383">
        <ele>2210.0</ele>
        <time>2015-03-15T14:02:55Z</time>
      </trkpt>
      <trkpt lat="40.265567" lon="-4.898350">
        <ele>2209.0</ele>
        <time>2015-03-15T14:02:56Z</time>
      </trkpt>
      <trkpt lat="40.265650" lon="-4.898300">
        <ele>2207.0</ele>
        <time>2015-03-15T14:02:57Z</time>
      </trkpt>
      <trkpt lat="40.265750" lon="-4.898250">
        <ele>2205.0</ele>
        <time>2015-03-15T14:02:58Z</time>
      </trkpt>
      <trkpt lat="40.265850" lon="-4.898183">
        <ele>2204.0</ele>
        <time>2015-03-15T14:02:59Z</time>
      </trkpt>
      <trkpt lat="40.265950" lon="-4.898100">
        <ele>2204.0</ele>
        <time>2015-03-15T14:03:00Z</time>
      </trkpt>
      <trkpt lat="40.266033" lon="-4.898033">
        <ele>2204.0</ele>
        <time>2015-03-15T14:03:01Z</time>
      </trkpt>
      <trkpt lat="40.266117" lon="-4.897950">
        <ele>2203.0</ele>
        <time>2015-03-15T14:03:02Z</time>
      </trkpt>
      <trkpt lat="40.266200" lon="-4.897867">
        <ele>2205.0</ele>
        <time>2015-03-15T14:03:03Z</time>
      </trkpt>
      <trkpt lat="40.266283" lon="-4.897783">
        <ele>2205.0</ele>
        <time>2015-03-15T14:03:04Z</time>
      </trkpt>
      <trkpt lat="40.266350" lon="-4.897683">
        <ele>2205.0</ele>
        <time>2015-03-15T14:03:05Z</time>
      </trkpt>
      <trkpt lat="40.266417" lon="-4.897583">
        <ele>2205.0</ele>
        <time>2015-03-15T14:03:06Z</time>
      </trkpt>
      <trkpt lat="40.266500" lon="-4.897467">
        <ele>2206.0</ele>
        <time>2015-03-15T14:03:07Z</time>
      </trkpt>
      <trkpt lat="40.266567" lon="-4.897350">
        <ele>2206.0</ele>
        <time>2015-03-15T14:03:08Z</time>
      </trkpt>
      <trkpt lat="40.266650" lon="-4.897250">
        <ele>2207.0</ele>
        <time>2015-03-15T14:03:09Z</time>
      </trkpt>
      <trkpt lat="40.266717" lon="-4.897150">
        <ele>2208.0</ele>
        <time>2015-03-15T14:03:10Z</time>
      </trkpt>
      <trkpt lat="40.266783" lon="-4.897067">
        <ele>2210.0</ele>
        <time>2015-03-15T14:03:11Z</time>
      </trkpt>
      <trkpt lat="40.266867" lon="-4.896983">
        <ele>2212.0</ele>
        <time>2015-03-15T14:03:12Z</time>
      </trkpt>
      <trkpt lat="40.266950" lon="-4.896933">
        <ele>2215.0</ele>
        <time>2015-03-15T14:03:13Z</time>
      </trkpt>
      <trkpt lat="40.267017" lon="-4.896867">
        <ele>2217.0</ele>
        <time>2015-03-15T14:03:14Z</time>
      </trkpt>
      <trkpt lat="40.267100" lon="-4.896800">
        <ele>2218.0</ele>
        <time>2015-03-15T14:03:15Z</time>
      </trkpt>
      <trkpt lat="40.267167" lon="-4.896733">
        <ele>2219.0</ele>
        <time>2015-03-15T14:03:16Z</time>
      </trkpt>
      <trkpt lat="40.267233" lon="-4.896667">
        <ele>2221.0</ele>
        <time>2015-03-15T14:03:17Z</time>
      </trkpt>
      <trkpt lat="40.267283" lon="-4.896567">
        <ele>2222.0</ele>
        <time>2015-03-15T14:03:18Z</time>
      </trkpt>
      <trkpt lat="40.267317" lon="-4.896433">
        <ele>2222.0</ele>
        <time>2015-03-15T14:03:19Z</time>
      </trkpt>
      <trkpt lat="40.267333" lon="-4.896283">
        <ele>2223.0</ele>
        <time>2015-03-15T14:03:20Z</time>
      </trkpt>
      <trkpt lat="40.267333" lon="-4.896150">
        <ele>2226.0</ele>
        <time>2015-03-15T14:03:21Z</time>
      </trkpt>
      <trkpt lat="40.267317" lon="-4.896017">
        <ele>2229.0</ele>
        <time>2015-03-15T14:03:22Z</time>
      </trkpt>
      <trkpt lat="40.267283" lon="-4.895917">
        <ele>2232.0</ele>
        <time>2015-03-15T14:03:23Z</time>
      </trkpt>
      <trkpt lat="40.267250" lon="-4.895817">
        <ele>2234.0</ele>
        <time>2015-03-15T14:03:24Z</time>
      </trkpt>
      <trkpt lat="40.267183" lon="-4.895733">
        <ele>2236.0</ele>
        <time>2015-03-15T14:03:25Z</time>
      </trkpt>
      <trkpt lat="40.267117" lon="-4.895650">
        <ele>2237.0</ele>
        <time>2015-03-15T14:03:26Z</time>
      </trkpt>
      <trkpt lat="40.267050" lon="-4.895583">
        <ele>2238.0</ele>
        <time>2015-03-15T14:03:27Z</time>
      </trkpt>
      <trkpt lat="40.266967" lon="-4.895533">
        <ele>2239.0</ele>
        <time>2015-03-15T14:03:28Z</time>
      </trkpt>
      <trkpt lat="40.266867" lon="-4.895500">
        <ele>2241.0</ele>
        <time>2015-03-15T14:03:29Z</time>
      </trkpt>
      <trkpt lat="40.266783" lon="-4.895483">
        <ele>2243.0</ele>
        <time>2015-03-15T14:03:30Z</time>
      </trkpt>
      <trkpt lat="40.266700" lon="-4.895500">
        <ele>2246.0</ele>
        <time>2015-03-15T14:03:31Z</time>
      </trkpt>
      <trkpt lat="40.266633" lon="-4.895517">
        <ele>2248.0</ele>
        <time>2015-03-15T14:03:32Z</time>
      </trkpt>
      <trkpt lat="40.266567" lon="-4.895567">
        <ele>2251.0</ele>
        <time>2015-03-15T14:03:33Z</time>
      </trkpt>
      <trkpt lat="40.266500" lon="-4.895600">
        <ele>2253.0</ele>
        <time>2015-03-15T14:03:34Z</time>
      </trkpt>
      <trkpt lat="40.266450" lon="-4.895667">
        <ele>2255.0</ele>
        <time>2015-03-15T14:03:35Z</time>
      </trkpt>
      <trkpt lat="40.266433" lon="-4.895733">
        <ele>2256.0</ele>
        <time>2015-03-15T14:03:36Z</time>
      </trkpt>
      <trkpt lat="40.266450" lon="-4.895817">
        <ele>2256.0</ele>
        <time>2015-03-15T14:03:37Z</time>
      </trkpt>
      <trkpt lat="40.266467" lon="-4.895900">
        <ele>2257.0</ele>
        <time>2015-03-15T14:03:38Z</time>
      </trkpt>
      <trkpt lat="40.266500" lon="-4.895967">
        <ele>2259.0</ele>
        <time>2015-03-15T14:03:39Z</time>
      </trkpt>
      <trkpt lat="40.266567" lon="-4.896017">
        <ele>2261.0</ele>
        <time>2015-03-15T14:03:40Z</time>
      </trkpt>
      <trkpt lat="40.266633" lon="-4.896050">
        <ele>2261.0</ele>
        <time>2015-03-15T14:03:41Z</time>
      </trkpt>
      <trkpt lat="40.266717" lon="-4.896050">
        <ele>2261.0</ele>
        <time>2015-03-15T14:03:42Z</time>
      </trkpt>
      <trkpt lat="40.266800" lon="-4.896050">
        <ele>2262.0</ele>
        <time>2015-03-15T14:03:43Z</time>
      </trkpt>
      <trkpt lat="40.266883" lon="-4.896050">
        <ele>2264.0</ele>
        <time>2015-03-15T14:03:44Z</time>
      </trkpt>
      <trkpt lat="40.266967" lon="-4.896017">
        <ele>2265.0</ele>
        <time>2015-03-15T14:03:45Z</time>
      </trkpt>
      <trkpt lat="40.267050" lon="-4.895967">
        <ele>2266.0</ele>
        <time>2015-03-15T14:03:46Z</time>
      </trkpt>
      <trkpt lat="40.267117" lon="-4.895883">
        <ele>2266.0</ele>
        <time>2015-03-15T14:03:47Z</time>
      </trkpt>
      <trkpt lat="40.267183" lon="-4.895767">
        <ele>2267.0</ele>
        <time>2015-03-15T14:03:48Z</time>
      </trkpt>
      <trkpt lat="40.267233" lon="-4.895650">
        <ele>2269.0</ele>
        <time>2015-03-15T14:03:49Z</time>
      </trkpt>
      <trkpt lat="40.267267" lon="-4.895550">
        <ele>2271.0</ele>
        <time>2015-03-15T14:03:50Z</time>
      </trkpt>
      <trkpt lat="40.267300" lon="-4.895433">
        <ele>2272.0</ele>
        <time>2015-03-15T14:03:51Z</time>
      </trkpt>
      <trkpt lat="40.267333" lon="-4.895300">
        <ele>2274.0</ele>
        <time>2015-03-15T14:03:52Z</time>
      </trkpt>
      <trkpt lat="40.267367" lon="-4.895183">
        <ele>2275.0</ele>
        <time>2015-03-15T14:03:53Z</time>
      </trkpt>
      <trkpt lat="40.267367" lon="-4.895067">
        <ele>2277.0</ele>
        <time>2015-03-15T14:03:54Z</time>
      </trkpt>
      <trkpt lat="40.267367" lon="-4.894933">
        <ele>2278.0</ele>
        <time>2015-03-15T14:03:55Z</time>
      </trkpt>
      <trkpt lat="40.267333" lon="-4.894800">
        <ele>2279.0</ele>
        <time>2015-03-15T14:03:56Z</time>
      </trkpt>
      <trkpt lat="40.267300" lon="-4.894683">
        <ele>2280.0</ele>
        <time>2015-03-15T14:03:57Z</time>
      </trkpt>
      <trkpt lat="40.267233" lon="-4.894583">
        <ele>2281.0</ele>
        <time>2015-03-15T14:03:58Z</time>
      </trkpt>
      <trkpt lat="40.267167" lon="-4.894500">
        <ele>2283.0</ele>
        <time>2015-03-15T14:03:59Z</time>
      </trkpt>
      <trkpt lat="40.267083" lon="-4.894433">
        <ele>2284.0</ele>
        <time>2015-03-15T14:04:00Z</time>
      </trkpt>
      <trkpt lat="40.267000" lon="-4.894400">
        <ele>2284.0</ele>
        <time>2015-03-15T14:04:01Z</time>
      </trkpt>
      <trkpt lat="40.266917" lon="-4.894383">
        <ele>2285.0</ele>
        <time>2015-03-15T14:04:02Z</time>
      </trkpt>
      <trkpt lat="40.266833" lon="-4.894417">
        <ele>2286.0</ele>
        <time>2015-03-15T14:04:03Z</time>
      </trkpt>
      <trkpt lat="40.266750" lon="-4.894467">
        <ele>2287.0</ele>
        <time>2015-03-15T14:04:04Z</time>
      </trkpt>
      <trkpt lat="40.266683" lon="-4.894517">
        <ele>2289.0</ele>
        <time>2015-03-15T14:04:05Z</time>
      </trkpt>
      <trkpt lat="40.266650" lon="-4.894600">
        <ele>2292.0</ele>
        <time>2015-03-15T14:04:06Z</time>
      </trkpt>
      <trkpt lat="40.266633" lon="-4.894667">
        <ele>2294.0</ele>
        <time>2015-03-15T14:04:07Z</time>
      </trkpt>
      <trkpt lat="40.266617" lon="-4.894733">
        <ele>2295.0</ele>
        <time>2015-03-15T14:04:08Z</time>
      </trkpt>
      <trkpt lat="40.266617" lon="-4.894800">
        <ele>2296.0</ele>
        <time>2015-03-15T14:04:09Z</time>
      </trkpt>
      <trkpt lat="40.266600" lon="-4.894867">
        <ele>2298.0</ele>
        <time>2015-03-15T14:04:10Z</time>
      </trkpt>
      <trkpt lat="40.266600" lon="-4.894917">
        <ele>2299.0</ele>
        <time>2015-03-15T14:04:11Z</time>
      </trkpt>
      <trkpt lat="40.266617" lon="-4.894967">
        <ele>2300.0</ele>
        <time>2015-03-15T14:04:12Z</time>
      </trkpt>
      <trkpt lat="40.266650" lon="-4.895017">
        <ele>2300.0</ele>
        <time>2015-03-15T14:04:13Z</time>
      </trkpt>
      <trkpt lat="40.266717" lon="-4.895067">
        <ele>2300.0</ele>
        <time>2015-03-15T14:04:14Z</time>
      </trkpt>
      <trkpt lat="40.266783" lon="-4.895083">
        <ele>2300.0</ele>
        <time>2015-03-15T14:04:15Z</time>
      </trkpt>
      <trkpt lat="40.266883" lon="-4.895067">
        <ele>2301.0</ele>
        <time>2015-03-15T14:04:16Z</time>
      </trkpt>
      <trkpt lat="40.266967" lon="-4.895033">
        <ele>2302.0</ele>
        <time>2015-03-15T14:04:17Z</time>
      </trkpt>
      <trkpt lat="40.267067" lon="-4.894983">
        <ele>2302.0</ele>
        <time>2015-03-15T14:04:18Z</time>
      </trkpt>
      <trkpt lat="40.267167" lon="-4.894917">
        <ele>2304.0</ele>
        <time>2015-03-15T14:04:19Z</time>
      </trkpt>
      <trkpt lat="40.267250" lon="-4.894850">
        <ele>2306.0</ele>
        <time>2015-03-15T14:04:20Z</time>
      </trkpt>
      <trkpt lat="40.267317" lon="-4.894800">
        <ele>2308.0</ele>
        <time>2015-03-15T14:04:21Z</time>
      </trkpt>
      <trkpt lat="40.267383" lon="-4.894733">
        <ele>2310.0</ele>
        <time>2015-03-15T14:04:22Z</time>
      </trkpt>
      <trkpt lat="40.267433" lon="-4.894650">
        <ele>2311.0</ele>
        <time>2015-03-15T14:04:23Z</time>
      </trkpt>
      <trkpt lat="40.267500" lon="-4.894583">
        <ele>2311.0</ele>
        <time>2015-03-15T14:04:24Z</time>
      </trkpt>
      <trkpt lat="40.267583" lon="-4.894500">
        <ele>2311.0</ele>
        <time>2015-03-15T14:04:25Z</time>
      </trkpt>
      <trkpt lat="40.267650" lon="-4.894400">
        <ele>2312.0</ele>
        <time>2015-03-15T14:04:26Z</time>
      </trkpt>
      <trkpt lat="40.267733" lon="-4.894317">
        <ele>2312.0</ele>
        <time>2015-03-15T14:04:27Z</time>
      </trkpt>
      <trkpt lat="40.267783" lon="-4.894200">
        <ele>2313.0</ele>
        <time>2015-03-15T14:04:28Z</time>
      </trkpt>
      <trkpt lat="40.267833" lon="-4.894067">
        <ele>2314.0</ele>
        <time>2015-03-15T14:04:29Z</time>
      </trkpt>
      <trkpt lat="40.267850" lon="-4.893900">
        <ele>2314.0</ele>
        <time>2015-03-15T14:04:30Z</time>
      </trkpt>
      <trkpt lat="40.267867" lon="-4.893750">
        <ele>2317.0</ele>
        <time>2015-03-15T14:04:31Z</time>
      </trkpt>
      <trkpt lat="40.267883" lon="-4.893600">
        <ele>2320.0</ele>
        <time>2015-03-15T14:04:32Z</time>
      </trkpt>
      <trkpt lat="40.267883" lon="-4.893450">
        <ele>2323.0</ele>
        <time>2015-03-15T14:04:33Z</time>
      </trkpt>
      <trkpt lat="40.267867" lon="-4.893333">
        <ele>2325.0</ele>
        <time>2015-03-15T14:04:34Z</time>
      </trkpt>
      <trkpt lat="40.267867" lon="-4.893200">
        <ele>2325.0</ele>
        <time>2015-03-15T14:04:35Z</time>
      </trkpt>
      <trkpt lat="40.267850" lon="-4.893083">
        <ele>2326.0</ele>
        <time>2015-03-15T14:04:36Z</time>
      </trkpt>
      <trkpt lat="40.267817" lon="-4.892950">
        <ele>2325.0</ele>
        <time>2015-03-15T14:04:37Z</time>
      </trkpt>
      <trkpt lat="40.267767" lon="-4.892833">
        <ele>2325.0</ele>
        <time>2015-03-15T14:04:38Z</time>
      </trkpt>
      <trkpt lat="40.267683" lon="-4.892733">
        <ele>2325.0</ele>
        <time>2015-03-15T14:04:39Z</time>
      </trkpt>
      <trkpt lat="40.267617" lon="-4.892667">
        <ele>2325.0</ele>
        <time>2015-03-15T14:04:40Z</time>
      </trkpt>
      <trkpt lat="40.267533" lon="-4.892600">
        <ele>2326.0</ele>
        <time>2015-03-15T14:04:41Z</time>
      </trkpt>
      <trkpt lat="40.267450" lon="-4.892533">
        <ele>2327.0</ele>
        <time>2015-03-15T14:04:42Z</time>
      </trkpt>
      <trkpt lat="40.267400" lon="-4.892433">
        <ele>2327.0</ele>
        <time>2015-03-15T14:04:43Z</time>
      </trkpt>
      <trkpt lat="40.267333" lon="-4.892317">
        <ele>2327.0</ele>
        <time>2015-03-15T14:04:44Z</time>
      </trkpt>
      <trkpt lat="40.267300" lon="-4.892183">
        <ele>2327.0</ele>
        <time>2015-03-15T14:04:45Z</time>
      </trkpt>
      <trkpt lat="40.267283" lon="-4.892033">
        <ele>2326.0</ele>
        <time>2015-03-15T14:04:46Z</time>
      </trkpt>
      <trkpt lat="40.267267" lon="-4.891900">
        <ele>2326.0</ele>
        <time>2015-03-15T14:04:47Z</time>
      </trkpt>
      <trkpt lat="40.267267" lon="-4.891733">
        <ele>2326.0</ele>
        <time>2015-03-15T14:04:48Z</time>
      </trkpt>
      <trkpt lat="40.267283" lon="-4.891583">
        <ele>2326.0</ele>
        <time>2015-03-15T14:04:49Z</time>
      </trkpt>
      <trkpt lat="40.267300" lon="-4.891433">
        <ele>2326.0</ele>
        <time>2015-03-15T14:04:50Z</time>
      </trkpt>
      <trkpt lat="40.267317" lon="-4.891300">
        <ele>2327.0</ele>
        <time>2015-03-15T14:04:51Z</time>
      </trkpt>
      <trkpt lat="40.267333" lon="-4.891167">
        <ele>2327.0</ele>
        <time>2015-03-15T14:04:52Z</time>
      </trkpt>
      <trkpt lat="40.267350" lon="-4.891017">
        <ele>2328.0</ele>
        <time>2015-03-15T14:04:53Z</time>
      </trkpt>
      <trkpt lat="40.267367" lon="-4.890883">
        <ele>2328.0</ele>
        <time>2015-03-15T14:04:54Z</time>
      </trkpt>
      <trkpt lat="40.267400" lon="-4.890733">
        <ele>2329.0</ele>
        <time>2015-03-15T14:04:55Z</time>
      </trkpt>
      <trkpt lat="40.267417" lon="-4.890600">
        <ele>2330.0</ele>
        <time>2015-03-15T14:04:56Z</time>
      </trkpt>
      <trkpt lat="40.267433" lon="-4.890467">
        <ele>2331.0</ele>
        <time>2015-03-15T14:04:57Z</time>
      </trkpt>
      <trkpt lat="40.267450" lon="-4.890333">
        <ele>2331.0</ele>
        <time>2015-03-15T14:04:58Z</time>
      </trkpt>
      <trkpt lat="40.267483" lon="-4.890217">
        <ele>2331.0</ele>
        <time>2015-03-15T14:04:59Z</time>
      </trkpt>
      <trkpt lat="40.267500" lon="-4.890083">
        <ele>2331.0</ele>
        <time>2015-03-15T14:05:00Z</time>
      </trkpt>
      <trkpt lat="40.267533" lon="-4.889933">
        <ele>2329.0</ele>
        <time>2015-03-15T14:05:01Z</time>
      </trkpt>
      <trkpt lat="40.267550" lon="-4.889800">
        <ele>2329.0</ele>
        <time>2015-03-15T14:05:02Z</time>
      </trkpt>
      <trkpt lat="40.267583" lon="-4.889650">
        <ele>2329.0</ele>
        <time>2015-03-15T14:05:03Z</time>
      </trkpt>
      <trkpt lat="40.267617" lon="-4.889517">
        <ele>2329.0</ele>
        <time>2015-03-15T14:05:04Z</time>
      </trkpt>
      <trkpt lat="40.267633" lon="-4.889383">
        <ele>2329.0</ele>
        <time>2015-03-15T14:05:05Z</time>
      </trkpt>
      <trkpt lat="40.267667" lon="-4.889250">
        <ele>2328.0</ele>
        <time>2015-03-15T14:05:06Z</time>
      </trkpt>
      <trkpt lat="40.267700" lon="-4.889117">
        <ele>2326.0</ele>
        <time>2015-03-15T14:05:07Z</time>
      </trkpt>
      <trkpt lat="40.267733" lon="-4.888967">
        <ele>2324.0</ele>
        <time>2015-03-15T14:05:08Z</time>
      </trkpt>
      <trkpt lat="40.267767" lon="-4.888833">
        <ele>2323.0</ele>
        <time>2015-03-15T14:05:09Z</time>
      </trkpt>
      <trkpt lat="40.267800" lon="-4.888683">
        <ele>2323.0</ele>
        <time>2015-03-15T14:05:10Z</time>
      </trkpt>
      <trkpt lat="40.267833" lon="-4.888567">
        <ele>2323.0</ele>
        <time>2015-03-15T14:05:11Z</time>
      </trkpt>
      <trkpt lat="40.267867" lon="-4.888450">
        <ele>2322.0</ele>
        <time>2015-03-15T14:05:12Z</time>
      </trkpt>
      <trkpt lat="40.267900" lon="-4.888333">
        <ele>2321.0</ele>
        <time>2015-03-15T14:05:13Z</time>
      </trkpt>
      <trkpt lat="40.267917" lon="-4.888217">
        <ele>2320.0</ele>
        <time>2015-03-15T14:05:14Z</time>
      </trkpt>
      <trkpt lat="40.267933" lon="-4.888100">
        <ele>2318.0</ele>
        <time>2015-03-15T14:05:15Z</time>
      </trkpt>
      <trkpt lat="40.267967" lon="-4.887967">
        <ele>2316.0</ele>
        <time>2015-03-15T14:05:16Z</time>
      </trkpt>
      <trkpt lat="40.268000" lon="-4.887833">
        <ele>2315.0</ele>
        <time>2015-03-15T14:05:17Z</time>
      </trkpt>
      <trkpt lat="40.268033" lon="-4.887717">
        <ele>2314.0</ele>
        <time>2015-03-15T14:05:18Z</time>
      </trkpt>
      <trkpt lat="40.268067" lon="-4.887583">
        <ele>2314.0</ele>
        <time>2015-03-15T14:05:19Z</time>
      </trkpt>
      <trkpt lat="40.268100" lon="-4.887467">
        <ele>2315.0</ele>
        <time>2015-03-15T14:05:20Z</time>
      </trkpt>
      <trkpt lat="40.268150" lon="-4.887367">
        <ele>2314.0</ele>
        <time>2015-03-15T14:05:21Z</time>
      </trkpt>
      <trkpt lat="40.268183" lon="-4.887267">
        <ele>2313.0</ele>
        <time>2015-03-15T14:05:22Z</time>
      </trkpt>
      <trkpt lat="40.268233" lon="-4.887150">
        <ele>2310.0</ele>
        <time>2015-03-15T14:05:23Z</time>
      </trkpt>
      <trkpt lat="40.268267" lon="-4.887033">
        <ele>2308.0</ele>
        <time>2015-03-15T14:05:24Z</time>
      </trkpt>
      <trkpt lat="40.268300" lon="-4.886900">
        <ele>2307.0</ele>
        <time>2015-03-15T14:05:25Z</time>
      </trkpt>
      <trkpt lat="40.268350" lon="-4.886767">
        <ele>2306.0</ele>
        <time>2015-03-15T14:05:26Z</time>
      </trkpt>
      <trkpt lat="40.268367" lon="-4.886650">
        <ele>2305.0</ele>
        <time>2015-03-15T14:05:27Z</time>
      </trkpt>
      <trkpt lat="40.268400" lon="-4.886533">
        <ele>2304.0</ele>
        <time>2015-03-15T14:05:28Z</time>
      </trkpt>
      <trkpt lat="40.268433" lon="-4.886400">
        <ele>2303.0</ele>
        <time>2015-03-15T14:05:29Z</time>
      </trkpt>
      <trkpt lat="40.268450" lon="-4.886267">
        <ele>2301.0</ele>
        <time>2015-03-15T14:05:30Z</time>
      </trkpt>
      <trkpt lat="40.268483" lon="-4.886117">
        <ele>2299.0</ele>
        <time>2015-03-15T14:05:31Z</time>
      </trkpt>
      <trkpt lat="40.268517" lon="-4.885983">
        <ele>2298.0</ele>
        <time>2015-03-15T14:05:32Z</time>
      </trkpt>
      <trkpt lat="40.268533" lon="-4.885833">
        <ele>2298.0</ele>
        <time>2015-03-15T14:05:33Z</time>
      </trkpt>
      <trkpt lat="40.268550" lon="-4.885683">
        <ele>2297.0</ele>
        <time>2015-03-15T14:05:34Z</time>
      </trkpt>
      <trkpt lat="40.268567" lon="-4.885550">
        <ele>2296.0</ele>
        <time>2015-03-15T14:05:35Z</time>
      </trkpt>
      <trkpt lat="40.268583" lon="-4.885417">
        <ele>2295.0</ele>
        <time>2015-03-15T14:05:36Z</time>
      </trkpt>
      <trkpt lat="40.268600" lon="-4.885283">
        <ele>2294.0</ele>
        <time>2015-03-15T14:05:37Z</time>
      </trkpt>
      <trkpt lat="40.268633" lon="-4.885133">
        <ele>2292.0</ele>
        <time>2015-03-15T14:05:38Z</time>
      </trkpt>
      <trkpt lat="40.268650" lon="-4.885000">
        <ele>2291.0</ele>
        <time>2015-03-15T14:05:39Z</time>
      </trkpt>
      <trkpt lat="40.268667" lon="-4.884850">
        <ele>2289.0</ele>
        <time>2015-03-15T14:05:40Z</time>
      </trkpt>
      <trkpt lat="40.268700" lon="-4.884700">
        <ele>2288.0</ele>
        <time>2015-03-15T14:05:41Z</time>
      </trkpt>
      <trkpt lat="40.268717" lon="-4.884550">
        <ele>2287.0</ele>
        <time>2015-03-15T14:05:42Z</time>
      </trkpt>
      <trkpt lat="40.268733" lon="-4.884417">
        <ele>2286.0</ele>
        <time>2015-03-15T14:05:43Z</time>
      </trkpt>
      <trkpt lat="40.268767" lon="-4.884283">
        <ele>2284.0</ele>
        <time>2015-03-15T14:05:44Z</time>
      </trkpt>
      <trkpt lat="40.268783" lon="-4.884133">
        <ele>2282.0</ele>
        <time>2015-03-15T14:05:45Z</time>
      </trkpt>
      <trkpt lat="40.268817" lon="-4.884000">
        <ele>2281.0</ele>
        <time>2015-03-15T14:05:46Z</time>
      </trkpt>
      <trkpt lat="40.268833" lon="-4.883850">
        <ele>2279.0</ele>
        <time>2015-03-15T14:05:47Z</time>
      </trkpt>
      <trkpt lat="40.268850" lon="-4.883717">
        <ele>2277.0</ele>
        <time>2015-03-15T14:05:48Z</time>
      </trkpt>
      <trkpt lat="40.268883" lon="-4.883567">
        <ele>2276.0</ele>
        <time>2015-03-15T14:05:49Z</time>
      </trkpt>
      <trkpt lat="40.268900" lon="-4.883433">
        <ele>2274.0</ele>
        <time>2015-03-15T14:05:50Z</time>
      </trkpt>
      <trkpt lat="40.268933" lon="-4.883300">
        <ele>2272.0</ele>
        <time>2015-03-15T14:05:51Z</time>
      </trkpt>
      <trkpt lat="40.268967" lon="-4.883167">
        <ele>2269.0</ele>
        <time>2015-03-15T14:05:52Z</time>
      </trkpt>
      <trkpt lat="40.268983" lon="-4.883017">
        <ele>2266.0</ele>
        <time>2015-03-15T14:05:53Z</time>
      </trkpt>
      <trkpt lat="40.269017" lon="-4.882867">
        <ele>2264.0</ele>
        <time>2015-03-15T14:05:54Z</time>
      </trkpt>
      <trkpt lat="40.269050" lon="-4.882717">
        <ele>2262.0</ele>
        <time>2015-03-15T14:05:55Z</time>
      </trkpt>
      <trkpt lat="40.269067" lon="-4.882583">
        <ele>2260.0</ele>
        <time>2015-03-15T14:05:56Z</time>
      </trkpt>
      <trkpt lat="40.269083" lon="-4.882433">
        <ele>2258.0</ele>
        <time>2015-03-15T14:05:57Z</time>
      </trkpt>
      <trkpt lat="40.269100" lon="-4.882300">
        <ele>2256.0</ele>
        <time>2015-03-15T14:05:58Z</time>
      </trkpt>
      <trkpt lat="40.269133" lon="-4.882150">
        <ele>2254.0</ele>
        <time>2015-03-15T14:05:59Z</time>
      </trkpt>
      <trkpt lat="40.269167" lon="-4.882017">
        <ele>2251.0</ele>
        <time>2015-03-15T14:06:00Z</time>
      </trkpt>
      <trkpt lat="40.269183" lon="-4.881883">
        <ele>2249.0</ele>
        <time>2015-03-15T14:06:01Z</time>
      </trkpt>
      <trkpt lat="40.269217" lon="-4.881733">
        <ele>2246.0</ele>
        <time>2015-03-15T14:06:02Z</time>
      </trkpt>
      <trkpt lat="40.269233" lon="-4.881583">
        <ele>2244.0</ele>
        <time>2015-03-15T14:06:03Z</time>
      </trkpt>
      <trkpt lat="40.269267" lon="-4.881433">
        <ele>2242.0</ele>
        <time>2015-03-15T14:06:04Z</time>
      </trkpt>
      <trkpt lat="40.269300" lon="-4.881283">
        <ele>2241.0</ele>
        <time>2015-03-15T14:06:05Z</time>
      </trkpt>
      <trkpt lat="40.269333" lon="-4.881117">
        <ele>2239.0</ele>
        <time>2015-03-15T14:06:06Z</time>
      </trkpt>
      <trkpt lat="40.269383" lon="-4.880967">
        <ele>2238.0</ele>
        <time>2015-03-15T14:06:07Z</time>
      </trkpt>
      <trkpt lat="40.269417" lon="-4.880817">
        <ele>2236.0</ele>
        <time>2015-03-15T14:06:08Z</time>
      </trkpt>
      <trkpt lat="40.269450" lon="-4.880650">
        <ele>2234.0</ele>
        <time>2015-03-15T14:06:09Z</time>
      </trkpt>
      <trkpt lat="40.269483" lon="-4.880483">
        <ele>2232.0</ele>
        <time>2015-03-15T14:06:10Z</time>
      </trkpt>
      <trkpt lat="40.269517" lon="-4.880317">
        <ele>2231.0</ele>
        <time>2015-03-15T14:06:11Z</time>
      </trkpt>
      <trkpt lat="40.269550" lon="-4.880167">
        <ele>2230.0</ele>
        <time>2015-03-15T14:06:12Z</time>
      </trkpt>
      <trkpt lat="40.269583" lon="-4.880000">
        <ele>2229.0</ele>
        <time>2015-03-15T14:06:13Z</time>
      </trkpt>
      <trkpt lat="40.269633" lon="-4.879850">
        <ele>2228.0</ele>
        <time>2015-03-15T14:06:14Z</time>
      </trkpt>
      <trkpt lat="40.269667" lon="-4.879700">
        <ele>2227.0</ele>
        <time>2015-03-15T14:06:15Z</time>
      </trkpt>
      <trkpt lat="40.269717" lon="-4.879550">
        <ele>2227.0</ele>
        <time>2015-03-15T14:06:16Z</time>
      </trkpt>
      <trkpt lat="40.269750" lon="-4.879417">
        <ele>2226.0</ele>
        <time>2015-03-15T14:06:17Z</time>
      </trkpt>
      <trkpt lat="40.269800" lon="-4.879267">
        <ele>2224.0</ele>
        <time>2015-03-15T14:06:18Z</time>
      </trkpt>
      <trkpt lat="40.269850" lon="-4.879117">
        <ele>2223.0</ele>
        <time>2015-03-15T14:06:19Z</time>
      </trkpt>
      <trkpt lat="40.269883" lon="-4.878967">
        <ele>2221.0</ele>
        <time>2015-03-15T14:06:20Z</time>
      </trkpt>
      <trkpt lat="40.269933" lon="-4.878800">
        <ele>2220.0</ele>
        <time>2015-03-15T14:06:21Z</time>
      </trkpt>
      <trkpt lat="40.269983" lon="-4.878650">
        <ele>2219.0</ele>
        <time>2015-03-15T14:06:22Z</time>
      </trkpt>
      <trkpt lat="40.270017" lon="-4.878500">
        <ele>2218.0</ele>
        <time>2015-03-15T14:06:23Z</time>
      </trkpt>
      <trkpt lat="40.270067" lon="-4.878333">
        <ele>2217.0</ele>
        <time>2015-03-15T14:06:24Z</time>
      </trkpt>
      <trkpt lat="40.270100" lon="-4.878183">
        <ele>2215.0</ele>
        <time>2015-03-15T14:06:25Z</time>
      </trkpt>
      <trkpt lat="40.270150" lon="-4.878033">
        <ele>2214.0</ele>
        <time>2015-03-15T14:06:26Z</time>
      </trkpt>
      <trkpt lat="40.270200" lon="-4.877883">
        <ele>2212.0</ele>
        <time>2015-03-15T14:06:27Z</time>
      </trkpt>
      <trkpt lat="40.270250" lon="-4.877733">
        <ele>2210.0</ele>
        <time>2015-03-15T14:06:28Z</time>
      </trkpt>
      <trkpt lat="40.270300" lon="-4.877583">
        <ele>2208.0</ele>
        <time>2015-03-15T14:06:29Z</time>
      </trkpt>
      <trkpt lat="40.270350" lon="-4.877433">
        <ele>2206.0</ele>
        <time>2015-03-15T14:06:30Z</time>
      </trkpt>
      <trkpt lat="40.270383" lon="-4.877267">
        <ele>2204.0</ele>
        <time>2015-03-15T14:06:31Z</time>
      </trkpt>
      <trkpt lat="40.270433" lon="-4.877117">
        <ele>2201.0</ele>
        <time>2015-03-15T14:06:32Z</time>
      </trkpt>
      <trkpt lat="40.270467" lon="-4.876950">
        <ele>2199.0</ele>
        <time>2015-03-15T14:06:33Z</time>
      </trkpt>
      <trkpt lat="40.270517" lon="-4.876783">
        <ele>2197.0</ele>
        <time>2015-03-15T14:06:34Z</time>
      </trkpt>
      <trkpt lat="40.270550" lon="-4.876633">
        <ele>2196.0</ele>
        <time>2015-03-15T14:06:35Z</time>
      </trkpt>
      <trkpt lat="40.270583" lon="-4.876467">
        <ele>2195.0</ele>
        <time>2015-03-15T14:06:36Z</time>
      </trkpt>
      <trkpt lat="40.270617" lon="-4.876317">
        <ele>2194.0</ele>
        <time>2015-03-15T14:06:37Z</time>
      </trkpt>
      <trkpt lat="40.270633" lon="-4.876167">
        <ele>2192.0</ele>
        <time>2015-03-15T14:06:38Z</time>
      </trkpt>
      <trkpt lat="40.270683" lon="-4.876017">
        <ele>2189.0</ele>
        <time>2015-03-15T14:06:39Z</time>
      </trkpt>
      <trkpt lat="40.270717" lon="-4.875850">
        <ele>2187.0</ele>
        <time>2015-03-15T14:06:40Z</time>
      </trkpt>
      <trkpt lat="40.270767" lon="-4.875683">
        <ele>2184.0</ele>
        <time>2015-03-15T14:06:41Z</time>
      </trkpt>
      <trkpt lat="40.270817" lon="-4.875500">
        <ele>2182.0</ele>
        <time>2015-03-15T14:06:42Z</time>
      </trkpt>
      <trkpt lat="40.270850" lon="-4.875333">
        <ele>2181.0</ele>
        <time>2015-03-15T14:06:43Z</time>
      </trkpt>
      <trkpt lat="40.270867" lon="-4.875167">
        <ele>2180.0</ele>
        <time>2015-03-15T14:06:44Z</time>
      </trkpt>
      <trkpt lat="40.270900" lon="-4.875017">
        <ele>2178.0</ele>
        <time>2015-03-15T14:06:45Z</time>
      </trkpt>
      <trkpt lat="40.270933" lon="-4.874850">
        <ele>2176.0</ele>
        <time>2015-03-15T14:06:46Z</time>
      </trkpt>
      <trkpt lat="40.270967" lon="-4.874700">
        <ele>2174.0</ele>
        <time>2015-03-15T14:06:47Z</time>
      </trkpt>
      <trkpt lat="40.271000" lon="-4.874533">
        <ele>2172.0</ele>
        <time>2015-03-15T14:06:48Z</time>
      </trkpt>
      <trkpt lat="40.271033" lon="-4.874367">
        <ele>2170.0</ele>
        <time>2015-03-15T14:06:49Z</time>
      </trkpt>
      <trkpt lat="40.271067" lon="-4.874200">
        <ele>2169.0</ele>
        <time>2015-03-15T14:06:50Z</time>
      </trkpt>
      <trkpt lat="40.271100" lon="-4.874050">
        <ele>2168.0</ele>
        <time>2015-03-15T14:06:51Z</time>
      </trkpt>
      <trkpt lat="40.271133" lon="-4.873900">
        <ele>2167.0</ele>
        <time>2015-03-15T14:06:52Z</time>
      </trkpt>
      <trkpt lat="40.271167" lon="-4.873767">
        <ele>2165.0</ele>
        <time>2015-03-15T14:06:53Z</time>
      </trkpt>
      <trkpt lat="40.271217" lon="-4.873617">
        <ele>2163.0</ele>
        <time>2015-03-15T14:06:54Z</time>
      </trkpt>
      <trkpt lat="40.271267" lon="-4.873450">
        <ele>2161.0</ele>
        <time>2015-03-15T14:06:55Z</time>
      </trkpt>
      <trkpt lat="40.271317" lon="-4.873283">
        <ele>2159.0</ele>
        <time>2015-03-15T14:06:56Z</time>
      </trkpt>
      <trkpt lat="40.271367" lon="-4.873117">
        <ele>2159.0</ele>
        <time>2015-03-15T14:06:57Z</time>
      </trkpt>
      <trkpt lat="40.271417" lon="-4.872967">
        <ele>2158.0</ele>
        <time>2015-03-15T14:06:58Z</time>
      </trkpt>
      <trkpt lat="40.271467" lon="-4.872800">
        <ele>2157.0</ele>
        <time>2015-03-15T14:06:59Z</time>
      </trkpt>
      <trkpt lat="40.271500" lon="-4.872650">
        <ele>2156.0</ele>
        <time>2015-03-15T14:07:00Z</time>
      </trkpt>
      <trkpt lat="40.271533" lon="-4.872483">
        <ele>2156.0</ele>
        <time>2015-03-15T14:07:01Z</time>
      </trkpt>
      <trkpt lat="40.271583" lon="-4.872333">
        <ele>2156.0</ele>
        <time>2015-03-15T14:07:02Z</time>
      </trkpt>
      <trkpt lat="40.271617" lon="-4.872200">
        <ele>2156.0</ele>
        <time>2015-03-15T14:07:03Z</time>
      </trkpt>
      <trkpt lat="40.271650" lon="-4.872050">
        <ele>2156.0</ele>
        <time>2015-03-15T14:07:04Z</time>
      </trkpt>
      <trkpt lat="40.271683" lon="-4.871917">
        <ele>2155.0</ele>
        <time>2015-03-15T14:07:05Z</time>
      </trkpt>
      <trkpt lat="40.271717" lon="-4.871783">
        <ele>2154.0</ele>
        <time>2015-03-15T14:07:06Z</time>
      </trkpt>
      <trkpt lat="40.271733" lon="-4.871633">
        <ele>2153.0</ele>
        <time>2015-03-15T14:07:07Z</time>
      </trkpt>
      <trkpt lat="40.271767" lon="-4.871483">
        <ele>2150.0</ele>
        <time>2015-03-15T14:07:08Z</time>
      </trkpt>
      <trkpt lat="40.271817" lon="-4.871317">
        <ele>2148.0</ele>
        <time>2015-03-15T14:07:09Z</time>
      </trkpt>
      <trkpt lat="40.271867" lon="-4.871150">
        <ele>2147.0</ele>
        <time>2015-03-15T14:07:10Z</time>
      </trkpt>
      <trkpt lat="40.271900" lon="-4.870983">
        <ele>2147.0</ele>
        <time>2015-03-15T14:07:11Z</time>
      </trkpt>
      <trkpt lat="40.271933" lon="-4.870833">
        <ele>2147.0</ele>
        <time>2015-03-15T14:07:12Z</time>
      </trkpt>
      <trkpt lat="40.271950" lon="-4.870700">
        <ele>2147.0</ele>
        <time>2015-03-15T14:07:13Z</time>
      </trkpt>
      <trkpt lat="40.271967" lon="-4.870550">
        <ele>2146.0</ele>
        <time>2015-03-15T14:07:14Z</time>
      </trkpt>
      <trkpt lat="40.271983" lon="-4.870400">
        <ele>2145.0</ele>
        <time>2015-03-15T14:07:15Z</time>
      </trkpt>
      <trkpt lat="40.272017" lon="-4.870250">
        <ele>2143.0</ele>
        <time>2015-03-15T14:07:16Z</time>
      </trkpt>
      <trkpt lat="40.272050" lon="-4.870100">
        <ele>2141.0</ele>
        <time>2015-03-15T14:07:17Z</time>
      </trkpt>
      <trkpt lat="40.272067" lon="-4.869950">
        <ele>2140.0</ele>
        <time>2015-03-15T14:07:18Z</time>
      </trkpt>
      <trkpt lat="40.272083" lon="-4.869800">
        <ele>2139.0</ele>
        <time>2015-03-15T14:07:19Z</time>
      </trkpt>
      <trkpt lat="40.272100" lon="-4.869650">
        <ele>2138.0</ele>
        <time>2015-03-15T14:07:20Z</time>
      </trkpt>
      <trkpt lat="40.272133" lon="-4.869500">
        <ele>2137.0</ele>
        <time>2015-03-15T14:07:21Z</time>
      </trkpt>
      <trkpt lat="40.272167" lon="-4.869367">
        <ele>2135.0</ele>
        <time>2015-03-15T14:07:22Z</time>
      </trkpt>
      <trkpt lat="40.272183" lon="-4.869200">
        <ele>2134.0</ele>
        <time>2015-03-15T14:07:23Z</time>
      </trkpt>
      <trkpt lat="40.272217" lon="-4.869050">
        <ele>2133.0</ele>
        <time>2015-03-15T14:07:24Z</time>
      </trkpt>
      <trkpt lat="40.272233" lon="-4.868917">
        <ele>2132.0</ele>
        <time>2015-03-15T14:07:25Z</time>
      </trkpt>
      <trkpt lat="40.272267" lon="-4.868767">
        <ele>2131.0</ele>
        <time>2015-03-15T14:07:26Z</time>
      </trkpt>
      <trkpt lat="40.272283" lon="-4.868617">
        <ele>2129.0</ele>
        <time>2015-03-15T14:07:27Z</time>
      </trkpt>
      <trkpt lat="40.272300" lon="-4.868467">
        <ele>2128.0</ele>
        <time>2015-03-15T14:07:28Z</time>
      </trkpt>
      <trkpt lat="40.272333" lon="-4.868300">
        <ele>2126.0</ele>
        <time>2015-03-15T14:07:29Z</time>
      </trkpt>
      <trkpt lat="40.272350" lon="-4.868150">
        <ele>2125.0</ele>
        <time>2015-03-15T14:07:30Z</time>
      </trkpt>
      <trkpt lat="40.272350" lon="-4.867983">
        <ele>2124.0</ele>
        <time>2015-03-15T14:07:31Z</time>
      </trkpt>
      <trkpt lat="40.272367" lon="-4.867817">
        <ele>2123.0</ele>
        <time>2015-03-15T14:07:32Z</time>
      </trkpt>
      <trkpt lat="40.272383" lon="-4.867667">
        <ele>2122.0</ele>
        <time>2015-03-15T14:07:33Z</time>
      </trkpt>
      <trkpt lat="40.272383" lon="-4.867500">
        <ele>2121.0</ele>
        <time>2015-03-15T14:07:34Z</time>
      </trkpt>
      <trkpt lat="40.272400" lon="-4.867333">
        <ele>2119.0</ele>
        <time>2015-03-15T14:07:35Z</time>
      </trkpt>
      <trkpt lat="40.272417" lon="-4.867183">
        <ele>2118.0</ele>
        <time>2015-03-15T14:07:36Z</time>
      </trkpt>
      <trkpt lat="40.272433" lon="-4.867017">
        <ele>2118.0</ele>
        <time>2015-03-15T14:07:37Z</time>
      </trkpt>
      <trkpt lat="40.272450" lon="-4.866867">
        <ele>2118.0</ele>
        <time>2015-03-15T14:07:38Z</time>
      </trkpt>
      <trkpt lat="40.272467" lon="-4.866700">
        <ele>2117.0</ele>
        <time>2015-03-15T14:07:39Z</time>
      </trkpt>
      <trkpt lat="40.272483" lon="-4.866550">
        <ele>2116.0</ele>
        <time>2015-03-15T14:07:40Z</time>
      </trkpt>
      <trkpt lat="40.272500" lon="-4.866400">
        <ele>2116.0</ele>
        <time>2015-03-15T14:07:41Z</time>
      </trkpt>
      <trkpt lat="40.272517" lon="-4.866233">
        <ele>2115.0</ele>
        <time>2015-03-15T14:07:42Z</time>
      </trkpt>
      <trkpt lat="40.272550" lon="-4.866067">
        <ele>2114.0</ele>
        <time>2015-03-15T14:07:43Z</time>
      </trkpt>
      <trkpt lat="40.272567" lon="-4.865900">
        <ele>2115.0</ele>
        <time>2015-03-15T14:07:44Z</time>
      </trkpt>
      <trkpt lat="40.272583" lon="-4.865750">
        <ele>2115.0</ele>
        <time>2015-03-15T14:07:45Z</time>
      </trkpt>
      <trkpt lat="40.272617" lon="-4.865600">
        <ele>2115.0</ele>
        <time>2015-03-15T14:07:46Z</time>
      </trkpt>
      <trkpt lat="40.272633" lon="-4.865433">
        <ele>2114.0</ele>
        <time>2015-03-15T14:07:47Z</time>
      </trkpt>
      <trkpt lat="40.272650" lon="-4.865283">
        <ele>2113.0</ele>
        <time>2015-03-15T14:07:48Z</time>
      </trkpt>
      <trkpt lat="40.272667" lon="-4.865133">
        <ele>2112.0</ele>
        <time>2015-03-15T14:07:49Z</time>
      </trkpt>
      <trkpt lat="40.272700" lon="-4.864983">
        <ele>2111.0</ele>
        <time>2015-03-15T14:07:50Z</time>
      </trkpt>
      <trkpt lat="40.272717" lon="-4.864833">
        <ele>2110.0</ele>
        <time>2015-03-15T14:07:51Z</time>
      </trkpt>
      <trkpt lat="40.272750" lon="-4.864667">
        <ele>2108.0</ele>
        <time>2015-03-15T14:07:52Z</time>
      </trkpt>
      <trkpt lat="40.272783" lon="-4.864517">
        <ele>2107.0</ele>
        <time>2015-03-15T14:07:53Z</time>
      </trkpt>
      <trkpt lat="40.272800" lon="-4.864350">
        <ele>2106.0</ele>
        <time>2015-03-15T14:07:54Z</time>
      </trkpt>
      <trkpt lat="40.272833" lon="-4.864183">
        <ele>2106.0</ele>
        <time>2015-03-15T14:07:55Z</time>
      </trkpt>
      <trkpt lat="40.272867" lon="-4.864033">
        <ele>2105.0</ele>
        <time>2015-03-15T14:07:56Z</time>
      </trkpt>
      <trkpt lat="40.272883" lon="-4.863867">
        <ele>2104.0</ele>
        <time>2015-03-15T14:07:57Z</time>
      </trkpt>
      <trkpt lat="40.272917" lon="-4.863717">
        <ele>2103.0</ele>
        <time>2015-03-15T14:07:58Z</time>
      </trkpt>
      <trkpt lat="40.272950" lon="-4.863567">
        <ele>2102.0</ele>
        <time>2015-03-15T14:07:59Z</time>
      </trkpt>
      <trkpt lat="40.272983" lon="-4.863417">
        <ele>2101.0</ele>
        <time>2015-03-15T14:08:00Z</time>
      </trkpt>
      <trkpt lat="40.273017" lon="-4.863250">
        <ele>2101.0</ele>
        <time>2015-03-15T14:08:01Z</time>
      </trkpt>
      <trkpt lat="40.273050" lon="-4.863100">
        <ele>2102.0</ele>
        <time>2015-03-15T14:08:02Z</time>
      </trkpt>
      <trkpt lat="40.273067" lon="-4.862950">
        <ele>2103.0</ele>
        <time>2015-03-15T14:08:03Z</time>
      </trkpt>
      <trkpt lat="40.273083" lon="-4.862833">
        <ele>2102.0</ele>
        <time>2015-03-15T14:08:04Z</time>
      </trkpt>
      <trkpt lat="40.273100" lon="-4.862683">
        <ele>2101.0</ele>
        <time>2015-03-15T14:08:05Z</time>
      </trkpt>
      <trkpt lat="40.273117" lon="-4.862550">
        <ele>2100.0</ele>
        <time>2015-03-15T14:08:06Z</time>
      </trkpt>
      <trkpt lat="40.273133" lon="-4.862417">
        <ele>2099.0</ele>
        <time>2015-03-15T14:08:07Z</time>
      </trkpt>
      <trkpt lat="40.273150" lon="-4.862283">
        <ele>2098.0</ele>
        <time>2015-03-15T14:08:08Z</time>
      </trkpt>
      <trkpt lat="40.273183" lon="-4.862150">
        <ele>2098.0</ele>
        <time>2015-03-15T14:08:09Z</time>
      </trkpt>
      <trkpt lat="40.273200" lon="-4.862017">
        <ele>2098.0</ele>
        <time>2015-03-15T14:08:10Z</time>
      </trkpt>
      <trkpt lat="40.273200" lon="-4.861900">
        <ele>2097.0</ele>
        <time>2015-03-15T14:08:11Z</time>
      </trkpt>
      <trkpt lat="40.273217" lon="-4.861767">
        <ele>2096.0</ele>
        <time>2015-03-15T14:08:12Z</time>
      </trkpt>
      <trkpt lat="40.273233" lon="-4.861633">
        <ele>2095.0</ele>
        <time>2015-03-15T14:08:13Z</time>
      </trkpt>
      <trkpt lat="40.273250" lon="-4.861517">
        <ele>2093.0</ele>
        <time>2015-03-15T14:08:14Z</time>
      </trkpt>
      <trkpt lat="40.273267" lon="-4.861367">
        <ele>2093.0</ele>
        <time>2015-03-15T14:08:15Z</time>
      </trkpt>
      <trkpt lat="40.273267" lon="-4.861250">
        <ele>2093.0</ele>
        <time>2015-03-15T14:08:16Z</time>
      </trkpt>
      <trkpt lat="40.273283" lon="-4.861117">
        <ele>2093.0</ele>
        <time>2015-03-15T14:08:17Z</time>
      </trkpt>
      <trkpt lat="40.273283" lon="-4.861000">
        <ele>2092.0</ele>
        <time>2015-03-15T14:08:18Z</time>
      </trkpt>
      <trkpt lat="40.273317" lon="-4.860867">
        <ele>2091.0</ele>
        <time>2015-03-15T14:08:19Z</time>
      </trkpt>
      <trkpt lat="40.273317" lon="-4.860733">
        <ele>2090.0</ele>
        <time>2015-03-15T14:08:20Z</time>
      </trkpt>
      <trkpt lat="40.273333" lon="-4.860600">
        <ele>2089.0</ele>
        <time>2015-03-15T14:08:21Z</time>
      </trkpt>
      <trkpt lat="40.273367" lon="-4.860467">
        <ele>2088.0</ele>
        <time>2015-03-15T14:08:22Z</time>
      </trkpt>
      <trkpt lat="40.273383" lon="-4.860333">
        <ele>2088.0</ele>
        <time>2015-03-15T14:08:23Z</time>
      </trkpt>
      <trkpt lat="40.273400" lon="-4.860217">
        <ele>2087.0</ele>
        <time>2015-03-15T14:08:24Z</time>
      </trkpt>
      <trkpt lat="40.273417" lon="-4.860083">
        <ele>2086.0</ele>
        <time>2015-03-15T14:08:25Z</time>
      </trkpt>
      <trkpt lat="40.273450" lon="-4.859933">
        <ele>2085.0</ele>
        <time>2015-03-15T14:08:26Z</time>
      </trkpt>
      <trkpt lat="40.273467" lon="-4.859800">
        <ele>2084.0</ele>
        <time>2015-03-15T14:08:27Z</time>
      </trkpt>
      <trkpt lat="40.273483" lon="-4.859650">
        <ele>2083.0</ele>
        <time>2015-03-15T14:08:28Z</time>
      </trkpt>
      <trkpt lat="40.273517" lon="-4.859500">
        <ele>2082.0</ele>
        <time>2015-03-15T14:08:29Z</time>
      </trkpt>
      <trkpt lat="40.273533" lon="-4.859367">
        <ele>2082.0</ele>
        <time>2015-03-15T14:08:30Z</time>
      </trkpt>
      <trkpt lat="40.273567" lon="-4.859233">
        <ele>2082.0</ele>
        <time>2015-03-15T14:08:31Z</time>
      </trkpt>
      <trkpt lat="40.273583" lon="-4.859083">
        <ele>2082.0</ele>
        <time>2015-03-15T14:08:32Z</time>
      </trkpt>
      <trkpt lat="40.273617" lon="-4.858950">
        <ele>2082.0</ele>
        <time>2015-03-15T14:08:33Z</time>
      </trkpt>
      <trkpt lat="40.273633" lon="-4.858800">
        <ele>2081.0</ele>
        <time>2015-03-15T14:08:34Z</time>
      </trkpt>
      <trkpt lat="40.273667" lon="-4.858650">
        <ele>2082.0</ele>
        <time>2015-03-15T14:08:35Z</time>
      </trkpt>
      <trkpt lat="40.273683" lon="-4.858517">
        <ele>2082.0</ele>
        <time>2015-03-15T14:08:36Z</time>
      </trkpt>
      <trkpt lat="40.273700" lon="-4.858367">
        <ele>2082.0</ele>
        <time>2015-03-15T14:08:37Z</time>
      </trkpt>
      <trkpt lat="40.273717" lon="-4.858233">
        <ele>2081.0</ele>
        <time>2015-03-15T14:08:38Z</time>
      </trkpt>
      <trkpt lat="40.273717" lon="-4.858083">
        <ele>2080.0</ele>
        <time>2015-03-15T14:08:39Z</time>
      </trkpt>
      <trkpt lat="40.273733" lon="-4.857933">
        <ele>2079.0</ele>
        <time>2015-03-15T14:08:40Z</time>
      </trkpt>
      <trkpt lat="40.273750" lon="-4.857783">
        <ele>2077.0</ele>
        <time>2015-03-15T14:08:41Z</time>
      </trkpt>
      <trkpt lat="40.273767" lon="-4.857633">
        <ele>2075.0</ele>
        <time>2015-03-15T14:08:42Z</time>
      </trkpt>
      <trkpt lat="40.273783" lon="-4.857483">
        <ele>2074.0</ele>
        <time>2015-03-15T14:08:43Z</time>
      </trkpt>
      <trkpt lat="40.273800" lon="-4.857333">
        <ele>2073.0</ele>
        <time>2015-03-15T14:08:44Z</time>
      </trkpt>
      <trkpt lat="40.273817" lon="-4.857183">
        <ele>2073.0</ele>
        <time>2015-03-15T14:08:45Z</time>
      </trkpt>
      <trkpt lat="40.273850" lon="-4.857033">
        <ele>2072.0</ele>
        <time>2015-03-15T14:08:46Z</time>
      </trkpt>
      <trkpt lat="40.273883" lon="-4.856883">
        <ele>2070.0</ele>
        <time>2015-03-15T14:08:47Z</time>
      </trkpt>
      <trkpt lat="40.273917" lon="-4.856733">
        <ele>2069.0</ele>
        <time>2015-03-15T14:08:48Z</time>
      </trkpt>
      <trkpt lat="40.273950" lon="-4.856583">
        <ele>2069.0</ele>
        <time>2015-03-15T14:08:49Z</time>
      </trkpt>
      <trkpt lat="40.273983" lon="-4.856417">
        <ele>2068.0</ele>
        <time>2015-03-15T14:08:50Z</time>
      </trkpt>
      <trkpt lat="40.274017" lon="-4.856267">
        <ele>2068.0</ele>
        <time>2015-03-15T14:08:51Z</time>
      </trkpt>
      <trkpt lat="40.274050" lon="-4.856117">
        <ele>2068.0</ele>
        <time>2015-03-15T14:08:52Z</time>
      </trkpt>
      <trkpt lat="40.274100" lon="-4.855967">
        <ele>2068.0</ele>
        <time>2015-03-15T14:08:53Z</time>
      </trkpt>
      <trkpt lat="40.274150" lon="-4.855800">
        <ele>2068.0</ele>
        <time>2015-03-15T14:08:54Z</time>
      </trkpt>
      <trkpt lat="40.274200" lon="-4.855650">
        <ele>2067.0</ele>
        <time>2015-03-15T14:08:55Z</time>
      </trkpt>
      <trkpt lat="40.274250" lon="-4.855500">
        <ele>2068.0</ele>
        <time>2015-03-15T14:08:56Z</time>
      </trkpt>
      <trkpt lat="40.274300" lon="-4.855350">
        <ele>2069.0</ele>
        <time>2015-03-15T14:08:57Z</time>
      </trkpt>
      <trkpt lat="40.274333" lon="-4.855217">
        <ele>2070.0</ele>
        <time>2015-03-15T14:08:58Z</time>
      </trkpt>
      <trkpt lat="40.274383" lon="-4.855067">
        <ele>2070.0</ele>
        <time>2015-03-15T14:08:59Z</time>
      </trkpt>
      <trkpt lat="40.274433" lon="-4.854917">
        <ele>2069.0</ele>
        <time>2015-03-15T14:09:00Z</time>
      </trkpt>
      <trkpt lat="40.274483" lon="-4.854783">
        <ele>2069.0</ele>
        <time>2015-03-15T14:09:01Z</time>
      </trkpt>
      <trkpt lat="40.274533" lon="-4.854633">
        <ele>2069.0</ele>
        <time>2015-03-15T14:09:02Z</time>
      </trkpt>
      <trkpt lat="40.274600" lon="-4.854500">
        <ele>2069.0</ele>
        <time>2015-03-15T14:09:03Z</time>
      </trkpt>
      <trkpt lat="40.274650" lon="-4.854367">
        <ele>2070.0</ele>
        <time>2015-03-15T14:09:04Z</time>
      </trkpt>
      <trkpt lat="40.274700" lon="-4.854233">
        <ele>2071.0</ele>
        <time>2015-03-15T14:09:05Z</time>
      </trkpt>
      <trkpt lat="40.274750" lon="-4.854100">
        <ele>2072.0</ele>
        <time>2015-03-15T14:09:06Z</time>
      </trkpt>
      <trkpt lat="40.274800" lon="-4.853983">
        <ele>2072.0</ele>
        <time>2015-03-15T14:09:07Z</time>
      </trkpt>
      <trkpt lat="40.274850" lon="-4.853867">
        <ele>2072.0</ele>
        <time>2015-03-15T14:09:08Z</time>
      </trkpt>
      <trkpt lat="40.274917" lon="-4.853733">
        <ele>2072.0</ele>
        <time>2015-03-15T14:09:09Z</time>
      </trkpt>
      <trkpt lat="40.274983" lon="-4.853600">
        <ele>2072.0</ele>
        <time>2015-03-15T14:09:10Z</time>
      </trkpt>
      <trkpt lat="40.275050" lon="-4.853483">
        <ele>2072.0</ele>
        <time>2015-03-15T14:09:11Z</time>
      </trkpt>
      <trkpt lat="40.275117" lon="-4.853350">
        <ele>2072.0</ele>
        <time>2015-03-15T14:09:12Z</time>
      </trkpt>
      <trkpt lat="40.275183" lon="-4.853217">
        <ele>2073.0</ele>
        <time>2015-03-15T14:09:13Z</time>
      </trkpt>
      <trkpt lat="40.275233" lon="-4.853083">
        <ele>2073.0</ele>
        <time>2015-03-15T14:09:14Z</time>
      </trkpt>
      <trkpt lat="40.275300" lon="-4.852950">
        <ele>2073.0</ele>
        <time>2015-03-15T14:09:15Z</time>
      </trkpt>
      <trkpt lat="40.275350" lon="-4.852817">
        <ele>2074.0</ele>
        <time>2015-03-15T14:09:16Z</time>
      </trkpt>
      <trkpt lat="40.275400" lon="-4.852667">
        <ele>2074.0</ele>
        <time>2015-03-15T14:09:17Z</time>
      </trkpt>
      <trkpt lat="40.275450" lon="-4.852533">
        <ele>2076.0</ele>
        <time>2015-03-15T14:09:18Z</time>
      </trkpt>
      <trkpt lat="40.275500" lon="-4.852400">
        <ele>2078.0</ele>
        <time>2015-03-15T14:09:19Z</time>
      </trkpt>
      <trkpt lat="40.275550" lon="-4.852283">
        <ele>2079.0</ele>
        <time>2015-03-15T14:09:20Z</time>
      </trkpt>
      <trkpt lat="40.275583" lon="-4.852150">
        <ele>2079.0</ele>
        <time>2015-03-15T14:09:21Z</time>
      </trkpt>
      <trkpt lat="40.275617" lon="-4.852033">
        <ele>2078.0</ele>
        <time>2015-03-15T14:09:22Z</time>
      </trkpt>
      <trkpt lat="40.275650" lon="-4.851900">
        <ele>2077.0</ele>
        <time>2015-03-15T14:09:23Z</time>
      </trkpt>
      <trkpt lat="40.275700" lon="-4.851767">
        <ele>2076.0</ele>
        <time>2015-03-15T14:09:24Z</time>
      </trkpt>
      <trkpt lat="40.275750" lon="-4.851633">
        <ele>2074.0</ele>
        <time>2015-03-15T14:09:25Z</time>
      </trkpt>
      <trkpt lat="40.275800" lon="-4.851500">
        <ele>2074.0</ele>
        <time>2015-03-15T14:09:26Z</time>
      </trkpt>
      <trkpt lat="40.275850" lon="-4.851367">
        <ele>2073.0</ele>
        <time>2015-03-15T14:09:27Z</time>
      </trkpt>
      <trkpt lat="40.275883" lon="-4.851233">
        <ele>2072.0</ele>
        <time>2015-03-15T14:09:28Z</time>
      </trkpt>
      <trkpt lat="40.275917" lon="-4.851117">
        <ele>2071.0</ele>
        <time>2015-03-15T14:09:29Z</time>
      </trkpt>
      <trkpt lat="40.275950" lon="-4.850967">
        <ele>2069.0</ele>
        <time>2015-03-15T14:09:30Z</time>
      </trkpt>
      <trkpt lat="40.276000" lon="-4.850833">
        <ele>2068.0</ele>
        <time>2015-03-15T14:09:31Z</time>
      </trkpt>
      <trkpt lat="40.276033" lon="-4.850700">
        <ele>2067.0</ele>
        <time>2015-03-15T14:09:32Z</time>
      </trkpt>
      <trkpt lat="40.276083" lon="-4.850583">
        <ele>2067.0</ele>
        <time>2015-03-15T14:09:33Z</time>
      </trkpt>
      <trkpt lat="40.276117" lon="-4.850450">
        <ele>2066.0</ele>
        <time>2015-03-15T14:09:34Z</time>
      </trkpt>
      <trkpt lat="40.276150" lon="-4.850333">
        <ele>2065.0</ele>
        <time>2015-03-15T14:09:35Z</time>
      </trkpt>
      <trkpt lat="40.276200" lon="-4.850200">
        <ele>2063.0</ele>
        <time>2015-03-15T14:09:36Z</time>
      </trkpt>
      <trkpt lat="40.276217" lon="-4.850067">
        <ele>2061.0</ele>
        <time>2015-03-15T14:09:37Z</time>
      </trkpt>
      <trkpt lat="40.276250" lon="-4.849917">
        <ele>2060.0</ele>
        <time>2015-03-15T14:09:38Z</time>
      </trkpt>
      <trkpt lat="40.276283" lon="-4.849783">
        <ele>2058.0</ele>
        <time>2015-03-15T14:09:39Z</time>
      </trkpt>
      <trkpt lat="40.276300" lon="-4.849633">
        <ele>2057.0</ele>
        <time>2015-03-15T14:09:40Z</time>
      </trkpt>
      <trkpt lat="40.276350" lon="-4.849500">
        <ele>2057.0</ele>
        <time>2015-03-15T14:09:41Z</time>
      </trkpt>
      <trkpt lat="40.276383" lon="-4.849383">
        <ele>2056.0</ele>
        <time>2015-03-15T14:09:42Z</time>
      </trkpt>
      <trkpt lat="40.276433" lon="-4.849250">
        <ele>2054.0</ele>
        <time>2015-03-15T14:09:43Z</time>
      </trkpt>
      <trkpt lat="40.276467" lon="-4.849117">
        <ele>2053.0</ele>
        <time>2015-03-15T14:09:44Z</time>
      </trkpt>
      <trkpt lat="40.276517" lon="-4.848983">
        <ele>2051.0</ele>
        <time>2015-03-15T14:09:45Z</time>
      </trkpt>
      <trkpt lat="40.276567" lon="-4.848850">
        <ele>2049.0</ele>
        <time>2015-03-15T14:09:46Z</time>
      </trkpt>
      <trkpt lat="40.276617" lon="-4.848733">
        <ele>2048.0</ele>
        <time>2015-03-15T14:09:47Z</time>
      </trkpt>
      <trkpt lat="40.276667" lon="-4.848617">
        <ele>2046.0</ele>
        <time>2015-03-15T14:09:48Z</time>
      </trkpt>
      <trkpt lat="40.276733" lon="-4.848500">
        <ele>2045.0</ele>
        <time>2015-03-15T14:09:49Z</time>
      </trkpt>
      <trkpt lat="40.276800" lon="-4.848383">
        <ele>2043.0</ele>
        <time>2015-03-15T14:09:50Z</time>
      </trkpt>
      <trkpt lat="40.276867" lon="-4.848267">
        <ele>2042.0</ele>
        <time>2015-03-15T14:09:51Z</time>
      </trkpt>
      <trkpt lat="40.276917" lon="-4.848133">
        <ele>2040.0</ele>
        <time>2015-03-15T14:09:52Z</time>
      </trkpt>
      <trkpt lat="40.277000" lon="-4.848017">
        <ele>2039.0</ele>
        <time>2015-03-15T14:09:53Z</time>
      </trkpt>
      <trkpt lat="40.277067" lon="-4.847900">
        <ele>2037.0</ele>
        <time>2015-03-15T14:09:54Z</time>
      </trkpt>
      <trkpt lat="40.277133" lon="-4.847783">
        <ele>2036.0</ele>
        <time>2015-03-15T14:09:55Z</time>
      </trkpt>
      <trkpt lat="40.277200" lon="-4.847650">
        <ele>2035.0</ele>
        <time>2015-03-15T14:09:56Z</time>
      </trkpt>
      <trkpt lat="40.277250" lon="-4.847517">
        <ele>2034.0</ele>
        <time>2015-03-15T14:09:57Z</time>
      </trkpt>
      <trkpt lat="40.277317" lon="-4.847400">
        <ele>2033.0</ele>
        <time>2015-03-15T14:09:58Z</time>
      </trkpt>
      <trkpt lat="40.277383" lon="-4.847283">
        <ele>2032.0</ele>
        <time>2015-03-15T14:09:59Z</time>
      </trkpt>
      <trkpt lat="40.277467" lon="-4.847167">
        <ele>2030.0</ele>
        <time>2015-03-15T14:10:00Z</time>
      </trkpt>
      <trkpt lat="40.277533" lon="-4.847050">
        <ele>2028.0</ele>
        <time>2015-03-15T14:10:01Z</time>
      </trkpt>
      <trkpt lat="40.277617" lon="-4.846933">
        <ele>2027.0</ele>
        <time>2015-03-15T14:10:02Z</time>
      </trkpt>
      <trkpt lat="40.277683" lon="-4.846800">
        <ele>2025.0</ele>
        <time>2015-03-15T14:10:03Z</time>
      </trkpt>
      <trkpt lat="40.277767" lon="-4.846683">
        <ele>2024.0</ele>
        <time>2015-03-15T14:10:04Z</time>
      </trkpt>
      <trkpt lat="40.277833" lon="-4.846567">
        <ele>2022.0</ele>
        <time>2015-03-15T14:10:05Z</time>
      </trkpt>
      <trkpt lat="40.277917" lon="-4.846450">
        <ele>2020.0</ele>
        <time>2015-03-15T14:10:06Z</time>
      </trkpt>
      <trkpt lat="40.278000" lon="-4.846333">
        <ele>2018.0</ele>
        <time>2015-03-15T14:10:07Z</time>
      </trkpt>
      <trkpt lat="40.278100" lon="-4.846217">
        <ele>2016.0</ele>
        <time>2015-03-15T14:10:08Z</time>
      </trkpt>
      <trkpt lat="40.278183" lon="-4.846083">
        <ele>2015.0</ele>
        <time>2015-03-15T14:10:09Z</time>
      </trkpt>
      <trkpt lat="40.278267" lon="-4.845967">
        <ele>2015.0</ele>
        <time>2015-03-15T14:10:10Z</time>
      </trkpt>
      <trkpt lat="40.278350" lon="-4.845867">
        <ele>2015.0</ele>
        <time>2015-03-15T14:10:11Z</time>
      </trkpt>
      <trkpt lat="40.278417" lon="-4.845767">
        <ele>2015.0</ele>
        <time>2015-03-15T14:10:12Z</time>
      </trkpt>
      <trkpt lat="40.278483" lon="-4.845683">
        <ele>2014.0</ele>
        <time>2015-03-15T14:10:13Z</time>
      </trkpt>
      <trkpt lat="40.278550" lon="-4.845617">
        <ele>2011.0</ele>
        <time>2015-03-15T14:10:14Z</time>
      </trkpt>
      <trkpt lat="40.278600" lon="-4.845517">
        <ele>2009.0</ele>
        <time>2015-03-15T14:10:15Z</time>
      </trkpt>
      <trkpt lat="40.278667" lon="-4.845417">
        <ele>2005.0</ele>
        <time>2015-03-15T14:10:16Z</time>
      </trkpt>
      <trkpt lat="40.278733" lon="-4.845283">
        <ele>2002.0</ele>
        <time>2015-03-15T14:10:17Z</time>
      </trkpt>
      <trkpt lat="40.278783" lon="-4.845133">
        <ele>2000.0</ele>
        <time>2015-03-15T14:10:18Z</time>
      </trkpt>
      <trkpt lat="40.278833" lon="-4.844983">
        <ele>2000.0</ele>
        <time>2015-03-15T14:10:19Z</time>
      </trkpt>
      <trkpt lat="40.278850" lon="-4.844833">
        <ele>1999.0</ele>
        <time>2015-03-15T14:10:20Z</time>
      </trkpt>
      <trkpt lat="40.278883" lon="-4.844683">
        <ele>1999.0</ele>
        <time>2015-03-15T14:10:21Z</time>
      </trkpt>
      <trkpt lat="40.278900" lon="-4.844533">
        <ele>1998.0</ele>
        <time>2015-03-15T14:10:22Z</time>
      </trkpt>
      <trkpt lat="40.278933" lon="-4.844383">
        <ele>1996.0</ele>
        <time>2015-03-15T14:10:23Z</time>
      </trkpt>
      <trkpt lat="40.278967" lon="-4.844233">
        <ele>1995.0</ele>
        <time>2015-03-15T14:10:24Z</time>
      </trkpt>
      <trkpt lat="40.279000" lon="-4.844083">
        <ele>1993.0</ele>
        <time>2015-03-15T14:10:25Z</time>
      </trkpt>
      <trkpt lat="40.279033" lon="-4.843933">
        <ele>1992.0</ele>
        <time>2015-03-15T14:10:26Z</time>
      </trkpt>
      <trkpt lat="40.279067" lon="-4.843783">
        <ele>1990.0</ele>
        <time>2015-03-15T14:10:27Z</time>
      </trkpt>
      <trkpt lat="40.279100" lon="-4.843650">
        <ele>1989.0</ele>
        <time>2015-03-15T14:10:28Z</time>
      </trkpt>
      <trkpt lat="40.279133" lon="-4.843517">
        <ele>1987.0</ele>
        <time>2015-03-15T14:10:29Z</time>
      </trkpt>
      <trkpt lat="40.279183" lon="-4.843383">
        <ele>1985.0</ele>
        <time>2015-03-15T14:10:30Z</time>
      </trkpt>
      <trkpt lat="40.279217" lon="-4.843250">
        <ele>1984.0</ele>
        <time>2015-03-15T14:10:31Z</time>
      </trkpt>
      <trkpt lat="40.279250" lon="-4.843100">
        <ele>1982.0</ele>
        <time>2015-03-15T14:10:32Z</time>
      </trkpt>
      <trkpt lat="40.279283" lon="-4.842950">
        <ele>1980.0</ele>
        <time>2015-03-15T14:10:33Z</time>
      </trkpt>
      <trkpt lat="40.279317" lon="-4.842800">
        <ele>1979.0</ele>
        <time>2015-03-15T14:10:34Z</time>
      </trkpt>
      <trkpt lat="40.279350" lon="-4.842633">
        <ele>1978.0</ele>
        <time>2015-03-15T14:10:35Z</time>
      </trkpt>
      <trkpt lat="40.279367" lon="-4.842483">
        <ele>1977.0</ele>
        <time>2015-03-15T14:10:36Z</time>
      </trkpt>
      <trkpt lat="40.279400" lon="-4.842333">
        <ele>1976.0</ele>
        <time>2015-03-15T14:10:37Z</time>
      </trkpt>
      <trkpt lat="40.279417" lon="-4.842183">
        <ele>1975.0</ele>
        <time>2015-03-15T14:10:38Z</time>
      </trkpt>
      <trkpt lat="40.279450" lon="-4.842017">
        <ele>1973.0</ele>
        <time>2015-03-15T14:10:39Z</time>
      </trkpt>
      <trkpt lat="40.279467" lon="-4.841867">
        <ele>1972.0</ele>
        <time>2015-03-15T14:10:40Z</time>
      </trkpt>
      <trkpt lat="40.279483" lon="-4.841700">
        <ele>1970.0</ele>
        <time>2015-03-15T14:10:41Z</time>
      </trkpt>
      <trkpt lat="40.279517" lon="-4.841533">
        <ele>1969.0</ele>
        <time>2015-03-15T14:10:42Z</time>
      </trkpt>
      <trkpt lat="40.279550" lon="-4.841367">
        <ele>1967.0</ele>
        <time>2015-03-15T14:10:43Z</time>
      </trkpt>
      <trkpt lat="40.279583" lon="-4.841217">
        <ele>1967.0</ele>
        <time>2015-03-15T14:10:44Z</time>
      </trkpt>
      <trkpt lat="40.279617" lon="-4.841083">
        <ele>1966.0</ele>
        <time>2015-03-15T14:10:45Z</time>
      </trkpt>
      <trkpt lat="40.279650" lon="-4.840933">
        <ele>1966.0</ele>
        <time>2015-03-15T14:10:46Z</time>
      </trkpt>
      <trkpt lat="40.279683" lon="-4.840800">
        <ele>1965.0</ele>
        <time>2015-03-15T14:10:47Z</time>
      </trkpt>
      <trkpt lat="40.279700" lon="-4.840650">
        <ele>1963.0</ele>
        <time>2015-03-15T14:10:48Z</time>
      </trkpt>
      <trkpt lat="40.279717" lon="-4.840500">
        <ele>1961.0</ele>
        <time>2015-03-15T14:10:49Z</time>
      </trkpt>
      <trkpt lat="40.279750" lon="-4.840350">
        <ele>1959.0</ele>
        <time>2015-03-15T14:10:50Z</time>
      </trkpt>
      <trkpt lat="40.279783" lon="-4.840183">
        <ele>1958.0</ele>
        <time>2015-03-15T14:10:51Z</time>
      </trkpt>
      <trkpt lat="40.279800" lon="-4.840033">
        <ele>1957.0</ele>
        <time>2015-03-15T14:10:52Z</time>
      </trkpt>
      <trkpt lat="40.279817" lon="-4.839900">
        <ele>1956.0</ele>
        <time>2015-03-15T14:10:53Z</time>
      </trkpt>
      <trkpt lat="40.279833" lon="-4.839750">
        <ele>1955.0</ele>
        <time>2015-03-15T14:10:54Z</time>
      </trkpt>
      <trkpt lat="40.279850" lon="-4.839617">
        <ele>1954.0</ele>
        <time>2015-03-15T14:10:55Z</time>
      </trkpt>
      <trkpt lat="40.279867" lon="-4.839483">
        <ele>1952.0</ele>
        <time>2015-03-15T14:10:56Z</time>
      </trkpt>
      <trkpt lat="40.279883" lon="-4.839333">
        <ele>1949.0</ele>
        <time>2015-03-15T14:10:57Z</time>
      </trkpt>
      <trkpt lat="40.279917" lon="-4.839183">
        <ele>1947.0</ele>
        <time>2015-03-15T14:10:58Z</time>
      </trkpt>
      <trkpt lat="40.279933" lon="-4.839033">
        <ele>1945.0</ele>
        <time>2015-03-15T14:10:59Z</time>
      </trkpt>
      <trkpt lat="40.279967" lon="-4.838883">
        <ele>1943.0</ele>
        <time>2015-03-15T14:11:00Z</time>
      </trkpt>
      <trkpt lat="40.279983" lon="-4.838733">
        <ele>1942.0</ele>
        <time>2015-03-15T14:11:01Z</time>
      </trkpt>
      <trkpt lat="40.280017" lon="-4.838583">
        <ele>1942.0</ele>
        <time>2015-03-15T14:11:02Z</time>
      </trkpt>
      <trkpt lat="40.280050" lon="-4.838433">
        <ele>1941.0</ele>
        <time>2015-03-15T14:11:03Z</time>
      </trkpt>
      <trkpt lat="40.280083" lon="-4.838300">
        <ele>1941.0</ele>
        <time>2015-03-15T14:11:04Z</time>
      </trkpt>
      <trkpt lat="40.280117" lon="-4.838167">
        <ele>1940.0</ele>
        <time>2015-03-15T14:11:05Z</time>
      </trkpt>
      <trkpt lat="40.280150" lon="-4.838017">
        <ele>1939.0</ele>
        <time>2015-03-15T14:11:06Z</time>
      </trkpt>
      <trkpt lat="40.280183" lon="-4.837883">
        <ele>1938.0</ele>
        <time>2015-03-15T14:11:07Z</time>
      </trkpt>
      <trkpt lat="40.280217" lon="-4.837733">
        <ele>1937.0</ele>
        <time>2015-03-15T14:11:08Z</time>
      </trkpt>
      <trkpt lat="40.280250" lon="-4.837583">
        <ele>1936.0</ele>
        <time>2015-03-15T14:11:09Z</time>
      </trkpt>
      <trkpt lat="40.280300" lon="-4.837433">
        <ele>1936.0</ele>
        <time>2015-03-15T14:11:10Z</time>
      </trkpt>
      <trkpt lat="40.280317" lon="-4.837283">
        <ele>1937.0</ele>
        <time>2015-03-15T14:11:11Z</time>
      </trkpt>
      <trkpt lat="40.280367" lon="-4.837150">
        <ele>1937.0</ele>
        <time>2015-03-15T14:11:12Z</time>
      </trkpt>
      <trkpt lat="40.280400" lon="-4.837000">
        <ele>1936.0</ele>
        <time>2015-03-15T14:11:13Z</time>
      </trkpt>
      <trkpt lat="40.280450" lon="-4.836867">
        <ele>1935.0</ele>
        <time>2015-03-15T14:11:14Z</time>
      </trkpt>
      <trkpt lat="40.280500" lon="-4.836717">
        <ele>1935.0</ele>
        <time>2015-03-15T14:11:15Z</time>
      </trkpt>
      <trkpt lat="40.280533" lon="-4.836583">
        <ele>1934.0</ele>
        <time>2015-03-15T14:11:16Z</time>
      </trkpt>
      <trkpt lat="40.280583" lon="-4.836433">
        <ele>1935.0</ele>
        <time>2015-03-15T14:11:17Z</time>
      </trkpt>
      <trkpt lat="40.280633" lon="-4.836300">
        <ele>1935.0</ele>
        <time>2015-03-15T14:11:18Z</time>
      </trkpt>
      <trkpt lat="40.280683" lon="-4.836183">
        <ele>1935.0</ele>
        <time>2015-03-15T14:11:19Z</time>
      </trkpt>
      <trkpt lat="40.280733" lon="-4.836067">
        <ele>1935.0</ele>
        <time>2015-03-15T14:11:20Z</time>
      </trkpt>
      <trkpt lat="40.280783" lon="-4.835933">
        <ele>1935.0</ele>
        <time>2015-03-15T14:11:21Z</time>
      </trkpt>
      <trkpt lat="40.280850" lon="-4.835800">
        <ele>1935.0</ele>
        <time>2015-03-15T14:11:22Z</time>
      </trkpt>
      <trkpt lat="40.280900" lon="-4.835667">
        <ele>1935.0</ele>
        <time>2015-03-15T14:11:23Z</time>
      </trkpt>
      <trkpt lat="40.280950" lon="-4.835533">
        <ele>1936.0</ele>
        <time>2015-03-15T14:11:24Z</time>
      </trkpt>
      <trkpt lat="40.280983" lon="-4.835400">
        <ele>1936.0</ele>
        <time>2015-03-15T14:11:25Z</time>
      </trkpt>
      <trkpt lat="40.281033" lon="-4.835283">
        <ele>1936.0</ele>
        <time>2015-03-15T14:11:26Z</time>
      </trkpt>
      <trkpt lat="40.281083" lon="-4.835150">
        <ele>1936.0</ele>
        <time>2015-03-15T14:11:27Z</time>
      </trkpt>
      <trkpt lat="40.281117" lon="-4.835033">
        <ele>1935.0</ele>
        <time>2015-03-15T14:11:28Z</time>
      </trkpt>
      <trkpt lat="40.281167" lon="-4.834900">
        <ele>1934.0</ele>
        <time>2015-03-15T14:11:29Z</time>
      </trkpt>
      <trkpt lat="40.281217" lon="-4.834750">
        <ele>1932.0</ele>
        <time>2015-03-15T14:11:30Z</time>
      </trkpt>
      <trkpt lat="40.281267" lon="-4.834600">
        <ele>1931.0</ele>
        <time>2015-03-15T14:11:31Z</time>
      </trkpt>
      <trkpt lat="40.281317" lon="-4.834467">
        <ele>1930.0</ele>
        <time>2015-03-15T14:11:32Z</time>
      </trkpt>
      <trkpt lat="40.281367" lon="-4.834333">
        <ele>1930.0</ele>
        <time>2015-03-15T14:11:33Z</time>
      </trkpt>
      <trkpt lat="40.281417" lon="-4.834200">
        <ele>1929.0</ele>
        <time>2015-03-15T14:11:34Z</time>
      </trkpt>
      <trkpt lat="40.281467" lon="-4.834083">
        <ele>1928.0</ele>
        <time>2015-03-15T14:11:35Z</time>
      </trkpt>
      <trkpt lat="40.281517" lon="-4.833967">
        <ele>1926.0</ele>
        <time>2015-03-15T14:11:36Z</time>
      </trkpt>
      <trkpt lat="40.281567" lon="-4.833833">
        <ele>1924.0</ele>
        <time>2015-03-15T14:11:37Z</time>
      </trkpt>
      <trkpt lat="40.281633" lon="-4.833700">
        <ele>1922.0</ele>
        <time>2015-03-15T14:11:38Z</time>
      </trkpt>
      <trkpt lat="40.281717" lon="-4.833567">
        <ele>1921.0</ele>
        <time>2015-03-15T14:11:39Z</time>
      </trkpt>
      <trkpt lat="40.281783" lon="-4.833450">
        <ele>1920.0</ele>
        <time>2015-03-15T14:11:40Z</time>
      </trkpt>
      <trkpt lat="40.281850" lon="-4.833333">
        <ele>1920.0</ele>
        <time>2015-03-15T14:11:41Z</time>
      </trkpt>
      <trkpt lat="40.281917" lon="-4.833233">
        <ele>1920.0</ele>
        <time>2015-03-15T14:11:42Z</time>
      </trkpt>
      <trkpt lat="40.281983" lon="-4.833133">
        <ele>1919.0</ele>
        <time>2015-03-15T14:11:43Z</time>
      </trkpt>
      <trkpt lat="40.282050" lon="-4.833033">
        <ele>1917.0</ele>
        <time>2015-03-15T14:11:44Z</time>
      </trkpt>
      <trkpt lat="40.282133" lon="-4.832933">
        <ele>1915.0</ele>
        <time>2015-03-15T14:11:45Z</time>
      </trkpt>
      <trkpt lat="40.282217" lon="-4.832833">
        <ele>1913.0</ele>
        <time>2015-03-15T14:11:46Z</time>
      </trkpt>
      <trkpt lat="40.282300" lon="-4.832733">
        <ele>1912.0</ele>
        <time>2015-03-15T14:11:47Z</time>
      </trkpt>
      <trkpt lat="40.282367" lon="-4.832633">
        <ele>1911.0</ele>
        <time>2015-03-15T14:11:48Z</time>
      </trkpt>
      <trkpt lat="40.282450" lon="-4.832533">
        <ele>1910.0</ele>
        <time>2015-03-15T14:11:49Z</time>
      </trkpt>
      <trkpt lat="40.282517" lon="-4.832450">
        <ele>1908.0</ele>
        <time>2015-03-15T14:11:50Z</time>
      </trkpt>
      <trkpt lat="40.282600" lon="-4.832350">
        <ele>1907.0</ele>
        <time>2015-03-15T14:11:51Z</time>
      </trkpt>
      <trkpt lat="40.282667" lon="-4.832250">
        <ele>1905.0</ele>
        <time>2015-03-15T14:11:52Z</time>
      </trkpt>
      <trkpt lat="40.282750" lon="-4.832133">
        <ele>1903.0</ele>
        <time>2015-03-15T14:11:53Z</time>
      </trkpt>
      <trkpt lat="40.282833" lon="-4.832033">
        <ele>1901.0</ele>
        <time>2015-03-15T14:11:54Z</time>
      </trkpt>
      <trkpt lat="40.282917" lon="-4.831917">
        <ele>1900.0</ele>
        <time>2015-03-15T14:11:55Z</time>
      </trkpt>
      <trkpt lat="40.282983" lon="-4.831817">
        <ele>1900.0</ele>
        <time>2015-03-15T14:11:56Z</time>
      </trkpt>
      <trkpt lat="40.283067" lon="-4.831717">
        <ele>1900.0</ele>
        <time>2015-03-15T14:11:57Z</time>
      </trkpt>
      <trkpt lat="40.283133" lon="-4.831617">
        <ele>1899.0</ele>
        <time>2015-03-15T14:11:58Z</time>
      </trkpt>
      <trkpt lat="40.283217" lon="-4.831517">
        <ele>1897.0</ele>
        <time>2015-03-15T14:11:59Z</time>
      </trkpt>
      <trkpt lat="40.283300" lon="-4.831417">
        <ele>1896.0</ele>
        <time>2015-03-15T14:12:00Z</time>
      </trkpt>
      <trkpt lat="40.283400" lon="-4.831300">
        <ele>1894.0</ele>
        <time>2015-03-15T14:12:01Z</time>
      </trkpt>
      <trkpt lat="40.283483" lon="-4.831200">
        <ele>1894.0</ele>
        <time>2015-03-15T14:12:02Z</time>
      </trkpt>
      <trkpt lat="40.283567" lon="-4.831100">
        <ele>1894.0</ele>
        <time>2015-03-15T14:12:03Z</time>
      </trkpt>
      <trkpt lat="40.283650" lon="-4.831000">
        <ele>1894.0</ele>
        <time>2015-03-15T14:12:04Z</time>
      </trkpt>
      <trkpt lat="40.283733" lon="-4.830917">
        <ele>1893.0</ele>
        <time>2015-03-15T14:12:05Z</time>
      </trkpt>
      <trkpt lat="40.283817" lon="-4.830817">
        <ele>1891.0</ele>
        <time>2015-03-15T14:12:06Z</time>
      </trkpt>
      <trkpt lat="40.283900" lon="-4.830717">
        <ele>1890.0</ele>
        <time>2015-03-15T14:12:07Z</time>
      </trkpt>
      <trkpt lat="40.283983" lon="-4.830617">
        <ele>1888.0</ele>
        <time>2015-03-15T14:12:08Z</time>
      </trkpt>
      <trkpt lat="40.284067" lon="-4.830517">
        <ele>1887.0</ele>
        <time>2015-03-15T14:12:09Z</time>
      </trkpt>
      <trkpt lat="40.284150" lon="-4.830417">
        <ele>1886.0</ele>
        <time>2015-03-15T14:12:10Z</time>
      </trkpt>
      <trkpt lat="40.284233" lon="-4.830317">
        <ele>1885.0</ele>
        <time>2015-03-15T14:12:11Z</time>
      </trkpt>
      <trkpt lat="40.284317" lon="-4.830233">
        <ele>1883.0</ele>
        <time>2015-03-15T14:12:12Z</time>
      </trkpt>
      <trkpt lat="40.284400" lon="-4.830133">
        <ele>1881.0</ele>
        <time>2015-03-15T14:12:13Z</time>
      </trkpt>
      <trkpt lat="40.284500" lon="-4.830033">
        <ele>1880.0</ele>
        <time>2015-03-15T14:12:14Z</time>
      </trkpt>
      <trkpt lat="40.284583" lon="-4.829933">
        <ele>1878.0</ele>
        <time>2015-03-15T14:12:15Z</time>
      </trkpt>
      <trkpt lat="40.284683" lon="-4.829833">
        <ele>1877.0</ele>
        <time>2015-03-15T14:12:16Z</time>
      </trkpt>
      <trkpt lat="40.284767" lon="-4.829750">
        <ele>1877.0</ele>
        <time>2015-03-15T14:12:17Z</time>
      </trkpt>
      <trkpt lat="40.284850" lon="-4.829650">
        <ele>1876.0</ele>
        <time>2015-03-15T14:12:18Z</time>
      </trkpt>
      <trkpt lat="40.284917" lon="-4.829567">
        <ele>1875.0</ele>
        <time>2015-03-15T14:12:19Z</time>
      </trkpt>
      <trkpt lat="40.285000" lon="-4.829483">
        <ele>1874.0</ele>
        <time>2015-03-15T14:12:20Z</time>
      </trkpt>
      <trkpt lat="40.285083" lon="-4.829383">
        <ele>1872.0</ele>
        <time>2015-03-15T14:12:21Z</time>
      </trkpt>
      <trkpt lat="40.285167" lon="-4.829283">
        <ele>1870.0</ele>
        <time>2015-03-15T14:12:22Z</time>
      </trkpt>
      <trkpt lat="40.285233" lon="-4.829167">
        <ele>1869.0</ele>
        <time>2015-03-15T14:12:23Z</time>
      </trkpt>
      <trkpt lat="40.285300" lon="-4.829050">
        <ele>1867.0</ele>
        <time>2015-03-15T14:12:24Z</time>
      </trkpt>
      <trkpt lat="40.285383" lon="-4.828933">
        <ele>1866.0</ele>
        <time>2015-03-15T14:12:25Z</time>
      </trkpt>
      <trkpt lat="40.285467" lon="-4.828817">
        <ele>1865.0</ele>
        <time>2015-03-15T14:12:26Z</time>
      </trkpt>
      <trkpt lat="40.285533" lon="-4.828717">
        <ele>1864.0</ele>
        <time>2015-03-15T14:12:27Z</time>
      </trkpt>
      <trkpt lat="40.285617" lon="-4.828617">
        <ele>1863.0</ele>
        <time>2015-03-15T14:12:28Z</time>
      </trkpt>
      <trkpt lat="40.285683" lon="-4.828500">
        <ele>1862.0</ele>
        <time>2015-03-15T14:12:29Z</time>
      </trkpt>
      <trkpt lat="40.285767" lon="-4.828383">
        <ele>1861.0</ele>
        <time>2015-03-15T14:12:30Z</time>
      </trkpt>
      <trkpt lat="40.285850" lon="-4.828283">
        <ele>1860.0</ele>
        <time>2015-03-15T14:12:31Z</time>
      </trkpt>
      <trkpt lat="40.285933" lon="-4.828167">
        <ele>1860.0</ele>
        <time>2015-03-15T14:12:32Z</time>
      </trkpt>
      <trkpt lat="40.286017" lon="-4.828067">
        <ele>1859.0</ele>
        <time>2015-03-15T14:12:33Z</time>
      </trkpt>
      <trkpt lat="40.286100" lon="-4.827967">
        <ele>1858.0</ele>
        <time>2015-03-15T14:12:34Z</time>
      </trkpt>
      <trkpt lat="40.286200" lon="-4.827883">
        <ele>1858.0</ele>
        <time>2015-03-15T14:12:35Z</time>
      </trkpt>
      <trkpt lat="40.286300" lon="-4.827783">
        <ele>1857.0</ele>
        <time>2015-03-15T14:12:36Z</time>
      </trkpt>
      <trkpt lat="40.286400" lon="-4.827700">
        <ele>1856.0</ele>
        <time>2015-03-15T14:12:37Z</time>
      </trkpt>
      <trkpt lat="40.286500" lon="-4.827617">
        <ele>1856.0</ele>
        <time>2015-03-15T14:12:38Z</time>
      </trkpt>
      <trkpt lat="40.286600" lon="-4.827533">
        <ele>1855.0</ele>
        <time>2015-03-15T14:12:39Z</time>
      </trkpt>
      <trkpt lat="40.286683" lon="-4.827450">
        <ele>1855.0</ele>
        <time>2015-03-15T14:12:40Z</time>
      </trkpt>
      <trkpt lat="40.286783" lon="-4.827367">
        <ele>1854.0</ele>
        <time>2015-03-15T14:12:41Z</time>
      </trkpt>
      <trkpt lat="40.286883" lon="-4.827283">
        <ele>1854.0</ele>
        <time>2015-03-15T14:12:42Z</time>
      </trkpt>
      <trkpt lat="40.286983" lon="-4.827200">
        <ele>1853.0</ele>
        <time>2015-03-15T14:12:43Z</time>
      </trkpt>
      <trkpt lat="40.287083" lon="-4.827133">
        <ele>1852.0</ele>
        <time>2015-03-15T14:12:44Z</time>
      </trkpt>
      <trkpt lat="40.287183" lon="-4.827050">
        <ele>1852.0</ele>
        <time>2015-03-15T14:12:45Z</time>
      </trkpt>
      <trkpt lat="40.287267" lon="-4.826950">
        <ele>1851.0</ele>
        <time>2015-03-15T14:12:46Z</time>
      </trkpt>
      <trkpt lat="40.287367" lon="-4.826867">
        <ele>1850.0</ele>
        <time>2015-03-15T14:12:47Z</time>
      </trkpt>
      <trkpt lat="40.287467" lon="-4.826767">
        <ele>1850.0</ele>
        <time>2015-03-15T14:12:48Z</time>
      </trkpt>
      <trkpt lat="40.287567" lon="-4.826683">
        <ele>1849.0</ele>
        <time>2015-03-15T14:12:49Z</time>
      </trkpt>
      <trkpt lat="40.287667" lon="-4.826600">
        <ele>1849.0</ele>
        <time>2015-03-15T14:12:50Z</time>
      </trkpt>
      <trkpt lat="40.287767" lon="-4.826500">
        <ele>1849.0</ele>
        <time>2015-03-15T14:12:51Z</time>
      </trkpt>
      <trkpt lat="40.287867" lon="-4.826417">
        <ele>1848.0</ele>
        <time>2015-03-15T14:12:52Z</time>
      </trkpt>
      <trkpt lat="40.287967" lon="-4.826333">
        <ele>1847.0</ele>
        <time>2015-03-15T14:12:53Z</time>
      </trkpt>
      <trkpt lat="40.288067" lon="-4.826233">
        <ele>1846.0</ele>
        <time>2015-03-15T14:12:54Z</time>
      </trkpt>
      <trkpt lat="40.288167" lon="-4.826150">
        <ele>1845.0</ele>
        <time>2015-03-15T14:12:55Z</time>
      </trkpt>
      <trkpt lat="40.288267" lon="-4.826067">
        <ele>1845.0</ele>
        <time>2015-03-15T14:12:56Z</time>
      </trkpt>
      <trkpt lat="40.288367" lon="-4.825983">
        <ele>1845.0</ele>
        <time>2015-03-15T14:12:57Z</time>
      </trkpt>
      <trkpt lat="40.288467" lon="-4.825900">
        <ele>1844.0</ele>
        <time>2015-03-15T14:12:58Z</time>
      </trkpt>
      <trkpt lat="40.288550" lon="-4.825800">
        <ele>1844.0</ele>
        <time>2015-03-15T14:12:59Z</time>
      </trkpt>
      <trkpt lat="40.288633" lon="-4.825717">
        <ele>1843.0</ele>
        <time>2015-03-15T14:13:00Z</time>
      </trkpt>
      <trkpt lat="40.288733" lon="-4.825617">
        <ele>1842.0</ele>
        <time>2015-03-15T14:13:01Z</time>
      </trkpt>
      <trkpt lat="40.288817" lon="-4.825533">
        <ele>1842.0</ele>
        <time>2015-03-15T14:13:02Z</time>
      </trkpt>
      <trkpt lat="40.288917" lon="-4.825467">
        <ele>1841.0</ele>
        <time>2015-03-15T14:13:03Z</time>
      </trkpt>
      <trkpt lat="40.289000" lon="-4.825383">
        <ele>1841.0</ele>
        <time>2015-03-15T14:13:04Z</time>
      </trkpt>
      <trkpt lat="40.289100" lon="-4.825317">
        <ele>1840.0</ele>
        <time>2015-03-15T14:13:05Z</time>
      </trkpt>
      <trkpt lat="40.289183" lon="-4.825233">
        <ele>1838.0</ele>
        <time>2015-03-15T14:13:06Z</time>
      </trkpt>
      <trkpt lat="40.289283" lon="-4.825167">
        <ele>1836.0</ele>
        <time>2015-03-15T14:13:07Z</time>
      </trkpt>
      <trkpt lat="40.289383" lon="-4.825100">
        <ele>1835.0</ele>
        <time>2015-03-15T14:13:08Z</time>
      </trkpt>
      <trkpt lat="40.289483" lon="-4.825033">
        <ele>1834.0</ele>
        <time>2015-03-15T14:13:09Z</time>
      </trkpt>
      <trkpt lat="40.289600" lon="-4.824967">
        <ele>1833.0</ele>
        <time>2015-03-15T14:13:10Z</time>
      </trkpt>
      <trkpt lat="40.289700" lon="-4.824917">
        <ele>1832.0</ele>
        <time>2015-03-15T14:13:11Z</time>
      </trkpt>
      <trkpt lat="40.289783" lon="-4.824850">
        <ele>1831.0</ele>
        <time>2015-03-15T14:13:12Z</time>
      </trkpt>
      <trkpt lat="40.289883" lon="-4.824800">
        <ele>1830.0</ele>
        <time>2015-03-15T14:13:13Z</time>
      </trkpt>
      <trkpt lat="40.289983" lon="-4.824733">
        <ele>1829.0</ele>
        <time>2015-03-15T14:13:14Z</time>
      </trkpt>
      <trkpt lat="40.290083" lon="-4.824683">
        <ele>1828.0</ele>
        <time>2015-03-15T14:13:15Z</time>
      </trkpt>
      <trkpt lat="40.290183" lon="-4.824617">
        <ele>1826.0</ele>
        <time>2015-03-15T14:13:16Z</time>
      </trkpt>
      <trkpt lat="40.290283" lon="-4.824550">
        <ele>1825.0</ele>
        <time>2015-03-15T14:13:17Z</time>
      </trkpt>
      <trkpt lat="40.290383" lon="-4.824483">
        <ele>1823.0</ele>
        <time>2015-03-15T14:13:18Z</time>
      </trkpt>
      <trkpt lat="40.290500" lon="-4.824433">
        <ele>1822.0</ele>
        <time>2015-03-15T14:13:19Z</time>
      </trkpt>
      <trkpt lat="40.290600" lon="-4.824367">
        <ele>1822.0</ele>
        <time>2015-03-15T14:13:20Z</time>
      </trkpt>
      <trkpt lat="40.290700" lon="-4.824300">
        <ele>1821.0</ele>
        <time>2015-03-15T14:13:21Z</time>
      </trkpt>
      <trkpt lat="40.290817" lon="-4.824233">
        <ele>1819.0</ele>
        <time>2015-03-15T14:13:22Z</time>
      </trkpt>
      <trkpt lat="40.290917" lon="-4.824150">
        <ele>1818.0</ele>
        <time>2015-03-15T14:13:23Z</time>
      </trkpt>
      <trkpt lat="40.291033" lon="-4.824083">
        <ele>1817.0</ele>
        <time>2015-03-15T14:13:24Z</time>
      </trkpt>
      <trkpt lat="40.291133" lon="-4.824000">
        <ele>1817.0</ele>
        <time>2015-03-15T14:13:25Z</time>
      </trkpt>
      <trkpt lat="40.291233" lon="-4.823933">
        <ele>1817.0</ele>
        <time>2015-03-15T14:13:26Z</time>
      </trkpt>
      <trkpt lat="40.291333" lon="-4.823850">
        <ele>1816.0</ele>
        <time>2015-03-15T14:13:27Z</time>
      </trkpt>
      <trkpt lat="40.291433" lon="-4.823783">
        <ele>1816.0</ele>
        <time>2015-03-15T14:13:28Z</time>
      </trkpt>
      <trkpt lat="40.291550" lon="-4.823717">
        <ele>1815.0</ele>
        <time>2015-03-15T14:13:29Z</time>
      </trkpt>
      <trkpt lat="40.291650" lon="-4.823650">
        <ele>1814.0</ele>
        <time>2015-03-15T14:13:30Z</time>
      </trkpt>
      <trkpt lat="40.291750" lon="-4.823583">
        <ele>1814.0</ele>
        <time>2015-03-15T14:13:31Z</time>
      </trkpt>
      <trkpt lat="40.291850" lon="-4.823517">
        <ele>1814.0</ele>
        <time>2015-03-15T14:13:32Z</time>
      </trkpt>
      <trkpt lat="40.291933" lon="-4.823450">
        <ele>1814.0</ele>
        <time>2015-03-15T14:13:33Z</time>
      </trkpt>
      <trkpt lat="40.292033" lon="-4.823400">
        <ele>1814.0</ele>
        <time>2015-03-15T14:13:34Z</time>
      </trkpt>
      <trkpt lat="40.292117" lon="-4.823333">
        <ele>1814.0</ele>
        <time>2015-03-15T14:13:35Z</time>
      </trkpt>
      <trkpt lat="40.292217" lon="-4.823283">
        <ele>1813.0</ele>
        <time>2015-03-15T14:13:36Z</time>
      </trkpt>
      <trkpt lat="40.292300" lon="-4.823200">
        <ele>1813.0</ele>
        <time>2015-03-15T14:13:37Z</time>
      </trkpt>
      <trkpt lat="40.292400" lon="-4.823133">
        <ele>1812.0</ele>
        <time>2015-03-15T14:13:38Z</time>
      </trkpt>
      <trkpt lat="40.292483" lon="-4.823050">
        <ele>1813.0</ele>
        <time>2015-03-15T14:13:39Z</time>
      </trkpt>
      <trkpt lat="40.292583" lon="-4.822967">
        <ele>1813.0</ele>
        <time>2015-03-15T14:13:40Z</time>
      </trkpt>
      <trkpt lat="40.292667" lon="-4.822900">
        <ele>1813.0</ele>
        <time>2015-03-15T14:13:41Z</time>
      </trkpt>
      <trkpt lat="40.292750" lon="-4.822833">
        <ele>1813.0</ele>
        <time>2015-03-15T14:13:42Z</time>
      </trkpt>
      <trkpt lat="40.292833" lon="-4.822767">
        <ele>1812.0</ele>
        <time>2015-03-15T14:13:43Z</time>
      </trkpt>
      <trkpt lat="40.292917" lon="-4.822683">
        <ele>1812.0</ele>
        <time>2015-03-15T14:13:44Z</time>
      </trkpt>
      <trkpt lat="40.292983" lon="-4.822617">
        <ele>1813.0</ele>
        <time>2015-03-15T14:13:45Z</time>
      </trkpt>
      <trkpt lat="40.293067" lon="-4.822550">
        <ele>1813.0</ele>
        <time>2015-03-15T14:13:46Z</time>
      </trkpt>
      <trkpt lat="40.293133" lon="-4.822483">
        <ele>1813.0</ele>
        <time>2015-03-15T14:13:47Z</time>
      </trkpt>
      <trkpt lat="40.293200" lon="-4.822417">
        <ele>1813.0</ele>
        <time>2015-03-15T14:13:48Z</time>
      </trkpt>
      <trkpt lat="40.293267" lon="-4.822333">
        <ele>1813.0</ele>
        <time>2015-03-15T14:13:49Z</time>
      </trkpt>
      <trkpt lat="40.293350" lon="-4.822233">
        <ele>1813.0</ele>
        <time>2015-03-15T14:13:50Z</time>
      </trkpt>
      <trkpt lat="40.293417" lon="-4.822150">
        <ele>1814.0</ele>
        <time>2015-03-15T14:13:51Z</time>
      </trkpt>
      <trkpt lat="40.293483" lon="-4.822050">
        <ele>1815.0</ele>
        <time>2015-03-15T14:13:52Z</time>
      </trkpt>
      <trkpt lat="40.293550" lon="-4.821983">
        <ele>1816.0</ele>
        <time>2015-03-15T14:13:53Z</time>
      </trkpt>
      <trkpt lat="40.293617" lon="-4.821900">
        <ele>1816.0</ele>
        <time>2015-03-15T14:13:54Z</time>
      </trkpt>
      <trkpt lat="40.293700" lon="-4.821833">
        <ele>1816.0</ele>
        <time>2015-03-15T14:13:55Z</time>
      </trkpt>
      <trkpt lat="40.293767" lon="-4.821783">
        <ele>1816.0</ele>
        <time>2015-03-15T14:13:56Z</time>
      </trkpt>
      <trkpt lat="40.293850" lon="-4.821717">
        <ele>1815.0</ele>
        <time>2015-03-15T14:13:57Z</time>
      </trkpt>
      <trkpt lat="40.293933" lon="-4.821650">
        <ele>1816.0</ele>
        <time>2015-03-15T14:13:58Z</time>
      </trkpt>
      <trkpt lat="40.293983" lon="-4.821550">
        <ele>1816.0</ele>
        <time>2015-03-15T14:13:59Z</time>
      </trkpt>
      <trkpt lat="40.294033" lon="-4.821450">
        <ele>1816.0</ele>
        <time>2015-03-15T14:14:00Z</time>
      </trkpt>
      <trkpt lat="40.294067" lon="-4.821317">
        <ele>1816.0</ele>
        <time>2015-03-15T14:14:01Z</time>
      </trkpt>
      <trkpt lat="40.294083" lon="-4.821183">
        <ele>1818.0</ele>
        <time>2015-03-15T14:14:02Z</time>
      </trkpt>
      <trkpt lat="40.294083" lon="-4.821050">
        <ele>1819.0</ele>
        <time>2015-03-15T14:14:03Z</time>
      </trkpt>
      <trkpt lat="40.294067" lon="-4.820917">
        <ele>1821.0</ele>
        <time>2015-03-15T14:14:04Z</time>
      </trkpt>
      <trkpt lat="40.294050" lon="-4.820800">
        <ele>1822.0</ele>
        <time>2015-03-15T14:14:05Z</time>
      </trkpt>
      <trkpt lat="40.294000" lon="-4.820700">
        <ele>1823.0</ele>
        <time>2015-03-15T14:14:06Z</time>
      </trkpt>
      <trkpt lat="40.293950" lon="-4.820600">
        <ele>1823.0</ele>
        <time>2015-03-15T14:14:07Z</time>
      </trkpt>
      <trkpt lat="40.293883" lon="-4.820533">
        <ele>1823.0</ele>
        <time>2015-03-15T14:14:08Z</time>
      </trkpt>
      <trkpt lat="40.293800" lon="-4.820483">
        <ele>1824.0</ele>
        <time>2015-03-15T14:14:09Z</time>
      </trkpt>
      <trkpt lat="40.293717" lon="-4.820467">
        <ele>1825.0</ele>
        <time>2015-03-15T14:14:10Z</time>
      </trkpt>
      <trkpt lat="40.293667" lon="-4.820467">
        <ele>1826.0</ele>
        <time>2015-03-15T14:14:11Z</time>
      </trkpt>
      <trkpt lat="40.293600" lon="-4.820483">
        <ele>1826.0</ele>
        <time>2015-03-15T14:14:12Z</time>
      </trkpt>
      <trkpt lat="40.293550" lon="-4.820517">
        <ele>1826.0</ele>
        <time>2015-03-15T14:14:13Z</time>
      </trkpt>
      <trkpt lat="40.293483" lon="-4.820583">
        <ele>1825.0</ele>
        <time>2015-03-15T14:14:14Z</time>
      </trkpt>
      <trkpt lat="40.293433" lon="-4.820650">
        <ele>1824.0</ele>
        <time>2015-03-15T14:14:15Z</time>
      </trkpt>
      <trkpt lat="40.293367" lon="-4.820733">
        <ele>1823.0</ele>
        <time>2015-03-15T14:14:16Z</time>
      </trkpt>
      <trkpt lat="40.293333" lon="-4.820817">
        <ele>1822.0</ele>
        <time>2015-03-15T14:14:17Z</time>
      </trkpt>
      <trkpt lat="40.293300" lon="-4.820933">
        <ele>1821.0</ele>
        <time>2015-03-15T14:14:18Z</time>
      </trkpt>
      <trkpt lat="40.293300" lon="-4.821050">
        <ele>1819.0</ele>
        <time>2015-03-15T14:14:19Z</time>
      </trkpt>
      <trkpt lat="40.293317" lon="-4.821183">
        <ele>1818.0</ele>
        <time>2015-03-15T14:14:20Z</time>
      </trkpt>
      <trkpt lat="40.293333" lon="-4.821317">
        <ele>1818.0</ele>
        <time>2015-03-15T14:14:21Z</time>
      </trkpt>
      <trkpt lat="40.293400" lon="-4.821417">
        <ele>1818.0</ele>
        <time>2015-03-15T14:14:22Z</time>
      </trkpt>
      <trkpt lat="40.293467" lon="-4.821500">
        <ele>1819.0</ele>
        <time>2015-03-15T14:14:23Z</time>
      </trkpt>
      <trkpt lat="40.293567" lon="-4.821550">
        <ele>1820.0</ele>
        <time>2015-03-15T14:14:24Z</time>
      </trkpt>
      <trkpt lat="40.293650" lon="-4.821567">
        <ele>1821.0</ele>
        <time>2015-03-15T14:14:25Z</time>
      </trkpt>
      <trkpt lat="40.293717" lon="-4.821567">
        <ele>1822.0</ele>
        <time>2015-03-15T14:14:26Z</time>
      </trkpt>
      <trkpt lat="40.293800" lon="-4.821567">
        <ele>1822.0</ele>
        <time>2015-03-15T14:14:27Z</time>
      </trkpt>
      <trkpt lat="40.293883" lon="-4.821567">
        <ele>1821.0</ele>
        <time>2015-03-15T14:14:28Z</time>
      </trkpt>
      <trkpt lat="40.293967" lon="-4.821550">
        <ele>1821.0</ele>
        <time>2015-03-15T14:14:29Z</time>
      </trkpt>
      <trkpt lat="40.294067" lon="-4.821533">
        <ele>1822.0</ele>
        <time>2015-03-15T14:14:30Z</time>
      </trkpt>
      <trkpt lat="40.294150" lon="-4.821500">
        <ele>1823.0</ele>
        <time>2015-03-15T14:14:31Z</time>
      </trkpt>
      <trkpt lat="40.294250" lon="-4.821450">
        <ele>1824.0</ele>
        <time>2015-03-15T14:14:32Z</time>
      </trkpt>
      <trkpt lat="40.294333" lon="-4.821400">
        <ele>1824.0</ele>
        <time>2015-03-15T14:14:33Z</time>
      </trkpt>
      <trkpt lat="40.294433" lon="-4.821350">
        <ele>1824.0</ele>
        <time>2015-03-15T14:14:34Z</time>
      </trkpt>
      <trkpt lat="40.294517" lon="-4.821317">
        <ele>1824.0</ele>
        <time>2015-03-15T14:14:35Z</time>
      </trkpt>
      <trkpt lat="40.294600" lon="-4.821250">
        <ele>1824.0</ele>
        <time>2015-03-15T14:14:36Z</time>
      </trkpt>
      <trkpt lat="40.294667" lon="-4.821183">
        <ele>1823.0</ele>
        <time>2015-03-15T14:14:37Z</time>
      </trkpt>
      <trkpt lat="40.294717" lon="-4.821100">
        <ele>1822.0</ele>
        <time>2015-03-15T14:14:38Z</time>
      </trkpt>
      <trkpt lat="40.294750" lon="-4.820983">
        <ele>1821.0</ele>
        <time>2015-03-15T14:14:39Z</time>
      </trkpt>
      <trkpt lat="40.294783" lon="-4.820850">
        <ele>1819.0</ele>
        <time>2015-03-15T14:14:40Z</time>
      </trkpt>
      <trkpt lat="40.294800" lon="-4.820717">
        <ele>1818.0</ele>
        <time>2015-03-15T14:14:41Z</time>
      </trkpt>
      <trkpt lat="40.294817" lon="-4.820567">
        <ele>1817.0</ele>
        <time>2015-03-15T14:14:42Z</time>
      </trkpt>
      <trkpt lat="40.294817" lon="-4.820417">
        <ele>1817.0</ele>
        <time>2015-03-15T14:14:43Z</time>
      </trkpt>
      <trkpt lat="40.294833" lon="-4.820267">
        <ele>1817.0</ele>
        <time>2015-03-15T14:14:44Z</time>
      </trkpt>
      <trkpt lat="40.294850" lon="-4.820117">
        <ele>1818.0</ele>
        <time>2015-03-15T14:14:45Z</time>
      </trkpt>
      <trkpt lat="40.294867" lon="-4.819983">
        <ele>1819.0</ele>
        <time>2015-03-15T14:14:46Z</time>
      </trkpt>
      <trkpt lat="40.294883" lon="-4.819867">
        <ele>1819.0</ele>
        <time>2015-03-15T14:14:47Z</time>
      </trkpt>
      <trkpt lat="40.294900" lon="-4.819733">
        <ele>1819.0</ele>
        <time>2015-03-15T14:14:48Z</time>
      </trkpt>
      <trkpt lat="40.294933" lon="-4.819600">
        <ele>1818.0</ele>
        <time>2015-03-15T14:14:49Z</time>
      </trkpt>
      <trkpt lat="40.294967" lon="-4.819467">
        <ele>1818.0</ele>
        <time>2015-03-15T14:14:50Z</time>
      </trkpt>
      <trkpt lat="40.295000" lon="-4.819317">
        <ele>1818.0</ele>
        <time>2015-03-15T14:14:51Z</time>
      </trkpt>
      <trkpt lat="40.295033" lon="-4.819167">
        <ele>1818.0</ele>
        <time>2015-03-15T14:14:52Z</time>
      </trkpt>
      <trkpt lat="40.295067" lon="-4.819033">
        <ele>1819.0</ele>
        <time>2015-03-15T14:14:53Z</time>
      </trkpt>
      <trkpt lat="40.295117" lon="-4.818917">
        <ele>1819.0</ele>
        <time>2015-03-15T14:14:54Z</time>
      </trkpt>
      <trkpt lat="40.295167" lon="-4.818783">
        <ele>1818.0</ele>
        <time>2015-03-15T14:14:55Z</time>
      </trkpt>
      <trkpt lat="40.295217" lon="-4.818650">
        <ele>1817.0</ele>
        <time>2015-03-15T14:14:56Z</time>
      </trkpt>
      <trkpt lat="40.295267" lon="-4.818533">
        <ele>1816.0</ele>
        <time>2015-03-15T14:14:57Z</time>
      </trkpt>
      <trkpt lat="40.295333" lon="-4.818400">
        <ele>1816.0</ele>
        <time>2015-03-15T14:14:58Z</time>
      </trkpt>
      <trkpt lat="40.295400" lon="-4.818283">
        <ele>1816.0</ele>
        <time>2015-03-15T14:14:59Z</time>
      </trkpt>
      <trkpt lat="40.295483" lon="-4.818183">
        <ele>1814.0</ele>
        <time>2015-03-15T14:15:00Z</time>
      </trkpt>
      <trkpt lat="40.295567" lon="-4.818067">
        <ele>1813.0</ele>
        <time>2015-03-15T14:15:01Z</time>
      </trkpt>
      <trkpt lat="40.295633" lon="-4.817950">
        <ele>1811.0</ele>
        <time>2015-03-15T14:15:02Z</time>
      </trkpt>
      <trkpt lat="40.295717" lon="-4.817833">
        <ele>1810.0</ele>
        <time>2015-03-15T14:15:03Z</time>
      </trkpt>
      <trkpt lat="40.295800" lon="-4.817717">
        <ele>1809.0</ele>
        <time>2015-03-15T14:15:04Z</time>
      </trkpt>
      <trkpt lat="40.295867" lon="-4.817600">
        <ele>1808.0</ele>
        <time>2015-03-15T14:15:05Z</time>
      </trkpt>
      <trkpt lat="40.295950" lon="-4.817500">
        <ele>1808.0</ele>
        <time>2015-03-15T14:15:06Z</time>
      </trkpt>
      <trkpt lat="40.296033" lon="-4.817400">
        <ele>1807.0</ele>
        <time>2015-03-15T14:15:07Z</time>
      </trkpt>
      <trkpt lat="40.296100" lon="-4.817283">
        <ele>1805.0</ele>
        <time>2015-03-15T14:15:08Z</time>
      </trkpt>
      <trkpt lat="40.296167" lon="-4.817167">
        <ele>1803.0</ele>
        <time>2015-03-15T14:15:09Z</time>
      </trkpt>
      <trkpt lat="40.296250" lon="-4.817050">
        <ele>1801.0</ele>
        <time>2015-03-15T14:15:10Z</time>
      </trkpt>
      <trkpt lat="40.296333" lon="-4.816933">
        <ele>1798.0</ele>
        <time>2015-03-15T14:15:11Z</time>
      </trkpt>
      <trkpt lat="40.296433" lon="-4.816833">
        <ele>1796.0</ele>
        <time>2015-03-15T14:15:12Z</time>
      </trkpt>
      <trkpt lat="40.296533" lon="-4.816717">
        <ele>1795.0</ele>
        <time>2015-03-15T14:15:13Z</time>
      </trkpt>
      <trkpt lat="40.296617" lon="-4.816600">
        <ele>1794.0</ele>
        <time>2015-03-15T14:15:14Z</time>
      </trkpt>
      <trkpt lat="40.296717" lon="-4.816500">
        <ele>1793.0</ele>
        <time>2015-03-15T14:15:15Z</time>
      </trkpt>
      <trkpt lat="40.296800" lon="-4.816400">
        <ele>1792.0</ele>
        <time>2015-03-15T14:15:16Z</time>
      </trkpt>
      <trkpt lat="40.296900" lon="-4.816300">
        <ele>1792.0</ele>
        <time>2015-03-15T14:15:17Z</time>
      </trkpt>
      <trkpt lat="40.297000" lon="-4.816183">
        <ele>1792.0</ele>
        <time>2015-03-15T14:15:18Z</time>
      </trkpt>
      <trkpt lat="40.297083" lon="-4.816083">
        <ele>1792.0</ele>
        <time>2015-03-15T14:15:19Z</time>
      </trkpt>
      <trkpt lat="40.297167" lon="-4.815983">
        <ele>1792.0</ele>
        <time>2015-03-15T14:15:20Z</time>
      </trkpt>
      <trkpt lat="40.297250" lon="-4.815900">
        <ele>1793.0</ele>
        <time>2015-03-15T14:15:21Z</time>
      </trkpt>
      <trkpt lat="40.297333" lon="-4.815850">
        <ele>1793.0</ele>
        <time>2015-03-15T14:15:22Z</time>
      </trkpt>
      <trkpt lat="40.297433" lon="-4.815833">
        <ele>1793.0</ele>
        <time>2015-03-15T14:15:23Z</time>
      </trkpt>
      <trkpt lat="40.297500" lon="-4.815850">
        <ele>1792.0</ele>
        <time>2015-03-15T14:15:24Z</time>
      </trkpt>
      <trkpt lat="40.297583" lon="-4.815883">
        <ele>1792.0</ele>
        <time>2015-03-15T14:15:25Z</time>
      </trkpt>
      <trkpt lat="40.297650" lon="-4.815900">
        <ele>1791.0</ele>
        <time>2015-03-15T14:15:26Z</time>
      </trkpt>
      <trkpt lat="40.297717" lon="-4.815933">
        <ele>1790.0</ele>
        <time>2015-03-15T14:15:27Z</time>
      </trkpt>
      <trkpt lat="40.297783" lon="-4.815950">
        <ele>1789.0</ele>
        <time>2015-03-15T14:15:28Z</time>
      </trkpt>
      <trkpt lat="40.297850" lon="-4.815983">
        <ele>1787.0</ele>
        <time>2015-03-15T14:15:29Z</time>
      </trkpt>
      <trkpt lat="40.297933" lon="-4.816000">
        <ele>1784.0</ele>
        <time>2015-03-15T14:15:30Z</time>
      </trkpt>
      <trkpt lat="40.298017" lon="-4.816000">
        <ele>1781.0</ele>
        <time>2015-03-15T14:15:31Z</time>
      </trkpt>
      <trkpt lat="40.298117" lon="-4.815983">
        <ele>1778.0</ele>
        <time>2015-03-15T14:15:32Z</time>
      </trkpt>
      <trkpt lat="40.298233" lon="-4.815933">
        <ele>1775.0</ele>
        <time>2015-03-15T14:15:33Z</time>
      </trkpt>
      <trkpt lat="40.298333" lon="-4.815867">
        <ele>1773.0</ele>
        <time>2015-03-15T14:15:34Z</time>
      </trkpt>
      <trkpt lat="40.298433" lon="-4.815767">
        <ele>1771.0</ele>
        <time>2015-03-15T14:15:35Z</time>
      </trkpt>
      <trkpt lat="40.298517" lon="-4.815683">
        <ele>1771.0</ele>
        <time>2015-03-15T14:15:36Z</time>
      </trkpt>
      <trkpt lat="40.298617" lon="-4.815617">
        <ele>1770.0</ele>
        <time>2015-03-15T14:15:37Z</time>
      </trkpt>
      <trkpt lat="40.298700" lon="-4.815533">
        <ele>1768.0</ele>
        <time>2015-03-15T14:15:38Z</time>
      </trkpt>
      <trkpt lat="40.298783" lon="-4.815450">
        <ele>1766.0</ele>
        <time>2015-03-15T14:15:39Z</time>
      </trkpt>
      <trkpt lat="40.298867" lon="-4.815350">
        <ele>1763.0</ele>
        <time>2015-03-15T14:15:40Z</time>
      </trkpt>
      <trkpt lat="40.298933" lon="-4.815250">
        <ele>1760.0</ele>
        <time>2015-03-15T14:15:41Z</time>
      </trkpt>
      <trkpt lat="40.299017" lon="-4.815150">
        <ele>1758.0</ele>
        <time>2015-03-15T14:15:42Z</time>
      </trkpt>
      <trkpt lat="40.299100" lon="-4.815050">
        <ele>1756.0</ele>
        <time>2015-03-15T14:15:43Z</time>
      </trkpt>
      <trkpt lat="40.299183" lon="-4.814967">
        <ele>1754.0</ele>
        <time>2015-03-15T14:15:44Z</time>
      </trkpt>
      <trkpt lat="40.299267" lon="-4.814883">
        <ele>1751.0</ele>
        <time>2015-03-15T14:15:45Z</time>
      </trkpt>
      <trkpt lat="40.299350" lon="-4.814783">
        <ele>1749.0</ele>
        <time>2015-03-15T14:15:46Z</time>
      </trkpt>
      <trkpt lat="40.299417" lon="-4.814700">
        <ele>1746.0</ele>
        <time>2015-03-15T14:15:47Z</time>
      </trkpt>
      <trkpt lat="40.299517" lon="-4.814600">
        <ele>1743.0</ele>
        <time>2015-03-15T14:15:48Z</time>
      </trkpt>
      <trkpt lat="40.299600" lon="-4.814533">
        <ele>1741.0</ele>
        <time>2015-03-15T14:15:49Z</time>
      </trkpt>
      <trkpt lat="40.299700" lon="-4.814450">
        <ele>1740.0</ele>
        <time>2015-03-15T14:15:50Z</time>
      </trkpt>
      <trkpt lat="40.299783" lon="-4.814383">
        <ele>1739.0</ele>
        <time>2015-03-15T14:15:51Z</time>
      </trkpt>
      <trkpt lat="40.299883" lon="-4.814333">
        <ele>1737.0</ele>
        <time>2015-03-15T14:15:52Z</time>
      </trkpt>
      <trkpt lat="40.299983" lon="-4.814283">
        <ele>1736.0</ele>
        <time>2015-03-15T14:15:53Z</time>
      </trkpt>
      <trkpt lat="40.300083" lon="-4.814217">
        <ele>1735.0</ele>
        <time>2015-03-15T14:15:54Z</time>
      </trkpt>
      <trkpt lat="40.300183" lon="-4.814150">
        <ele>1734.0</ele>
        <time>2015-03-15T14:15:55Z</time>
      </trkpt>
      <trkpt lat="40.300283" lon="-4.814100">
        <ele>1733.0</ele>
        <time>2015-03-15T14:15:56Z</time>
      </trkpt>
      <trkpt lat="40.300383" lon="-4.814033">
        <ele>1732.0</ele>
        <time>2015-03-15T14:15:57Z</time>
      </trkpt>
      <trkpt lat="40.300483" lon="-4.813967">
        <ele>1730.0</ele>
        <time>2015-03-15T14:15:58Z</time>
      </trkpt>
      <trkpt lat="40.300583" lon="-4.813933">
        <ele>1729.0</ele>
        <time>2015-03-15T14:15:59Z</time>
      </trkpt>
      <trkpt lat="40.300700" lon="-4.813900">
        <ele>1728.0</ele>
        <time>2015-03-15T14:16:00Z</time>
      </trkpt>
      <trkpt lat="40.300800" lon="-4.813883">
        <ele>1727.0</ele>
        <time>2015-03-15T14:16:01Z</time>
      </trkpt>
      <trkpt lat="40.300917" lon="-4.813833">
        <ele>1728.0</ele>
        <time>2015-03-15T14:16:02Z</time>
      </trkpt>
      <trkpt lat="40.301017" lon="-4.813783">
        <ele>1729.0</ele>
        <time>2015-03-15T14:16:03Z</time>
      </trkpt>
      <trkpt lat="40.301133" lon="-4.813717">
        <ele>1732.0</ele>
        <time>2015-03-15T14:16:04Z</time>
      </trkpt>
      <trkpt lat="40.301233" lon="-4.813650">
        <ele>1735.0</ele>
        <time>2015-03-15T14:16:05Z</time>
      </trkpt>
      <trkpt lat="40.301317" lon="-4.813583">
        <ele>1738.0</ele>
        <time>2015-03-15T14:16:06Z</time>
      </trkpt>
      <trkpt lat="40.301400" lon="-4.813517">
        <ele>1742.0</ele>
        <time>2015-03-15T14:16:07Z</time>
      </trkpt>
      <trkpt lat="40.301500" lon="-4.813450">
        <ele>1744.0</ele>
        <time>2015-03-15T14:16:08Z</time>
      </trkpt>
      <trkpt lat="40.301583" lon="-4.813400">
        <ele>1746.0</ele>
        <time>2015-03-15T14:16:09Z</time>
      </trkpt>
      <trkpt lat="40.301650" lon="-4.813383">
        <ele>1746.0</ele>
        <time>2015-03-15T14:16:10Z</time>
      </trkpt>
      <trkpt lat="40.301733" lon="-4.813367">
        <ele>1745.0</ele>
        <time>2015-03-15T14:16:11Z</time>
      </trkpt>
      <trkpt lat="40.301833" lon="-4.813367">
        <ele>1743.0</ele>
        <time>2015-03-15T14:16:12Z</time>
      </trkpt>
      <trkpt lat="40.301933" lon="-4.813383">
        <ele>1740.0</ele>
        <time>2015-03-15T14:16:13Z</time>
      </trkpt>
      <trkpt lat="40.302067" lon="-4.813400">
        <ele>1738.0</ele>
        <time>2015-03-15T14:16:14Z</time>
      </trkpt>
      <trkpt lat="40.302183" lon="-4.813417">
        <ele>1737.0</ele>
        <time>2015-03-15T14:16:15Z</time>
      </trkpt>
      <trkpt lat="40.302283" lon="-4.813433">
        <ele>1739.0</ele>
        <time>2015-03-15T14:16:16Z</time>
      </trkpt>
      <trkpt lat="40.302383" lon="-4.813450">
        <ele>1740.0</ele>
        <time>2015-03-15T14:16:17Z</time>
      </trkpt>
      <trkpt lat="40.302483" lon="-4.813450">
        <ele>1741.0</ele>
        <time>2015-03-15T14:16:18Z</time>
      </trkpt>
      <trkpt lat="40.302583" lon="-4.813433">
        <ele>1742.0</ele>
        <time>2015-03-15T14:16:19Z</time>
      </trkpt>
      <trkpt lat="40.302683" lon="-4.813400">
        <ele>1742.0</ele>
        <time>2015-03-15T14:16:20Z</time>
      </trkpt>
      <trkpt lat="40.302800" lon="-4.813383">
        <ele>1743.0</ele>
        <time>2015-03-15T14:16:21Z</time>
      </trkpt>
      <trkpt lat="40.302900" lon="-4.813400">
        <ele>1744.0</ele>
        <time>2015-03-15T14:16:22Z</time>
      </trkpt>
      <trkpt lat="40.302983" lon="-4.813433">
        <ele>1744.0</ele>
        <time>2015-03-15T14:16:23Z</time>
      </trkpt>
      <trkpt lat="40.303067" lon="-4.813500">
        <ele>1743.0</ele>
        <time>2015-03-15T14:16:24Z</time>
      </trkpt>
      <trkpt lat="40.303133" lon="-4.813600">
        <ele>1742.0</ele>
        <time>2015-03-15T14:16:25Z</time>
      </trkpt>
      <trkpt lat="40.303183" lon="-4.813700">
        <ele>1741.0</ele>
        <time>2015-03-15T14:16:26Z</time>
      </trkpt>
      <trkpt lat="40.303217" lon="-4.813817">
        <ele>1740.0</ele>
        <time>2015-03-15T14:16:27Z</time>
      </trkpt>
      <trkpt lat="40.303250" lon="-4.813933">
        <ele>1739.0</ele>
        <time>2015-03-15T14:16:28Z</time>
      </trkpt>
      <trkpt lat="40.303283" lon="-4.814050">
        <ele>1740.0</ele>
        <time>2015-03-15T14:16:29Z</time>
      </trkpt>
      <trkpt lat="40.303317" lon="-4.814167">
        <ele>1741.0</ele>
        <time>2015-03-15T14:16:30Z</time>
      </trkpt>
      <trkpt lat="40.303333" lon="-4.814283">
        <ele>1743.0</ele>
        <time>2015-03-15T14:16:31Z</time>
      </trkpt>
      <trkpt lat="40.303350" lon="-4.814367">
        <ele>1745.0</ele>
        <time>2015-03-15T14:16:32Z</time>
      </trkpt>
      <trkpt lat="40.303333" lon="-4.814433">
        <ele>1746.0</ele>
        <time>2015-03-15T14:16:33Z</time>
      </trkpt>
      <trkpt lat="40.303317" lon="-4.814500">
        <ele>1745.0</ele>
        <time>2015-03-15T14:16:34Z</time>
      </trkpt>
      <trkpt lat="40.303283" lon="-4.814533">
        <ele>1744.0</ele>
        <time>2015-03-15T14:16:35Z</time>
      </trkpt>
      <trkpt lat="40.303217" lon="-4.814583">
        <ele>1742.0</ele>
        <time>2015-03-15T14:16:36Z</time>
      </trkpt>
      <trkpt lat="40.303133" lon="-4.814600">
        <ele>1741.0</ele>
        <time>2015-03-15T14:16:37Z</time>
      </trkpt>
      <trkpt lat="40.303050" lon="-4.814617">
        <ele>1742.0</ele>
        <time>2015-03-15T14:16:38Z</time>
      </trkpt>
      <trkpt lat="40.302983" lon="-4.814583">
        <ele>1743.0</ele>
        <time>2015-03-15T14:16:39Z</time>
      </trkpt>
      <trkpt lat="40.302933" lon="-4.814517">
        <ele>1743.0</ele>
        <time>2015-03-15T14:16:40Z</time>
      </trkpt>
      <trkpt lat="40.302900" lon="-4.814433">
        <ele>1743.0</ele>
        <time>2015-03-15T14:16:41Z</time>
      </trkpt>
      <trkpt lat="40.302867" lon="-4.814333">
        <ele>1742.0</ele>
        <time>2015-03-15T14:16:42Z</time>
      </trkpt>
      <trkpt lat="40.302833" lon="-4.814217">
        <ele>1740.0</ele>
        <time>2015-03-15T14:16:43Z</time>
      </trkpt>
      <trkpt lat="40.302817" lon="-4.814100">
        <ele>1740.0</ele>
        <time>2015-03-15T14:16:44Z</time>
      </trkpt>
      <trkpt lat="40.302817" lon="-4.813967">
        <ele>1740.0</ele>
        <time>2015-03-15T14:16:45Z</time>
      </trkpt>
      <trkpt lat="40.302850" lon="-4.813817">
        <ele>1740.0</ele>
        <time>2015-03-15T14:16:46Z</time>
      </trkpt>
      <trkpt lat="40.302900" lon="-4.813683">
        <ele>1741.0</ele>
        <time>2015-03-15T14:16:47Z</time>
      </trkpt>
      <trkpt lat="40.302950" lon="-4.813550">
        <ele>1742.0</ele>
        <time>2015-03-15T14:16:48Z</time>
      </trkpt>
      <trkpt lat="40.303017" lon="-4.813450">
        <ele>1742.0</ele>
        <time>2015-03-15T14:16:49Z</time>
      </trkpt>
      <trkpt lat="40.303100" lon="-4.813333">
        <ele>1741.0</ele>
        <time>2015-03-15T14:16:50Z</time>
      </trkpt>
      <trkpt lat="40.303200" lon="-4.813233">
        <ele>1741.0</ele>
        <time>2015-03-15T14:16:51Z</time>
      </trkpt>
      <trkpt lat="40.303317" lon="-4.813150">
        <ele>1740.0</ele>
        <time>2015-03-15T14:16:52Z</time>
      </trkpt>
      <trkpt lat="40.303433" lon="-4.813100">
        <ele>1741.0</ele>
        <time>2015-03-15T14:16:53Z</time>
      </trkpt>
      <trkpt lat="40.303550" lon="-4.813067">
        <ele>1742.0</ele>
        <time>2015-03-15T14:16:54Z</time>
      </trkpt>
      <trkpt lat="40.303650" lon="-4.813050">
        <ele>1742.0</ele>
        <time>2015-03-15T14:16:55Z</time>
      </trkpt>
      <trkpt lat="40.303750" lon="-4.813067">
        <ele>1741.0</ele>
        <time>2015-03-15T14:16:56Z</time>
      </trkpt>
      <trkpt lat="40.303850" lon="-4.813100">
        <ele>1739.0</ele>
        <time>2015-03-15T14:16:57Z</time>
      </trkpt>
      <trkpt lat="40.303950" lon="-4.813150">
        <ele>1736.0</ele>
        <time>2015-03-15T14:16:58Z</time>
      </trkpt>
      <trkpt lat="40.304033" lon="-4.813233">
        <ele>1734.0</ele>
        <time>2015-03-15T14:16:59Z</time>
      </trkpt>
      <trkpt lat="40.304100" lon="-4.813350">
        <ele>1732.0</ele>
        <time>2015-03-15T14:17:00Z</time>
      </trkpt>
      <trkpt lat="40.304150" lon="-4.813467">
        <ele>1732.0</ele>
        <time>2015-03-15T14:17:01Z</time>
      </trkpt>
      <trkpt lat="40.304200" lon="-4.813550">
        <ele>1732.0</ele>
        <time>2015-03-15T14:17:02Z</time>
      </trkpt>
      <trkpt lat="40.304200" lon="-4.813650">
        <ele>1731.0</ele>
        <time>2015-03-15T14:17:03Z</time>
      </trkpt>
      <trkpt lat="40.304200" lon="-4.813717">
        <ele>1730.0</ele>
        <time>2015-03-15T14:17:04Z</time>
      </trkpt>
      <trkpt lat="40.304150" lon="-4.813783">
        <ele>1729.0</ele>
        <time>2015-03-15T14:17:05Z</time>
      </trkpt>
      <trkpt lat="40.304083" lon="-4.813817">
        <ele>1727.0</ele>
        <time>2015-03-15T14:17:06Z</time>
      </trkpt>
      <trkpt lat="40.304000" lon="-4.813800">
        <ele>1725.0</ele>
        <time>2015-03-15T14:17:07Z</time>
      </trkpt>
      <trkpt lat="40.303917" lon="-4.813750">
        <ele>1725.0</ele>
        <time>2015-03-15T14:17:08Z</time>
      </trkpt>
      <trkpt lat="40.303867" lon="-4.813667">
        <ele>1726.0</ele>
        <time>2015-03-15T14:17:09Z</time>
      </trkpt>
      <trkpt lat="40.303833" lon="-4.813583">
        <ele>1726.0</ele>
        <time>2015-03-15T14:17:10Z</time>
      </trkpt>
      <trkpt lat="40.303800" lon="-4.813483">
        <ele>1725.0</ele>
        <time>2015-03-15T14:17:11Z</time>
      </trkpt>
      <trkpt lat="40.303783" lon="-4.813350">
        <ele>1722.0</ele>
        <time>2015-03-15T14:17:12Z</time>
      </trkpt>
      <trkpt lat="40.303750" lon="-4.813217">
        <ele>1720.0</ele>
        <time>2015-03-15T14:17:13Z</time>
      </trkpt>
      <trkpt lat="40.303733" lon="-4.813050">
        <ele>1719.0</ele>
        <time>2015-03-15T14:17:14Z</time>
      </trkpt>
      <trkpt lat="40.303733" lon="-4.812867">
        <ele>1719.0</ele>
        <time>2015-03-15T14:17:15Z</time>
      </trkpt>
      <trkpt lat="40.303717" lon="-4.812700">
        <ele>1721.0</ele>
        <time>2015-03-15T14:17:16Z</time>
      </trkpt>
      <trkpt lat="40.303700" lon="-4.812550">
        <ele>1722.0</ele>
        <time>2015-03-15T14:17:17Z</time>
      </trkpt>
      <trkpt lat="40.303717" lon="-4.812400">
        <ele>1723.0</ele>
        <time>2015-03-15T14:17:18Z</time>
      </trkpt>
      <trkpt lat="40.303733" lon="-4.812250">
        <ele>1723.0</ele>
        <time>2015-03-15T14:17:19Z</time>
      </trkpt>
      <trkpt lat="40.303767" lon="-4.812083">
        <ele>1722.0</ele>
        <time>2015-03-15T14:17:20Z</time>
      </trkpt>
      <trkpt lat="40.303800" lon="-4.811900">
        <ele>1722.0</ele>
        <time>2015-03-15T14:17:21Z</time>
      </trkpt>
      <trkpt lat="40.303833" lon="-4.811733">
        <ele>1723.0</ele>
        <time>2015-03-15T14:17:22Z</time>
      </trkpt>
      <trkpt lat="40.303883" lon="-4.811583">
        <ele>1725.0</ele>
        <time>2015-03-15T14:17:23Z</time>
      </trkpt>
      <trkpt lat="40.303933" lon="-4.811467">
        <ele>1727.0</ele>
        <time>2015-03-15T14:17:24Z</time>
      </trkpt>
      <trkpt lat="40.303967" lon="-4.811333">
        <ele>1728.0</ele>
        <time>2015-03-15T14:17:25Z</time>
      </trkpt>
      <trkpt lat="40.304017" lon="-4.811217">
        <ele>1729.0</ele>
        <time>2015-03-15T14:17:26Z</time>
      </trkpt>
      <trkpt lat="40.304067" lon="-4.811100">
        <ele>1730.0</ele>
        <time>2015-03-15T14:17:27Z</time>
      </trkpt>
      <trkpt lat="40.304117" lon="-4.810983">
        <ele>1731.0</ele>
        <time>2015-03-15T14:17:28Z</time>
      </trkpt>
      <trkpt lat="40.304183" lon="-4.810883">
        <ele>1731.0</ele>
        <time>2015-03-15T14:17:29Z</time>
      </trkpt>
      <trkpt lat="40.304267" lon="-4.810817">
        <ele>1732.0</ele>
        <time>2015-03-15T14:17:30Z</time>
      </trkpt>
      <trkpt lat="40.304367" lon="-4.810767">
        <ele>1733.0</ele>
        <time>2015-03-15T14:17:31Z</time>
      </trkpt>
      <trkpt lat="40.304467" lon="-4.810750">
        <ele>1734.0</ele>
        <time>2015-03-15T14:17:32Z</time>
      </trkpt>
      <trkpt lat="40.304550" lon="-4.810783">
        <ele>1735.0</ele>
        <time>2015-03-15T14:17:33Z</time>
      </trkpt>
      <trkpt lat="40.304633" lon="-4.810817">
        <ele>1736.0</ele>
        <time>2015-03-15T14:17:34Z</time>
      </trkpt>
      <trkpt lat="40.304700" lon="-4.810867">
        <ele>1737.0</ele>
        <time>2015-03-15T14:17:35Z</time>
      </trkpt>
      <trkpt lat="40.304767" lon="-4.810950">
        <ele>1737.0</ele>
        <time>2015-03-15T14:17:36Z</time>
      </trkpt>
      <trkpt lat="40.304817" lon="-4.811033">
        <ele>1738.0</ele>
        <time>2015-03-15T14:17:37Z</time>
      </trkpt>
      <trkpt lat="40.304850" lon="-4.811133">
        <ele>1738.0</ele>
        <time>2015-03-15T14:17:38Z</time>
      </trkpt>
      <trkpt lat="40.304867" lon="-4.811233">
        <ele>1738.0</ele>
        <time>2015-03-15T14:17:39Z</time>
      </trkpt>
      <trkpt lat="40.304850" lon="-4.811317">
        <ele>1737.0</ele>
        <time>2015-03-15T14:17:40Z</time>
      </trkpt>
      <trkpt lat="40.304833" lon="-4.811400">
        <ele>1737.0</ele>
        <time>2015-03-15T14:17:41Z</time>
      </trkpt>
      <trkpt lat="40.304783" lon="-4.811467">
        <ele>1737.0</ele>
        <time>2015-03-15T14:17:42Z</time>
      </trkpt>
      <trkpt lat="40.304750" lon="-4.811517">
        <ele>1737.0</ele>
        <time>2015-03-15T14:17:43Z</time>
      </trkpt>
      <trkpt lat="40.304683" lon="-4.811550">
        <ele>1737.0</ele>
        <time>2015-03-15T14:17:44Z</time>
      </trkpt>
      <trkpt lat="40.304617" lon="-4.811583">
        <ele>1737.0</ele>
        <time>2015-03-15T14:17:45Z</time>
      </trkpt>
      <trkpt lat="40.304550" lon="-4.811600">
        <ele>1737.0</ele>
        <time>2015-03-15T14:17:46Z</time>
      </trkpt>
      <trkpt lat="40.304483" lon="-4.811600">
        <ele>1738.0</ele>
        <time>2015-03-15T14:17:47Z</time>
      </trkpt>
      <trkpt lat="40.304417" lon="-4.811600">
        <ele>1739.0</ele>
        <time>2015-03-15T14:17:48Z</time>
      </trkpt>
      <trkpt lat="40.304333" lon="-4.811583">
        <ele>1740.0</ele>
        <time>2015-03-15T14:17:49Z</time>
      </trkpt>
      <trkpt lat="40.304250" lon="-4.811550">
        <ele>1741.0</ele>
        <time>2015-03-15T14:17:50Z</time>
      </trkpt>
      <trkpt lat="40.304167" lon="-4.811500">
        <ele>1742.0</ele>
        <time>2015-03-15T14:17:51Z</time>
      </trkpt>
      <trkpt lat="40.304100" lon="-4.811467">
        <ele>1744.0</ele>
        <time>2015-03-15T14:17:52Z</time>
      </trkpt>
      <trkpt lat="40.304017" lon="-4.811433">
        <ele>1746.0</ele>
        <time>2015-03-15T14:17:53Z</time>
      </trkpt>
      <trkpt lat="40.303950" lon="-4.811383">
        <ele>1748.0</ele>
        <time>2015-03-15T14:17:54Z</time>
      </trkpt>
      <trkpt lat="40.303883" lon="-4.811333">
        <ele>1748.0</ele>
        <time>2015-03-15T14:17:55Z</time>
      </trkpt>
      <trkpt lat="40.303800" lon="-4.811250">
        <ele>1749.0</ele>
        <time>2015-03-15T14:17:56Z</time>
      </trkpt>
      <trkpt lat="40.303733" lon="-4.811167">
        <ele>1749.0</ele>
        <time>2015-03-15T14:17:57Z</time>
      </trkpt>
      <trkpt lat="40.303667" lon="-4.811067">
        <ele>1749.0</ele>
        <time>2015-03-15T14:17:58Z</time>
      </trkpt>
      <trkpt lat="40.303600" lon="-4.810950">
        <ele>1751.0</ele>
        <time>2015-03-15T14:17:59Z</time>
      </trkpt>
      <trkpt lat="40.303567" lon="-4.810800">
        <ele>1752.0</ele>
        <time>2015-03-15T14:18:00Z</time>
      </trkpt>
      <trkpt lat="40.303533" lon="-4.810650">
        <ele>1753.0</ele>
        <time>2015-03-15T14:18:01Z</time>
      </trkpt>
      <trkpt lat="40.303533" lon="-4.810500">
        <ele>1755.0</ele>
        <time>2015-03-15T14:18:02Z</time>
      </trkpt>
      <trkpt lat="40.303533" lon="-4.810367">
        <ele>1758.0</ele>
        <time>2015-03-15T14:18:03Z</time>
      </trkpt>
      <trkpt lat="40.303550" lon="-4.810233">
        <ele>1760.0</ele>
        <time>2015-03-15T14:18:04Z</time>
      </trkpt>
      <trkpt lat="40.303567" lon="-4.810100">
        <ele>1762.0</ele>
        <time>2015-03-15T14:18:05Z</time>
      </trkpt>
      <trkpt lat="40.303600" lon="-4.809983">
        <ele>1763.0</ele>
        <time>2015-03-15T14:18:06Z</time>
      </trkpt>
      <trkpt lat="40.303650" lon="-4.809883">
        <ele>1764.0</ele>
        <time>2015-03-15T14:18:07Z</time>
      </trkpt>
      <trkpt lat="40.303733" lon="-4.809783">
        <ele>1764.0</ele>
        <time>2015-03-15T14:18:08Z</time>
      </trkpt>
      <trkpt lat="40.303817" lon="-4.809683">
        <ele>1763.0</ele>
        <time>2015-03-15T14:18:09Z</time>
      </trkpt>
      <trkpt lat="40.303917" lon="-4.809600">
        <ele>1764.0</ele>
        <time>2015-03-15T14:18:10Z</time>
      </trkpt>
      <trkpt lat="40.304000" lon="-4.809533">
        <ele>1765.0</ele>
        <time>2015-03-15T14:18:11Z</time>
      </trkpt>
      <trkpt lat="40.304083" lon="-4.809483">
        <ele>1767.0</ele>
        <time>2015-03-15T14:18:12Z</time>
      </trkpt>
      <trkpt lat="40.304183" lon="-4.809450">
        <ele>1769.0</ele>
        <time>2015-03-15T14:18:13Z</time>
      </trkpt>
      <trkpt lat="40.304267" lon="-4.809450">
        <ele>1770.0</ele>
        <time>2015-03-15T14:18:14Z</time>
      </trkpt>
      <trkpt lat="40.304350" lon="-4.809467">
        <ele>1770.0</ele>
        <time>2015-03-15T14:18:15Z</time>
      </trkpt>
      <trkpt lat="40.304433" lon="-4.809500">
        <ele>1770.0</ele>
        <time>2015-03-15T14:18:16Z</time>
      </trkpt>
      <trkpt lat="40.304500" lon="-4.809550">
        <ele>1772.0</ele>
        <time>2015-03-15T14:18:17Z</time>
      </trkpt>
      <trkpt lat="40.304567" lon="-4.809617">
        <ele>1773.0</ele>
        <time>2015-03-15T14:18:18Z</time>
      </trkpt>
      <trkpt lat="40.304617" lon="-4.809683">
        <ele>1774.0</ele>
        <time>2015-03-15T14:18:19Z</time>
      </trkpt>
      <trkpt lat="40.304667" lon="-4.809767">
        <ele>1774.0</ele>
        <time>2015-03-15T14:18:20Z</time>
      </trkpt>
      <trkpt lat="40.304683" lon="-4.809850">
        <ele>1775.0</ele>
        <time>2015-03-15T14:18:21Z</time>
      </trkpt>
      <trkpt lat="40.304717" lon="-4.809933">
        <ele>1776.0</ele>
        <time>2015-03-15T14:18:22Z</time>
      </trkpt>
      <trkpt lat="40.304717" lon="-4.810017">
        <ele>1777.0</ele>
        <time>2015-03-15T14:18:23Z</time>
      </trkpt>
      <trkpt lat="40.304717" lon="-4.810083">
        <ele>1777.0</ele>
        <time>2015-03-15T14:18:24Z</time>
      </trkpt>
      <trkpt lat="40.304700" lon="-4.810150">
        <ele>1778.0</ele>
        <time>2015-03-15T14:18:25Z</time>
      </trkpt>
      <trkpt lat="40.304667" lon="-4.810217">
        <ele>1779.0</ele>
        <time>2015-03-15T14:18:26Z</time>
      </trkpt>
      <trkpt lat="40.304617" lon="-4.810267">
        <ele>1780.0</ele>
        <time>2015-03-15T14:18:27Z</time>
      </trkpt>
      <trkpt lat="40.304567" lon="-4.810283">
        <ele>1780.0</ele>
        <time>2015-03-15T14:18:28Z</time>
      </trkpt>
      <trkpt lat="40.304500" lon="-4.810267">
        <ele>1780.0</ele>
        <time>2015-03-15T14:18:29Z</time>
      </trkpt>
      <trkpt lat="40.304400" lon="-4.810250">
        <ele>1781.0</ele>
        <time>2015-03-15T14:18:30Z</time>
      </trkpt>
      <trkpt lat="40.304317" lon="-4.810217">
        <ele>1782.0</ele>
        <time>2015-03-15T14:18:31Z</time>
      </trkpt>
      <trkpt lat="40.304233" lon="-4.810167">
        <ele>1786.0</ele>
        <time>2015-03-15T14:18:32Z</time>
      </trkpt>
      <trkpt lat="40.304167" lon="-4.810117">
        <ele>1790.0</ele>
        <time>2015-03-15T14:18:33Z</time>
      </trkpt>
      <trkpt lat="40.304117" lon="-4.810033">
        <ele>1793.0</ele>
        <time>2015-03-15T14:18:34Z</time>
      </trkpt>
      <trkpt lat="40.304067" lon="-4.809950">
        <ele>1794.0</ele>
        <time>2015-03-15T14:18:35Z</time>
      </trkpt>
      <trkpt lat="40.304033" lon="-4.809833">
        <ele>1795.0</ele>
        <time>2015-03-15T14:18:36Z</time>
      </trkpt>
      <trkpt lat="40.304017" lon="-4.809733">
        <ele>1797.0</ele>
        <time>2015-03-15T14:18:37Z</time>
      </trkpt>
      <trkpt lat="40.304000" lon="-4.809617">
        <ele>1798.0</ele>
        <time>2015-03-15T14:18:38Z</time>
      </trkpt>
      <trkpt lat="40.304000" lon="-4.809483">
        <ele>1798.0</ele>
        <time>2015-03-15T14:18:39Z</time>
      </trkpt>
      <trkpt lat="40.304033" lon="-4.809350">
        <ele>1798.0</ele>
        <time>2015-03-15T14:18:40Z</time>
      </trkpt>
      <trkpt lat="40.304083" lon="-4.809217">
        <ele>1798.0</ele>
        <time>2015-03-15T14:18:41Z</time>
      </trkpt>
      <trkpt lat="40.304133" lon="-4.809083">
        <ele>1798.0</ele>
        <time>2015-03-15T14:18:42Z</time>
      </trkpt>
      <trkpt lat="40.304217" lon="-4.808967">
        <ele>1798.0</ele>
        <time>2015-03-15T14:18:43Z</time>
      </trkpt>
      <trkpt lat="40.304300" lon="-4.808883">
        <ele>1798.0</ele>
        <time>2015-03-15T14:18:44Z</time>
      </trkpt>
      <trkpt lat="40.304400" lon="-4.808833">
        <ele>1799.0</ele>
        <time>2015-03-15T14:18:45Z</time>
      </trkpt>
      <trkpt lat="40.304483" lon="-4.808800">
        <ele>1798.0</ele>
        <time>2015-03-15T14:18:46Z</time>
      </trkpt>
      <trkpt lat="40.304583" lon="-4.808800">
        <ele>1798.0</ele>
        <time>2015-03-15T14:18:47Z</time>
      </trkpt>
      <trkpt lat="40.304683" lon="-4.808817">
        <ele>1799.0</ele>
        <time>2015-03-15T14:18:48Z</time>
      </trkpt>
      <trkpt lat="40.304783" lon="-4.808817">
        <ele>1800.0</ele>
        <time>2015-03-15T14:18:49Z</time>
      </trkpt>
      <trkpt lat="40.304867" lon="-4.808833">
        <ele>1802.0</ele>
        <time>2015-03-15T14:18:50Z</time>
      </trkpt>
      <trkpt lat="40.304950" lon="-4.808867">
        <ele>1804.0</ele>
        <time>2015-03-15T14:18:51Z</time>
      </trkpt>
      <trkpt lat="40.305000" lon="-4.808917">
        <ele>1806.0</ele>
        <time>2015-03-15T14:18:52Z</time>
      </trkpt>
      <trkpt lat="40.305050" lon="-4.808967">
        <ele>1807.0</ele>
        <time>2015-03-15T14:18:53Z</time>
      </trkpt>
      <trkpt lat="40.305083" lon="-4.809050">
        <ele>1808.0</ele>
        <time>2015-03-15T14:18:54Z</time>
      </trkpt>
      <trkpt lat="40.305100" lon="-4.809133">
        <ele>1808.0</ele>
        <time>2015-03-15T14:18:55Z</time>
      </trkpt>
      <trkpt lat="40.305117" lon="-4.809217">
        <ele>1809.0</ele>
        <time>2015-03-15T14:18:56Z</time>
      </trkpt>
      <trkpt lat="40.305117" lon="-4.809317">
        <ele>1811.0</ele>
        <time>2015-03-15T14:18:57Z</time>
      </trkpt>
      <trkpt lat="40.305117" lon="-4.809417">
        <ele>1812.0</ele>
        <time>2015-03-15T14:18:58Z</time>
      </trkpt>
      <trkpt lat="40.305083" lon="-4.809500">
        <ele>1813.0</ele>
        <time>2015-03-15T14:18:59Z</time>
      </trkpt>
      <trkpt lat="40.305050" lon="-4.809583">
        <ele>1815.0</ele>
        <time>2015-03-15T14:19:00Z</time>
      </trkpt>
      <trkpt lat="40.304983" lon="-4.809667">
        <ele>1816.0</ele>
        <time>2015-03-15T14:19:01Z</time>
      </trkpt>
      <trkpt lat="40.304917" lon="-4.809717">
        <ele>1818.0</ele>
        <time>2015-03-15T14:19:02Z</time>
      </trkpt>
      <trkpt lat="40.304850" lon="-4.809750">
        <ele>1820.0</ele>
        <time>2015-03-15T14:19:03Z</time>
      </trkpt>
      <trkpt lat="40.304783" lon="-4.809750">
        <ele>1821.0</ele>
        <time>2015-03-15T14:19:04Z</time>
      </trkpt>
      <trkpt lat="40.304700" lon="-4.809733">
        <ele>1822.0</ele>
        <time>2015-03-15T14:19:05Z</time>
      </trkpt>
      <trkpt lat="40.304617" lon="-4.809700">
        <ele>1822.0</ele>
        <time>2015-03-15T14:19:06Z</time>
      </trkpt>
      <trkpt lat="40.304533" lon="-4.809650">
        <ele>1822.0</ele>
        <time>2015-03-15T14:19:07Z</time>
      </trkpt>
      <trkpt lat="40.304450" lon="-4.809583">
        <ele>1823.0</ele>
        <time>2015-03-15T14:19:08Z</time>
      </trkpt>
      <trkpt lat="40.304367" lon="-4.809483">
        <ele>1824.0</ele>
        <time>2015-03-15T14:19:09Z</time>
      </trkpt>
      <trkpt lat="40.304317" lon="-4.809350">
        <ele>1826.0</ele>
        <time>2015-03-15T14:19:10Z</time>
      </trkpt>
      <trkpt lat="40.304267" lon="-4.809217">
        <ele>1827.0</ele>
        <time>2015-03-15T14:19:11Z</time>
      </trkpt>
      <trkpt lat="40.304267" lon="-4.809083">
        <ele>1830.0</ele>
        <time>2015-03-15T14:19:12Z</time>
      </trkpt>
      <trkpt lat="40.304267" lon="-4.808950">
        <ele>1831.0</ele>
        <time>2015-03-15T14:19:13Z</time>
      </trkpt>
      <trkpt lat="40.304317" lon="-4.808817">
        <ele>1833.0</ele>
        <time>2015-03-15T14:19:14Z</time>
      </trkpt>
      <trkpt lat="40.304367" lon="-4.808683">
        <ele>1833.0</ele>
        <time>2015-03-15T14:19:15Z</time>
      </trkpt>
      <trkpt lat="40.304450" lon="-4.808583">
        <ele>1833.0</ele>
        <time>2015-03-15T14:19:16Z</time>
      </trkpt>
      <trkpt lat="40.304550" lon="-4.808467">
        <ele>1834.0</ele>
        <time>2015-03-15T14:19:17Z</time>
      </trkpt>
      <trkpt lat="40.304633" lon="-4.808400">
        <ele>1835.0</ele>
        <time>2015-03-15T14:19:18Z</time>
      </trkpt>
      <trkpt lat="40.304733" lon="-4.808350">
        <ele>1836.0</ele>
        <time>2015-03-15T14:19:19Z</time>
      </trkpt>
      <trkpt lat="40.304850" lon="-4.808333">
        <ele>1836.0</ele>
        <time>2015-03-15T14:19:20Z</time>
      </trkpt>
      <trkpt lat="40.304967" lon="-4.808350">
        <ele>1838.0</ele>
        <time>2015-03-15T14:19:21Z</time>
      </trkpt>
      <trkpt lat="40.305067" lon="-4.808367">
        <ele>1839.0</ele>
        <time>2015-03-15T14:19:22Z</time>
      </trkpt>
      <trkpt lat="40.305167" lon="-4.808417">
        <ele>1841.0</ele>
        <time>2015-03-15T14:19:23Z</time>
      </trkpt>
      <trkpt lat="40.305233" lon="-4.808483">
        <ele>1843.0</ele>
        <time>2015-03-15T14:19:24Z</time>
      </trkpt>
      <trkpt lat="40.305283" lon="-4.808567">
        <ele>1845.0</ele>
        <time>2015-03-15T14:19:25Z</time>
      </trkpt>
      <trkpt lat="40.305300" lon="-4.808650">
        <ele>1846.0</ele>
        <time>2015-03-15T14:19:26Z</time>
      </trkpt>
      <trkpt lat="40.305300" lon="-4.808733">
        <ele>1847.0</ele>
        <time>2015-03-15T14:19:27Z</time>
      </trkpt>
      <trkpt lat="40.305283" lon="-4.808800">
        <ele>1849.0</ele>
        <time>2015-03-15T14:19:28Z</time>
      </trkpt>
      <trkpt lat="40.305250" lon="-4.808883">
        <ele>1850.0</ele>
        <time>2015-03-15T14:19:29Z</time>
      </trkpt>
      <trkpt lat="40.305217" lon="-4.808933">
        <ele>1851.0</ele>
        <time>2015-03-15T14:19:30Z</time>
      </trkpt>
      <trkpt lat="40.305150" lon="-4.808983">
        <ele>1852.0</ele>
        <time>2015-03-15T14:19:31Z</time>
      </trkpt>
      <trkpt lat="40.305067" lon="-4.809017">
        <ele>1853.0</ele>
        <time>2015-03-15T14:19:32Z</time>
      </trkpt>
      <trkpt lat="40.304967" lon="-4.809017">
        <ele>1855.0</ele>
        <time>2015-03-15T14:19:33Z</time>
      </trkpt>
      <trkpt lat="40.304883" lon="-4.808967">
        <ele>1857.0</ele>
        <time>2015-03-15T14:19:34Z</time>
      </trkpt>
      <trkpt lat="40.304800" lon="-4.808900">
        <ele>1859.0</ele>
        <time>2015-03-15T14:19:35Z</time>
      </trkpt>
      <trkpt lat="40.304733" lon="-4.808800">
        <ele>1861.0</ele>
        <time>2015-03-15T14:19:36Z</time>
      </trkpt>
      <trkpt lat="40.304667" lon="-4.808717">
        <ele>1862.0</ele>
        <time>2015-03-15T14:19:37Z</time>
      </trkpt>
      <trkpt lat="40.304600" lon="-4.808617">
        <ele>1863.0</ele>
        <time>2015-03-15T14:19:38Z</time>
      </trkpt>
      <trkpt lat="40.304567" lon="-4.808483">
        <ele>1863.0</ele>
        <time>2015-03-15T14:19:39Z</time>
      </trkpt>
      <trkpt lat="40.304550" lon="-4.808350">
        <ele>1864.0</ele>
        <time>2015-03-15T14:19:40Z</time>
      </trkpt>
      <trkpt lat="40.304550" lon="-4.808183">
        <ele>1865.0</ele>
        <time>2015-03-15T14:19:41Z</time>
      </trkpt>
      <trkpt lat="40.304583" lon="-4.808033">
        <ele>1866.0</ele>
        <time>2015-03-15T14:19:42Z</time>
      </trkpt>
      <trkpt lat="40.304633" lon="-4.807900">
        <ele>1867.0</ele>
        <time>2015-03-15T14:19:43Z</time>
      </trkpt>
      <trkpt lat="40.304683" lon="-4.807783">
        <ele>1868.0</ele>
        <time>2015-03-15T14:19:44Z</time>
      </trkpt>
      <trkpt lat="40.304750" lon="-4.807683">
        <ele>1867.0</ele>
        <time>2015-03-15T14:19:45Z</time>
      </trkpt>
      <trkpt lat="40.304850" lon="-4.807600">
        <ele>1867.0</ele>
        <time>2015-03-15T14:19:46Z</time>
      </trkpt>
      <trkpt lat="40.304967" lon="-4.807550">
        <ele>1866.0</ele>
        <time>2015-03-15T14:19:47Z</time>
      </trkpt>
      <trkpt lat="40.305083" lon="-4.807517">
        <ele>1866.0</ele>
        <time>2015-03-15T14:19:48Z</time>
      </trkpt>
      <trkpt lat="40.305200" lon="-4.807517">
        <ele>1867.0</ele>
        <time>2015-03-15T14:19:49Z</time>
      </trkpt>
      <trkpt lat="40.305300" lon="-4.807533">
        <ele>1868.0</ele>
        <time>2015-03-15T14:19:50Z</time>
      </trkpt>
      <trkpt lat="40.305383" lon="-4.807583">
        <ele>1869.0</ele>
        <time>2015-03-15T14:19:51Z</time>
      </trkpt>
      <trkpt lat="40.305467" lon="-4.807650">
        <ele>1869.0</ele>
        <time>2015-03-15T14:19:52Z</time>
      </trkpt>
      <trkpt lat="40.305533" lon="-4.807733">
        <ele>1869.0</ele>
        <time>2015-03-15T14:19:53Z</time>
      </trkpt>
      <trkpt lat="40.305600" lon="-4.807817">
        <ele>1870.0</ele>
        <time>2015-03-15T14:19:54Z</time>
      </trkpt>
      <trkpt lat="40.305650" lon="-4.807917">
        <ele>1870.0</ele>
        <time>2015-03-15T14:19:55Z</time>
      </trkpt>
      <trkpt lat="40.305683" lon="-4.808000">
        <ele>1871.0</ele>
        <time>2015-03-15T14:19:56Z</time>
      </trkpt>
      <trkpt lat="40.305717" lon="-4.808100">
        <ele>1872.0</ele>
        <time>2015-03-15T14:19:57Z</time>
      </trkpt>
      <trkpt lat="40.305733" lon="-4.808200">
        <ele>1873.0</ele>
        <time>2015-03-15T14:19:58Z</time>
      </trkpt>
      <trkpt lat="40.305717" lon="-4.808300">
        <ele>1874.0</ele>
        <time>2015-03-15T14:19:59Z</time>
      </trkpt>
      <trkpt lat="40.305700" lon="-4.808383">
        <ele>1875.0</ele>
        <time>2015-03-15T14:20:00Z</time>
      </trkpt>
      <trkpt lat="40.305667" lon="-4.808467">
        <ele>1877.0</ele>
        <time>2015-03-15T14:20:01Z</time>
      </trkpt>
      <trkpt lat="40.305617" lon="-4.808533">
        <ele>1878.0</ele>
        <time>2015-03-15T14:20:02Z</time>
      </trkpt>
      <trkpt lat="40.305550" lon="-4.808583">
        <ele>1879.0</ele>
        <time>2015-03-15T14:20:03Z</time>
      </trkpt>
      <trkpt lat="40.305467" lon="-4.808617">
        <ele>1880.0</ele>
        <time>2015-03-15T14:20:04Z</time>
      </trkpt>
      <trkpt lat="40.305383" lon="-4.808617">
        <ele>1882.0</ele>
        <time>2015-03-15T14:20:05Z</time>
      </trkpt>
      <trkpt lat="40.305300" lon="-4.808583">
        <ele>1883.0</ele>
        <time>2015-03-15T14:20:06Z</time>
      </trkpt>
      <trkpt lat="40.305217" lon="-4.808533">
        <ele>1883.0</ele>
        <time>2015-03-15T14:20:07Z</time>
      </trkpt>
      <trkpt lat="40.305150" lon="-4.808450">
        <ele>1884.0</ele>
        <time>2015-03-15T14:20:08Z</time>
      </trkpt>
      <trkpt lat="40.305067" lon="-4.808333">
        <ele>1885.0</ele>
        <time>2015-03-15T14:20:09Z</time>
      </trkpt>
      <trkpt lat="40.305017" lon="-4.808217">
        <ele>1886.0</ele>
        <time>2015-03-15T14:20:10Z</time>
      </trkpt>
      <trkpt lat="40.304983" lon="-4.808083">
        <ele>1888.0</ele>
        <time>2015-03-15T14:20:11Z</time>
      </trkpt>
      <trkpt lat="40.304950" lon="-4.807933">
        <ele>1889.0</ele>
        <time>2015-03-15T14:20:12Z</time>
      </trkpt>
      <trkpt lat="40.304967" lon="-4.807783">
        <ele>1891.0</ele>
        <time>2015-03-15T14:20:13Z</time>
      </trkpt>
      <trkpt lat="40.304983" lon="-4.807650">
        <ele>1893.0</ele>
        <time>2015-03-15T14:20:14Z</time>
      </trkpt>
      <trkpt lat="40.305000" lon="-4.807533">
        <ele>1895.0</ele>
        <time>2015-03-15T14:20:15Z</time>
      </trkpt>
      <trkpt lat="40.305017" lon="-4.807400">
        <ele>1895.0</ele>
        <time>2015-03-15T14:20:16Z</time>
      </trkpt>
      <trkpt lat="40.305017" lon="-4.807267">
        <ele>1895.0</ele>
        <time>2015-03-15T14:20:17Z</time>
      </trkpt>
      <trkpt lat="40.305033" lon="-4.807133">
        <ele>1895.0</ele>
        <time>2015-03-15T14:20:18Z</time>
      </trkpt>
      <trkpt lat="40.305050" lon="-4.807000">
        <ele>1895.0</ele>
        <time>2015-03-15T14:20:19Z</time>
      </trkpt>
      <trkpt lat="40.305100" lon="-4.806850">
        <ele>1895.0</ele>
        <time>2015-03-15T14:20:20Z</time>
      </trkpt>
      <trkpt lat="40.305150" lon="-4.806700">
        <ele>1895.0</ele>
        <time>2015-03-15T14:20:21Z</time>
      </trkpt>
      <trkpt lat="40.305200" lon="-4.806567">
        <ele>1895.0</ele>
        <time>2015-03-15T14:20:22Z</time>
      </trkpt>
      <trkpt lat="40.305267" lon="-4.806433">
        <ele>1896.0</ele>
        <time>2015-03-15T14:20:23Z</time>
      </trkpt>
      <trkpt lat="40.305333" lon="-4.806333">
        <ele>1896.0</ele>
        <time>2015-03-15T14:20:24Z</time>
      </trkpt>
      <trkpt lat="40.305400" lon="-4.806233">
        <ele>1897.0</ele>
        <time>2015-03-15T14:20:25Z</time>
      </trkpt>
      <trkpt lat="40.305483" lon="-4.806133">
        <ele>1897.0</ele>
        <time>2015-03-15T14:20:26Z</time>
      </trkpt>
      <trkpt lat="40.305567" lon="-4.806017">
        <ele>1896.0</ele>
        <time>2015-03-15T14:20:27Z</time>
      </trkpt>
      <trkpt lat="40.305650" lon="-4.805900">
        <ele>1896.0</ele>
        <time>2015-03-15T14:20:28Z</time>
      </trkpt>
      <trkpt lat="40.305733" lon="-4.805800">
        <ele>1896.0</ele>
        <time>2015-03-15T14:20:29Z</time>
      </trkpt>
      <trkpt lat="40.305833" lon="-4.805700">
        <ele>1897.0</ele>
        <time>2015-03-15T14:20:30Z</time>
      </trkpt>
      <trkpt lat="40.305917" lon="-4.805617">
        <ele>1898.0</ele>
        <time>2015-03-15T14:20:31Z</time>
      </trkpt>
      <trkpt lat="40.306000" lon="-4.805550">
        <ele>1898.0</ele>
        <time>2015-03-15T14:20:32Z</time>
      </trkpt>
      <trkpt lat="40.306100" lon="-4.805483">
        <ele>1898.0</ele>
        <time>2015-03-15T14:20:33Z</time>
      </trkpt>
      <trkpt lat="40.306200" lon="-4.805450">
        <ele>1897.0</ele>
        <time>2015-03-15T14:20:34Z</time>
      </trkpt>
      <trkpt lat="40.306317" lon="-4.805417">
        <ele>1897.0</ele>
        <time>2015-03-15T14:20:35Z</time>
      </trkpt>
      <trkpt lat="40.306433" lon="-4.805400">
        <ele>1897.0</ele>
        <time>2015-03-15T14:20:36Z</time>
      </trkpt>
      <trkpt lat="40.306550" lon="-4.805383">
        <ele>1897.0</ele>
        <time>2015-03-15T14:20:37Z</time>
      </trkpt>
      <trkpt lat="40.306650" lon="-4.805383">
        <ele>1898.0</ele>
        <time>2015-03-15T14:20:38Z</time>
      </trkpt>
      <trkpt lat="40.306767" lon="-4.805400">
        <ele>1899.0</ele>
        <time>2015-03-15T14:20:39Z</time>
      </trkpt>
      <trkpt lat="40.306867" lon="-4.805433">
        <ele>1901.0</ele>
        <time>2015-03-15T14:20:40Z</time>
      </trkpt>
      <trkpt lat="40.306967" lon="-4.805483">
        <ele>1902.0</ele>
        <time>2015-03-15T14:20:41Z</time>
      </trkpt>
      <trkpt lat="40.307067" lon="-4.805533">
        <ele>1903.0</ele>
        <time>2015-03-15T14:20:42Z</time>
      </trkpt>
      <trkpt lat="40.307150" lon="-4.805583">
        <ele>1905.0</ele>
        <time>2015-03-15T14:20:43Z</time>
      </trkpt>
      <trkpt lat="40.307217" lon="-4.805650">
        <ele>1906.0</ele>
        <time>2015-03-15T14:20:44Z</time>
      </trkpt>
      <trkpt lat="40.307267" lon="-4.805700">
        <ele>1907.0</ele>
        <time>2015-03-15T14:20:45Z</time>
      </trkpt>
      <trkpt lat="40.307317" lon="-4.805767">
        <ele>1907.0</ele>
        <time>2015-03-15T14:20:46Z</time>
      </trkpt>
      <trkpt lat="40.307367" lon="-4.805850">
        <ele>1907.0</ele>
        <time>2015-03-15T14:20:47Z</time>
      </trkpt>
      <trkpt lat="40.307417" lon="-4.805950">
        <ele>1906.0</ele>
        <time>2015-03-15T14:20:48Z</time>
      </trkpt>
      <trkpt lat="40.307450" lon="-4.806050">
        <ele>1906.0</ele>
        <time>2015-03-15T14:20:49Z</time>
      </trkpt>
      <trkpt lat="40.307500" lon="-4.806150">
        <ele>1908.0</ele>
        <time>2015-03-15T14:20:50Z</time>
      </trkpt>
      <trkpt lat="40.307550" lon="-4.806233">
        <ele>1910.0</ele>
        <time>2015-03-15T14:20:51Z</time>
      </trkpt>
      <trkpt lat="40.307583" lon="-4.806317">
        <ele>1912.0</ele>
        <time>2015-03-15T14:20:52Z</time>
      </trkpt>
      <trkpt lat="40.307617" lon="-4.806400">
        <ele>1914.0</ele>
        <time>2015-03-15T14:20:53Z</time>
      </trkpt>
      <trkpt lat="40.307633" lon="-4.806483">
        <ele>1916.0</ele>
        <time>2015-03-15T14:20:54Z</time>
      </trkpt>
      <trkpt lat="40.307633" lon="-4.806583">
        <ele>1918.0</ele>
        <time>2015-03-15T14:20:55Z</time>
      </trkpt>
      <trkpt lat="40.307617" lon="-4.806667">
        <ele>1920.0</ele>
        <time>2015-03-15T14:20:56Z</time>
      </trkpt>
      <trkpt lat="40.307583" lon="-4.806733">
        <ele>1922.0</ele>
        <time>2015-03-15T14:20:57Z</time>
      </trkpt>
      <trkpt lat="40.307567" lon="-4.806783">
        <ele>1924.0</ele>
        <time>2015-03-15T14:20:58Z</time>
      </trkpt>
      <trkpt lat="40.307533" lon="-4.806817">
        <ele>1926.0</ele>
        <time>2015-03-15T14:20:59Z</time>
      </trkpt>
      <trkpt lat="40.307483" lon="-4.806833">
        <ele>1926.0</ele>
        <time>2015-03-15T14:21:00Z</time>
      </trkpt>
      <trkpt lat="40.307417" lon="-4.806833">
        <ele>1925.0</ele>
        <time>2015-03-15T14:21:01Z</time>
      </trkpt>
      <trkpt lat="40.307350" lon="-4.806800">
        <ele>1924.0</ele>
        <time>2015-03-15T14:21:02Z</time>
      </trkpt>
      <trkpt lat="40.307267" lon="-4.806767">
        <ele>1924.0</ele>
        <time>2015-03-15T14:21:03Z</time>
      </trkpt>
      <trkpt lat="40.307183" lon="-4.806717">
        <ele>1924.0</ele>
        <time>2015-03-15T14:21:04Z</time>
      </trkpt>
      <trkpt lat="40.307117" lon="-4.806650">
        <ele>1924.0</ele>
        <time>2015-03-15T14:21:05Z</time>
      </trkpt>
      <trkpt lat="40.307033" lon="-4.806550">
        <ele>1925.0</ele>
        <time>2015-03-15T14:21:06Z</time>
      </trkpt>
      <trkpt lat="40.306983" lon="-4.806450">
        <ele>1927.0</ele>
        <time>2015-03-15T14:21:07Z</time>
      </trkpt>
      <trkpt lat="40.306950" lon="-4.806333">
        <ele>1928.0</ele>
        <time>2015-03-15T14:21:08Z</time>
      </trkpt>
      <trkpt lat="40.306917" lon="-4.806217">
        <ele>1929.0</ele>
        <time>2015-03-15T14:21:09Z</time>
      </trkpt>
      <trkpt lat="40.306900" lon="-4.806083">
        <ele>1929.0</ele>
        <time>2015-03-15T14:21:10Z</time>
      </trkpt>
      <trkpt lat="40.306883" lon="-4.805933">
        <ele>1930.0</ele>
        <time>2015-03-15T14:21:11Z</time>
      </trkpt>
      <trkpt lat="40.306883" lon="-4.805783">
        <ele>1931.0</ele>
        <time>2015-03-15T14:21:12Z</time>
      </trkpt>
      <trkpt lat="40.306883" lon="-4.805633">
        <ele>1932.0</ele>
        <time>2015-03-15T14:21:13Z</time>
      </trkpt>
      <trkpt lat="40.306917" lon="-4.805500">
        <ele>1932.0</ele>
        <time>2015-03-15T14:21:14Z</time>
      </trkpt>
      <trkpt lat="40.306950" lon="-4.805367">
        <ele>1933.0</ele>
        <time>2015-03-15T14:21:15Z</time>
      </trkpt>
      <trkpt lat="40.306983" lon="-4.805217">
        <ele>1932.0</ele>
        <time>2015-03-15T14:21:16Z</time>
      </trkpt>
      <trkpt lat="40.307033" lon="-4.805083">
        <ele>1932.0</ele>
        <time>2015-03-15T14:21:17Z</time>
      </trkpt>
      <trkpt lat="40.307100" lon="-4.804967">
        <ele>1932.0</ele>
        <time>2015-03-15T14:21:18Z</time>
      </trkpt>
      <trkpt lat="40.307200" lon="-4.804867">
        <ele>1932.0</ele>
        <time>2015-03-15T14:21:19Z</time>
      </trkpt>
      <trkpt lat="40.307300" lon="-4.804783">
        <ele>1931.0</ele>
        <time>2015-03-15T14:21:20Z</time>
      </trkpt>
      <trkpt lat="40.307417" lon="-4.804733">
        <ele>1931.0</ele>
        <time>2015-03-15T14:21:21Z</time>
      </trkpt>
      <trkpt lat="40.307517" lon="-4.804700">
        <ele>1932.0</ele>
        <time>2015-03-15T14:21:22Z</time>
      </trkpt>
      <trkpt lat="40.307633" lon="-4.804683">
        <ele>1934.0</ele>
        <time>2015-03-15T14:21:23Z</time>
      </trkpt>
      <trkpt lat="40.307733" lon="-4.804667">
        <ele>1935.0</ele>
        <time>2015-03-15T14:21:24Z</time>
      </trkpt>
      <trkpt lat="40.307833" lon="-4.804683">
        <ele>1936.0</ele>
        <time>2015-03-15T14:21:25Z</time>
      </trkpt>
      <trkpt lat="40.307917" lon="-4.804733">
        <ele>1936.0</ele>
        <time>2015-03-15T14:21:26Z</time>
      </trkpt>
      <trkpt lat="40.308000" lon="-4.804783">
        <ele>1936.0</ele>
        <time>2015-03-15T14:21:27Z</time>
      </trkpt>
      <trkpt lat="40.308067" lon="-4.804867">
        <ele>1936.0</ele>
        <time>2015-03-15T14:21:28Z</time>
      </trkpt>
      <trkpt lat="40.308150" lon="-4.804967">
        <ele>1937.0</ele>
        <time>2015-03-15T14:21:29Z</time>
      </trkpt>
      <trkpt lat="40.308217" lon="-4.805050">
        <ele>1939.0</ele>
        <time>2015-03-15T14:21:30Z</time>
      </trkpt>
      <trkpt lat="40.308267" lon="-4.805133">
        <ele>1941.0</ele>
        <time>2015-03-15T14:21:31Z</time>
      </trkpt>
      <trkpt lat="40.308300" lon="-4.805200">
        <ele>1944.0</ele>
        <time>2015-03-15T14:21:32Z</time>
      </trkpt>
      <trkpt lat="40.308333" lon="-4.805283">
        <ele>1945.0</ele>
        <time>2015-03-15T14:21:33Z</time>
      </trkpt>
      <trkpt lat="40.308367" lon="-4.805367">
        <ele>1947.0</ele>
        <time>2015-03-15T14:21:34Z</time>
      </trkpt>
      <trkpt lat="40.308383" lon="-4.805450">
        <ele>1949.0</ele>
        <time>2015-03-15T14:21:35Z</time>
      </trkpt>
      <trkpt lat="40.308417" lon="-4.805517">
        <ele>1951.0</ele>
        <time>2015-03-15T14:21:36Z</time>
      </trkpt>
      <trkpt lat="40.308450" lon="-4.805600">
        <ele>1952.0</ele>
        <time>2015-03-15T14:21:37Z</time>
      </trkpt>
      <trkpt lat="40.308467" lon="-4.805683">
        <ele>1955.0</ele>
        <time>2015-03-15T14:21:38Z</time>
      </trkpt>
      <trkpt lat="40.308483" lon="-4.805767">
        <ele>1957.0</ele>
        <time>2015-03-15T14:21:39Z</time>
      </trkpt>
      <trkpt lat="40.308467" lon="-4.805833">
        <ele>1958.0</ele>
        <time>2015-03-15T14:21:40Z</time>
      </trkpt>
      <trkpt lat="40.308433" lon="-4.805900">
        <ele>1958.0</ele>
        <time>2015-03-15T14:21:41Z</time>
      </trkpt>
      <trkpt lat="40.308383" lon="-4.805950">
        <ele>1958.0</ele>
        <time>2015-03-15T14:21:42Z</time>
      </trkpt>
      <trkpt lat="40.308300" lon="-4.806000">
        <ele>1958.0</ele>
        <time>2015-03-15T14:21:43Z</time>
      </trkpt>
      <trkpt lat="40.308217" lon="-4.806033">
        <ele>1959.0</ele>
        <time>2015-03-15T14:21:44Z</time>
      </trkpt>
      <trkpt lat="40.308133" lon="-4.806033">
        <ele>1961.0</ele>
        <time>2015-03-15T14:21:45Z</time>
      </trkpt>
      <trkpt lat="40.308050" lon="-4.806017">
        <ele>1963.0</ele>
        <time>2015-03-15T14:21:46Z</time>
      </trkpt>
      <trkpt lat="40.307983" lon="-4.805950">
        <ele>1965.0</ele>
        <time>2015-03-15T14:21:47Z</time>
      </trkpt>
      <trkpt lat="40.307933" lon="-4.805867">
        <ele>1966.0</ele>
        <time>2015-03-15T14:21:48Z</time>
      </trkpt>
      <trkpt lat="40.307883" lon="-4.805767">
        <ele>1966.0</ele>
        <time>2015-03-15T14:21:49Z</time>
      </trkpt>
      <trkpt lat="40.307850" lon="-4.805633">
        <ele>1966.0</ele>
        <time>2015-03-15T14:21:50Z</time>
      </trkpt>
      <trkpt lat="40.307833" lon="-4.805500">
        <ele>1966.0</ele>
        <time>2015-03-15T14:21:51Z</time>
      </trkpt>
      <trkpt lat="40.307817" lon="-4.805367">
        <ele>1965.0</ele>
        <time>2015-03-15T14:21:52Z</time>
      </trkpt>
      <trkpt lat="40.307817" lon="-4.805217">
        <ele>1965.0</ele>
        <time>2015-03-15T14:21:53Z</time>
      </trkpt>
      <trkpt lat="40.307817" lon="-4.805050">
        <ele>1966.0</ele>
        <time>2015-03-15T14:21:54Z</time>
      </trkpt>
      <trkpt lat="40.307817" lon="-4.804900">
        <ele>1968.0</ele>
        <time>2015-03-15T14:21:55Z</time>
      </trkpt>
      <trkpt lat="40.307833" lon="-4.804750">
        <ele>1969.0</ele>
        <time>2015-03-15T14:21:56Z</time>
      </trkpt>
      <trkpt lat="40.307867" lon="-4.804600">
        <ele>1970.0</ele>
        <time>2015-03-15T14:21:57Z</time>
      </trkpt>
      <trkpt lat="40.307917" lon="-4.804467">
        <ele>1970.0</ele>
        <time>2015-03-15T14:21:58Z</time>
      </trkpt>
      <trkpt lat="40.307967" lon="-4.804333">
        <ele>1970.0</ele>
        <time>2015-03-15T14:21:59Z</time>
      </trkpt>
      <trkpt lat="40.308033" lon="-4.804200">
        <ele>1970.0</ele>
        <time>2015-03-15T14:22:00Z</time>
      </trkpt>
      <trkpt lat="40.308117" lon="-4.804067">
        <ele>1971.0</ele>
        <time>2015-03-15T14:22:01Z</time>
      </trkpt>
      <trkpt lat="40.308200" lon="-4.803967">
        <ele>1971.0</ele>
        <time>2015-03-15T14:22:02Z</time>
      </trkpt>
      <trkpt lat="40.308283" lon="-4.803867">
        <ele>1972.0</ele>
        <time>2015-03-15T14:22:03Z</time>
      </trkpt>
      <trkpt lat="40.308400" lon="-4.803800">
        <ele>1972.0</ele>
        <time>2015-03-15T14:22:04Z</time>
      </trkpt>
      <trkpt lat="40.308517" lon="-4.803733">
        <ele>1973.0</ele>
        <time>2015-03-15T14:22:05Z</time>
      </trkpt>
      <trkpt lat="40.308633" lon="-4.803700">
        <ele>1973.0</ele>
        <time>2015-03-15T14:22:06Z</time>
      </trkpt>
      <trkpt lat="40.308750" lon="-4.803667">
        <ele>1975.0</ele>
        <time>2015-03-15T14:22:07Z</time>
      </trkpt>
      <trkpt lat="40.308867" lon="-4.803667">
        <ele>1977.0</ele>
        <time>2015-03-15T14:22:08Z</time>
      </trkpt>
      <trkpt lat="40.308983" lon="-4.803683">
        <ele>1979.0</ele>
        <time>2015-03-15T14:22:09Z</time>
      </trkpt>
      <trkpt lat="40.309083" lon="-4.803717">
        <ele>1980.0</ele>
        <time>2015-03-15T14:22:10Z</time>
      </trkpt>
      <trkpt lat="40.309183" lon="-4.803783">
        <ele>1982.0</ele>
        <time>2015-03-15T14:22:11Z</time>
      </trkpt>
      <trkpt lat="40.309267" lon="-4.803850">
        <ele>1983.0</ele>
        <time>2015-03-15T14:22:12Z</time>
      </trkpt>
      <trkpt lat="40.309333" lon="-4.803950">
        <ele>1984.0</ele>
        <time>2015-03-15T14:22:13Z</time>
      </trkpt>
      <trkpt lat="40.309383" lon="-4.804050">
        <ele>1985.0</ele>
        <time>2015-03-15T14:22:14Z</time>
      </trkpt>
      <trkpt lat="40.309417" lon="-4.804150">
        <ele>1986.0</ele>
        <time>2015-03-15T14:22:15Z</time>
      </trkpt>
      <trkpt lat="40.309450" lon="-4.804250">
        <ele>1988.0</ele>
        <time>2015-03-15T14:22:16Z</time>
      </trkpt>
      <trkpt lat="40.309467" lon="-4.804350">
        <ele>1990.0</ele>
        <time>2015-03-15T14:22:17Z</time>
      </trkpt>
      <trkpt lat="40.309467" lon="-4.804450">
        <ele>1991.0</ele>
        <time>2015-03-15T14:22:18Z</time>
      </trkpt>
      <trkpt lat="40.309450" lon="-4.804533">
        <ele>1992.0</ele>
        <time>2015-03-15T14:22:19Z</time>
      </trkpt>
      <trkpt lat="40.309417" lon="-4.804617">
        <ele>1994.0</ele>
        <time>2015-03-15T14:22:20Z</time>
      </trkpt>
      <trkpt lat="40.309367" lon="-4.804667">
        <ele>1997.0</ele>
        <time>2015-03-15T14:22:21Z</time>
      </trkpt>
      <trkpt lat="40.309333" lon="-4.804700">
        <ele>1999.0</ele>
        <time>2015-03-15T14:22:22Z</time>
      </trkpt>
      <trkpt lat="40.309283" lon="-4.804717">
        <ele>2000.0</ele>
        <time>2015-03-15T14:22:23Z</time>
      </trkpt>
      <trkpt lat="40.309233" lon="-4.804733">
        <ele>2000.0</ele>
        <time>2015-03-15T14:22:24Z</time>
      </trkpt>
      <trkpt lat="40.309150" lon="-4.804750">
        <ele>1999.0</ele>
        <time>2015-03-15T14:22:25Z</time>
      </trkpt>
      <trkpt lat="40.309067" lon="-4.804750">
        <ele>1999.0</ele>
        <time>2015-03-15T14:22:26Z</time>
      </trkpt>
      <trkpt lat="40.308967" lon="-4.804733">
        <ele>2000.0</ele>
        <time>2015-03-15T14:22:27Z</time>
      </trkpt>
      <trkpt lat="40.308883" lon="-4.804700">
        <ele>2001.0</ele>
        <time>2015-03-15T14:22:28Z</time>
      </trkpt>
      <trkpt lat="40.308800" lon="-4.804650">
        <ele>2003.0</ele>
        <time>2015-03-15T14:22:29Z</time>
      </trkpt>
      <trkpt lat="40.308733" lon="-4.804583">
        <ele>2005.0</ele>
        <time>2015-03-15T14:22:30Z</time>
      </trkpt>
      <trkpt lat="40.308667" lon="-4.804500">
        <ele>2006.0</ele>
        <time>2015-03-15T14:22:31Z</time>
      </trkpt>
      <trkpt lat="40.308600" lon="-4.804383">
        <ele>2007.0</ele>
        <time>2015-03-15T14:22:32Z</time>
      </trkpt>
      <trkpt lat="40.308550" lon="-4.804267">
        <ele>2007.0</ele>
        <time>2015-03-15T14:22:33Z</time>
      </trkpt>
      <trkpt lat="40.308500" lon="-4.804117">
        <ele>2007.0</ele>
        <time>2015-03-15T14:22:34Z</time>
      </trkpt>
      <trkpt lat="40.308467" lon="-4.803967">
        <ele>2008.0</ele>
        <time>2015-03-15T14:22:35Z</time>
      </trkpt>
      <trkpt lat="40.308450" lon="-4.803817">
        <ele>2010.0</ele>
        <time>2015-03-15T14:22:36Z</time>
      </trkpt>
      <trkpt lat="40.308450" lon="-4.803667">
        <ele>2012.0</ele>
        <time>2015-03-15T14:22:37Z</time>
      </trkpt>
      <trkpt lat="40.308467" lon="-4.803500">
        <ele>2013.0</ele>
        <time>2015-03-15T14:22:38Z</time>
      </trkpt>
      <trkpt lat="40.308500" lon="-4.803350">
        <ele>2014.0</ele>
        <time>2015-03-15T14:22:39Z</time>
      </trkpt>
      <trkpt lat="40.308567" lon="-4.803217">
        <ele>2014.0</ele>
        <time>2015-03-15T14:22:40Z</time>
      </trkpt>
      <trkpt lat="40.308633" lon="-4.803100">
        <ele>2015.0</ele>
        <time>2015-03-15T14:22:41Z</time>
      </trkpt>
      <trkpt lat="40.308733" lon="-4.803000">
        <ele>2016.0</ele>
        <time>2015-03-15T14:22:42Z</time>
      </trkpt>
      <trkpt lat="40.308817" lon="-4.802917">
        <ele>2017.0</ele>
        <time>2015-03-15T14:22:43Z</time>
      </trkpt>
      <trkpt lat="40.308917" lon="-4.802850">
        <ele>2018.0</ele>
        <time>2015-03-15T14:22:44Z</time>
      </trkpt>
      <trkpt lat="40.309017" lon="-4.802800">
        <ele>2019.0</ele>
        <time>2015-03-15T14:22:45Z</time>
      </trkpt>
      <trkpt lat="40.309117" lon="-4.802800">
        <ele>2020.0</ele>
        <time>2015-03-15T14:22:46Z</time>
      </trkpt>
      <trkpt lat="40.309200" lon="-4.802817">
        <ele>2020.0</ele>
        <time>2015-03-15T14:22:47Z</time>
      </trkpt>
      <trkpt lat="40.309300" lon="-4.802867">
        <ele>2020.0</ele>
        <time>2015-03-15T14:22:48Z</time>
      </trkpt>
      <trkpt lat="40.309367" lon="-4.802933">
        <ele>2021.0</ele>
        <time>2015-03-15T14:22:49Z</time>
      </trkpt>
      <trkpt lat="40.309433" lon="-4.803017">
        <ele>2021.0</ele>
        <time>2015-03-15T14:22:50Z</time>
      </trkpt>
      <trkpt lat="40.309500" lon="-4.803100">
        <ele>2022.0</ele>
        <time>2015-03-15T14:22:51Z</time>
      </trkpt>
      <trkpt lat="40.309533" lon="-4.803183">
        <ele>2023.0</ele>
        <time>2015-03-15T14:22:52Z</time>
      </trkpt>
      <trkpt lat="40.309550" lon="-4.803267">
        <ele>2024.0</ele>
        <time>2015-03-15T14:22:53Z</time>
      </trkpt>
      <trkpt lat="40.309550" lon="-4.803367">
        <ele>2025.0</ele>
        <time>2015-03-15T14:22:54Z</time>
      </trkpt>
      <trkpt lat="40.309533" lon="-4.803467">
        <ele>2027.0</ele>
        <time>2015-03-15T14:22:55Z</time>
      </trkpt>
      <trkpt lat="40.309517" lon="-4.803550">
        <ele>2030.0</ele>
        <time>2015-03-15T14:22:56Z</time>
      </trkpt>
      <trkpt lat="40.309500" lon="-4.803600">
        <ele>2033.0</ele>
        <time>2015-03-15T14:22:57Z</time>
      </trkpt>
      <trkpt lat="40.309467" lon="-4.803650">
        <ele>2034.0</ele>
        <time>2015-03-15T14:22:58Z</time>
      </trkpt>
      <trkpt lat="40.309417" lon="-4.803700">
        <ele>2035.0</ele>
        <time>2015-03-15T14:22:59Z</time>
      </trkpt>
      <trkpt lat="40.309367" lon="-4.803750">
        <ele>2037.0</ele>
        <time>2015-03-15T14:23:00Z</time>
      </trkpt>
      <trkpt lat="40.309283" lon="-4.803783">
        <ele>2039.0</ele>
        <time>2015-03-15T14:23:01Z</time>
      </trkpt>
      <trkpt lat="40.309217" lon="-4.803767">
        <ele>2042.0</ele>
        <time>2015-03-15T14:23:02Z</time>
      </trkpt>
      <trkpt lat="40.309150" lon="-4.803733">
        <ele>2046.0</ele>
        <time>2015-03-15T14:23:03Z</time>
      </trkpt>
      <trkpt lat="40.309100" lon="-4.803683">
        <ele>2049.0</ele>
        <time>2015-03-15T14:23:04Z</time>
      </trkpt>
      <trkpt lat="40.309033" lon="-4.803617">
        <ele>2050.0</ele>
        <time>2015-03-15T14:23:05Z</time>
      </trkpt>
      <trkpt lat="40.308983" lon="-4.803533">
        <ele>2051.0</ele>
        <time>2015-03-15T14:23:06Z</time>
      </trkpt>
      <trkpt lat="40.308917" lon="-4.803450">
        <ele>2052.0</ele>
        <time>2015-03-15T14:23:07Z</time>
      </trkpt>
      <trkpt lat="40.308867" lon="-4.803350">
        <ele>2053.0</ele>
        <time>2015-03-15T14:23:08Z</time>
      </trkpt>
      <trkpt lat="40.308833" lon="-4.803250">
        <ele>2053.0</ele>
        <time>2015-03-15T14:23:09Z</time>
      </trkpt>
      <trkpt lat="40.308783" lon="-4.803117">
        <ele>2053.0</ele>
        <time>2015-03-15T14:23:10Z</time>
      </trkpt>
      <trkpt lat="40.308750" lon="-4.802983">
        <ele>2053.0</ele>
        <time>2015-03-15T14:23:11Z</time>
      </trkpt>
      <trkpt lat="40.308733" lon="-4.802850">
        <ele>2054.0</ele>
        <time>2015-03-15T14:23:12Z</time>
      </trkpt>
      <trkpt lat="40.308750" lon="-4.802700">
        <ele>2055.0</ele>
        <time>2015-03-15T14:23:13Z</time>
      </trkpt>
      <trkpt lat="40.308767" lon="-4.802533">
        <ele>2056.0</ele>
        <time>2015-03-15T14:23:14Z</time>
      </trkpt>
      <trkpt lat="40.308817" lon="-4.802367">
        <ele>2057.0</ele>
        <time>2015-03-15T14:23:15Z</time>
      </trkpt>
      <trkpt lat="40.308883" lon="-4.802200">
        <ele>2059.0</ele>
        <time>2015-03-15T14:23:16Z</time>
      </trkpt>
      <trkpt lat="40.308933" lon="-4.802050">
        <ele>2060.0</ele>
        <time>2015-03-15T14:23:17Z</time>
      </trkpt>
      <trkpt lat="40.309000" lon="-4.801900">
        <ele>2062.0</ele>
        <time>2015-03-15T14:23:18Z</time>
      </trkpt>
      <trkpt lat="40.309083" lon="-4.801767">
        <ele>2063.0</ele>
        <time>2015-03-15T14:23:19Z</time>
      </trkpt>
      <trkpt lat="40.309167" lon="-4.801650">
        <ele>2064.0</ele>
        <time>2015-03-15T14:23:20Z</time>
      </trkpt>
      <trkpt lat="40.309267" lon="-4.801567">
        <ele>2065.0</ele>
        <time>2015-03-15T14:23:21Z</time>
      </trkpt>
      <trkpt lat="40.309367" lon="-4.801483">
        <ele>2066.0</ele>
        <time>2015-03-15T14:23:22Z</time>
      </trkpt>
      <trkpt lat="40.309467" lon="-4.801433">
        <ele>2067.0</ele>
        <time>2015-03-15T14:23:23Z</time>
      </trkpt>
      <trkpt lat="40.309583" lon="-4.801400">
        <ele>2066.0</ele>
        <time>2015-03-15T14:23:24Z</time>
      </trkpt>
      <trkpt lat="40.309683" lon="-4.801400">
        <ele>2065.0</ele>
        <time>2015-03-15T14:23:25Z</time>
      </trkpt>
      <trkpt lat="40.309800" lon="-4.801417">
        <ele>2065.0</ele>
        <time>2015-03-15T14:23:26Z</time>
      </trkpt>
      <trkpt lat="40.309900" lon="-4.801450">
        <ele>2065.0</ele>
        <time>2015-03-15T14:23:27Z</time>
      </trkpt>
      <trkpt lat="40.310000" lon="-4.801533">
        <ele>2065.0</ele>
        <time>2015-03-15T14:23:28Z</time>
      </trkpt>
      <trkpt lat="40.310067" lon="-4.801617">
        <ele>2065.0</ele>
        <time>2015-03-15T14:23:29Z</time>
      </trkpt>
      <trkpt lat="40.310117" lon="-4.801700">
        <ele>2067.0</ele>
        <time>2015-03-15T14:23:30Z</time>
      </trkpt>
      <trkpt lat="40.310183" lon="-4.801783">
        <ele>2068.0</ele>
        <time>2015-03-15T14:23:31Z</time>
      </trkpt>
      <trkpt lat="40.310250" lon="-4.801867">
        <ele>2069.0</ele>
        <time>2015-03-15T14:23:32Z</time>
      </trkpt>
      <trkpt lat="40.310317" lon="-4.801933">
        <ele>2070.0</ele>
        <time>2015-03-15T14:23:33Z</time>
      </trkpt>
      <trkpt lat="40.310367" lon="-4.802017">
        <ele>2071.0</ele>
        <time>2015-03-15T14:23:34Z</time>
      </trkpt>
      <trkpt lat="40.310383" lon="-4.802117">
        <ele>2072.0</ele>
        <time>2015-03-15T14:23:35Z</time>
      </trkpt>
      <trkpt lat="40.310383" lon="-4.802217">
        <ele>2072.0</ele>
        <time>2015-03-15T14:23:36Z</time>
      </trkpt>
      <trkpt lat="40.310367" lon="-4.802317">
        <ele>2073.0</ele>
        <time>2015-03-15T14:23:37Z</time>
      </trkpt>
      <trkpt lat="40.310350" lon="-4.802400">
        <ele>2074.0</ele>
        <time>2015-03-15T14:23:38Z</time>
      </trkpt>
      <trkpt lat="40.310317" lon="-4.802467">
        <ele>2075.0</ele>
        <time>2015-03-15T14:23:39Z</time>
      </trkpt>
      <trkpt lat="40.310267" lon="-4.802517">
        <ele>2076.0</ele>
        <time>2015-03-15T14:23:40Z</time>
      </trkpt>
      <trkpt lat="40.310200" lon="-4.802550">
        <ele>2076.0</ele>
        <time>2015-03-15T14:23:41Z</time>
      </trkpt>
      <trkpt lat="40.310117" lon="-4.802550">
        <ele>2077.0</ele>
        <time>2015-03-15T14:23:42Z</time>
      </trkpt>
      <trkpt lat="40.310050" lon="-4.802550">
        <ele>2080.0</ele>
        <time>2015-03-15T14:23:43Z</time>
      </trkpt>
      <trkpt lat="40.309983" lon="-4.802517">
        <ele>2082.0</ele>
        <time>2015-03-15T14:23:44Z</time>
      </trkpt>
      <trkpt lat="40.309933" lon="-4.802483">
        <ele>2083.0</ele>
        <time>2015-03-15T14:23:45Z</time>
      </trkpt>
      <trkpt lat="40.309867" lon="-4.802400">
        <ele>2084.0</ele>
        <time>2015-03-15T14:23:46Z</time>
      </trkpt>
      <trkpt lat="40.309833" lon="-4.802300">
        <ele>2084.0</ele>
        <time>2015-03-15T14:23:47Z</time>
      </trkpt>
      <trkpt lat="40.309817" lon="-4.802183">
        <ele>2086.0</ele>
        <time>2015-03-15T14:23:48Z</time>
      </trkpt>
      <trkpt lat="40.309800" lon="-4.802050">
        <ele>2087.0</ele>
        <time>2015-03-15T14:23:49Z</time>
      </trkpt>
      <trkpt lat="40.309817" lon="-4.801917">
        <ele>2088.0</ele>
        <time>2015-03-15T14:23:50Z</time>
      </trkpt>
      <trkpt lat="40.309850" lon="-4.801783">
        <ele>2089.0</ele>
        <time>2015-03-15T14:23:51Z</time>
      </trkpt>
      <trkpt lat="40.309900" lon="-4.801650">
        <ele>2089.0</ele>
        <time>2015-03-15T14:23:52Z</time>
      </trkpt>
      <trkpt lat="40.309983" lon="-4.801500">
        <ele>2089.0</ele>
        <time>2015-03-15T14:23:53Z</time>
      </trkpt>
      <trkpt lat="40.310067" lon="-4.801383">
        <ele>2090.0</ele>
        <time>2015-03-15T14:23:54Z</time>
      </trkpt>
      <trkpt lat="40.310167" lon="-4.801267">
        <ele>2091.0</ele>
        <time>2015-03-15T14:23:55Z</time>
      </trkpt>
      <trkpt lat="40.310267" lon="-4.801167">
        <ele>2092.0</ele>
        <time>2015-03-15T14:23:56Z</time>
      </trkpt>
      <trkpt lat="40.310383" lon="-4.801100">
        <ele>2093.0</ele>
        <time>2015-03-15T14:23:57Z</time>
      </trkpt>
      <trkpt lat="40.310500" lon="-4.801050">
        <ele>2093.0</ele>
        <time>2015-03-15T14:23:58Z</time>
      </trkpt>
      <trkpt lat="40.310617" lon="-4.801033">
        <ele>2093.0</ele>
        <time>2015-03-15T14:23:59Z</time>
      </trkpt>
      <trkpt lat="40.310717" lon="-4.801033">
        <ele>2094.0</ele>
        <time>2015-03-15T14:24:00Z</time>
      </trkpt>
      <trkpt lat="40.310817" lon="-4.801067">
        <ele>2095.0</ele>
        <time>2015-03-15T14:24:01Z</time>
      </trkpt>
      <trkpt lat="40.310883" lon="-4.801117">
        <ele>2096.0</ele>
        <time>2015-03-15T14:24:02Z</time>
      </trkpt>
      <trkpt lat="40.310967" lon="-4.801183">
        <ele>2097.0</ele>
        <time>2015-03-15T14:24:03Z</time>
      </trkpt>
      <trkpt lat="40.311017" lon="-4.801250">
        <ele>2097.0</ele>
        <time>2015-03-15T14:24:04Z</time>
      </trkpt>
      <trkpt lat="40.311067" lon="-4.801333">
        <ele>2098.0</ele>
        <time>2015-03-15T14:24:05Z</time>
      </trkpt>
      <trkpt lat="40.311117" lon="-4.801400">
        <ele>2099.0</ele>
        <time>2015-03-15T14:24:06Z</time>
      </trkpt>
      <trkpt lat="40.311167" lon="-4.801483">
        <ele>2100.0</ele>
        <time>2015-03-15T14:24:07Z</time>
      </trkpt>
      <trkpt lat="40.311200" lon="-4.801567">
        <ele>2100.0</ele>
        <time>2015-03-15T14:24:08Z</time>
      </trkpt>
      <trkpt lat="40.311233" lon="-4.801667">
        <ele>2101.0</ele>
        <time>2015-03-15T14:24:09Z</time>
      </trkpt>
      <trkpt lat="40.311250" lon="-4.801750">
        <ele>2101.0</ele>
        <time>2015-03-15T14:24:10Z</time>
      </trkpt>
      <trkpt lat="40.311267" lon="-4.801850">
        <ele>2102.0</ele>
        <time>2015-03-15T14:24:11Z</time>
      </trkpt>
      <trkpt lat="40.311283" lon="-4.801950">
        <ele>2104.0</ele>
        <time>2015-03-15T14:24:12Z</time>
      </trkpt>
      <trkpt lat="40.311317" lon="-4.802050">
        <ele>2106.0</ele>
        <time>2015-03-15T14:24:13Z</time>
      </trkpt>
      <trkpt lat="40.311333" lon="-4.802133">
        <ele>2107.0</ele>
        <time>2015-03-15T14:24:14Z</time>
      </trkpt>
      <trkpt lat="40.311350" lon="-4.802217">
        <ele>2108.0</ele>
        <time>2015-03-15T14:24:15Z</time>
      </trkpt>
      <trkpt lat="40.311350" lon="-4.802317">
        <ele>2109.0</ele>
        <time>2015-03-15T14:24:16Z</time>
      </trkpt>
      <trkpt lat="40.311317" lon="-4.802400">
        <ele>2109.0</ele>
        <time>2015-03-15T14:24:17Z</time>
      </trkpt>
      <trkpt lat="40.311267" lon="-4.802483">
        <ele>2110.0</ele>
        <time>2015-03-15T14:24:18Z</time>
      </trkpt>
      <trkpt lat="40.311183" lon="-4.802550">
        <ele>2112.0</ele>
        <time>2015-03-15T14:24:19Z</time>
      </trkpt>
      <trkpt lat="40.311100" lon="-4.802600">
        <ele>2114.0</ele>
        <time>2015-03-15T14:24:20Z</time>
      </trkpt>
      <trkpt lat="40.311017" lon="-4.802617">
        <ele>2118.0</ele>
        <time>2015-03-15T14:24:21Z</time>
      </trkpt>
      <trkpt lat="40.310917" lon="-4.802583">
        <ele>2120.0</ele>
        <time>2015-03-15T14:24:22Z</time>
      </trkpt>
      <trkpt lat="40.310817" lon="-4.802533">
        <ele>2122.0</ele>
        <time>2015-03-15T14:24:23Z</time>
      </trkpt>
      <trkpt lat="40.310717" lon="-4.802450">
        <ele>2125.0</ele>
        <time>2015-03-15T14:24:24Z</time>
      </trkpt>
      <trkpt lat="40.310633" lon="-4.802350">
        <ele>2129.0</ele>
        <time>2015-03-15T14:24:25Z</time>
      </trkpt>
      <trkpt lat="40.310583" lon="-4.802250">
        <ele>2133.0</ele>
        <time>2015-03-15T14:24:26Z</time>
      </trkpt>
      <trkpt lat="40.310550" lon="-4.802150">
        <ele>2137.0</ele>
        <time>2015-03-15T14:24:27Z</time>
      </trkpt>
      <trkpt lat="40.310517" lon="-4.802033">
        <ele>2139.0</ele>
        <time>2015-03-15T14:24:28Z</time>
      </trkpt>
      <trkpt lat="40.310500" lon="-4.801900">
        <ele>2141.0</ele>
        <time>2015-03-15T14:24:29Z</time>
      </trkpt>
      <trkpt lat="40.310500" lon="-4.801767">
        <ele>2142.0</ele>
        <time>2015-03-15T14:24:30Z</time>
      </trkpt>
      <trkpt lat="40.310500" lon="-4.801600">
        <ele>2142.0</ele>
        <time>2015-03-15T14:24:31Z</time>
      </trkpt>
      <trkpt lat="40.310550" lon="-4.801417">
        <ele>2143.0</ele>
        <time>2015-03-15T14:24:32Z</time>
      </trkpt>
      <trkpt lat="40.310617" lon="-4.801267">
        <ele>2145.0</ele>
        <time>2015-03-15T14:24:33Z</time>
      </trkpt>
      <trkpt lat="40.310717" lon="-4.801133">
        <ele>2148.0</ele>
        <time>2015-03-15T14:24:34Z</time>
      </trkpt>
      <trkpt lat="40.310800" lon="-4.801050">
        <ele>2149.0</ele>
        <time>2015-03-15T14:24:35Z</time>
      </trkpt>
      <trkpt lat="40.310900" lon="-4.801000">
        <ele>2150.0</ele>
        <time>2015-03-15T14:24:36Z</time>
      </trkpt>
      <trkpt lat="40.311000" lon="-4.800983">
        <ele>2148.0</ele>
        <time>2015-03-15T14:24:37Z</time>
      </trkpt>
      <trkpt lat="40.311117" lon="-4.800983">
        <ele>2146.0</ele>
        <time>2015-03-15T14:24:38Z</time>
      </trkpt>
      <trkpt lat="40.311233" lon="-4.801017">
        <ele>2145.0</ele>
        <time>2015-03-15T14:24:39Z</time>
      </trkpt>
      <trkpt lat="40.311333" lon="-4.801067">
        <ele>2145.0</ele>
        <time>2015-03-15T14:24:40Z</time>
      </trkpt>
      <trkpt lat="40.311417" lon="-4.801133">
        <ele>2145.0</ele>
        <time>2015-03-15T14:24:41Z</time>
      </trkpt>
      <trkpt lat="40.311467" lon="-4.801233">
        <ele>2145.0</ele>
        <time>2015-03-15T14:24:42Z</time>
      </trkpt>
      <trkpt lat="40.311517" lon="-4.801333">
        <ele>2145.0</ele>
        <time>2015-03-15T14:24:43Z</time>
      </trkpt>
      <trkpt lat="40.311533" lon="-4.801450">
        <ele>2145.0</ele>
        <time>2015-03-15T14:24:44Z</time>
      </trkpt>
      <trkpt lat="40.311550" lon="-4.801550">
        <ele>2146.0</ele>
        <time>2015-03-15T14:24:45Z</time>
      </trkpt>
      <trkpt lat="40.311567" lon="-4.801650">
        <ele>2147.0</ele>
        <time>2015-03-15T14:24:46Z</time>
      </trkpt>
      <trkpt lat="40.311583" lon="-4.801750">
        <ele>2148.0</ele>
        <time>2015-03-15T14:24:47Z</time>
      </trkpt>
      <trkpt lat="40.311583" lon="-4.801867">
        <ele>2149.0</ele>
        <time>2015-03-15T14:24:48Z</time>
      </trkpt>
      <trkpt lat="40.311550" lon="-4.801967">
        <ele>2151.0</ele>
        <time>2015-03-15T14:24:49Z</time>
      </trkpt>
      <trkpt lat="40.311517" lon="-4.802067">
        <ele>2155.0</ele>
        <time>2015-03-15T14:24:50Z</time>
      </trkpt>
      <trkpt lat="40.311467" lon="-4.802150">
        <ele>2158.0</ele>
        <time>2015-03-15T14:24:51Z</time>
      </trkpt>
      <trkpt lat="40.311417" lon="-4.802217">
        <ele>2161.0</ele>
        <time>2015-03-15T14:24:52Z</time>
      </trkpt>
      <trkpt lat="40.311367" lon="-4.802283">
        <ele>2164.0</ele>
        <time>2015-03-15T14:24:53Z</time>
      </trkpt>
      <trkpt lat="40.311300" lon="-4.802333">
        <ele>2165.0</ele>
        <time>2015-03-15T14:24:54Z</time>
      </trkpt>
      <trkpt lat="40.311200" lon="-4.802383">
        <ele>2167.0</ele>
        <time>2015-03-15T14:24:55Z</time>
      </trkpt>
      <trkpt lat="40.311117" lon="-4.802400">
        <ele>2168.0</ele>
        <time>2015-03-15T14:24:56Z</time>
      </trkpt>
      <trkpt lat="40.311017" lon="-4.802400">
        <ele>2170.0</ele>
        <time>2015-03-15T14:24:57Z</time>
      </trkpt>
      <trkpt lat="40.310917" lon="-4.802367">
        <ele>2171.0</ele>
        <time>2015-03-15T14:24:58Z</time>
      </trkpt>
      <trkpt lat="40.310817" lon="-4.802317">
        <ele>2172.0</ele>
        <time>2015-03-15T14:24:59Z</time>
      </trkpt>
      <trkpt lat="40.310733" lon="-4.802250">
        <ele>2174.0</ele>
        <time>2015-03-15T14:25:00Z</time>
      </trkpt>
      <trkpt lat="40.310650" lon="-4.802167">
        <ele>2175.0</ele>
        <time>2015-03-15T14:25:01Z</time>
      </trkpt>
      <trkpt lat="40.310583" lon="-4.802067">
        <ele>2176.0</ele>
        <time>2015-03-15T14:25:02Z</time>
      </trkpt>
      <trkpt lat="40.310533" lon="-4.801967">
        <ele>2177.0</ele>
        <time>2015-03-15T14:25:03Z</time>
      </trkpt>
      <trkpt lat="40.310467" lon="-4.801850">
        <ele>2177.0</ele>
        <time>2015-03-15T14:25:04Z</time>
      </trkpt>
      <trkpt lat="40.310383" lon="-4.801750">
        <ele>2179.0</ele>
        <time>2015-03-15T14:25:05Z</time>
      </trkpt>
      <trkpt lat="40.310317" lon="-4.801650">
        <ele>2181.0</ele>
        <time>2015-03-15T14:25:06Z</time>
      </trkpt>
      <trkpt lat="40.310250" lon="-4.801533">
        <ele>2184.0</ele>
        <time>2015-03-15T14:25:07Z</time>
      </trkpt>
      <trkpt lat="40.310217" lon="-4.801433">
        <ele>2186.0</ele>
        <time>2015-03-15T14:25:08Z</time>
      </trkpt>
      <trkpt lat="40.310167" lon="-4.801317">
        <ele>2188.0</ele>
        <time>2015-03-15T14:25:09Z</time>
      </trkpt>
      <trkpt lat="40.310133" lon="-4.801200">
        <ele>2188.0</ele>
        <time>2015-03-15T14:25:10Z</time>
      </trkpt>
      <trkpt lat="40.310133" lon="-4.801050">
        <ele>2188.0</ele>
        <time>2015-03-15T14:25:11Z</time>
      </trkpt>
      <trkpt lat="40.310150" lon="-4.800883">
        <ele>2188.0</ele>
        <time>2015-03-15T14:25:12Z</time>
      </trkpt>
      <trkpt lat="40.310167" lon="-4.800717">
        <ele>2187.0</ele>
        <time>2015-03-15T14:25:13Z</time>
      </trkpt>
      <trkpt lat="40.310200" lon="-4.800567">
        <ele>2189.0</ele>
        <time>2015-03-15T14:25:14Z</time>
      </trkpt>
      <trkpt lat="40.310250" lon="-4.800417">
        <ele>2190.0</ele>
        <time>2015-03-15T14:25:15Z</time>
      </trkpt>
      <trkpt lat="40.310300" lon="-4.800267">
        <ele>2192.0</ele>
        <time>2015-03-15T14:25:16Z</time>
      </trkpt>
      <trkpt lat="40.310367" lon="-4.800117">
        <ele>2193.0</ele>
        <time>2015-03-15T14:25:17Z</time>
      </trkpt>
      <trkpt lat="40.310433" lon="-4.799983">
        <ele>2194.0</ele>
        <time>2015-03-15T14:25:18Z</time>
      </trkpt>
      <trkpt lat="40.310533" lon="-4.799850">
        <ele>2196.0</ele>
        <time>2015-03-15T14:25:19Z</time>
      </trkpt>
      <trkpt lat="40.310633" lon="-4.799733">
        <ele>2198.0</ele>
        <time>2015-03-15T14:25:20Z</time>
      </trkpt>
      <trkpt lat="40.310733" lon="-4.799633">
        <ele>2200.0</ele>
        <time>2015-03-15T14:25:21Z</time>
      </trkpt>
      <trkpt lat="40.310850" lon="-4.799533">
        <ele>2201.0</ele>
        <time>2015-03-15T14:25:22Z</time>
      </trkpt>
      <trkpt lat="40.310967" lon="-4.799467">
        <ele>2203.0</ele>
        <time>2015-03-15T14:25:23Z</time>
      </trkpt>
      <trkpt lat="40.311083" lon="-4.799417">
        <ele>2205.0</ele>
        <time>2015-03-15T14:25:24Z</time>
      </trkpt>
      <trkpt lat="40.311200" lon="-4.799367">
        <ele>2206.0</ele>
        <time>2015-03-15T14:25:25Z</time>
      </trkpt>
      <trkpt lat="40.311317" lon="-4.799350">
        <ele>2207.0</ele>
        <time>2015-03-15T14:25:26Z</time>
      </trkpt>
      <trkpt lat="40.311433" lon="-4.799350">
        <ele>2207.0</ele>
        <time>2015-03-15T14:25:27Z</time>
      </trkpt>
      <trkpt lat="40.311550" lon="-4.799350">
        <ele>2208.0</ele>
        <time>2015-03-15T14:25:28Z</time>
      </trkpt>
      <trkpt lat="40.311667" lon="-4.799383">
        <ele>2209.0</ele>
        <time>2015-03-15T14:25:29Z</time>
      </trkpt>
      <trkpt lat="40.311767" lon="-4.799417">
        <ele>2210.0</ele>
        <time>2015-03-15T14:25:30Z</time>
      </trkpt>
      <trkpt lat="40.311867" lon="-4.799450">
        <ele>2212.0</ele>
        <time>2015-03-15T14:25:31Z</time>
      </trkpt>
      <trkpt lat="40.311967" lon="-4.799500">
        <ele>2215.0</ele>
        <time>2015-03-15T14:25:32Z</time>
      </trkpt>
      <trkpt lat="40.312050" lon="-4.799550">
        <ele>2217.0</ele>
        <time>2015-03-15T14:25:33Z</time>
      </trkpt>
      <trkpt lat="40.312117" lon="-4.799600">
        <ele>2218.0</ele>
        <time>2015-03-15T14:25:34Z</time>
      </trkpt>
      <trkpt lat="40.312183" lon="-4.799667">
        <ele>2219.0</ele>
        <time>2015-03-15T14:25:35Z</time>
      </trkpt>
      <trkpt lat="40.312250" lon="-4.799733">
        <ele>2219.0</ele>
        <time>2015-03-15T14:25:36Z</time>
      </trkpt>
      <trkpt lat="40.312300" lon="-4.799833">
        <ele>2219.0</ele>
        <time>2015-03-15T14:25:37Z</time>
      </trkpt>
      <trkpt lat="40.312350" lon="-4.799917">
        <ele>2220.0</ele>
        <time>2015-03-15T14:25:38Z</time>
      </trkpt>
      <trkpt lat="40.312417" lon="-4.800000">
        <ele>2221.0</ele>
        <time>2015-03-15T14:25:39Z</time>
      </trkpt>
      <trkpt lat="40.312467" lon="-4.800083">
        <ele>2223.0</ele>
        <time>2015-03-15T14:25:40Z</time>
      </trkpt>
      <trkpt lat="40.312500" lon="-4.800150">
        <ele>2224.0</ele>
        <time>2015-03-15T14:25:41Z</time>
      </trkpt>
      <trkpt lat="40.312533" lon="-4.800233">
        <ele>2226.0</ele>
        <time>2015-03-15T14:25:42Z</time>
      </trkpt>
      <trkpt lat="40.312550" lon="-4.800317">
        <ele>2228.0</ele>
        <time>2015-03-15T14:25:43Z</time>
      </trkpt>
      <trkpt lat="40.312567" lon="-4.800400">
        <ele>2229.0</ele>
        <time>2015-03-15T14:25:44Z</time>
      </trkpt>
      <trkpt lat="40.312550" lon="-4.800500">
        <ele>2230.0</ele>
        <time>2015-03-15T14:25:45Z</time>
      </trkpt>
      <trkpt lat="40.312550" lon="-4.800600">
        <ele>2232.0</ele>
        <time>2015-03-15T14:25:46Z</time>
      </trkpt>
      <trkpt lat="40.312517" lon="-4.800700">
        <ele>2234.0</ele>
        <time>2015-03-15T14:25:47Z</time>
      </trkpt>
      <trkpt lat="40.312500" lon="-4.800783">
        <ele>2235.0</ele>
        <time>2015-03-15T14:25:48Z</time>
      </trkpt>
      <trkpt lat="40.312450" lon="-4.800850">
        <ele>2237.0</ele>
        <time>2015-03-15T14:25:49Z</time>
      </trkpt>
      <trkpt lat="40.312400" lon="-4.800883">
        <ele>2237.0</ele>
        <time>2015-03-15T14:25:50Z</time>
      </trkpt>
      <trkpt lat="40.312317" lon="-4.800917">
        <ele>2237.0</ele>
        <time>2015-03-15T14:25:51Z</time>
      </trkpt>
      <trkpt lat="40.312217" lon="-4.800933">
        <ele>2237.0</ele>
        <time>2015-03-15T14:25:52Z</time>
      </trkpt>
      <trkpt lat="40.312117" lon="-4.800933">
        <ele>2238.0</ele>
        <time>2015-03-15T14:25:53Z</time>
      </trkpt>
      <trkpt lat="40.312000" lon="-4.800933">
        <ele>2240.0</ele>
        <time>2015-03-15T14:25:54Z</time>
      </trkpt>
      <trkpt lat="40.311917" lon="-4.800900">
        <ele>2244.0</ele>
        <time>2015-03-15T14:25:55Z</time>
      </trkpt>
      <trkpt lat="40.311850" lon="-4.800867">
        <ele>2247.0</ele>
        <time>2015-03-15T14:25:56Z</time>
      </trkpt>
      <trkpt lat="40.311783" lon="-4.800850">
        <ele>2249.0</ele>
        <time>2015-03-15T14:25:57Z</time>
      </trkpt>
      <trkpt lat="40.311717" lon="-4.800833">
        <ele>2250.0</ele>
        <time>2015-03-15T14:25:58Z</time>
      </trkpt>
      <trkpt lat="40.311650" lon="-4.800817">
        <ele>2250.0</ele>
        <time>2015-03-15T14:25:59Z</time>
      </trkpt>
      <trkpt lat="40.311567" lon="-4.800783">
        <ele>2250.0</ele>
        <time>2015-03-15T14:26:00Z</time>
      </trkpt>
      <trkpt lat="40.311467" lon="-4.800700">
        <ele>2249.0</ele>
        <time>2015-03-15T14:26:01Z</time>
      </trkpt>
      <trkpt lat="40.311400" lon="-4.800600">
        <ele>2249.0</ele>
        <time>2015-03-15T14:26:02Z</time>
      </trkpt>
      <trkpt lat="40.311317" lon="-4.800450">
        <ele>2249.0</ele>
        <time>2015-03-15T14:26:03Z</time>
      </trkpt>
      <trkpt lat="40.311267" lon="-4.800300">
        <ele>2251.0</ele>
        <time>2015-03-15T14:26:04Z</time>
      </trkpt>
      <trkpt lat="40.311233" lon="-4.800150">
        <ele>2254.0</ele>
        <time>2015-03-15T14:26:05Z</time>
      </trkpt>
      <trkpt lat="40.311200" lon="-4.800000">
        <ele>2257.0</ele>
        <time>2015-03-15T14:26:06Z</time>
      </trkpt>
      <trkpt lat="40.311167" lon="-4.799850">
        <ele>2259.0</ele>
        <time>2015-03-15T14:26:07Z</time>
      </trkpt>
      <trkpt lat="40.311150" lon="-4.799717">
        <ele>2261.0</ele>
        <time>2015-03-15T14:26:08Z</time>
      </trkpt>
      <trkpt lat="40.311150" lon="-4.799567">
        <ele>2262.0</ele>
        <time>2015-03-15T14:26:09Z</time>
      </trkpt>
      <trkpt lat="40.311167" lon="-4.799417">
        <ele>2263.0</ele>
        <time>2015-03-15T14:26:10Z</time>
      </trkpt>
      <trkpt lat="40.311183" lon="-4.799250">
        <ele>2264.0</ele>
        <time>2015-03-15T14:26:11Z</time>
      </trkpt>
      <trkpt lat="40.311233" lon="-4.799100">
        <ele>2265.0</ele>
        <time>2015-03-15T14:26:12Z</time>
      </trkpt>
      <trkpt lat="40.311283" lon="-4.798950">
        <ele>2267.0</ele>
        <time>2015-03-15T14:26:13Z</time>
      </trkpt>
      <trkpt lat="40.311367" lon="-4.798817">
        <ele>2269.0</ele>
        <time>2015-03-15T14:26:14Z</time>
      </trkpt>
      <trkpt lat="40.311467" lon="-4.798700">
        <ele>2271.0</ele>
        <time>2015-03-15T14:26:15Z</time>
      </trkpt>
      <trkpt lat="40.311567" lon="-4.798600">
        <ele>2273.0</ele>
        <time>2015-03-15T14:26:16Z</time>
      </trkpt>
      <trkpt lat="40.311667" lon="-4.798517">
        <ele>2275.0</ele>
        <time>2015-03-15T14:26:17Z</time>
      </trkpt>
      <trkpt lat="40.311750" lon="-4.798450">
        <ele>2276.0</ele>
        <time>2015-03-15T14:26:18Z</time>
      </trkpt>
      <trkpt lat="40.311833" lon="-4.798400">
        <ele>2276.0</ele>
        <time>2015-03-15T14:26:19Z</time>
      </trkpt>
      <trkpt lat="40.311933" lon="-4.798367">
        <ele>2276.0</ele>
        <time>2015-03-15T14:26:20Z</time>
      </trkpt>
      <trkpt lat="40.312050" lon="-4.798350">
        <ele>2275.0</ele>
        <time>2015-03-15T14:26:21Z</time>
      </trkpt>
      <trkpt lat="40.312167" lon="-4.798350">
        <ele>2275.0</ele>
        <time>2015-03-15T14:26:22Z</time>
      </trkpt>
      <trkpt lat="40.312267" lon="-4.798367">
        <ele>2275.0</ele>
        <time>2015-03-15T14:26:23Z</time>
      </trkpt>
      <trkpt lat="40.312367" lon="-4.798400">
        <ele>2276.0</ele>
        <time>2015-03-15T14:26:24Z</time>
      </trkpt>
      <trkpt lat="40.312450" lon="-4.798450">
        <ele>2277.0</ele>
        <time>2015-03-15T14:26:25Z</time>
      </trkpt>
      <trkpt lat="40.312517" lon="-4.798500">
        <ele>2277.0</ele>
        <time>2015-03-15T14:26:26Z</time>
      </trkpt>
      <trkpt lat="40.312583" lon="-4.798583">
        <ele>2276.0</ele>
        <time>2015-03-15T14:26:27Z</time>
      </trkpt>
      <trkpt lat="40.312650" lon="-4.798667">
        <ele>2276.0</ele>
        <time>2015-03-15T14:26:28Z</time>
      </trkpt>
      <trkpt lat="40.312700" lon="-4.798783">
        <ele>2277.0</ele>
        <time>2015-03-15T14:26:29Z</time>
      </trkpt>
      <trkpt lat="40.312733" lon="-4.798883">
        <ele>2278.0</ele>
        <time>2015-03-15T14:26:30Z</time>
      </trkpt>
      <trkpt lat="40.312733" lon="-4.799000">
        <ele>2280.0</ele>
        <time>2015-03-15T14:26:31Z</time>
      </trkpt>
      <trkpt lat="40.312733" lon="-4.799083">
        <ele>2283.0</ele>
        <time>2015-03-15T14:26:32Z</time>
      </trkpt>
      <trkpt lat="40.312717" lon="-4.799167">
        <ele>2285.0</ele>
        <time>2015-03-15T14:26:33Z</time>
      </trkpt>
      <trkpt lat="40.312700" lon="-4.799233">
        <ele>2286.0</ele>
        <time>2015-03-15T14:26:34Z</time>
      </trkpt>
      <trkpt lat="40.312650" lon="-4.799317">
        <ele>2286.0</ele>
        <time>2015-03-15T14:26:35Z</time>
      </trkpt>
      <trkpt lat="40.312600" lon="-4.799383">
        <ele>2287.0</ele>
        <time>2015-03-15T14:26:36Z</time>
      </trkpt>
      <trkpt lat="40.312550" lon="-4.799450">
        <ele>2288.0</ele>
        <time>2015-03-15T14:26:37Z</time>
      </trkpt>
      <trkpt lat="40.312517" lon="-4.799517">
        <ele>2289.0</ele>
        <time>2015-03-15T14:26:38Z</time>
      </trkpt>
      <trkpt lat="40.312467" lon="-4.799600">
        <ele>2291.0</ele>
        <time>2015-03-15T14:26:39Z</time>
      </trkpt>
      <trkpt lat="40.312417" lon="-4.799650">
        <ele>2292.0</ele>
        <time>2015-03-15T14:26:40Z</time>
      </trkpt>
      <trkpt lat="40.312333" lon="-4.799700">
        <ele>2294.0</ele>
        <time>2015-03-15T14:26:41Z</time>
      </trkpt>
      <trkpt lat="40.312233" lon="-4.799717">
        <ele>2295.0</ele>
        <time>2015-03-15T14:26:42Z</time>
      </trkpt>
      <trkpt lat="40.312150" lon="-4.799717">
        <ele>2296.0</ele>
        <time>2015-03-15T14:26:43Z</time>
      </trkpt>
      <trkpt lat="40.312050" lon="-4.799717">
        <ele>2297.0</ele>
        <time>2015-03-15T14:26:44Z</time>
      </trkpt>
      <trkpt lat="40.311967" lon="-4.799700">
        <ele>2298.0</ele>
        <time>2015-03-15T14:26:45Z</time>
      </trkpt>
      <trkpt lat="40.311867" lon="-4.799700">
        <ele>2299.0</ele>
        <time>2015-03-15T14:26:46Z</time>
      </trkpt>
      <trkpt lat="40.311767" lon="-4.799667">
        <ele>2299.0</ele>
        <time>2015-03-15T14:26:47Z</time>
      </trkpt>
      <trkpt lat="40.311667" lon="-4.799617">
        <ele>2298.0</ele>
        <time>2015-03-15T14:26:48Z</time>
      </trkpt>
      <trkpt lat="40.311550" lon="-4.799550">
        <ele>2297.0</ele>
        <time>2015-03-15T14:26:49Z</time>
      </trkpt>
      <trkpt lat="40.311450" lon="-4.799450">
        <ele>2296.0</ele>
        <time>2015-03-15T14:26:50Z</time>
      </trkpt>
      <trkpt lat="40.311367" lon="-4.799333">
        <ele>2296.0</ele>
        <time>2015-03-15T14:26:51Z</time>
      </trkpt>
      <trkpt lat="40.311283" lon="-4.799217">
        <ele>2295.0</ele>
        <time>2015-03-15T14:26:52Z</time>
      </trkpt>
      <trkpt lat="40.311200" lon="-4.799067">
        <ele>2295.0</ele>
        <time>2015-03-15T14:26:53Z</time>
      </trkpt>
      <trkpt lat="40.311133" lon="-4.798900">
        <ele>2295.0</ele>
        <time>2015-03-15T14:26:54Z</time>
      </trkpt>
      <trkpt lat="40.311083" lon="-4.798717">
        <ele>2296.0</ele>
        <time>2015-03-15T14:26:55Z</time>
      </trkpt>
      <trkpt lat="40.311033" lon="-4.798550">
        <ele>2296.0</ele>
        <time>2015-03-15T14:26:56Z</time>
      </trkpt>
      <trkpt lat="40.311000" lon="-4.798383">
        <ele>2297.0</ele>
        <time>2015-03-15T14:26:57Z</time>
      </trkpt>
      <trkpt lat="40.310967" lon="-4.798217">
        <ele>2296.0</ele>
        <time>2015-03-15T14:26:58Z</time>
      </trkpt>
      <trkpt lat="40.310967" lon="-4.798050">
        <ele>2295.0</ele>
        <time>2015-03-15T14:26:59Z</time>
      </trkpt>
      <trkpt lat="40.311000" lon="-4.797883">
        <ele>2295.0</ele>
        <time>2015-03-15T14:27:00Z</time>
      </trkpt>
      <trkpt lat="40.311033" lon="-4.797733">
        <ele>2295.0</ele>
        <time>2015-03-15T14:27:01Z</time>
      </trkpt>
      <trkpt lat="40.311067" lon="-4.797567">
        <ele>2296.0</ele>
        <time>2015-03-15T14:27:02Z</time>
      </trkpt>
      <trkpt lat="40.311100" lon="-4.797383">
        <ele>2296.0</ele>
        <time>2015-03-15T14:27:03Z</time>
      </trkpt>
      <trkpt lat="40.311133" lon="-4.797217">
        <ele>2297.0</ele>
        <time>2015-03-15T14:27:04Z</time>
      </trkpt>
      <trkpt lat="40.311183" lon="-4.797050">
        <ele>2298.0</ele>
        <time>2015-03-15T14:27:05Z</time>
      </trkpt>
      <trkpt lat="40.311250" lon="-4.796883">
        <ele>2299.0</ele>
        <time>2015-03-15T14:27:06Z</time>
      </trkpt>
      <trkpt lat="40.311333" lon="-4.796750">
        <ele>2299.0</ele>
        <time>2015-03-15T14:27:07Z</time>
      </trkpt>
      <trkpt lat="40.311417" lon="-4.796617">
        <ele>2298.0</ele>
        <time>2015-03-15T14:27:08Z</time>
      </trkpt>
      <trkpt lat="40.311517" lon="-4.796500">
        <ele>2297.0</ele>
        <time>2015-03-15T14:27:09Z</time>
      </trkpt>
      <trkpt lat="40.311617" lon="-4.796400">
        <ele>2296.0</ele>
        <time>2015-03-15T14:27:10Z</time>
      </trkpt>
      <trkpt lat="40.311733" lon="-4.796283">
        <ele>2295.0</ele>
        <time>2015-03-15T14:27:11Z</time>
      </trkpt>
      <trkpt lat="40.311850" lon="-4.796200">
        <ele>2294.0</ele>
        <time>2015-03-15T14:27:12Z</time>
      </trkpt>
      <trkpt lat="40.311983" lon="-4.796150">
        <ele>2293.0</ele>
        <time>2015-03-15T14:27:13Z</time>
      </trkpt>
      <trkpt lat="40.312133" lon="-4.796100">
        <ele>2293.0</ele>
        <time>2015-03-15T14:27:14Z</time>
      </trkpt>
      <trkpt lat="40.312267" lon="-4.796067">
        <ele>2292.0</ele>
        <time>2015-03-15T14:27:15Z</time>
      </trkpt>
      <trkpt lat="40.312383" lon="-4.796033">
        <ele>2293.0</ele>
        <time>2015-03-15T14:27:16Z</time>
      </trkpt>
      <trkpt lat="40.312500" lon="-4.796017">
        <ele>2293.0</ele>
        <time>2015-03-15T14:27:17Z</time>
      </trkpt>
      <trkpt lat="40.312617" lon="-4.796000">
        <ele>2294.0</ele>
        <time>2015-03-15T14:27:18Z</time>
      </trkpt>
      <trkpt lat="40.312717" lon="-4.795983">
        <ele>2293.0</ele>
        <time>2015-03-15T14:27:19Z</time>
      </trkpt>
      <trkpt lat="40.312833" lon="-4.795983">
        <ele>2293.0</ele>
        <time>2015-03-15T14:27:20Z</time>
      </trkpt>
      <trkpt lat="40.312967" lon="-4.795967">
        <ele>2293.0</ele>
        <time>2015-03-15T14:27:21Z</time>
      </trkpt>
      <trkpt lat="40.313083" lon="-4.795967">
        <ele>2293.0</ele>
        <time>2015-03-15T14:27:22Z</time>
      </trkpt>
      <trkpt lat="40.313200" lon="-4.795967">
        <ele>2294.0</ele>
        <time>2015-03-15T14:27:23Z</time>
      </trkpt>
      <trkpt lat="40.313317" lon="-4.795950">
        <ele>2295.0</ele>
        <time>2015-03-15T14:27:24Z</time>
      </trkpt>
      <trkpt lat="40.313433" lon="-4.795933">
        <ele>2296.0</ele>
        <time>2015-03-15T14:27:25Z</time>
      </trkpt>
      <trkpt lat="40.313550" lon="-4.795917">
        <ele>2298.0</ele>
        <time>2015-03-15T14:27:26Z</time>
      </trkpt>
      <trkpt lat="40.313667" lon="-4.795883">
        <ele>2299.0</ele>
        <time>2015-03-15T14:27:27Z</time>
      </trkpt>
      <trkpt lat="40.313783" lon="-4.795850">
        <ele>2300.0</ele>
        <time>2015-03-15T14:27:28Z</time>
      </trkpt>
      <trkpt lat="40.313900" lon="-4.795800">
        <ele>2301.0</ele>
        <time>2015-03-15T14:27:29Z</time>
      </trkpt>
      <trkpt lat="40.314017" lon="-4.795750">
        <ele>2302.0</ele>
        <time>2015-03-15T14:27:30Z</time>
      </trkpt>
      <trkpt lat="40.314133" lon="-4.795683">
        <ele>2304.0</ele>
        <time>2015-03-15T14:27:31Z</time>
      </trkpt>
      <trkpt lat="40.314250" lon="-4.795600">
        <ele>2307.0</ele>
        <time>2015-03-15T14:27:32Z</time>
      </trkpt>
      <trkpt lat="40.314367" lon="-4.795533">
        <ele>2310.0</ele>
        <time>2015-03-15T14:27:33Z</time>
      </trkpt>
      <trkpt lat="40.314483" lon="-4.795467">
        <ele>2312.0</ele>
        <time>2015-03-15T14:27:34Z</time>
      </trkpt>
      <trkpt lat="40.314600" lon="-4.795400">
        <ele>2315.0</ele>
        <time>2015-03-15T14:27:35Z</time>
      </trkpt>
      <trkpt lat="40.314717" lon="-4.795333">
        <ele>2317.0</ele>
        <time>2015-03-15T14:27:36Z</time>
      </trkpt>
      <trkpt lat="40.314817" lon="-4.795283">
        <ele>2320.0</ele>
        <time>2015-03-15T14:27:37Z</time>
      </trkpt>
      <trkpt lat="40.314917" lon="-4.795217">
        <ele>2322.0</ele>
        <time>2015-03-15T14:27:38Z</time>
      </trkpt>
      <trkpt lat="40.315017" lon="-4.795167">
        <ele>2324.0</ele>
        <time>2015-03-15T14:27:39Z</time>
      </trkpt>
      <trkpt lat="40.315133" lon="-4.795133">
        <ele>2325.0</ele>
        <time>2015-03-15T14:27:40Z</time>
      </trkpt>
      <trkpt lat="40.315233" lon="-4.795083">
        <ele>2326.0</ele>
        <time>2015-03-15T14:27:41Z</time>
      </trkpt>
      <trkpt lat="40.315350" lon="-4.795017">
        <ele>2326.0</ele>
        <time>2015-03-15T14:27:42Z</time>
      </trkpt>
      <trkpt lat="40.315450" lon="-4.794933">
        <ele>2327.0</ele>
        <time>2015-03-15T14:27:43Z</time>
      </trkpt>
      <trkpt lat="40.315550" lon="-4.794850">
        <ele>2328.0</ele>
        <time>2015-03-15T14:27:44Z</time>
      </trkpt>
      <trkpt lat="40.315667" lon="-4.794783">
        <ele>2328.0</ele>
        <time>2015-03-15T14:27:45Z</time>
      </trkpt>
      <trkpt lat="40.315767" lon="-4.794733">
        <ele>2329.0</ele>
        <time>2015-03-15T14:27:46Z</time>
      </trkpt>
      <trkpt lat="40.315883" lon="-4.794717">
        <ele>2328.0</ele>
        <time>2015-03-15T14:27:47Z</time>
      </trkpt>
      <trkpt lat="40.315983" lon="-4.794717">
        <ele>2327.0</ele>
        <time>2015-03-15T14:27:48Z</time>
      </trkpt>
      <trkpt lat="40.316100" lon="-4.794733">
        <ele>2327.0</ele>
        <time>2015-03-15T14:27:49Z</time>
      </trkpt>
      <trkpt lat="40.316217" lon="-4.794750">
        <ele>2327.0</ele>
        <time>2015-03-15T14:27:50Z</time>
      </trkpt>
      <trkpt lat="40.316333" lon="-4.794767">
        <ele>2327.0</ele>
        <time>2015-03-15T14:27:51Z</time>
      </trkpt>
      <trkpt lat="40.316433" lon="-4.794800">
        <ele>2327.0</ele>
        <time>2015-03-15T14:27:52Z</time>
      </trkpt>
      <trkpt lat="40.316517" lon="-4.794850">
        <ele>2327.0</ele>
        <time>2015-03-15T14:27:53Z</time>
      </trkpt>
      <trkpt lat="40.316600" lon="-4.794917">
        <ele>2326.0</ele>
        <time>2015-03-15T14:27:54Z</time>
      </trkpt>
      <trkpt lat="40.316683" lon="-4.795000">
        <ele>2327.0</ele>
        <time>2015-03-15T14:27:55Z</time>
      </trkpt>
      <trkpt lat="40.316733" lon="-4.795067">
        <ele>2327.0</ele>
        <time>2015-03-15T14:27:56Z</time>
      </trkpt>
      <trkpt lat="40.316750" lon="-4.795150">
        <ele>2327.0</ele>
        <time>2015-03-15T14:27:57Z</time>
      </trkpt>
      <trkpt lat="40.316750" lon="-4.795217">
        <ele>2326.0</ele>
        <time>2015-03-15T14:27:58Z</time>
      </trkpt>
      <trkpt lat="40.316750" lon="-4.795300">
        <ele>2324.0</ele>
        <time>2015-03-15T14:27:59Z</time>
      </trkpt>
      <trkpt lat="40.316717" lon="-4.795367">
        <ele>2323.0</ele>
        <time>2015-03-15T14:28:00Z</time>
      </trkpt>
      <trkpt lat="40.316667" lon="-4.795433">
        <ele>2323.0</ele>
        <time>2015-03-15T14:28:01Z</time>
      </trkpt>
      <trkpt lat="40.316617" lon="-4.795483">
        <ele>2323.0</ele>
        <time>2015-03-15T14:28:02Z</time>
      </trkpt>
      <trkpt lat="40.316567" lon="-4.795517">
        <ele>2326.0</ele>
        <time>2015-03-15T14:28:03Z</time>
      </trkpt>
      <trkpt lat="40.316517" lon="-4.795550">
        <ele>2328.0</ele>
        <time>2015-03-15T14:28:04Z</time>
      </trkpt>
      <trkpt lat="40.316467" lon="-4.795567">
        <ele>2329.0</ele>
        <time>2015-03-15T14:28:05Z</time>
      </trkpt>
      <trkpt lat="40.316417" lon="-4.795583">
        <ele>2329.0</ele>
        <time>2015-03-15T14:28:06Z</time>
      </trkpt>
      <trkpt lat="40.316367" lon="-4.795600">
        <ele>2329.0</ele>
        <time>2015-03-15T14:28:07Z</time>
      </trkpt>
      <trkpt lat="40.316283" lon="-4.795583">
        <ele>2329.0</ele>
        <time>2015-03-15T14:28:08Z</time>
      </trkpt>
      <trkpt lat="40.316217" lon="-4.795567">
        <ele>2328.0</ele>
        <time>2015-03-15T14:28:09Z</time>
      </trkpt>
      <trkpt lat="40.316133" lon="-4.795533">
        <ele>2328.0</ele>
        <time>2015-03-15T14:28:10Z</time>
      </trkpt>
      <trkpt lat="40.316067" lon="-4.795483">
        <ele>2329.0</ele>
        <time>2015-03-15T14:28:11Z</time>
      </trkpt>
      <trkpt lat="40.315983" lon="-4.795417">
        <ele>2330.0</ele>
        <time>2015-03-15T14:28:12Z</time>
      </trkpt>
      <trkpt lat="40.315917" lon="-4.795367">
        <ele>2331.0</ele>
        <time>2015-03-15T14:28:13Z</time>
      </trkpt>
      <trkpt lat="40.315850" lon="-4.795333">
        <ele>2332.0</ele>
        <time>2015-03-15T14:28:14Z</time>
      </trkpt>
      <trkpt lat="40.315783" lon="-4.795267">
        <ele>2332.0</ele>
        <time>2015-03-15T14:28:15Z</time>
      </trkpt>
      <trkpt lat="40.315717" lon="-4.795200">
        <ele>2332.0</ele>
        <time>2015-03-15T14:28:16Z</time>
      </trkpt>
      <trkpt lat="40.315633" lon="-4.795133">
        <ele>2332.0</ele>
        <time>2015-03-15T14:28:17Z</time>
      </trkpt>
      <trkpt lat="40.315567" lon="-4.795067">
        <ele>2333.0</ele>
        <time>2015-03-15T14:28:18Z</time>
      </trkpt>
      <trkpt lat="40.315500" lon="-4.795000">
        <ele>2334.0</ele>
        <time>2015-03-15T14:28:19Z</time>
      </trkpt>
      <trkpt lat="40.315433" lon="-4.794917">
        <ele>2335.0</ele>
        <time>2015-03-15T14:28:20Z</time>
      </trkpt>
      <trkpt lat="40.315383" lon="-4.794850">
        <ele>2336.0</ele>
        <time>2015-03-15T14:28:21Z</time>
      </trkpt>
      <trkpt lat="40.315317" lon="-4.794767">
        <ele>2337.0</ele>
        <time>2015-03-15T14:28:22Z</time>
      </trkpt>
      <trkpt lat="40.315267" lon="-4.794650">
        <ele>2338.0</ele>
        <time>2015-03-15T14:28:23Z</time>
      </trkpt>
      <trkpt lat="40.315217" lon="-4.794533">
        <ele>2339.0</ele>
        <time>2015-03-15T14:28:24Z</time>
      </trkpt>
      <trkpt lat="40.315167" lon="-4.794417">
        <ele>2340.0</ele>
        <time>2015-03-15T14:28:25Z</time>
      </trkpt>
      <trkpt lat="40.315133" lon="-4.794300">
        <ele>2341.0</ele>
        <time>2015-03-15T14:28:26Z</time>
      </trkpt>
      <trkpt lat="40.315100" lon="-4.794183">
        <ele>2341.0</ele>
        <time>2015-03-15T14:28:27Z</time>
      </trkpt>
      <trkpt lat="40.315067" lon="-4.794050">
        <ele>2341.0</ele>
        <time>2015-03-15T14:28:28Z</time>
      </trkpt>
      <trkpt lat="40.315033" lon="-4.793933">
        <ele>2342.0</ele>
        <time>2015-03-15T14:28:29Z</time>
      </trkpt>
      <trkpt lat="40.315000" lon="-4.793800">
        <ele>2343.0</ele>
        <time>2015-03-15T14:28:30Z</time>
      </trkpt>
      <trkpt lat="40.314983" lon="-4.793667">
        <ele>2343.0</ele>
        <time>2015-03-15T14:28:31Z</time>
      </trkpt>
      <trkpt lat="40.314950" lon="-4.793533">
        <ele>2342.0</ele>
        <time>2015-03-15T14:28:32Z</time>
      </trkpt>
      <trkpt lat="40.314933" lon="-4.793400">
        <ele>2342.0</ele>
        <time>2015-03-15T14:28:33Z</time>
      </trkpt>
      <trkpt lat="40.314900" lon="-4.793250">
        <ele>2341.0</ele>
        <time>2015-03-15T14:28:34Z</time>
      </trkpt>
      <trkpt lat="40.314883" lon="-4.793100">
        <ele>2342.0</ele>
        <time>2015-03-15T14:28:35Z</time>
      </trkpt>
      <trkpt lat="40.314867" lon="-4.792967">
        <ele>2342.0</ele>
        <time>2015-03-15T14:28:36Z</time>
      </trkpt>
      <trkpt lat="40.314867" lon="-4.792817">
        <ele>2342.0</ele>
        <time>2015-03-15T14:28:37Z</time>
      </trkpt>
      <trkpt lat="40.314850" lon="-4.792683">
        <ele>2342.0</ele>
        <time>2015-03-15T14:28:38Z</time>
      </trkpt>
      <trkpt lat="40.314850" lon="-4.792533">
        <ele>2341.0</ele>
        <time>2015-03-15T14:28:39Z</time>
      </trkpt>
      <trkpt lat="40.314833" lon="-4.792383">
        <ele>2341.0</ele>
        <time>2015-03-15T14:28:40Z</time>
      </trkpt>
      <trkpt lat="40.314817" lon="-4.792233">
        <ele>2341.0</ele>
        <time>2015-03-15T14:28:41Z</time>
      </trkpt>
      <trkpt lat="40.314817" lon="-4.792083">
        <ele>2342.0</ele>
        <time>2015-03-15T14:28:42Z</time>
      </trkpt>
      <trkpt lat="40.314800" lon="-4.791950">
        <ele>2342.0</ele>
        <time>2015-03-15T14:28:43Z</time>
      </trkpt>
      <trkpt lat="40.314783" lon="-4.791817">
        <ele>2343.0</ele>
        <time>2015-03-15T14:28:44Z</time>
      </trkpt>
      <trkpt lat="40.314783" lon="-4.791667">
        <ele>2343.0</ele>
        <time>2015-03-15T14:28:45Z</time>
      </trkpt>
      <trkpt lat="40.314767" lon="-4.791533">
        <ele>2343.0</ele>
        <time>2015-03-15T14:28:46Z</time>
      </trkpt>
      <trkpt lat="40.314767" lon="-4.791400">
        <ele>2344.0</ele>
        <time>2015-03-15T14:28:47Z</time>
      </trkpt>
      <trkpt lat="40.314750" lon="-4.791267">
        <ele>2344.0</ele>
        <time>2015-03-15T14:28:48Z</time>
      </trkpt>
      <trkpt lat="40.314750" lon="-4.791133">
        <ele>2344.0</ele>
        <time>2015-03-15T14:28:49Z</time>
      </trkpt>
      <trkpt lat="40.314750" lon="-4.791000">
        <ele>2344.0</ele>
        <time>2015-03-15T14:28:50Z</time>
      </trkpt>
      <trkpt lat="40.314733" lon="-4.790867">
        <ele>2343.0</ele>
        <time>2015-03-15T14:28:51Z</time>
      </trkpt>
      <trkpt lat="40.314750" lon="-4.790717">
        <ele>2343.0</ele>
        <time>2015-03-15T14:28:52Z</time>
      </trkpt>
      <trkpt lat="40.314750" lon="-4.790583">
        <ele>2343.0</ele>
        <time>2015-03-15T14:28:53Z</time>
      </trkpt>
      <trkpt lat="40.314750" lon="-4.790450">
        <ele>2342.0</ele>
        <time>2015-03-15T14:28:54Z</time>
      </trkpt>
      <trkpt lat="40.314750" lon="-4.790300">
        <ele>2342.0</ele>
        <time>2015-03-15T14:28:55Z</time>
      </trkpt>
      <trkpt lat="40.314750" lon="-4.790167">
        <ele>2342.0</ele>
        <time>2015-03-15T14:28:56Z</time>
      </trkpt>
      <trkpt lat="40.314750" lon="-4.790017">
        <ele>2342.0</ele>
        <time>2015-03-15T14:28:57Z</time>
      </trkpt>
      <trkpt lat="40.314750" lon="-4.789883">
        <ele>2342.0</ele>
        <time>2015-03-15T14:28:58Z</time>
      </trkpt>
      <trkpt lat="40.314750" lon="-4.789750">
        <ele>2341.0</ele>
        <time>2015-03-15T14:28:59Z</time>
      </trkpt>
      <trkpt lat="40.314733" lon="-4.789633">
        <ele>2341.0</ele>
        <time>2015-03-15T14:29:00Z</time>
      </trkpt>
      <trkpt lat="40.314717" lon="-4.789500">
        <ele>2339.0</ele>
        <time>2015-03-15T14:29:01Z</time>
      </trkpt>
      <trkpt lat="40.314717" lon="-4.789367">
        <ele>2338.0</ele>
        <time>2015-03-15T14:29:02Z</time>
      </trkpt>
      <trkpt lat="40.314717" lon="-4.789217">
        <ele>2337.0</ele>
        <time>2015-03-15T14:29:03Z</time>
      </trkpt>
      <trkpt lat="40.314717" lon="-4.789067">
        <ele>2335.0</ele>
        <time>2015-03-15T14:29:04Z</time>
      </trkpt>
      <trkpt lat="40.314717" lon="-4.788917">
        <ele>2333.0</ele>
        <time>2015-03-15T14:29:05Z</time>
      </trkpt>
      <trkpt lat="40.314717" lon="-4.788750">
        <ele>2332.0</ele>
        <time>2015-03-15T14:29:06Z</time>
      </trkpt>
      <trkpt lat="40.314700" lon="-4.788583">
        <ele>2331.0</ele>
        <time>2015-03-15T14:29:07Z</time>
      </trkpt>
      <trkpt lat="40.314700" lon="-4.788417">
        <ele>2331.0</ele>
        <time>2015-03-15T14:29:08Z</time>
      </trkpt>
      <trkpt lat="40.314700" lon="-4.788267">
        <ele>2331.0</ele>
        <time>2015-03-15T14:29:09Z</time>
      </trkpt>
      <trkpt lat="40.314700" lon="-4.788117">
        <ele>2331.0</ele>
        <time>2015-03-15T14:29:10Z</time>
      </trkpt>
      <trkpt lat="40.314700" lon="-4.787967">
        <ele>2330.0</ele>
        <time>2015-03-15T14:29:11Z</time>
      </trkpt>
      <trkpt lat="40.314700" lon="-4.787800">
        <ele>2328.0</ele>
        <time>2015-03-15T14:29:12Z</time>
      </trkpt>
      <trkpt lat="40.314700" lon="-4.787650">
        <ele>2327.0</ele>
        <time>2015-03-15T14:29:13Z</time>
      </trkpt>
      <trkpt lat="40.314683" lon="-4.787483">
        <ele>2326.0</ele>
        <time>2015-03-15T14:29:14Z</time>
      </trkpt>
      <trkpt lat="40.314683" lon="-4.787300">
        <ele>2326.0</ele>
        <time>2015-03-15T14:29:15Z</time>
      </trkpt>
      <trkpt lat="40.314667" lon="-4.787133">
        <ele>2326.0</ele>
        <time>2015-03-15T14:29:16Z</time>
      </trkpt>
      <trkpt lat="40.314667" lon="-4.786983">
        <ele>2326.0</ele>
        <time>2015-03-15T14:29:17Z</time>
      </trkpt>
      <trkpt lat="40.314667" lon="-4.786817">
        <ele>2325.0</ele>
        <time>2015-03-15T14:29:18Z</time>
      </trkpt>
      <trkpt lat="40.314650" lon="-4.786650">
        <ele>2325.0</ele>
        <time>2015-03-15T14:29:19Z</time>
      </trkpt>
      <trkpt lat="40.314650" lon="-4.786500">
        <ele>2324.0</ele>
        <time>2015-03-15T14:29:20Z</time>
      </trkpt>
      <trkpt lat="40.314633" lon="-4.786333">
        <ele>2323.0</ele>
        <time>2015-03-15T14:29:21Z</time>
      </trkpt>
      <trkpt lat="40.314617" lon="-4.786167">
        <ele>2322.0</ele>
        <time>2015-03-15T14:29:22Z</time>
      </trkpt>
      <trkpt lat="40.314600" lon="-4.786000">
        <ele>2322.0</ele>
        <time>2015-03-15T14:29:23Z</time>
      </trkpt>
      <trkpt lat="40.314600" lon="-4.785833">
        <ele>2321.0</ele>
        <time>2015-03-15T14:29:24Z</time>
      </trkpt>
      <trkpt lat="40.314583" lon="-4.785683">
        <ele>2321.0</ele>
        <time>2015-03-15T14:29:25Z</time>
      </trkpt>
      <trkpt lat="40.314567" lon="-4.785517">
        <ele>2320.0</ele>
        <time>2015-03-15T14:29:26Z</time>
      </trkpt>
      <trkpt lat="40.314550" lon="-4.785367">
        <ele>2319.0</ele>
        <time>2015-03-15T14:29:27Z</time>
      </trkpt>
      <trkpt lat="40.314533" lon="-4.785200">
        <ele>2317.0</ele>
        <time>2015-03-15T14:29:28Z</time>
      </trkpt>
      <trkpt lat="40.314517" lon="-4.785033">
        <ele>2317.0</ele>
        <time>2015-03-15T14:29:29Z</time>
      </trkpt>
      <trkpt lat="40.314500" lon="-4.784867">
        <ele>2316.0</ele>
        <time>2015-03-15T14:29:30Z</time>
      </trkpt>
      <trkpt lat="40.314467" lon="-4.784717">
        <ele>2316.0</ele>
        <time>2015-03-15T14:29:31Z</time>
      </trkpt>
      <trkpt lat="40.314450" lon="-4.784550">
        <ele>2315.0</ele>
        <time>2015-03-15T14:29:32Z</time>
      </trkpt>
      <trkpt lat="40.314417" lon="-4.784400">
        <ele>2315.0</ele>
        <time>2015-03-15T14:29:33Z</time>
      </trkpt>
      <trkpt lat="40.314400" lon="-4.784233">
        <ele>2314.0</ele>
        <time>2015-03-15T14:29:34Z</time>
      </trkpt>
      <trkpt lat="40.314383" lon="-4.784083">
        <ele>2313.0</ele>
        <time>2015-03-15T14:29:35Z</time>
      </trkpt>
      <trkpt lat="40.314350" lon="-4.783933">
        <ele>2312.0</ele>
        <time>2015-03-15T14:29:36Z</time>
      </trkpt>
      <trkpt lat="40.314333" lon="-4.783767">
        <ele>2311.0</ele>
        <time>2015-03-15T14:29:37Z</time>
      </trkpt>
      <trkpt lat="40.314300" lon="-4.783617">
        <ele>2309.0</ele>
        <time>2015-03-15T14:29:38Z</time>
      </trkpt>
      <trkpt lat="40.314283" lon="-4.783450">
        <ele>2308.0</ele>
        <time>2015-03-15T14:29:39Z</time>
      </trkpt>
      <trkpt lat="40.314283" lon="-4.783283">
        <ele>2307.0</ele>
        <time>2015-03-15T14:29:40Z</time>
      </trkpt>
      <trkpt lat="40.314267" lon="-4.783133">
        <ele>2306.0</ele>
        <time>2015-03-15T14:29:41Z</time>
      </trkpt>
      <trkpt lat="40.314267" lon="-4.782967">
        <ele>2306.0</ele>
        <time>2015-03-15T14:29:42Z</time>
      </trkpt>
      <trkpt lat="40.314267" lon="-4.782817">
        <ele>2306.0</ele>
        <time>2015-03-15T14:29:43Z</time>
      </trkpt>
      <trkpt lat="40.314250" lon="-4.782667">
        <ele>2305.0</ele>
        <time>2015-03-15T14:29:44Z</time>
      </trkpt>
      <trkpt lat="40.314250" lon="-4.782517">
        <ele>2303.0</ele>
        <time>2015-03-15T14:29:45Z</time>
      </trkpt>
      <trkpt lat="40.314267" lon="-4.782350">
        <ele>2302.0</ele>
        <time>2015-03-15T14:29:46Z</time>
      </trkpt>
      <trkpt lat="40.314267" lon="-4.782200">
        <ele>2301.0</ele>
        <time>2015-03-15T14:29:47Z</time>
      </trkpt>
      <trkpt lat="40.314283" lon="-4.782033">
        <ele>2300.0</ele>
        <time>2015-03-15T14:29:48Z</time>
      </trkpt>
      <trkpt lat="40.314300" lon="-4.781883">
        <ele>2300.0</ele>
        <time>2015-03-15T14:29:49Z</time>
      </trkpt>
      <trkpt lat="40.314300" lon="-4.781733">
        <ele>2299.0</ele>
        <time>2015-03-15T14:29:50Z</time>
      </trkpt>
      <trkpt lat="40.314300" lon="-4.781583">
        <ele>2299.0</ele>
        <time>2015-03-15T14:29:51Z</time>
      </trkpt>
      <trkpt lat="40.314317" lon="-4.781433">
        <ele>2298.0</ele>
        <time>2015-03-15T14:29:52Z</time>
      </trkpt>
      <trkpt lat="40.314317" lon="-4.781283">
        <ele>2296.0</ele>
        <time>2015-03-15T14:29:53Z</time>
      </trkpt>
      <trkpt lat="40.314317" lon="-4.781117">
        <ele>2294.0</ele>
        <time>2015-03-15T14:29:54Z</time>
      </trkpt>
      <trkpt lat="40.314333" lon="-4.780967">
        <ele>2292.0</ele>
        <time>2015-03-15T14:29:55Z</time>
      </trkpt>
      <trkpt lat="40.314350" lon="-4.780800">
        <ele>2290.0</ele>
        <time>2015-03-15T14:29:56Z</time>
      </trkpt>
      <trkpt lat="40.314367" lon="-4.780650">
        <ele>2289.0</ele>
        <time>2015-03-15T14:29:57Z</time>
      </trkpt>
      <trkpt lat="40.314400" lon="-4.780483">
        <ele>2287.0</ele>
        <time>2015-03-15T14:29:58Z</time>
      </trkpt>
      <trkpt lat="40.314417" lon="-4.780333">
        <ele>2286.0</ele>
        <time>2015-03-15T14:29:59Z</time>
      </trkpt>
      <trkpt lat="40.314433" lon="-4.780183">
        <ele>2285.0</ele>
        <time>2015-03-15T14:30:00Z</time>
      </trkpt>
      <trkpt lat="40.314467" lon="-4.780033">
        <ele>2283.0</ele>
        <time>2015-03-15T14:30:01Z</time>
      </trkpt>
      <trkpt lat="40.314483" lon="-4.779883">
        <ele>2281.0</ele>
        <time>2015-03-15T14:30:02Z</time>
      </trkpt>
      <trkpt lat="40.314517" lon="-4.779717">
        <ele>2279.0</ele>
        <time>2015-03-15T14:30:03Z</time>
      </trkpt>
      <trkpt lat="40.314533" lon="-4.779550">
        <ele>2277.0</ele>
        <time>2015-03-15T14:30:04Z</time>
      </trkpt>
      <trkpt lat="40.314550" lon="-4.779383">
        <ele>2275.0</ele>
        <time>2015-03-15T14:30:05Z</time>
      </trkpt>
      <trkpt lat="40.314583" lon="-4.779233">
        <ele>2274.0</ele>
        <time>2015-03-15T14:30:06Z</time>
      </trkpt>
      <trkpt lat="40.314600" lon="-4.779083">
        <ele>2273.0</ele>
        <time>2015-03-15T14:30:07Z</time>
      </trkpt>
      <trkpt lat="40.314633" lon="-4.778933">
        <ele>2271.0</ele>
        <time>2015-03-15T14:30:08Z</time>
      </trkpt>
      <trkpt lat="40.314633" lon="-4.778783">
        <ele>2270.0</ele>
        <time>2015-03-15T14:30:09Z</time>
      </trkpt>
      <trkpt lat="40.314650" lon="-4.778633">
        <ele>2269.0</ele>
        <time>2015-03-15T14:30:10Z</time>
      </trkpt>
      <trkpt lat="40.314667" lon="-4.778500">
        <ele>2268.0</ele>
        <time>2015-03-15T14:30:11Z</time>
      </trkpt>
      <trkpt lat="40.314683" lon="-4.778350">
        <ele>2267.0</ele>
        <time>2015-03-15T14:30:12Z</time>
      </trkpt>
      <trkpt lat="40.314700" lon="-4.778200">
        <ele>2265.0</ele>
        <time>2015-03-15T14:30:13Z</time>
      </trkpt>
      <trkpt lat="40.314717" lon="-4.778050">
        <ele>2264.0</ele>
        <time>2015-03-15T14:30:14Z</time>
      </trkpt>
      <trkpt lat="40.314733" lon="-4.777900">
        <ele>2262.0</ele>
        <time>2015-03-15T14:30:15Z</time>
      </trkpt>
      <trkpt lat="40.314750" lon="-4.777750">
        <ele>2261.0</ele>
        <time>2015-03-15T14:30:16Z</time>
      </trkpt>
      <trkpt lat="40.314767" lon="-4.777600">
        <ele>2261.0</ele>
        <time>2015-03-15T14:30:17Z</time>
      </trkpt>
      <trkpt lat="40.314783" lon="-4.777467">
        <ele>2260.0</ele>
        <time>2015-03-15T14:30:18Z</time>
      </trkpt>
      <trkpt lat="40.314817" lon="-4.777333">
        <ele>2260.0</ele>
        <time>2015-03-15T14:30:19Z</time>
      </trkpt>
      <trkpt lat="40.314833" lon="-4.777183">
        <ele>2259.0</ele>
        <time>2015-03-15T14:30:20Z</time>
      </trkpt>
      <trkpt lat="40.314833" lon="-4.777050">
        <ele>2258.0</ele>
        <time>2015-03-15T14:30:21Z</time>
      </trkpt>
      <trkpt lat="40.314850" lon="-4.776900">
        <ele>2257.0</ele>
        <time>2015-03-15T14:30:22Z</time>
      </trkpt>
      <trkpt lat="40.314850" lon="-4.776750">
        <ele>2256.0</ele>
        <time>2015-03-15T14:30:23Z</time>
      </trkpt>
      <trkpt lat="40.314850" lon="-4.776617">
        <ele>2255.0</ele>
        <time>2015-03-15T14:30:24Z</time>
      </trkpt>
      <trkpt lat="40.314867" lon="-4.776467">
        <ele>2253.0</ele>
        <time>2015-03-15T14:30:25Z</time>
      </trkpt>
      <trkpt lat="40.314867" lon="-4.776333">
        <ele>2251.0</ele>
        <time>2015-03-15T14:30:26Z</time>
      </trkpt>
      <trkpt lat="40.314867" lon="-4.776183">
        <ele>2249.0</ele>
        <time>2015-03-15T14:30:27Z</time>
      </trkpt>
      <trkpt lat="40.314867" lon="-4.776033">
        <ele>2247.0</ele>
        <time>2015-03-15T14:30:28Z</time>
      </trkpt>
      <trkpt lat="40.314883" lon="-4.775883">
        <ele>2245.0</ele>
        <time>2015-03-15T14:30:29Z</time>
      </trkpt>
      <trkpt lat="40.314883" lon="-4.775733">
        <ele>2244.0</ele>
        <time>2015-03-15T14:30:30Z</time>
      </trkpt>
      <trkpt lat="40.314883" lon="-4.775567">
        <ele>2243.0</ele>
        <time>2015-03-15T14:30:31Z</time>
      </trkpt>
      <trkpt lat="40.314883" lon="-4.775417">
        <ele>2241.0</ele>
        <time>2015-03-15T14:30:32Z</time>
      </trkpt>
      <trkpt lat="40.314883" lon="-4.775267">
        <ele>2239.0</ele>
        <time>2015-03-15T14:30:33Z</time>
      </trkpt>
      <trkpt lat="40.314883" lon="-4.775117">
        <ele>2237.0</ele>
        <time>2015-03-15T14:30:34Z</time>
      </trkpt>
      <trkpt lat="40.314883" lon="-4.774967">
        <ele>2235.0</ele>
        <time>2015-03-15T14:30:35Z</time>
      </trkpt>
      <trkpt lat="40.314900" lon="-4.774800">
        <ele>2233.0</ele>
        <time>2015-03-15T14:30:36Z</time>
      </trkpt>
      <trkpt lat="40.314900" lon="-4.774633">
        <ele>2232.0</ele>
        <time>2015-03-15T14:30:37Z</time>
      </trkpt>
      <trkpt lat="40.314917" lon="-4.774483">
        <ele>2230.0</ele>
        <time>2015-03-15T14:30:38Z</time>
      </trkpt>
      <trkpt lat="40.314917" lon="-4.774317">
        <ele>2230.0</ele>
        <time>2015-03-15T14:30:39Z</time>
      </trkpt>
      <trkpt lat="40.314933" lon="-4.774167">
        <ele>2229.0</ele>
        <time>2015-03-15T14:30:40Z</time>
      </trkpt>
      <trkpt lat="40.314950" lon="-4.774000">
        <ele>2228.0</ele>
        <time>2015-03-15T14:30:41Z</time>
      </trkpt>
      <trkpt lat="40.314967" lon="-4.773850">
        <ele>2228.0</ele>
        <time>2015-03-15T14:30:42Z</time>
      </trkpt>
      <trkpt lat="40.314983" lon="-4.773683">
        <ele>2227.0</ele>
        <time>2015-03-15T14:30:43Z</time>
      </trkpt>
      <trkpt lat="40.315017" lon="-4.773533">
        <ele>2227.0</ele>
        <time>2015-03-15T14:30:44Z</time>
      </trkpt>
      <trkpt lat="40.315033" lon="-4.773400">
        <ele>2226.0</ele>
        <time>2015-03-15T14:30:45Z</time>
      </trkpt>
      <trkpt lat="40.315067" lon="-4.773250">
        <ele>2225.0</ele>
        <time>2015-03-15T14:30:46Z</time>
      </trkpt>
      <trkpt lat="40.315100" lon="-4.773100">
        <ele>2224.0</ele>
        <time>2015-03-15T14:30:47Z</time>
      </trkpt>
      <trkpt lat="40.315133" lon="-4.772950">
        <ele>2222.0</ele>
        <time>2015-03-15T14:30:48Z</time>
      </trkpt>
      <trkpt lat="40.315183" lon="-4.772800">
        <ele>2221.0</ele>
        <time>2015-03-15T14:30:49Z</time>
      </trkpt>
      <trkpt lat="40.315217" lon="-4.772650">
        <ele>2220.0</ele>
        <time>2015-03-15T14:30:50Z</time>
      </trkpt>
      <trkpt lat="40.315250" lon="-4.772500">
        <ele>2219.0</ele>
        <time>2015-03-15T14:30:51Z</time>
      </trkpt>
      <trkpt lat="40.315300" lon="-4.772350">
        <ele>2217.0</ele>
        <time>2015-03-15T14:30:52Z</time>
      </trkpt>
      <trkpt lat="40.315350" lon="-4.772217">
        <ele>2215.0</ele>
        <time>2015-03-15T14:30:53Z</time>
      </trkpt>
      <trkpt lat="40.315400" lon="-4.772067">
        <ele>2214.0</ele>
        <time>2015-03-15T14:30:54Z</time>
      </trkpt>
      <trkpt lat="40.315433" lon="-4.771917">
        <ele>2213.0</ele>
        <time>2015-03-15T14:30:55Z</time>
      </trkpt>
      <trkpt lat="40.315483" lon="-4.771767">
        <ele>2213.0</ele>
        <time>2015-03-15T14:30:56Z</time>
      </trkpt>
      <trkpt lat="40.315517" lon="-4.771617">
        <ele>2213.0</ele>
        <time>2015-03-15T14:30:57Z</time>
      </trkpt>
      <trkpt lat="40.315567" lon="-4.771483">
        <ele>2213.0</ele>
        <time>2015-03-15T14:30:58Z</time>
      </trkpt>
      <trkpt lat="40.315633" lon="-4.771350">
        <ele>2213.0</ele>
        <time>2015-03-15T14:30:59Z</time>
      </trkpt>
      <trkpt lat="40.315683" lon="-4.771233">
        <ele>2213.0</ele>
        <time>2015-03-15T14:31:00Z</time>
      </trkpt>
      <trkpt lat="40.315717" lon="-4.771100">
        <ele>2212.0</ele>
        <time>2015-03-15T14:31:01Z</time>
      </trkpt>
      <trkpt lat="40.315767" lon="-4.770967">
        <ele>2211.0</ele>
        <time>2015-03-15T14:31:02Z</time>
      </trkpt>
      <trkpt lat="40.315800" lon="-4.770817">
        <ele>2209.0</ele>
        <time>2015-03-15T14:31:03Z</time>
      </trkpt>
      <trkpt lat="40.315850" lon="-4.770667">
        <ele>2208.0</ele>
        <time>2015-03-15T14:31:04Z</time>
      </trkpt>
      <trkpt lat="40.315917" lon="-4.770533">
        <ele>2206.0</ele>
        <time>2015-03-15T14:31:05Z</time>
      </trkpt>
      <trkpt lat="40.316000" lon="-4.770383">
        <ele>2206.0</ele>
        <time>2015-03-15T14:31:06Z</time>
      </trkpt>
      <trkpt lat="40.316050" lon="-4.770250">
        <ele>2206.0</ele>
        <time>2015-03-15T14:31:07Z</time>
      </trkpt>
      <trkpt lat="40.316100" lon="-4.770117">
        <ele>2207.0</ele>
        <time>2015-03-15T14:31:08Z</time>
      </trkpt>
      <trkpt lat="40.316133" lon="-4.769983">
        <ele>2207.0</ele>
        <time>2015-03-15T14:31:09Z</time>
      </trkpt>
      <trkpt lat="40.316183" lon="-4.769850">
        <ele>2206.0</ele>
        <time>2015-03-15T14:31:10Z</time>
      </trkpt>
      <trkpt lat="40.316233" lon="-4.769717">
        <ele>2205.0</ele>
        <time>2015-03-15T14:31:11Z</time>
      </trkpt>
      <trkpt lat="40.316300" lon="-4.769583">
        <ele>2204.0</ele>
        <time>2015-03-15T14:31:12Z</time>
      </trkpt>
      <trkpt lat="40.316350" lon="-4.769433">
        <ele>2203.0</ele>
        <time>2015-03-15T14:31:13Z</time>
      </trkpt>
      <trkpt lat="40.316400" lon="-4.769283">
        <ele>2203.0</ele>
        <time>2015-03-15T14:31:14Z</time>
      </trkpt>
      <trkpt lat="40.316450" lon="-4.769133">
        <ele>2204.0</ele>
        <time>2015-03-15T14:31:15Z</time>
      </trkpt>
      <trkpt lat="40.316483" lon="-4.769000">
        <ele>2205.0</ele>
        <time>2015-03-15T14:31:16Z</time>
      </trkpt>
      <trkpt lat="40.316533" lon="-4.768867">
        <ele>2206.0</ele>
        <time>2015-03-15T14:31:17Z</time>
      </trkpt>
      <trkpt lat="40.316583" lon="-4.768750">
        <ele>2206.0</ele>
        <time>2015-03-15T14:31:18Z</time>
      </trkpt>
      <trkpt lat="40.316617" lon="-4.768617">
        <ele>2205.0</ele>
        <time>2015-03-15T14:31:19Z</time>
      </trkpt>
      <trkpt lat="40.316667" lon="-4.768500">
        <ele>2204.0</ele>
        <time>2015-03-15T14:31:20Z</time>
      </trkpt>
      <trkpt lat="40.316700" lon="-4.768367">
        <ele>2203.0</ele>
        <time>2015-03-15T14:31:21Z</time>
      </trkpt>
      <trkpt lat="40.316733" lon="-4.768233">
        <ele>2201.0</ele>
        <time>2015-03-15T14:31:22Z</time>
      </trkpt>
      <trkpt lat="40.316767" lon="-4.768083">
        <ele>2200.0</ele>
        <time>2015-03-15T14:31:23Z</time>
      </trkpt>
      <trkpt lat="40.316817" lon="-4.767950">
        <ele>2199.0</ele>
        <time>2015-03-15T14:31:24Z</time>
      </trkpt>
      <trkpt lat="40.316850" lon="-4.767817">
        <ele>2198.0</ele>
        <time>2015-03-15T14:31:25Z</time>
      </trkpt>
      <trkpt lat="40.316883" lon="-4.767667">
        <ele>2198.0</ele>
        <time>2015-03-15T14:31:26Z</time>
      </trkpt>
      <trkpt lat="40.316917" lon="-4.767533">
        <ele>2196.0</ele>
        <time>2015-03-15T14:31:27Z</time>
      </trkpt>
      <trkpt lat="40.316950" lon="-4.767400">
        <ele>2195.0</ele>
        <time>2015-03-15T14:31:28Z</time>
      </trkpt>
      <trkpt lat="40.316967" lon="-4.767250">
        <ele>2195.0</ele>
        <time>2015-03-15T14:31:29Z</time>
      </trkpt>
      <trkpt lat="40.317000" lon="-4.767117">
        <ele>2194.0</ele>
        <time>2015-03-15T14:31:30Z</time>
      </trkpt>
      <trkpt lat="40.317033" lon="-4.766983">
        <ele>2194.0</ele>
        <time>2015-03-15T14:31:31Z</time>
      </trkpt>
      <trkpt lat="40.317050" lon="-4.766867">
        <ele>2193.0</ele>
        <time>2015-03-15T14:31:32Z</time>
      </trkpt>
      <trkpt lat="40.317083" lon="-4.766733">
        <ele>2191.0</ele>
        <time>2015-03-15T14:31:33Z</time>
      </trkpt>
      <trkpt lat="40.317100" lon="-4.766583">
        <ele>2189.0</ele>
        <time>2015-03-15T14:31:34Z</time>
      </trkpt>
      <trkpt lat="40.317133" lon="-4.766433">
        <ele>2187.0</ele>
        <time>2015-03-15T14:31:35Z</time>
      </trkpt>
      <trkpt lat="40.317167" lon="-4.766283">
        <ele>2185.0</ele>
        <time>2015-03-15T14:31:36Z</time>
      </trkpt>
      <trkpt lat="40.317200" lon="-4.766133">
        <ele>2185.0</ele>
        <time>2015-03-15T14:31:37Z</time>
      </trkpt>
      <trkpt lat="40.317250" lon="-4.766000">
        <ele>2185.0</ele>
        <time>2015-03-15T14:31:38Z</time>
      </trkpt>
      <trkpt lat="40.317283" lon="-4.765867">
        <ele>2185.0</ele>
        <time>2015-03-15T14:31:39Z</time>
      </trkpt>
      <trkpt lat="40.317333" lon="-4.765750">
        <ele>2184.0</ele>
        <time>2015-03-15T14:31:40Z</time>
      </trkpt>
      <trkpt lat="40.317367" lon="-4.765633">
        <ele>2182.0</ele>
        <time>2015-03-15T14:31:41Z</time>
      </trkpt>
      <trkpt lat="40.317400" lon="-4.765500">
        <ele>2180.0</ele>
        <time>2015-03-15T14:31:42Z</time>
      </trkpt>
      <trkpt lat="40.317450" lon="-4.765350">
        <ele>2177.0</ele>
        <time>2015-03-15T14:31:43Z</time>
      </trkpt>
      <trkpt lat="40.317483" lon="-4.765217">
        <ele>2176.0</ele>
        <time>2015-03-15T14:31:44Z</time>
      </trkpt>
      <trkpt lat="40.317550" lon="-4.765067">
        <ele>2174.0</ele>
        <time>2015-03-15T14:31:45Z</time>
      </trkpt>
      <trkpt lat="40.317600" lon="-4.764933">
        <ele>2174.0</ele>
        <time>2015-03-15T14:31:46Z</time>
      </trkpt>
      <trkpt lat="40.317633" lon="-4.764800">
        <ele>2173.0</ele>
        <time>2015-03-15T14:31:47Z</time>
      </trkpt>
      <trkpt lat="40.317683" lon="-4.764667">
        <ele>2171.0</ele>
        <time>2015-03-15T14:31:48Z</time>
      </trkpt>
      <trkpt lat="40.317717" lon="-4.764533">
        <ele>2170.0</ele>
        <time>2015-03-15T14:31:49Z</time>
      </trkpt>
      <trkpt lat="40.317767" lon="-4.764400">
        <ele>2169.0</ele>
        <time>2015-03-15T14:31:50Z</time>
      </trkpt>
      <trkpt lat="40.317817" lon="-4.764250">
        <ele>2167.0</ele>
        <time>2015-03-15T14:31:51Z</time>
      </trkpt>
      <trkpt lat="40.317850" lon="-4.764117">
        <ele>2166.0</ele>
        <time>2015-03-15T14:31:52Z</time>
      </trkpt>
      <trkpt lat="40.317900" lon="-4.763983">
        <ele>2165.0</ele>
        <time>2015-03-15T14:31:53Z</time>
      </trkpt>
      <trkpt lat="40.317933" lon="-4.763833">
        <ele>2164.0</ele>
        <time>2015-03-15T14:31:54Z</time>
      </trkpt>
      <trkpt lat="40.317967" lon="-4.763700">
        <ele>2163.0</ele>
        <time>2015-03-15T14:31:55Z</time>
      </trkpt>
      <trkpt lat="40.318017" lon="-4.763567">
        <ele>2162.0</ele>
        <time>2015-03-15T14:31:56Z</time>
      </trkpt>
      <trkpt lat="40.318067" lon="-4.763433">
        <ele>2160.0</ele>
        <time>2015-03-15T14:31:57Z</time>
      </trkpt>
      <trkpt lat="40.318117" lon="-4.763300">
        <ele>2159.0</ele>
        <time>2015-03-15T14:31:58Z</time>
      </trkpt>
      <trkpt lat="40.318167" lon="-4.763167">
        <ele>2157.0</ele>
        <time>2015-03-15T14:31:59Z</time>
      </trkpt>
      <trkpt lat="40.318200" lon="-4.763033">
        <ele>2156.0</ele>
        <time>2015-03-15T14:32:00Z</time>
      </trkpt>
      <trkpt lat="40.318250" lon="-4.762900">
        <ele>2155.0</ele>
        <time>2015-03-15T14:32:01Z</time>
      </trkpt>
      <trkpt lat="40.318300" lon="-4.762783">
        <ele>2154.0</ele>
        <time>2015-03-15T14:32:02Z</time>
      </trkpt>
      <trkpt lat="40.318350" lon="-4.762650">
        <ele>2152.0</ele>
        <time>2015-03-15T14:32:03Z</time>
      </trkpt>
      <trkpt lat="40.318400" lon="-4.762533">
        <ele>2151.0</ele>
        <time>2015-03-15T14:32:04Z</time>
      </trkpt>
      <trkpt lat="40.318450" lon="-4.762400">
        <ele>2149.0</ele>
        <time>2015-03-15T14:32:05Z</time>
      </trkpt>
      <trkpt lat="40.318500" lon="-4.762267">
        <ele>2148.0</ele>
        <time>2015-03-15T14:32:06Z</time>
      </trkpt>
      <trkpt lat="40.318550" lon="-4.762150">
        <ele>2147.0</ele>
        <time>2015-03-15T14:32:07Z</time>
      </trkpt>
      <trkpt lat="40.318583" lon="-4.762033">
        <ele>2145.0</ele>
        <time>2015-03-15T14:32:08Z</time>
      </trkpt>
      <trkpt lat="40.318650" lon="-4.761900">
        <ele>2143.0</ele>
        <time>2015-03-15T14:32:09Z</time>
      </trkpt>
      <trkpt lat="40.318700" lon="-4.761767">
        <ele>2141.0</ele>
        <time>2015-03-15T14:32:10Z</time>
      </trkpt>
      <trkpt lat="40.318750" lon="-4.761617">
        <ele>2140.0</ele>
        <time>2015-03-15T14:32:11Z</time>
      </trkpt>
      <trkpt lat="40.318783" lon="-4.761467">
        <ele>2139.0</ele>
        <time>2015-03-15T14:32:12Z</time>
      </trkpt>
      <trkpt lat="40.318817" lon="-4.761333">
        <ele>2138.0</ele>
        <time>2015-03-15T14:32:13Z</time>
      </trkpt>
      <trkpt lat="40.318850" lon="-4.761200">
        <ele>2137.0</ele>
        <time>2015-03-15T14:32:14Z</time>
      </trkpt>
      <trkpt lat="40.318900" lon="-4.761050">
        <ele>2135.0</ele>
        <time>2015-03-15T14:32:15Z</time>
      </trkpt>
      <trkpt lat="40.318933" lon="-4.760917">
        <ele>2133.0</ele>
        <time>2015-03-15T14:32:16Z</time>
      </trkpt>
      <trkpt lat="40.318983" lon="-4.760783">
        <ele>2132.0</ele>
        <time>2015-03-15T14:32:17Z</time>
      </trkpt>
      <trkpt lat="40.319017" lon="-4.760633">
        <ele>2130.0</ele>
        <time>2015-03-15T14:32:18Z</time>
      </trkpt>
      <trkpt lat="40.319067" lon="-4.760483">
        <ele>2129.0</ele>
        <time>2015-03-15T14:32:19Z</time>
      </trkpt>
      <trkpt lat="40.319117" lon="-4.760350">
        <ele>2128.0</ele>
        <time>2015-03-15T14:32:20Z</time>
      </trkpt>
      <trkpt lat="40.319167" lon="-4.760217">
        <ele>2127.0</ele>
        <time>2015-03-15T14:32:21Z</time>
      </trkpt>
      <trkpt lat="40.319217" lon="-4.760100">
        <ele>2126.0</ele>
        <time>2015-03-15T14:32:22Z</time>
      </trkpt>
      <trkpt lat="40.319267" lon="-4.759967">
        <ele>2124.0</ele>
        <time>2015-03-15T14:32:23Z</time>
      </trkpt>
      <trkpt lat="40.319300" lon="-4.759833">
        <ele>2123.0</ele>
        <time>2015-03-15T14:32:24Z</time>
      </trkpt>
      <trkpt lat="40.319350" lon="-4.759700">
        <ele>2121.0</ele>
        <time>2015-03-15T14:32:25Z</time>
      </trkpt>
      <trkpt lat="40.319400" lon="-4.759567">
        <ele>2119.0</ele>
        <time>2015-03-15T14:32:26Z</time>
      </trkpt>
      <trkpt lat="40.319450" lon="-4.759433">
        <ele>2116.0</ele>
        <time>2015-03-15T14:32:27Z</time>
      </trkpt>
      <trkpt lat="40.319500" lon="-4.759300">
        <ele>2113.0</ele>
        <time>2015-03-15T14:32:28Z</time>
      </trkpt>
      <trkpt lat="40.319550" lon="-4.759167">
        <ele>2111.0</ele>
        <time>2015-03-15T14:32:29Z</time>
      </trkpt>
      <trkpt lat="40.319617" lon="-4.759050">
        <ele>2110.0</ele>
        <time>2015-03-15T14:32:30Z</time>
      </trkpt>
      <trkpt lat="40.319667" lon="-4.758917">
        <ele>2108.0</ele>
        <time>2015-03-15T14:32:31Z</time>
      </trkpt>
      <trkpt lat="40.319733" lon="-4.758800">
        <ele>2107.0</ele>
        <time>2015-03-15T14:32:32Z</time>
      </trkpt>
      <trkpt lat="40.319783" lon="-4.758683">
        <ele>2105.0</ele>
        <time>2015-03-15T14:32:33Z</time>
      </trkpt>
      <trkpt lat="40.319833" lon="-4.758550">
        <ele>2103.0</ele>
        <time>2015-03-15T14:32:34Z</time>
      </trkpt>
      <trkpt lat="40.319883" lon="-4.758433">
        <ele>2101.0</ele>
        <time>2015-03-15T14:32:35Z</time>
      </trkpt>
      <trkpt lat="40.319950" lon="-4.758317">
        <ele>2099.0</ele>
        <time>2015-03-15T14:32:36Z</time>
      </trkpt>
      <trkpt lat="40.320000" lon="-4.758200">
        <ele>2098.0</ele>
        <time>2015-03-15T14:32:37Z</time>
      </trkpt>
      <trkpt lat="40.320067" lon="-4.758100">
        <ele>2097.0</ele>
        <time>2015-03-15T14:32:38Z</time>
      </trkpt>
      <trkpt lat="40.320117" lon="-4.757983">
        <ele>2095.0</ele>
        <time>2015-03-15T14:32:39Z</time>
      </trkpt>
      <trkpt lat="40.320150" lon="-4.757883">
        <ele>2093.0</ele>
        <time>2015-03-15T14:32:40Z</time>
      </trkpt>
      <trkpt lat="40.320200" lon="-4.757750">
        <ele>2090.0</ele>
        <time>2015-03-15T14:32:41Z</time>
      </trkpt>
      <trkpt lat="40.320267" lon="-4.757633">
        <ele>2087.0</ele>
        <time>2015-03-15T14:32:42Z</time>
      </trkpt>
      <trkpt lat="40.320333" lon="-4.757517">
        <ele>2086.0</ele>
        <time>2015-03-15T14:32:43Z</time>
      </trkpt>
      <trkpt lat="40.320400" lon="-4.757400">
        <ele>2086.0</ele>
        <time>2015-03-15T14:32:44Z</time>
      </trkpt>
      <trkpt lat="40.320450" lon="-4.757300">
        <ele>2086.0</ele>
        <time>2015-03-15T14:32:45Z</time>
      </trkpt>
      <trkpt lat="40.320500" lon="-4.757217">
        <ele>2086.0</ele>
        <time>2015-03-15T14:32:46Z</time>
      </trkpt>
      <trkpt lat="40.320533" lon="-4.757133">
        <ele>2085.0</ele>
        <time>2015-03-15T14:32:47Z</time>
      </trkpt>
      <trkpt lat="40.320583" lon="-4.757050">
        <ele>2083.0</ele>
        <time>2015-03-15T14:32:48Z</time>
      </trkpt>
      <trkpt lat="40.320633" lon="-4.756950">
        <ele>2081.0</ele>
        <time>2015-03-15T14:32:49Z</time>
      </trkpt>
      <trkpt lat="40.320667" lon="-4.756833">
        <ele>2078.0</ele>
        <time>2015-03-15T14:32:50Z</time>
      </trkpt>
      <trkpt lat="40.320717" lon="-4.756717">
        <ele>2076.0</ele>
        <time>2015-03-15T14:32:51Z</time>
      </trkpt>
      <trkpt lat="40.320750" lon="-4.756600">
        <ele>2073.0</ele>
        <time>2015-03-15T14:32:52Z</time>
      </trkpt>
      <trkpt lat="40.320800" lon="-4.756483">
        <ele>2071.0</ele>
        <time>2015-03-15T14:32:53Z</time>
      </trkpt>
      <trkpt lat="40.320867" lon="-4.756383">
        <ele>2070.0</ele>
        <time>2015-03-15T14:32:54Z</time>
      </trkpt>
      <trkpt lat="40.320917" lon="-4.756283">
        <ele>2068.0</ele>
        <time>2015-03-15T14:32:55Z</time>
      </trkpt>
      <trkpt lat="40.320983" lon="-4.756167">
        <ele>2067.0</ele>
        <time>2015-03-15T14:32:56Z</time>
      </trkpt>
      <trkpt lat="40.321017" lon="-4.756033">
        <ele>2066.0</ele>
        <time>2015-03-15T14:32:57Z</time>
      </trkpt>
      <trkpt lat="40.321067" lon="-4.755917">
        <ele>2065.0</ele>
        <time>2015-03-15T14:32:58Z</time>
      </trkpt>
      <trkpt lat="40.321100" lon="-4.755800">
        <ele>2064.0</ele>
        <time>2015-03-15T14:32:59Z</time>
      </trkpt>
      <trkpt lat="40.321150" lon="-4.755683">
        <ele>2064.0</ele>
        <time>2015-03-15T14:33:00Z</time>
      </trkpt>
      <trkpt lat="40.321200" lon="-4.755583">
        <ele>2063.0</ele>
        <time>2015-03-15T14:33:01Z</time>
      </trkpt>
      <trkpt lat="40.321233" lon="-4.755467">
        <ele>2062.0</ele>
        <time>2015-03-15T14:33:02Z</time>
      </trkpt>
      <trkpt lat="40.321267" lon="-4.755350">
        <ele>2060.0</ele>
        <time>2015-03-15T14:33:03Z</time>
      </trkpt>
      <trkpt lat="40.321317" lon="-4.755233">
        <ele>2060.0</ele>
        <time>2015-03-15T14:33:04Z</time>
      </trkpt>
      <trkpt lat="40.321367" lon="-4.755117">
        <ele>2059.0</ele>
        <time>2015-03-15T14:33:05Z</time>
      </trkpt>
      <trkpt lat="40.321417" lon="-4.755000">
        <ele>2059.0</ele>
        <time>2015-03-15T14:33:06Z</time>
      </trkpt>
      <trkpt lat="40.321467" lon="-4.754883">
        <ele>2059.0</ele>
        <time>2015-03-15T14:33:07Z</time>
      </trkpt>
      <trkpt lat="40.321517" lon="-4.754783">
        <ele>2059.0</ele>
        <time>2015-03-15T14:33:08Z</time>
      </trkpt>
      <trkpt lat="40.321567" lon="-4.754683">
        <ele>2059.0</ele>
        <time>2015-03-15T14:33:09Z</time>
      </trkpt>
      <trkpt lat="40.321617" lon="-4.754583">
        <ele>2058.0</ele>
        <time>2015-03-15T14:33:10Z</time>
      </trkpt>
      <trkpt lat="40.321667" lon="-4.754450">
        <ele>2056.0</ele>
        <time>2015-03-15T14:33:11Z</time>
      </trkpt>
      <trkpt lat="40.321733" lon="-4.754333">
        <ele>2055.0</ele>
        <time>2015-03-15T14:33:12Z</time>
      </trkpt>
      <trkpt lat="40.321783" lon="-4.754200">
        <ele>2054.0</ele>
        <time>2015-03-15T14:33:13Z</time>
      </trkpt>
      <trkpt lat="40.321833" lon="-4.754083">
        <ele>2054.0</ele>
        <time>2015-03-15T14:33:14Z</time>
      </trkpt>
      <trkpt lat="40.321900" lon="-4.753967">
        <ele>2055.0</ele>
        <time>2015-03-15T14:33:15Z</time>
      </trkpt>
      <trkpt lat="40.321950" lon="-4.753850">
        <ele>2055.0</ele>
        <time>2015-03-15T14:33:16Z</time>
      </trkpt>
      <trkpt lat="40.321983" lon="-4.753733">
        <ele>2055.0</ele>
        <time>2015-03-15T14:33:17Z</time>
      </trkpt>
      <trkpt lat="40.322033" lon="-4.753617">
        <ele>2054.0</ele>
        <time>2015-03-15T14:33:18Z</time>
      </trkpt>
      <trkpt lat="40.322083" lon="-4.753483">
        <ele>2053.0</ele>
        <time>2015-03-15T14:33:19Z</time>
      </trkpt>
      <trkpt lat="40.322133" lon="-4.753350">
        <ele>2052.0</ele>
        <time>2015-03-15T14:33:20Z</time>
      </trkpt>
      <trkpt lat="40.322183" lon="-4.753200">
        <ele>2052.0</ele>
        <time>2015-03-15T14:33:21Z</time>
      </trkpt>
      <trkpt lat="40.322233" lon="-4.753067">
        <ele>2052.0</ele>
        <time>2015-03-15T14:33:22Z</time>
      </trkpt>
      <trkpt lat="40.322283" lon="-4.752950">
        <ele>2053.0</ele>
        <time>2015-03-15T14:33:23Z</time>
      </trkpt>
      <trkpt lat="40.322333" lon="-4.752833">
        <ele>2054.0</ele>
        <time>2015-03-15T14:33:24Z</time>
      </trkpt>
      <trkpt lat="40.322383" lon="-4.752717">
        <ele>2053.0</ele>
        <time>2015-03-15T14:33:25Z</time>
      </trkpt>
      <trkpt lat="40.322433" lon="-4.752583">
        <ele>2052.0</ele>
        <time>2015-03-15T14:33:26Z</time>
      </trkpt>
      <trkpt lat="40.322483" lon="-4.752433">
        <ele>2050.0</ele>
        <time>2015-03-15T14:33:27Z</time>
      </trkpt>
      <trkpt lat="40.322533" lon="-4.752300">
        <ele>2049.0</ele>
        <time>2015-03-15T14:33:28Z</time>
      </trkpt>
      <trkpt lat="40.322583" lon="-4.752150">
        <ele>2049.0</ele>
        <time>2015-03-15T14:33:29Z</time>
      </trkpt>
      <trkpt lat="40.322650" lon="-4.752033">
        <ele>2049.0</ele>
        <time>2015-03-15T14:33:30Z</time>
      </trkpt>
      <trkpt lat="40.322700" lon="-4.751900">
        <ele>2048.0</ele>
        <time>2015-03-15T14:33:31Z</time>
      </trkpt>
      <trkpt lat="40.322750" lon="-4.751783">
        <ele>2047.0</ele>
        <time>2015-03-15T14:33:32Z</time>
      </trkpt>
      <trkpt lat="40.322800" lon="-4.751650">
        <ele>2046.0</ele>
        <time>2015-03-15T14:33:33Z</time>
      </trkpt>
      <trkpt lat="40.322850" lon="-4.751517">
        <ele>2044.0</ele>
        <time>2015-03-15T14:33:34Z</time>
      </trkpt>
      <trkpt lat="40.322883" lon="-4.751383">
        <ele>2042.0</ele>
        <time>2015-03-15T14:33:35Z</time>
      </trkpt>
      <trkpt lat="40.322933" lon="-4.751250">
        <ele>2040.0</ele>
        <time>2015-03-15T14:33:36Z</time>
      </trkpt>
      <trkpt lat="40.322983" lon="-4.751133">
        <ele>2038.0</ele>
        <time>2015-03-15T14:33:37Z</time>
      </trkpt>
      <trkpt lat="40.323033" lon="-4.751000">
        <ele>2036.0</ele>
        <time>2015-03-15T14:33:38Z</time>
      </trkpt>
      <trkpt lat="40.323067" lon="-4.750867">
        <ele>2034.0</ele>
        <time>2015-03-15T14:33:39Z</time>
      </trkpt>
      <trkpt lat="40.323100" lon="-4.750733">
        <ele>2032.0</ele>
        <time>2015-03-15T14:33:40Z</time>
      </trkpt>
      <trkpt lat="40.323150" lon="-4.750583">
        <ele>2029.0</ele>
        <time>2015-03-15T14:33:41Z</time>
      </trkpt>
      <trkpt lat="40.323183" lon="-4.750450">
        <ele>2027.0</ele>
        <time>2015-03-15T14:33:42Z</time>
      </trkpt>
      <trkpt lat="40.323217" lon="-4.750317">
        <ele>2025.0</ele>
        <time>2015-03-15T14:33:43Z</time>
      </trkpt>
      <trkpt lat="40.323267" lon="-4.750167">
        <ele>2022.0</ele>
        <time>2015-03-15T14:33:44Z</time>
      </trkpt>
      <trkpt lat="40.323300" lon="-4.750033">
        <ele>2020.0</ele>
        <time>2015-03-15T14:33:45Z</time>
      </trkpt>
      <trkpt lat="40.323350" lon="-4.749917">
        <ele>2018.0</ele>
        <time>2015-03-15T14:33:46Z</time>
      </trkpt>
      <trkpt lat="40.323383" lon="-4.749783">
        <ele>2016.0</ele>
        <time>2015-03-15T14:33:47Z</time>
      </trkpt>
      <trkpt lat="40.323417" lon="-4.749633">
        <ele>2013.0</ele>
        <time>2015-03-15T14:33:48Z</time>
      </trkpt>
      <trkpt lat="40.323450" lon="-4.749500">
        <ele>2011.0</ele>
        <time>2015-03-15T14:33:49Z</time>
      </trkpt>
      <trkpt lat="40.323467" lon="-4.749350">
        <ele>2009.0</ele>
        <time>2015-03-15T14:33:50Z</time>
      </trkpt>
      <trkpt lat="40.323500" lon="-4.749200">
        <ele>2008.0</ele>
        <time>2015-03-15T14:33:51Z</time>
      </trkpt>
      <trkpt lat="40.323533" lon="-4.749083">
        <ele>2009.0</ele>
        <time>2015-03-15T14:33:52Z</time>
      </trkpt>
      <trkpt lat="40.323550" lon="-4.748983">
        <ele>2009.0</ele>
        <time>2015-03-15T14:33:53Z</time>
      </trkpt>
      <trkpt lat="40.323583" lon="-4.748867">
        <ele>2009.0</ele>
        <time>2015-03-15T14:33:54Z</time>
      </trkpt>
      <trkpt lat="40.323583" lon="-4.748750">
        <ele>2007.0</ele>
        <time>2015-03-15T14:33:55Z</time>
      </trkpt>
      <trkpt lat="40.323600" lon="-4.748633">
        <ele>2006.0</ele>
        <time>2015-03-15T14:33:56Z</time>
      </trkpt>
      <trkpt lat="40.323600" lon="-4.748500">
        <ele>2004.0</ele>
        <time>2015-03-15T14:33:57Z</time>
      </trkpt>
      <trkpt lat="40.323600" lon="-4.748367">
        <ele>2002.0</ele>
        <time>2015-03-15T14:33:58Z</time>
      </trkpt>
      <trkpt lat="40.323600" lon="-4.748233">
        <ele>2000.0</ele>
        <time>2015-03-15T14:33:59Z</time>
      </trkpt>
      <trkpt lat="40.323617" lon="-4.748117">
        <ele>1999.0</ele>
        <time>2015-03-15T14:34:00Z</time>
      </trkpt>
      <trkpt lat="40.323633" lon="-4.747983">
        <ele>1997.0</ele>
        <time>2015-03-15T14:34:01Z</time>
      </trkpt>
      <trkpt lat="40.323650" lon="-4.747850">
        <ele>1996.0</ele>
        <time>2015-03-15T14:34:02Z</time>
      </trkpt>
      <trkpt lat="40.323650" lon="-4.747733">
        <ele>1994.0</ele>
        <time>2015-03-15T14:34:03Z</time>
      </trkpt>
      <trkpt lat="40.323667" lon="-4.747617">
        <ele>1992.0</ele>
        <time>2015-03-15T14:34:04Z</time>
      </trkpt>
      <trkpt lat="40.323700" lon="-4.747500">
        <ele>1990.0</ele>
        <time>2015-03-15T14:34:05Z</time>
      </trkpt>
      <trkpt lat="40.323733" lon="-4.747367">
        <ele>1987.0</ele>
        <time>2015-03-15T14:34:06Z</time>
      </trkpt>
      <trkpt lat="40.323767" lon="-4.747233">
        <ele>1985.0</ele>
        <time>2015-03-15T14:34:07Z</time>
      </trkpt>
      <trkpt lat="40.323800" lon="-4.747100">
        <ele>1984.0</ele>
        <time>2015-03-15T14:34:08Z</time>
      </trkpt>
      <trkpt lat="40.323833" lon="-4.746967">
        <ele>1984.0</ele>
        <time>2015-03-15T14:34:09Z</time>
      </trkpt>
      <trkpt lat="40.323867" lon="-4.746833">
        <ele>1983.0</ele>
        <time>2015-03-15T14:34:10Z</time>
      </trkpt>
      <trkpt lat="40.323900" lon="-4.746717">
        <ele>1982.0</ele>
        <time>2015-03-15T14:34:11Z</time>
      </trkpt>
      <trkpt lat="40.323933" lon="-4.746600">
        <ele>1980.0</ele>
        <time>2015-03-15T14:34:12Z</time>
      </trkpt>
      <trkpt lat="40.323983" lon="-4.746483">
        <ele>1978.0</ele>
        <time>2015-03-15T14:34:13Z</time>
      </trkpt>
      <trkpt lat="40.324017" lon="-4.746367">
        <ele>1977.0</ele>
        <time>2015-03-15T14:34:14Z</time>
      </trkpt>
      <trkpt lat="40.324050" lon="-4.746250">
        <ele>1976.0</ele>
        <time>2015-03-15T14:34:15Z</time>
      </trkpt>
      <trkpt lat="40.324100" lon="-4.746150">
        <ele>1975.0</ele>
        <time>2015-03-15T14:34:16Z</time>
      </trkpt>
      <trkpt lat="40.324133" lon="-4.746033">
        <ele>1973.0</ele>
        <time>2015-03-15T14:34:17Z</time>
      </trkpt>
      <trkpt lat="40.324183" lon="-4.745933">
        <ele>1972.0</ele>
        <time>2015-03-15T14:34:18Z</time>
      </trkpt>
      <trkpt lat="40.324233" lon="-4.745817">
        <ele>1970.0</ele>
        <time>2015-03-15T14:34:19Z</time>
      </trkpt>
      <trkpt lat="40.324283" lon="-4.745717">
        <ele>1968.0</ele>
        <time>2015-03-15T14:34:20Z</time>
      </trkpt>
      <trkpt lat="40.324333" lon="-4.745600">
        <ele>1966.0</ele>
        <time>2015-03-15T14:34:21Z</time>
      </trkpt>
      <trkpt lat="40.324400" lon="-4.745500">
        <ele>1965.0</ele>
        <time>2015-03-15T14:34:22Z</time>
      </trkpt>
      <trkpt lat="40.324450" lon="-4.745400">
        <ele>1963.0</ele>
        <time>2015-03-15T14:34:23Z</time>
      </trkpt>
      <trkpt lat="40.324517" lon="-4.745300">
        <ele>1962.0</ele>
        <time>2015-03-15T14:34:24Z</time>
      </trkpt>
      <trkpt lat="40.324567" lon="-4.745200">
        <ele>1960.0</ele>
        <time>2015-03-15T14:34:25Z</time>
      </trkpt>
      <trkpt lat="40.324617" lon="-4.745100">
        <ele>1958.0</ele>
        <time>2015-03-15T14:34:26Z</time>
      </trkpt>
      <trkpt lat="40.324683" lon="-4.744983">
        <ele>1956.0</ele>
        <time>2015-03-15T14:34:27Z</time>
      </trkpt>
      <trkpt lat="40.324733" lon="-4.744883">
        <ele>1954.0</ele>
        <time>2015-03-15T14:34:28Z</time>
      </trkpt>
      <trkpt lat="40.324800" lon="-4.744767">
        <ele>1952.0</ele>
        <time>2015-03-15T14:34:29Z</time>
      </trkpt>
      <trkpt lat="40.324850" lon="-4.744667">
        <ele>1951.0</ele>
        <time>2015-03-15T14:34:30Z</time>
      </trkpt>
      <trkpt lat="40.324917" lon="-4.744567">
        <ele>1949.0</ele>
        <time>2015-03-15T14:34:31Z</time>
      </trkpt>
      <trkpt lat="40.324967" lon="-4.744467">
        <ele>1948.0</ele>
        <time>2015-03-15T14:34:32Z</time>
      </trkpt>
      <trkpt lat="40.325017" lon="-4.744367">
        <ele>1946.0</ele>
        <time>2015-03-15T14:34:33Z</time>
      </trkpt>
      <trkpt lat="40.325083" lon="-4.744250">
        <ele>1944.0</ele>
        <time>2015-03-15T14:34:34Z</time>
      </trkpt>
      <trkpt lat="40.325133" lon="-4.744150">
        <ele>1942.0</ele>
        <time>2015-03-15T14:34:35Z</time>
      </trkpt>
      <trkpt lat="40.325183" lon="-4.744033">
        <ele>1940.0</ele>
        <time>2015-03-15T14:34:36Z</time>
      </trkpt>
      <trkpt lat="40.325250" lon="-4.743933">
        <ele>1938.0</ele>
        <time>2015-03-15T14:34:37Z</time>
      </trkpt>
      <trkpt lat="40.325300" lon="-4.743817">
        <ele>1937.0</ele>
        <time>2015-03-15T14:34:38Z</time>
      </trkpt>
      <trkpt lat="40.325367" lon="-4.743700">
        <ele>1935.0</ele>
        <time>2015-03-15T14:34:39Z</time>
      </trkpt>
      <trkpt lat="40.325417" lon="-4.743583">
        <ele>1934.0</ele>
        <time>2015-03-15T14:34:40Z</time>
      </trkpt>
      <trkpt lat="40.325467" lon="-4.743483">
        <ele>1932.0</ele>
        <time>2015-03-15T14:34:41Z</time>
      </trkpt>
      <trkpt lat="40.325517" lon="-4.743367">
        <ele>1931.0</ele>
        <time>2015-03-15T14:34:42Z</time>
      </trkpt>
      <trkpt lat="40.325567" lon="-4.743250">
        <ele>1928.0</ele>
        <time>2015-03-15T14:34:43Z</time>
      </trkpt>
      <trkpt lat="40.325617" lon="-4.743133">
        <ele>1926.0</ele>
        <time>2015-03-15T14:34:44Z</time>
      </trkpt>
      <trkpt lat="40.325650" lon="-4.743017">
        <ele>1923.0</ele>
        <time>2015-03-15T14:34:45Z</time>
      </trkpt>
      <trkpt lat="40.325700" lon="-4.742900">
        <ele>1921.0</ele>
        <time>2015-03-15T14:34:46Z</time>
      </trkpt>
      <trkpt lat="40.325750" lon="-4.742767">
        <ele>1919.0</ele>
        <time>2015-03-15T14:34:47Z</time>
      </trkpt>
      <trkpt lat="40.325817" lon="-4.742667">
        <ele>1918.0</ele>
        <time>2015-03-15T14:34:48Z</time>
      </trkpt>
      <trkpt lat="40.325883" lon="-4.742550">
        <ele>1916.0</ele>
        <time>2015-03-15T14:34:49Z</time>
      </trkpt>
      <trkpt lat="40.325933" lon="-4.742433">
        <ele>1913.0</ele>
        <time>2015-03-15T14:34:50Z</time>
      </trkpt>
      <trkpt lat="40.326000" lon="-4.742317">
        <ele>1910.0</ele>
        <time>2015-03-15T14:34:51Z</time>
      </trkpt>
      <trkpt lat="40.326067" lon="-4.742200">
        <ele>1908.0</ele>
        <time>2015-03-15T14:34:52Z</time>
      </trkpt>
      <trkpt lat="40.326117" lon="-4.742067">
        <ele>1906.0</ele>
        <time>2015-03-15T14:34:53Z</time>
      </trkpt>
      <trkpt lat="40.326183" lon="-4.741950">
        <ele>1904.0</ele>
        <time>2015-03-15T14:34:54Z</time>
      </trkpt>
      <trkpt lat="40.326250" lon="-4.741833">
        <ele>1902.0</ele>
        <time>2015-03-15T14:34:55Z</time>
      </trkpt>
      <trkpt lat="40.326317" lon="-4.741717">
        <ele>1900.0</ele>
        <time>2015-03-15T14:34:56Z</time>
      </trkpt>
      <trkpt lat="40.326383" lon="-4.741600">
        <ele>1898.0</ele>
        <time>2015-03-15T14:34:57Z</time>
      </trkpt>
      <trkpt lat="40.326450" lon="-4.741483">
        <ele>1896.0</ele>
        <time>2015-03-15T14:34:58Z</time>
      </trkpt>
      <trkpt lat="40.326500" lon="-4.741367">
        <ele>1894.0</ele>
        <time>2015-03-15T14:34:59Z</time>
      </trkpt>
      <trkpt lat="40.326567" lon="-4.741250">
        <ele>1892.0</ele>
        <time>2015-03-15T14:35:00Z</time>
      </trkpt>
      <trkpt lat="40.326617" lon="-4.741150">
        <ele>1890.0</ele>
        <time>2015-03-15T14:35:01Z</time>
      </trkpt>
      <trkpt lat="40.326683" lon="-4.741050">
        <ele>1887.0</ele>
        <time>2015-03-15T14:35:02Z</time>
      </trkpt>
      <trkpt lat="40.326733" lon="-4.740933">
        <ele>1884.0</ele>
        <time>2015-03-15T14:35:03Z</time>
      </trkpt>
      <trkpt lat="40.326800" lon="-4.740817">
        <ele>1880.0</ele>
        <time>2015-03-15T14:35:04Z</time>
      </trkpt>
      <trkpt lat="40.326850" lon="-4.740683">
        <ele>1877.0</ele>
        <time>2015-03-15T14:35:05Z</time>
      </trkpt>
      <trkpt lat="40.326900" lon="-4.740550">
        <ele>1874.0</ele>
        <time>2015-03-15T14:35:06Z</time>
      </trkpt>
      <trkpt lat="40.326950" lon="-4.740433">
        <ele>1872.0</ele>
        <time>2015-03-15T14:35:07Z</time>
      </trkpt>
      <trkpt lat="40.327000" lon="-4.740300">
        <ele>1870.0</ele>
        <time>2015-03-15T14:35:08Z</time>
      </trkpt>
      <trkpt lat="40.327050" lon="-4.740183">
        <ele>1867.0</ele>
        <time>2015-03-15T14:35:09Z</time>
      </trkpt>
      <trkpt lat="40.327100" lon="-4.740050">
        <ele>1865.0</ele>
        <time>2015-03-15T14:35:10Z</time>
      </trkpt>
      <trkpt lat="40.327150" lon="-4.739917">
        <ele>1862.0</ele>
        <time>2015-03-15T14:35:11Z</time>
      </trkpt>
      <trkpt lat="40.327200" lon="-4.739783">
        <ele>1859.0</ele>
        <time>2015-03-15T14:35:12Z</time>
      </trkpt>
      <trkpt lat="40.327250" lon="-4.739667">
        <ele>1856.0</ele>
        <time>2015-03-15T14:35:13Z</time>
      </trkpt>
      <trkpt lat="40.327300" lon="-4.739533">
        <ele>1852.0</ele>
        <time>2015-03-15T14:35:14Z</time>
      </trkpt>
      <trkpt lat="40.327350" lon="-4.739400">
        <ele>1849.0</ele>
        <time>2015-03-15T14:35:15Z</time>
      </trkpt>
      <trkpt lat="40.327417" lon="-4.739267">
        <ele>1845.0</ele>
        <time>2015-03-15T14:35:16Z</time>
      </trkpt>
      <trkpt lat="40.327467" lon="-4.739133">
        <ele>1842.0</ele>
        <time>2015-03-15T14:35:17Z</time>
      </trkpt>
      <trkpt lat="40.327533" lon="-4.739017">
        <ele>1839.0</ele>
        <time>2015-03-15T14:35:18Z</time>
      </trkpt>
      <trkpt lat="40.327600" lon="-4.738883">
        <ele>1836.0</ele>
        <time>2015-03-15T14:35:19Z</time>
      </trkpt>
      <trkpt lat="40.327667" lon="-4.738767">
        <ele>1834.0</ele>
        <time>2015-03-15T14:35:20Z</time>
      </trkpt>
      <trkpt lat="40.327733" lon="-4.738633">
        <ele>1831.0</ele>
        <time>2015-03-15T14:35:21Z</time>
      </trkpt>
      <trkpt lat="40.327800" lon="-4.738500">
        <ele>1829.0</ele>
        <time>2015-03-15T14:35:22Z</time>
      </trkpt>
      <trkpt lat="40.327850" lon="-4.738383">
        <ele>1827.0</ele>
        <time>2015-03-15T14:35:23Z</time>
      </trkpt>
      <trkpt lat="40.327917" lon="-4.738250">
        <ele>1824.0</ele>
        <time>2015-03-15T14:35:24Z</time>
      </trkpt>
      <trkpt lat="40.327983" lon="-4.738133">
        <ele>1822.0</ele>
        <time>2015-03-15T14:35:25Z</time>
      </trkpt>
      <trkpt lat="40.328067" lon="-4.738000">
        <ele>1821.0</ele>
        <time>2015-03-15T14:35:26Z</time>
      </trkpt>
      <trkpt lat="40.328133" lon="-4.737900">
        <ele>1819.0</ele>
        <time>2015-03-15T14:35:27Z</time>
      </trkpt>
      <trkpt lat="40.328200" lon="-4.737800">
        <ele>1817.0</ele>
        <time>2015-03-15T14:35:28Z</time>
      </trkpt>
      <trkpt lat="40.328267" lon="-4.737700">
        <ele>1815.0</ele>
        <time>2015-03-15T14:35:29Z</time>
      </trkpt>
      <trkpt lat="40.328333" lon="-4.737600">
        <ele>1812.0</ele>
        <time>2015-03-15T14:35:30Z</time>
      </trkpt>
      <trkpt lat="40.328400" lon="-4.737500">
        <ele>1809.0</ele>
        <time>2015-03-15T14:35:31Z</time>
      </trkpt>
      <trkpt lat="40.328467" lon="-4.737383">
        <ele>1806.0</ele>
        <time>2015-03-15T14:35:32Z</time>
      </trkpt>
      <trkpt lat="40.328533" lon="-4.737267">
        <ele>1804.0</ele>
        <time>2015-03-15T14:35:33Z</time>
      </trkpt>
      <trkpt lat="40.328600" lon="-4.737167">
        <ele>1803.0</ele>
        <time>2015-03-15T14:35:34Z</time>
      </trkpt>
      <trkpt lat="40.328667" lon="-4.737050">
        <ele>1802.0</ele>
        <time>2015-03-15T14:35:35Z</time>
      </trkpt>
      <trkpt lat="40.328733" lon="-4.736933">
        <ele>1800.0</ele>
        <time>2015-03-15T14:35:36Z</time>
      </trkpt>
      <trkpt lat="40.328783" lon="-4.736833">
        <ele>1798.0</ele>
        <time>2015-03-15T14:35:37Z</time>
      </trkpt>
      <trkpt lat="40.328850" lon="-4.736700">
        <ele>1796.0</ele>
        <time>2015-03-15T14:35:38Z</time>
      </trkpt>
      <trkpt lat="40.328933" lon="-4.736583">
        <ele>1794.0</ele>
        <time>2015-03-15T14:35:39Z</time>
      </trkpt>
      <trkpt lat="40.329000" lon="-4.736467">
        <ele>1793.0</ele>
        <time>2015-03-15T14:35:40Z</time>
      </trkpt>
      <trkpt lat="40.329083" lon="-4.736333">
        <ele>1792.0</ele>
        <time>2015-03-15T14:35:41Z</time>
      </trkpt>
      <trkpt lat="40.329150" lon="-4.736217">
        <ele>1791.0</ele>
        <time>2015-03-15T14:35:42Z</time>
      </trkpt>
      <trkpt lat="40.329217" lon="-4.736100">
        <ele>1790.0</ele>
        <time>2015-03-15T14:35:43Z</time>
      </trkpt>
      <trkpt lat="40.329283" lon="-4.735983">
        <ele>1789.0</ele>
        <time>2015-03-15T14:35:44Z</time>
      </trkpt>
      <trkpt lat="40.329350" lon="-4.735850">
        <ele>1788.0</ele>
        <time>2015-03-15T14:35:45Z</time>
      </trkpt>
      <trkpt lat="40.329400" lon="-4.735733">
        <ele>1786.0</ele>
        <time>2015-03-15T14:35:46Z</time>
      </trkpt>
      <trkpt lat="40.329467" lon="-4.735600">
        <ele>1785.0</ele>
        <time>2015-03-15T14:35:47Z</time>
      </trkpt>
      <trkpt lat="40.329533" lon="-4.735467">
        <ele>1783.0</ele>
        <time>2015-03-15T14:35:48Z</time>
      </trkpt>
      <trkpt lat="40.329600" lon="-4.735333">
        <ele>1782.0</ele>
        <time>2015-03-15T14:35:49Z</time>
      </trkpt>
      <trkpt lat="40.329650" lon="-4.735200">
        <ele>1781.0</ele>
        <time>2015-03-15T14:35:50Z</time>
      </trkpt>
      <trkpt lat="40.329700" lon="-4.735083">
        <ele>1779.0</ele>
        <time>2015-03-15T14:35:51Z</time>
      </trkpt>
      <trkpt lat="40.329767" lon="-4.734950">
        <ele>1778.0</ele>
        <time>2015-03-15T14:35:52Z</time>
      </trkpt>
      <trkpt lat="40.329833" lon="-4.734833">
        <ele>1777.0</ele>
        <time>2015-03-15T14:35:53Z</time>
      </trkpt>
      <trkpt lat="40.329883" lon="-4.734700">
        <ele>1775.0</ele>
        <time>2015-03-15T14:35:54Z</time>
      </trkpt>
      <trkpt lat="40.329933" lon="-4.734583">
        <ele>1773.0</ele>
        <time>2015-03-15T14:35:55Z</time>
      </trkpt>
      <trkpt lat="40.330000" lon="-4.734450">
        <ele>1770.0</ele>
        <time>2015-03-15T14:35:56Z</time>
      </trkpt>
      <trkpt lat="40.330050" lon="-4.734317">
        <ele>1766.0</ele>
        <time>2015-03-15T14:35:57Z</time>
      </trkpt>
      <trkpt lat="40.330117" lon="-4.734183">
        <ele>1763.0</ele>
        <time>2015-03-15T14:35:58Z</time>
      </trkpt>
      <trkpt lat="40.330183" lon="-4.734050">
        <ele>1761.0</ele>
        <time>2015-03-15T14:35:59Z</time>
      </trkpt>
      <trkpt lat="40.330250" lon="-4.733917">
        <ele>1758.0</ele>
        <time>2015-03-15T14:36:00Z</time>
      </trkpt>
      <trkpt lat="40.330300" lon="-4.733800">
        <ele>1756.0</ele>
        <time>2015-03-15T14:36:01Z</time>
      </trkpt>
      <trkpt lat="40.330367" lon="-4.733667">
        <ele>1754.0</ele>
        <time>2015-03-15T14:36:02Z</time>
      </trkpt>
      <trkpt lat="40.330417" lon="-4.733550">
        <ele>1752.0</ele>
        <time>2015-03-15T14:36:03Z</time>
      </trkpt>
      <trkpt lat="40.330500" lon="-4.733433">
        <ele>1750.0</ele>
        <time>2015-03-15T14:36:04Z</time>
      </trkpt>
      <trkpt lat="40.330567" lon="-4.733317">
        <ele>1747.0</ele>
        <time>2015-03-15T14:36:05Z</time>
      </trkpt>
      <trkpt lat="40.330633" lon="-4.733217">
        <ele>1745.0</ele>
        <time>2015-03-15T14:36:06Z</time>
      </trkpt>
      <trkpt lat="40.330700" lon="-4.733100">
        <ele>1743.0</ele>
        <time>2015-03-15T14:36:07Z</time>
      </trkpt>
      <trkpt lat="40.330767" lon="-4.732983">
        <ele>1741.0</ele>
        <time>2015-03-15T14:36:08Z</time>
      </trkpt>
      <trkpt lat="40.330817" lon="-4.732867">
        <ele>1739.0</ele>
        <time>2015-03-15T14:36:09Z</time>
      </trkpt>
      <trkpt lat="40.330883" lon="-4.732767">
        <ele>1736.0</ele>
        <time>2015-03-15T14:36:10Z</time>
      </trkpt>
      <trkpt lat="40.330950" lon="-4.732650">
        <ele>1733.0</ele>
        <time>2015-03-15T14:36:11Z</time>
      </trkpt>
      <trkpt lat="40.331000" lon="-4.732550">
        <ele>1730.0</ele>
        <time>2015-03-15T14:36:12Z</time>
      </trkpt>
      <trkpt lat="40.331050" lon="-4.732417">
        <ele>1727.0</ele>
        <time>2015-03-15T14:36:13Z</time>
      </trkpt>
      <trkpt lat="40.331117" lon="-4.732300">
        <ele>1724.0</ele>
        <time>2015-03-15T14:36:14Z</time>
      </trkpt>
      <trkpt lat="40.331167" lon="-4.732183">
        <ele>1721.0</ele>
        <time>2015-03-15T14:36:15Z</time>
      </trkpt>
      <trkpt lat="40.331233" lon="-4.732067">
        <ele>1719.0</ele>
        <time>2015-03-15T14:36:16Z</time>
      </trkpt>
      <trkpt lat="40.331283" lon="-4.731950">
        <ele>1716.0</ele>
        <time>2015-03-15T14:36:17Z</time>
      </trkpt>
      <trkpt lat="40.331333" lon="-4.731833">
        <ele>1712.0</ele>
        <time>2015-03-15T14:36:18Z</time>
      </trkpt>
      <trkpt lat="40.331383" lon="-4.731700">
        <ele>1709.0</ele>
        <time>2015-03-15T14:36:19Z</time>
      </trkpt>
      <trkpt lat="40.331417" lon="-4.731550">
        <ele>1707.0</ele>
        <time>2015-03-15T14:36:20Z</time>
      </trkpt>
      <trkpt lat="40.331433" lon="-4.731400">
        <ele>1707.0</ele>
        <time>2015-03-15T14:36:21Z</time>
      </trkpt>
      <trkpt lat="40.331467" lon="-4.731267">
        <ele>1708.0</ele>
        <time>2015-03-15T14:36:22Z</time>
      </trkpt>
      <trkpt lat="40.331483" lon="-4.731150">
        <ele>1709.0</ele>
        <time>2015-03-15T14:36:23Z</time>
      </trkpt>
      <trkpt lat="40.331517" lon="-4.731017">
        <ele>1710.0</ele>
        <time>2015-03-15T14:36:24Z</time>
      </trkpt>
      <trkpt lat="40.331550" lon="-4.730900">
        <ele>1712.0</ele>
        <time>2015-03-15T14:36:25Z</time>
      </trkpt>
      <trkpt lat="40.331567" lon="-4.730783">
        <ele>1714.0</ele>
        <time>2015-03-15T14:36:26Z</time>
      </trkpt>
      <trkpt lat="40.331583" lon="-4.730683">
        <ele>1715.0</ele>
        <time>2015-03-15T14:36:27Z</time>
      </trkpt>
      <trkpt lat="40.331600" lon="-4.730600">
        <ele>1716.0</ele>
        <time>2015-03-15T14:36:28Z</time>
      </trkpt>
      <trkpt lat="40.331600" lon="-4.730517">
        <ele>1715.0</ele>
        <time>2015-03-15T14:36:29Z</time>
      </trkpt>
      <trkpt lat="40.331617" lon="-4.730417">
        <ele>1714.0</ele>
        <time>2015-03-15T14:36:30Z</time>
      </trkpt>
      <trkpt lat="40.331633" lon="-4.730317">
        <ele>1714.0</ele>
        <time>2015-03-15T14:36:31Z</time>
      </trkpt>
      <trkpt lat="40.331683" lon="-4.730200">
        <ele>1713.0</ele>
        <time>2015-03-15T14:36:32Z</time>
      </trkpt>
      <trkpt lat="40.331767" lon="-4.730117">
        <ele>1712.0</ele>
        <time>2015-03-15T14:36:33Z</time>
      </trkpt>
      <trkpt lat="40.331850" lon="-4.730050">
        <ele>1711.0</ele>
        <time>2015-03-15T14:36:34Z</time>
      </trkpt>
      <trkpt lat="40.331950" lon="-4.730000">
        <ele>1710.0</ele>
        <time>2015-03-15T14:36:35Z</time>
      </trkpt>
      <trkpt lat="40.332067" lon="-4.729983">
        <ele>1710.0</ele>
        <time>2015-03-15T14:36:36Z</time>
      </trkpt>
      <trkpt lat="40.332183" lon="-4.729967">
        <ele>1709.0</ele>
        <time>2015-03-15T14:36:37Z</time>
      </trkpt>
      <trkpt lat="40.332283" lon="-4.729950">
        <ele>1708.0</ele>
        <time>2015-03-15T14:36:38Z</time>
      </trkpt>
      <trkpt lat="40.332400" lon="-4.729933">
        <ele>1707.0</ele>
        <time>2015-03-15T14:36:39Z</time>
      </trkpt>
      <trkpt lat="40.332500" lon="-4.729900">
        <ele>1705.0</ele>
        <time>2015-03-15T14:36:40Z</time>
      </trkpt>
      <trkpt lat="40.332600" lon="-4.729867">
        <ele>1703.0</ele>
        <time>2015-03-15T14:36:41Z</time>
      </trkpt>
      <trkpt lat="40.332700" lon="-4.729800">
        <ele>1701.0</ele>
        <time>2015-03-15T14:36:42Z</time>
      </trkpt>
      <trkpt lat="40.332800" lon="-4.729733">
        <ele>1700.0</ele>
        <time>2015-03-15T14:36:43Z</time>
      </trkpt>
      <trkpt lat="40.332900" lon="-4.729667">
        <ele>1699.0</ele>
        <time>2015-03-15T14:36:44Z</time>
      </trkpt>
      <trkpt lat="40.333000" lon="-4.729583">
        <ele>1699.0</ele>
        <time>2015-03-15T14:36:45Z</time>
      </trkpt>
      <trkpt lat="40.333083" lon="-4.729483">
        <ele>1699.0</ele>
        <time>2015-03-15T14:36:46Z</time>
      </trkpt>
      <trkpt lat="40.333150" lon="-4.729400">
        <ele>1699.0</ele>
        <time>2015-03-15T14:36:47Z</time>
      </trkpt>
      <trkpt lat="40.333200" lon="-4.729300">
        <ele>1699.0</ele>
        <time>2015-03-15T14:36:48Z</time>
      </trkpt>
      <trkpt lat="40.333233" lon="-4.729217">
        <ele>1699.0</ele>
        <time>2015-03-15T14:36:49Z</time>
      </trkpt>
      <trkpt lat="40.333283" lon="-4.729117">
        <ele>1698.0</ele>
        <time>2015-03-15T14:36:50Z</time>
      </trkpt>
      <trkpt lat="40.333333" lon="-4.729000">
        <ele>1697.0</ele>
        <time>2015-03-15T14:36:51Z</time>
      </trkpt>
      <trkpt lat="40.333383" lon="-4.728883">
        <ele>1697.0</ele>
        <time>2015-03-15T14:36:52Z</time>
      </trkpt>
      <trkpt lat="40.333433" lon="-4.728783">
        <ele>1697.0</ele>
        <time>2015-03-15T14:36:53Z</time>
      </trkpt>
      <trkpt lat="40.333467" lon="-4.728667">
        <ele>1698.0</ele>
        <time>2015-03-15T14:36:54Z</time>
      </trkpt>
      <trkpt lat="40.333517" lon="-4.728550">
        <ele>1699.0</ele>
        <time>2015-03-15T14:36:55Z</time>
      </trkpt>
      <trkpt lat="40.333567" lon="-4.728450">
        <ele>1700.0</ele>
        <time>2015-03-15T14:36:56Z</time>
      </trkpt>
      <trkpt lat="40.333617" lon="-4.728350">
        <ele>1701.0</ele>
        <time>2015-03-15T14:36:57Z</time>
      </trkpt>
      <trkpt lat="40.333650" lon="-4.728250">
        <ele>1702.0</ele>
        <time>2015-03-15T14:36:58Z</time>
      </trkpt>
      <trkpt lat="40.333700" lon="-4.728133">
        <ele>1703.0</ele>
        <time>2015-03-15T14:36:59Z</time>
      </trkpt>
      <trkpt lat="40.333750" lon="-4.728033">
        <ele>1704.0</ele>
        <time>2015-03-15T14:37:00Z</time>
      </trkpt>
      <trkpt lat="40.333833" lon="-4.727933">
        <ele>1706.0</ele>
        <time>2015-03-15T14:37:01Z</time>
      </trkpt>
      <trkpt lat="40.333933" lon="-4.727850">
        <ele>1706.0</ele>
        <time>2015-03-15T14:37:02Z</time>
      </trkpt>
      <trkpt lat="40.334050" lon="-4.727800">
        <ele>1707.0</ele>
        <time>2015-03-15T14:37:03Z</time>
      </trkpt>
      <trkpt lat="40.334183" lon="-4.727783">
        <ele>1708.0</ele>
        <time>2015-03-15T14:37:04Z</time>
      </trkpt>
      <trkpt lat="40.334300" lon="-4.727783">
        <ele>1709.0</ele>
        <time>2015-03-15T14:37:05Z</time>
      </trkpt>
      <trkpt lat="40.334433" lon="-4.727800">
        <ele>1711.0</ele>
        <time>2015-03-15T14:37:06Z</time>
      </trkpt>
      <trkpt lat="40.334550" lon="-4.727867">
        <ele>1712.0</ele>
        <time>2015-03-15T14:37:07Z</time>
      </trkpt>
      <trkpt lat="40.334633" lon="-4.727967">
        <ele>1712.0</ele>
        <time>2015-03-15T14:37:08Z</time>
      </trkpt>
      <trkpt lat="40.334700" lon="-4.728083">
        <ele>1712.0</ele>
        <time>2015-03-15T14:37:09Z</time>
      </trkpt>
      <trkpt lat="40.334733" lon="-4.728200">
        <ele>1711.0</ele>
        <time>2015-03-15T14:37:10Z</time>
      </trkpt>
      <trkpt lat="40.334733" lon="-4.728300">
        <ele>1711.0</ele>
        <time>2015-03-15T14:37:11Z</time>
      </trkpt>
      <trkpt lat="40.334717" lon="-4.728383">
        <ele>1710.0</ele>
        <time>2015-03-15T14:37:12Z</time>
      </trkpt>
      <trkpt lat="40.334683" lon="-4.728433">
        <ele>1707.0</ele>
        <time>2015-03-15T14:37:13Z</time>
      </trkpt>
      <trkpt lat="40.334617" lon="-4.728450">
        <ele>1705.0</ele>
        <time>2015-03-15T14:37:14Z</time>
      </trkpt>
      <trkpt lat="40.334550" lon="-4.728433">
        <ele>1704.0</ele>
        <time>2015-03-15T14:37:15Z</time>
      </trkpt>
      <trkpt lat="40.334500" lon="-4.728367">
        <ele>1704.0</ele>
        <time>2015-03-15T14:37:16Z</time>
      </trkpt>
      <trkpt lat="40.334450" lon="-4.728267">
        <ele>1705.0</ele>
        <time>2015-03-15T14:37:17Z</time>
      </trkpt>
      <trkpt lat="40.334417" lon="-4.728167">
        <ele>1706.0</ele>
        <time>2015-03-15T14:37:18Z</time>
      </trkpt>
      <trkpt lat="40.334400" lon="-4.728067">
        <ele>1709.0</ele>
        <time>2015-03-15T14:37:19Z</time>
      </trkpt>
      <trkpt lat="40.334400" lon="-4.727983">
        <ele>1711.0</ele>
        <time>2015-03-15T14:37:20Z</time>
      </trkpt>
      <trkpt lat="40.334383" lon="-4.727900">
        <ele>1713.0</ele>
        <time>2015-03-15T14:37:21Z</time>
      </trkpt>
      <trkpt lat="40.334367" lon="-4.727817">
        <ele>1713.0</ele>
        <time>2015-03-15T14:37:22Z</time>
      </trkpt>
      <trkpt lat="40.334350" lon="-4.727733">
        <ele>1714.0</ele>
        <time>2015-03-15T14:37:23Z</time>
      </trkpt>
      <trkpt lat="40.334350" lon="-4.727650">
        <ele>1714.0</ele>
        <time>2015-03-15T14:37:24Z</time>
      </trkpt>
      <trkpt lat="40.334350" lon="-4.727550">
        <ele>1714.0</ele>
        <time>2015-03-15T14:37:25Z</time>
      </trkpt>
      <trkpt lat="40.334367" lon="-4.727450">
        <ele>1713.0</ele>
        <time>2015-03-15T14:37:26Z</time>
      </trkpt>
      <trkpt lat="40.334417" lon="-4.727350">
        <ele>1711.0</ele>
        <time>2015-03-15T14:37:27Z</time>
      </trkpt>
      <trkpt lat="40.334467" lon="-4.727250">
        <ele>1708.0</ele>
        <time>2015-03-15T14:37:28Z</time>
      </trkpt>
      <trkpt lat="40.334533" lon="-4.727117">
        <ele>1705.0</ele>
        <time>2015-03-15T14:37:29Z</time>
      </trkpt>
      <trkpt lat="40.334600" lon="-4.726983">
        <ele>1703.0</ele>
        <time>2015-03-15T14:37:30Z</time>
      </trkpt>
      <trkpt lat="40.334650" lon="-4.726850">
        <ele>1701.0</ele>
        <time>2015-03-15T14:37:31Z</time>
      </trkpt>
      <trkpt lat="40.334700" lon="-4.726733">
        <ele>1699.0</ele>
        <time>2015-03-15T14:37:32Z</time>
      </trkpt>
      <trkpt lat="40.334767" lon="-4.726600">
        <ele>1696.0</ele>
        <time>2015-03-15T14:37:33Z</time>
      </trkpt>
      <trkpt lat="40.334817" lon="-4.726467">
        <ele>1693.0</ele>
        <time>2015-03-15T14:37:34Z</time>
      </trkpt>
      <trkpt lat="40.334883" lon="-4.726333">
        <ele>1690.0</ele>
        <time>2015-03-15T14:37:35Z</time>
      </trkpt>
      <trkpt lat="40.334933" lon="-4.726183">
        <ele>1687.0</ele>
        <time>2015-03-15T14:37:36Z</time>
      </trkpt>
      <trkpt lat="40.335000" lon="-4.726033">
        <ele>1686.0</ele>
        <time>2015-03-15T14:37:37Z</time>
      </trkpt>
      <trkpt lat="40.335067" lon="-4.725883">
        <ele>1686.0</ele>
        <time>2015-03-15T14:37:38Z</time>
      </trkpt>
      <trkpt lat="40.335133" lon="-4.725733">
        <ele>1687.0</ele>
        <time>2015-03-15T14:37:39Z</time>
      </trkpt>
      <trkpt lat="40.335200" lon="-4.725600">
        <ele>1688.0</ele>
        <time>2015-03-15T14:37:40Z</time>
      </trkpt>
      <trkpt lat="40.335250" lon="-4.725450">
        <ele>1689.0</ele>
        <time>2015-03-15T14:37:41Z</time>
      </trkpt>
      <trkpt lat="40.335300" lon="-4.725317">
        <ele>1692.0</ele>
        <time>2015-03-15T14:37:42Z</time>
      </trkpt>
      <trkpt lat="40.335317" lon="-4.725183">
        <ele>1695.0</ele>
        <time>2015-03-15T14:37:43Z</time>
      </trkpt>
      <trkpt lat="40.335300" lon="-4.725083">
        <ele>1697.0</ele>
        <time>2015-03-15T14:37:44Z</time>
      </trkpt>
      <trkpt lat="40.335283" lon="-4.725017">
        <ele>1699.0</ele>
        <time>2015-03-15T14:37:45Z</time>
      </trkpt>
      <trkpt lat="40.335250" lon="-4.724933">
        <ele>1701.0</ele>
        <time>2015-03-15T14:37:46Z</time>
      </trkpt>
      <trkpt lat="40.335250" lon="-4.724850">
        <ele>1704.0</ele>
        <time>2015-03-15T14:37:47Z</time>
      </trkpt>
      <trkpt lat="40.335233" lon="-4.724750">
        <ele>1707.0</ele>
        <time>2015-03-15T14:37:48Z</time>
      </trkpt>
      <trkpt lat="40.335250" lon="-4.724633">
        <ele>1709.0</ele>
        <time>2015-03-15T14:37:49Z</time>
      </trkpt>
      <trkpt lat="40.335317" lon="-4.724550">
        <ele>1710.0</ele>
        <time>2015-03-15T14:37:50Z</time>
      </trkpt>
      <trkpt lat="40.335417" lon="-4.724483">
        <ele>1711.0</ele>
        <time>2015-03-15T14:37:51Z</time>
      </trkpt>
      <trkpt lat="40.335550" lon="-4.724450">
        <ele>1712.0</ele>
        <time>2015-03-15T14:37:52Z</time>
      </trkpt>
      <trkpt lat="40.335667" lon="-4.724450">
        <ele>1713.0</ele>
        <time>2015-03-15T14:37:53Z</time>
      </trkpt>
      <trkpt lat="40.335767" lon="-4.724517">
        <ele>1715.0</ele>
        <time>2015-03-15T14:37:54Z</time>
      </trkpt>
      <trkpt lat="40.335850" lon="-4.724617">
        <ele>1716.0</ele>
        <time>2015-03-15T14:37:55Z</time>
      </trkpt>
      <trkpt lat="40.335917" lon="-4.724750">
        <ele>1718.0</ele>
        <time>2015-03-15T14:37:56Z</time>
      </trkpt>
      <trkpt lat="40.335967" lon="-4.724900">
        <ele>1722.0</ele>
        <time>2015-03-15T14:37:57Z</time>
      </trkpt>
      <trkpt lat="40.335983" lon="-4.725050">
        <ele>1728.0</ele>
        <time>2015-03-15T14:37:58Z</time>
      </trkpt>
      <trkpt lat="40.336017" lon="-4.725150">
        <ele>1733.0</ele>
        <time>2015-03-15T14:37:59Z</time>
      </trkpt>
      <trkpt lat="40.336067" lon="-4.725250">
        <ele>1736.0</ele>
        <time>2015-03-15T14:38:00Z</time>
      </trkpt>
      <trkpt lat="40.336117" lon="-4.725317">
        <ele>1739.0</ele>
        <time>2015-03-15T14:38:01Z</time>
      </trkpt>
      <trkpt lat="40.336150" lon="-4.725383">
        <ele>1741.0</ele>
        <time>2015-03-15T14:38:02Z</time>
      </trkpt>
      <trkpt lat="40.336167" lon="-4.725450">
        <ele>1742.0</ele>
        <time>2015-03-15T14:38:03Z</time>
      </trkpt>
      <trkpt lat="40.336150" lon="-4.725483">
        <ele>1740.0</ele>
        <time>2015-03-15T14:38:04Z</time>
      </trkpt>
      <trkpt lat="40.336083" lon="-4.725517">
        <ele>1738.0</ele>
        <time>2015-03-15T14:38:05Z</time>
      </trkpt>
      <trkpt lat="40.336033" lon="-4.725500">
        <ele>1739.0</ele>
        <time>2015-03-15T14:38:06Z</time>
      </trkpt>
      <trkpt lat="40.335967" lon="-4.725483">
        <ele>1741.0</ele>
        <time>2015-03-15T14:38:07Z</time>
      </trkpt>
      <trkpt lat="40.335917" lon="-4.725450">
        <ele>1742.0</ele>
        <time>2015-03-15T14:38:08Z</time>
      </trkpt>
      <trkpt lat="40.335867" lon="-4.725433">
        <ele>1743.0</ele>
        <time>2015-03-15T14:38:09Z</time>
      </trkpt>
      <trkpt lat="40.335817" lon="-4.725417">
        <ele>1745.0</ele>
        <time>2015-03-15T14:38:10Z</time>
      </trkpt>
      <trkpt lat="40.335767" lon="-4.725367">
        <ele>1747.0</ele>
        <time>2015-03-15T14:38:11Z</time>
      </trkpt>
      <trkpt lat="40.335750" lon="-4.725283">
        <ele>1749.0</ele>
        <time>2015-03-15T14:38:12Z</time>
      </trkpt>
      <trkpt lat="40.335767" lon="-4.725183">
        <ele>1750.0</ele>
        <time>2015-03-15T14:38:13Z</time>
      </trkpt>
      <trkpt lat="40.335800" lon="-4.725083">
        <ele>1752.0</ele>
        <time>2015-03-15T14:38:14Z</time>
      </trkpt>
      <trkpt lat="40.335833" lon="-4.725000">
        <ele>1754.0</ele>
        <time>2015-03-15T14:38:15Z</time>
      </trkpt>
      <trkpt lat="40.335883" lon="-4.724917">
        <ele>1755.0</ele>
        <time>2015-03-15T14:38:16Z</time>
      </trkpt>
      <trkpt lat="40.335933" lon="-4.724833">
        <ele>1757.0</ele>
        <time>2015-03-15T14:38:17Z</time>
      </trkpt>
      <trkpt lat="40.336000" lon="-4.724767">
        <ele>1757.0</ele>
        <time>2015-03-15T14:38:18Z</time>
      </trkpt>
      <trkpt lat="40.336083" lon="-4.724700">
        <ele>1757.0</ele>
        <time>2015-03-15T14:38:19Z</time>
      </trkpt>
      <trkpt lat="40.336183" lon="-4.724650">
        <ele>1757.0</ele>
        <time>2015-03-15T14:38:20Z</time>
      </trkpt>
      <trkpt lat="40.336333" lon="-4.724617">
        <ele>1756.0</ele>
        <time>2015-03-15T14:38:21Z</time>
      </trkpt>
      <trkpt lat="40.336483" lon="-4.724633">
        <ele>1758.0</ele>
        <time>2015-03-15T14:38:22Z</time>
      </trkpt>
      <trkpt lat="40.336617" lon="-4.724667">
        <ele>1762.0</ele>
        <time>2015-03-15T14:38:23Z</time>
      </trkpt>
      <trkpt lat="40.336750" lon="-4.724717">
        <ele>1768.0</ele>
        <time>2015-03-15T14:38:24Z</time>
      </trkpt>
      <trkpt lat="40.336850" lon="-4.724767">
        <ele>1774.0</ele>
        <time>2015-03-15T14:38:25Z</time>
      </trkpt>
      <trkpt lat="40.336950" lon="-4.724800">
        <ele>1780.0</ele>
        <time>2015-03-15T14:38:26Z</time>
      </trkpt>
      <trkpt lat="40.337033" lon="-4.724833">
        <ele>1783.0</ele>
        <time>2015-03-15T14:38:27Z</time>
      </trkpt>
      <trkpt lat="40.337133" lon="-4.724867">
        <ele>1784.0</ele>
        <time>2015-03-15T14:38:28Z</time>
      </trkpt>
      <trkpt lat="40.337217" lon="-4.724917">
        <ele>1784.0</ele>
        <time>2015-03-15T14:38:29Z</time>
      </trkpt>
      <trkpt lat="40.337300" lon="-4.724983">
        <ele>1782.0</ele>
        <time>2015-03-15T14:38:30Z</time>
      </trkpt>
      <trkpt lat="40.337367" lon="-4.725067">
        <ele>1781.0</ele>
        <time>2015-03-15T14:38:31Z</time>
      </trkpt>
      <trkpt lat="40.337400" lon="-4.725183">
        <ele>1779.0</ele>
        <time>2015-03-15T14:38:32Z</time>
      </trkpt>
      <trkpt lat="40.337400" lon="-4.725300">
        <ele>1779.0</ele>
        <time>2015-03-15T14:38:33Z</time>
      </trkpt>
      <trkpt lat="40.337400" lon="-4.725367">
        <ele>1781.0</ele>
        <time>2015-03-15T14:38:34Z</time>
      </trkpt>
      <trkpt lat="40.337400" lon="-4.725400">
        <ele>1782.0</ele>
        <time>2015-03-15T14:38:35Z</time>
      </trkpt>
      <trkpt lat="40.337383" lon="-4.725417">
        <ele>1781.0</ele>
        <time>2015-03-15T14:38:36Z</time>
      </trkpt>
      <trkpt lat="40.337367" lon="-4.725450">
        <ele>1780.0</ele>
        <time>2015-03-15T14:38:37Z</time>
      </trkpt>
      <trkpt lat="40.337350" lon="-4.725483">
        <ele>1779.0</ele>
        <time>2015-03-15T14:38:38Z</time>
      </trkpt>
      <trkpt lat="40.337300" lon="-4.725517">
        <ele>1778.0</ele>
        <time>2015-03-15T14:38:39Z</time>
      </trkpt>
      <trkpt lat="40.337250" lon="-4.725533">
        <ele>1778.0</ele>
        <time>2015-03-15T14:38:40Z</time>
      </trkpt>
      <trkpt lat="40.337217" lon="-4.725550">
        <ele>1781.0</ele>
        <time>2015-03-15T14:38:41Z</time>
      </trkpt>
      <trkpt lat="40.337183" lon="-4.725583">
        <ele>1784.0</ele>
        <time>2015-03-15T14:38:42Z</time>
      </trkpt>
      <trkpt lat="40.337150" lon="-4.725617">
        <ele>1785.0</ele>
        <time>2015-03-15T14:38:43Z</time>
      </trkpt>
      <trkpt lat="40.337117" lon="-4.725650">
        <ele>1786.0</ele>
        <time>2015-03-15T14:38:44Z</time>
      </trkpt>
      <trkpt lat="40.337083" lon="-4.725667">
        <ele>1787.0</ele>
        <time>2015-03-15T14:38:45Z</time>
      </trkpt>
      <trkpt lat="40.337050" lon="-4.725650">
        <ele>1788.0</ele>
        <time>2015-03-15T14:38:46Z</time>
      </trkpt>
      <trkpt lat="40.337000" lon="-4.725617">
        <ele>1788.0</ele>
        <time>2015-03-15T14:38:47Z</time>
      </trkpt>
      <trkpt lat="40.336967" lon="-4.725567">
        <ele>1789.0</ele>
        <time>2015-03-15T14:38:48Z</time>
      </trkpt>
      <trkpt lat="40.336933" lon="-4.725500">
        <ele>1789.0</ele>
        <time>2015-03-15T14:38:49Z</time>
      </trkpt>
      <trkpt lat="40.336900" lon="-4.725433">
        <ele>1790.0</ele>
        <time>2015-03-15T14:38:50Z</time>
      </trkpt>
      <trkpt lat="40.336867" lon="-4.725333">
        <ele>1793.0</ele>
        <time>2015-03-15T14:38:51Z</time>
      </trkpt>
      <trkpt lat="40.336850" lon="-4.725233">
        <ele>1796.0</ele>
        <time>2015-03-15T14:38:52Z</time>
      </trkpt>
      <trkpt lat="40.336850" lon="-4.725133">
        <ele>1801.0</ele>
        <time>2015-03-15T14:38:53Z</time>
      </trkpt>
      <trkpt lat="40.336867" lon="-4.725050">
        <ele>1805.0</ele>
        <time>2015-03-15T14:38:54Z</time>
      </trkpt>
      <trkpt lat="40.336883" lon="-4.724983">
        <ele>1808.0</ele>
        <time>2015-03-15T14:38:55Z</time>
      </trkpt>
      <trkpt lat="40.336917" lon="-4.724900">
        <ele>1810.0</ele>
        <time>2015-03-15T14:38:56Z</time>
      </trkpt>
      <trkpt lat="40.336950" lon="-4.724817">
        <ele>1812.0</ele>
        <time>2015-03-15T14:38:57Z</time>
      </trkpt>
      <trkpt lat="40.336983" lon="-4.724733">
        <ele>1812.0</ele>
        <time>2015-03-15T14:38:58Z</time>
      </trkpt>
      <trkpt lat="40.337033" lon="-4.724617">
        <ele>1812.0</ele>
        <time>2015-03-15T14:38:59Z</time>
      </trkpt>
      <trkpt lat="40.337100" lon="-4.724500">
        <ele>1813.0</ele>
        <time>2015-03-15T14:39:00Z</time>
      </trkpt>
      <trkpt lat="40.337183" lon="-4.724383">
        <ele>1814.0</ele>
        <time>2015-03-15T14:39:01Z</time>
      </trkpt>
      <trkpt lat="40.337283" lon="-4.724283">
        <ele>1816.0</ele>
        <time>2015-03-15T14:39:02Z</time>
      </trkpt>
      <trkpt lat="40.337400" lon="-4.724183">
        <ele>1817.0</ele>
        <time>2015-03-15T14:39:03Z</time>
      </trkpt>
      <trkpt lat="40.337533" lon="-4.724117">
        <ele>1818.0</ele>
        <time>2015-03-15T14:39:04Z</time>
      </trkpt>
      <trkpt lat="40.337683" lon="-4.724100">
        <ele>1820.0</ele>
        <time>2015-03-15T14:39:05Z</time>
      </trkpt>
      <trkpt lat="40.337833" lon="-4.724133">
        <ele>1822.0</ele>
        <time>2015-03-15T14:39:06Z</time>
      </trkpt>
      <trkpt lat="40.337967" lon="-4.724183">
        <ele>1825.0</ele>
        <time>2015-03-15T14:39:07Z</time>
      </trkpt>
      <trkpt lat="40.338083" lon="-4.724267">
        <ele>1828.0</ele>
        <time>2015-03-15T14:39:08Z</time>
      </trkpt>
      <trkpt lat="40.338150" lon="-4.724367">
        <ele>1832.0</ele>
        <time>2015-03-15T14:39:09Z</time>
      </trkpt>
      <trkpt lat="40.338217" lon="-4.724433">
        <ele>1834.0</ele>
        <time>2015-03-15T14:39:10Z</time>
      </trkpt>
      <trkpt lat="40.338267" lon="-4.724517">
        <ele>1835.0</ele>
        <time>2015-03-15T14:39:11Z</time>
      </trkpt>
      <trkpt lat="40.338350" lon="-4.724583">
        <ele>1835.0</ele>
        <time>2015-03-15T14:39:12Z</time>
      </trkpt>
      <trkpt lat="40.338417" lon="-4.724683">
        <ele>1835.0</ele>
        <time>2015-03-15T14:39:13Z</time>
      </trkpt>
      <trkpt lat="40.338500" lon="-4.724767">
        <ele>1836.0</ele>
        <time>2015-03-15T14:39:14Z</time>
      </trkpt>
      <trkpt lat="40.338533" lon="-4.724867">
        <ele>1837.0</ele>
        <time>2015-03-15T14:39:15Z</time>
      </trkpt>
      <trkpt lat="40.338550" lon="-4.724950">
        <ele>1837.0</ele>
        <time>2015-03-15T14:39:16Z</time>
      </trkpt>
      <trkpt lat="40.338550" lon="-4.725067">
        <ele>1837.0</ele>
        <time>2015-03-15T14:39:17Z</time>
      </trkpt>
      <trkpt lat="40.338550" lon="-4.725183">
        <ele>1837.0</ele>
        <time>2015-03-15T14:39:18Z</time>
      </trkpt>
      <trkpt lat="40.338533" lon="-4.725300">
        <ele>1839.0</ele>
        <time>2015-03-15T14:39:19Z</time>
      </trkpt>
      <trkpt lat="40.338517" lon="-4.725417">
        <ele>1840.0</ele>
        <time>2015-03-15T14:39:20Z</time>
      </trkpt>
      <trkpt lat="40.338500" lon="-4.725500">
        <ele>1841.0</ele>
        <time>2015-03-15T14:39:21Z</time>
      </trkpt>
      <trkpt lat="40.338467" lon="-4.725567">
        <ele>1842.0</ele>
        <time>2015-03-15T14:39:22Z</time>
      </trkpt>
      <trkpt lat="40.338433" lon="-4.725617">
        <ele>1844.0</ele>
        <time>2015-03-15T14:39:23Z</time>
      </trkpt>
      <trkpt lat="40.338400" lon="-4.725633">
        <ele>1845.0</ele>
        <time>2015-03-15T14:39:24Z</time>
      </trkpt>
      <trkpt lat="40.338350" lon="-4.725633">
        <ele>1846.0</ele>
        <time>2015-03-15T14:39:25Z</time>
      </trkpt>
      <trkpt lat="40.338317" lon="-4.725617">
        <ele>1846.0</ele>
        <time>2015-03-15T14:39:26Z</time>
      </trkpt>
      <trkpt lat="40.338283" lon="-4.725600">
        <ele>1846.0</ele>
        <time>2015-03-15T14:39:27Z</time>
      </trkpt>
      <trkpt lat="40.338233" lon="-4.725583">
        <ele>1845.0</ele>
        <time>2015-03-15T14:39:28Z</time>
      </trkpt>
      <trkpt lat="40.338167" lon="-4.725567">
        <ele>1845.0</ele>
        <time>2015-03-15T14:39:29Z</time>
      </trkpt>
      <trkpt lat="40.338083" lon="-4.725533">
        <ele>1846.0</ele>
        <time>2015-03-15T14:39:30Z</time>
      </trkpt>
      <trkpt lat="40.338017" lon="-4.725467">
        <ele>1847.0</ele>
        <time>2015-03-15T14:39:31Z</time>
      </trkpt>
      <trkpt lat="40.337967" lon="-4.725367">
        <ele>1849.0</ele>
        <time>2015-03-15T14:39:32Z</time>
      </trkpt>
      <trkpt lat="40.337933" lon="-4.725267">
        <ele>1852.0</ele>
        <time>2015-03-15T14:39:33Z</time>
      </trkpt>
      <trkpt lat="40.337900" lon="-4.725183">
        <ele>1855.0</ele>
        <time>2015-03-15T14:39:34Z</time>
      </trkpt>
      <trkpt lat="40.337867" lon="-4.725100">
        <ele>1859.0</ele>
        <time>2015-03-15T14:39:35Z</time>
      </trkpt>
      <trkpt lat="40.337850" lon="-4.725000">
        <ele>1863.0</ele>
        <time>2015-03-15T14:39:36Z</time>
      </trkpt>
      <trkpt lat="40.337850" lon="-4.724900">
        <ele>1865.0</ele>
        <time>2015-03-15T14:39:37Z</time>
      </trkpt>
      <trkpt lat="40.337833" lon="-4.724817">
        <ele>1868.0</ele>
        <time>2015-03-15T14:39:38Z</time>
      </trkpt>
      <trkpt lat="40.337833" lon="-4.724700">
        <ele>1871.0</ele>
        <time>2015-03-15T14:39:39Z</time>
      </trkpt>
      <trkpt lat="40.337817" lon="-4.724600">
        <ele>1875.0</ele>
        <time>2015-03-15T14:39:40Z</time>
      </trkpt>
      <trkpt lat="40.337800" lon="-4.724467">
        <ele>1878.0</ele>
        <time>2015-03-15T14:39:41Z</time>
      </trkpt>
      <trkpt lat="40.337783" lon="-4.724350">
        <ele>1882.0</ele>
        <time>2015-03-15T14:39:42Z</time>
      </trkpt>
      <trkpt lat="40.337783" lon="-4.724233">
        <ele>1886.0</ele>
        <time>2015-03-15T14:39:43Z</time>
      </trkpt>
      <trkpt lat="40.337767" lon="-4.724150">
        <ele>1889.0</ele>
        <time>2015-03-15T14:39:44Z</time>
      </trkpt>
      <trkpt lat="40.337750" lon="-4.724083">
        <ele>1890.0</ele>
        <time>2015-03-15T14:39:45Z</time>
      </trkpt>
      <trkpt lat="40.337733" lon="-4.724017">
        <ele>1891.0</ele>
        <time>2015-03-15T14:39:46Z</time>
      </trkpt>
      <trkpt lat="40.337717" lon="-4.723917">
        <ele>1892.0</ele>
        <time>2015-03-15T14:39:47Z</time>
      </trkpt>
      <trkpt lat="40.337733" lon="-4.723817">
        <ele>1892.0</ele>
        <time>2015-03-15T14:39:48Z</time>
      </trkpt>
      <trkpt lat="40.337767" lon="-4.723667">
        <ele>1894.0</ele>
        <time>2015-03-15T14:39:49Z</time>
      </trkpt>
      <trkpt lat="40.337833" lon="-4.723533">
        <ele>1897.0</ele>
        <time>2015-03-15T14:39:50Z</time>
      </trkpt>
      <trkpt lat="40.337900" lon="-4.723417">
        <ele>1900.0</ele>
        <time>2015-03-15T14:39:51Z</time>
      </trkpt>
      <trkpt lat="40.337950" lon="-4.723300">
        <ele>1904.0</ele>
        <time>2015-03-15T14:39:52Z</time>
      </trkpt>
      <trkpt lat="40.337983" lon="-4.723200">
        <ele>1907.0</ele>
        <time>2015-03-15T14:39:53Z</time>
      </trkpt>
      <trkpt lat="40.338000" lon="-4.723100">
        <ele>1908.0</ele>
        <time>2015-03-15T14:39:54Z</time>
      </trkpt>
      <trkpt lat="40.338050" lon="-4.723000">
        <ele>1910.0</ele>
        <time>2015-03-15T14:39:55Z</time>
      </trkpt>
      <trkpt lat="40.338100" lon="-4.722883">
        <ele>1911.0</ele>
        <time>2015-03-15T14:39:56Z</time>
      </trkpt>
      <trkpt lat="40.338200" lon="-4.722783">
        <ele>1911.0</ele>
        <time>2015-03-15T14:39:57Z</time>
      </trkpt>
      <trkpt lat="40.338300" lon="-4.722683">
        <ele>1912.0</ele>
        <time>2015-03-15T14:39:58Z</time>
      </trkpt>
      <trkpt lat="40.338433" lon="-4.722583">
        <ele>1914.0</ele>
        <time>2015-03-15T14:39:59Z</time>
      </trkpt>
      <trkpt lat="40.338550" lon="-4.722500">
        <ele>1917.0</ele>
        <time>2015-03-15T14:40:00Z</time>
      </trkpt>
      <trkpt lat="40.338683" lon="-4.722417">
        <ele>1921.0</ele>
        <time>2015-03-15T14:40:01Z</time>
      </trkpt>
      <trkpt lat="40.338800" lon="-4.722367">
        <ele>1925.0</ele>
        <time>2015-03-15T14:40:02Z</time>
      </trkpt>
      <trkpt lat="40.338917" lon="-4.722317">
        <ele>1929.0</ele>
        <time>2015-03-15T14:40:03Z</time>
      </trkpt>
      <trkpt lat="40.339033" lon="-4.722283">
        <ele>1932.0</ele>
        <time>2015-03-15T14:40:04Z</time>
      </trkpt>
      <trkpt lat="40.339150" lon="-4.722233">
        <ele>1935.0</ele>
        <time>2015-03-15T14:40:05Z</time>
      </trkpt>
      <trkpt lat="40.339267" lon="-4.722183">
        <ele>1937.0</ele>
        <time>2015-03-15T14:40:06Z</time>
      </trkpt>
      <trkpt lat="40.339383" lon="-4.722167">
        <ele>1939.0</ele>
        <time>2015-03-15T14:40:07Z</time>
      </trkpt>
      <trkpt lat="40.339517" lon="-4.722167">
        <ele>1942.0</ele>
        <time>2015-03-15T14:40:08Z</time>
      </trkpt>
      <trkpt lat="40.339617" lon="-4.722217">
        <ele>1943.0</ele>
        <time>2015-03-15T14:40:09Z</time>
      </trkpt>
      <trkpt lat="40.339717" lon="-4.722283">
        <ele>1945.0</ele>
        <time>2015-03-15T14:40:10Z</time>
      </trkpt>
      <trkpt lat="40.339800" lon="-4.722367">
        <ele>1948.0</ele>
        <time>2015-03-15T14:40:11Z</time>
      </trkpt>
      <trkpt lat="40.339850" lon="-4.722450">
        <ele>1950.0</ele>
        <time>2015-03-15T14:40:12Z</time>
      </trkpt>
      <trkpt lat="40.339883" lon="-4.722533">
        <ele>1952.0</ele>
        <time>2015-03-15T14:40:13Z</time>
      </trkpt>
      <trkpt lat="40.339917" lon="-4.722617">
        <ele>1952.0</ele>
        <time>2015-03-15T14:40:14Z</time>
      </trkpt>
      <trkpt lat="40.339917" lon="-4.722717">
        <ele>1953.0</ele>
        <time>2015-03-15T14:40:15Z</time>
      </trkpt>
      <trkpt lat="40.339917" lon="-4.722817">
        <ele>1954.0</ele>
        <time>2015-03-15T14:40:16Z</time>
      </trkpt>
      <trkpt lat="40.339900" lon="-4.722900">
        <ele>1956.0</ele>
        <time>2015-03-15T14:40:17Z</time>
      </trkpt>
      <trkpt lat="40.339867" lon="-4.722967">
        <ele>1956.0</ele>
        <time>2015-03-15T14:40:18Z</time>
      </trkpt>
      <trkpt lat="40.339850" lon="-4.723000">
        <ele>1957.0</ele>
        <time>2015-03-15T14:40:19Z</time>
      </trkpt>
      <trkpt lat="40.339800" lon="-4.723033">
        <ele>1958.0</ele>
        <time>2015-03-15T14:40:20Z</time>
      </trkpt>
      <trkpt lat="40.339750" lon="-4.723067">
        <ele>1960.0</ele>
        <time>2015-03-15T14:40:21Z</time>
      </trkpt>
      <trkpt lat="40.339700" lon="-4.723067">
        <ele>1961.0</ele>
        <time>2015-03-15T14:40:22Z</time>
      </trkpt>
      <trkpt lat="40.339633" lon="-4.723050">
        <ele>1963.0</ele>
        <time>2015-03-15T14:40:23Z</time>
      </trkpt>
      <trkpt lat="40.339567" lon="-4.723033">
        <ele>1967.0</ele>
        <time>2015-03-15T14:40:24Z</time>
      </trkpt>
      <trkpt lat="40.339517" lon="-4.722983">
        <ele>1971.0</ele>
        <time>2015-03-15T14:40:25Z</time>
      </trkpt>
      <trkpt lat="40.339483" lon="-4.722933">
        <ele>1975.0</ele>
        <time>2015-03-15T14:40:26Z</time>
      </trkpt>
      <trkpt lat="40.339450" lon="-4.722867">
        <ele>1977.0</ele>
        <time>2015-03-15T14:40:27Z</time>
      </trkpt>
      <trkpt lat="40.339400" lon="-4.722767">
        <ele>1980.0</ele>
        <time>2015-03-15T14:40:28Z</time>
      </trkpt>
      <trkpt lat="40.339367" lon="-4.722667">
        <ele>1983.0</ele>
        <time>2015-03-15T14:40:29Z</time>
      </trkpt>
      <trkpt lat="40.339333" lon="-4.722550">
        <ele>1987.0</ele>
        <time>2015-03-15T14:40:30Z</time>
      </trkpt>
      <trkpt lat="40.339317" lon="-4.722433">
        <ele>1991.0</ele>
        <time>2015-03-15T14:40:31Z</time>
      </trkpt>
      <trkpt lat="40.339333" lon="-4.722317">
        <ele>1996.0</ele>
        <time>2015-03-15T14:40:32Z</time>
      </trkpt>
      <trkpt lat="40.339367" lon="-4.722200">
        <ele>2000.0</ele>
        <time>2015-03-15T14:40:33Z</time>
      </trkpt>
      <trkpt lat="40.339400" lon="-4.722083">
        <ele>2004.0</ele>
        <time>2015-03-15T14:40:34Z</time>
      </trkpt>
      <trkpt lat="40.339450" lon="-4.721950">
        <ele>2007.0</ele>
        <time>2015-03-15T14:40:35Z</time>
      </trkpt>
      <trkpt lat="40.339483" lon="-4.721817">
        <ele>2010.0</ele>
        <time>2015-03-15T14:40:36Z</time>
      </trkpt>
      <trkpt lat="40.339517" lon="-4.721667">
        <ele>2014.0</ele>
        <time>2015-03-15T14:40:37Z</time>
      </trkpt>
      <trkpt lat="40.339583" lon="-4.721533">
        <ele>2018.0</ele>
        <time>2015-03-15T14:40:38Z</time>
      </trkpt>
      <trkpt lat="40.339667" lon="-4.721417">
        <ele>2021.0</ele>
        <time>2015-03-15T14:40:39Z</time>
      </trkpt>
      <trkpt lat="40.339783" lon="-4.721317">
        <ele>2024.0</ele>
        <time>2015-03-15T14:40:40Z</time>
      </trkpt>
      <trkpt lat="40.339900" lon="-4.721250">
        <ele>2027.0</ele>
        <time>2015-03-15T14:40:41Z</time>
      </trkpt>
      <trkpt lat="40.340017" lon="-4.721200">
        <ele>2032.0</ele>
        <time>2015-03-15T14:40:42Z</time>
      </trkpt>
      <trkpt lat="40.340117" lon="-4.721167">
        <ele>2036.0</ele>
        <time>2015-03-15T14:40:43Z</time>
      </trkpt>
      <trkpt lat="40.340217" lon="-4.721150">
        <ele>2040.0</ele>
        <time>2015-03-15T14:40:44Z</time>
      </trkpt>
      <trkpt lat="40.340317" lon="-4.721150">
        <ele>2041.0</ele>
        <time>2015-03-15T14:40:45Z</time>
      </trkpt>
      <trkpt lat="40.340417" lon="-4.721133">
        <ele>2041.0</ele>
        <time>2015-03-15T14:40:46Z</time>
      </trkpt>
      <trkpt lat="40.340517" lon="-4.721150">
        <ele>2040.0</ele>
        <time>2015-03-15T14:40:47Z</time>
      </trkpt>
      <trkpt lat="40.340633" lon="-4.721200">
        <ele>2039.0</ele>
        <time>2015-03-15T14:40:48Z</time>
      </trkpt>
      <trkpt lat="40.340717" lon="-4.721283">
        <ele>2039.0</ele>
        <time>2015-03-15T14:40:49Z</time>
      </trkpt>
      <trkpt lat="40.340800" lon="-4.721367">
        <ele>2040.0</ele>
        <time>2015-03-15T14:40:50Z</time>
      </trkpt>
      <trkpt lat="40.340850" lon="-4.721450">
        <ele>2042.0</ele>
        <time>2015-03-15T14:40:51Z</time>
      </trkpt>
      <trkpt lat="40.340900" lon="-4.721500">
        <ele>2044.0</ele>
        <time>2015-03-15T14:40:52Z</time>
      </trkpt>
      <trkpt lat="40.340950" lon="-4.721550">
        <ele>2043.0</ele>
        <time>2015-03-15T14:40:53Z</time>
      </trkpt>
      <trkpt lat="40.341000" lon="-4.721583">
        <ele>2042.0</ele>
        <time>2015-03-15T14:40:54Z</time>
      </trkpt>
      <trkpt lat="40.341050" lon="-4.721633">
        <ele>2039.0</ele>
        <time>2015-03-15T14:40:55Z</time>
      </trkpt>
      <trkpt lat="40.341083" lon="-4.721717">
        <ele>2036.0</ele>
        <time>2015-03-15T14:40:56Z</time>
      </trkpt>
      <trkpt lat="40.341100" lon="-4.721817">
        <ele>2033.0</ele>
        <time>2015-03-15T14:40:57Z</time>
      </trkpt>
      <trkpt lat="40.341067" lon="-4.721900">
        <ele>2032.0</ele>
        <time>2015-03-15T14:40:58Z</time>
      </trkpt>
      <trkpt lat="40.341017" lon="-4.721933">
        <ele>2033.0</ele>
        <time>2015-03-15T14:40:59Z</time>
      </trkpt>
      <trkpt lat="40.340950" lon="-4.721933">
        <ele>2035.0</ele>
        <time>2015-03-15T14:41:00Z</time>
      </trkpt>
      <trkpt lat="40.340900" lon="-4.721900">
        <ele>2037.0</ele>
        <time>2015-03-15T14:41:01Z</time>
      </trkpt>
      <trkpt lat="40.340850" lon="-4.721883">
        <ele>2039.0</ele>
        <time>2015-03-15T14:41:02Z</time>
      </trkpt>
      <trkpt lat="40.340800" lon="-4.721833">
        <ele>2041.0</ele>
        <time>2015-03-15T14:41:03Z</time>
      </trkpt>
      <trkpt lat="40.340750" lon="-4.721800">
        <ele>2042.0</ele>
        <time>2015-03-15T14:41:04Z</time>
      </trkpt>
      <trkpt lat="40.340700" lon="-4.721733">
        <ele>2043.0</ele>
        <time>2015-03-15T14:41:05Z</time>
      </trkpt>
      <trkpt lat="40.340633" lon="-4.721667">
        <ele>2045.0</ele>
        <time>2015-03-15T14:41:06Z</time>
      </trkpt>
      <trkpt lat="40.340567" lon="-4.721583">
        <ele>2047.0</ele>
        <time>2015-03-15T14:41:07Z</time>
      </trkpt>
      <trkpt lat="40.340517" lon="-4.721500">
        <ele>2050.0</ele>
        <time>2015-03-15T14:41:08Z</time>
      </trkpt>
      <trkpt lat="40.340467" lon="-4.721417">
        <ele>2051.0</ele>
        <time>2015-03-15T14:41:09Z</time>
      </trkpt>
      <trkpt lat="40.340433" lon="-4.721317">
        <ele>2053.0</ele>
        <time>2015-03-15T14:41:10Z</time>
      </trkpt>
      <trkpt lat="40.340383" lon="-4.721200">
        <ele>2054.0</ele>
        <time>2015-03-15T14:41:11Z</time>
      </trkpt>
      <trkpt lat="40.340350" lon="-4.721083">
        <ele>2056.0</ele>
        <time>2015-03-15T14:41:12Z</time>
      </trkpt>
      <trkpt lat="40.340317" lon="-4.720983">
        <ele>2057.0</ele>
        <time>2015-03-15T14:41:13Z</time>
      </trkpt>
      <trkpt lat="40.340283" lon="-4.720867">
        <ele>2059.0</ele>
        <time>2015-03-15T14:41:14Z</time>
      </trkpt>
      <trkpt lat="40.340250" lon="-4.720750">
        <ele>2062.0</ele>
        <time>2015-03-15T14:41:15Z</time>
      </trkpt>
      <trkpt lat="40.340250" lon="-4.720633">
        <ele>2064.0</ele>
        <time>2015-03-15T14:41:16Z</time>
      </trkpt>
      <trkpt lat="40.340250" lon="-4.720500">
        <ele>2065.0</ele>
        <time>2015-03-15T14:41:17Z</time>
      </trkpt>
      <trkpt lat="40.340267" lon="-4.720367">
        <ele>2067.0</ele>
        <time>2015-03-15T14:41:18Z</time>
      </trkpt>
      <trkpt lat="40.340300" lon="-4.720217">
        <ele>2067.0</ele>
        <time>2015-03-15T14:41:19Z</time>
      </trkpt>
      <trkpt lat="40.340350" lon="-4.720050">
        <ele>2069.0</ele>
        <time>2015-03-15T14:41:20Z</time>
      </trkpt>
      <trkpt lat="40.340400" lon="-4.719900">
        <ele>2071.0</ele>
        <time>2015-03-15T14:41:21Z</time>
      </trkpt>
      <trkpt lat="40.340467" lon="-4.719767">
        <ele>2074.0</ele>
        <time>2015-03-15T14:41:22Z</time>
      </trkpt>
      <trkpt lat="40.340550" lon="-4.719667">
        <ele>2076.0</ele>
        <time>2015-03-15T14:41:23Z</time>
      </trkpt>
      <trkpt lat="40.340650" lon="-4.719567">
        <ele>2079.0</ele>
        <time>2015-03-15T14:41:24Z</time>
      </trkpt>
      <trkpt lat="40.340767" lon="-4.719500">
        <ele>2080.0</ele>
        <time>2015-03-15T14:41:25Z</time>
      </trkpt>
      <trkpt lat="40.340883" lon="-4.719433">
        <ele>2081.0</ele>
        <time>2015-03-15T14:41:26Z</time>
      </trkpt>
      <trkpt lat="40.341000" lon="-4.719383">
        <ele>2083.0</ele>
        <time>2015-03-15T14:41:27Z</time>
      </trkpt>
      <trkpt lat="40.341100" lon="-4.719383">
        <ele>2085.0</ele>
        <time>2015-03-15T14:41:28Z</time>
      </trkpt>
      <trkpt lat="40.341200" lon="-4.719400">
        <ele>2086.0</ele>
        <time>2015-03-15T14:41:29Z</time>
      </trkpt>
      <trkpt lat="40.341283" lon="-4.719467">
        <ele>2086.0</ele>
        <time>2015-03-15T14:41:30Z</time>
      </trkpt>
      <trkpt lat="40.341333" lon="-4.719550">
        <ele>2087.0</ele>
        <time>2015-03-15T14:41:31Z</time>
      </trkpt>
      <trkpt lat="40.341400" lon="-4.719650">
        <ele>2089.0</ele>
        <time>2015-03-15T14:41:32Z</time>
      </trkpt>
      <trkpt lat="40.341450" lon="-4.719717">
        <ele>2091.0</ele>
        <time>2015-03-15T14:41:33Z</time>
      </trkpt>
      <trkpt lat="40.341483" lon="-4.719783">
        <ele>2092.0</ele>
        <time>2015-03-15T14:41:34Z</time>
      </trkpt>
      <trkpt lat="40.341500" lon="-4.719850">
        <ele>2093.0</ele>
        <time>2015-03-15T14:41:35Z</time>
      </trkpt>
      <trkpt lat="40.341500" lon="-4.719917">
        <ele>2092.0</ele>
        <time>2015-03-15T14:41:36Z</time>
      </trkpt>
      <trkpt lat="40.341483" lon="-4.719983">
        <ele>2091.0</ele>
        <time>2015-03-15T14:41:37Z</time>
      </trkpt>
      <trkpt lat="40.341450" lon="-4.720050">
        <ele>2091.0</ele>
        <time>2015-03-15T14:41:38Z</time>
      </trkpt>
      <trkpt lat="40.341400" lon="-4.720117">
        <ele>2091.0</ele>
        <time>2015-03-15T14:41:39Z</time>
      </trkpt>
      <trkpt lat="40.341333" lon="-4.720167">
        <ele>2092.0</ele>
        <time>2015-03-15T14:41:40Z</time>
      </trkpt>
      <trkpt lat="40.341283" lon="-4.720200">
        <ele>2093.0</ele>
        <time>2015-03-15T14:41:41Z</time>
      </trkpt>
      <trkpt lat="40.341217" lon="-4.720233">
        <ele>2094.0</ele>
        <time>2015-03-15T14:41:42Z</time>
      </trkpt>
      <trkpt lat="40.341150" lon="-4.720250">
        <ele>2096.0</ele>
        <time>2015-03-15T14:41:43Z</time>
      </trkpt>
      <trkpt lat="40.341067" lon="-4.720250">
        <ele>2097.0</ele>
        <time>2015-03-15T14:41:44Z</time>
      </trkpt>
      <trkpt lat="40.341000" lon="-4.720233">
        <ele>2097.0</ele>
        <time>2015-03-15T14:41:45Z</time>
      </trkpt>
      <trkpt lat="40.340917" lon="-4.720200">
        <ele>2099.0</ele>
        <time>2015-03-15T14:41:46Z</time>
      </trkpt>
      <trkpt lat="40.340817" lon="-4.720167">
        <ele>2101.0</ele>
        <time>2015-03-15T14:41:47Z</time>
      </trkpt>
      <trkpt lat="40.340750" lon="-4.720117">
        <ele>2103.0</ele>
        <time>2015-03-15T14:41:48Z</time>
      </trkpt>
      <trkpt lat="40.340667" lon="-4.720067">
        <ele>2107.0</ele>
        <time>2015-03-15T14:41:49Z</time>
      </trkpt>
      <trkpt lat="40.340600" lon="-4.719983">
        <ele>2110.0</ele>
        <time>2015-03-15T14:41:50Z</time>
      </trkpt>
      <trkpt lat="40.340550" lon="-4.719867">
        <ele>2113.0</ele>
        <time>2015-03-15T14:41:51Z</time>
      </trkpt>
      <trkpt lat="40.340517" lon="-4.719733">
        <ele>2116.0</ele>
        <time>2015-03-15T14:41:52Z</time>
      </trkpt>
      <trkpt lat="40.340517" lon="-4.719583">
        <ele>2119.0</ele>
        <time>2015-03-15T14:41:53Z</time>
      </trkpt>
      <trkpt lat="40.340517" lon="-4.719417">
        <ele>2122.0</ele>
        <time>2015-03-15T14:41:54Z</time>
      </trkpt>
      <trkpt lat="40.340533" lon="-4.719267">
        <ele>2125.0</ele>
        <time>2015-03-15T14:41:55Z</time>
      </trkpt>
      <trkpt lat="40.340583" lon="-4.719117">
        <ele>2129.0</ele>
        <time>2015-03-15T14:41:56Z</time>
      </trkpt>
      <trkpt lat="40.340633" lon="-4.719000">
        <ele>2132.0</ele>
        <time>2015-03-15T14:41:57Z</time>
      </trkpt>
      <trkpt lat="40.340717" lon="-4.718900">
        <ele>2134.0</ele>
        <time>2015-03-15T14:41:58Z</time>
      </trkpt>
      <trkpt lat="40.340817" lon="-4.718817">
        <ele>2136.0</ele>
        <time>2015-03-15T14:41:59Z</time>
      </trkpt>
      <trkpt lat="40.340917" lon="-4.718750">
        <ele>2138.0</ele>
        <time>2015-03-15T14:42:00Z</time>
      </trkpt>
      <trkpt lat="40.341017" lon="-4.718700">
        <ele>2141.0</ele>
        <time>2015-03-15T14:42:01Z</time>
      </trkpt>
      <trkpt lat="40.341100" lon="-4.718683">
        <ele>2143.0</ele>
        <time>2015-03-15T14:42:02Z</time>
      </trkpt>
      <trkpt lat="40.341183" lon="-4.718717">
        <ele>2143.0</ele>
        <time>2015-03-15T14:42:03Z</time>
      </trkpt>
      <trkpt lat="40.341267" lon="-4.718767">
        <ele>2144.0</ele>
        <time>2015-03-15T14:42:04Z</time>
      </trkpt>
      <trkpt lat="40.341333" lon="-4.718833">
        <ele>2144.0</ele>
        <time>2015-03-15T14:42:05Z</time>
      </trkpt>
      <trkpt lat="40.341367" lon="-4.718917">
        <ele>2146.0</ele>
        <time>2015-03-15T14:42:06Z</time>
      </trkpt>
      <trkpt lat="40.341383" lon="-4.718983">
        <ele>2147.0</ele>
        <time>2015-03-15T14:42:07Z</time>
      </trkpt>
      <trkpt lat="40.341367" lon="-4.719067">
        <ele>2148.0</ele>
        <time>2015-03-15T14:42:08Z</time>
      </trkpt>
      <trkpt lat="40.341333" lon="-4.719133">
        <ele>2149.0</ele>
        <time>2015-03-15T14:42:09Z</time>
      </trkpt>
      <trkpt lat="40.341283" lon="-4.719167">
        <ele>2150.0</ele>
        <time>2015-03-15T14:42:10Z</time>
      </trkpt>
      <trkpt lat="40.341200" lon="-4.719200">
        <ele>2152.0</ele>
        <time>2015-03-15T14:42:11Z</time>
      </trkpt>
      <trkpt lat="40.341133" lon="-4.719183">
        <ele>2154.0</ele>
        <time>2015-03-15T14:42:12Z</time>
      </trkpt>
      <trkpt lat="40.341050" lon="-4.719150">
        <ele>2157.0</ele>
        <time>2015-03-15T14:42:13Z</time>
      </trkpt>
      <trkpt lat="40.340967" lon="-4.719100">
        <ele>2159.0</ele>
        <time>2015-03-15T14:42:14Z</time>
      </trkpt>
      <trkpt lat="40.340883" lon="-4.719033">
        <ele>2162.0</ele>
        <time>2015-03-15T14:42:15Z</time>
      </trkpt>
      <trkpt lat="40.340800" lon="-4.718950">
        <ele>2164.0</ele>
        <time>2015-03-15T14:42:16Z</time>
      </trkpt>
      <trkpt lat="40.340733" lon="-4.718850">
        <ele>2166.0</ele>
        <time>2015-03-15T14:42:17Z</time>
      </trkpt>
      <trkpt lat="40.340667" lon="-4.718733">
        <ele>2169.0</ele>
        <time>2015-03-15T14:42:18Z</time>
      </trkpt>
      <trkpt lat="40.340617" lon="-4.718600">
        <ele>2172.0</ele>
        <time>2015-03-15T14:42:19Z</time>
      </trkpt>
      <trkpt lat="40.340600" lon="-4.718483">
        <ele>2176.0</ele>
        <time>2015-03-15T14:42:20Z</time>
      </trkpt>
      <trkpt lat="40.340583" lon="-4.718333">
        <ele>2178.0</ele>
        <time>2015-03-15T14:42:21Z</time>
      </trkpt>
      <trkpt lat="40.340600" lon="-4.718183">
        <ele>2179.0</ele>
        <time>2015-03-15T14:42:22Z</time>
      </trkpt>
      <trkpt lat="40.340617" lon="-4.718017">
        <ele>2179.0</ele>
        <time>2015-03-15T14:42:23Z</time>
      </trkpt>
      <trkpt lat="40.340667" lon="-4.717850">
        <ele>2181.0</ele>
        <time>2015-03-15T14:42:24Z</time>
      </trkpt>
      <trkpt lat="40.340733" lon="-4.717700">
        <ele>2183.0</ele>
        <time>2015-03-15T14:42:25Z</time>
      </trkpt>
      <trkpt lat="40.340817" lon="-4.717583">
        <ele>2184.0</ele>
        <time>2015-03-15T14:42:26Z</time>
      </trkpt>
      <trkpt lat="40.340917" lon="-4.717517">
        <ele>2186.0</ele>
        <time>2015-03-15T14:42:27Z</time>
      </trkpt>
      <trkpt lat="40.341017" lon="-4.717500">
        <ele>2187.0</ele>
        <time>2015-03-15T14:42:28Z</time>
      </trkpt>
      <trkpt lat="40.341117" lon="-4.717517">
        <ele>2188.0</ele>
        <time>2015-03-15T14:42:29Z</time>
      </trkpt>
      <trkpt lat="40.341183" lon="-4.717567">
        <ele>2189.0</ele>
        <time>2015-03-15T14:42:30Z</time>
      </trkpt>
      <trkpt lat="40.341233" lon="-4.717667">
        <ele>2190.0</ele>
        <time>2015-03-15T14:42:31Z</time>
      </trkpt>
      <trkpt lat="40.341267" lon="-4.717767">
        <ele>2192.0</ele>
        <time>2015-03-15T14:42:32Z</time>
      </trkpt>
      <trkpt lat="40.341250" lon="-4.717867">
        <ele>2194.0</ele>
        <time>2015-03-15T14:42:33Z</time>
      </trkpt>
      <trkpt lat="40.341233" lon="-4.717950">
        <ele>2198.0</ele>
        <time>2015-03-15T14:42:34Z</time>
      </trkpt>
      <trkpt lat="40.341200" lon="-4.718017">
        <ele>2201.0</ele>
        <time>2015-03-15T14:42:35Z</time>
      </trkpt>
      <trkpt lat="40.341183" lon="-4.718050">
        <ele>2205.0</ele>
        <time>2015-03-15T14:42:36Z</time>
      </trkpt>
      <trkpt lat="40.341150" lon="-4.718083">
        <ele>2207.0</ele>
        <time>2015-03-15T14:42:37Z</time>
      </trkpt>
      <trkpt lat="40.341117" lon="-4.718117">
        <ele>2209.0</ele>
        <time>2015-03-15T14:42:38Z</time>
      </trkpt>
      <trkpt lat="40.341067" lon="-4.718167">
        <ele>2210.0</ele>
        <time>2015-03-15T14:42:39Z</time>
      </trkpt>
      <trkpt lat="40.341000" lon="-4.718200">
        <ele>2212.0</ele>
        <time>2015-03-15T14:42:40Z</time>
      </trkpt>
      <trkpt lat="40.340933" lon="-4.718233">
        <ele>2214.0</ele>
        <time>2015-03-15T14:42:41Z</time>
      </trkpt>
      <trkpt lat="40.340850" lon="-4.718217">
        <ele>2215.0</ele>
        <time>2015-03-15T14:42:42Z</time>
      </trkpt>
      <trkpt lat="40.340750" lon="-4.718183">
        <ele>2217.0</ele>
        <time>2015-03-15T14:42:43Z</time>
      </trkpt>
      <trkpt lat="40.340683" lon="-4.718100">
        <ele>2218.0</ele>
        <time>2015-03-15T14:42:44Z</time>
      </trkpt>
      <trkpt lat="40.340617" lon="-4.718017">
        <ele>2221.0</ele>
        <time>2015-03-15T14:42:45Z</time>
      </trkpt>
      <trkpt lat="40.340567" lon="-4.717933">
        <ele>2222.0</ele>
        <time>2015-03-15T14:42:46Z</time>
      </trkpt>
      <trkpt lat="40.340517" lon="-4.717817">
        <ele>2223.0</ele>
        <time>2015-03-15T14:42:47Z</time>
      </trkpt>
      <trkpt lat="40.340467" lon="-4.717683">
        <ele>2223.0</ele>
        <time>2015-03-15T14:42:48Z</time>
      </trkpt>
      <trkpt lat="40.340450" lon="-4.717517">
        <ele>2224.0</ele>
        <time>2015-03-15T14:42:49Z</time>
      </trkpt>
      <trkpt lat="40.340450" lon="-4.717350">
        <ele>2226.0</ele>
        <time>2015-03-15T14:42:50Z</time>
      </trkpt>
      <trkpt lat="40.340467" lon="-4.717200">
        <ele>2230.0</ele>
        <time>2015-03-15T14:42:51Z</time>
      </trkpt>
      <trkpt lat="40.340517" lon="-4.717083">
        <ele>2233.0</ele>
        <time>2015-03-15T14:42:52Z</time>
      </trkpt>
      <trkpt lat="40.340567" lon="-4.716967">
        <ele>2236.0</ele>
        <time>2015-03-15T14:42:53Z</time>
      </trkpt>
      <trkpt lat="40.340617" lon="-4.716867">
        <ele>2237.0</ele>
        <time>2015-03-15T14:42:54Z</time>
      </trkpt>
      <trkpt lat="40.340667" lon="-4.716750">
        <ele>2238.0</ele>
        <time>2015-03-15T14:42:55Z</time>
      </trkpt>
      <trkpt lat="40.340750" lon="-4.716650">
        <ele>2238.0</ele>
        <time>2015-03-15T14:42:56Z</time>
      </trkpt>
      <trkpt lat="40.340850" lon="-4.716567">
        <ele>2238.0</ele>
        <time>2015-03-15T14:42:57Z</time>
      </trkpt>
      <trkpt lat="40.340950" lon="-4.716550">
        <ele>2238.0</ele>
        <time>2015-03-15T14:42:58Z</time>
      </trkpt>
      <trkpt lat="40.341067" lon="-4.716567">
        <ele>2237.0</ele>
        <time>2015-03-15T14:42:59Z</time>
      </trkpt>
      <trkpt lat="40.341150" lon="-4.716650">
        <ele>2237.0</ele>
        <time>2015-03-15T14:43:00Z</time>
      </trkpt>
      <trkpt lat="40.341200" lon="-4.716750">
        <ele>2239.0</ele>
        <time>2015-03-15T14:43:01Z</time>
      </trkpt>
      <trkpt lat="40.341217" lon="-4.716867">
        <ele>2241.0</ele>
        <time>2015-03-15T14:43:02Z</time>
      </trkpt>
      <trkpt lat="40.341183" lon="-4.716950">
        <ele>2246.0</ele>
        <time>2015-03-15T14:43:03Z</time>
      </trkpt>
      <trkpt lat="40.341150" lon="-4.717000">
        <ele>2250.0</ele>
        <time>2015-03-15T14:43:04Z</time>
      </trkpt>
      <trkpt lat="40.341117" lon="-4.717033">
        <ele>2252.0</ele>
        <time>2015-03-15T14:43:05Z</time>
      </trkpt>
      <trkpt lat="40.341067" lon="-4.717067">
        <ele>2254.0</ele>
        <time>2015-03-15T14:43:06Z</time>
      </trkpt>
      <trkpt lat="40.341000" lon="-4.717100">
        <ele>2254.0</ele>
        <time>2015-03-15T14:43:07Z</time>
      </trkpt>
      <trkpt lat="40.340917" lon="-4.717150">
        <ele>2255.0</ele>
        <time>2015-03-15T14:43:08Z</time>
      </trkpt>
      <trkpt lat="40.340833" lon="-4.717167">
        <ele>2257.0</ele>
        <time>2015-03-15T14:43:09Z</time>
      </trkpt>
      <trkpt lat="40.340767" lon="-4.717183">
        <ele>2259.0</ele>
        <time>2015-03-15T14:43:10Z</time>
      </trkpt>
      <trkpt lat="40.340683" lon="-4.717183">
        <ele>2261.0</ele>
        <time>2015-03-15T14:43:11Z</time>
      </trkpt>
      <trkpt lat="40.340617" lon="-4.717183">
        <ele>2263.0</ele>
        <time>2015-03-15T14:43:12Z</time>
      </trkpt>
      <trkpt lat="40.340533" lon="-4.717183">
        <ele>2266.0</ele>
        <time>2015-03-15T14:43:13Z</time>
      </trkpt>
      <trkpt lat="40.340467" lon="-4.717183">
        <ele>2267.0</ele>
        <time>2015-03-15T14:43:14Z</time>
      </trkpt>
      <trkpt lat="40.340383" lon="-4.717167">
        <ele>2269.0</ele>
        <time>2015-03-15T14:43:15Z</time>
      </trkpt>
      <trkpt lat="40.340283" lon="-4.717150">
        <ele>2270.0</ele>
        <time>2015-03-15T14:43:16Z</time>
      </trkpt>
      <trkpt lat="40.340200" lon="-4.717117">
        <ele>2271.0</ele>
        <time>2015-03-15T14:43:17Z</time>
      </trkpt>
      <trkpt lat="40.340100" lon="-4.717083">
        <ele>2273.0</ele>
        <time>2015-03-15T14:43:18Z</time>
      </trkpt>
      <trkpt lat="40.340000" lon="-4.717033">
        <ele>2275.0</ele>
        <time>2015-03-15T14:43:19Z</time>
      </trkpt>
      <trkpt lat="40.339900" lon="-4.717017">
        <ele>2278.0</ele>
        <time>2015-03-15T14:43:20Z</time>
      </trkpt>
      <trkpt lat="40.339800" lon="-4.717000">
        <ele>2280.0</ele>
        <time>2015-03-15T14:43:21Z</time>
      </trkpt>
      <trkpt lat="40.339700" lon="-4.717000">
        <ele>2282.0</ele>
        <time>2015-03-15T14:43:22Z</time>
      </trkpt>
      <trkpt lat="40.339633" lon="-4.717000">
        <ele>2285.0</ele>
        <time>2015-03-15T14:43:23Z</time>
      </trkpt>
      <trkpt lat="40.339550" lon="-4.717017">
        <ele>2287.0</ele>
        <time>2015-03-15T14:43:24Z</time>
      </trkpt>
      <trkpt lat="40.339467" lon="-4.717017">
        <ele>2288.0</ele>
        <time>2015-03-15T14:43:25Z</time>
      </trkpt>
      <trkpt lat="40.339383" lon="-4.717017">
        <ele>2289.0</ele>
        <time>2015-03-15T14:43:26Z</time>
      </trkpt>
      <trkpt lat="40.339300" lon="-4.717017">
        <ele>2289.0</ele>
        <time>2015-03-15T14:43:27Z</time>
      </trkpt>
      <trkpt lat="40.339200" lon="-4.717017">
        <ele>2291.0</ele>
        <time>2015-03-15T14:43:28Z</time>
      </trkpt>
      <trkpt lat="40.339117" lon="-4.717017">
        <ele>2292.0</ele>
        <time>2015-03-15T14:43:29Z</time>
      </trkpt>
      <trkpt lat="40.339033" lon="-4.717017">
        <ele>2293.0</ele>
        <time>2015-03-15T14:43:30Z</time>
      </trkpt>
      <trkpt lat="40.338950" lon="-4.717000">
        <ele>2294.0</ele>
        <time>2015-03-15T14:43:31Z</time>
      </trkpt>
      <trkpt lat="40.338867" lon="-4.716983">
        <ele>2295.0</ele>
        <time>2015-03-15T14:43:32Z</time>
      </trkpt>
      <trkpt lat="40.338783" lon="-4.716967">
        <ele>2295.0</ele>
        <time>2015-03-15T14:43:33Z</time>
      </trkpt>
      <trkpt lat="40.338683" lon="-4.716967">
        <ele>2296.0</ele>
        <time>2015-03-15T14:43:34Z</time>
      </trkpt>
      <trkpt lat="40.338600" lon="-4.716983">
        <ele>2296.0</ele>
        <time>2015-03-15T14:43:35Z</time>
      </trkpt>
      <trkpt lat="40.338517" lon="-4.717000">
        <ele>2296.0</ele>
        <time>2015-03-15T14:43:36Z</time>
      </trkpt>
      <trkpt lat="40.338433" lon="-4.717017">
        <ele>2298.0</ele>
        <time>2015-03-15T14:43:37Z</time>
      </trkpt>
      <trkpt lat="40.338367" lon="-4.717017">
        <ele>2299.0</ele>
        <time>2015-03-15T14:43:38Z</time>
      </trkpt>
      <trkpt lat="40.338300" lon="-4.717017">
        <ele>2300.0</ele>
        <time>2015-03-15T14:43:39Z</time>
      </trkpt>
      <trkpt lat="40.338250" lon="-4.717017">
        <ele>2300.0</ele>
        <time>2015-03-15T14:43:40Z</time>
      </trkpt>
      <trkpt lat="40.338183" lon="-4.717017">
        <ele>2300.0</ele>
        <time>2015-03-15T14:43:41Z</time>
      </trkpt>
      <trkpt lat="40.338117" lon="-4.717017">
        <ele>2299.0</ele>
        <time>2015-03-15T14:43:42Z</time>
      </trkpt>
      <trkpt lat="40.338050" lon="-4.717017">
        <ele>2298.0</ele>
        <time>2015-03-15T14:43:43Z</time>
      </trkpt>
      <trkpt lat="40.337967" lon="-4.717000">
        <ele>2297.0</ele>
        <time>2015-03-15T14:43:44Z</time>
      </trkpt>
      <trkpt lat="40.337867" lon="-4.717000">
        <ele>2296.0</ele>
        <time>2015-03-15T14:43:45Z</time>
      </trkpt>
      <trkpt lat="40.337783" lon="-4.717000">
        <ele>2296.0</ele>
        <time>2015-03-15T14:43:46Z</time>
      </trkpt>
      <trkpt lat="40.337717" lon="-4.717000">
        <ele>2295.0</ele>
        <time>2015-03-15T14:43:47Z</time>
      </trkpt>
      <trkpt lat="40.337633" lon="-4.717017">
        <ele>2295.0</ele>
        <time>2015-03-15T14:43:48Z</time>
      </trkpt>
      <trkpt lat="40.337550" lon="-4.717033">
        <ele>2295.0</ele>
        <time>2015-03-15T14:43:49Z</time>
      </trkpt>
      <trkpt lat="40.337467" lon="-4.717050">
        <ele>2295.0</ele>
        <time>2015-03-15T14:43:50Z</time>
      </trkpt>
      <trkpt lat="40.337383" lon="-4.717067">
        <ele>2294.0</ele>
        <time>2015-03-15T14:43:51Z</time>
      </trkpt>
      <trkpt lat="40.337300" lon="-4.717100">
        <ele>2294.0</ele>
        <time>2015-03-15T14:43:52Z</time>
      </trkpt>
      <trkpt lat="40.337217" lon="-4.717133">
        <ele>2293.0</ele>
        <time>2015-03-15T14:43:53Z</time>
      </trkpt>
      <trkpt lat="40.337133" lon="-4.717150">
        <ele>2293.0</ele>
        <time>2015-03-15T14:43:54Z</time>
      </trkpt>
      <trkpt lat="40.337050" lon="-4.717183">
        <ele>2293.0</ele>
        <time>2015-03-15T14:43:55Z</time>
      </trkpt>
      <trkpt lat="40.336983" lon="-4.717183">
        <ele>2292.0</ele>
        <time>2015-03-15T14:43:56Z</time>
      </trkpt>
      <trkpt lat="40.336900" lon="-4.717200">
        <ele>2291.0</ele>
        <time>2015-03-15T14:43:57Z</time>
      </trkpt>
      <trkpt lat="40.336833" lon="-4.717233">
        <ele>2290.0</ele>
        <time>2015-03-15T14:43:58Z</time>
      </trkpt>
      <trkpt lat="40.336750" lon="-4.717267">
        <ele>2289.0</ele>
        <time>2015-03-15T14:43:59Z</time>
      </trkpt>
      <trkpt lat="40.336667" lon="-4.717300">
        <ele>2289.0</ele>
        <time>2015-03-15T14:44:00Z</time>
      </trkpt>
      <trkpt lat="40.336583" lon="-4.717300">
        <ele>2289.0</ele>
        <time>2015-03-15T14:44:01Z</time>
      </trkpt>
      <trkpt lat="40.336517" lon="-4.717300">
        <ele>2289.0</ele>
        <time>2015-03-15T14:44:02Z</time>
      </trkpt>
      <trkpt lat="40.336433" lon="-4.717300">
        <ele>2288.0</ele>
        <time>2015-03-15T14:44:03Z</time>
      </trkpt>
      <trkpt lat="40.336367" lon="-4.717317">
        <ele>2287.0</ele>
        <time>2015-03-15T14:44:04Z</time>
      </trkpt>
      <trkpt lat="40.336283" lon="-4.717333">
        <ele>2285.0</ele>
        <time>2015-03-15T14:44:05Z</time>
      </trkpt>
      <trkpt lat="40.336200" lon="-4.717350">
        <ele>2285.0</ele>
        <time>2015-03-15T14:44:06Z</time>
      </trkpt>
      <trkpt lat="40.336117" lon="-4.717350">
        <ele>2284.0</ele>
        <time>2015-03-15T14:44:07Z</time>
      </trkpt>
      <trkpt lat="40.336033" lon="-4.717367">
        <ele>2283.0</ele>
        <time>2015-03-15T14:44:08Z</time>
      </trkpt>
      <trkpt lat="40.335967" lon="-4.717367">
        <ele>2282.0</ele>
        <time>2015-03-15T14:44:09Z</time>
      </trkpt>
      <trkpt lat="40.335900" lon="-4.717400">
        <ele>2281.0</ele>
        <time>2015-03-15T14:44:10Z</time>
      </trkpt>
      <trkpt lat="40.335833" lon="-4.717417">
        <ele>2280.0</ele>
        <time>2015-03-15T14:44:11Z</time>
      </trkpt>
      <trkpt lat="40.335750" lon="-4.717433">
        <ele>2278.0</ele>
        <time>2015-03-15T14:44:12Z</time>
      </trkpt>
      <trkpt lat="40.335683" lon="-4.717433">
        <ele>2276.0</ele>
        <time>2015-03-15T14:44:13Z</time>
      </trkpt>
      <trkpt lat="40.335617" lon="-4.717433">
        <ele>2273.0</ele>
        <time>2015-03-15T14:44:14Z</time>
      </trkpt>
      <trkpt lat="40.335533" lon="-4.717450">
        <ele>2270.0</ele>
        <time>2015-03-15T14:44:15Z</time>
      </trkpt>
      <trkpt lat="40.335467" lon="-4.717467">
        <ele>2266.0</ele>
        <time>2015-03-15T14:44:16Z</time>
      </trkpt>
      <trkpt lat="40.335367" lon="-4.717517">
        <ele>2264.0</ele>
        <time>2015-03-15T14:44:17Z</time>
      </trkpt>
      <trkpt lat="40.335283" lon="-4.717567">
        <ele>2262.0</ele>
        <time>2015-03-15T14:44:18Z</time>
      </trkpt>
      <trkpt lat="40.335200" lon="-4.717583">
        <ele>2261.0</ele>
        <time>2015-03-15T14:44:19Z</time>
      </trkpt>
      <trkpt lat="40.335133" lon="-4.717600">
        <ele>2260.0</ele>
        <time>2015-03-15T14:44:20Z</time>
      </trkpt>
      <trkpt lat="40.335050" lon="-4.717600">
        <ele>2258.0</ele>
        <time>2015-03-15T14:44:21Z</time>
      </trkpt>
      <trkpt lat="40.334983" lon="-4.717600">
        <ele>2255.0</ele>
        <time>2015-03-15T14:44:22Z</time>
      </trkpt>
      <trkpt lat="40.334900" lon="-4.717600">
        <ele>2252.0</ele>
        <time>2015-03-15T14:44:23Z</time>
      </trkpt>
      <trkpt lat="40.334817" lon="-4.717583">
        <ele>2248.0</ele>
        <time>2015-03-15T14:44:24Z</time>
      </trkpt>
      <trkpt lat="40.334733" lon="-4.717583">
        <ele>2246.0</ele>
        <time>2015-03-15T14:44:25Z</time>
      </trkpt>
      <trkpt lat="40.334633" lon="-4.717600">
        <ele>2245.0</ele>
        <time>2015-03-15T14:44:26Z</time>
      </trkpt>
      <trkpt lat="40.334550" lon="-4.717617">
        <ele>2245.0</ele>
        <time>2015-03-15T14:44:27Z</time>
      </trkpt>
      <trkpt lat="40.334483" lon="-4.717633">
        <ele>2245.0</ele>
        <time>2015-03-15T14:44:28Z</time>
      </trkpt>
      <trkpt lat="40.334417" lon="-4.717650">
        <ele>2245.0</ele>
        <time>2015-03-15T14:44:29Z</time>
      </trkpt>
      <trkpt lat="40.334350" lon="-4.717667">
        <ele>2242.0</ele>
        <time>2015-03-15T14:44:30Z</time>
      </trkpt>
      <trkpt lat="40.334283" lon="-4.717667">
        <ele>2239.0</ele>
        <time>2015-03-15T14:44:31Z</time>
      </trkpt>
      <trkpt lat="40.334200" lon="-4.717650">
        <ele>2235.0</ele>
        <time>2015-03-15T14:44:32Z</time>
      </trkpt>
      <trkpt lat="40.334117" lon="-4.717650">
        <ele>2232.0</ele>
        <time>2015-03-15T14:44:33Z</time>
      </trkpt>
      <trkpt lat="40.334017" lon="-4.717650">
        <ele>2230.0</ele>
        <time>2015-03-15T14:44:34Z</time>
      </trkpt>
      <trkpt lat="40.333933" lon="-4.717650">
        <ele>2229.0</ele>
        <time>2015-03-15T14:44:35Z</time>
      </trkpt>
      <trkpt lat="40.333850" lon="-4.717650">
        <ele>2228.0</ele>
        <time>2015-03-15T14:44:36Z</time>
      </trkpt>
      <trkpt lat="40.333783" lon="-4.717667">
        <ele>2226.0</ele>
        <time>2015-03-15T14:44:37Z</time>
      </trkpt>
      <trkpt lat="40.333717" lon="-4.717683">
        <ele>2225.0</ele>
        <time>2015-03-15T14:44:38Z</time>
      </trkpt>
      <trkpt lat="40.333633" lon="-4.717700">
        <ele>2222.0</ele>
        <time>2015-03-15T14:44:39Z</time>
      </trkpt>
      <trkpt lat="40.333550" lon="-4.717717">
        <ele>2220.0</ele>
        <time>2015-03-15T14:44:40Z</time>
      </trkpt>
      <trkpt lat="40.333467" lon="-4.717733">
        <ele>2219.0</ele>
        <time>2015-03-15T14:44:41Z</time>
      </trkpt>
      <trkpt lat="40.333400" lon="-4.717750">
        <ele>2217.0</ele>
        <time>2015-03-15T14:44:42Z</time>
      </trkpt>
      <trkpt lat="40.333333" lon="-4.717767">
        <ele>2216.0</ele>
        <time>2015-03-15T14:44:43Z</time>
      </trkpt>
      <trkpt lat="40.333267" lon="-4.717800">
        <ele>2214.0</ele>
        <time>2015-03-15T14:44:44Z</time>
      </trkpt>
      <trkpt lat="40.333200" lon="-4.717833">
        <ele>2212.0</ele>
        <time>2015-03-15T14:44:45Z</time>
      </trkpt>
      <trkpt lat="40.333133" lon="-4.717867">
        <ele>2208.0</ele>
        <time>2015-03-15T14:44:46Z</time>
      </trkpt>
      <trkpt lat="40.333050" lon="-4.717883">
        <ele>2205.0</ele>
        <time>2015-03-15T14:44:47Z</time>
      </trkpt>
      <trkpt lat="40.332967" lon="-4.717900">
        <ele>2202.0</ele>
        <time>2015-03-15T14:44:48Z</time>
      </trkpt>
      <trkpt lat="40.332883" lon="-4.717900">
        <ele>2199.0</ele>
        <time>2015-03-15T14:44:49Z</time>
      </trkpt>
      <trkpt lat="40.332800" lon="-4.717917">
        <ele>2197.0</ele>
        <time>2015-03-15T14:44:50Z</time>
      </trkpt>
      <trkpt lat="40.332717" lon="-4.717917">
        <ele>2196.0</ele>
        <time>2015-03-15T14:44:51Z</time>
      </trkpt>
      <trkpt lat="40.332650" lon="-4.717950">
        <ele>2194.0</ele>
        <time>2015-03-15T14:44:52Z</time>
      </trkpt>
      <trkpt lat="40.332583" lon="-4.717967">
        <ele>2193.0</ele>
        <time>2015-03-15T14:44:53Z</time>
      </trkpt>
      <trkpt lat="40.332500" lon="-4.717983">
        <ele>2192.0</ele>
        <time>2015-03-15T14:44:54Z</time>
      </trkpt>
      <trkpt lat="40.332433" lon="-4.717983">
        <ele>2191.0</ele>
        <time>2015-03-15T14:44:55Z</time>
      </trkpt>
      <trkpt lat="40.332350" lon="-4.717967">
        <ele>2191.0</ele>
        <time>2015-03-15T14:44:56Z</time>
      </trkpt>
      <trkpt lat="40.332283" lon="-4.717933">
        <ele>2192.0</ele>
        <time>2015-03-15T14:44:57Z</time>
      </trkpt>
      <trkpt lat="40.332217" lon="-4.717917">
        <ele>2192.0</ele>
        <time>2015-03-15T14:44:58Z</time>
      </trkpt>
      <trkpt lat="40.332150" lon="-4.717900">
        <ele>2192.0</ele>
        <time>2015-03-15T14:44:59Z</time>
      </trkpt>
      <trkpt lat="40.332100" lon="-4.717883">
        <ele>2192.0</ele>
        <time>2015-03-15T14:45:00Z</time>
      </trkpt>
      <trkpt lat="40.332033" lon="-4.717867">
        <ele>2192.0</ele>
        <time>2015-03-15T14:45:01Z</time>
      </trkpt>
      <trkpt lat="40.331967" lon="-4.717817">
        <ele>2191.0</ele>
        <time>2015-03-15T14:45:02Z</time>
      </trkpt>
      <trkpt lat="40.331900" lon="-4.717783">
        <ele>2190.0</ele>
        <time>2015-03-15T14:45:03Z</time>
      </trkpt>
      <trkpt lat="40.331833" lon="-4.717750">
        <ele>2188.0</ele>
        <time>2015-03-15T14:45:04Z</time>
      </trkpt>
      <trkpt lat="40.331750" lon="-4.717733">
        <ele>2187.0</ele>
        <time>2015-03-15T14:45:05Z</time>
      </trkpt>
      <trkpt lat="40.331667" lon="-4.717733">
        <ele>2185.0</ele>
        <time>2015-03-15T14:45:06Z</time>
      </trkpt>
      <trkpt lat="40.331583" lon="-4.717733">
        <ele>2183.0</ele>
        <time>2015-03-15T14:45:07Z</time>
      </trkpt>
      <trkpt lat="40.331517" lon="-4.717733">
        <ele>2181.0</ele>
        <time>2015-03-15T14:45:08Z</time>
      </trkpt>
      <trkpt lat="40.331433" lon="-4.717733">
        <ele>2180.0</ele>
        <time>2015-03-15T14:45:09Z</time>
      </trkpt>
      <trkpt lat="40.331367" lon="-4.717733">
        <ele>2178.0</ele>
        <time>2015-03-15T14:45:10Z</time>
      </trkpt>
      <trkpt lat="40.331300" lon="-4.717733">
        <ele>2177.0</ele>
        <time>2015-03-15T14:45:11Z</time>
      </trkpt>
      <trkpt lat="40.331217" lon="-4.717733">
        <ele>2175.0</ele>
        <time>2015-03-15T14:45:12Z</time>
      </trkpt>
      <trkpt lat="40.331150" lon="-4.717733">
        <ele>2173.0</ele>
        <time>2015-03-15T14:45:13Z</time>
      </trkpt>
      <trkpt lat="40.331067" lon="-4.717733">
        <ele>2172.0</ele>
        <time>2015-03-15T14:45:14Z</time>
      </trkpt>
      <trkpt lat="40.330983" lon="-4.717733">
        <ele>2172.0</ele>
        <time>2015-03-15T14:45:15Z</time>
      </trkpt>
      <trkpt lat="40.330917" lon="-4.717717">
        <ele>2172.0</ele>
        <time>2015-03-15T14:45:16Z</time>
      </trkpt>
      <trkpt lat="40.330850" lon="-4.717700">
        <ele>2172.0</ele>
        <time>2015-03-15T14:45:17Z</time>
      </trkpt>
      <trkpt lat="40.330783" lon="-4.717700">
        <ele>2171.0</ele>
        <time>2015-03-15T14:45:18Z</time>
      </trkpt>
      <trkpt lat="40.330717" lon="-4.717683">
        <ele>2170.0</ele>
        <time>2015-03-15T14:45:19Z</time>
      </trkpt>
      <trkpt lat="40.330633" lon="-4.717683">
        <ele>2168.0</ele>
        <time>2015-03-15T14:45:20Z</time>
      </trkpt>
      <trkpt lat="40.330550" lon="-4.717683">
        <ele>2166.0</ele>
        <time>2015-03-15T14:45:21Z</time>
      </trkpt>
      <trkpt lat="40.330467" lon="-4.717700">
        <ele>2165.0</ele>
        <time>2015-03-15T14:45:22Z</time>
      </trkpt>
      <trkpt lat="40.330400" lon="-4.717700">
        <ele>2165.0</ele>
        <time>2015-03-15T14:45:23Z</time>
      </trkpt>
      <trkpt lat="40.330317" lon="-4.717700">
        <ele>2165.0</ele>
        <time>2015-03-15T14:45:24Z</time>
      </trkpt>
      <trkpt lat="40.330250" lon="-4.717700">
        <ele>2165.0</ele>
        <time>2015-03-15T14:45:25Z</time>
      </trkpt>
      <trkpt lat="40.330183" lon="-4.717683">
        <ele>2164.0</ele>
        <time>2015-03-15T14:45:26Z</time>
      </trkpt>
      <trkpt lat="40.330100" lon="-4.717683">
        <ele>2163.0</ele>
        <time>2015-03-15T14:45:27Z</time>
      </trkpt>
      <trkpt lat="40.330033" lon="-4.717683">
        <ele>2162.0</ele>
        <time>2015-03-15T14:45:28Z</time>
      </trkpt>
      <trkpt lat="40.329950" lon="-4.717683">
        <ele>2161.0</ele>
        <time>2015-03-15T14:45:29Z</time>
      </trkpt>
      <trkpt lat="40.329867" lon="-4.717683">
        <ele>2160.0</ele>
        <time>2015-03-15T14:45:30Z</time>
      </trkpt>
      <trkpt lat="40.329783" lon="-4.717683">
        <ele>2160.0</ele>
        <time>2015-03-15T14:45:31Z</time>
      </trkpt>
      <trkpt lat="40.329700" lon="-4.717683">
        <ele>2160.0</ele>
        <time>2015-03-15T14:45:32Z</time>
      </trkpt>
      <trkpt lat="40.329633" lon="-4.717683">
        <ele>2161.0</ele>
        <time>2015-03-15T14:45:33Z</time>
      </trkpt>
      <trkpt lat="40.329550" lon="-4.717700">
        <ele>2160.0</ele>
        <time>2015-03-15T14:45:34Z</time>
      </trkpt>
      <trkpt lat="40.329483" lon="-4.717700">
        <ele>2160.0</ele>
        <time>2015-03-15T14:45:35Z</time>
      </trkpt>
      <trkpt lat="40.329400" lon="-4.717700">
        <ele>2160.0</ele>
        <time>2015-03-15T14:45:36Z</time>
      </trkpt>
      <trkpt lat="40.329317" lon="-4.717700">
        <ele>2161.0</ele>
        <time>2015-03-15T14:45:37Z</time>
      </trkpt>
      <trkpt lat="40.329233" lon="-4.717700">
        <ele>2161.0</ele>
        <time>2015-03-15T14:45:38Z</time>
      </trkpt>
      <trkpt lat="40.329133" lon="-4.717700">
        <ele>2161.0</ele>
        <time>2015-03-15T14:45:39Z</time>
      </trkpt>
      <trkpt lat="40.329050" lon="-4.717700">
        <ele>2162.0</ele>
        <time>2015-03-15T14:45:40Z</time>
      </trkpt>
      <trkpt lat="40.328967" lon="-4.717700">
        <ele>2164.0</ele>
        <time>2015-03-15T14:45:41Z</time>
      </trkpt>
      <trkpt lat="40.328883" lon="-4.717683">
        <ele>2167.0</ele>
        <time>2015-03-15T14:45:42Z</time>
      </trkpt>
      <trkpt lat="40.328817" lon="-4.717667">
        <ele>2169.0</ele>
        <time>2015-03-15T14:45:43Z</time>
      </trkpt>
      <trkpt lat="40.328750" lon="-4.717683">
        <ele>2171.0</ele>
        <time>2015-03-15T14:45:44Z</time>
      </trkpt>
      <trkpt lat="40.328683" lon="-4.717717">
        <ele>2173.0</ele>
        <time>2015-03-15T14:45:45Z</time>
      </trkpt>
      <trkpt lat="40.328617" lon="-4.717750">
        <ele>2174.0</ele>
        <time>2015-03-15T14:45:46Z</time>
      </trkpt>
      <trkpt lat="40.328550" lon="-4.717767">
        <ele>2175.0</ele>
        <time>2015-03-15T14:45:47Z</time>
      </trkpt>
      <trkpt lat="40.328467" lon="-4.717767">
        <ele>2176.0</ele>
        <time>2015-03-15T14:45:48Z</time>
      </trkpt>
      <trkpt lat="40.328400" lon="-4.717767">
        <ele>2177.0</ele>
        <time>2015-03-15T14:45:49Z</time>
      </trkpt>
      <trkpt lat="40.328317" lon="-4.717783">
        <ele>2178.0</ele>
        <time>2015-03-15T14:45:50Z</time>
      </trkpt>
      <trkpt lat="40.328250" lon="-4.717800">
        <ele>2179.0</ele>
        <time>2015-03-15T14:45:51Z</time>
      </trkpt>
      <trkpt lat="40.328167" lon="-4.717833">
        <ele>2181.0</ele>
        <time>2015-03-15T14:45:52Z</time>
      </trkpt>
      <trkpt lat="40.328100" lon="-4.717850">
        <ele>2182.0</ele>
        <time>2015-03-15T14:45:53Z</time>
      </trkpt>
      <trkpt lat="40.328017" lon="-4.717867">
        <ele>2183.0</ele>
        <time>2015-03-15T14:45:54Z</time>
      </trkpt>
      <trkpt lat="40.327933" lon="-4.717883">
        <ele>2184.0</ele>
        <time>2015-03-15T14:45:55Z</time>
      </trkpt>
      <trkpt lat="40.327850" lon="-4.717900">
        <ele>2185.0</ele>
        <time>2015-03-15T14:45:56Z</time>
      </trkpt>
      <trkpt lat="40.327750" lon="-4.717917">
        <ele>2187.0</ele>
        <time>2015-03-15T14:45:57Z</time>
      </trkpt>
      <trkpt lat="40.327667" lon="-4.717933">
        <ele>2190.0</ele>
        <time>2015-03-15T14:45:58Z</time>
      </trkpt>
      <trkpt lat="40.327567" lon="-4.717933">
        <ele>2193.0</ele>
        <time>2015-03-15T14:45:59Z</time>
      </trkpt>
      <trkpt lat="40.327483" lon="-4.717933">
        <ele>2195.0</ele>
        <time>2015-03-15T14:46:00Z</time>
      </trkpt>
      <trkpt lat="40.327417" lon="-4.717950">
        <ele>2197.0</ele>
        <time>2015-03-15T14:46:01Z</time>
      </trkpt>
      <trkpt lat="40.327333" lon="-4.717983">
        <ele>2198.0</ele>
        <time>2015-03-15T14:46:02Z</time>
      </trkpt>
      <trkpt lat="40.327250" lon="-4.718000">
        <ele>2199.0</ele>
        <time>2015-03-15T14:46:03Z</time>
      </trkpt>
      <trkpt lat="40.327150" lon="-4.718017">
        <ele>2199.0</ele>
        <time>2015-03-15T14:46:04Z</time>
      </trkpt>
      <trkpt lat="40.327050" lon="-4.718033">
        <ele>2199.0</ele>
        <time>2015-03-15T14:46:05Z</time>
      </trkpt>
      <trkpt lat="40.326933" lon="-4.718033">
        <ele>2200.0</ele>
        <time>2015-03-15T14:46:06Z</time>
      </trkpt>
      <trkpt lat="40.326833" lon="-4.718033">
        <ele>2203.0</ele>
        <time>2015-03-15T14:46:07Z</time>
      </trkpt>
      <trkpt lat="40.326733" lon="-4.718033">
        <ele>2205.0</ele>
        <time>2015-03-15T14:46:08Z</time>
      </trkpt>
      <trkpt lat="40.326650" lon="-4.718017">
        <ele>2206.0</ele>
        <time>2015-03-15T14:46:09Z</time>
      </trkpt>
      <trkpt lat="40.326550" lon="-4.717983">
        <ele>2207.0</ele>
        <time>2015-03-15T14:46:10Z</time>
      </trkpt>
      <trkpt lat="40.326467" lon="-4.717950">
        <ele>2208.0</ele>
        <time>2015-03-15T14:46:11Z</time>
      </trkpt>
      <trkpt lat="40.326367" lon="-4.717917">
        <ele>2209.0</ele>
        <time>2015-03-15T14:46:12Z</time>
      </trkpt>
      <trkpt lat="40.326267" lon="-4.717883">
        <ele>2210.0</ele>
        <time>2015-03-15T14:46:13Z</time>
      </trkpt>
      <trkpt lat="40.326167" lon="-4.717850">
        <ele>2212.0</ele>
        <time>2015-03-15T14:46:14Z</time>
      </trkpt>
      <trkpt lat="40.326083" lon="-4.717817">
        <ele>2213.0</ele>
        <time>2015-03-15T14:46:15Z</time>
      </trkpt>
      <trkpt lat="40.325983" lon="-4.717767">
        <ele>2214.0</ele>
        <time>2015-03-15T14:46:16Z</time>
      </trkpt>
      <trkpt lat="40.325900" lon="-4.717700">
        <ele>2215.0</ele>
        <time>2015-03-15T14:46:17Z</time>
      </trkpt>
      <trkpt lat="40.325817" lon="-4.717633">
        <ele>2215.0</ele>
        <time>2015-03-15T14:46:18Z</time>
      </trkpt>
      <trkpt lat="40.325733" lon="-4.717567">
        <ele>2216.0</ele>
        <time>2015-03-15T14:46:19Z</time>
      </trkpt>
      <trkpt lat="40.325650" lon="-4.717500">
        <ele>2216.0</ele>
        <time>2015-03-15T14:46:20Z</time>
      </trkpt>
      <trkpt lat="40.325567" lon="-4.717450">
        <ele>2216.0</ele>
        <time>2015-03-15T14:46:21Z</time>
      </trkpt>
      <trkpt lat="40.325483" lon="-4.717400">
        <ele>2216.0</ele>
        <time>2015-03-15T14:46:22Z</time>
      </trkpt>
      <trkpt lat="40.325417" lon="-4.717350">
        <ele>2214.0</ele>
        <time>2015-03-15T14:46:23Z</time>
      </trkpt>
      <trkpt lat="40.325333" lon="-4.717317">
        <ele>2211.0</ele>
        <time>2015-03-15T14:46:24Z</time>
      </trkpt>
      <trkpt lat="40.325250" lon="-4.717267">
        <ele>2209.0</ele>
        <time>2015-03-15T14:46:25Z</time>
      </trkpt>
      <trkpt lat="40.325167" lon="-4.717183">
        <ele>2208.0</ele>
        <time>2015-03-15T14:46:26Z</time>
      </trkpt>
      <trkpt lat="40.325100" lon="-4.717100">
        <ele>2208.0</ele>
        <time>2015-03-15T14:46:27Z</time>
      </trkpt>
      <trkpt lat="40.325033" lon="-4.717000">
        <ele>2208.0</ele>
        <time>2015-03-15T14:46:28Z</time>
      </trkpt>
      <trkpt lat="40.324983" lon="-4.716900">
        <ele>2209.0</ele>
        <time>2015-03-15T14:46:29Z</time>
      </trkpt>
      <trkpt lat="40.324917" lon="-4.716817">
        <ele>2209.0</ele>
        <time>2015-03-15T14:46:30Z</time>
      </trkpt>
      <trkpt lat="40.324867" lon="-4.716733">
        <ele>2208.0</ele>
        <time>2015-03-15T14:46:31Z</time>
      </trkpt>
      <trkpt lat="40.324817" lon="-4.716650">
        <ele>2207.0</ele>
        <time>2015-03-15T14:46:32Z</time>
      </trkpt>
      <trkpt lat="40.324767" lon="-4.716550">
        <ele>2205.0</ele>
        <time>2015-03-15T14:46:33Z</time>
      </trkpt>
      <trkpt lat="40.324700" lon="-4.716450">
        <ele>2204.0</ele>
        <time>2015-03-15T14:46:34Z</time>
      </trkpt>
      <trkpt lat="40.324650" lon="-4.716367">
        <ele>2202.0</ele>
        <time>2015-03-15T14:46:35Z</time>
      </trkpt>
      <trkpt lat="40.324583" lon="-4.716267">
        <ele>2200.0</ele>
        <time>2015-03-15T14:46:36Z</time>
      </trkpt>
      <trkpt lat="40.324533" lon="-4.716167">
        <ele>2199.0</ele>
        <time>2015-03-15T14:46:37Z</time>
      </trkpt>
      <trkpt lat="40.324467" lon="-4.716083">
        <ele>2197.0</ele>
        <time>2015-03-15T14:46:38Z</time>
      </trkpt>
      <trkpt lat="40.324400" lon="-4.715983">
        <ele>2196.0</ele>
        <time>2015-03-15T14:46:39Z</time>
      </trkpt>
      <trkpt lat="40.324350" lon="-4.715883">
        <ele>2195.0</ele>
        <time>2015-03-15T14:46:40Z</time>
      </trkpt>
      <trkpt lat="40.324283" lon="-4.715783">
        <ele>2194.0</ele>
        <time>2015-03-15T14:46:41Z</time>
      </trkpt>
      <trkpt lat="40.324217" lon="-4.715700">
        <ele>2193.0</ele>
        <time>2015-03-15T14:46:42Z</time>
      </trkpt>
      <trkpt lat="40.324150" lon="-4.715617">
        <ele>2192.0</ele>
        <time>2015-03-15T14:46:43Z</time>
      </trkpt>
      <trkpt lat="40.324067" lon="-4.715517">
        <ele>2191.0</ele>
        <time>2015-03-15T14:46:44Z</time>
      </trkpt>
      <trkpt lat="40.324000" lon="-4.715433">
        <ele>2189.0</ele>
        <time>2015-03-15T14:46:45Z</time>
      </trkpt>
      <trkpt lat="40.323917" lon="-4.715333">
        <ele>2188.0</ele>
        <time>2015-03-15T14:46:46Z</time>
      </trkpt>
      <trkpt lat="40.323850" lon="-4.715250">
        <ele>2187.0</ele>
        <time>2015-03-15T14:46:47Z</time>
      </trkpt>
      <trkpt lat="40.323767" lon="-4.715150">
        <ele>2187.0</ele>
        <time>2015-03-15T14:46:48Z</time>
      </trkpt>
      <trkpt lat="40.323683" lon="-4.715083">
        <ele>2186.0</ele>
        <time>2015-03-15T14:46:49Z</time>
      </trkpt>
      <trkpt lat="40.323600" lon="-4.715000">
        <ele>2186.0</ele>
        <time>2015-03-15T14:46:50Z</time>
      </trkpt>
      <trkpt lat="40.323517" lon="-4.714933">
        <ele>2185.0</ele>
        <time>2015-03-15T14:46:51Z</time>
      </trkpt>
      <trkpt lat="40.323450" lon="-4.714867">
        <ele>2184.0</ele>
        <time>2015-03-15T14:46:52Z</time>
      </trkpt>
      <trkpt lat="40.323350" lon="-4.714783">
        <ele>2183.0</ele>
        <time>2015-03-15T14:46:53Z</time>
      </trkpt>
      <trkpt lat="40.323267" lon="-4.714717">
        <ele>2182.0</ele>
        <time>2015-03-15T14:46:54Z</time>
      </trkpt>
      <trkpt lat="40.323183" lon="-4.714633">
        <ele>2181.0</ele>
        <time>2015-03-15T14:46:55Z</time>
      </trkpt>
      <trkpt lat="40.323100" lon="-4.714533">
        <ele>2180.0</ele>
        <time>2015-03-15T14:46:56Z</time>
      </trkpt>
      <trkpt lat="40.323033" lon="-4.714450">
        <ele>2179.0</ele>
        <time>2015-03-15T14:46:57Z</time>
      </trkpt>
      <trkpt lat="40.322950" lon="-4.714350">
        <ele>2179.0</ele>
        <time>2015-03-15T14:46:58Z</time>
      </trkpt>
      <trkpt lat="40.322883" lon="-4.714267">
        <ele>2179.0</ele>
        <time>2015-03-15T14:46:59Z</time>
      </trkpt>
      <trkpt lat="40.322800" lon="-4.714183">
        <ele>2180.0</ele>
        <time>2015-03-15T14:47:00Z</time>
      </trkpt>
      <trkpt lat="40.322717" lon="-4.714117">
        <ele>2181.0</ele>
        <time>2015-03-15T14:47:01Z</time>
      </trkpt>
      <trkpt lat="40.322650" lon="-4.714050">
        <ele>2182.0</ele>
        <time>2015-03-15T14:47:02Z</time>
      </trkpt>
      <trkpt lat="40.322600" lon="-4.713983">
        <ele>2182.0</ele>
        <time>2015-03-15T14:47:03Z</time>
      </trkpt>
      <trkpt lat="40.322550" lon="-4.713917">
        <ele>2182.0</ele>
        <time>2015-03-15T14:47:04Z</time>
      </trkpt>
      <trkpt lat="40.322483" lon="-4.713833">
        <ele>2181.0</ele>
        <time>2015-03-15T14:47:05Z</time>
      </trkpt>
      <trkpt lat="40.322417" lon="-4.713767">
        <ele>2180.0</ele>
        <time>2015-03-15T14:47:06Z</time>
      </trkpt>
      <trkpt lat="40.322333" lon="-4.713683">
        <ele>2179.0</ele>
        <time>2015-03-15T14:47:07Z</time>
      </trkpt>
      <trkpt lat="40.322267" lon="-4.713583">
        <ele>2180.0</ele>
        <time>2015-03-15T14:47:08Z</time>
      </trkpt>
      <trkpt lat="40.322200" lon="-4.713517">
        <ele>2182.0</ele>
        <time>2015-03-15T14:47:09Z</time>
      </trkpt>
      <trkpt lat="40.322150" lon="-4.713433">
        <ele>2182.0</ele>
        <time>2015-03-15T14:47:10Z</time>
      </trkpt>
      <trkpt lat="40.322083" lon="-4.713367">
        <ele>2182.0</ele>
        <time>2015-03-15T14:47:11Z</time>
      </trkpt>
      <trkpt lat="40.322033" lon="-4.713300">
        <ele>2181.0</ele>
        <time>2015-03-15T14:47:12Z</time>
      </trkpt>
      <trkpt lat="40.321950" lon="-4.713217">
        <ele>2180.0</ele>
        <time>2015-03-15T14:47:13Z</time>
      </trkpt>
      <trkpt lat="40.321883" lon="-4.713133">
        <ele>2179.0</ele>
        <time>2015-03-15T14:47:14Z</time>
      </trkpt>
      <trkpt lat="40.321817" lon="-4.713017">
        <ele>2179.0</ele>
        <time>2015-03-15T14:47:15Z</time>
      </trkpt>
      <trkpt lat="40.321733" lon="-4.712933">
        <ele>2180.0</ele>
        <time>2015-03-15T14:47:16Z</time>
      </trkpt>
      <trkpt lat="40.321667" lon="-4.712850">
        <ele>2180.0</ele>
        <time>2015-03-15T14:47:17Z</time>
      </trkpt>
      <trkpt lat="40.321583" lon="-4.712767">
        <ele>2181.0</ele>
        <time>2015-03-15T14:47:18Z</time>
      </trkpt>
      <trkpt lat="40.321517" lon="-4.712700">
        <ele>2181.0</ele>
        <time>2015-03-15T14:47:19Z</time>
      </trkpt>
      <trkpt lat="40.321450" lon="-4.712600">
        <ele>2180.0</ele>
        <time>2015-03-15T14:47:20Z</time>
      </trkpt>
      <trkpt lat="40.321383" lon="-4.712500">
        <ele>2179.0</ele>
        <time>2015-03-15T14:47:21Z</time>
      </trkpt>
      <trkpt lat="40.321300" lon="-4.712383">
        <ele>2179.0</ele>
        <time>2015-03-15T14:47:22Z</time>
      </trkpt>
      <trkpt lat="40.321217" lon="-4.712283">
        <ele>2179.0</ele>
        <time>2015-03-15T14:47:23Z</time>
      </trkpt>
      <trkpt lat="40.321150" lon="-4.712183">
        <ele>2180.0</ele>
        <time>2015-03-15T14:47:24Z</time>
      </trkpt>
      <trkpt lat="40.321083" lon="-4.712100">
        <ele>2181.0</ele>
        <time>2015-03-15T14:47:25Z</time>
      </trkpt>
      <trkpt lat="40.321017" lon="-4.712017">
        <ele>2181.0</ele>
        <time>2015-03-15T14:47:26Z</time>
      </trkpt>
      <trkpt lat="40.320933" lon="-4.711933">
        <ele>2182.0</ele>
        <time>2015-03-15T14:47:27Z</time>
      </trkpt>
      <trkpt lat="40.320850" lon="-4.711850">
        <ele>2182.0</ele>
        <time>2015-03-15T14:47:28Z</time>
      </trkpt>
      <trkpt lat="40.320767" lon="-4.711800">
        <ele>2183.0</ele>
        <time>2015-03-15T14:47:29Z</time>
      </trkpt>
      <trkpt lat="40.320683" lon="-4.711733">
        <ele>2184.0</ele>
        <time>2015-03-15T14:47:30Z</time>
      </trkpt>
      <trkpt lat="40.320617" lon="-4.711667">
        <ele>2184.0</ele>
        <time>2015-03-15T14:47:31Z</time>
      </trkpt>
      <trkpt lat="40.320550" lon="-4.711600">
        <ele>2184.0</ele>
        <time>2015-03-15T14:47:32Z</time>
      </trkpt>
      <trkpt lat="40.320467" lon="-4.711517">
        <ele>2184.0</ele>
        <time>2015-03-15T14:47:33Z</time>
      </trkpt>
      <trkpt lat="40.320400" lon="-4.711433">
        <ele>2183.0</ele>
        <time>2015-03-15T14:47:34Z</time>
      </trkpt>
      <trkpt lat="40.320333" lon="-4.711367">
        <ele>2183.0</ele>
        <time>2015-03-15T14:47:35Z</time>
      </trkpt>
      <trkpt lat="40.320267" lon="-4.711283">
        <ele>2183.0</ele>
        <time>2015-03-15T14:47:36Z</time>
      </trkpt>
      <trkpt lat="40.320200" lon="-4.711200">
        <ele>2184.0</ele>
        <time>2015-03-15T14:47:37Z</time>
      </trkpt>
      <trkpt lat="40.320150" lon="-4.711117">
        <ele>2185.0</ele>
        <time>2015-03-15T14:47:38Z</time>
      </trkpt>
      <trkpt lat="40.320133" lon="-4.711017">
        <ele>2185.0</ele>
        <time>2015-03-15T14:47:39Z</time>
      </trkpt>
      <trkpt lat="40.320133" lon="-4.710917">
        <ele>2185.0</ele>
        <time>2015-03-15T14:47:40Z</time>
      </trkpt>
      <trkpt lat="40.320150" lon="-4.710817">
        <ele>2184.0</ele>
        <time>2015-03-15T14:47:41Z</time>
      </trkpt>
      <trkpt lat="40.320183" lon="-4.710733">
        <ele>2184.0</ele>
        <time>2015-03-15T14:47:42Z</time>
      </trkpt>
      <trkpt lat="40.320250" lon="-4.710650">
        <ele>2184.0</ele>
        <time>2015-03-15T14:47:43Z</time>
      </trkpt>
      <trkpt lat="40.320333" lon="-4.710600">
        <ele>2184.0</ele>
        <time>2015-03-15T14:47:44Z</time>
      </trkpt>
      <trkpt lat="40.320417" lon="-4.710600">
        <ele>2184.0</ele>
        <time>2015-03-15T14:47:45Z</time>
      </trkpt>
      <trkpt lat="40.320500" lon="-4.710633">
        <ele>2184.0</ele>
        <time>2015-03-15T14:47:46Z</time>
      </trkpt>
      <trkpt lat="40.320583" lon="-4.710700">
        <ele>2184.0</ele>
        <time>2015-03-15T14:47:47Z</time>
      </trkpt>
      <trkpt lat="40.320650" lon="-4.710767">
        <ele>2185.0</ele>
        <time>2015-03-15T14:47:48Z</time>
      </trkpt>
      <trkpt lat="40.320700" lon="-4.710867">
        <ele>2185.0</ele>
        <time>2015-03-15T14:47:49Z</time>
      </trkpt>
      <trkpt lat="40.320750" lon="-4.710967">
        <ele>2186.0</ele>
        <time>2015-03-15T14:47:50Z</time>
      </trkpt>
      <trkpt lat="40.320783" lon="-4.711083">
        <ele>2186.0</ele>
        <time>2015-03-15T14:47:51Z</time>
      </trkpt>
      <trkpt lat="40.320800" lon="-4.711217">
        <ele>2187.0</ele>
        <time>2015-03-15T14:47:52Z</time>
      </trkpt>
      <trkpt lat="40.320833" lon="-4.711333">
        <ele>2188.0</ele>
        <time>2015-03-15T14:47:53Z</time>
      </trkpt>
      <trkpt lat="40.320850" lon="-4.711450">
        <ele>2189.0</ele>
        <time>2015-03-15T14:47:54Z</time>
      </trkpt>
      <trkpt lat="40.320850" lon="-4.711567">
        <ele>2189.0</ele>
        <time>2015-03-15T14:47:55Z</time>
      </trkpt>
      <trkpt lat="40.320850" lon="-4.711700">
        <ele>2189.0</ele>
        <time>2015-03-15T14:47:56Z</time>
      </trkpt>
      <trkpt lat="40.320833" lon="-4.711817">
        <ele>2189.0</ele>
        <time>2015-03-15T14:47:57Z</time>
      </trkpt>
      <trkpt lat="40.320783" lon="-4.711950">
        <ele>2189.0</ele>
        <time>2015-03-15T14:47:58Z</time>
      </trkpt>
      <trkpt lat="40.320733" lon="-4.712067">
        <ele>2188.0</ele>
        <time>2015-03-15T14:47:59Z</time>
      </trkpt>
      <trkpt lat="40.320667" lon="-4.712167">
        <ele>2188.0</ele>
        <time>2015-03-15T14:48:00Z</time>
      </trkpt>
      <trkpt lat="40.320583" lon="-4.712250">
        <ele>2189.0</ele>
        <time>2015-03-15T14:48:01Z</time>
      </trkpt>
      <trkpt lat="40.320500" lon="-4.712317">
        <ele>2189.0</ele>
        <time>2015-03-15T14:48:02Z</time>
      </trkpt>
      <trkpt lat="40.320417" lon="-4.712350">
        <ele>2189.0</ele>
        <time>2015-03-15T14:48:03Z</time>
      </trkpt>
      <trkpt lat="40.320317" lon="-4.712367">
        <ele>2188.0</ele>
        <time>2015-03-15T14:48:04Z</time>
      </trkpt>
      <trkpt lat="40.320233" lon="-4.712367">
        <ele>2188.0</ele>
        <time>2015-03-15T14:48:05Z</time>
      </trkpt>
      <trkpt lat="40.320133" lon="-4.712333">
        <ele>2187.0</ele>
        <time>2015-03-15T14:48:06Z</time>
      </trkpt>
      <trkpt lat="40.320050" lon="-4.712267">
        <ele>2186.0</ele>
        <time>2015-03-15T14:48:07Z</time>
      </trkpt>
      <trkpt lat="40.319983" lon="-4.712167">
        <ele>2185.0</ele>
        <time>2015-03-15T14:48:08Z</time>
      </trkpt>
      <trkpt lat="40.319933" lon="-4.712067">
        <ele>2184.0</ele>
        <time>2015-03-15T14:48:09Z</time>
      </trkpt>
      <trkpt lat="40.319883" lon="-4.711950">
        <ele>2183.0</ele>
        <time>2015-03-15T14:48:10Z</time>
      </trkpt>
      <trkpt lat="40.319817" lon="-4.711850">
        <ele>2183.0</ele>
        <time>2015-03-15T14:48:11Z</time>
      </trkpt>
      <trkpt lat="40.319750" lon="-4.711767">
        <ele>2182.0</ele>
        <time>2015-03-15T14:48:12Z</time>
      </trkpt>
      <trkpt lat="40.319683" lon="-4.711683">
        <ele>2181.0</ele>
        <time>2015-03-15T14:48:13Z</time>
      </trkpt>
      <trkpt lat="40.319633" lon="-4.711583">
        <ele>2180.0</ele>
        <time>2015-03-15T14:48:14Z</time>
      </trkpt>
      <trkpt lat="40.319567" lon="-4.711500">
        <ele>2179.0</ele>
        <time>2015-03-15T14:48:15Z</time>
      </trkpt>
      <trkpt lat="40.319517" lon="-4.711400">
        <ele>2179.0</ele>
        <time>2015-03-15T14:48:16Z</time>
      </trkpt>
      <trkpt lat="40.319467" lon="-4.711317">
        <ele>2177.0</ele>
        <time>2015-03-15T14:48:17Z</time>
      </trkpt>
      <trkpt lat="40.319417" lon="-4.711233">
        <ele>2176.0</ele>
        <time>2015-03-15T14:48:18Z</time>
      </trkpt>
      <trkpt lat="40.319350" lon="-4.711133">
        <ele>2174.0</ele>
        <time>2015-03-15T14:48:19Z</time>
      </trkpt>
      <trkpt lat="40.319300" lon="-4.711033">
        <ele>2173.0</ele>
        <time>2015-03-15T14:48:20Z</time>
      </trkpt>
      <trkpt lat="40.319250" lon="-4.710917">
        <ele>2172.0</ele>
        <time>2015-03-15T14:48:21Z</time>
      </trkpt>
      <trkpt lat="40.319200" lon="-4.710817">
        <ele>2171.0</ele>
        <time>2015-03-15T14:48:22Z</time>
      </trkpt>
      <trkpt lat="40.319150" lon="-4.710717">
        <ele>2171.0</ele>
        <time>2015-03-15T14:48:23Z</time>
      </trkpt>
      <trkpt lat="40.319083" lon="-4.710617">
        <ele>2170.0</ele>
        <time>2015-03-15T14:48:24Z</time>
      </trkpt>
      <trkpt lat="40.319033" lon="-4.710517">
        <ele>2169.0</ele>
        <time>2015-03-15T14:48:25Z</time>
      </trkpt>
      <trkpt lat="40.318967" lon="-4.710417">
        <ele>2168.0</ele>
        <time>2015-03-15T14:48:26Z</time>
      </trkpt>
      <trkpt lat="40.318917" lon="-4.710317">
        <ele>2166.0</ele>
        <time>2015-03-15T14:48:27Z</time>
      </trkpt>
      <trkpt lat="40.318867" lon="-4.710217">
        <ele>2165.0</ele>
        <time>2015-03-15T14:48:28Z</time>
      </trkpt>
      <trkpt lat="40.318833" lon="-4.710083">
        <ele>2164.0</ele>
        <time>2015-03-15T14:48:29Z</time>
      </trkpt>
      <trkpt lat="40.318800" lon="-4.709967">
        <ele>2162.0</ele>
        <time>2015-03-15T14:48:30Z</time>
      </trkpt>
      <trkpt lat="40.318750" lon="-4.709850">
        <ele>2161.0</ele>
        <time>2015-03-15T14:48:31Z</time>
      </trkpt>
      <trkpt lat="40.318700" lon="-4.709717">
        <ele>2161.0</ele>
        <time>2015-03-15T14:48:32Z</time>
      </trkpt>
      <trkpt lat="40.318667" lon="-4.709600">
        <ele>2160.0</ele>
        <time>2015-03-15T14:48:33Z</time>
      </trkpt>
      <trkpt lat="40.318617" lon="-4.709483">
        <ele>2159.0</ele>
        <time>2015-03-15T14:48:34Z</time>
      </trkpt>
      <trkpt lat="40.318567" lon="-4.709367">
        <ele>2158.0</ele>
        <time>2015-03-15T14:48:35Z</time>
      </trkpt>
      <trkpt lat="40.318533" lon="-4.709250">
        <ele>2157.0</ele>
        <time>2015-03-15T14:48:36Z</time>
      </trkpt>
      <trkpt lat="40.318500" lon="-4.709117">
        <ele>2155.0</ele>
        <time>2015-03-15T14:48:37Z</time>
      </trkpt>
      <trkpt lat="40.318450" lon="-4.709000">
        <ele>2154.0</ele>
        <time>2015-03-15T14:48:38Z</time>
      </trkpt>
      <trkpt lat="40.318383" lon="-4.708883">
        <ele>2152.0</ele>
        <time>2015-03-15T14:48:39Z</time>
      </trkpt>
      <trkpt lat="40.318333" lon="-4.708767">
        <ele>2151.0</ele>
        <time>2015-03-15T14:48:40Z</time>
      </trkpt>
      <trkpt lat="40.318283" lon="-4.708650">
        <ele>2150.0</ele>
        <time>2015-03-15T14:48:41Z</time>
      </trkpt>
      <trkpt lat="40.318233" lon="-4.708550">
        <ele>2149.0</ele>
        <time>2015-03-15T14:48:42Z</time>
      </trkpt>
      <trkpt lat="40.318183" lon="-4.708433">
        <ele>2148.0</ele>
        <time>2015-03-15T14:48:43Z</time>
      </trkpt>
      <trkpt lat="40.318133" lon="-4.708333">
        <ele>2146.0</ele>
        <time>2015-03-15T14:48:44Z</time>
      </trkpt>
      <trkpt lat="40.318083" lon="-4.708217">
        <ele>2145.0</ele>
        <time>2015-03-15T14:48:45Z</time>
      </trkpt>
      <trkpt lat="40.318017" lon="-4.708100">
        <ele>2144.0</ele>
        <time>2015-03-15T14:48:46Z</time>
      </trkpt>
      <trkpt lat="40.317967" lon="-4.708000">
        <ele>2144.0</ele>
        <time>2015-03-15T14:48:47Z</time>
      </trkpt>
      <trkpt lat="40.317917" lon="-4.707900">
        <ele>2143.0</ele>
        <time>2015-03-15T14:48:48Z</time>
      </trkpt>
      <trkpt lat="40.317867" lon="-4.707800">
        <ele>2141.0</ele>
        <time>2015-03-15T14:48:49Z</time>
      </trkpt>
      <trkpt lat="40.317817" lon="-4.707700">
        <ele>2139.0</ele>
        <time>2015-03-15T14:48:50Z</time>
      </trkpt>
      <trkpt lat="40.317750" lon="-4.707600">
        <ele>2137.0</ele>
        <time>2015-03-15T14:48:51Z</time>
      </trkpt>
      <trkpt lat="40.317700" lon="-4.707483">
        <ele>2135.0</ele>
        <time>2015-03-15T14:48:52Z</time>
      </trkpt>
      <trkpt lat="40.317633" lon="-4.707383">
        <ele>2133.0</ele>
        <time>2015-03-15T14:48:53Z</time>
      </trkpt>
      <trkpt lat="40.317567" lon="-4.707283">
        <ele>2132.0</ele>
        <time>2015-03-15T14:48:54Z</time>
      </trkpt>
      <trkpt lat="40.317500" lon="-4.707200">
        <ele>2131.0</ele>
        <time>2015-03-15T14:48:55Z</time>
      </trkpt>
      <trkpt lat="40.317433" lon="-4.707117">
        <ele>2129.0</ele>
        <time>2015-03-15T14:48:56Z</time>
      </trkpt>
      <trkpt lat="40.317367" lon="-4.707033">
        <ele>2127.0</ele>
        <time>2015-03-15T14:48:57Z</time>
      </trkpt>
      <trkpt lat="40.317300" lon="-4.706950">
        <ele>2124.0</ele>
        <time>2015-03-15T14:48:58Z</time>
      </trkpt>
      <trkpt lat="40.317233" lon="-4.706850">
        <ele>2121.0</ele>
        <time>2015-03-15T14:48:59Z</time>
      </trkpt>
      <trkpt lat="40.317167" lon="-4.706767">
        <ele>2119.0</ele>
        <time>2015-03-15T14:49:00Z</time>
      </trkpt>
      <trkpt lat="40.317083" lon="-4.706667">
        <ele>2117.0</ele>
        <time>2015-03-15T14:49:01Z</time>
      </trkpt>
      <trkpt lat="40.317017" lon="-4.706600">
        <ele>2116.0</ele>
        <time>2015-03-15T14:49:02Z</time>
      </trkpt>
      <trkpt lat="40.316933" lon="-4.706517">
        <ele>2114.0</ele>
        <time>2015-03-15T14:49:03Z</time>
      </trkpt>
      <trkpt lat="40.316850" lon="-4.706450">
        <ele>2112.0</ele>
        <time>2015-03-15T14:49:04Z</time>
      </trkpt>
      <trkpt lat="40.316767" lon="-4.706367">
        <ele>2110.0</ele>
        <time>2015-03-15T14:49:05Z</time>
      </trkpt>
      <trkpt lat="40.316683" lon="-4.706300">
        <ele>2108.0</ele>
        <time>2015-03-15T14:49:06Z</time>
      </trkpt>
      <trkpt lat="40.316600" lon="-4.706217">
        <ele>2106.0</ele>
        <time>2015-03-15T14:49:07Z</time>
      </trkpt>
      <trkpt lat="40.316517" lon="-4.706150">
        <ele>2105.0</ele>
        <time>2015-03-15T14:49:08Z</time>
      </trkpt>
      <trkpt lat="40.316450" lon="-4.706083">
        <ele>2103.0</ele>
        <time>2015-03-15T14:49:09Z</time>
      </trkpt>
      <trkpt lat="40.316367" lon="-4.706017">
        <ele>2101.0</ele>
        <time>2015-03-15T14:49:10Z</time>
      </trkpt>
      <trkpt lat="40.316283" lon="-4.705950">
        <ele>2099.0</ele>
        <time>2015-03-15T14:49:11Z</time>
      </trkpt>
      <trkpt lat="40.316200" lon="-4.705883">
        <ele>2097.0</ele>
        <time>2015-03-15T14:49:12Z</time>
      </trkpt>
      <trkpt lat="40.316117" lon="-4.705817">
        <ele>2095.0</ele>
        <time>2015-03-15T14:49:13Z</time>
      </trkpt>
      <trkpt lat="40.316033" lon="-4.705750">
        <ele>2094.0</ele>
        <time>2015-03-15T14:49:14Z</time>
      </trkpt>
      <trkpt lat="40.315950" lon="-4.705683">
        <ele>2092.0</ele>
        <time>2015-03-15T14:49:15Z</time>
      </trkpt>
      <trkpt lat="40.315867" lon="-4.705617">
        <ele>2091.0</ele>
        <time>2015-03-15T14:49:16Z</time>
      </trkpt>
      <trkpt lat="40.315783" lon="-4.705567">
        <ele>2089.0</ele>
        <time>2015-03-15T14:49:17Z</time>
      </trkpt>
      <trkpt lat="40.315700" lon="-4.705500">
        <ele>2087.0</ele>
        <time>2015-03-15T14:49:18Z</time>
      </trkpt>
      <trkpt lat="40.315617" lon="-4.705417">
        <ele>2085.0</ele>
        <time>2015-03-15T14:49:19Z</time>
      </trkpt>
      <trkpt lat="40.315533" lon="-4.705350">
        <ele>2084.0</ele>
        <time>2015-03-15T14:49:20Z</time>
      </trkpt>
      <trkpt lat="40.315450" lon="-4.705267">
        <ele>2083.0</ele>
        <time>2015-03-15T14:49:21Z</time>
      </trkpt>
      <trkpt lat="40.315383" lon="-4.705183">
        <ele>2082.0</ele>
        <time>2015-03-15T14:49:22Z</time>
      </trkpt>
      <trkpt lat="40.315317" lon="-4.705100">
        <ele>2080.0</ele>
        <time>2015-03-15T14:49:23Z</time>
      </trkpt>
      <trkpt lat="40.315267" lon="-4.705017">
        <ele>2078.0</ele>
        <time>2015-03-15T14:49:24Z</time>
      </trkpt>
      <trkpt lat="40.315200" lon="-4.704917">
        <ele>2075.0</ele>
        <time>2015-03-15T14:49:25Z</time>
      </trkpt>
      <trkpt lat="40.315117" lon="-4.704833">
        <ele>2072.0</ele>
        <time>2015-03-15T14:49:26Z</time>
      </trkpt>
      <trkpt lat="40.315050" lon="-4.704717">
        <ele>2070.0</ele>
        <time>2015-03-15T14:49:27Z</time>
      </trkpt>
      <trkpt lat="40.315000" lon="-4.704617">
        <ele>2069.0</ele>
        <time>2015-03-15T14:49:28Z</time>
      </trkpt>
      <trkpt lat="40.314950" lon="-4.704500">
        <ele>2068.0</ele>
        <time>2015-03-15T14:49:29Z</time>
      </trkpt>
      <trkpt lat="40.314900" lon="-4.704400">
        <ele>2067.0</ele>
        <time>2015-03-15T14:49:30Z</time>
      </trkpt>
      <trkpt lat="40.314850" lon="-4.704317">
        <ele>2065.0</ele>
        <time>2015-03-15T14:49:31Z</time>
      </trkpt>
      <trkpt lat="40.314783" lon="-4.704233">
        <ele>2062.0</ele>
        <time>2015-03-15T14:49:32Z</time>
      </trkpt>
      <trkpt lat="40.314733" lon="-4.704133">
        <ele>2060.0</ele>
        <time>2015-03-15T14:49:33Z</time>
      </trkpt>
      <trkpt lat="40.314683" lon="-4.704017">
        <ele>2058.0</ele>
        <time>2015-03-15T14:49:34Z</time>
      </trkpt>
      <trkpt lat="40.314633" lon="-4.703900">
        <ele>2056.0</ele>
        <time>2015-03-15T14:49:35Z</time>
      </trkpt>
      <trkpt lat="40.314583" lon="-4.703783">
        <ele>2055.0</ele>
        <time>2015-03-15T14:49:36Z</time>
      </trkpt>
      <trkpt lat="40.314533" lon="-4.703683">
        <ele>2053.0</ele>
        <time>2015-03-15T14:49:37Z</time>
      </trkpt>
      <trkpt lat="40.314483" lon="-4.703567">
        <ele>2051.0</ele>
        <time>2015-03-15T14:49:38Z</time>
      </trkpt>
      <trkpt lat="40.314433" lon="-4.703467">
        <ele>2048.0</ele>
        <time>2015-03-15T14:49:39Z</time>
      </trkpt>
      <trkpt lat="40.314383" lon="-4.703350">
        <ele>2045.0</ele>
        <time>2015-03-15T14:49:40Z</time>
      </trkpt>
      <trkpt lat="40.314333" lon="-4.703217">
        <ele>2041.0</ele>
        <time>2015-03-15T14:49:41Z</time>
      </trkpt>
      <trkpt lat="40.314283" lon="-4.703083">
        <ele>2038.0</ele>
        <time>2015-03-15T14:49:42Z</time>
      </trkpt>
      <trkpt lat="40.314233" lon="-4.702950">
        <ele>2036.0</ele>
        <time>2015-03-15T14:49:43Z</time>
      </trkpt>
      <trkpt lat="40.314183" lon="-4.702833">
        <ele>2034.0</ele>
        <time>2015-03-15T14:49:44Z</time>
      </trkpt>
      <trkpt lat="40.314133" lon="-4.702717">
        <ele>2033.0</ele>
        <time>2015-03-15T14:49:45Z</time>
      </trkpt>
      <trkpt lat="40.314067" lon="-4.702600">
        <ele>2031.0</ele>
        <time>2015-03-15T14:49:46Z</time>
      </trkpt>
      <trkpt lat="40.314017" lon="-4.702500">
        <ele>2028.0</ele>
        <time>2015-03-15T14:49:47Z</time>
      </trkpt>
      <trkpt lat="40.313967" lon="-4.702383">
        <ele>2026.0</ele>
        <time>2015-03-15T14:49:48Z</time>
      </trkpt>
      <trkpt lat="40.313917" lon="-4.702267">
        <ele>2023.0</ele>
        <time>2015-03-15T14:49:49Z</time>
      </trkpt>
      <trkpt lat="40.313867" lon="-4.702150">
        <ele>2021.0</ele>
        <time>2015-03-15T14:49:50Z</time>
      </trkpt>
      <trkpt lat="40.313817" lon="-4.702033">
        <ele>2020.0</ele>
        <time>2015-03-15T14:49:51Z</time>
      </trkpt>
      <trkpt lat="40.313750" lon="-4.701933">
        <ele>2018.0</ele>
        <time>2015-03-15T14:49:52Z</time>
      </trkpt>
      <trkpt lat="40.313700" lon="-4.701817">
        <ele>2016.0</ele>
        <time>2015-03-15T14:49:53Z</time>
      </trkpt>
      <trkpt lat="40.313633" lon="-4.701700">
        <ele>2014.0</ele>
        <time>2015-03-15T14:49:54Z</time>
      </trkpt>
      <trkpt lat="40.313583" lon="-4.701600">
        <ele>2011.0</ele>
        <time>2015-03-15T14:49:55Z</time>
      </trkpt>
      <trkpt lat="40.313533" lon="-4.701483">
        <ele>2009.0</ele>
        <time>2015-03-15T14:49:56Z</time>
      </trkpt>
      <trkpt lat="40.313467" lon="-4.701383">
        <ele>2007.0</ele>
        <time>2015-03-15T14:49:57Z</time>
      </trkpt>
      <trkpt lat="40.313417" lon="-4.701283">
        <ele>2005.0</ele>
        <time>2015-03-15T14:49:58Z</time>
      </trkpt>
      <trkpt lat="40.313350" lon="-4.701183">
        <ele>2003.0</ele>
        <time>2015-03-15T14:49:59Z</time>
      </trkpt>
      <trkpt lat="40.313283" lon="-4.701083">
        <ele>2002.0</ele>
        <time>2015-03-15T14:50:00Z</time>
      </trkpt>
      <trkpt lat="40.313233" lon="-4.700983">
        <ele>2000.0</ele>
        <time>2015-03-15T14:50:01Z</time>
      </trkpt>
      <trkpt lat="40.313167" lon="-4.700883">
        <ele>1998.0</ele>
        <time>2015-03-15T14:50:02Z</time>
      </trkpt>
      <trkpt lat="40.313117" lon="-4.700783">
        <ele>1996.0</ele>
        <time>2015-03-15T14:50:03Z</time>
      </trkpt>
      <trkpt lat="40.313050" lon="-4.700683">
        <ele>1994.0</ele>
        <time>2015-03-15T14:50:04Z</time>
      </trkpt>
      <trkpt lat="40.312983" lon="-4.700583">
        <ele>1993.0</ele>
        <time>2015-03-15T14:50:05Z</time>
      </trkpt>
      <trkpt lat="40.312933" lon="-4.700483">
        <ele>1992.0</ele>
        <time>2015-03-15T14:50:06Z</time>
      </trkpt>
      <trkpt lat="40.312867" lon="-4.700383">
        <ele>1990.0</ele>
        <time>2015-03-15T14:50:07Z</time>
      </trkpt>
      <trkpt lat="40.312817" lon="-4.700300">
        <ele>1989.0</ele>
        <time>2015-03-15T14:50:08Z</time>
      </trkpt>
      <trkpt lat="40.312750" lon="-4.700200">
        <ele>1987.0</ele>
        <time>2015-03-15T14:50:09Z</time>
      </trkpt>
      <trkpt lat="40.312683" lon="-4.700100">
        <ele>1985.0</ele>
        <time>2015-03-15T14:50:10Z</time>
      </trkpt>
      <trkpt lat="40.312633" lon="-4.700000">
        <ele>1984.0</ele>
        <time>2015-03-15T14:50:11Z</time>
      </trkpt>
      <trkpt lat="40.312567" lon="-4.699917">
        <ele>1982.0</ele>
        <time>2015-03-15T14:50:12Z</time>
      </trkpt>
      <trkpt lat="40.312500" lon="-4.699833">
        <ele>1981.0</ele>
        <time>2015-03-15T14:50:13Z</time>
      </trkpt>
      <trkpt lat="40.312450" lon="-4.699733">
        <ele>1979.0</ele>
        <time>2015-03-15T14:50:14Z</time>
      </trkpt>
      <trkpt lat="40.312383" lon="-4.699650">
        <ele>1977.0</ele>
        <time>2015-03-15T14:50:15Z</time>
      </trkpt>
      <trkpt lat="40.312317" lon="-4.699550">
        <ele>1975.0</ele>
        <time>2015-03-15T14:50:16Z</time>
      </trkpt>
      <trkpt lat="40.312267" lon="-4.699450">
        <ele>1973.0</ele>
        <time>2015-03-15T14:50:17Z</time>
      </trkpt>
      <trkpt lat="40.312200" lon="-4.699350">
        <ele>1971.0</ele>
        <time>2015-03-15T14:50:18Z</time>
      </trkpt>
      <trkpt lat="40.312150" lon="-4.699233">
        <ele>1970.0</ele>
        <time>2015-03-15T14:50:19Z</time>
      </trkpt>
      <trkpt lat="40.312100" lon="-4.699150">
        <ele>1968.0</ele>
        <time>2015-03-15T14:50:20Z</time>
      </trkpt>
      <trkpt lat="40.312033" lon="-4.699050">
        <ele>1966.0</ele>
        <time>2015-03-15T14:50:21Z</time>
      </trkpt>
      <trkpt lat="40.311983" lon="-4.698950">
        <ele>1964.0</ele>
        <time>2015-03-15T14:50:22Z</time>
      </trkpt>
      <trkpt lat="40.311917" lon="-4.698833">
        <ele>1961.0</ele>
        <time>2015-03-15T14:50:23Z</time>
      </trkpt>
      <trkpt lat="40.311867" lon="-4.698717">
        <ele>1960.0</ele>
        <time>2015-03-15T14:50:24Z</time>
      </trkpt>
      <trkpt lat="40.311800" lon="-4.698617">
        <ele>1958.0</ele>
        <time>2015-03-15T14:50:25Z</time>
      </trkpt>
      <trkpt lat="40.311750" lon="-4.698500">
        <ele>1957.0</ele>
        <time>2015-03-15T14:50:26Z</time>
      </trkpt>
      <trkpt lat="40.311700" lon="-4.698400">
        <ele>1955.0</ele>
        <time>2015-03-15T14:50:27Z</time>
      </trkpt>
      <trkpt lat="40.311650" lon="-4.698283">
        <ele>1953.0</ele>
        <time>2015-03-15T14:50:28Z</time>
      </trkpt>
      <trkpt lat="40.311583" lon="-4.698183">
        <ele>1951.0</ele>
        <time>2015-03-15T14:50:29Z</time>
      </trkpt>
      <trkpt lat="40.311533" lon="-4.698050">
        <ele>1949.0</ele>
        <time>2015-03-15T14:50:30Z</time>
      </trkpt>
      <trkpt lat="40.311483" lon="-4.697917">
        <ele>1947.0</ele>
        <time>2015-03-15T14:50:31Z</time>
      </trkpt>
      <trkpt lat="40.311433" lon="-4.697783">
        <ele>1946.0</ele>
        <time>2015-03-15T14:50:32Z</time>
      </trkpt>
      <trkpt lat="40.311367" lon="-4.697667">
        <ele>1946.0</ele>
        <time>2015-03-15T14:50:33Z</time>
      </trkpt>
      <trkpt lat="40.311317" lon="-4.697567">
        <ele>1945.0</ele>
        <time>2015-03-15T14:50:34Z</time>
      </trkpt>
      <trkpt lat="40.311267" lon="-4.697450">
        <ele>1944.0</ele>
        <time>2015-03-15T14:50:35Z</time>
      </trkpt>
      <trkpt lat="40.311200" lon="-4.697350">
        <ele>1942.0</ele>
        <time>2015-03-15T14:50:36Z</time>
      </trkpt>
      <trkpt lat="40.311150" lon="-4.697233">
        <ele>1941.0</ele>
        <time>2015-03-15T14:50:37Z</time>
      </trkpt>
      <trkpt lat="40.311083" lon="-4.697100">
        <ele>1939.0</ele>
        <time>2015-03-15T14:50:38Z</time>
      </trkpt>
      <trkpt lat="40.311033" lon="-4.696983">
        <ele>1938.0</ele>
        <time>2015-03-15T14:50:39Z</time>
      </trkpt>
      <trkpt lat="40.310983" lon="-4.696850">
        <ele>1938.0</ele>
        <time>2015-03-15T14:50:40Z</time>
      </trkpt>
      <trkpt lat="40.310933" lon="-4.696750">
        <ele>1937.0</ele>
        <time>2015-03-15T14:50:41Z</time>
      </trkpt>
      <trkpt lat="40.310883" lon="-4.696633">
        <ele>1936.0</ele>
        <time>2015-03-15T14:50:42Z</time>
      </trkpt>
      <trkpt lat="40.310833" lon="-4.696533">
        <ele>1934.0</ele>
        <time>2015-03-15T14:50:43Z</time>
      </trkpt>
      <trkpt lat="40.310783" lon="-4.696417">
        <ele>1932.0</ele>
        <time>2015-03-15T14:50:44Z</time>
      </trkpt>
      <trkpt lat="40.310733" lon="-4.696300">
        <ele>1930.0</ele>
        <time>2015-03-15T14:50:45Z</time>
      </trkpt>
      <trkpt lat="40.310683" lon="-4.696183">
        <ele>1929.0</ele>
        <time>2015-03-15T14:50:46Z</time>
      </trkpt>
      <trkpt lat="40.310617" lon="-4.696067">
        <ele>1927.0</ele>
        <time>2015-03-15T14:50:47Z</time>
      </trkpt>
      <trkpt lat="40.310567" lon="-4.695950">
        <ele>1926.0</ele>
        <time>2015-03-15T14:50:48Z</time>
      </trkpt>
      <trkpt lat="40.310500" lon="-4.695833">
        <ele>1925.0</ele>
        <time>2015-03-15T14:50:49Z</time>
      </trkpt>
      <trkpt lat="40.310450" lon="-4.695733">
        <ele>1924.0</ele>
        <time>2015-03-15T14:50:50Z</time>
      </trkpt>
      <trkpt lat="40.310400" lon="-4.695617">
        <ele>1922.0</ele>
        <time>2015-03-15T14:50:51Z</time>
      </trkpt>
      <trkpt lat="40.310333" lon="-4.695500">
        <ele>1920.0</ele>
        <time>2015-03-15T14:50:52Z</time>
      </trkpt>
      <trkpt lat="40.310283" lon="-4.695383">
        <ele>1919.0</ele>
        <time>2015-03-15T14:50:53Z</time>
      </trkpt>
      <trkpt lat="40.310217" lon="-4.695283">
        <ele>1917.0</ele>
        <time>2015-03-15T14:50:54Z</time>
      </trkpt>
      <trkpt lat="40.310150" lon="-4.695183">
        <ele>1916.0</ele>
        <time>2015-03-15T14:50:55Z</time>
      </trkpt>
      <trkpt lat="40.310083" lon="-4.695083">
        <ele>1914.0</ele>
        <time>2015-03-15T14:50:56Z</time>
      </trkpt>
      <trkpt lat="40.310017" lon="-4.695000">
        <ele>1912.0</ele>
        <time>2015-03-15T14:50:57Z</time>
      </trkpt>
      <trkpt lat="40.309950" lon="-4.694900">
        <ele>1910.0</ele>
        <time>2015-03-15T14:50:58Z</time>
      </trkpt>
      <trkpt lat="40.309900" lon="-4.694800">
        <ele>1907.0</ele>
        <time>2015-03-15T14:50:59Z</time>
      </trkpt>
      <trkpt lat="40.309817" lon="-4.694700">
        <ele>1904.0</ele>
        <time>2015-03-15T14:51:00Z</time>
      </trkpt>
      <trkpt lat="40.309750" lon="-4.694600">
        <ele>1902.0</ele>
        <time>2015-03-15T14:51:01Z</time>
      </trkpt>
      <trkpt lat="40.309667" lon="-4.694500">
        <ele>1901.0</ele>
        <time>2015-03-15T14:51:02Z</time>
      </trkpt>
      <trkpt lat="40.309600" lon="-4.694400">
        <ele>1899.0</ele>
        <time>2015-03-15T14:51:03Z</time>
      </trkpt>
      <trkpt lat="40.309533" lon="-4.694300">
        <ele>1898.0</ele>
        <time>2015-03-15T14:51:04Z</time>
      </trkpt>
      <trkpt lat="40.309467" lon="-4.694200">
        <ele>1897.0</ele>
        <time>2015-03-15T14:51:05Z</time>
      </trkpt>
      <trkpt lat="40.309400" lon="-4.694100">
        <ele>1896.0</ele>
        <time>2015-03-15T14:51:06Z</time>
      </trkpt>
      <trkpt lat="40.309350" lon="-4.693983">
        <ele>1895.0</ele>
        <time>2015-03-15T14:51:07Z</time>
      </trkpt>
      <trkpt lat="40.309300" lon="-4.693883">
        <ele>1893.0</ele>
        <time>2015-03-15T14:51:08Z</time>
      </trkpt>
      <trkpt lat="40.309250" lon="-4.693750">
        <ele>1891.0</ele>
        <time>2015-03-15T14:51:09Z</time>
      </trkpt>
      <trkpt lat="40.309200" lon="-4.693617">
        <ele>1889.0</ele>
        <time>2015-03-15T14:51:10Z</time>
      </trkpt>
      <trkpt lat="40.309150" lon="-4.693500">
        <ele>1887.0</ele>
        <time>2015-03-15T14:51:11Z</time>
      </trkpt>
      <trkpt lat="40.309100" lon="-4.693367">
        <ele>1886.0</ele>
        <time>2015-03-15T14:51:12Z</time>
      </trkpt>
      <trkpt lat="40.309050" lon="-4.693250">
        <ele>1885.0</ele>
        <time>2015-03-15T14:51:13Z</time>
      </trkpt>
      <trkpt lat="40.309000" lon="-4.693133">
        <ele>1884.0</ele>
        <time>2015-03-15T14:51:14Z</time>
      </trkpt>
      <trkpt lat="40.308950" lon="-4.693033">
        <ele>1882.0</ele>
        <time>2015-03-15T14:51:15Z</time>
      </trkpt>
      <trkpt lat="40.308917" lon="-4.692900">
        <ele>1880.0</ele>
        <time>2015-03-15T14:51:16Z</time>
      </trkpt>
      <trkpt lat="40.308867" lon="-4.692783">
        <ele>1877.0</ele>
        <time>2015-03-15T14:51:17Z</time>
      </trkpt>
      <trkpt lat="40.308817" lon="-4.692650">
        <ele>1876.0</ele>
        <time>2015-03-15T14:51:18Z</time>
      </trkpt>
      <trkpt lat="40.308767" lon="-4.692517">
        <ele>1874.0</ele>
        <time>2015-03-15T14:51:19Z</time>
      </trkpt>
      <trkpt lat="40.308717" lon="-4.692400">
        <ele>1873.0</ele>
        <time>2015-03-15T14:51:20Z</time>
      </trkpt>
      <trkpt lat="40.308667" lon="-4.692283">
        <ele>1871.0</ele>
        <time>2015-03-15T14:51:21Z</time>
      </trkpt>
      <trkpt lat="40.308617" lon="-4.692167">
        <ele>1870.0</ele>
        <time>2015-03-15T14:51:22Z</time>
      </trkpt>
      <trkpt lat="40.308567" lon="-4.692050">
        <ele>1868.0</ele>
        <time>2015-03-15T14:51:23Z</time>
      </trkpt>
      <trkpt lat="40.308517" lon="-4.691917">
        <ele>1865.0</ele>
        <time>2015-03-15T14:51:24Z</time>
      </trkpt>
      <trkpt lat="40.308467" lon="-4.691800">
        <ele>1862.0</ele>
        <time>2015-03-15T14:51:25Z</time>
      </trkpt>
      <trkpt lat="40.308433" lon="-4.691683">
        <ele>1858.0</ele>
        <time>2015-03-15T14:51:26Z</time>
      </trkpt>
      <trkpt lat="40.308383" lon="-4.691550">
        <ele>1854.0</ele>
        <time>2015-03-15T14:51:27Z</time>
      </trkpt>
      <trkpt lat="40.308333" lon="-4.691433">
        <ele>1851.0</ele>
        <time>2015-03-15T14:51:28Z</time>
      </trkpt>
      <trkpt lat="40.308267" lon="-4.691300">
        <ele>1848.0</ele>
        <time>2015-03-15T14:51:29Z</time>
      </trkpt>
      <trkpt lat="40.308217" lon="-4.691183">
        <ele>1845.0</ele>
        <time>2015-03-15T14:51:30Z</time>
      </trkpt>
      <trkpt lat="40.308167" lon="-4.691050">
        <ele>1843.0</ele>
        <time>2015-03-15T14:51:31Z</time>
      </trkpt>
      <trkpt lat="40.308100" lon="-4.690917">
        <ele>1841.0</ele>
        <time>2015-03-15T14:51:32Z</time>
      </trkpt>
      <trkpt lat="40.308050" lon="-4.690800">
        <ele>1839.0</ele>
        <time>2015-03-15T14:51:33Z</time>
      </trkpt>
      <trkpt lat="40.308000" lon="-4.690667">
        <ele>1838.0</ele>
        <time>2015-03-15T14:51:34Z</time>
      </trkpt>
      <trkpt lat="40.307933" lon="-4.690550">
        <ele>1836.0</ele>
        <time>2015-03-15T14:51:35Z</time>
      </trkpt>
      <trkpt lat="40.307883" lon="-4.690417">
        <ele>1834.0</ele>
        <time>2015-03-15T14:51:36Z</time>
      </trkpt>
      <trkpt lat="40.307833" lon="-4.690300">
        <ele>1832.0</ele>
        <time>2015-03-15T14:51:37Z</time>
      </trkpt>
      <trkpt lat="40.307783" lon="-4.690167">
        <ele>1830.0</ele>
        <time>2015-03-15T14:51:38Z</time>
      </trkpt>
      <trkpt lat="40.307733" lon="-4.690033">
        <ele>1829.0</ele>
        <time>2015-03-15T14:51:39Z</time>
      </trkpt>
      <trkpt lat="40.307683" lon="-4.689900">
        <ele>1827.0</ele>
        <time>2015-03-15T14:51:40Z</time>
      </trkpt>
      <trkpt lat="40.307633" lon="-4.689767">
        <ele>1825.0</ele>
        <time>2015-03-15T14:51:41Z</time>
      </trkpt>
      <trkpt lat="40.307600" lon="-4.689633">
        <ele>1823.0</ele>
        <time>2015-03-15T14:51:42Z</time>
      </trkpt>
      <trkpt lat="40.307550" lon="-4.689483">
        <ele>1822.0</ele>
        <time>2015-03-15T14:51:43Z</time>
      </trkpt>
      <trkpt lat="40.307500" lon="-4.689350">
        <ele>1820.0</ele>
        <time>2015-03-15T14:51:44Z</time>
      </trkpt>
      <trkpt lat="40.307450" lon="-4.689217">
        <ele>1818.0</ele>
        <time>2015-03-15T14:51:45Z</time>
      </trkpt>
      <trkpt lat="40.307400" lon="-4.689083">
        <ele>1815.0</ele>
        <time>2015-03-15T14:51:46Z</time>
      </trkpt>
      <trkpt lat="40.307350" lon="-4.688950">
        <ele>1814.0</ele>
        <time>2015-03-15T14:51:47Z</time>
      </trkpt>
      <trkpt lat="40.307300" lon="-4.688817">
        <ele>1812.0</ele>
        <time>2015-03-15T14:51:48Z</time>
      </trkpt>
      <trkpt lat="40.307250" lon="-4.688683">
        <ele>1811.0</ele>
        <time>2015-03-15T14:51:49Z</time>
      </trkpt>
      <trkpt lat="40.307200" lon="-4.688550">
        <ele>1809.0</ele>
        <time>2015-03-15T14:51:50Z</time>
      </trkpt>
      <trkpt lat="40.307150" lon="-4.688417">
        <ele>1807.0</ele>
        <time>2015-03-15T14:51:51Z</time>
      </trkpt>
      <trkpt lat="40.307117" lon="-4.688300">
        <ele>1805.0</ele>
        <time>2015-03-15T14:51:52Z</time>
      </trkpt>
      <trkpt lat="40.307067" lon="-4.688167">
        <ele>1803.0</ele>
        <time>2015-03-15T14:51:53Z</time>
      </trkpt>
      <trkpt lat="40.307033" lon="-4.688050">
        <ele>1801.0</ele>
        <time>2015-03-15T14:51:54Z</time>
      </trkpt>
      <trkpt lat="40.306983" lon="-4.687917">
        <ele>1799.0</ele>
        <time>2015-03-15T14:51:55Z</time>
      </trkpt>
      <trkpt lat="40.306950" lon="-4.687800">
        <ele>1797.0</ele>
        <time>2015-03-15T14:51:56Z</time>
      </trkpt>
      <trkpt lat="40.306917" lon="-4.687683">
        <ele>1795.0</ele>
        <time>2015-03-15T14:51:57Z</time>
      </trkpt>
      <trkpt lat="40.306883" lon="-4.687550">
        <ele>1793.0</ele>
        <time>2015-03-15T14:51:58Z</time>
      </trkpt>
      <trkpt lat="40.306850" lon="-4.687433">
        <ele>1790.0</ele>
        <time>2015-03-15T14:51:59Z</time>
      </trkpt>
      <trkpt lat="40.306833" lon="-4.687317">
        <ele>1788.0</ele>
        <time>2015-03-15T14:52:00Z</time>
      </trkpt>
      <trkpt lat="40.306800" lon="-4.687183">
        <ele>1786.0</ele>
        <time>2015-03-15T14:52:01Z</time>
      </trkpt>
      <trkpt lat="40.306783" lon="-4.687067">
        <ele>1784.0</ele>
        <time>2015-03-15T14:52:02Z</time>
      </trkpt>
      <trkpt lat="40.306767" lon="-4.686933">
        <ele>1783.0</ele>
        <time>2015-03-15T14:52:03Z</time>
      </trkpt>
      <trkpt lat="40.306733" lon="-4.686833">
        <ele>1782.0</ele>
        <time>2015-03-15T14:52:04Z</time>
      </trkpt>
      <trkpt lat="40.306717" lon="-4.686717">
        <ele>1780.0</ele>
        <time>2015-03-15T14:52:05Z</time>
      </trkpt>
      <trkpt lat="40.306683" lon="-4.686600">
        <ele>1778.0</ele>
        <time>2015-03-15T14:52:06Z</time>
      </trkpt>
      <trkpt lat="40.306650" lon="-4.686467">
        <ele>1776.0</ele>
        <time>2015-03-15T14:52:07Z</time>
      </trkpt>
      <trkpt lat="40.306600" lon="-4.686350">
        <ele>1774.0</ele>
        <time>2015-03-15T14:52:08Z</time>
      </trkpt>
      <trkpt lat="40.306567" lon="-4.686217">
        <ele>1771.0</ele>
        <time>2015-03-15T14:52:09Z</time>
      </trkpt>
      <trkpt lat="40.306517" lon="-4.686100">
        <ele>1769.0</ele>
        <time>2015-03-15T14:52:10Z</time>
      </trkpt>
      <trkpt lat="40.306483" lon="-4.685983">
        <ele>1766.0</ele>
        <time>2015-03-15T14:52:11Z</time>
      </trkpt>
      <trkpt lat="40.306450" lon="-4.685850">
        <ele>1764.0</ele>
        <time>2015-03-15T14:52:12Z</time>
      </trkpt>
      <trkpt lat="40.306400" lon="-4.685733">
        <ele>1762.0</ele>
        <time>2015-03-15T14:52:13Z</time>
      </trkpt>
      <trkpt lat="40.306367" lon="-4.685617">
        <ele>1760.0</ele>
        <time>2015-03-15T14:52:14Z</time>
      </trkpt>
      <trkpt lat="40.306317" lon="-4.685517">
        <ele>1757.0</ele>
        <time>2015-03-15T14:52:15Z</time>
      </trkpt>
      <trkpt lat="40.306267" lon="-4.685417">
        <ele>1754.0</ele>
        <time>2015-03-15T14:52:16Z</time>
      </trkpt>
      <trkpt lat="40.306217" lon="-4.685300">
        <ele>1750.0</ele>
        <time>2015-03-15T14:52:17Z</time>
      </trkpt>
      <trkpt lat="40.306183" lon="-4.685183">
        <ele>1747.0</ele>
        <time>2015-03-15T14:52:18Z</time>
      </trkpt>
      <trkpt lat="40.306133" lon="-4.685067">
        <ele>1744.0</ele>
        <time>2015-03-15T14:52:19Z</time>
      </trkpt>
      <trkpt lat="40.306083" lon="-4.684933">
        <ele>1742.0</ele>
        <time>2015-03-15T14:52:20Z</time>
      </trkpt>
      <trkpt lat="40.306033" lon="-4.684817">
        <ele>1740.0</ele>
        <time>2015-03-15T14:52:21Z</time>
      </trkpt>
      <trkpt lat="40.305983" lon="-4.684717">
        <ele>1737.0</ele>
        <time>2015-03-15T14:52:22Z</time>
      </trkpt>
      <trkpt lat="40.305933" lon="-4.684600">
        <ele>1735.0</ele>
        <time>2015-03-15T14:52:23Z</time>
      </trkpt>
      <trkpt lat="40.305883" lon="-4.684500">
        <ele>1732.0</ele>
        <time>2015-03-15T14:52:24Z</time>
      </trkpt>
      <trkpt lat="40.305817" lon="-4.684383">
        <ele>1729.0</ele>
        <time>2015-03-15T14:52:25Z</time>
      </trkpt>
      <trkpt lat="40.305783" lon="-4.684250">
        <ele>1726.0</ele>
        <time>2015-03-15T14:52:26Z</time>
      </trkpt>
      <trkpt lat="40.305733" lon="-4.684117">
        <ele>1724.0</ele>
        <time>2015-03-15T14:52:27Z</time>
      </trkpt>
      <trkpt lat="40.305700" lon="-4.684000">
        <ele>1724.0</ele>
        <time>2015-03-15T14:52:28Z</time>
      </trkpt>
      <trkpt lat="40.305650" lon="-4.683883">
        <ele>1724.0</ele>
        <time>2015-03-15T14:52:29Z</time>
      </trkpt>
      <trkpt lat="40.305617" lon="-4.683783">
        <ele>1723.0</ele>
        <time>2015-03-15T14:52:30Z</time>
      </trkpt>
      <trkpt lat="40.305600" lon="-4.683683">
        <ele>1722.0</ele>
        <time>2015-03-15T14:52:31Z</time>
      </trkpt>
      <trkpt lat="40.305567" lon="-4.683567">
        <ele>1720.0</ele>
        <time>2015-03-15T14:52:32Z</time>
      </trkpt>
      <trkpt lat="40.305533" lon="-4.683450">
        <ele>1717.0</ele>
        <time>2015-03-15T14:52:33Z</time>
      </trkpt>
      <trkpt lat="40.305500" lon="-4.683317">
        <ele>1715.0</ele>
        <time>2015-03-15T14:52:34Z</time>
      </trkpt>
      <trkpt lat="40.305467" lon="-4.683183">
        <ele>1714.0</ele>
        <time>2015-03-15T14:52:35Z</time>
      </trkpt>
      <trkpt lat="40.305433" lon="-4.683067">
        <ele>1713.0</ele>
        <time>2015-03-15T14:52:36Z</time>
      </trkpt>
      <trkpt lat="40.305383" lon="-4.682950">
        <ele>1712.0</ele>
        <time>2015-03-15T14:52:37Z</time>
      </trkpt>
      <trkpt lat="40.305350" lon="-4.682850">
        <ele>1711.0</ele>
        <time>2015-03-15T14:52:38Z</time>
      </trkpt>
      <trkpt lat="40.305317" lon="-4.682733">
        <ele>1709.0</ele>
        <time>2015-03-15T14:52:39Z</time>
      </trkpt>
      <trkpt lat="40.305283" lon="-4.682600">
        <ele>1707.0</ele>
        <time>2015-03-15T14:52:40Z</time>
      </trkpt>
      <trkpt lat="40.305250" lon="-4.682483">
        <ele>1706.0</ele>
        <time>2015-03-15T14:52:41Z</time>
      </trkpt>
      <trkpt lat="40.305217" lon="-4.682350">
        <ele>1705.0</ele>
        <time>2015-03-15T14:52:42Z</time>
      </trkpt>
      <trkpt lat="40.305200" lon="-4.682233">
        <ele>1704.0</ele>
        <time>2015-03-15T14:52:43Z</time>
      </trkpt>
      <trkpt lat="40.305183" lon="-4.682117">
        <ele>1703.0</ele>
        <time>2015-03-15T14:52:44Z</time>
      </trkpt>
      <trkpt lat="40.305167" lon="-4.682017">
        <ele>1702.0</ele>
        <time>2015-03-15T14:52:45Z</time>
      </trkpt>
      <trkpt lat="40.305150" lon="-4.681883">
        <ele>1700.0</ele>
        <time>2015-03-15T14:52:46Z</time>
      </trkpt>
      <trkpt lat="40.305133" lon="-4.681767">
        <ele>1699.0</ele>
        <time>2015-03-15T14:52:47Z</time>
      </trkpt>
      <trkpt lat="40.305117" lon="-4.681633">
        <ele>1698.0</ele>
        <time>2015-03-15T14:52:48Z</time>
      </trkpt>
      <trkpt lat="40.305100" lon="-4.681517">
        <ele>1698.0</ele>
        <time>2015-03-15T14:52:49Z</time>
      </trkpt>
      <trkpt lat="40.305083" lon="-4.681400">
        <ele>1698.0</ele>
        <time>2015-03-15T14:52:50Z</time>
      </trkpt>
      <trkpt lat="40.305067" lon="-4.681283">
        <ele>1697.0</ele>
        <time>2015-03-15T14:52:51Z</time>
      </trkpt>
      <trkpt lat="40.305067" lon="-4.681150">
        <ele>1696.0</ele>
        <time>2015-03-15T14:52:52Z</time>
      </trkpt>
      <trkpt lat="40.305033" lon="-4.681017">
        <ele>1694.0</ele>
        <time>2015-03-15T14:52:53Z</time>
      </trkpt>
      <trkpt lat="40.305033" lon="-4.680883">
        <ele>1694.0</ele>
        <time>2015-03-15T14:52:54Z</time>
      </trkpt>
      <trkpt lat="40.305017" lon="-4.680750">
        <ele>1695.0</ele>
        <time>2015-03-15T14:52:55Z</time>
      </trkpt>
      <trkpt lat="40.305000" lon="-4.680633">
        <ele>1696.0</ele>
        <time>2015-03-15T14:52:56Z</time>
      </trkpt>
      <trkpt lat="40.304983" lon="-4.680533">
        <ele>1696.0</ele>
        <time>2015-03-15T14:52:57Z</time>
      </trkpt>
      <trkpt lat="40.304950" lon="-4.680433">
        <ele>1696.0</ele>
        <time>2015-03-15T14:52:58Z</time>
      </trkpt>
      <trkpt lat="40.304933" lon="-4.680317">
        <ele>1696.0</ele>
        <time>2015-03-15T14:52:59Z</time>
      </trkpt>
      <trkpt lat="40.304900" lon="-4.680217">
        <ele>1695.0</ele>
        <time>2015-03-15T14:53:00Z</time>
      </trkpt>
      <trkpt lat="40.304850" lon="-4.680117">
        <ele>1695.0</ele>
        <time>2015-03-15T14:53:01Z</time>
      </trkpt>
      <trkpt lat="40.304800" lon="-4.680017">
        <ele>1694.0</ele>
        <time>2015-03-15T14:53:02Z</time>
      </trkpt>
      <trkpt lat="40.304750" lon="-4.679900">
        <ele>1693.0</ele>
        <time>2015-03-15T14:53:03Z</time>
      </trkpt>
      <trkpt lat="40.304700" lon="-4.679783">
        <ele>1693.0</ele>
        <time>2015-03-15T14:53:04Z</time>
      </trkpt>
      <trkpt lat="40.304650" lon="-4.679683">
        <ele>1692.0</ele>
        <time>2015-03-15T14:53:05Z</time>
      </trkpt>
      <trkpt lat="40.304600" lon="-4.679583">
        <ele>1692.0</ele>
        <time>2015-03-15T14:53:06Z</time>
      </trkpt>
      <trkpt lat="40.304533" lon="-4.679483">
        <ele>1691.0</ele>
        <time>2015-03-15T14:53:07Z</time>
      </trkpt>
      <trkpt lat="40.304467" lon="-4.679367">
        <ele>1690.0</ele>
        <time>2015-03-15T14:53:08Z</time>
      </trkpt>
      <trkpt lat="40.304417" lon="-4.679267">
        <ele>1689.0</ele>
        <time>2015-03-15T14:53:09Z</time>
      </trkpt>
      <trkpt lat="40.304350" lon="-4.679150">
        <ele>1688.0</ele>
        <time>2015-03-15T14:53:10Z</time>
      </trkpt>
      <trkpt lat="40.304283" lon="-4.679050">
        <ele>1687.0</ele>
        <time>2015-03-15T14:53:11Z</time>
      </trkpt>
      <trkpt lat="40.304217" lon="-4.678950">
        <ele>1686.0</ele>
        <time>2015-03-15T14:53:12Z</time>
      </trkpt>
      <trkpt lat="40.304150" lon="-4.678850">
        <ele>1685.0</ele>
        <time>2015-03-15T14:53:13Z</time>
      </trkpt>
      <trkpt lat="40.304083" lon="-4.678733">
        <ele>1683.0</ele>
        <time>2015-03-15T14:53:14Z</time>
      </trkpt>
      <trkpt lat="40.304017" lon="-4.678600">
        <ele>1682.0</ele>
        <time>2015-03-15T14:53:15Z</time>
      </trkpt>
      <trkpt lat="40.303950" lon="-4.678483">
        <ele>1682.0</ele>
        <time>2015-03-15T14:53:16Z</time>
      </trkpt>
      <trkpt lat="40.303867" lon="-4.678367">
        <ele>1684.0</ele>
        <time>2015-03-15T14:53:17Z</time>
      </trkpt>
      <trkpt lat="40.303800" lon="-4.678267">
        <ele>1685.0</ele>
        <time>2015-03-15T14:53:18Z</time>
      </trkpt>
      <trkpt lat="40.303733" lon="-4.678167">
        <ele>1685.0</ele>
        <time>2015-03-15T14:53:19Z</time>
      </trkpt>
      <trkpt lat="40.303667" lon="-4.678050">
        <ele>1685.0</ele>
        <time>2015-03-15T14:53:20Z</time>
      </trkpt>
      <trkpt lat="40.303600" lon="-4.677933">
        <ele>1686.0</ele>
        <time>2015-03-15T14:53:21Z</time>
      </trkpt>
      <trkpt lat="40.303533" lon="-4.677833">
        <ele>1687.0</ele>
        <time>2015-03-15T14:53:22Z</time>
      </trkpt>
      <trkpt lat="40.303450" lon="-4.677750">
        <ele>1687.0</ele>
        <time>2015-03-15T14:53:23Z</time>
      </trkpt>
      <trkpt lat="40.303367" lon="-4.677683">
        <ele>1687.0</ele>
        <time>2015-03-15T14:53:24Z</time>
      </trkpt>
      <trkpt lat="40.303267" lon="-4.677650">
        <ele>1687.0</ele>
        <time>2015-03-15T14:53:25Z</time>
      </trkpt>
      <trkpt lat="40.303167" lon="-4.677633">
        <ele>1687.0</ele>
        <time>2015-03-15T14:53:26Z</time>
      </trkpt>
      <trkpt lat="40.303067" lon="-4.677667">
        <ele>1688.0</ele>
        <time>2015-03-15T14:53:27Z</time>
      </trkpt>
      <trkpt lat="40.302983" lon="-4.677717">
        <ele>1689.0</ele>
        <time>2015-03-15T14:53:28Z</time>
      </trkpt>
      <trkpt lat="40.302917" lon="-4.677817">
        <ele>1690.0</ele>
        <time>2015-03-15T14:53:29Z</time>
      </trkpt>
      <trkpt lat="40.302883" lon="-4.677900">
        <ele>1691.0</ele>
        <time>2015-03-15T14:53:30Z</time>
      </trkpt>
      <trkpt lat="40.302867" lon="-4.678000">
        <ele>1692.0</ele>
        <time>2015-03-15T14:53:31Z</time>
      </trkpt>
      <trkpt lat="40.302883" lon="-4.678100">
        <ele>1692.0</ele>
        <time>2015-03-15T14:53:32Z</time>
      </trkpt>
      <trkpt lat="40.302917" lon="-4.678200">
        <ele>1693.0</ele>
        <time>2015-03-15T14:53:33Z</time>
      </trkpt>
      <trkpt lat="40.302983" lon="-4.678267">
        <ele>1693.0</ele>
        <time>2015-03-15T14:53:34Z</time>
      </trkpt>
      <trkpt lat="40.303067" lon="-4.678300">
        <ele>1694.0</ele>
        <time>2015-03-15T14:53:35Z</time>
      </trkpt>
      <trkpt lat="40.303167" lon="-4.678300">
        <ele>1695.0</ele>
        <time>2015-03-15T14:53:36Z</time>
      </trkpt>
      <trkpt lat="40.303267" lon="-4.678267">
        <ele>1696.0</ele>
        <time>2015-03-15T14:53:37Z</time>
      </trkpt>
      <trkpt lat="40.303350" lon="-4.678217">
        <ele>1698.0</ele>
        <time>2015-03-15T14:53:38Z</time>
      </trkpt>
      <trkpt lat="40.303417" lon="-4.678133">
        <ele>1699.0</ele>
        <time>2015-03-15T14:53:39Z</time>
      </trkpt>
      <trkpt lat="40.303467" lon="-4.678017">
        <ele>1700.0</ele>
        <time>2015-03-15T14:53:40Z</time>
      </trkpt>
      <trkpt lat="40.303500" lon="-4.677900">
        <ele>1701.0</ele>
        <time>2015-03-15T14:53:41Z</time>
      </trkpt>
      <trkpt lat="40.303517" lon="-4.677750">
        <ele>1701.0</ele>
        <time>2015-03-15T14:53:42Z</time>
      </trkpt>
      <trkpt lat="40.303517" lon="-4.677600">
        <ele>1700.0</ele>
        <time>2015-03-15T14:53:43Z</time>
      </trkpt>
      <trkpt lat="40.303467" lon="-4.677467">
        <ele>1699.0</ele>
        <time>2015-03-15T14:53:44Z</time>
      </trkpt>
      <trkpt lat="40.303400" lon="-4.677333">
        <ele>1699.0</ele>
        <time>2015-03-15T14:53:45Z</time>
      </trkpt>
      <trkpt lat="40.303317" lon="-4.677250">
        <ele>1699.0</ele>
        <time>2015-03-15T14:53:46Z</time>
      </trkpt>
      <trkpt lat="40.303217" lon="-4.677183">
        <ele>1700.0</ele>
        <time>2015-03-15T14:53:47Z</time>
      </trkpt>
      <trkpt lat="40.303117" lon="-4.677150">
        <ele>1701.0</ele>
        <time>2015-03-15T14:53:48Z</time>
      </trkpt>
      <trkpt lat="40.303017" lon="-4.677150">
        <ele>1701.0</ele>
        <time>2015-03-15T14:53:49Z</time>
      </trkpt>
      <trkpt lat="40.302917" lon="-4.677183">
        <ele>1702.0</ele>
        <time>2015-03-15T14:53:50Z</time>
      </trkpt>
      <trkpt lat="40.302850" lon="-4.677233">
        <ele>1703.0</ele>
        <time>2015-03-15T14:53:51Z</time>
      </trkpt>
      <trkpt lat="40.302783" lon="-4.677317">
        <ele>1704.0</ele>
        <time>2015-03-15T14:53:52Z</time>
      </trkpt>
      <trkpt lat="40.302733" lon="-4.677400">
        <ele>1705.0</ele>
        <time>2015-03-15T14:53:53Z</time>
      </trkpt>
      <trkpt lat="40.302717" lon="-4.677517">
        <ele>1705.0</ele>
        <time>2015-03-15T14:53:54Z</time>
      </trkpt>
      <trkpt lat="40.302733" lon="-4.677617">
        <ele>1705.0</ele>
        <time>2015-03-15T14:53:55Z</time>
      </trkpt>
      <trkpt lat="40.302750" lon="-4.677717">
        <ele>1706.0</ele>
        <time>2015-03-15T14:53:56Z</time>
      </trkpt>
      <trkpt lat="40.302800" lon="-4.677817">
        <ele>1707.0</ele>
        <time>2015-03-15T14:53:57Z</time>
      </trkpt>
      <trkpt lat="40.302850" lon="-4.677883">
        <ele>1709.0</ele>
        <time>2015-03-15T14:53:58Z</time>
      </trkpt>
      <trkpt lat="40.302917" lon="-4.677933">
        <ele>1710.0</ele>
        <time>2015-03-15T14:53:59Z</time>
      </trkpt>
      <trkpt lat="40.302983" lon="-4.677950">
        <ele>1711.0</ele>
        <time>2015-03-15T14:54:00Z</time>
      </trkpt>
      <trkpt lat="40.303067" lon="-4.677967">
        <ele>1713.0</ele>
        <time>2015-03-15T14:54:01Z</time>
      </trkpt>
      <trkpt lat="40.303133" lon="-4.677950">
        <ele>1714.0</ele>
        <time>2015-03-15T14:54:02Z</time>
      </trkpt>
      <trkpt lat="40.303217" lon="-4.677933">
        <ele>1715.0</ele>
        <time>2015-03-15T14:54:03Z</time>
      </trkpt>
      <trkpt lat="40.303283" lon="-4.677867">
        <ele>1714.0</ele>
        <time>2015-03-15T14:54:04Z</time>
      </trkpt>
      <trkpt lat="40.303350" lon="-4.677783">
        <ele>1714.0</ele>
        <time>2015-03-15T14:54:05Z</time>
      </trkpt>
      <trkpt lat="40.303417" lon="-4.677667">
        <ele>1713.0</ele>
        <time>2015-03-15T14:54:06Z</time>
      </trkpt>
      <trkpt lat="40.303450" lon="-4.677533">
        <ele>1714.0</ele>
        <time>2015-03-15T14:54:07Z</time>
      </trkpt>
      <trkpt lat="40.303483" lon="-4.677400">
        <ele>1716.0</ele>
        <time>2015-03-15T14:54:08Z</time>
      </trkpt>
      <trkpt lat="40.303483" lon="-4.677250">
        <ele>1717.0</ele>
        <time>2015-03-15T14:54:09Z</time>
      </trkpt>
      <trkpt lat="40.303483" lon="-4.677117">
        <ele>1718.0</ele>
        <time>2015-03-15T14:54:10Z</time>
      </trkpt>
      <trkpt lat="40.303450" lon="-4.676967">
        <ele>1718.0</ele>
        <time>2015-03-15T14:54:11Z</time>
      </trkpt>
      <trkpt lat="40.303417" lon="-4.676833">
        <ele>1717.0</ele>
        <time>2015-03-15T14:54:12Z</time>
      </trkpt>
      <trkpt lat="40.303333" lon="-4.676733">
        <ele>1716.0</ele>
        <time>2015-03-15T14:54:13Z</time>
      </trkpt>
      <trkpt lat="40.303233" lon="-4.676667">
        <ele>1715.0</ele>
        <time>2015-03-15T14:54:14Z</time>
      </trkpt>
      <trkpt lat="40.303133" lon="-4.676633">
        <ele>1714.0</ele>
        <time>2015-03-15T14:54:15Z</time>
      </trkpt>
      <trkpt lat="40.303017" lon="-4.676633">
        <ele>1714.0</ele>
        <time>2015-03-15T14:54:16Z</time>
      </trkpt>
      <trkpt lat="40.302933" lon="-4.676650">
        <ele>1714.0</ele>
        <time>2015-03-15T14:54:17Z</time>
      </trkpt>
      <trkpt lat="40.302833" lon="-4.676683">
        <ele>1715.0</ele>
        <time>2015-03-15T14:54:18Z</time>
      </trkpt>
      <trkpt lat="40.302767" lon="-4.676750">
        <ele>1716.0</ele>
        <time>2015-03-15T14:54:19Z</time>
      </trkpt>
      <trkpt lat="40.302683" lon="-4.676817">
        <ele>1716.0</ele>
        <time>2015-03-15T14:54:20Z</time>
      </trkpt>
      <trkpt lat="40.302617" lon="-4.676900">
        <ele>1716.0</ele>
        <time>2015-03-15T14:54:21Z</time>
      </trkpt>
      <trkpt lat="40.302583" lon="-4.677000">
        <ele>1717.0</ele>
        <time>2015-03-15T14:54:22Z</time>
      </trkpt>
      <trkpt lat="40.302550" lon="-4.677117">
        <ele>1718.0</ele>
        <time>2015-03-15T14:54:23Z</time>
      </trkpt>
      <trkpt lat="40.302550" lon="-4.677217">
        <ele>1718.0</ele>
        <time>2015-03-15T14:54:24Z</time>
      </trkpt>
      <trkpt lat="40.302583" lon="-4.677333">
        <ele>1718.0</ele>
        <time>2015-03-15T14:54:25Z</time>
      </trkpt>
      <trkpt lat="40.302617" lon="-4.677433">
        <ele>1719.0</ele>
        <time>2015-03-15T14:54:26Z</time>
      </trkpt>
      <trkpt lat="40.302667" lon="-4.677517">
        <ele>1720.0</ele>
        <time>2015-03-15T14:54:27Z</time>
      </trkpt>
      <trkpt lat="40.302733" lon="-4.677583">
        <ele>1721.0</ele>
        <time>2015-03-15T14:54:28Z</time>
      </trkpt>
      <trkpt lat="40.302800" lon="-4.677617">
        <ele>1721.0</ele>
        <time>2015-03-15T14:54:29Z</time>
      </trkpt>
      <trkpt lat="40.302900" lon="-4.677633">
        <ele>1721.0</ele>
        <time>2015-03-15T14:54:30Z</time>
      </trkpt>
      <trkpt lat="40.302983" lon="-4.677617">
        <ele>1721.0</ele>
        <time>2015-03-15T14:54:31Z</time>
      </trkpt>
      <trkpt lat="40.303083" lon="-4.677583">
        <ele>1722.0</ele>
        <time>2015-03-15T14:54:32Z</time>
      </trkpt>
      <trkpt lat="40.303167" lon="-4.677517">
        <ele>1723.0</ele>
        <time>2015-03-15T14:54:33Z</time>
      </trkpt>
      <trkpt lat="40.303233" lon="-4.677433">
        <ele>1723.0</ele>
        <time>2015-03-15T14:54:34Z</time>
      </trkpt>
      <trkpt lat="40.303283" lon="-4.677317">
        <ele>1724.0</ele>
        <time>2015-03-15T14:54:35Z</time>
      </trkpt>
      <trkpt lat="40.303317" lon="-4.677183">
        <ele>1724.0</ele>
        <time>2015-03-15T14:54:36Z</time>
      </trkpt>
      <trkpt lat="40.303333" lon="-4.677067">
        <ele>1725.0</ele>
        <time>2015-03-15T14:54:37Z</time>
      </trkpt>
      <trkpt lat="40.303333" lon="-4.676933">
        <ele>1725.0</ele>
        <time>2015-03-15T14:54:38Z</time>
      </trkpt>
      <trkpt lat="40.303333" lon="-4.676817">
        <ele>1725.0</ele>
        <time>2015-03-15T14:54:39Z</time>
      </trkpt>
      <trkpt lat="40.303317" lon="-4.676683">
        <ele>1725.0</ele>
        <time>2015-03-15T14:54:40Z</time>
      </trkpt>
      <trkpt lat="40.303283" lon="-4.676550">
        <ele>1724.0</ele>
        <time>2015-03-15T14:54:41Z</time>
      </trkpt>
      <trkpt lat="40.303250" lon="-4.676433">
        <ele>1723.0</ele>
        <time>2015-03-15T14:54:42Z</time>
      </trkpt>
      <trkpt lat="40.303183" lon="-4.676300">
        <ele>1722.0</ele>
        <time>2015-03-15T14:54:43Z</time>
      </trkpt>
      <trkpt lat="40.303100" lon="-4.676200">
        <ele>1721.0</ele>
        <time>2015-03-15T14:54:44Z</time>
      </trkpt>
      <trkpt lat="40.303017" lon="-4.676100">
        <ele>1721.0</ele>
        <time>2015-03-15T14:54:45Z</time>
      </trkpt>
      <trkpt lat="40.302917" lon="-4.676017">
        <ele>1722.0</ele>
        <time>2015-03-15T14:54:46Z</time>
      </trkpt>
      <trkpt lat="40.302833" lon="-4.675967">
        <ele>1722.0</ele>
        <time>2015-03-15T14:54:47Z</time>
      </trkpt>
      <trkpt lat="40.302733" lon="-4.675933">
        <ele>1722.0</ele>
        <time>2015-03-15T14:54:48Z</time>
      </trkpt>
      <trkpt lat="40.302650" lon="-4.675917">
        <ele>1722.0</ele>
        <time>2015-03-15T14:54:49Z</time>
      </trkpt>
      <trkpt lat="40.302533" lon="-4.675900">
        <ele>1722.0</ele>
        <time>2015-03-15T14:54:50Z</time>
      </trkpt>
      <trkpt lat="40.302417" lon="-4.675867">
        <ele>1723.0</ele>
        <time>2015-03-15T14:54:51Z</time>
      </trkpt>
      <trkpt lat="40.302317" lon="-4.675850">
        <ele>1725.0</ele>
        <time>2015-03-15T14:54:52Z</time>
      </trkpt>
      <trkpt lat="40.302217" lon="-4.675833">
        <ele>1727.0</ele>
        <time>2015-03-15T14:54:53Z</time>
      </trkpt>
      <trkpt lat="40.302117" lon="-4.675817">
        <ele>1730.0</ele>
        <time>2015-03-15T14:54:54Z</time>
      </trkpt>
      <trkpt lat="40.302033" lon="-4.675817">
        <ele>1732.0</ele>
        <time>2015-03-15T14:54:55Z</time>
      </trkpt>
      <trkpt lat="40.301950" lon="-4.675817">
        <ele>1733.0</ele>
        <time>2015-03-15T14:54:56Z</time>
      </trkpt>
      <trkpt lat="40.301883" lon="-4.675850">
        <ele>1733.0</ele>
        <time>2015-03-15T14:54:57Z</time>
      </trkpt>
      <trkpt lat="40.301817" lon="-4.675900">
        <ele>1733.0</ele>
        <time>2015-03-15T14:54:58Z</time>
      </trkpt>
      <trkpt lat="40.301767" lon="-4.675983">
        <ele>1732.0</ele>
        <time>2015-03-15T14:54:59Z</time>
      </trkpt>
      <trkpt lat="40.301733" lon="-4.676067">
        <ele>1732.0</ele>
        <time>2015-03-15T14:55:00Z</time>
      </trkpt>
      <trkpt lat="40.301717" lon="-4.676167">
        <ele>1732.0</ele>
        <time>2015-03-15T14:55:01Z</time>
      </trkpt>
      <trkpt lat="40.301733" lon="-4.676250">
        <ele>1732.0</ele>
        <time>2015-03-15T14:55:02Z</time>
      </trkpt>
      <trkpt lat="40.301767" lon="-4.676317">
        <ele>1732.0</ele>
        <time>2015-03-15T14:55:03Z</time>
      </trkpt>
      <trkpt lat="40.301800" lon="-4.676400">
        <ele>1732.0</ele>
        <time>2015-03-15T14:55:04Z</time>
      </trkpt>
      <trkpt lat="40.301850" lon="-4.676450">
        <ele>1732.0</ele>
        <time>2015-03-15T14:55:05Z</time>
      </trkpt>
      <trkpt lat="40.301917" lon="-4.676500">
        <ele>1732.0</ele>
        <time>2015-03-15T14:55:06Z</time>
      </trkpt>
      <trkpt lat="40.301967" lon="-4.676550">
        <ele>1732.0</ele>
        <time>2015-03-15T14:55:07Z</time>
      </trkpt>
      <trkpt lat="40.302050" lon="-4.676583">
        <ele>1732.0</ele>
        <time>2015-03-15T14:55:08Z</time>
      </trkpt>
      <trkpt lat="40.302117" lon="-4.676600">
        <ele>1732.0</ele>
        <time>2015-03-15T14:55:09Z</time>
      </trkpt>
      <trkpt lat="40.302200" lon="-4.676617">
        <ele>1732.0</ele>
        <time>2015-03-15T14:55:10Z</time>
      </trkpt>
      <trkpt lat="40.302300" lon="-4.676600">
        <ele>1732.0</ele>
        <time>2015-03-15T14:55:11Z</time>
      </trkpt>
      <trkpt lat="40.302383" lon="-4.676583">
        <ele>1732.0</ele>
        <time>2015-03-15T14:55:12Z</time>
      </trkpt>
      <trkpt lat="40.302483" lon="-4.676550">
        <ele>1734.0</ele>
        <time>2015-03-15T14:55:13Z</time>
      </trkpt>
      <trkpt lat="40.302567" lon="-4.676500">
        <ele>1736.0</ele>
        <time>2015-03-15T14:55:14Z</time>
      </trkpt>
      <trkpt lat="40.302650" lon="-4.676450">
        <ele>1737.0</ele>
        <time>2015-03-15T14:55:15Z</time>
      </trkpt>
      <trkpt lat="40.302717" lon="-4.676367">
        <ele>1739.0</ele>
        <time>2015-03-15T14:55:16Z</time>
      </trkpt>
      <trkpt lat="40.302783" lon="-4.676283">
        <ele>1740.0</ele>
        <time>2015-03-15T14:55:17Z</time>
      </trkpt>
      <trkpt lat="40.302833" lon="-4.676183">
        <ele>1740.0</ele>
        <time>2015-03-15T14:55:18Z</time>
      </trkpt>
      <trkpt lat="40.302867" lon="-4.676067">
        <ele>1741.0</ele>
        <time>2015-03-15T14:55:19Z</time>
      </trkpt>
      <trkpt lat="40.302900" lon="-4.675950">
        <ele>1741.0</ele>
        <time>2015-03-15T14:55:20Z</time>
      </trkpt>
      <trkpt lat="40.302933" lon="-4.675833">
        <ele>1741.0</ele>
        <time>2015-03-15T14:55:21Z</time>
      </trkpt>
      <trkpt lat="40.302933" lon="-4.675700">
        <ele>1740.0</ele>
        <time>2015-03-15T14:55:22Z</time>
      </trkpt>
      <trkpt lat="40.302933" lon="-4.675567">
        <ele>1739.0</ele>
        <time>2015-03-15T14:55:23Z</time>
      </trkpt>
      <trkpt lat="40.302917" lon="-4.675433">
        <ele>1738.0</ele>
        <time>2015-03-15T14:55:24Z</time>
      </trkpt>
      <trkpt lat="40.302883" lon="-4.675300">
        <ele>1737.0</ele>
        <time>2015-03-15T14:55:25Z</time>
      </trkpt>
      <trkpt lat="40.302850" lon="-4.675167">
        <ele>1736.0</ele>
        <time>2015-03-15T14:55:26Z</time>
      </trkpt>
      <trkpt lat="40.302800" lon="-4.675050">
        <ele>1736.0</ele>
        <time>2015-03-15T14:55:27Z</time>
      </trkpt>
      <trkpt lat="40.302750" lon="-4.674933">
        <ele>1736.0</ele>
        <time>2015-03-15T14:55:28Z</time>
      </trkpt>
      <trkpt lat="40.302683" lon="-4.674817">
        <ele>1736.0</ele>
        <time>2015-03-15T14:55:29Z</time>
      </trkpt>
      <trkpt lat="40.302617" lon="-4.674700">
        <ele>1735.0</ele>
        <time>2015-03-15T14:55:30Z</time>
      </trkpt>
      <trkpt lat="40.302567" lon="-4.674600">
        <ele>1735.0</ele>
        <time>2015-03-15T14:55:31Z</time>
      </trkpt>
      <trkpt lat="40.302483" lon="-4.674483">
        <ele>1734.0</ele>
        <time>2015-03-15T14:55:32Z</time>
      </trkpt>
      <trkpt lat="40.302400" lon="-4.674383">
        <ele>1733.0</ele>
        <time>2015-03-15T14:55:33Z</time>
      </trkpt>
      <trkpt lat="40.302317" lon="-4.674300">
        <ele>1733.0</ele>
        <time>2015-03-15T14:55:34Z</time>
      </trkpt>
      <trkpt lat="40.302233" lon="-4.674183">
        <ele>1733.0</ele>
        <time>2015-03-15T14:55:35Z</time>
      </trkpt>
      <trkpt lat="40.302167" lon="-4.674067">
        <ele>1733.0</ele>
        <time>2015-03-15T14:55:36Z</time>
      </trkpt>
      <trkpt lat="40.302100" lon="-4.673933">
        <ele>1733.0</ele>
        <time>2015-03-15T14:55:37Z</time>
      </trkpt>
      <trkpt lat="40.302033" lon="-4.673817">
        <ele>1733.0</ele>
        <time>2015-03-15T14:55:38Z</time>
      </trkpt>
      <trkpt lat="40.301967" lon="-4.673700">
        <ele>1733.0</ele>
        <time>2015-03-15T14:55:39Z</time>
      </trkpt>
      <trkpt lat="40.301900" lon="-4.673583">
        <ele>1733.0</ele>
        <time>2015-03-15T14:55:40Z</time>
      </trkpt>
      <trkpt lat="40.301833" lon="-4.673467">
        <ele>1733.0</ele>
        <time>2015-03-15T14:55:41Z</time>
      </trkpt>
      <trkpt lat="40.301783" lon="-4.673333">
        <ele>1733.0</ele>
        <time>2015-03-15T14:55:42Z</time>
      </trkpt>
      <trkpt lat="40.301733" lon="-4.673200">
        <ele>1733.0</ele>
        <time>2015-03-15T14:55:43Z</time>
      </trkpt>
      <trkpt lat="40.301667" lon="-4.673067">
        <ele>1732.0</ele>
        <time>2015-03-15T14:55:44Z</time>
      </trkpt>
      <trkpt lat="40.301617" lon="-4.672950">
        <ele>1732.0</ele>
        <time>2015-03-15T14:55:45Z</time>
      </trkpt>
      <trkpt lat="40.301550" lon="-4.672817">
        <ele>1731.0</ele>
        <time>2015-03-15T14:55:46Z</time>
      </trkpt>
      <trkpt lat="40.301483" lon="-4.672700">
        <ele>1730.0</ele>
        <time>2015-03-15T14:55:47Z</time>
      </trkpt>
      <trkpt lat="40.301433" lon="-4.672583">
        <ele>1728.0</ele>
        <time>2015-03-15T14:55:48Z</time>
      </trkpt>
      <trkpt lat="40.301350" lon="-4.672450">
        <ele>1726.0</ele>
        <time>2015-03-15T14:55:49Z</time>
      </trkpt>
      <trkpt lat="40.301283" lon="-4.672333">
        <ele>1725.0</ele>
        <time>2015-03-15T14:55:50Z</time>
      </trkpt>
      <trkpt lat="40.301217" lon="-4.672200">
        <ele>1724.0</ele>
        <time>2015-03-15T14:55:51Z</time>
      </trkpt>
      <trkpt lat="40.301150" lon="-4.672083">
        <ele>1723.0</ele>
        <time>2015-03-15T14:55:52Z</time>
      </trkpt>
      <trkpt lat="40.301083" lon="-4.671950">
        <ele>1722.0</ele>
        <time>2015-03-15T14:55:53Z</time>
      </trkpt>
      <trkpt lat="40.301033" lon="-4.671817">
        <ele>1721.0</ele>
        <time>2015-03-15T14:55:54Z</time>
      </trkpt>
      <trkpt lat="40.301000" lon="-4.671700">
        <ele>1719.0</ele>
        <time>2015-03-15T14:55:55Z</time>
      </trkpt>
      <trkpt lat="40.300950" lon="-4.671583">
        <ele>1717.0</ele>
        <time>2015-03-15T14:55:56Z</time>
      </trkpt>
      <trkpt lat="40.300900" lon="-4.671483">
        <ele>1713.0</ele>
        <time>2015-03-15T14:55:57Z</time>
      </trkpt>
      <trkpt lat="40.300850" lon="-4.671367">
        <ele>1710.0</ele>
        <time>2015-03-15T14:55:58Z</time>
      </trkpt>
      <trkpt lat="40.300817" lon="-4.671250">
        <ele>1706.0</ele>
        <time>2015-03-15T14:55:59Z</time>
      </trkpt>
      <trkpt lat="40.300767" lon="-4.671117">
        <ele>1702.0</ele>
        <time>2015-03-15T14:56:00Z</time>
      </trkpt>
      <trkpt lat="40.300733" lon="-4.670983">
        <ele>1698.0</ele>
        <time>2015-03-15T14:56:01Z</time>
      </trkpt>
      <trkpt lat="40.300683" lon="-4.670850">
        <ele>1695.0</ele>
        <time>2015-03-15T14:56:02Z</time>
      </trkpt>
      <trkpt lat="40.300617" lon="-4.670733">
        <ele>1691.0</ele>
        <time>2015-03-15T14:56:03Z</time>
      </trkpt>
      <trkpt lat="40.300567" lon="-4.670617">
        <ele>1688.0</ele>
        <time>2015-03-15T14:56:04Z</time>
      </trkpt>
      <trkpt lat="40.300517" lon="-4.670517">
        <ele>1685.0</ele>
        <time>2015-03-15T14:56:05Z</time>
      </trkpt>
      <trkpt lat="40.300450" lon="-4.670400">
        <ele>1681.0</ele>
        <time>2015-03-15T14:56:06Z</time>
      </trkpt>
      <trkpt lat="40.300400" lon="-4.670283">
        <ele>1677.0</ele>
        <time>2015-03-15T14:56:07Z</time>
      </trkpt>
      <trkpt lat="40.300333" lon="-4.670167">
        <ele>1673.0</ele>
        <time>2015-03-15T14:56:08Z</time>
      </trkpt>
      <trkpt lat="40.300283" lon="-4.670033">
        <ele>1669.0</ele>
        <time>2015-03-15T14:56:09Z</time>
      </trkpt>
      <trkpt lat="40.300233" lon="-4.669917">
        <ele>1665.0</ele>
        <time>2015-03-15T14:56:10Z</time>
      </trkpt>
      <trkpt lat="40.300183" lon="-4.669767">
        <ele>1662.0</ele>
        <time>2015-03-15T14:56:11Z</time>
      </trkpt>
      <trkpt lat="40.300133" lon="-4.669633">
        <ele>1659.0</ele>
        <time>2015-03-15T14:56:12Z</time>
      </trkpt>
      <trkpt lat="40.300100" lon="-4.669483">
        <ele>1656.0</ele>
        <time>2015-03-15T14:56:13Z</time>
      </trkpt>
      <trkpt lat="40.300050" lon="-4.669350">
        <ele>1655.0</ele>
        <time>2015-03-15T14:56:14Z</time>
      </trkpt>
      <trkpt lat="40.300017" lon="-4.669217">
        <ele>1653.0</ele>
        <time>2015-03-15T14:56:15Z</time>
      </trkpt>
      <trkpt lat="40.299983" lon="-4.669100">
        <ele>1651.0</ele>
        <time>2015-03-15T14:56:16Z</time>
      </trkpt>
      <trkpt lat="40.299950" lon="-4.668967">
        <ele>1649.0</ele>
        <time>2015-03-15T14:56:17Z</time>
      </trkpt>
      <trkpt lat="40.299900" lon="-4.668833">
        <ele>1646.0</ele>
        <time>2015-03-15T14:56:18Z</time>
      </trkpt>
      <trkpt lat="40.299833" lon="-4.668700">
        <ele>1643.0</ele>
        <time>2015-03-15T14:56:19Z</time>
      </trkpt>
      <trkpt lat="40.299783" lon="-4.668567">
        <ele>1640.0</ele>
        <time>2015-03-15T14:56:20Z</time>
      </trkpt>
      <trkpt lat="40.299733" lon="-4.668450">
        <ele>1639.0</ele>
        <time>2015-03-15T14:56:21Z</time>
      </trkpt>
      <trkpt lat="40.299683" lon="-4.668333">
        <ele>1636.0</ele>
        <time>2015-03-15T14:56:22Z</time>
      </trkpt>
      <trkpt lat="40.299633" lon="-4.668217">
        <ele>1634.0</ele>
        <time>2015-03-15T14:56:23Z</time>
      </trkpt>
      <trkpt lat="40.299583" lon="-4.668100">
        <ele>1630.0</ele>
        <time>2015-03-15T14:56:24Z</time>
      </trkpt>
      <trkpt lat="40.299517" lon="-4.667967">
        <ele>1627.0</ele>
        <time>2015-03-15T14:56:25Z</time>
      </trkpt>
      <trkpt lat="40.299467" lon="-4.667850">
        <ele>1624.0</ele>
        <time>2015-03-15T14:56:26Z</time>
      </trkpt>
      <trkpt lat="40.299400" lon="-4.667733">
        <ele>1623.0</ele>
        <time>2015-03-15T14:56:27Z</time>
      </trkpt>
      <trkpt lat="40.299333" lon="-4.667617">
        <ele>1622.0</ele>
        <time>2015-03-15T14:56:28Z</time>
      </trkpt>
      <trkpt lat="40.299267" lon="-4.667500">
        <ele>1621.0</ele>
        <time>2015-03-15T14:56:29Z</time>
      </trkpt>
      <trkpt lat="40.299217" lon="-4.667367">
        <ele>1619.0</ele>
        <time>2015-03-15T14:56:30Z</time>
      </trkpt>
      <trkpt lat="40.299167" lon="-4.667250">
        <ele>1617.0</ele>
        <time>2015-03-15T14:56:31Z</time>
      </trkpt>
      <trkpt lat="40.299133" lon="-4.667117">
        <ele>1615.0</ele>
        <time>2015-03-15T14:56:32Z</time>
      </trkpt>
      <trkpt lat="40.299117" lon="-4.667000">
        <ele>1612.0</ele>
        <time>2015-03-15T14:56:33Z</time>
      </trkpt>
      <trkpt lat="40.299083" lon="-4.666883">
        <ele>1610.0</ele>
        <time>2015-03-15T14:56:34Z</time>
      </trkpt>
      <trkpt lat="40.299050" lon="-4.666767">
        <ele>1607.0</ele>
        <time>2015-03-15T14:56:35Z</time>
      </trkpt>
      <trkpt lat="40.299000" lon="-4.666650">
        <ele>1604.0</ele>
        <time>2015-03-15T14:56:36Z</time>
      </trkpt>
      <trkpt lat="40.298967" lon="-4.666517">
        <ele>1601.0</ele>
        <time>2015-03-15T14:56:37Z</time>
      </trkpt>
      <trkpt lat="40.298933" lon="-4.666383">
        <ele>1598.0</ele>
        <time>2015-03-15T14:56:38Z</time>
      </trkpt>
      <trkpt lat="40.298917" lon="-4.666250">
        <ele>1598.0</ele>
        <time>2015-03-15T14:56:39Z</time>
      </trkpt>
      <trkpt lat="40.298883" lon="-4.666117">
        <ele>1598.0</ele>
        <time>2015-03-15T14:56:40Z</time>
      </trkpt>
      <trkpt lat="40.298867" lon="-4.666000">
        <ele>1598.0</ele>
        <time>2015-03-15T14:56:41Z</time>
      </trkpt>
      <trkpt lat="40.298867" lon="-4.665883">
        <ele>1598.0</ele>
        <time>2015-03-15T14:56:42Z</time>
      </trkpt>
      <trkpt lat="40.298850" lon="-4.665783">
        <ele>1597.0</ele>
        <time>2015-03-15T14:56:43Z</time>
      </trkpt>
      <trkpt lat="40.298833" lon="-4.665667">
        <ele>1596.0</ele>
        <time>2015-03-15T14:56:44Z</time>
      </trkpt>
      <trkpt lat="40.298800" lon="-4.665550">
        <ele>1594.0</ele>
        <time>2015-03-15T14:56:45Z</time>
      </trkpt>
      <trkpt lat="40.298783" lon="-4.665433">
        <ele>1592.0</ele>
        <time>2015-03-15T14:56:46Z</time>
      </trkpt>
      <trkpt lat="40.298750" lon="-4.665317">
        <ele>1590.0</ele>
        <time>2015-03-15T14:56:47Z</time>
      </trkpt>
      <trkpt lat="40.298717" lon="-4.665200">
        <ele>1588.0</ele>
        <time>2015-03-15T14:56:48Z</time>
      </trkpt>
      <trkpt lat="40.298700" lon="-4.665067">
        <ele>1586.0</ele>
        <time>2015-03-15T14:56:49Z</time>
      </trkpt>
      <trkpt lat="40.298667" lon="-4.664950">
        <ele>1584.0</ele>
        <time>2015-03-15T14:56:50Z</time>
      </trkpt>
      <trkpt lat="40.298633" lon="-4.664833">
        <ele>1582.0</ele>
        <time>2015-03-15T14:56:51Z</time>
      </trkpt>
      <trkpt lat="40.298600" lon="-4.664717">
        <ele>1580.0</ele>
        <time>2015-03-15T14:56:52Z</time>
      </trkpt>
      <trkpt lat="40.298567" lon="-4.664600">
        <ele>1578.0</ele>
        <time>2015-03-15T14:56:53Z</time>
      </trkpt>
      <trkpt lat="40.298533" lon="-4.664483">
        <ele>1577.0</ele>
        <time>2015-03-15T14:56:54Z</time>
      </trkpt>
      <trkpt lat="40.298500" lon="-4.664367">
        <ele>1576.0</ele>
        <time>2015-03-15T14:56:55Z</time>
      </trkpt>
      <trkpt lat="40.298467" lon="-4.664267">
        <ele>1575.0</ele>
        <time>2015-03-15T14:56:56Z</time>
      </trkpt>
      <trkpt lat="40.298450" lon="-4.664167">
        <ele>1573.0</ele>
        <time>2015-03-15T14:56:57Z</time>
      </trkpt>
      <trkpt lat="40.298417" lon="-4.664050">
        <ele>1570.0</ele>
        <time>2015-03-15T14:56:58Z</time>
      </trkpt>
      <trkpt lat="40.298400" lon="-4.663917">
        <ele>1567.0</ele>
        <time>2015-03-15T14:56:59Z</time>
      </trkpt>
      <trkpt lat="40.298367" lon="-4.663800">
        <ele>1565.0</ele>
        <time>2015-03-15T14:57:00Z</time>
      </trkpt>
      <trkpt lat="40.298350" lon="-4.663667">
        <ele>1563.0</ele>
        <time>2015-03-15T14:57:01Z</time>
      </trkpt>
      <trkpt lat="40.298333" lon="-4.663533">
        <ele>1561.0</ele>
        <time>2015-03-15T14:57:02Z</time>
      </trkpt>
      <trkpt lat="40.298317" lon="-4.663417">
        <ele>1560.0</ele>
        <time>2015-03-15T14:57:03Z</time>
      </trkpt>
      <trkpt lat="40.298283" lon="-4.663300">
        <ele>1558.0</ele>
        <time>2015-03-15T14:57:04Z</time>
      </trkpt>
      <trkpt lat="40.298267" lon="-4.663200">
        <ele>1555.0</ele>
        <time>2015-03-15T14:57:05Z</time>
      </trkpt>
      <trkpt lat="40.298233" lon="-4.663067">
        <ele>1552.0</ele>
        <time>2015-03-15T14:57:06Z</time>
      </trkpt>
      <trkpt lat="40.298200" lon="-4.662950">
        <ele>1549.0</ele>
        <time>2015-03-15T14:57:07Z</time>
      </trkpt>
      <trkpt lat="40.298183" lon="-4.662817">
        <ele>1547.0</ele>
        <time>2015-03-15T14:57:08Z</time>
      </trkpt>
      <trkpt lat="40.298150" lon="-4.662700">
        <ele>1545.0</ele>
        <time>2015-03-15T14:57:09Z</time>
      </trkpt>
      <trkpt lat="40.298117" lon="-4.662583">
        <ele>1543.0</ele>
        <time>2015-03-15T14:57:10Z</time>
      </trkpt>
      <trkpt lat="40.298083" lon="-4.662467">
        <ele>1541.0</ele>
        <time>2015-03-15T14:57:11Z</time>
      </trkpt>
      <trkpt lat="40.298050" lon="-4.662350">
        <ele>1539.0</ele>
        <time>2015-03-15T14:57:12Z</time>
      </trkpt>
      <trkpt lat="40.298017" lon="-4.662250">
        <ele>1537.0</ele>
        <time>2015-03-15T14:57:13Z</time>
      </trkpt>
      <trkpt lat="40.297983" lon="-4.662133">
        <ele>1534.0</ele>
        <time>2015-03-15T14:57:14Z</time>
      </trkpt>
      <trkpt lat="40.297950" lon="-4.662017">
        <ele>1532.0</ele>
        <time>2015-03-15T14:57:15Z</time>
      </trkpt>
      <trkpt lat="40.297917" lon="-4.661900">
        <ele>1530.0</ele>
        <time>2015-03-15T14:57:16Z</time>
      </trkpt>
      <trkpt lat="40.297867" lon="-4.661800">
        <ele>1528.0</ele>
        <time>2015-03-15T14:57:17Z</time>
      </trkpt>
      <trkpt lat="40.297833" lon="-4.661700">
        <ele>1526.0</ele>
        <time>2015-03-15T14:57:18Z</time>
      </trkpt>
      <trkpt lat="40.297783" lon="-4.661600">
        <ele>1525.0</ele>
        <time>2015-03-15T14:57:19Z</time>
      </trkpt>
      <trkpt lat="40.297750" lon="-4.661500">
        <ele>1523.0</ele>
        <time>2015-03-15T14:57:20Z</time>
      </trkpt>
      <trkpt lat="40.297700" lon="-4.661400">
        <ele>1521.0</ele>
        <time>2015-03-15T14:57:21Z</time>
      </trkpt>
      <trkpt lat="40.297650" lon="-4.661300">
        <ele>1519.0</ele>
        <time>2015-03-15T14:57:22Z</time>
      </trkpt>
      <trkpt lat="40.297600" lon="-4.661183">
        <ele>1517.0</ele>
        <time>2015-03-15T14:57:23Z</time>
      </trkpt>
      <trkpt lat="40.297550" lon="-4.661100">
        <ele>1516.0</ele>
        <time>2015-03-15T14:57:24Z</time>
      </trkpt>
      <trkpt lat="40.297500" lon="-4.661000">
        <ele>1515.0</ele>
        <time>2015-03-15T14:57:25Z</time>
      </trkpt>
      <trkpt lat="40.297467" lon="-4.660900">
        <ele>1513.0</ele>
        <time>2015-03-15T14:57:26Z</time>
      </trkpt>
      <trkpt lat="40.297417" lon="-4.660800">
        <ele>1511.0</ele>
        <time>2015-03-15T14:57:27Z</time>
      </trkpt>
      <trkpt lat="40.297367" lon="-4.660700">
        <ele>1509.0</ele>
        <time>2015-03-15T14:57:28Z</time>
      </trkpt>
      <trkpt lat="40.297317" lon="-4.660600">
        <ele>1507.0</ele>
        <time>2015-03-15T14:57:29Z</time>
      </trkpt>
      <trkpt lat="40.297267" lon="-4.660500">
        <ele>1506.0</ele>
        <time>2015-03-15T14:57:30Z</time>
      </trkpt>
      <trkpt lat="40.297200" lon="-4.660400">
        <ele>1505.0</ele>
        <time>2015-03-15T14:57:31Z</time>
      </trkpt>
      <trkpt lat="40.297150" lon="-4.660300">
        <ele>1504.0</ele>
        <time>2015-03-15T14:57:32Z</time>
      </trkpt>
      <trkpt lat="40.297117" lon="-4.660217">
        <ele>1503.0</ele>
        <time>2015-03-15T14:57:33Z</time>
      </trkpt>
      <trkpt lat="40.297067" lon="-4.660117">
        <ele>1502.0</ele>
        <time>2015-03-15T14:57:34Z</time>
      </trkpt>
      <trkpt lat="40.297017" lon="-4.660033">
        <ele>1500.0</ele>
        <time>2015-03-15T14:57:35Z</time>
      </trkpt>
      <trkpt lat="40.296967" lon="-4.659933">
        <ele>1498.0</ele>
        <time>2015-03-15T14:57:36Z</time>
      </trkpt>
      <trkpt lat="40.296900" lon="-4.659833">
        <ele>1496.0</ele>
        <time>2015-03-15T14:57:37Z</time>
      </trkpt>
      <trkpt lat="40.296850" lon="-4.659733">
        <ele>1495.0</ele>
        <time>2015-03-15T14:57:38Z</time>
      </trkpt>
      <trkpt lat="40.296783" lon="-4.659650">
        <ele>1495.0</ele>
        <time>2015-03-15T14:57:39Z</time>
      </trkpt>
      <trkpt lat="40.296733" lon="-4.659550">
        <ele>1494.0</ele>
        <time>2015-03-15T14:57:40Z</time>
      </trkpt>
      <trkpt lat="40.296683" lon="-4.659467">
        <ele>1492.0</ele>
        <time>2015-03-15T14:57:41Z</time>
      </trkpt>
      <trkpt lat="40.296633" lon="-4.659367">
        <ele>1491.0</ele>
        <time>2015-03-15T14:57:42Z</time>
      </trkpt>
      <trkpt lat="40.296600" lon="-4.659250">
        <ele>1489.0</ele>
        <time>2015-03-15T14:57:43Z</time>
      </trkpt>
      <trkpt lat="40.296550" lon="-4.659117">
        <ele>1487.0</ele>
        <time>2015-03-15T14:57:44Z</time>
      </trkpt>
      <trkpt lat="40.296500" lon="-4.659017">
        <ele>1486.0</ele>
        <time>2015-03-15T14:57:45Z</time>
      </trkpt>
      <trkpt lat="40.296450" lon="-4.658900">
        <ele>1484.0</ele>
        <time>2015-03-15T14:57:46Z</time>
      </trkpt>
      <trkpt lat="40.296417" lon="-4.658783">
        <ele>1483.0</ele>
        <time>2015-03-15T14:57:47Z</time>
      </trkpt>
      <trkpt lat="40.296383" lon="-4.658667">
        <ele>1481.0</ele>
        <time>2015-03-15T14:57:48Z</time>
      </trkpt>
      <trkpt lat="40.296333" lon="-4.658550">
        <ele>1479.0</ele>
        <time>2015-03-15T14:57:49Z</time>
      </trkpt>
      <trkpt lat="40.296283" lon="-4.658450">
        <ele>1477.0</ele>
        <time>2015-03-15T14:57:50Z</time>
      </trkpt>
      <trkpt lat="40.296233" lon="-4.658333">
        <ele>1475.0</ele>
        <time>2015-03-15T14:57:51Z</time>
      </trkpt>
      <trkpt lat="40.296183" lon="-4.658233">
        <ele>1474.0</ele>
        <time>2015-03-15T14:57:52Z</time>
      </trkpt>
      <trkpt lat="40.296133" lon="-4.658117">
        <ele>1473.0</ele>
        <time>2015-03-15T14:57:53Z</time>
      </trkpt>
      <trkpt lat="40.296083" lon="-4.658017">
        <ele>1471.0</ele>
        <time>2015-03-15T14:57:54Z</time>
      </trkpt>
      <trkpt lat="40.296050" lon="-4.657900">
        <ele>1470.0</ele>
        <time>2015-03-15T14:57:55Z</time>
      </trkpt>
      <trkpt lat="40.296000" lon="-4.657800">
        <ele>1468.0</ele>
        <time>2015-03-15T14:57:56Z</time>
      </trkpt>
      <trkpt lat="40.295950" lon="-4.657683">
        <ele>1467.0</ele>
        <time>2015-03-15T14:57:57Z</time>
      </trkpt>
      <trkpt lat="40.295900" lon="-4.657583">
        <ele>1466.0</ele>
        <time>2015-03-15T14:57:58Z</time>
      </trkpt>
      <trkpt lat="40.295867" lon="-4.657483">
        <ele>1464.0</ele>
        <time>2015-03-15T14:57:59Z</time>
      </trkpt>
      <trkpt lat="40.295817" lon="-4.657383">
        <ele>1462.0</ele>
        <time>2015-03-15T14:58:00Z</time>
      </trkpt>
      <trkpt lat="40.295767" lon="-4.657283">
        <ele>1460.0</ele>
        <time>2015-03-15T14:58:01Z</time>
      </trkpt>
      <trkpt lat="40.295733" lon="-4.657167">
        <ele>1459.0</ele>
        <time>2015-03-15T14:58:02Z</time>
      </trkpt>
      <trkpt lat="40.295683" lon="-4.657067">
        <ele>1457.0</ele>
        <time>2015-03-15T14:58:03Z</time>
      </trkpt>
      <trkpt lat="40.295633" lon="-4.656950">
        <ele>1456.0</ele>
        <time>2015-03-15T14:58:04Z</time>
      </trkpt>
      <trkpt lat="40.295583" lon="-4.656833">
        <ele>1455.0</ele>
        <time>2015-03-15T14:58:05Z</time>
      </trkpt>
      <trkpt lat="40.295533" lon="-4.656733">
        <ele>1454.0</ele>
        <time>2015-03-15T14:58:06Z</time>
      </trkpt>
      <trkpt lat="40.295483" lon="-4.656617">
        <ele>1453.0</ele>
        <time>2015-03-15T14:58:07Z</time>
      </trkpt>
      <trkpt lat="40.295433" lon="-4.656500">
        <ele>1451.0</ele>
        <time>2015-03-15T14:58:08Z</time>
      </trkpt>
      <trkpt lat="40.295383" lon="-4.656383">
        <ele>1449.0</ele>
        <time>2015-03-15T14:58:09Z</time>
      </trkpt>
      <trkpt lat="40.295333" lon="-4.656267">
        <ele>1448.0</ele>
        <time>2015-03-15T14:58:10Z</time>
      </trkpt>
      <trkpt lat="40.295283" lon="-4.656150">
        <ele>1446.0</ele>
        <time>2015-03-15T14:58:11Z</time>
      </trkpt>
      <trkpt lat="40.295233" lon="-4.656033">
        <ele>1445.0</ele>
        <time>2015-03-15T14:58:12Z</time>
      </trkpt>
      <trkpt lat="40.295183" lon="-4.655917">
        <ele>1444.0</ele>
        <time>2015-03-15T14:58:13Z</time>
      </trkpt>
      <trkpt lat="40.295133" lon="-4.655817">
        <ele>1443.0</ele>
        <time>2015-03-15T14:58:14Z</time>
      </trkpt>
      <trkpt lat="40.295083" lon="-4.655700">
        <ele>1443.0</ele>
        <time>2015-03-15T14:58:15Z</time>
      </trkpt>
      <trkpt lat="40.295033" lon="-4.655583">
        <ele>1442.0</ele>
        <time>2015-03-15T14:58:16Z</time>
      </trkpt>
      <trkpt lat="40.294983" lon="-4.655483">
        <ele>1441.0</ele>
        <time>2015-03-15T14:58:17Z</time>
      </trkpt>
      <trkpt lat="40.294933" lon="-4.655383">
        <ele>1440.0</ele>
        <time>2015-03-15T14:58:18Z</time>
      </trkpt>
      <trkpt lat="40.294867" lon="-4.655267">
        <ele>1438.0</ele>
        <time>2015-03-15T14:58:19Z</time>
      </trkpt>
      <trkpt lat="40.294817" lon="-4.655167">
        <ele>1436.0</ele>
        <time>2015-03-15T14:58:20Z</time>
      </trkpt>
      <trkpt lat="40.294767" lon="-4.655050">
        <ele>1435.0</ele>
        <time>2015-03-15T14:58:21Z</time>
      </trkpt>
      <trkpt lat="40.294733" lon="-4.654933">
        <ele>1433.0</ele>
        <time>2015-03-15T14:58:22Z</time>
      </trkpt>
      <trkpt lat="40.294667" lon="-4.654833">
        <ele>1431.0</ele>
        <time>2015-03-15T14:58:23Z</time>
      </trkpt>
      <trkpt lat="40.294617" lon="-4.654717">
        <ele>1429.0</ele>
        <time>2015-03-15T14:58:24Z</time>
      </trkpt>
      <trkpt lat="40.294550" lon="-4.654617">
        <ele>1427.0</ele>
        <time>2015-03-15T14:58:25Z</time>
      </trkpt>
      <trkpt lat="40.294500" lon="-4.654517">
        <ele>1425.0</ele>
        <time>2015-03-15T14:58:26Z</time>
      </trkpt>
      <trkpt lat="40.294450" lon="-4.654400">
        <ele>1423.0</ele>
        <time>2015-03-15T14:58:27Z</time>
      </trkpt>
      <trkpt lat="40.294383" lon="-4.654283">
        <ele>1421.0</ele>
        <time>2015-03-15T14:58:28Z</time>
      </trkpt>
      <trkpt lat="40.294333" lon="-4.654183">
        <ele>1419.0</ele>
        <time>2015-03-15T14:58:29Z</time>
      </trkpt>
      <trkpt lat="40.294283" lon="-4.654083">
        <ele>1416.0</ele>
        <time>2015-03-15T14:58:30Z</time>
      </trkpt>
      <trkpt lat="40.294233" lon="-4.653967">
        <ele>1414.0</ele>
        <time>2015-03-15T14:58:31Z</time>
      </trkpt>
      <trkpt lat="40.294183" lon="-4.653850">
        <ele>1412.0</ele>
        <time>2015-03-15T14:58:32Z</time>
      </trkpt>
      <trkpt lat="40.294133" lon="-4.653733">
        <ele>1410.0</ele>
        <time>2015-03-15T14:58:33Z</time>
      </trkpt>
      <trkpt lat="40.294083" lon="-4.653617">
        <ele>1408.0</ele>
        <time>2015-03-15T14:58:34Z</time>
      </trkpt>
      <trkpt lat="40.294033" lon="-4.653483">
        <ele>1405.0</ele>
        <time>2015-03-15T14:58:35Z</time>
      </trkpt>
      <trkpt lat="40.294000" lon="-4.653367">
        <ele>1403.0</ele>
        <time>2015-03-15T14:58:36Z</time>
      </trkpt>
      <trkpt lat="40.293950" lon="-4.653233">
        <ele>1401.0</ele>
        <time>2015-03-15T14:58:37Z</time>
      </trkpt>
      <trkpt lat="40.293917" lon="-4.653100">
        <ele>1399.0</ele>
        <time>2015-03-15T14:58:38Z</time>
      </trkpt>
      <trkpt lat="40.293883" lon="-4.652967">
        <ele>1397.0</ele>
        <time>2015-03-15T14:58:39Z</time>
      </trkpt>
      <trkpt lat="40.293850" lon="-4.652833">
        <ele>1395.0</ele>
        <time>2015-03-15T14:58:40Z</time>
      </trkpt>
      <trkpt lat="40.293817" lon="-4.652700">
        <ele>1393.0</ele>
        <time>2015-03-15T14:58:41Z</time>
      </trkpt>
      <trkpt lat="40.293783" lon="-4.652583">
        <ele>1391.0</ele>
        <time>2015-03-15T14:58:42Z</time>
      </trkpt>
      <trkpt lat="40.293733" lon="-4.652433">
        <ele>1389.0</ele>
        <time>2015-03-15T14:58:43Z</time>
      </trkpt>
      <trkpt lat="40.293700" lon="-4.652300">
        <ele>1387.0</ele>
        <time>2015-03-15T14:58:44Z</time>
      </trkpt>
      <trkpt lat="40.293667" lon="-4.652167">
        <ele>1385.0</ele>
        <time>2015-03-15T14:58:45Z</time>
      </trkpt>
      <trkpt lat="40.293633" lon="-4.652033">
        <ele>1383.0</ele>
        <time>2015-03-15T14:58:46Z</time>
      </trkpt>
      <trkpt lat="40.293600" lon="-4.651900">
        <ele>1381.0</ele>
        <time>2015-03-15T14:58:47Z</time>
      </trkpt>
      <trkpt lat="40.293567" lon="-4.651783">
        <ele>1379.0</ele>
        <time>2015-03-15T14:58:48Z</time>
      </trkpt>
      <trkpt lat="40.293533" lon="-4.651650">
        <ele>1377.0</ele>
        <time>2015-03-15T14:58:49Z</time>
      </trkpt>
      <trkpt lat="40.293500" lon="-4.651517">
        <ele>1375.0</ele>
        <time>2015-03-15T14:58:50Z</time>
      </trkpt>
      <trkpt lat="40.293467" lon="-4.651383">
        <ele>1373.0</ele>
        <time>2015-03-15T14:58:51Z</time>
      </trkpt>
      <trkpt lat="40.293433" lon="-4.651267">
        <ele>1371.0</ele>
        <time>2015-03-15T14:58:52Z</time>
      </trkpt>
      <trkpt lat="40.293383" lon="-4.651133">
        <ele>1369.0</ele>
        <time>2015-03-15T14:58:53Z</time>
      </trkpt>
      <trkpt lat="40.293350" lon="-4.651017">
        <ele>1368.0</ele>
        <time>2015-03-15T14:58:54Z</time>
      </trkpt>
      <trkpt lat="40.293317" lon="-4.650900">
        <ele>1366.0</ele>
        <time>2015-03-15T14:58:55Z</time>
      </trkpt>
      <trkpt lat="40.293267" lon="-4.650767">
        <ele>1365.0</ele>
        <time>2015-03-15T14:58:56Z</time>
      </trkpt>
      <trkpt lat="40.293233" lon="-4.650650">
        <ele>1364.0</ele>
        <time>2015-03-15T14:58:57Z</time>
      </trkpt>
      <trkpt lat="40.293183" lon="-4.650533">
        <ele>1362.0</ele>
        <time>2015-03-15T14:58:58Z</time>
      </trkpt>
      <trkpt lat="40.293133" lon="-4.650433">
        <ele>1361.0</ele>
        <time>2015-03-15T14:58:59Z</time>
      </trkpt>
      <trkpt lat="40.293083" lon="-4.650333">
        <ele>1360.0</ele>
        <time>2015-03-15T14:59:00Z</time>
      </trkpt>
      <trkpt lat="40.293033" lon="-4.650217">
        <ele>1358.0</ele>
        <time>2015-03-15T14:59:01Z</time>
      </trkpt>
      <trkpt lat="40.292983" lon="-4.650117">
        <ele>1356.0</ele>
        <time>2015-03-15T14:59:02Z</time>
      </trkpt>
      <trkpt lat="40.292933" lon="-4.650000">
        <ele>1354.0</ele>
        <time>2015-03-15T14:59:03Z</time>
      </trkpt>
      <trkpt lat="40.292883" lon="-4.649900">
        <ele>1352.0</ele>
        <time>2015-03-15T14:59:04Z</time>
      </trkpt>
      <trkpt lat="40.292833" lon="-4.649783">
        <ele>1350.0</ele>
        <time>2015-03-15T14:59:05Z</time>
      </trkpt>
      <trkpt lat="40.292783" lon="-4.649667">
        <ele>1348.0</ele>
        <time>2015-03-15T14:59:06Z</time>
      </trkpt>
      <trkpt lat="40.292733" lon="-4.649550">
        <ele>1346.0</ele>
        <time>2015-03-15T14:59:07Z</time>
      </trkpt>
      <trkpt lat="40.292683" lon="-4.649433">
        <ele>1344.0</ele>
        <time>2015-03-15T14:59:08Z</time>
      </trkpt>
      <trkpt lat="40.292650" lon="-4.649317">
        <ele>1342.0</ele>
        <time>2015-03-15T14:59:09Z</time>
      </trkpt>
      <trkpt lat="40.292600" lon="-4.649200">
        <ele>1339.0</ele>
        <time>2015-03-15T14:59:10Z</time>
      </trkpt>
      <trkpt lat="40.292550" lon="-4.649083">
        <ele>1336.0</ele>
        <time>2015-03-15T14:59:11Z</time>
      </trkpt>
      <trkpt lat="40.292500" lon="-4.648967">
        <ele>1333.0</ele>
        <time>2015-03-15T14:59:12Z</time>
      </trkpt>
      <trkpt lat="40.292450" lon="-4.648833">
        <ele>1331.0</ele>
        <time>2015-03-15T14:59:13Z</time>
      </trkpt>
      <trkpt lat="40.292400" lon="-4.648717">
        <ele>1329.0</ele>
        <time>2015-03-15T14:59:14Z</time>
      </trkpt>
      <trkpt lat="40.292350" lon="-4.648600">
        <ele>1327.0</ele>
        <time>2015-03-15T14:59:15Z</time>
      </trkpt>
      <trkpt lat="40.292317" lon="-4.648483">
        <ele>1324.0</ele>
        <time>2015-03-15T14:59:16Z</time>
      </trkpt>
      <trkpt lat="40.292267" lon="-4.648367">
        <ele>1321.0</ele>
        <time>2015-03-15T14:59:17Z</time>
      </trkpt>
      <trkpt lat="40.292217" lon="-4.648233">
        <ele>1319.0</ele>
        <time>2015-03-15T14:59:18Z</time>
      </trkpt>
      <trkpt lat="40.292150" lon="-4.648117">
        <ele>1317.0</ele>
        <time>2015-03-15T14:59:19Z</time>
      </trkpt>
      <trkpt lat="40.292100" lon="-4.647983">
        <ele>1314.0</ele>
        <time>2015-03-15T14:59:20Z</time>
      </trkpt>
      <trkpt lat="40.292050" lon="-4.647867">
        <ele>1312.0</ele>
        <time>2015-03-15T14:59:21Z</time>
      </trkpt>
      <trkpt lat="40.292000" lon="-4.647750">
        <ele>1310.0</ele>
        <time>2015-03-15T14:59:22Z</time>
      </trkpt>
      <trkpt lat="40.291950" lon="-4.647633">
        <ele>1308.0</ele>
        <time>2015-03-15T14:59:23Z</time>
      </trkpt>
      <trkpt lat="40.291883" lon="-4.647517">
        <ele>1306.0</ele>
        <time>2015-03-15T14:59:24Z</time>
      </trkpt>
      <trkpt lat="40.291833" lon="-4.647400">
        <ele>1303.0</ele>
        <time>2015-03-15T14:59:25Z</time>
      </trkpt>
      <trkpt lat="40.291783" lon="-4.647283">
        <ele>1301.0</ele>
        <time>2015-03-15T14:59:26Z</time>
      </trkpt>
      <trkpt lat="40.291733" lon="-4.647167">
        <ele>1300.0</ele>
        <time>2015-03-15T14:59:27Z</time>
      </trkpt>
      <trkpt lat="40.291667" lon="-4.647050">
        <ele>1298.0</ele>
        <time>2015-03-15T14:59:28Z</time>
      </trkpt>
      <trkpt lat="40.291617" lon="-4.646933">
        <ele>1297.0</ele>
        <time>2015-03-15T14:59:29Z</time>
      </trkpt>
      <trkpt lat="40.291567" lon="-4.646817">
        <ele>1295.0</ele>
        <time>2015-03-15T14:59:30Z</time>
      </trkpt>
      <trkpt lat="40.291517" lon="-4.646700">
        <ele>1293.0</ele>
        <time>2015-03-15T14:59:31Z</time>
      </trkpt>
      <trkpt lat="40.291467" lon="-4.646583">
        <ele>1291.0</ele>
        <time>2015-03-15T14:59:32Z</time>
      </trkpt>
      <trkpt lat="40.291417" lon="-4.646467">
        <ele>1290.0</ele>
        <time>2015-03-15T14:59:33Z</time>
      </trkpt>
      <trkpt lat="40.291367" lon="-4.646367">
        <ele>1289.0</ele>
        <time>2015-03-15T14:59:34Z</time>
      </trkpt>
      <trkpt lat="40.291317" lon="-4.646250">
        <ele>1288.0</ele>
        <time>2015-03-15T14:59:35Z</time>
      </trkpt>
      <trkpt lat="40.291283" lon="-4.646150">
        <ele>1286.0</ele>
        <time>2015-03-15T14:59:36Z</time>
      </trkpt>
      <trkpt lat="40.291233" lon="-4.646050">
        <ele>1284.0</ele>
        <time>2015-03-15T14:59:37Z</time>
      </trkpt>
      <trkpt lat="40.291183" lon="-4.645933">
        <ele>1281.0</ele>
        <time>2015-03-15T14:59:38Z</time>
      </trkpt>
      <trkpt lat="40.291133" lon="-4.645817">
        <ele>1279.0</ele>
        <time>2015-03-15T14:59:39Z</time>
      </trkpt>
      <trkpt lat="40.291083" lon="-4.645717">
        <ele>1277.0</ele>
        <time>2015-03-15T14:59:40Z</time>
      </trkpt>
      <trkpt lat="40.291033" lon="-4.645600">
        <ele>1276.0</ele>
        <time>2015-03-15T14:59:41Z</time>
      </trkpt>
      <trkpt lat="40.290983" lon="-4.645500">
        <ele>1274.0</ele>
        <time>2015-03-15T14:59:42Z</time>
      </trkpt>
      <trkpt lat="40.290950" lon="-4.645400">
        <ele>1272.0</ele>
        <time>2015-03-15T14:59:43Z</time>
      </trkpt>
      <trkpt lat="40.290900" lon="-4.645300">
        <ele>1271.0</ele>
        <time>2015-03-15T14:59:44Z</time>
      </trkpt>
      <trkpt lat="40.290867" lon="-4.645200">
        <ele>1269.0</ele>
        <time>2015-03-15T14:59:45Z</time>
      </trkpt>
      <trkpt lat="40.290817" lon="-4.645100">
        <ele>1267.0</ele>
        <time>2015-03-15T14:59:46Z</time>
      </trkpt>
      <trkpt lat="40.290783" lon="-4.645000">
        <ele>1264.0</ele>
        <time>2015-03-15T14:59:47Z</time>
      </trkpt>
      <trkpt lat="40.290733" lon="-4.644883">
        <ele>1262.0</ele>
        <time>2015-03-15T14:59:48Z</time>
      </trkpt>
      <trkpt lat="40.290683" lon="-4.644783">
        <ele>1261.0</ele>
        <time>2015-03-15T14:59:49Z</time>
      </trkpt>
      <trkpt lat="40.290633" lon="-4.644683">
        <ele>1259.0</ele>
        <time>2015-03-15T14:59:50Z</time>
      </trkpt>
      <trkpt lat="40.290583" lon="-4.644583">
        <ele>1258.0</ele>
        <time>2015-03-15T14:59:51Z</time>
      </trkpt>
      <trkpt lat="40.290533" lon="-4.644483">
        <ele>1256.0</ele>
        <time>2015-03-15T14:59:52Z</time>
      </trkpt>
      <trkpt lat="40.290500" lon="-4.644367">
        <ele>1254.0</ele>
        <time>2015-03-15T14:59:53Z</time>
      </trkpt>
      <trkpt lat="40.290450" lon="-4.644267">
        <ele>1253.0</ele>
        <time>2015-03-15T14:59:54Z</time>
      </trkpt>
      <trkpt lat="40.290400" lon="-4.644167">
        <ele>1250.0</ele>
        <time>2015-03-15T14:59:55Z</time>
      </trkpt>
      <trkpt lat="40.290350" lon="-4.644083">
        <ele>1249.0</ele>
        <time>2015-03-15T14:59:56Z</time>
      </trkpt>
      <trkpt lat="40.290300" lon="-4.644000">
        <ele>1247.0</ele>
        <time>2015-03-15T14:59:57Z</time>
      </trkpt>
      <trkpt lat="40.290233" lon="-4.643900">
        <ele>1245.0</ele>
        <time>2015-03-15T14:59:58Z</time>
      </trkpt>
      <trkpt lat="40.290183" lon="-4.643817">
        <ele>1244.0</ele>
        <time>2015-03-15T14:59:59Z</time>
      </trkpt>
      <trkpt lat="40.290133" lon="-4.643717">
        <ele>1242.0</ele>
        <time>2015-03-15T15:00:00Z</time>
      </trkpt>
      <trkpt lat="40.290083" lon="-4.643617">
        <ele>1240.0</ele>
        <time>2015-03-15T15:00:01Z</time>
      </trkpt>
      <trkpt lat="40.290033" lon="-4.643517">
        <ele>1238.0</ele>
        <time>2015-03-15T15:00:02Z</time>
      </trkpt>
      <trkpt lat="40.289983" lon="-4.643417">
        <ele>1236.0</ele>
        <time>2015-03-15T15:00:03Z</time>
      </trkpt>
      <trkpt lat="40.289917" lon="-4.643317">
        <ele>1234.0</ele>
        <time>2015-03-15T15:00:04Z</time>
      </trkpt>
      <trkpt lat="40.289867" lon="-4.643233">
        <ele>1233.0</ele>
        <time>2015-03-15T15:00:05Z</time>
      </trkpt>
      <trkpt lat="40.289817" lon="-4.643133">
        <ele>1231.0</ele>
        <time>2015-03-15T15:00:06Z</time>
      </trkpt>
      <trkpt lat="40.289767" lon="-4.643050">
        <ele>1229.0</ele>
        <time>2015-03-15T15:00:07Z</time>
      </trkpt>
      <trkpt lat="40.289717" lon="-4.642950">
        <ele>1227.0</ele>
        <time>2015-03-15T15:00:08Z</time>
      </trkpt>
      <trkpt lat="40.289667" lon="-4.642850">
        <ele>1225.0</ele>
        <time>2015-03-15T15:00:09Z</time>
      </trkpt>
      <trkpt lat="40.289600" lon="-4.642750">
        <ele>1223.0</ele>
        <time>2015-03-15T15:00:10Z</time>
      </trkpt>
      <trkpt lat="40.289550" lon="-4.642650">
        <ele>1221.0</ele>
        <time>2015-03-15T15:00:11Z</time>
      </trkpt>
      <trkpt lat="40.289483" lon="-4.642550">
        <ele>1220.0</ele>
        <time>2015-03-15T15:00:12Z</time>
      </trkpt>
      <trkpt lat="40.289433" lon="-4.642450">
        <ele>1219.0</ele>
        <time>2015-03-15T15:00:13Z</time>
      </trkpt>
      <trkpt lat="40.289400" lon="-4.642350">
        <ele>1217.0</ele>
        <time>2015-03-15T15:00:14Z</time>
      </trkpt>
      <trkpt lat="40.289367" lon="-4.642233">
        <ele>1215.0</ele>
        <time>2015-03-15T15:00:15Z</time>
      </trkpt>
      <trkpt lat="40.289333" lon="-4.642117">
        <ele>1213.0</ele>
        <time>2015-03-15T15:00:16Z</time>
      </trkpt>
      <trkpt lat="40.289300" lon="-4.641983">
        <ele>1211.0</ele>
        <time>2015-03-15T15:00:17Z</time>
      </trkpt>
      <trkpt lat="40.289267" lon="-4.641867">
        <ele>1210.0</ele>
        <time>2015-03-15T15:00:18Z</time>
      </trkpt>
      <trkpt lat="40.289233" lon="-4.641733">
        <ele>1209.0</ele>
        <time>2015-03-15T15:00:19Z</time>
      </trkpt>
      <trkpt lat="40.289217" lon="-4.641633">
        <ele>1208.0</ele>
        <time>2015-03-15T15:00:20Z</time>
      </trkpt>
      <trkpt lat="40.289200" lon="-4.641517">
        <ele>1206.0</ele>
        <time>2015-03-15T15:00:21Z</time>
      </trkpt>
      <trkpt lat="40.289167" lon="-4.641400">
        <ele>1204.0</ele>
        <time>2015-03-15T15:00:22Z</time>
      </trkpt>
      <trkpt lat="40.289133" lon="-4.641283">
        <ele>1201.0</ele>
        <time>2015-03-15T15:00:23Z</time>
      </trkpt>
      <trkpt lat="40.289100" lon="-4.641150">
        <ele>1198.0</ele>
        <time>2015-03-15T15:00:24Z</time>
      </trkpt>
      <trkpt lat="40.289083" lon="-4.641017">
        <ele>1195.0</ele>
        <time>2015-03-15T15:00:25Z</time>
      </trkpt>
      <trkpt lat="40.289050" lon="-4.640900">
        <ele>1194.0</ele>
        <time>2015-03-15T15:00:26Z</time>
      </trkpt>
      <trkpt lat="40.289017" lon="-4.640767">
        <ele>1192.0</ele>
        <time>2015-03-15T15:00:27Z</time>
      </trkpt>
      <trkpt lat="40.288983" lon="-4.640650">
        <ele>1191.0</ele>
        <time>2015-03-15T15:00:28Z</time>
      </trkpt>
      <trkpt lat="40.288967" lon="-4.640550">
        <ele>1189.0</ele>
        <time>2015-03-15T15:00:29Z</time>
      </trkpt>
      <trkpt lat="40.288933" lon="-4.640433">
        <ele>1187.0</ele>
        <time>2015-03-15T15:00:30Z</time>
      </trkpt>
      <trkpt lat="40.288900" lon="-4.640317">
        <ele>1184.0</ele>
        <time>2015-03-15T15:00:31Z</time>
      </trkpt>
      <trkpt lat="40.288867" lon="-4.640183">
        <ele>1182.0</ele>
        <time>2015-03-15T15:00:32Z</time>
      </trkpt>
      <trkpt lat="40.288833" lon="-4.640050">
        <ele>1180.0</ele>
        <time>2015-03-15T15:00:33Z</time>
      </trkpt>
      <trkpt lat="40.288800" lon="-4.639917">
        <ele>1179.0</ele>
        <time>2015-03-15T15:00:34Z</time>
      </trkpt>
      <trkpt lat="40.288783" lon="-4.639800">
        <ele>1179.0</ele>
        <time>2015-03-15T15:00:35Z</time>
      </trkpt>
      <trkpt lat="40.288767" lon="-4.639683">
        <ele>1178.0</ele>
        <time>2015-03-15T15:00:36Z</time>
      </trkpt>
      <trkpt lat="40.288750" lon="-4.639583">
        <ele>1176.0</ele>
        <time>2015-03-15T15:00:37Z</time>
      </trkpt>
      <trkpt lat="40.288717" lon="-4.639450">
        <ele>1174.0</ele>
        <time>2015-03-15T15:00:38Z</time>
      </trkpt>
      <trkpt lat="40.288700" lon="-4.639317">
        <ele>1172.0</ele>
        <time>2015-03-15T15:00:39Z</time>
      </trkpt>
      <trkpt lat="40.288683" lon="-4.639183">
        <ele>1170.0</ele>
        <time>2015-03-15T15:00:40Z</time>
      </trkpt>
      <trkpt lat="40.288667" lon="-4.639050">
        <ele>1169.0</ele>
        <time>2015-03-15T15:00:41Z</time>
      </trkpt>
      <trkpt lat="40.288650" lon="-4.638917">
        <ele>1169.0</ele>
        <time>2015-03-15T15:00:42Z</time>
      </trkpt>
      <trkpt lat="40.288633" lon="-4.638817">
        <ele>1169.0</ele>
        <time>2015-03-15T15:00:43Z</time>
      </trkpt>
      <trkpt lat="40.288617" lon="-4.638700">
        <ele>1168.0</ele>
        <time>2015-03-15T15:00:44Z</time>
      </trkpt>
      <trkpt lat="40.288600" lon="-4.638567">
        <ele>1167.0</ele>
        <time>2015-03-15T15:00:45Z</time>
      </trkpt>
      <trkpt lat="40.288583" lon="-4.638450">
        <ele>1166.0</ele>
        <time>2015-03-15T15:00:46Z</time>
      </trkpt>
      <trkpt lat="40.288567" lon="-4.638317">
        <ele>1165.0</ele>
        <time>2015-03-15T15:00:47Z</time>
      </trkpt>
      <trkpt lat="40.288550" lon="-4.638167">
        <ele>1165.0</ele>
        <time>2015-03-15T15:00:48Z</time>
      </trkpt>
      <trkpt lat="40.288533" lon="-4.638033">
        <ele>1166.0</ele>
        <time>2015-03-15T15:00:49Z</time>
      </trkpt>
      <trkpt lat="40.288517" lon="-4.637883">
        <ele>1167.0</ele>
        <time>2015-03-15T15:00:50Z</time>
      </trkpt>
      <trkpt lat="40.288517" lon="-4.637750">
        <ele>1168.0</ele>
        <time>2015-03-15T15:00:51Z</time>
      </trkpt>
      <trkpt lat="40.288500" lon="-4.637633">
        <ele>1169.0</ele>
        <time>2015-03-15T15:00:52Z</time>
      </trkpt>
      <trkpt lat="40.288483" lon="-4.637517">
        <ele>1169.0</ele>
        <time>2015-03-15T15:00:53Z</time>
      </trkpt>
      <trkpt lat="40.288450" lon="-4.637383">
        <ele>1169.0</ele>
        <time>2015-03-15T15:00:54Z</time>
      </trkpt>
      <trkpt lat="40.288433" lon="-4.637250">
        <ele>1169.0</ele>
        <time>2015-03-15T15:00:55Z</time>
      </trkpt>
      <trkpt lat="40.288400" lon="-4.637117">
        <ele>1169.0</ele>
        <time>2015-03-15T15:00:56Z</time>
      </trkpt>
      <trkpt lat="40.288383" lon="-4.636983">
        <ele>1169.0</ele>
        <time>2015-03-15T15:00:57Z</time>
      </trkpt>
      <trkpt lat="40.288367" lon="-4.636850">
        <ele>1170.0</ele>
        <time>2015-03-15T15:00:58Z</time>
      </trkpt>
      <trkpt lat="40.288350" lon="-4.636733">
        <ele>1171.0</ele>
        <time>2015-03-15T15:00:59Z</time>
      </trkpt>
      <trkpt lat="40.288333" lon="-4.636617">
        <ele>1172.0</ele>
        <time>2015-03-15T15:01:00Z</time>
      </trkpt>
      <trkpt lat="40.288317" lon="-4.636500">
        <ele>1172.0</ele>
        <time>2015-03-15T15:01:01Z</time>
      </trkpt>
      <trkpt lat="40.288300" lon="-4.636383">
        <ele>1172.0</ele>
        <time>2015-03-15T15:01:02Z</time>
      </trkpt>
      <trkpt lat="40.288283" lon="-4.636267">
        <ele>1173.0</ele>
        <time>2015-03-15T15:01:03Z</time>
      </trkpt>
      <trkpt lat="40.288250" lon="-4.636167">
        <ele>1173.0</ele>
        <time>2015-03-15T15:01:04Z</time>
      </trkpt>
      <trkpt lat="40.288200" lon="-4.636067">
        <ele>1174.0</ele>
        <time>2015-03-15T15:01:05Z</time>
      </trkpt>
      <trkpt lat="40.288133" lon="-4.636017">
        <ele>1174.0</ele>
        <time>2015-03-15T15:01:06Z</time>
      </trkpt>
      <trkpt lat="40.288050" lon="-4.636000">
        <ele>1174.0</ele>
        <time>2015-03-15T15:01:07Z</time>
      </trkpt>
      <trkpt lat="40.287983" lon="-4.636000">
        <ele>1174.0</ele>
        <time>2015-03-15T15:01:08Z</time>
      </trkpt>
      <trkpt lat="40.287917" lon="-4.636033">
        <ele>1173.0</ele>
        <time>2015-03-15T15:01:09Z</time>
      </trkpt>
      <trkpt lat="40.287850" lon="-4.636100">
        <ele>1172.0</ele>
        <time>2015-03-15T15:01:10Z</time>
      </trkpt>
      <trkpt lat="40.287817" lon="-4.636217">
        <ele>1171.0</ele>
        <time>2015-03-15T15:01:11Z</time>
      </trkpt>
      <trkpt lat="40.287817" lon="-4.636333">
        <ele>1171.0</ele>
        <time>2015-03-15T15:01:12Z</time>
      </trkpt>
      <trkpt lat="40.287833" lon="-4.636433">
        <ele>1172.0</ele>
        <time>2015-03-15T15:01:13Z</time>
      </trkpt>
      <trkpt lat="40.287883" lon="-4.636533">
        <ele>1173.0</ele>
        <time>2015-03-15T15:01:14Z</time>
      </trkpt>
      <trkpt lat="40.287933" lon="-4.636617">
        <ele>1173.0</ele>
        <time>2015-03-15T15:01:15Z</time>
      </trkpt>
      <trkpt lat="40.288033" lon="-4.636667">
        <ele>1174.0</ele>
        <time>2015-03-15T15:01:16Z</time>
      </trkpt>
      <trkpt lat="40.288133" lon="-4.636717">
        <ele>1174.0</ele>
        <time>2015-03-15T15:01:17Z</time>
      </trkpt>
      <trkpt lat="40.288233" lon="-4.636717">
        <ele>1175.0</ele>
        <time>2015-03-15T15:01:18Z</time>
      </trkpt>
      <trkpt lat="40.288333" lon="-4.636700">
        <ele>1176.0</ele>
        <time>2015-03-15T15:01:19Z</time>
      </trkpt>
      <trkpt lat="40.288433" lon="-4.636650">
        <ele>1177.0</ele>
        <time>2015-03-15T15:01:20Z</time>
      </trkpt>
      <trkpt lat="40.288517" lon="-4.636567">
        <ele>1177.0</ele>
        <time>2015-03-15T15:01:21Z</time>
      </trkpt>
      <trkpt lat="40.288567" lon="-4.636467">
        <ele>1176.0</ele>
        <time>2015-03-15T15:01:22Z</time>
      </trkpt>
      <trkpt lat="40.288617" lon="-4.636333">
        <ele>1176.0</ele>
        <time>2015-03-15T15:01:23Z</time>
      </trkpt>
      <trkpt lat="40.288633" lon="-4.636200">
        <ele>1176.0</ele>
        <time>2015-03-15T15:01:24Z</time>
      </trkpt>
      <trkpt lat="40.288633" lon="-4.636067">
        <ele>1176.0</ele>
        <time>2015-03-15T15:01:25Z</time>
      </trkpt>
      <trkpt lat="40.288600" lon="-4.635950">
        <ele>1176.0</ele>
        <time>2015-03-15T15:01:26Z</time>
      </trkpt>
      <trkpt lat="40.288550" lon="-4.635850">
        <ele>1177.0</ele>
        <time>2015-03-15T15:01:27Z</time>
      </trkpt>
      <trkpt lat="40.288483" lon="-4.635767">
        <ele>1177.0</ele>
        <time>2015-03-15T15:01:28Z</time>
      </trkpt>
      <trkpt lat="40.288400" lon="-4.635733">
        <ele>1178.0</ele>
        <time>2015-03-15T15:01:29Z</time>
      </trkpt>
      <trkpt lat="40.288317" lon="-4.635717">
        <ele>1178.0</ele>
        <time>2015-03-15T15:01:30Z</time>
      </trkpt>
      <trkpt lat="40.288250" lon="-4.635750">
        <ele>1178.0</ele>
        <time>2015-03-15T15:01:31Z</time>
      </trkpt>
      <trkpt lat="40.288183" lon="-4.635800">
        <ele>1178.0</ele>
        <time>2015-03-15T15:01:32Z</time>
      </trkpt>
      <trkpt lat="40.288117" lon="-4.635883">
        <ele>1177.0</ele>
        <time>2015-03-15T15:01:33Z</time>
      </trkpt>
      <trkpt lat="40.288083" lon="-4.635967">
        <ele>1177.0</ele>
        <time>2015-03-15T15:01:34Z</time>
      </trkpt>
      <trkpt lat="40.288083" lon="-4.636083">
        <ele>1176.0</ele>
        <time>2015-03-15T15:01:35Z</time>
      </trkpt>
      <trkpt lat="40.288100" lon="-4.636200">
        <ele>1176.0</ele>
        <time>2015-03-15T15:01:36Z</time>
      </trkpt>
      <trkpt lat="40.288150" lon="-4.636317">
        <ele>1175.0</ele>
        <time>2015-03-15T15:01:37Z</time>
      </trkpt>
      <trkpt lat="40.288217" lon="-4.636417">
        <ele>1176.0</ele>
        <time>2015-03-15T15:01:38Z</time>
      </trkpt>
      <trkpt lat="40.288300" lon="-4.636483">
        <ele>1178.0</ele>
        <time>2015-03-15T15:01:39Z</time>
      </trkpt>
      <trkpt lat="40.288383" lon="-4.636517">
        <ele>1179.0</ele>
        <time>2015-03-15T15:01:40Z</time>
      </trkpt>
      <trkpt lat="40.288467" lon="-4.636533">
        <ele>1180.0</ele>
        <time>2015-03-15T15:01:41Z</time>
      </trkpt>
      <trkpt lat="40.288567" lon="-4.636533">
        <ele>1180.0</ele>
        <time>2015-03-15T15:01:42Z</time>
      </trkpt>
      <trkpt lat="40.288650" lon="-4.636517">
        <ele>1181.0</ele>
        <time>2015-03-15T15:01:43Z</time>
      </trkpt>
      <trkpt lat="40.288750" lon="-4.636483">
        <ele>1181.0</ele>
        <time>2015-03-15T15:01:44Z</time>
      </trkpt>
      <trkpt lat="40.288833" lon="-4.636417">
        <ele>1181.0</ele>
        <time>2015-03-15T15:01:45Z</time>
      </trkpt>
      <trkpt lat="40.288917" lon="-4.636350">
        <ele>1181.0</ele>
        <time>2015-03-15T15:01:46Z</time>
      </trkpt>
      <trkpt lat="40.288983" lon="-4.636250">
        <ele>1182.0</ele>
        <time>2015-03-15T15:01:47Z</time>
      </trkpt>
      <trkpt lat="40.289033" lon="-4.636150">
        <ele>1181.0</ele>
        <time>2015-03-15T15:01:48Z</time>
      </trkpt>
      <trkpt lat="40.289067" lon="-4.636033">
        <ele>1181.0</ele>
        <time>2015-03-15T15:01:49Z</time>
      </trkpt>
      <trkpt lat="40.289100" lon="-4.635917">
        <ele>1179.0</ele>
        <time>2015-03-15T15:01:50Z</time>
      </trkpt>
      <trkpt lat="40.289100" lon="-4.635767">
        <ele>1178.0</ele>
        <time>2015-03-15T15:01:51Z</time>
      </trkpt>
      <trkpt lat="40.289083" lon="-4.635633">
        <ele>1178.0</ele>
        <time>2015-03-15T15:01:52Z</time>
      </trkpt>
      <trkpt lat="40.289050" lon="-4.635500">
        <ele>1178.0</ele>
        <time>2015-03-15T15:01:53Z</time>
      </trkpt>
      <trkpt lat="40.289000" lon="-4.635400">
        <ele>1179.0</ele>
        <time>2015-03-15T15:01:54Z</time>
      </trkpt>
      <trkpt lat="40.288950" lon="-4.635300">
        <ele>1180.0</ele>
        <time>2015-03-15T15:01:55Z</time>
      </trkpt>
      <trkpt lat="40.288900" lon="-4.635217">
        <ele>1182.0</ele>
        <time>2015-03-15T15:01:56Z</time>
      </trkpt>
      <trkpt lat="40.288850" lon="-4.635150">
        <ele>1183.0</ele>
        <time>2015-03-15T15:01:57Z</time>
      </trkpt>
      <trkpt lat="40.288800" lon="-4.635083">
        <ele>1183.0</ele>
        <time>2015-03-15T15:01:58Z</time>
      </trkpt>
      <trkpt lat="40.288750" lon="-4.635017">
        <ele>1183.0</ele>
        <time>2015-03-15T15:01:59Z</time>
      </trkpt>
      <trkpt lat="40.288683" lon="-4.634950">
        <ele>1183.0</ele>
        <time>2015-03-15T15:02:00Z</time>
      </trkpt>
      <trkpt lat="40.288617" lon="-4.634917">
        <ele>1182.0</ele>
        <time>2015-03-15T15:02:01Z</time>
      </trkpt>
      <trkpt lat="40.288533" lon="-4.634900">
        <ele>1182.0</ele>
        <time>2015-03-15T15:02:02Z</time>
      </trkpt>
      <trkpt lat="40.288450" lon="-4.634917">
        <ele>1182.0</ele>
        <time>2015-03-15T15:02:03Z</time>
      </trkpt>
      <trkpt lat="40.288383" lon="-4.634967">
        <ele>1182.0</ele>
        <time>2015-03-15T15:02:04Z</time>
      </trkpt>
      <trkpt lat="40.288317" lon="-4.635033">
        <ele>1181.0</ele>
        <time>2015-03-15T15:02:05Z</time>
      </trkpt>
      <trkpt lat="40.288283" lon="-4.635133">
        <ele>1181.0</ele>
        <time>2015-03-15T15:02:06Z</time>
      </trkpt>
      <trkpt lat="40.288250" lon="-4.635250">
        <ele>1181.0</ele>
        <time>2015-03-15T15:02:07Z</time>
      </trkpt>
      <trkpt lat="40.288267" lon="-4.635367">
        <ele>1181.0</ele>
        <time>2015-03-15T15:02:08Z</time>
      </trkpt>
      <trkpt lat="40.288283" lon="-4.635467">
        <ele>1182.0</ele>
        <time>2015-03-15T15:02:09Z</time>
      </trkpt>
      <trkpt lat="40.288333" lon="-4.635550">
        <ele>1181.0</ele>
        <time>2015-03-15T15:02:10Z</time>
      </trkpt>
      <trkpt lat="40.288417" lon="-4.635633">
        <ele>1181.0</ele>
        <time>2015-03-15T15:02:11Z</time>
      </trkpt>
      <trkpt lat="40.288500" lon="-4.635700">
        <ele>1180.0</ele>
        <time>2015-03-15T15:02:12Z</time>
      </trkpt>
      <trkpt lat="40.288583" lon="-4.635733">
        <ele>1180.0</ele>
        <time>2015-03-15T15:02:13Z</time>
      </trkpt>
      <trkpt lat="40.288683" lon="-4.635750">
        <ele>1180.0</ele>
        <time>2015-03-15T15:02:14Z</time>
      </trkpt>
      <trkpt lat="40.288800" lon="-4.635733">
        <ele>1179.0</ele>
        <time>2015-03-15T15:02:15Z</time>
      </trkpt>
      <trkpt lat="40.288900" lon="-4.635683">
        <ele>1180.0</ele>
        <time>2015-03-15T15:02:16Z</time>
      </trkpt>
      <trkpt lat="40.289000" lon="-4.635617">
        <ele>1181.0</ele>
        <time>2015-03-15T15:02:17Z</time>
      </trkpt>
      <trkpt lat="40.289083" lon="-4.635517">
        <ele>1182.0</ele>
        <time>2015-03-15T15:02:18Z</time>
      </trkpt>
      <trkpt lat="40.289150" lon="-4.635417">
        <ele>1182.0</ele>
        <time>2015-03-15T15:02:19Z</time>
      </trkpt>
      <trkpt lat="40.289233" lon="-4.635333">
        <ele>1182.0</ele>
        <time>2015-03-15T15:02:20Z</time>
      </trkpt>
      <trkpt lat="40.289300" lon="-4.635250">
        <ele>1183.0</ele>
        <time>2015-03-15T15:02:21Z</time>
      </trkpt>
      <trkpt lat="40.289383" lon="-4.635167">
        <ele>1183.0</ele>
        <time>2015-03-15T15:02:22Z</time>
      </trkpt>
      <trkpt lat="40.289450" lon="-4.635083">
        <ele>1182.0</ele>
        <time>2015-03-15T15:02:23Z</time>
      </trkpt>
      <trkpt lat="40.289517" lon="-4.634967">
        <ele>1182.0</ele>
        <time>2015-03-15T15:02:24Z</time>
      </trkpt>
      <trkpt lat="40.289550" lon="-4.634850">
        <ele>1181.0</ele>
        <time>2015-03-15T15:02:25Z</time>
      </trkpt>
      <trkpt lat="40.289583" lon="-4.634733">
        <ele>1182.0</ele>
        <time>2015-03-15T15:02:26Z</time>
      </trkpt>
      <trkpt lat="40.289583" lon="-4.634600">
        <ele>1182.0</ele>
        <time>2015-03-15T15:02:27Z</time>
      </trkpt>
      <trkpt lat="40.289583" lon="-4.634483">
        <ele>1182.0</ele>
        <time>2015-03-15T15:02:28Z</time>
      </trkpt>
      <trkpt lat="40.289567" lon="-4.634383">
        <ele>1182.0</ele>
        <time>2015-03-15T15:02:29Z</time>
      </trkpt>
      <trkpt lat="40.289533" lon="-4.634267">
        <ele>1182.0</ele>
        <time>2015-03-15T15:02:30Z</time>
      </trkpt>
      <trkpt lat="40.289483" lon="-4.634167">
        <ele>1182.0</ele>
        <time>2015-03-15T15:02:31Z</time>
      </trkpt>
      <trkpt lat="40.289433" lon="-4.634067">
        <ele>1182.0</ele>
        <time>2015-03-15T15:02:32Z</time>
      </trkpt>
      <trkpt lat="40.289367" lon="-4.633983">
        <ele>1182.0</ele>
        <time>2015-03-15T15:02:33Z</time>
      </trkpt>
      <trkpt lat="40.289300" lon="-4.633917">
        <ele>1183.0</ele>
        <time>2015-03-15T15:02:34Z</time>
      </trkpt>
      <trkpt lat="40.289233" lon="-4.633867">
        <ele>1183.0</ele>
        <time>2015-03-15T15:02:35Z</time>
      </trkpt>
      <trkpt lat="40.289167" lon="-4.633833">
        <ele>1183.0</ele>
        <time>2015-03-15T15:02:36Z</time>
      </trkpt>
      <trkpt lat="40.289100" lon="-4.633800">
        <ele>1183.0</ele>
        <time>2015-03-15T15:02:37Z</time>
      </trkpt>
      <trkpt lat="40.289017" lon="-4.633783">
        <ele>1183.0</ele>
        <time>2015-03-15T15:02:38Z</time>
      </trkpt>
      <trkpt lat="40.288950" lon="-4.633767">
        <ele>1184.0</ele>
        <time>2015-03-15T15:02:39Z</time>
      </trkpt>
      <trkpt lat="40.288883" lon="-4.633783">
        <ele>1185.0</ele>
        <time>2015-03-15T15:02:40Z</time>
      </trkpt>
      <trkpt lat="40.288817" lon="-4.633817">
        <ele>1184.0</ele>
        <time>2015-03-15T15:02:41Z</time>
      </trkpt>
      <trkpt lat="40.288750" lon="-4.633883">
        <ele>1184.0</ele>
        <time>2015-03-15T15:02:42Z</time>
      </trkpt>
      <trkpt lat="40.288700" lon="-4.633967">
        <ele>1185.0</ele>
        <time>2015-03-15T15:02:43Z</time>
      </trkpt>
      <trkpt lat="40.288667" lon="-4.634067">
        <ele>1186.0</ele>
        <time>2015-03-15T15:02:44Z</time>
      </trkpt>
      <trkpt lat="40.288650" lon="-4.634150">
        <ele>1187.0</ele>
        <time>2015-03-15T15:02:45Z</time>
      </trkpt>
      <trkpt lat="40.288667" lon="-4.634250">
        <ele>1188.0</ele>
        <time>2015-03-15T15:02:46Z</time>
      </trkpt>
      <trkpt lat="40.288683" lon="-4.634350">
        <ele>1188.0</ele>
        <time>2015-03-15T15:02:47Z</time>
      </trkpt>
      <trkpt lat="40.288717" lon="-4.634433">
        <ele>1187.0</ele>
        <time>2015-03-15T15:02:48Z</time>
      </trkpt>
      <trkpt lat="40.288783" lon="-4.634533">
        <ele>1187.0</ele>
        <time>2015-03-15T15:02:49Z</time>
      </trkpt>
      <trkpt lat="40.288850" lon="-4.634617">
        <ele>1187.0</ele>
        <time>2015-03-15T15:02:50Z</time>
      </trkpt>
      <trkpt lat="40.288933" lon="-4.634683">
        <ele>1188.0</ele>
        <time>2015-03-15T15:02:51Z</time>
      </trkpt>
      <trkpt lat="40.289017" lon="-4.634717">
        <ele>1189.0</ele>
        <time>2015-03-15T15:02:52Z</time>
      </trkpt>
      <trkpt lat="40.289117" lon="-4.634733">
        <ele>1189.0</ele>
        <time>2015-03-15T15:02:53Z</time>
      </trkpt>
      <trkpt lat="40.289200" lon="-4.634733">
        <ele>1189.0</ele>
        <time>2015-03-15T15:02:54Z</time>
      </trkpt>
      <trkpt lat="40.289300" lon="-4.634717">
        <ele>1189.0</ele>
        <time>2015-03-15T15:02:55Z</time>
      </trkpt>
      <trkpt lat="40.289400" lon="-4.634700">
        <ele>1189.0</ele>
        <time>2015-03-15T15:02:56Z</time>
      </trkpt>
      <trkpt lat="40.289483" lon="-4.634650">
        <ele>1188.0</ele>
        <time>2015-03-15T15:02:57Z</time>
      </trkpt>
      <trkpt lat="40.289567" lon="-4.634583">
        <ele>1189.0</ele>
        <time>2015-03-15T15:02:58Z</time>
      </trkpt>
      <trkpt lat="40.289650" lon="-4.634500">
        <ele>1189.0</ele>
        <time>2015-03-15T15:02:59Z</time>
      </trkpt>
      <trkpt lat="40.289700" lon="-4.634417">
        <ele>1189.0</ele>
        <time>2015-03-15T15:03:00Z</time>
      </trkpt>
      <trkpt lat="40.289767" lon="-4.634333">
        <ele>1189.0</ele>
        <time>2015-03-15T15:03:01Z</time>
      </trkpt>
      <trkpt lat="40.289817" lon="-4.634250">
        <ele>1189.0</ele>
        <time>2015-03-15T15:03:02Z</time>
      </trkpt>
      <trkpt lat="40.289867" lon="-4.634150">
        <ele>1188.0</ele>
        <time>2015-03-15T15:03:03Z</time>
      </trkpt>
      <trkpt lat="40.289900" lon="-4.634033">
        <ele>1187.0</ele>
        <time>2015-03-15T15:03:04Z</time>
      </trkpt>
      <trkpt lat="40.289917" lon="-4.633917">
        <ele>1186.0</ele>
        <time>2015-03-15T15:03:05Z</time>
      </trkpt>
      <trkpt lat="40.289900" lon="-4.633800">
        <ele>1186.0</ele>
        <time>2015-03-15T15:03:06Z</time>
      </trkpt>
      <trkpt lat="40.289883" lon="-4.633667">
        <ele>1186.0</ele>
        <time>2015-03-15T15:03:07Z</time>
      </trkpt>
      <trkpt lat="40.289850" lon="-4.633567">
        <ele>1185.0</ele>
        <time>2015-03-15T15:03:08Z</time>
      </trkpt>
      <trkpt lat="40.289800" lon="-4.633467">
        <ele>1185.0</ele>
        <time>2015-03-15T15:03:09Z</time>
      </trkpt>
      <trkpt lat="40.289750" lon="-4.633367">
        <ele>1185.0</ele>
        <time>2015-03-15T15:03:10Z</time>
      </trkpt>
      <trkpt lat="40.289683" lon="-4.633300">
        <ele>1186.0</ele>
        <time>2015-03-15T15:03:11Z</time>
      </trkpt>
      <trkpt lat="40.289633" lon="-4.633217">
        <ele>1187.0</ele>
        <time>2015-03-15T15:03:12Z</time>
      </trkpt>
      <trkpt lat="40.289567" lon="-4.633150">
        <ele>1188.0</ele>
        <time>2015-03-15T15:03:13Z</time>
      </trkpt>
      <trkpt lat="40.289517" lon="-4.633083">
        <ele>1189.0</ele>
        <time>2015-03-15T15:03:14Z</time>
      </trkpt>
      <trkpt lat="40.289433" lon="-4.633033">
        <ele>1189.0</ele>
        <time>2015-03-15T15:03:15Z</time>
      </trkpt>
      <trkpt lat="40.289367" lon="-4.632983">
        <ele>1191.0</ele>
        <time>2015-03-15T15:03:16Z</time>
      </trkpt>
      <trkpt lat="40.289300" lon="-4.632967">
        <ele>1192.0</ele>
        <time>2015-03-15T15:03:17Z</time>
      </trkpt>
      <trkpt lat="40.289233" lon="-4.632983">
        <ele>1193.0</ele>
        <time>2015-03-15T15:03:18Z</time>
      </trkpt>
      <trkpt lat="40.289167" lon="-4.633033">
        <ele>1194.0</ele>
        <time>2015-03-15T15:03:19Z</time>
      </trkpt>
      <trkpt lat="40.289117" lon="-4.633100">
        <ele>1194.0</ele>
        <time>2015-03-15T15:03:20Z</time>
      </trkpt>
      <trkpt lat="40.289067" lon="-4.633183">
        <ele>1195.0</ele>
        <time>2015-03-15T15:03:21Z</time>
      </trkpt>
      <trkpt lat="40.289033" lon="-4.633267">
        <ele>1195.0</ele>
        <time>2015-03-15T15:03:22Z</time>
      </trkpt>
      <trkpt lat="40.289017" lon="-4.633367">
        <ele>1196.0</ele>
        <time>2015-03-15T15:03:23Z</time>
      </trkpt>
      <trkpt lat="40.289017" lon="-4.633450">
        <ele>1197.0</ele>
        <time>2015-03-15T15:03:24Z</time>
      </trkpt>
      <trkpt lat="40.289050" lon="-4.633550">
        <ele>1197.0</ele>
        <time>2015-03-15T15:03:25Z</time>
      </trkpt>
      <trkpt lat="40.289100" lon="-4.633650">
        <ele>1197.0</ele>
        <time>2015-03-15T15:03:26Z</time>
      </trkpt>
      <trkpt lat="40.289167" lon="-4.633717">
        <ele>1197.0</ele>
        <time>2015-03-15T15:03:27Z</time>
      </trkpt>
      <trkpt lat="40.289233" lon="-4.633783">
        <ele>1198.0</ele>
        <time>2015-03-15T15:03:28Z</time>
      </trkpt>
      <trkpt lat="40.289333" lon="-4.633800">
        <ele>1199.0</ele>
        <time>2015-03-15T15:03:29Z</time>
      </trkpt>
      <trkpt lat="40.289417" lon="-4.633800">
        <ele>1200.0</ele>
        <time>2015-03-15T15:03:30Z</time>
      </trkpt>
      <trkpt lat="40.289500" lon="-4.633767">
        <ele>1200.0</ele>
        <time>2015-03-15T15:03:31Z</time>
      </trkpt>
      <trkpt lat="40.289583" lon="-4.633700">
        <ele>1200.0</ele>
        <time>2015-03-15T15:03:32Z</time>
      </trkpt>
      <trkpt lat="40.289650" lon="-4.633617">
        <ele>1200.0</ele>
        <time>2015-03-15T15:03:33Z</time>
      </trkpt>
      <trkpt lat="40.289700" lon="-4.633500">
        <ele>1201.0</ele>
        <time>2015-03-15T15:03:34Z</time>
      </trkpt>
      <trkpt lat="40.289717" lon="-4.633383">
        <ele>1201.0</ele>
        <time>2015-03-15T15:03:35Z</time>
      </trkpt>
      <trkpt lat="40.289717" lon="-4.633250">
        <ele>1201.0</ele>
        <time>2015-03-15T15:03:36Z</time>
      </trkpt>
      <trkpt lat="40.289700" lon="-4.633133">
        <ele>1202.0</ele>
        <time>2015-03-15T15:03:37Z</time>
      </trkpt>
      <trkpt lat="40.289667" lon="-4.633033">
        <ele>1202.0</ele>
        <time>2015-03-15T15:03:38Z</time>
      </trkpt>
      <trkpt lat="40.289617" lon="-4.632933">
        <ele>1203.0</ele>
        <time>2015-03-15T15:03:39Z</time>
      </trkpt>
      <trkpt lat="40.289550" lon="-4.632867">
        <ele>1204.0</ele>
        <time>2015-03-15T15:03:40Z</time>
      </trkpt>
      <trkpt lat="40.289483" lon="-4.632817">
        <ele>1205.0</ele>
        <time>2015-03-15T15:03:41Z</time>
      </trkpt>
      <trkpt lat="40.289400" lon="-4.632800">
        <ele>1205.0</ele>
        <time>2015-03-15T15:03:42Z</time>
      </trkpt>
      <trkpt lat="40.289317" lon="-4.632800">
        <ele>1206.0</ele>
        <time>2015-03-15T15:03:43Z</time>
      </trkpt>
      <trkpt lat="40.289233" lon="-4.632833">
        <ele>1207.0</ele>
        <time>2015-03-15T15:03:44Z</time>
      </trkpt>
      <trkpt lat="40.289183" lon="-4.632883">
        <ele>1208.0</ele>
        <time>2015-03-15T15:03:45Z</time>
      </trkpt>
      <trkpt lat="40.289133" lon="-4.632967">
        <ele>1209.0</ele>
        <time>2015-03-15T15:03:46Z</time>
      </trkpt>
      <trkpt lat="40.289100" lon="-4.633033">
        <ele>1209.0</ele>
        <time>2015-03-15T15:03:47Z</time>
      </trkpt>
      <trkpt lat="40.289083" lon="-4.633117">
        <ele>1210.0</ele>
        <time>2015-03-15T15:03:48Z</time>
      </trkpt>
      <trkpt lat="40.289083" lon="-4.633217">
        <ele>1210.0</ele>
        <time>2015-03-15T15:03:49Z</time>
      </trkpt>
      <trkpt lat="40.289100" lon="-4.633317">
        <ele>1209.0</ele>
        <time>2015-03-15T15:03:50Z</time>
      </trkpt>
      <trkpt lat="40.289167" lon="-4.633417">
        <ele>1209.0</ele>
        <time>2015-03-15T15:03:51Z</time>
      </trkpt>
      <trkpt lat="40.289233" lon="-4.633483">
        <ele>1210.0</ele>
        <time>2015-03-15T15:03:52Z</time>
      </trkpt>
      <trkpt lat="40.289333" lon="-4.633533">
        <ele>1211.0</ele>
        <time>2015-03-15T15:03:53Z</time>
      </trkpt>
      <trkpt lat="40.289417" lon="-4.633533">
        <ele>1213.0</ele>
        <time>2015-03-15T15:03:54Z</time>
      </trkpt>
      <trkpt lat="40.289500" lon="-4.633500">
        <ele>1214.0</ele>
        <time>2015-03-15T15:03:55Z</time>
      </trkpt>
      <trkpt lat="40.289567" lon="-4.633467">
        <ele>1215.0</ele>
        <time>2015-03-15T15:03:56Z</time>
      </trkpt>
      <trkpt lat="40.289650" lon="-4.633400">
        <ele>1215.0</ele>
        <time>2015-03-15T15:03:57Z</time>
      </trkpt>
      <trkpt lat="40.289700" lon="-4.633317">
        <ele>1215.0</ele>
        <time>2015-03-15T15:03:58Z</time>
      </trkpt>
      <trkpt lat="40.289750" lon="-4.633217">
        <ele>1215.0</ele>
        <time>2015-03-15T15:03:59Z</time>
      </trkpt>
      <trkpt lat="40.289783" lon="-4.633083">
        <ele>1214.0</ele>
        <time>2015-03-15T15:04:00Z</time>
      </trkpt>
      <trkpt lat="40.289783" lon="-4.632950">
        <ele>1214.0</ele>
        <time>2015-03-15T15:04:01Z</time>
      </trkpt>
      <trkpt lat="40.289750" lon="-4.632817">
        <ele>1214.0</ele>
        <time>2015-03-15T15:04:02Z</time>
      </trkpt>
      <trkpt lat="40.289700" lon="-4.632717">
        <ele>1215.0</ele>
        <time>2015-03-15T15:04:03Z</time>
      </trkpt>
      <trkpt lat="40.289633" lon="-4.632633">
        <ele>1217.0</ele>
        <time>2015-03-15T15:04:04Z</time>
      </trkpt>
      <trkpt lat="40.289567" lon="-4.632583">
        <ele>1219.0</ele>
        <time>2015-03-15T15:04:05Z</time>
      </trkpt>
      <trkpt lat="40.289500" lon="-4.632550">
        <ele>1220.0</ele>
        <time>2015-03-15T15:04:06Z</time>
      </trkpt>
      <trkpt lat="40.289433" lon="-4.632533">
        <ele>1220.0</ele>
        <time>2015-03-15T15:04:07Z</time>
      </trkpt>
      <trkpt lat="40.289367" lon="-4.632533">
        <ele>1221.0</ele>
        <time>2015-03-15T15:04:08Z</time>
      </trkpt>
      <trkpt lat="40.289300" lon="-4.632550">
        <ele>1221.0</ele>
        <time>2015-03-15T15:04:09Z</time>
      </trkpt>
      <trkpt lat="40.289233" lon="-4.632600">
        <ele>1220.0</ele>
        <time>2015-03-15T15:04:10Z</time>
      </trkpt>
      <trkpt lat="40.289183" lon="-4.632683">
        <ele>1220.0</ele>
        <time>2015-03-15T15:04:11Z</time>
      </trkpt>
      <trkpt lat="40.289150" lon="-4.632783">
        <ele>1220.0</ele>
        <time>2015-03-15T15:04:12Z</time>
      </trkpt>
      <trkpt lat="40.289150" lon="-4.632883">
        <ele>1221.0</ele>
        <time>2015-03-15T15:04:13Z</time>
      </trkpt>
      <trkpt lat="40.289167" lon="-4.632983">
        <ele>1221.0</ele>
        <time>2015-03-15T15:04:14Z</time>
      </trkpt>
      <trkpt lat="40.289217" lon="-4.633083">
        <ele>1222.0</ele>
        <time>2015-03-15T15:04:15Z</time>
      </trkpt>
      <trkpt lat="40.289283" lon="-4.633150">
        <ele>1223.0</ele>
        <time>2015-03-15T15:04:16Z</time>
      </trkpt>
      <trkpt lat="40.289350" lon="-4.633217">
        <ele>1223.0</ele>
        <time>2015-03-15T15:04:17Z</time>
      </trkpt>
      <trkpt lat="40.289450" lon="-4.633233">
        <ele>1224.0</ele>
        <time>2015-03-15T15:04:18Z</time>
      </trkpt>
      <trkpt lat="40.289533" lon="-4.633250">
        <ele>1226.0</ele>
        <time>2015-03-15T15:04:19Z</time>
      </trkpt>
      <trkpt lat="40.289617" lon="-4.633233">
        <ele>1227.0</ele>
        <time>2015-03-15T15:04:20Z</time>
      </trkpt>
      <trkpt lat="40.289700" lon="-4.633200">
        <ele>1229.0</ele>
        <time>2015-03-15T15:04:21Z</time>
      </trkpt>
      <trkpt lat="40.289783" lon="-4.633150">
        <ele>1230.0</ele>
        <time>2015-03-15T15:04:22Z</time>
      </trkpt>
      <trkpt lat="40.289867" lon="-4.633083">
        <ele>1230.0</ele>
        <time>2015-03-15T15:04:23Z</time>
      </trkpt>
      <trkpt lat="40.289933" lon="-4.633000">
        <ele>1231.0</ele>
        <time>2015-03-15T15:04:24Z</time>
      </trkpt>
      <trkpt lat="40.289983" lon="-4.632900">
        <ele>1231.0</ele>
        <time>2015-03-15T15:04:25Z</time>
      </trkpt>
      <trkpt lat="40.290033" lon="-4.632783">
        <ele>1231.0</ele>
        <time>2015-03-15T15:04:26Z</time>
      </trkpt>
      <trkpt lat="40.290050" lon="-4.632667">
        <ele>1232.0</ele>
        <time>2015-03-15T15:04:27Z</time>
      </trkpt>
      <trkpt lat="40.290033" lon="-4.632533">
        <ele>1232.0</ele>
        <time>2015-03-15T15:04:28Z</time>
      </trkpt>
      <trkpt lat="40.290000" lon="-4.632417">
        <ele>1233.0</ele>
        <time>2015-03-15T15:04:29Z</time>
      </trkpt>
      <trkpt lat="40.289967" lon="-4.632317">
        <ele>1234.0</ele>
        <time>2015-03-15T15:04:30Z</time>
      </trkpt>
      <trkpt lat="40.289917" lon="-4.632217">
        <ele>1235.0</ele>
        <time>2015-03-15T15:04:31Z</time>
      </trkpt>
      <trkpt lat="40.289850" lon="-4.632150">
        <ele>1236.0</ele>
        <time>2015-03-15T15:04:32Z</time>
      </trkpt>
      <trkpt lat="40.289783" lon="-4.632100">
        <ele>1236.0</ele>
        <time>2015-03-15T15:04:33Z</time>
      </trkpt>
      <trkpt lat="40.289717" lon="-4.632083">
        <ele>1237.0</ele>
        <time>2015-03-15T15:04:34Z</time>
      </trkpt>
      <trkpt lat="40.289667" lon="-4.632067">
        <ele>1237.0</ele>
        <time>2015-03-15T15:04:35Z</time>
      </trkpt>
      <trkpt lat="40.289600" lon="-4.632067">
        <ele>1237.0</ele>
        <time>2015-03-15T15:04:36Z</time>
      </trkpt>
      <trkpt lat="40.289533" lon="-4.632083">
        <ele>1237.0</ele>
        <time>2015-03-15T15:04:37Z</time>
      </trkpt>
      <trkpt lat="40.289467" lon="-4.632117">
        <ele>1237.0</ele>
        <time>2015-03-15T15:04:38Z</time>
      </trkpt>
      <trkpt lat="40.289400" lon="-4.632183">
        <ele>1237.0</ele>
        <time>2015-03-15T15:04:39Z</time>
      </trkpt>
      <trkpt lat="40.289350" lon="-4.632250">
        <ele>1238.0</ele>
        <time>2015-03-15T15:04:40Z</time>
      </trkpt>
      <trkpt lat="40.289333" lon="-4.632350">
        <ele>1238.0</ele>
        <time>2015-03-15T15:04:41Z</time>
      </trkpt>
      <trkpt lat="40.289333" lon="-4.632450">
        <ele>1238.0</ele>
        <time>2015-03-15T15:04:42Z</time>
      </trkpt>
      <trkpt lat="40.289367" lon="-4.632550">
        <ele>1238.0</ele>
        <time>2015-03-15T15:04:43Z</time>
      </trkpt>
      <trkpt lat="40.289417" lon="-4.632633">
        <ele>1240.0</ele>
        <time>2015-03-15T15:04:44Z</time>
      </trkpt>
      <trkpt lat="40.289467" lon="-4.632717">
        <ele>1241.0</ele>
        <time>2015-03-15T15:04:45Z</time>
      </trkpt>
      <trkpt lat="40.289533" lon="-4.632767">
        <ele>1243.0</ele>
        <time>2015-03-15T15:04:46Z</time>
      </trkpt>
      <trkpt lat="40.289617" lon="-4.632817">
        <ele>1245.0</ele>
        <time>2015-03-15T15:04:47Z</time>
      </trkpt>
      <trkpt lat="40.289683" lon="-4.632850">
        <ele>1246.0</ele>
        <time>2015-03-15T15:04:48Z</time>
      </trkpt>
      <trkpt lat="40.289767" lon="-4.632867">
        <ele>1247.0</ele>
        <time>2015-03-15T15:04:49Z</time>
      </trkpt>
      <trkpt lat="40.289850" lon="-4.632883">
        <ele>1248.0</ele>
        <time>2015-03-15T15:04:50Z</time>
      </trkpt>
      <trkpt lat="40.289933" lon="-4.632850">
        <ele>1248.0</ele>
        <time>2015-03-15T15:04:51Z</time>
      </trkpt>
      <trkpt lat="40.290017" lon="-4.632800">
        <ele>1248.0</ele>
        <time>2015-03-15T15:04:52Z</time>
      </trkpt>
      <trkpt lat="40.290100" lon="-4.632733">
        <ele>1248.0</ele>
        <time>2015-03-15T15:04:53Z</time>
      </trkpt>
      <trkpt lat="40.290183" lon="-4.632667">
        <ele>1249.0</ele>
        <time>2015-03-15T15:04:54Z</time>
      </trkpt>
      <trkpt lat="40.290233" lon="-4.632567">
        <ele>1249.0</ele>
        <time>2015-03-15T15:04:55Z</time>
      </trkpt>
      <trkpt lat="40.290267" lon="-4.632450">
        <ele>1249.0</ele>
        <time>2015-03-15T15:04:56Z</time>
      </trkpt>
      <trkpt lat="40.290283" lon="-4.632317">
        <ele>1249.0</ele>
        <time>2015-03-15T15:04:57Z</time>
      </trkpt>
      <trkpt lat="40.290283" lon="-4.632183">
        <ele>1249.0</ele>
        <time>2015-03-15T15:04:58Z</time>
      </trkpt>
      <trkpt lat="40.290267" lon="-4.632067">
        <ele>1251.0</ele>
        <time>2015-03-15T15:04:59Z</time>
      </trkpt>
      <trkpt lat="40.290233" lon="-4.631967">
        <ele>1252.0</ele>
        <time>2015-03-15T15:05:00Z</time>
      </trkpt>
      <trkpt lat="40.290183" lon="-4.631883">
        <ele>1253.0</ele>
        <time>2015-03-15T15:05:01Z</time>
      </trkpt>
      <trkpt lat="40.290133" lon="-4.631817">
        <ele>1254.0</ele>
        <time>2015-03-15T15:05:02Z</time>
      </trkpt>
      <trkpt lat="40.290083" lon="-4.631750">
        <ele>1255.0</ele>
        <time>2015-03-15T15:05:03Z</time>
      </trkpt>
      <trkpt lat="40.290033" lon="-4.631700">
        <ele>1255.0</ele>
        <time>2015-03-15T15:05:04Z</time>
      </trkpt>
      <trkpt lat="40.289967" lon="-4.631667">
        <ele>1255.0</ele>
        <time>2015-03-15T15:05:05Z</time>
      </trkpt>
      <trkpt lat="40.289900" lon="-4.631650">
        <ele>1255.0</ele>
        <time>2015-03-15T15:05:06Z</time>
      </trkpt>
      <trkpt lat="40.289833" lon="-4.631667">
        <ele>1255.0</ele>
        <time>2015-03-15T15:05:07Z</time>
      </trkpt>
      <trkpt lat="40.289767" lon="-4.631700">
        <ele>1254.0</ele>
        <time>2015-03-15T15:05:08Z</time>
      </trkpt>
      <trkpt lat="40.289717" lon="-4.631767">
        <ele>1254.0</ele>
        <time>2015-03-15T15:05:09Z</time>
      </trkpt>
      <trkpt lat="40.289667" lon="-4.631850">
        <ele>1254.0</ele>
        <time>2015-03-15T15:05:10Z</time>
      </trkpt>
      <trkpt lat="40.289650" lon="-4.631950">
        <ele>1255.0</ele>
        <time>2015-03-15T15:05:11Z</time>
      </trkpt>
      <trkpt lat="40.289650" lon="-4.632050">
        <ele>1257.0</ele>
        <time>2015-03-15T15:05:12Z</time>
      </trkpt>
      <trkpt lat="40.289650" lon="-4.632150">
        <ele>1258.0</ele>
        <time>2015-03-15T15:05:13Z</time>
      </trkpt>
      <trkpt lat="40.289683" lon="-4.632233">
        <ele>1260.0</ele>
        <time>2015-03-15T15:05:14Z</time>
      </trkpt>
      <trkpt lat="40.289717" lon="-4.632317">
        <ele>1261.0</ele>
        <time>2015-03-15T15:05:15Z</time>
      </trkpt>
      <trkpt lat="40.289750" lon="-4.632383">
        <ele>1261.0</ele>
        <time>2015-03-15T15:05:16Z</time>
      </trkpt>
      <trkpt lat="40.289800" lon="-4.632467">
        <ele>1261.0</ele>
        <time>2015-03-15T15:05:17Z</time>
      </trkpt>
      <trkpt lat="40.289883" lon="-4.632517">
        <ele>1262.0</ele>
        <time>2015-03-15T15:05:18Z</time>
      </trkpt>
      <trkpt lat="40.289983" lon="-4.632550">
        <ele>1262.0</ele>
        <time>2015-03-15T15:05:19Z</time>
      </trkpt>
      <trkpt lat="40.290083" lon="-4.632567">
        <ele>1263.0</ele>
        <time>2015-03-15T15:05:20Z</time>
      </trkpt>
      <trkpt lat="40.290167" lon="-4.632533">
        <ele>1264.0</ele>
        <time>2015-03-15T15:05:21Z</time>
      </trkpt>
      <trkpt lat="40.290250" lon="-4.632483">
        <ele>1265.0</ele>
        <time>2015-03-15T15:05:22Z</time>
      </trkpt>
      <trkpt lat="40.290333" lon="-4.632417">
        <ele>1266.0</ele>
        <time>2015-03-15T15:05:23Z</time>
      </trkpt>
      <trkpt lat="40.290417" lon="-4.632333">
        <ele>1267.0</ele>
        <time>2015-03-15T15:05:24Z</time>
      </trkpt>
      <trkpt lat="40.290483" lon="-4.632233">
        <ele>1268.0</ele>
        <time>2015-03-15T15:05:25Z</time>
      </trkpt>
      <trkpt lat="40.290550" lon="-4.632133">
        <ele>1269.0</ele>
        <time>2015-03-15T15:05:26Z</time>
      </trkpt>
      <trkpt lat="40.290583" lon="-4.632017">
        <ele>1270.0</ele>
        <time>2015-03-15T15:05:27Z</time>
      </trkpt>
      <trkpt lat="40.290600" lon="-4.631917">
        <ele>1271.0</ele>
        <time>2015-03-15T15:05:28Z</time>
      </trkpt>
      <trkpt lat="40.290600" lon="-4.631800">
        <ele>1271.0</ele>
        <time>2015-03-15T15:05:29Z</time>
      </trkpt>
      <trkpt lat="40.290583" lon="-4.631683">
        <ele>1271.0</ele>
        <time>2015-03-15T15:05:30Z</time>
      </trkpt>
      <trkpt lat="40.290567" lon="-4.631583">
        <ele>1272.0</ele>
        <time>2015-03-15T15:05:31Z</time>
      </trkpt>
      <trkpt lat="40.290517" lon="-4.631483">
        <ele>1273.0</ele>
        <time>2015-03-15T15:05:32Z</time>
      </trkpt>
      <trkpt lat="40.290467" lon="-4.631417">
        <ele>1273.0</ele>
        <time>2015-03-15T15:05:33Z</time>
      </trkpt>
      <trkpt lat="40.290417" lon="-4.631350">
        <ele>1274.0</ele>
        <time>2015-03-15T15:05:34Z</time>
      </trkpt>
      <trkpt lat="40.290350" lon="-4.631317">
        <ele>1274.0</ele>
        <time>2015-03-15T15:05:35Z</time>
      </trkpt>
      <trkpt lat="40.290283" lon="-4.631283">
        <ele>1274.0</ele>
        <time>2015-03-15T15:05:36Z</time>
      </trkpt>
      <trkpt lat="40.290200" lon="-4.631267">
        <ele>1275.0</ele>
        <time>2015-03-15T15:05:37Z</time>
      </trkpt>
      <trkpt lat="40.290133" lon="-4.631250">
        <ele>1275.0</ele>
        <time>2015-03-15T15:05:38Z</time>
      </trkpt>
      <trkpt lat="40.290067" lon="-4.631250">
        <ele>1276.0</ele>
        <time>2015-03-15T15:05:39Z</time>
      </trkpt>
      <trkpt lat="40.290000" lon="-4.631267">
        <ele>1277.0</ele>
        <time>2015-03-15T15:05:40Z</time>
      </trkpt>
      <trkpt lat="40.289950" lon="-4.631300">
        <ele>1276.0</ele>
        <time>2015-03-15T15:05:41Z</time>
      </trkpt>
      <trkpt lat="40.289883" lon="-4.631350">
        <ele>1276.0</ele>
        <time>2015-03-15T15:05:42Z</time>
      </trkpt>
      <trkpt lat="40.289850" lon="-4.631433">
        <ele>1276.0</ele>
        <time>2015-03-15T15:05:43Z</time>
      </trkpt>
      <trkpt lat="40.289817" lon="-4.631533">
        <ele>1276.0</ele>
        <time>2015-03-15T15:05:44Z</time>
      </trkpt>
      <trkpt lat="40.289833" lon="-4.631650">
        <ele>1276.0</ele>
        <time>2015-03-15T15:05:45Z</time>
      </trkpt>
      <trkpt lat="40.289867" lon="-4.631750">
        <ele>1276.0</ele>
        <time>2015-03-15T15:05:46Z</time>
      </trkpt>
      <trkpt lat="40.289933" lon="-4.631850">
        <ele>1276.0</ele>
        <time>2015-03-15T15:05:47Z</time>
      </trkpt>
      <trkpt lat="40.290000" lon="-4.631917">
        <ele>1277.0</ele>
        <time>2015-03-15T15:05:48Z</time>
      </trkpt>
      <trkpt lat="40.290083" lon="-4.631967">
        <ele>1279.0</ele>
        <time>2015-03-15T15:05:49Z</time>
      </trkpt>
      <trkpt lat="40.290167" lon="-4.631983">
        <ele>1281.0</ele>
        <time>2015-03-15T15:05:50Z</time>
      </trkpt>
      <trkpt lat="40.290250" lon="-4.631983">
        <ele>1282.0</ele>
        <time>2015-03-15T15:05:51Z</time>
      </trkpt>
      <trkpt lat="40.290350" lon="-4.631967">
        <ele>1284.0</ele>
        <time>2015-03-15T15:05:52Z</time>
      </trkpt>
      <trkpt lat="40.290433" lon="-4.631917">
        <ele>1285.0</ele>
        <time>2015-03-15T15:05:53Z</time>
      </trkpt>
      <trkpt lat="40.290517" lon="-4.631850">
        <ele>1286.0</ele>
        <time>2015-03-15T15:05:54Z</time>
      </trkpt>
      <trkpt lat="40.290583" lon="-4.631767">
        <ele>1288.0</ele>
        <time>2015-03-15T15:05:55Z</time>
      </trkpt>
      <trkpt lat="40.290650" lon="-4.631700">
        <ele>1289.0</ele>
        <time>2015-03-15T15:05:56Z</time>
      </trkpt>
      <trkpt lat="40.290700" lon="-4.631617">
        <ele>1291.0</ele>
        <time>2015-03-15T15:05:57Z</time>
      </trkpt>
      <trkpt lat="40.290733" lon="-4.631517">
        <ele>1291.0</ele>
        <time>2015-03-15T15:05:58Z</time>
      </trkpt>
      <trkpt lat="40.290767" lon="-4.631417">
        <ele>1291.0</ele>
        <time>2015-03-15T15:05:59Z</time>
      </trkpt>
      <trkpt lat="40.290783" lon="-4.631283">
        <ele>1291.0</ele>
        <time>2015-03-15T15:06:00Z</time>
      </trkpt>
      <trkpt lat="40.290783" lon="-4.631167">
        <ele>1291.0</ele>
        <time>2015-03-15T15:06:01Z</time>
      </trkpt>
      <trkpt lat="40.290750" lon="-4.631033">
        <ele>1292.0</ele>
        <time>2015-03-15T15:06:02Z</time>
      </trkpt>
      <trkpt lat="40.290717" lon="-4.630933">
        <ele>1294.0</ele>
        <time>2015-03-15T15:06:03Z</time>
      </trkpt>
      <trkpt lat="40.290683" lon="-4.630867">
        <ele>1295.0</ele>
        <time>2015-03-15T15:06:04Z</time>
      </trkpt>
      <trkpt lat="40.290633" lon="-4.630817">
        <ele>1295.0</ele>
        <time>2015-03-15T15:06:05Z</time>
      </trkpt>
      <trkpt lat="40.290567" lon="-4.630750">
        <ele>1296.0</ele>
        <time>2015-03-15T15:06:06Z</time>
      </trkpt>
      <trkpt lat="40.290500" lon="-4.630717">
        <ele>1296.0</ele>
        <time>2015-03-15T15:06:07Z</time>
      </trkpt>
      <trkpt lat="40.290433" lon="-4.630700">
        <ele>1297.0</ele>
        <time>2015-03-15T15:06:08Z</time>
      </trkpt>
      <trkpt lat="40.290367" lon="-4.630717">
        <ele>1298.0</ele>
        <time>2015-03-15T15:06:09Z</time>
      </trkpt>
      <trkpt lat="40.290317" lon="-4.630767">
        <ele>1298.0</ele>
        <time>2015-03-15T15:06:10Z</time>
      </trkpt>
      <trkpt lat="40.290267" lon="-4.630833">
        <ele>1299.0</ele>
        <time>2015-03-15T15:06:11Z</time>
      </trkpt>
      <trkpt lat="40.290250" lon="-4.630933">
        <ele>1299.0</ele>
        <time>2015-03-15T15:06:12Z</time>
      </trkpt>
      <trkpt lat="40.290250" lon="-4.631033">
        <ele>1299.0</ele>
        <time>2015-03-15T15:06:13Z</time>
      </trkpt>
      <trkpt lat="40.290300" lon="-4.631117">
        <ele>1300.0</ele>
        <time>2015-03-15T15:06:14Z</time>
      </trkpt>
      <trkpt lat="40.290333" lon="-4.631183">
        <ele>1301.0</ele>
        <time>2015-03-15T15:06:15Z</time>
      </trkpt>
      <trkpt lat="40.290400" lon="-4.631250">
        <ele>1302.0</ele>
        <time>2015-03-15T15:06:16Z</time>
      </trkpt>
      <trkpt lat="40.290450" lon="-4.631300">
        <ele>1304.0</ele>
        <time>2015-03-15T15:06:17Z</time>
      </trkpt>
      <trkpt lat="40.290517" lon="-4.631333">
        <ele>1305.0</ele>
        <time>2015-03-15T15:06:18Z</time>
      </trkpt>
      <trkpt lat="40.290600" lon="-4.631350">
        <ele>1306.0</ele>
        <time>2015-03-15T15:06:19Z</time>
      </trkpt>
      <trkpt lat="40.290683" lon="-4.631350">
        <ele>1306.0</ele>
        <time>2015-03-15T15:06:20Z</time>
      </trkpt>
      <trkpt lat="40.290783" lon="-4.631300">
        <ele>1306.0</ele>
        <time>2015-03-15T15:06:21Z</time>
      </trkpt>
      <trkpt lat="40.290867" lon="-4.631250">
        <ele>1306.0</ele>
        <time>2015-03-15T15:06:22Z</time>
      </trkpt>
      <trkpt lat="40.290950" lon="-4.631167">
        <ele>1307.0</ele>
        <time>2015-03-15T15:06:23Z</time>
      </trkpt>
      <trkpt lat="40.291000" lon="-4.631067">
        <ele>1309.0</ele>
        <time>2015-03-15T15:06:24Z</time>
      </trkpt>
      <trkpt lat="40.291033" lon="-4.630950">
        <ele>1310.0</ele>
        <time>2015-03-15T15:06:25Z</time>
      </trkpt>
      <trkpt lat="40.291050" lon="-4.630833">
        <ele>1311.0</ele>
        <time>2015-03-15T15:06:26Z</time>
      </trkpt>
      <trkpt lat="40.291067" lon="-4.630717">
        <ele>1312.0</ele>
        <time>2015-03-15T15:06:27Z</time>
      </trkpt>
      <trkpt lat="40.291067" lon="-4.630617">
        <ele>1313.0</ele>
        <time>2015-03-15T15:06:28Z</time>
      </trkpt>
      <trkpt lat="40.291050" lon="-4.630500">
        <ele>1313.0</ele>
        <time>2015-03-15T15:06:29Z</time>
      </trkpt>
      <trkpt lat="40.291017" lon="-4.630400">
        <ele>1314.0</ele>
        <time>2015-03-15T15:06:30Z</time>
      </trkpt>
      <trkpt lat="40.290967" lon="-4.630317">
        <ele>1314.0</ele>
        <time>2015-03-15T15:06:31Z</time>
      </trkpt>
      <trkpt lat="40.290900" lon="-4.630250">
        <ele>1315.0</ele>
        <time>2015-03-15T15:06:32Z</time>
      </trkpt>
      <trkpt lat="40.290833" lon="-4.630217">
        <ele>1315.0</ele>
        <time>2015-03-15T15:06:33Z</time>
      </trkpt>
      <trkpt lat="40.290750" lon="-4.630217">
        <ele>1316.0</ele>
        <time>2015-03-15T15:06:34Z</time>
      </trkpt>
      <trkpt lat="40.290683" lon="-4.630233">
        <ele>1317.0</ele>
        <time>2015-03-15T15:06:35Z</time>
      </trkpt>
      <trkpt lat="40.290617" lon="-4.630267">
        <ele>1319.0</ele>
        <time>2015-03-15T15:06:36Z</time>
      </trkpt>
      <trkpt lat="40.290567" lon="-4.630333">
        <ele>1320.0</ele>
        <time>2015-03-15T15:06:37Z</time>
      </trkpt>
      <trkpt lat="40.290550" lon="-4.630400">
        <ele>1321.0</ele>
        <time>2015-03-15T15:06:38Z</time>
      </trkpt>
      <trkpt lat="40.290533" lon="-4.630500">
        <ele>1321.0</ele>
        <time>2015-03-15T15:06:39Z</time>
      </trkpt>
      <trkpt lat="40.290567" lon="-4.630617">
        <ele>1321.0</ele>
        <time>2015-03-15T15:06:40Z</time>
      </trkpt>
      <trkpt lat="40.290600" lon="-4.630700">
        <ele>1322.0</ele>
        <time>2015-03-15T15:06:41Z</time>
      </trkpt>
      <trkpt lat="40.290683" lon="-4.630783">
        <ele>1324.0</ele>
        <time>2015-03-15T15:06:42Z</time>
      </trkpt>
      <trkpt lat="40.290767" lon="-4.630817">
        <ele>1326.0</ele>
        <time>2015-03-15T15:06:43Z</time>
      </trkpt>
      <trkpt lat="40.290850" lon="-4.630833">
        <ele>1328.0</ele>
        <time>2015-03-15T15:06:44Z</time>
      </trkpt>
      <trkpt lat="40.290933" lon="-4.630833">
        <ele>1329.0</ele>
        <time>2015-03-15T15:06:45Z</time>
      </trkpt>
      <trkpt lat="40.291017" lon="-4.630817">
        <ele>1330.0</ele>
        <time>2015-03-15T15:06:46Z</time>
      </trkpt>
      <trkpt lat="40.291100" lon="-4.630783">
        <ele>1330.0</ele>
        <time>2015-03-15T15:06:47Z</time>
      </trkpt>
      <trkpt lat="40.291183" lon="-4.630733">
        <ele>1330.0</ele>
        <time>2015-03-15T15:06:48Z</time>
      </trkpt>
      <trkpt lat="40.291267" lon="-4.630650">
        <ele>1330.0</ele>
        <time>2015-03-15T15:06:49Z</time>
      </trkpt>
      <trkpt lat="40.291350" lon="-4.630550">
        <ele>1331.0</ele>
        <time>2015-03-15T15:06:50Z</time>
      </trkpt>
      <trkpt lat="40.291383" lon="-4.630433">
        <ele>1333.0</ele>
        <time>2015-03-15T15:06:51Z</time>
      </trkpt>
      <trkpt lat="40.291400" lon="-4.630300">
        <ele>1333.0</ele>
        <time>2015-03-15T15:06:52Z</time>
      </trkpt>
      <trkpt lat="40.291400" lon="-4.630183">
        <ele>1334.0</ele>
        <time>2015-03-15T15:06:53Z</time>
      </trkpt>
      <trkpt lat="40.291367" lon="-4.630067">
        <ele>1335.0</ele>
        <time>2015-03-15T15:06:54Z</time>
      </trkpt>
      <trkpt lat="40.291333" lon="-4.629967">
        <ele>1337.0</ele>
        <time>2015-03-15T15:06:55Z</time>
      </trkpt>
      <trkpt lat="40.291300" lon="-4.629883">
        <ele>1338.0</ele>
        <time>2015-03-15T15:06:56Z</time>
      </trkpt>
      <trkpt lat="40.291250" lon="-4.629833">
        <ele>1338.0</ele>
        <time>2015-03-15T15:06:57Z</time>
      </trkpt>
      <trkpt lat="40.291183" lon="-4.629800">
        <ele>1338.0</ele>
        <time>2015-03-15T15:06:58Z</time>
      </trkpt>
      <trkpt lat="40.291117" lon="-4.629800">
        <ele>1337.0</ele>
        <time>2015-03-15T15:06:59Z</time>
      </trkpt>
      <trkpt lat="40.291033" lon="-4.629817">
        <ele>1337.0</ele>
        <time>2015-03-15T15:07:00Z</time>
      </trkpt>
      <trkpt lat="40.290967" lon="-4.629867">
        <ele>1338.0</ele>
        <time>2015-03-15T15:07:01Z</time>
      </trkpt>
      <trkpt lat="40.290900" lon="-4.629917">
        <ele>1339.0</ele>
        <time>2015-03-15T15:07:02Z</time>
      </trkpt>
      <trkpt lat="40.290850" lon="-4.629983">
        <ele>1340.0</ele>
        <time>2015-03-15T15:07:03Z</time>
      </trkpt>
      <trkpt lat="40.290817" lon="-4.630050">
        <ele>1341.0</ele>
        <time>2015-03-15T15:07:04Z</time>
      </trkpt>
      <trkpt lat="40.290800" lon="-4.630133">
        <ele>1342.0</ele>
        <time>2015-03-15T15:07:05Z</time>
      </trkpt>
      <trkpt lat="40.290783" lon="-4.630217">
        <ele>1342.0</ele>
        <time>2015-03-15T15:07:06Z</time>
      </trkpt>
      <trkpt lat="40.290783" lon="-4.630300">
        <ele>1342.0</ele>
        <time>2015-03-15T15:07:07Z</time>
      </trkpt>
      <trkpt lat="40.290817" lon="-4.630400">
        <ele>1342.0</ele>
        <time>2015-03-15T15:07:08Z</time>
      </trkpt>
      <trkpt lat="40.290867" lon="-4.630483">
        <ele>1343.0</ele>
        <time>2015-03-15T15:07:09Z</time>
      </trkpt>
      <trkpt lat="40.290933" lon="-4.630533">
        <ele>1345.0</ele>
        <time>2015-03-15T15:07:10Z</time>
      </trkpt>
      <trkpt lat="40.291017" lon="-4.630567">
        <ele>1347.0</ele>
        <time>2015-03-15T15:07:11Z</time>
      </trkpt>
      <trkpt lat="40.291100" lon="-4.630567">
        <ele>1348.0</ele>
        <time>2015-03-15T15:07:12Z</time>
      </trkpt>
      <trkpt lat="40.291183" lon="-4.630550">
        <ele>1348.0</ele>
        <time>2015-03-15T15:07:13Z</time>
      </trkpt>
      <trkpt lat="40.291283" lon="-4.630533">
        <ele>1348.0</ele>
        <time>2015-03-15T15:07:14Z</time>
      </trkpt>
      <trkpt lat="40.291367" lon="-4.630483">
        <ele>1348.0</ele>
        <time>2015-03-15T15:07:15Z</time>
      </trkpt>
      <trkpt lat="40.291450" lon="-4.630417">
        <ele>1348.0</ele>
        <time>2015-03-15T15:07:16Z</time>
      </trkpt>
      <trkpt lat="40.291533" lon="-4.630317">
        <ele>1349.0</ele>
        <time>2015-03-15T15:07:17Z</time>
      </trkpt>
      <trkpt lat="40.291600" lon="-4.630233">
        <ele>1349.0</ele>
        <time>2015-03-15T15:07:18Z</time>
      </trkpt>
      <trkpt lat="40.291667" lon="-4.630117">
        <ele>1351.0</ele>
        <time>2015-03-15T15:07:19Z</time>
      </trkpt>
      <trkpt lat="40.291717" lon="-4.630017">
        <ele>1352.0</ele>
        <time>2015-03-15T15:07:20Z</time>
      </trkpt>
      <trkpt lat="40.291750" lon="-4.629900">
        <ele>1353.0</ele>
        <time>2015-03-15T15:07:21Z</time>
      </trkpt>
      <trkpt lat="40.291767" lon="-4.629783">
        <ele>1354.0</ele>
        <time>2015-03-15T15:07:22Z</time>
      </trkpt>
      <trkpt lat="40.291767" lon="-4.629667">
        <ele>1354.0</ele>
        <time>2015-03-15T15:07:23Z</time>
      </trkpt>
      <trkpt lat="40.291733" lon="-4.629533">
        <ele>1354.0</ele>
        <time>2015-03-15T15:07:24Z</time>
      </trkpt>
      <trkpt lat="40.291700" lon="-4.629433">
        <ele>1354.0</ele>
        <time>2015-03-15T15:07:25Z</time>
      </trkpt>
      <trkpt lat="40.291667" lon="-4.629333">
        <ele>1354.0</ele>
        <time>2015-03-15T15:07:26Z</time>
      </trkpt>
      <trkpt lat="40.291600" lon="-4.629267">
        <ele>1355.0</ele>
        <time>2015-03-15T15:07:27Z</time>
      </trkpt>
      <trkpt lat="40.291533" lon="-4.629217">
        <ele>1355.0</ele>
        <time>2015-03-15T15:07:28Z</time>
      </trkpt>
      <trkpt lat="40.291467" lon="-4.629167">
        <ele>1356.0</ele>
        <time>2015-03-15T15:07:29Z</time>
      </trkpt>
      <trkpt lat="40.291383" lon="-4.629133">
        <ele>1356.0</ele>
        <time>2015-03-15T15:07:30Z</time>
      </trkpt>
      <trkpt lat="40.291300" lon="-4.629133">
        <ele>1357.0</ele>
        <time>2015-03-15T15:07:31Z</time>
      </trkpt>
      <trkpt lat="40.291217" lon="-4.629133">
        <ele>1358.0</ele>
        <time>2015-03-15T15:07:32Z</time>
      </trkpt>
      <trkpt lat="40.291150" lon="-4.629183">
        <ele>1360.0</ele>
        <time>2015-03-15T15:07:33Z</time>
      </trkpt>
      <trkpt lat="40.291083" lon="-4.629233">
        <ele>1361.0</ele>
        <time>2015-03-15T15:07:34Z</time>
      </trkpt>
      <trkpt lat="40.291050" lon="-4.629300">
        <ele>1362.0</ele>
        <time>2015-03-15T15:07:35Z</time>
      </trkpt>
      <trkpt lat="40.291033" lon="-4.629400">
        <ele>1363.0</ele>
        <time>2015-03-15T15:07:36Z</time>
      </trkpt>
      <trkpt lat="40.291017" lon="-4.629483">
        <ele>1363.0</ele>
        <time>2015-03-15T15:07:37Z</time>
      </trkpt>
      <trkpt lat="40.291033" lon="-4.629583">
        <ele>1364.0</ele>
        <time>2015-03-15T15:07:38Z</time>
      </trkpt>
      <trkpt lat="40.291067" lon="-4.629650">
        <ele>1366.0</ele>
        <time>2015-03-15T15:07:39Z</time>
      </trkpt>
      <trkpt lat="40.291117" lon="-4.629717">
        <ele>1367.0</ele>
        <time>2015-03-15T15:07:40Z</time>
      </trkpt>
      <trkpt lat="40.291183" lon="-4.629750">
        <ele>1368.0</ele>
        <time>2015-03-15T15:07:41Z</time>
      </trkpt>
      <trkpt lat="40.291267" lon="-4.629783">
        <ele>1368.0</ele>
        <time>2015-03-15T15:07:42Z</time>
      </trkpt>
      <trkpt lat="40.291367" lon="-4.629767">
        <ele>1369.0</ele>
        <time>2015-03-15T15:07:43Z</time>
      </trkpt>
      <trkpt lat="40.291467" lon="-4.629733">
        <ele>1371.0</ele>
        <time>2015-03-15T15:07:44Z</time>
      </trkpt>
      <trkpt lat="40.291550" lon="-4.629683">
        <ele>1373.0</ele>
        <time>2015-03-15T15:07:45Z</time>
      </trkpt>
      <trkpt lat="40.291633" lon="-4.629600">
        <ele>1374.0</ele>
        <time>2015-03-15T15:07:46Z</time>
      </trkpt>
      <trkpt lat="40.291717" lon="-4.629517">
        <ele>1374.0</ele>
        <time>2015-03-15T15:07:47Z</time>
      </trkpt>
      <trkpt lat="40.291783" lon="-4.629417">
        <ele>1374.0</ele>
        <time>2015-03-15T15:07:48Z</time>
      </trkpt>
      <trkpt lat="40.291850" lon="-4.629317">
        <ele>1374.0</ele>
        <time>2015-03-15T15:07:49Z</time>
      </trkpt>
      <trkpt lat="40.291900" lon="-4.629183">
        <ele>1374.0</ele>
        <time>2015-03-15T15:07:50Z</time>
      </trkpt>
      <trkpt lat="40.291950" lon="-4.629067">
        <ele>1374.0</ele>
        <time>2015-03-15T15:07:51Z</time>
      </trkpt>
      <trkpt lat="40.291983" lon="-4.628933">
        <ele>1376.0</ele>
        <time>2015-03-15T15:07:52Z</time>
      </trkpt>
      <trkpt lat="40.292000" lon="-4.628817">
        <ele>1377.0</ele>
        <time>2015-03-15T15:07:53Z</time>
      </trkpt>
      <trkpt lat="40.292000" lon="-4.628700">
        <ele>1377.0</ele>
        <time>2015-03-15T15:07:54Z</time>
      </trkpt>
      <trkpt lat="40.291983" lon="-4.628583">
        <ele>1377.0</ele>
        <time>2015-03-15T15:07:55Z</time>
      </trkpt>
      <trkpt lat="40.291967" lon="-4.628450">
        <ele>1377.0</ele>
        <time>2015-03-15T15:07:56Z</time>
      </trkpt>
      <trkpt lat="40.291950" lon="-4.628333">
        <ele>1378.0</ele>
        <time>2015-03-15T15:07:57Z</time>
      </trkpt>
      <trkpt lat="40.291917" lon="-4.628217">
        <ele>1380.0</ele>
        <time>2015-03-15T15:07:58Z</time>
      </trkpt>
      <trkpt lat="40.291867" lon="-4.628117">
        <ele>1381.0</ele>
        <time>2015-03-15T15:07:59Z</time>
      </trkpt>
      <trkpt lat="40.291833" lon="-4.628033">
        <ele>1382.0</ele>
        <time>2015-03-15T15:08:00Z</time>
      </trkpt>
      <trkpt lat="40.291783" lon="-4.627950">
        <ele>1383.0</ele>
        <time>2015-03-15T15:08:01Z</time>
      </trkpt>
      <trkpt lat="40.291733" lon="-4.627900">
        <ele>1382.0</ele>
        <time>2015-03-15T15:08:02Z</time>
      </trkpt>
      <trkpt lat="40.291667" lon="-4.627850">
        <ele>1382.0</ele>
        <time>2015-03-15T15:08:03Z</time>
      </trkpt>
      <trkpt lat="40.291583" lon="-4.627833">
        <ele>1381.0</ele>
        <time>2015-03-15T15:08:04Z</time>
      </trkpt>
      <trkpt lat="40.291517" lon="-4.627850">
        <ele>1380.0</ele>
        <time>2015-03-15T15:08:05Z</time>
      </trkpt>
      <trkpt lat="40.291433" lon="-4.627900">
        <ele>1380.0</ele>
        <time>2015-03-15T15:08:06Z</time>
      </trkpt>
      <trkpt lat="40.291367" lon="-4.627967">
        <ele>1381.0</ele>
        <time>2015-03-15T15:08:07Z</time>
      </trkpt>
      <trkpt lat="40.291333" lon="-4.628033">
        <ele>1383.0</ele>
        <time>2015-03-15T15:08:08Z</time>
      </trkpt>
      <trkpt lat="40.291300" lon="-4.628117">
        <ele>1384.0</ele>
        <time>2015-03-15T15:08:09Z</time>
      </trkpt>
      <trkpt lat="40.291283" lon="-4.628200">
        <ele>1384.0</ele>
        <time>2015-03-15T15:08:10Z</time>
      </trkpt>
      <trkpt lat="40.291283" lon="-4.628283">
        <ele>1384.0</ele>
        <time>2015-03-15T15:08:11Z</time>
      </trkpt>
      <trkpt lat="40.291283" lon="-4.628383">
        <ele>1384.0</ele>
        <time>2015-03-15T15:08:12Z</time>
      </trkpt>
      <trkpt lat="40.291300" lon="-4.628483">
        <ele>1384.0</ele>
        <time>2015-03-15T15:08:13Z</time>
      </trkpt>
      <trkpt lat="40.291333" lon="-4.628567">
        <ele>1385.0</ele>
        <time>2015-03-15T15:08:14Z</time>
      </trkpt>
      <trkpt lat="40.291383" lon="-4.628650">
        <ele>1386.0</ele>
        <time>2015-03-15T15:08:15Z</time>
      </trkpt>
      <trkpt lat="40.291450" lon="-4.628717">
        <ele>1387.0</ele>
        <time>2015-03-15T15:08:16Z</time>
      </trkpt>
      <trkpt lat="40.291533" lon="-4.628767">
        <ele>1388.0</ele>
        <time>2015-03-15T15:08:17Z</time>
      </trkpt>
      <trkpt lat="40.291617" lon="-4.628800">
        <ele>1390.0</ele>
        <time>2015-03-15T15:08:18Z</time>
      </trkpt>
      <trkpt lat="40.291717" lon="-4.628783">
        <ele>1391.0</ele>
        <time>2015-03-15T15:08:19Z</time>
      </trkpt>
      <trkpt lat="40.291817" lon="-4.628767">
        <ele>1393.0</ele>
        <time>2015-03-15T15:08:20Z</time>
      </trkpt>
      <trkpt lat="40.291917" lon="-4.628717">
        <ele>1395.0</ele>
        <time>2015-03-15T15:08:21Z</time>
      </trkpt>
      <trkpt lat="40.292000" lon="-4.628667">
        <ele>1396.0</ele>
        <time>2015-03-15T15:08:22Z</time>
      </trkpt>
      <trkpt lat="40.292067" lon="-4.628617">
        <ele>1397.0</ele>
        <time>2015-03-15T15:08:23Z</time>
      </trkpt>
      <trkpt lat="40.292150" lon="-4.628533">
        <ele>1396.0</ele>
        <time>2015-03-15T15:08:24Z</time>
      </trkpt>
      <trkpt lat="40.292217" lon="-4.628450">
        <ele>1395.0</ele>
        <time>2015-03-15T15:08:25Z</time>
      </trkpt>
      <trkpt lat="40.292267" lon="-4.628333">
        <ele>1394.0</ele>
        <time>2015-03-15T15:08:26Z</time>
      </trkpt>
      <trkpt lat="40.292317" lon="-4.628200">
        <ele>1394.0</ele>
        <time>2015-03-15T15:08:27Z</time>
      </trkpt>
      <trkpt lat="40.292333" lon="-4.628067">
        <ele>1394.0</ele>
        <time>2015-03-15T15:08:28Z</time>
      </trkpt>
      <trkpt lat="40.292333" lon="-4.627933">
        <ele>1395.0</ele>
        <time>2015-03-15T15:08:29Z</time>
      </trkpt>
      <trkpt lat="40.292367" lon="-4.627817">
        <ele>1396.0</ele>
        <time>2015-03-15T15:08:30Z</time>
      </trkpt>
      <trkpt lat="40.292383" lon="-4.627717">
        <ele>1396.0</ele>
        <time>2015-03-15T15:08:31Z</time>
      </trkpt>
      <trkpt lat="40.292400" lon="-4.627600">
        <ele>1395.0</ele>
        <time>2015-03-15T15:08:32Z</time>
      </trkpt>
      <trkpt lat="40.292417" lon="-4.627483">
        <ele>1394.0</ele>
        <time>2015-03-15T15:08:33Z</time>
      </trkpt>
      <trkpt lat="40.292400" lon="-4.627367">
        <ele>1393.0</ele>
        <time>2015-03-15T15:08:34Z</time>
      </trkpt>
      <trkpt lat="40.292367" lon="-4.627250">
        <ele>1392.0</ele>
        <time>2015-03-15T15:08:35Z</time>
      </trkpt>
      <trkpt lat="40.292317" lon="-4.627133">
        <ele>1393.0</ele>
        <time>2015-03-15T15:08:36Z</time>
      </trkpt>
      <trkpt lat="40.292250" lon="-4.627050">
        <ele>1393.0</ele>
        <time>2015-03-15T15:08:37Z</time>
      </trkpt>
      <trkpt lat="40.292167" lon="-4.627000">
        <ele>1394.0</ele>
        <time>2015-03-15T15:08:38Z</time>
      </trkpt>
      <trkpt lat="40.292100" lon="-4.626950">
        <ele>1396.0</ele>
        <time>2015-03-15T15:08:39Z</time>
      </trkpt>
      <trkpt lat="40.292017" lon="-4.626900">
        <ele>1398.0</ele>
        <time>2015-03-15T15:08:40Z</time>
      </trkpt>
      <trkpt lat="40.291950" lon="-4.626850">
        <ele>1399.0</ele>
        <time>2015-03-15T15:08:41Z</time>
      </trkpt>
      <trkpt lat="40.291883" lon="-4.626800">
        <ele>1400.0</ele>
        <time>2015-03-15T15:08:42Z</time>
      </trkpt>
      <trkpt lat="40.291800" lon="-4.626767">
        <ele>1401.0</ele>
        <time>2015-03-15T15:08:43Z</time>
      </trkpt>
      <trkpt lat="40.291717" lon="-4.626733">
        <ele>1401.0</ele>
        <time>2015-03-15T15:08:44Z</time>
      </trkpt>
      <trkpt lat="40.291633" lon="-4.626733">
        <ele>1402.0</ele>
        <time>2015-03-15T15:08:45Z</time>
      </trkpt>
      <trkpt lat="40.291550" lon="-4.626733">
        <ele>1403.0</ele>
        <time>2015-03-15T15:08:46Z</time>
      </trkpt>
      <trkpt lat="40.291467" lon="-4.626767">
        <ele>1403.0</ele>
        <time>2015-03-15T15:08:47Z</time>
      </trkpt>
      <trkpt lat="40.291400" lon="-4.626800">
        <ele>1404.0</ele>
        <time>2015-03-15T15:08:48Z</time>
      </trkpt>
      <trkpt lat="40.291333" lon="-4.626850">
        <ele>1405.0</ele>
        <time>2015-03-15T15:08:49Z</time>
      </trkpt>
      <trkpt lat="40.291267" lon="-4.626900">
        <ele>1406.0</ele>
        <time>2015-03-15T15:08:50Z</time>
      </trkpt>
      <trkpt lat="40.291233" lon="-4.626967">
        <ele>1407.0</ele>
        <time>2015-03-15T15:08:51Z</time>
      </trkpt>
      <trkpt lat="40.291200" lon="-4.627050">
        <ele>1406.0</ele>
        <time>2015-03-15T15:08:52Z</time>
      </trkpt>
      <trkpt lat="40.291183" lon="-4.627133">
        <ele>1406.0</ele>
        <time>2015-03-15T15:08:53Z</time>
      </trkpt>
      <trkpt lat="40.291167" lon="-4.627217">
        <ele>1406.0</ele>
        <time>2015-03-15T15:08:54Z</time>
      </trkpt>
      <trkpt lat="40.291183" lon="-4.627317">
        <ele>1406.0</ele>
        <time>2015-03-15T15:08:55Z</time>
      </trkpt>
      <trkpt lat="40.291200" lon="-4.627417">
        <ele>1406.0</ele>
        <time>2015-03-15T15:08:56Z</time>
      </trkpt>
      <trkpt lat="40.291250" lon="-4.627483">
        <ele>1406.0</ele>
        <time>2015-03-15T15:08:57Z</time>
      </trkpt>
      <trkpt lat="40.291317" lon="-4.627550">
        <ele>1406.0</ele>
        <time>2015-03-15T15:08:58Z</time>
      </trkpt>
      <trkpt lat="40.291417" lon="-4.627583">
        <ele>1407.0</ele>
        <time>2015-03-15T15:08:59Z</time>
      </trkpt>
      <trkpt lat="40.291500" lon="-4.627600">
        <ele>1407.0</ele>
        <time>2015-03-15T15:09:00Z</time>
      </trkpt>
      <trkpt lat="40.291600" lon="-4.627567">
        <ele>1409.0</ele>
        <time>2015-03-15T15:09:01Z</time>
      </trkpt>
      <trkpt lat="40.291683" lon="-4.627517">
        <ele>1411.0</ele>
        <time>2015-03-15T15:09:02Z</time>
      </trkpt>
      <trkpt lat="40.291767" lon="-4.627450">
        <ele>1413.0</ele>
        <time>2015-03-15T15:09:03Z</time>
      </trkpt>
      <trkpt lat="40.291833" lon="-4.627367">
        <ele>1415.0</ele>
        <time>2015-03-15T15:09:04Z</time>
      </trkpt>
      <trkpt lat="40.291900" lon="-4.627250">
        <ele>1416.0</ele>
        <time>2015-03-15T15:09:05Z</time>
      </trkpt>
      <trkpt lat="40.291950" lon="-4.627133">
        <ele>1418.0</ele>
        <time>2015-03-15T15:09:06Z</time>
      </trkpt>
      <trkpt lat="40.291983" lon="-4.627017">
        <ele>1420.0</ele>
        <time>2015-03-15T15:09:07Z</time>
      </trkpt>
      <trkpt lat="40.292017" lon="-4.626883">
        <ele>1421.0</ele>
        <time>2015-03-15T15:09:08Z</time>
      </trkpt>
      <trkpt lat="40.292033" lon="-4.626767">
        <ele>1423.0</ele>
        <time>2015-03-15T15:09:09Z</time>
      </trkpt>
      <trkpt lat="40.292033" lon="-4.626633">
        <ele>1423.0</ele>
        <time>2015-03-15T15:09:10Z</time>
      </trkpt>
      <trkpt lat="40.292033" lon="-4.626483">
        <ele>1424.0</ele>
        <time>2015-03-15T15:09:11Z</time>
      </trkpt>
      <trkpt lat="40.292017" lon="-4.626333">
        <ele>1425.0</ele>
        <time>2015-03-15T15:09:12Z</time>
      </trkpt>
      <trkpt lat="40.291983" lon="-4.626183">
        <ele>1426.0</ele>
        <time>2015-03-15T15:09:13Z</time>
      </trkpt>
      <trkpt lat="40.291950" lon="-4.626033">
        <ele>1428.0</ele>
        <time>2015-03-15T15:09:14Z</time>
      </trkpt>
      <trkpt lat="40.291900" lon="-4.625933">
        <ele>1430.0</ele>
        <time>2015-03-15T15:09:15Z</time>
      </trkpt>
      <trkpt lat="40.291867" lon="-4.625833">
        <ele>1431.0</ele>
        <time>2015-03-15T15:09:16Z</time>
      </trkpt>
      <trkpt lat="40.291817" lon="-4.625733">
        <ele>1432.0</ele>
        <time>2015-03-15T15:09:17Z</time>
      </trkpt>
      <trkpt lat="40.291767" lon="-4.625667">
        <ele>1431.0</ele>
        <time>2015-03-15T15:09:18Z</time>
      </trkpt>
      <trkpt lat="40.291700" lon="-4.625617">
        <ele>1431.0</ele>
        <time>2015-03-15T15:09:19Z</time>
      </trkpt>
      <trkpt lat="40.291633" lon="-4.625567">
        <ele>1430.0</ele>
        <time>2015-03-15T15:09:20Z</time>
      </trkpt>
      <trkpt lat="40.291550" lon="-4.625533">
        <ele>1430.0</ele>
        <time>2015-03-15T15:09:21Z</time>
      </trkpt>
      <trkpt lat="40.291467" lon="-4.625533">
        <ele>1430.0</ele>
        <time>2015-03-15T15:09:22Z</time>
      </trkpt>
      <trkpt lat="40.291400" lon="-4.625533">
        <ele>1431.0</ele>
        <time>2015-03-15T15:09:23Z</time>
      </trkpt>
      <trkpt lat="40.291333" lon="-4.625567">
        <ele>1432.0</ele>
        <time>2015-03-15T15:09:24Z</time>
      </trkpt>
      <trkpt lat="40.291267" lon="-4.625617">
        <ele>1432.0</ele>
        <time>2015-03-15T15:09:25Z</time>
      </trkpt>
      <trkpt lat="40.291233" lon="-4.625700">
        <ele>1432.0</ele>
        <time>2015-03-15T15:09:26Z</time>
      </trkpt>
      <trkpt lat="40.291200" lon="-4.625783">
        <ele>1432.0</ele>
        <time>2015-03-15T15:09:27Z</time>
      </trkpt>
      <trkpt lat="40.291200" lon="-4.625883">
        <ele>1432.0</ele>
        <time>2015-03-15T15:09:28Z</time>
      </trkpt>
      <trkpt lat="40.291217" lon="-4.625983">
        <ele>1432.0</ele>
        <time>2015-03-15T15:09:29Z</time>
      </trkpt>
      <trkpt lat="40.291250" lon="-4.626067">
        <ele>1432.0</ele>
        <time>2015-03-15T15:09:30Z</time>
      </trkpt>
      <trkpt lat="40.291300" lon="-4.626133">
        <ele>1433.0</ele>
        <time>2015-03-15T15:09:31Z</time>
      </trkpt>
      <trkpt lat="40.291367" lon="-4.626183">
        <ele>1433.0</ele>
        <time>2015-03-15T15:09:32Z</time>
      </trkpt>
      <trkpt lat="40.291450" lon="-4.626217">
        <ele>1433.0</ele>
        <time>2015-03-15T15:09:33Z</time>
      </trkpt>
      <trkpt lat="40.291533" lon="-4.626233">
        <ele>1433.0</ele>
        <time>2015-03-15T15:09:34Z</time>
      </trkpt>
      <trkpt lat="40.291617" lon="-4.626233">
        <ele>1433.0</ele>
        <time>2015-03-15T15:09:35Z</time>
      </trkpt>
      <trkpt lat="40.291700" lon="-4.626217">
        <ele>1434.0</ele>
        <time>2015-03-15T15:09:36Z</time>
      </trkpt>
      <trkpt lat="40.291800" lon="-4.626167">
        <ele>1434.0</ele>
        <time>2015-03-15T15:09:37Z</time>
      </trkpt>
      <trkpt lat="40.291883" lon="-4.626083">
        <ele>1434.0</ele>
        <time>2015-03-15T15:09:38Z</time>
      </trkpt>
      <trkpt lat="40.291933" lon="-4.625950">
        <ele>1434.0</ele>
        <time>2015-03-15T15:09:39Z</time>
      </trkpt>
      <trkpt lat="40.291967" lon="-4.625817">
        <ele>1435.0</ele>
        <time>2015-03-15T15:09:40Z</time>
      </trkpt>
      <trkpt lat="40.291983" lon="-4.625700">
        <ele>1436.0</ele>
        <time>2015-03-15T15:09:41Z</time>
      </trkpt>
      <trkpt lat="40.292000" lon="-4.625583">
        <ele>1437.0</ele>
        <time>2015-03-15T15:09:42Z</time>
      </trkpt>
      <trkpt lat="40.292000" lon="-4.625467">
        <ele>1438.0</ele>
        <time>2015-03-15T15:09:43Z</time>
      </trkpt>
      <trkpt lat="40.292000" lon="-4.625333">
        <ele>1437.0</ele>
        <time>2015-03-15T15:09:44Z</time>
      </trkpt>
      <trkpt lat="40.291983" lon="-4.625200">
        <ele>1437.0</ele>
        <time>2015-03-15T15:09:45Z</time>
      </trkpt>
      <trkpt lat="40.291983" lon="-4.625033">
        <ele>1438.0</ele>
        <time>2015-03-15T15:09:46Z</time>
      </trkpt>
      <trkpt lat="40.291967" lon="-4.624883">
        <ele>1439.0</ele>
        <time>2015-03-15T15:09:47Z</time>
      </trkpt>
      <trkpt lat="40.291950" lon="-4.624750">
        <ele>1442.0</ele>
        <time>2015-03-15T15:09:48Z</time>
      </trkpt>
      <trkpt lat="40.291917" lon="-4.624617">
        <ele>1445.0</ele>
        <time>2015-03-15T15:09:49Z</time>
      </trkpt>
      <trkpt lat="40.291883" lon="-4.624500">
        <ele>1447.0</ele>
        <time>2015-03-15T15:09:50Z</time>
      </trkpt>
      <trkpt lat="40.291833" lon="-4.624400">
        <ele>1448.0</ele>
        <time>2015-03-15T15:09:51Z</time>
      </trkpt>
      <trkpt lat="40.291783" lon="-4.624317">
        <ele>1449.0</ele>
        <time>2015-03-15T15:09:52Z</time>
      </trkpt>
      <trkpt lat="40.291717" lon="-4.624267">
        <ele>1450.0</ele>
        <time>2015-03-15T15:09:53Z</time>
      </trkpt>
      <trkpt lat="40.291633" lon="-4.624217">
        <ele>1450.0</ele>
        <time>2015-03-15T15:09:54Z</time>
      </trkpt>
      <trkpt lat="40.291533" lon="-4.624217">
        <ele>1451.0</ele>
        <time>2015-03-15T15:09:55Z</time>
      </trkpt>
      <trkpt lat="40.291433" lon="-4.624233">
        <ele>1453.0</ele>
        <time>2015-03-15T15:09:56Z</time>
      </trkpt>
      <trkpt lat="40.291367" lon="-4.624283">
        <ele>1456.0</ele>
        <time>2015-03-15T15:09:57Z</time>
      </trkpt>
      <trkpt lat="40.291317" lon="-4.624350">
        <ele>1458.0</ele>
        <time>2015-03-15T15:09:58Z</time>
      </trkpt>
      <trkpt lat="40.291300" lon="-4.624417">
        <ele>1459.0</ele>
        <time>2015-03-15T15:09:59Z</time>
      </trkpt>
      <trkpt lat="40.291300" lon="-4.624500">
        <ele>1460.0</ele>
        <time>2015-03-15T15:10:00Z</time>
      </trkpt>
      <trkpt lat="40.291300" lon="-4.624583">
        <ele>1459.0</ele>
        <time>2015-03-15T15:10:01Z</time>
      </trkpt>
      <trkpt lat="40.291333" lon="-4.624667">
        <ele>1459.0</ele>
        <time>2015-03-15T15:10:02Z</time>
      </trkpt>
      <trkpt lat="40.291367" lon="-4.624750">
        <ele>1458.0</ele>
        <time>2015-03-15T15:10:03Z</time>
      </trkpt>
      <trkpt lat="40.291433" lon="-4.624800">
        <ele>1457.0</ele>
        <time>2015-03-15T15:10:04Z</time>
      </trkpt>
      <trkpt lat="40.291517" lon="-4.624833">
        <ele>1456.0</ele>
        <time>2015-03-15T15:10:05Z</time>
      </trkpt>
      <trkpt lat="40.291617" lon="-4.624833">
        <ele>1455.0</ele>
        <time>2015-03-15T15:10:06Z</time>
      </trkpt>
      <trkpt lat="40.291700" lon="-4.624800">
        <ele>1455.0</ele>
        <time>2015-03-15T15:10:07Z</time>
      </trkpt>
      <trkpt lat="40.291783" lon="-4.624733">
        <ele>1455.0</ele>
        <time>2015-03-15T15:10:08Z</time>
      </trkpt>
      <trkpt lat="40.291867" lon="-4.624650">
        <ele>1455.0</ele>
        <time>2015-03-15T15:10:09Z</time>
      </trkpt>
      <trkpt lat="40.291933" lon="-4.624567">
        <ele>1456.0</ele>
        <time>2015-03-15T15:10:10Z</time>
      </trkpt>
      <trkpt lat="40.291983" lon="-4.624450">
        <ele>1458.0</ele>
        <time>2015-03-15T15:10:11Z</time>
      </trkpt>
      <trkpt lat="40.292017" lon="-4.624317">
        <ele>1458.0</ele>
        <time>2015-03-15T15:10:12Z</time>
      </trkpt>
      <trkpt lat="40.292033" lon="-4.624183">
        <ele>1460.0</ele>
        <time>2015-03-15T15:10:13Z</time>
      </trkpt>
      <trkpt lat="40.292017" lon="-4.624067">
        <ele>1462.0</ele>
        <time>2015-03-15T15:10:14Z</time>
      </trkpt>
      <trkpt lat="40.291983" lon="-4.623950">
        <ele>1464.0</ele>
        <time>2015-03-15T15:10:15Z</time>
      </trkpt>
      <trkpt lat="40.291950" lon="-4.623850">
        <ele>1465.0</ele>
        <time>2015-03-15T15:10:16Z</time>
      </trkpt>
      <trkpt lat="40.291883" lon="-4.623767">
        <ele>1466.0</ele>
        <time>2015-03-15T15:10:17Z</time>
      </trkpt>
      <trkpt lat="40.291817" lon="-4.623683">
        <ele>1466.0</ele>
        <time>2015-03-15T15:10:18Z</time>
      </trkpt>
      <trkpt lat="40.291717" lon="-4.623600">
        <ele>1467.0</ele>
        <time>2015-03-15T15:10:19Z</time>
      </trkpt>
      <trkpt lat="40.291633" lon="-4.623517">
        <ele>1468.0</ele>
        <time>2015-03-15T15:10:20Z</time>
      </trkpt>
      <trkpt lat="40.291533" lon="-4.623450">
        <ele>1469.0</ele>
        <time>2015-03-15T15:10:21Z</time>
      </trkpt>
      <trkpt lat="40.291433" lon="-4.623400">
        <ele>1472.0</ele>
        <time>2015-03-15T15:10:22Z</time>
      </trkpt>
      <trkpt lat="40.291333" lon="-4.623367">
        <ele>1474.0</ele>
        <time>2015-03-15T15:10:23Z</time>
      </trkpt>
      <trkpt lat="40.291250" lon="-4.623333">
        <ele>1475.0</ele>
        <time>2015-03-15T15:10:24Z</time>
      </trkpt>
      <trkpt lat="40.291167" lon="-4.623283">
        <ele>1476.0</ele>
        <time>2015-03-15T15:10:25Z</time>
      </trkpt>
      <trkpt lat="40.291083" lon="-4.623217">
        <ele>1478.0</ele>
        <time>2015-03-15T15:10:26Z</time>
      </trkpt>
      <trkpt lat="40.291000" lon="-4.623150">
        <ele>1479.0</ele>
        <time>2015-03-15T15:10:27Z</time>
      </trkpt>
      <trkpt lat="40.290917" lon="-4.623100">
        <ele>1480.0</ele>
        <time>2015-03-15T15:10:28Z</time>
      </trkpt>
      <trkpt lat="40.290833" lon="-4.623083">
        <ele>1481.0</ele>
        <time>2015-03-15T15:10:29Z</time>
      </trkpt>
      <trkpt lat="40.290750" lon="-4.623117">
        <ele>1481.0</ele>
        <time>2015-03-15T15:10:30Z</time>
      </trkpt>
      <trkpt lat="40.290683" lon="-4.623183">
        <ele>1481.0</ele>
        <time>2015-03-15T15:10:31Z</time>
      </trkpt>
      <trkpt lat="40.290633" lon="-4.623283">
        <ele>1482.0</ele>
        <time>2015-03-15T15:10:32Z</time>
      </trkpt>
      <trkpt lat="40.290617" lon="-4.623367">
        <ele>1483.0</ele>
        <time>2015-03-15T15:10:33Z</time>
      </trkpt>
      <trkpt lat="40.290617" lon="-4.623450">
        <ele>1483.0</ele>
        <time>2015-03-15T15:10:34Z</time>
      </trkpt>
      <trkpt lat="40.290633" lon="-4.623517">
        <ele>1482.0</ele>
        <time>2015-03-15T15:10:35Z</time>
      </trkpt>
      <trkpt lat="40.290667" lon="-4.623600">
        <ele>1480.0</ele>
        <time>2015-03-15T15:10:36Z</time>
      </trkpt>
      <trkpt lat="40.290700" lon="-4.623700">
        <ele>1477.0</ele>
        <time>2015-03-15T15:10:37Z</time>
      </trkpt>
      <trkpt lat="40.290733" lon="-4.623800">
        <ele>1475.0</ele>
        <time>2015-03-15T15:10:38Z</time>
      </trkpt>
      <trkpt lat="40.290800" lon="-4.623900">
        <ele>1474.0</ele>
        <time>2015-03-15T15:10:39Z</time>
      </trkpt>
      <trkpt lat="40.290883" lon="-4.623983">
        <ele>1474.0</ele>
        <time>2015-03-15T15:10:40Z</time>
      </trkpt>
      <trkpt lat="40.290983" lon="-4.624000">
        <ele>1474.0</ele>
        <time>2015-03-15T15:10:41Z</time>
      </trkpt>
      <trkpt lat="40.291083" lon="-4.623983">
        <ele>1473.0</ele>
        <time>2015-03-15T15:10:42Z</time>
      </trkpt>
      <trkpt lat="40.291167" lon="-4.623917">
        <ele>1472.0</ele>
        <time>2015-03-15T15:10:43Z</time>
      </trkpt>
      <trkpt lat="40.291233" lon="-4.623800">
        <ele>1471.0</ele>
        <time>2015-03-15T15:10:44Z</time>
      </trkpt>
      <trkpt lat="40.291283" lon="-4.623650">
        <ele>1470.0</ele>
        <time>2015-03-15T15:10:45Z</time>
      </trkpt>
      <trkpt lat="40.291283" lon="-4.623500">
        <ele>1470.0</ele>
        <time>2015-03-15T15:10:46Z</time>
      </trkpt>
      <trkpt lat="40.291267" lon="-4.623350">
        <ele>1471.0</ele>
        <time>2015-03-15T15:10:47Z</time>
      </trkpt>
      <trkpt lat="40.291233" lon="-4.623217">
        <ele>1473.0</ele>
        <time>2015-03-15T15:10:48Z</time>
      </trkpt>
      <trkpt lat="40.291183" lon="-4.623100">
        <ele>1475.0</ele>
        <time>2015-03-15T15:10:49Z</time>
      </trkpt>
      <trkpt lat="40.291133" lon="-4.622983">
        <ele>1476.0</ele>
        <time>2015-03-15T15:10:50Z</time>
      </trkpt>
      <trkpt lat="40.291100" lon="-4.622883">
        <ele>1477.0</ele>
        <time>2015-03-15T15:10:51Z</time>
      </trkpt>
      <trkpt lat="40.291050" lon="-4.622767">
        <ele>1478.0</ele>
        <time>2015-03-15T15:10:52Z</time>
      </trkpt>
      <trkpt lat="40.290983" lon="-4.622667">
        <ele>1478.0</ele>
        <time>2015-03-15T15:10:53Z</time>
      </trkpt>
      <trkpt lat="40.290900" lon="-4.622567">
        <ele>1478.0</ele>
        <time>2015-03-15T15:10:54Z</time>
      </trkpt>
      <trkpt lat="40.290833" lon="-4.622483">
        <ele>1480.0</ele>
        <time>2015-03-15T15:10:55Z</time>
      </trkpt>
      <trkpt lat="40.290767" lon="-4.622417">
        <ele>1481.0</ele>
        <time>2015-03-15T15:10:56Z</time>
      </trkpt>
      <trkpt lat="40.290717" lon="-4.622333">
        <ele>1482.0</ele>
        <time>2015-03-15T15:10:57Z</time>
      </trkpt>
      <trkpt lat="40.290683" lon="-4.622250">
        <ele>1480.0</ele>
        <time>2015-03-15T15:10:58Z</time>
      </trkpt>
      <trkpt lat="40.290650" lon="-4.622150">
        <ele>1478.0</ele>
        <time>2015-03-15T15:10:59Z</time>
      </trkpt>
      <trkpt lat="40.290600" lon="-4.622050">
        <ele>1474.0</ele>
        <time>2015-03-15T15:11:00Z</time>
      </trkpt>
      <trkpt lat="40.290533" lon="-4.621933">
        <ele>1470.0</ele>
        <time>2015-03-15T15:11:01Z</time>
      </trkpt>
      <trkpt lat="40.290450" lon="-4.621817">
        <ele>1468.0</ele>
        <time>2015-03-15T15:11:02Z</time>
      </trkpt>
      <trkpt lat="40.290367" lon="-4.621717">
        <ele>1467.0</ele>
        <time>2015-03-15T15:11:03Z</time>
      </trkpt>
      <trkpt lat="40.290300" lon="-4.621617">
        <ele>1466.0</ele>
        <time>2015-03-15T15:11:04Z</time>
      </trkpt>
      <trkpt lat="40.290233" lon="-4.621533">
        <ele>1465.0</ele>
        <time>2015-03-15T15:11:05Z</time>
      </trkpt>
      <trkpt lat="40.290167" lon="-4.621450">
        <ele>1463.0</ele>
        <time>2015-03-15T15:11:06Z</time>
      </trkpt>
      <trkpt lat="40.290100" lon="-4.621367">
        <ele>1461.0</ele>
        <time>2015-03-15T15:11:07Z</time>
      </trkpt>
      <trkpt lat="40.290033" lon="-4.621267">
        <ele>1458.0</ele>
        <time>2015-03-15T15:11:08Z</time>
      </trkpt>
      <trkpt lat="40.289967" lon="-4.621167">
        <ele>1456.0</ele>
        <time>2015-03-15T15:11:09Z</time>
      </trkpt>
      <trkpt lat="40.289900" lon="-4.621083">
        <ele>1454.0</ele>
        <time>2015-03-15T15:11:10Z</time>
      </trkpt>
      <trkpt lat="40.289817" lon="-4.621000">
        <ele>1452.0</ele>
        <time>2015-03-15T15:11:11Z</time>
      </trkpt>
      <trkpt lat="40.289750" lon="-4.620917">
        <ele>1450.0</ele>
        <time>2015-03-15T15:11:12Z</time>
      </trkpt>
      <trkpt lat="40.289683" lon="-4.620833">
        <ele>1447.0</ele>
        <time>2015-03-15T15:11:13Z</time>
      </trkpt>
      <trkpt lat="40.289617" lon="-4.620733">
        <ele>1445.0</ele>
        <time>2015-03-15T15:11:14Z</time>
      </trkpt>
      <trkpt lat="40.289533" lon="-4.620633">
        <ele>1442.0</ele>
        <time>2015-03-15T15:11:15Z</time>
      </trkpt>
      <trkpt lat="40.289450" lon="-4.620550">
        <ele>1440.0</ele>
        <time>2015-03-15T15:11:16Z</time>
      </trkpt>
      <trkpt lat="40.289350" lon="-4.620450">
        <ele>1438.0</ele>
        <time>2015-03-15T15:11:17Z</time>
      </trkpt>
      <trkpt lat="40.289267" lon="-4.620367">
        <ele>1437.0</ele>
        <time>2015-03-15T15:11:18Z</time>
      </trkpt>
      <trkpt lat="40.289183" lon="-4.620283">
        <ele>1436.0</ele>
        <time>2015-03-15T15:11:19Z</time>
      </trkpt>
      <trkpt lat="40.289100" lon="-4.620200">
        <ele>1434.0</ele>
        <time>2015-03-15T15:11:20Z</time>
      </trkpt>
      <trkpt lat="40.289017" lon="-4.620117">
        <ele>1433.0</ele>
        <time>2015-03-15T15:11:21Z</time>
      </trkpt>
      <trkpt lat="40.288933" lon="-4.620033">
        <ele>1431.0</ele>
        <time>2015-03-15T15:11:22Z</time>
      </trkpt>
      <trkpt lat="40.288850" lon="-4.619950">
        <ele>1430.0</ele>
        <time>2015-03-15T15:11:23Z</time>
      </trkpt>
      <trkpt lat="40.288767" lon="-4.619850">
        <ele>1430.0</ele>
        <time>2015-03-15T15:11:24Z</time>
      </trkpt>
      <trkpt lat="40.288683" lon="-4.619767">
        <ele>1430.0</ele>
        <time>2015-03-15T15:11:25Z</time>
      </trkpt>
      <trkpt lat="40.288600" lon="-4.619683">
        <ele>1430.0</ele>
        <time>2015-03-15T15:11:26Z</time>
      </trkpt>
      <trkpt lat="40.288533" lon="-4.619600">
        <ele>1429.0</ele>
        <time>2015-03-15T15:11:27Z</time>
      </trkpt>
      <trkpt lat="40.288467" lon="-4.619500">
        <ele>1428.0</ele>
        <time>2015-03-15T15:11:28Z</time>
      </trkpt>
      <trkpt lat="40.288400" lon="-4.619417">
        <ele>1426.0</ele>
        <time>2015-03-15T15:11:29Z</time>
      </trkpt>
      <trkpt lat="40.288317" lon="-4.619317">
        <ele>1424.0</ele>
        <time>2015-03-15T15:11:30Z</time>
      </trkpt>
      <trkpt lat="40.288250" lon="-4.619217">
        <ele>1423.0</ele>
        <time>2015-03-15T15:11:31Z</time>
      </trkpt>
      <trkpt lat="40.288167" lon="-4.619133">
        <ele>1422.0</ele>
        <time>2015-03-15T15:11:32Z</time>
      </trkpt>
      <trkpt lat="40.288083" lon="-4.619033">
        <ele>1421.0</ele>
        <time>2015-03-15T15:11:33Z</time>
      </trkpt>
      <trkpt lat="40.288000" lon="-4.618950">
        <ele>1420.0</ele>
        <time>2015-03-15T15:11:34Z</time>
      </trkpt>
      <trkpt lat="40.287917" lon="-4.618850">
        <ele>1419.0</ele>
        <time>2015-03-15T15:11:35Z</time>
      </trkpt>
      <trkpt lat="40.287833" lon="-4.618750">
        <ele>1418.0</ele>
        <time>2015-03-15T15:11:36Z</time>
      </trkpt>
      <trkpt lat="40.287750" lon="-4.618650">
        <ele>1418.0</ele>
        <time>2015-03-15T15:11:37Z</time>
      </trkpt>
      <trkpt lat="40.287683" lon="-4.618550">
        <ele>1419.0</ele>
        <time>2015-03-15T15:11:38Z</time>
      </trkpt>
      <trkpt lat="40.287617" lon="-4.618450">
        <ele>1419.0</ele>
        <time>2015-03-15T15:11:39Z</time>
      </trkpt>
      <trkpt lat="40.287550" lon="-4.618367">
        <ele>1420.0</ele>
        <time>2015-03-15T15:11:40Z</time>
      </trkpt>
      <trkpt lat="40.287483" lon="-4.618283">
        <ele>1420.0</ele>
        <time>2015-03-15T15:11:41Z</time>
      </trkpt>
      <trkpt lat="40.287417" lon="-4.618200">
        <ele>1419.0</ele>
        <time>2015-03-15T15:11:42Z</time>
      </trkpt>
      <trkpt lat="40.287333" lon="-4.618117">
        <ele>1418.0</ele>
        <time>2015-03-15T15:11:43Z</time>
      </trkpt>
      <trkpt lat="40.287267" lon="-4.618033">
        <ele>1417.0</ele>
        <time>2015-03-15T15:11:44Z</time>
      </trkpt>
      <trkpt lat="40.287183" lon="-4.617950">
        <ele>1416.0</ele>
        <time>2015-03-15T15:11:45Z</time>
      </trkpt>
      <trkpt lat="40.287100" lon="-4.617867">
        <ele>1415.0</ele>
        <time>2015-03-15T15:11:46Z</time>
      </trkpt>
      <trkpt lat="40.287017" lon="-4.617783">
        <ele>1415.0</ele>
        <time>2015-03-15T15:11:47Z</time>
      </trkpt>
      <trkpt lat="40.286950" lon="-4.617700">
        <ele>1415.0</ele>
        <time>2015-03-15T15:11:48Z</time>
      </trkpt>
      <trkpt lat="40.286883" lon="-4.617617">
        <ele>1414.0</ele>
        <time>2015-03-15T15:11:49Z</time>
      </trkpt>
      <trkpt lat="40.286817" lon="-4.617517">
        <ele>1413.0</ele>
        <time>2015-03-15T15:11:50Z</time>
      </trkpt>
      <trkpt lat="40.286733" lon="-4.617417">
        <ele>1412.0</ele>
        <time>2015-03-15T15:11:51Z</time>
      </trkpt>
      <trkpt lat="40.286667" lon="-4.617317">
        <ele>1411.0</ele>
        <time>2015-03-15T15:11:52Z</time>
      </trkpt>
      <trkpt lat="40.286583" lon="-4.617200">
        <ele>1411.0</ele>
        <time>2015-03-15T15:11:53Z</time>
      </trkpt>
      <trkpt lat="40.286517" lon="-4.617100">
        <ele>1410.0</ele>
        <time>2015-03-15T15:11:54Z</time>
      </trkpt>
      <trkpt lat="40.286450" lon="-4.617000">
        <ele>1409.0</ele>
        <time>2015-03-15T15:11:55Z</time>
      </trkpt>
      <trkpt lat="40.286383" lon="-4.616900">
        <ele>1407.0</ele>
        <time>2015-03-15T15:11:56Z</time>
      </trkpt>
      <trkpt lat="40.286333" lon="-4.616800">
        <ele>1405.0</ele>
        <time>2015-03-15T15:11:57Z</time>
      </trkpt>
      <trkpt lat="40.286283" lon="-4.616683">
        <ele>1402.0</ele>
        <time>2015-03-15T15:11:58Z</time>
      </trkpt>
      <trkpt lat="40.286233" lon="-4.616550">
        <ele>1401.0</ele>
        <time>2015-03-15T15:11:59Z</time>
      </trkpt>
      <trkpt lat="40.286183" lon="-4.616450">
        <ele>1399.0</ele>
        <time>2015-03-15T15:12:00Z</time>
      </trkpt>
      <trkpt lat="40.286117" lon="-4.616350">
        <ele>1397.0</ele>
        <time>2015-03-15T15:12:01Z</time>
      </trkpt>
      <trkpt lat="40.286067" lon="-4.616250">
        <ele>1394.0</ele>
        <time>2015-03-15T15:12:02Z</time>
      </trkpt>
      <trkpt lat="40.286000" lon="-4.616150">
        <ele>1392.0</ele>
        <time>2015-03-15T15:12:03Z</time>
      </trkpt>
      <trkpt lat="40.285950" lon="-4.616033">
        <ele>1389.0</ele>
        <time>2015-03-15T15:12:04Z</time>
      </trkpt>
      <trkpt lat="40.285883" lon="-4.615917">
        <ele>1387.0</ele>
        <time>2015-03-15T15:12:05Z</time>
      </trkpt>
      <trkpt lat="40.285817" lon="-4.615800">
        <ele>1385.0</ele>
        <time>2015-03-15T15:12:06Z</time>
      </trkpt>
      <trkpt lat="40.285750" lon="-4.615700">
        <ele>1384.0</ele>
        <time>2015-03-15T15:12:07Z</time>
      </trkpt>
      <trkpt lat="40.285683" lon="-4.615617">
        <ele>1382.0</ele>
        <time>2015-03-15T15:12:08Z</time>
      </trkpt>
      <trkpt lat="40.285633" lon="-4.615517">
        <ele>1380.0</ele>
        <time>2015-03-15T15:12:09Z</time>
      </trkpt>
      <trkpt lat="40.285583" lon="-4.615400">
        <ele>1377.0</ele>
        <time>2015-03-15T15:12:10Z</time>
      </trkpt>
      <trkpt lat="40.285533" lon="-4.615283">
        <ele>1374.0</ele>
        <time>2015-03-15T15:12:11Z</time>
      </trkpt>
      <trkpt lat="40.285467" lon="-4.615183">
        <ele>1371.0</ele>
        <time>2015-03-15T15:12:12Z</time>
      </trkpt>
      <trkpt lat="40.285417" lon="-4.615100">
        <ele>1369.0</ele>
        <time>2015-03-15T15:12:13Z</time>
      </trkpt>
      <trkpt lat="40.285367" lon="-4.615017">
        <ele>1367.0</ele>
        <time>2015-03-15T15:12:14Z</time>
      </trkpt>
      <trkpt lat="40.285300" lon="-4.614917">
        <ele>1363.0</ele>
        <time>2015-03-15T15:12:15Z</time>
      </trkpt>
      <trkpt lat="40.285250" lon="-4.614833">
        <ele>1359.0</ele>
        <time>2015-03-15T15:12:16Z</time>
      </trkpt>
      <trkpt lat="40.285183" lon="-4.614733">
        <ele>1355.0</ele>
        <time>2015-03-15T15:12:17Z</time>
      </trkpt>
      <trkpt lat="40.285117" lon="-4.614617">
        <ele>1350.0</ele>
        <time>2015-03-15T15:12:18Z</time>
      </trkpt>
      <trkpt lat="40.285017" lon="-4.614500">
        <ele>1347.0</ele>
        <time>2015-03-15T15:12:19Z</time>
      </trkpt>
      <trkpt lat="40.284950" lon="-4.614383">
        <ele>1348.0</ele>
        <time>2015-03-15T15:12:20Z</time>
      </trkpt>
      <trkpt lat="40.284883" lon="-4.614283">
        <ele>1349.0</ele>
        <time>2015-03-15T15:12:21Z</time>
      </trkpt>
      <trkpt lat="40.284817" lon="-4.614217">
        <ele>1350.0</ele>
        <time>2015-03-15T15:12:22Z</time>
      </trkpt>
      <trkpt lat="40.284767" lon="-4.614150">
        <ele>1349.0</ele>
        <time>2015-03-15T15:12:23Z</time>
      </trkpt>
      <trkpt lat="40.284717" lon="-4.614083">
        <ele>1348.0</ele>
        <time>2015-03-15T15:12:24Z</time>
      </trkpt>
      <trkpt lat="40.284667" lon="-4.614000">
        <ele>1346.0</ele>
        <time>2015-03-15T15:12:25Z</time>
      </trkpt>
      <trkpt lat="40.284617" lon="-4.613917">
        <ele>1343.0</ele>
        <time>2015-03-15T15:12:26Z</time>
      </trkpt>
      <trkpt lat="40.284550" lon="-4.613800">
        <ele>1340.0</ele>
        <time>2015-03-15T15:12:27Z</time>
      </trkpt>
      <trkpt lat="40.284483" lon="-4.613683">
        <ele>1337.0</ele>
        <time>2015-03-15T15:12:28Z</time>
      </trkpt>
      <trkpt lat="40.284400" lon="-4.613583">
        <ele>1335.0</ele>
        <time>2015-03-15T15:12:29Z</time>
      </trkpt>
      <trkpt lat="40.284333" lon="-4.613483">
        <ele>1334.0</ele>
        <time>2015-03-15T15:12:30Z</time>
      </trkpt>
      <trkpt lat="40.284267" lon="-4.613383">
        <ele>1333.0</ele>
        <time>2015-03-15T15:12:31Z</time>
      </trkpt>
      <trkpt lat="40.284200" lon="-4.613267">
        <ele>1332.0</ele>
        <time>2015-03-15T15:12:32Z</time>
      </trkpt>
      <trkpt lat="40.284133" lon="-4.613150">
        <ele>1330.0</ele>
        <time>2015-03-15T15:12:33Z</time>
      </trkpt>
      <trkpt lat="40.284067" lon="-4.613017">
        <ele>1327.0</ele>
        <time>2015-03-15T15:12:34Z</time>
      </trkpt>
      <trkpt lat="40.283983" lon="-4.612883">
        <ele>1325.0</ele>
        <time>2015-03-15T15:12:35Z</time>
      </trkpt>
      <trkpt lat="40.283900" lon="-4.612750">
        <ele>1325.0</ele>
        <time>2015-03-15T15:12:36Z</time>
      </trkpt>
      <trkpt lat="40.283817" lon="-4.612617">
        <ele>1326.0</ele>
        <time>2015-03-15T15:12:37Z</time>
      </trkpt>
      <trkpt lat="40.283733" lon="-4.612517">
        <ele>1328.0</ele>
        <time>2015-03-15T15:12:38Z</time>
      </trkpt>
      <trkpt lat="40.283667" lon="-4.612400">
        <ele>1329.0</ele>
        <time>2015-03-15T15:12:39Z</time>
      </trkpt>
      <trkpt lat="40.283600" lon="-4.612283">
        <ele>1330.0</ele>
        <time>2015-03-15T15:12:40Z</time>
      </trkpt>
      <trkpt lat="40.283533" lon="-4.612183">
        <ele>1331.0</ele>
        <time>2015-03-15T15:12:41Z</time>
      </trkpt>
      <trkpt lat="40.283450" lon="-4.612100">
        <ele>1332.0</ele>
        <time>2015-03-15T15:12:42Z</time>
      </trkpt>
      <trkpt lat="40.283383" lon="-4.612017">
        <ele>1333.0</ele>
        <time>2015-03-15T15:12:43Z</time>
      </trkpt>
      <trkpt lat="40.283300" lon="-4.611950">
        <ele>1335.0</ele>
        <time>2015-03-15T15:12:44Z</time>
      </trkpt>
      <trkpt lat="40.283217" lon="-4.611917">
        <ele>1336.0</ele>
        <time>2015-03-15T15:12:45Z</time>
      </trkpt>
      <trkpt lat="40.283133" lon="-4.611900">
        <ele>1338.0</ele>
        <time>2015-03-15T15:12:46Z</time>
      </trkpt>
      <trkpt lat="40.283067" lon="-4.611900">
        <ele>1339.0</ele>
        <time>2015-03-15T15:12:47Z</time>
      </trkpt>
      <trkpt lat="40.283000" lon="-4.611933">
        <ele>1340.0</ele>
        <time>2015-03-15T15:12:48Z</time>
      </trkpt>
      <trkpt lat="40.282950" lon="-4.612000">
        <ele>1340.0</ele>
        <time>2015-03-15T15:12:49Z</time>
      </trkpt>
      <trkpt lat="40.282900" lon="-4.612083">
        <ele>1341.0</ele>
        <time>2015-03-15T15:12:50Z</time>
      </trkpt>
      <trkpt lat="40.282867" lon="-4.612200">
        <ele>1342.0</ele>
        <time>2015-03-15T15:12:51Z</time>
      </trkpt>
      <trkpt lat="40.282850" lon="-4.612317">
        <ele>1343.0</ele>
        <time>2015-03-15T15:12:52Z</time>
      </trkpt>
      <trkpt lat="40.282883" lon="-4.612450">
        <ele>1344.0</ele>
        <time>2015-03-15T15:12:53Z</time>
      </trkpt>
      <trkpt lat="40.282933" lon="-4.612567">
        <ele>1345.0</ele>
        <time>2015-03-15T15:12:54Z</time>
      </trkpt>
      <trkpt lat="40.283000" lon="-4.612667">
        <ele>1347.0</ele>
        <time>2015-03-15T15:12:55Z</time>
      </trkpt>
      <trkpt lat="40.283100" lon="-4.612733">
        <ele>1349.0</ele>
        <time>2015-03-15T15:12:56Z</time>
      </trkpt>
      <trkpt lat="40.283200" lon="-4.612767">
        <ele>1350.0</ele>
        <time>2015-03-15T15:12:57Z</time>
      </trkpt>
      <trkpt lat="40.283317" lon="-4.612750">
        <ele>1350.0</ele>
        <time>2015-03-15T15:12:58Z</time>
      </trkpt>
      <trkpt lat="40.283433" lon="-4.612683">
        <ele>1350.0</ele>
        <time>2015-03-15T15:12:59Z</time>
      </trkpt>
      <trkpt lat="40.283533" lon="-4.612600">
        <ele>1350.0</ele>
        <time>2015-03-15T15:13:00Z</time>
      </trkpt>
      <trkpt lat="40.283600" lon="-4.612500">
        <ele>1351.0</ele>
        <time>2015-03-15T15:13:01Z</time>
      </trkpt>
      <trkpt lat="40.283667" lon="-4.612400">
        <ele>1353.0</ele>
        <time>2015-03-15T15:13:02Z</time>
      </trkpt>
      <trkpt lat="40.283717" lon="-4.612283">
        <ele>1353.0</ele>
        <time>2015-03-15T15:13:03Z</time>
      </trkpt>
      <trkpt lat="40.283783" lon="-4.612183">
        <ele>1353.0</ele>
        <time>2015-03-15T15:13:04Z</time>
      </trkpt>
      <trkpt lat="40.283833" lon="-4.612033">
        <ele>1354.0</ele>
        <time>2015-03-15T15:13:05Z</time>
      </trkpt>
      <trkpt lat="40.283883" lon="-4.611883">
        <ele>1355.0</ele>
        <time>2015-03-15T15:13:06Z</time>
      </trkpt>
      <trkpt lat="40.283883" lon="-4.611717">
        <ele>1355.0</ele>
        <time>2015-03-15T15:13:07Z</time>
      </trkpt>
      <trkpt lat="40.283850" lon="-4.611567">
        <ele>1356.0</ele>
        <time>2015-03-15T15:13:08Z</time>
      </trkpt>
      <trkpt lat="40.283817" lon="-4.611433">
        <ele>1357.0</ele>
        <time>2015-03-15T15:13:09Z</time>
      </trkpt>
      <trkpt lat="40.283750" lon="-4.611317">
        <ele>1357.0</ele>
        <time>2015-03-15T15:13:10Z</time>
      </trkpt>
      <trkpt lat="40.283683" lon="-4.611217">
        <ele>1357.0</ele>
        <time>2015-03-15T15:13:11Z</time>
      </trkpt>
      <trkpt lat="40.283600" lon="-4.611133">
        <ele>1358.0</ele>
        <time>2015-03-15T15:13:12Z</time>
      </trkpt>
      <trkpt lat="40.283517" lon="-4.611083">
        <ele>1358.0</ele>
        <time>2015-03-15T15:13:13Z</time>
      </trkpt>
      <trkpt lat="40.283450" lon="-4.611067">
        <ele>1357.0</ele>
        <time>2015-03-15T15:13:14Z</time>
      </trkpt>
      <trkpt lat="40.283367" lon="-4.611083">
        <ele>1357.0</ele>
        <time>2015-03-15T15:13:15Z</time>
      </trkpt>
      <trkpt lat="40.283317" lon="-4.611133">
        <ele>1357.0</ele>
        <time>2015-03-15T15:13:16Z</time>
      </trkpt>
      <trkpt lat="40.283250" lon="-4.611183">
        <ele>1357.0</ele>
        <time>2015-03-15T15:13:17Z</time>
      </trkpt>
      <trkpt lat="40.283217" lon="-4.611250">
        <ele>1358.0</ele>
        <time>2015-03-15T15:13:18Z</time>
      </trkpt>
      <trkpt lat="40.283217" lon="-4.611333">
        <ele>1359.0</ele>
        <time>2015-03-15T15:13:19Z</time>
      </trkpt>
      <trkpt lat="40.283233" lon="-4.611417">
        <ele>1359.0</ele>
        <time>2015-03-15T15:13:20Z</time>
      </trkpt>
      <trkpt lat="40.283267" lon="-4.611500">
        <ele>1359.0</ele>
        <time>2015-03-15T15:13:21Z</time>
      </trkpt>
      <trkpt lat="40.283333" lon="-4.611583">
        <ele>1360.0</ele>
        <time>2015-03-15T15:13:22Z</time>
      </trkpt>
      <trkpt lat="40.283417" lon="-4.611633">
        <ele>1360.0</ele>
        <time>2015-03-15T15:13:23Z</time>
      </trkpt>
      <trkpt lat="40.283517" lon="-4.611650">
        <ele>1360.0</ele>
        <time>2015-03-15T15:13:24Z</time>
      </trkpt>
      <trkpt lat="40.283600" lon="-4.611650">
        <ele>1361.0</ele>
        <time>2015-03-15T15:13:25Z</time>
      </trkpt>
      <trkpt lat="40.283683" lon="-4.611633">
        <ele>1362.0</ele>
        <time>2015-03-15T15:13:26Z</time>
      </trkpt>
      <trkpt lat="40.283767" lon="-4.611617">
        <ele>1363.0</ele>
        <time>2015-03-15T15:13:27Z</time>
      </trkpt>
      <trkpt lat="40.283867" lon="-4.611583">
        <ele>1363.0</ele>
        <time>2015-03-15T15:13:28Z</time>
      </trkpt>
      <trkpt lat="40.283950" lon="-4.611517">
        <ele>1363.0</ele>
        <time>2015-03-15T15:13:29Z</time>
      </trkpt>
      <trkpt lat="40.284050" lon="-4.611433">
        <ele>1363.0</ele>
        <time>2015-03-15T15:13:30Z</time>
      </trkpt>
      <trkpt lat="40.284133" lon="-4.611333">
        <ele>1364.0</ele>
        <time>2015-03-15T15:13:31Z</time>
      </trkpt>
      <trkpt lat="40.284217" lon="-4.611233">
        <ele>1365.0</ele>
        <time>2015-03-15T15:13:32Z</time>
      </trkpt>
      <trkpt lat="40.284267" lon="-4.611117">
        <ele>1365.0</ele>
        <time>2015-03-15T15:13:33Z</time>
      </trkpt>
      <trkpt lat="40.284317" lon="-4.610983">
        <ele>1366.0</ele>
        <time>2015-03-15T15:13:34Z</time>
      </trkpt>
      <trkpt lat="40.284367" lon="-4.610850">
        <ele>1366.0</ele>
        <time>2015-03-15T15:13:35Z</time>
      </trkpt>
      <trkpt lat="40.284400" lon="-4.610700">
        <ele>1365.0</ele>
        <time>2015-03-15T15:13:36Z</time>
      </trkpt>
      <trkpt lat="40.284433" lon="-4.610533">
        <ele>1365.0</ele>
        <time>2015-03-15T15:13:37Z</time>
      </trkpt>
      <trkpt lat="40.284433" lon="-4.610383">
        <ele>1365.0</ele>
        <time>2015-03-15T15:13:38Z</time>
      </trkpt>
      <trkpt lat="40.284417" lon="-4.610233">
        <ele>1365.0</ele>
        <time>2015-03-15T15:13:39Z</time>
      </trkpt>
      <trkpt lat="40.284367" lon="-4.610100">
        <ele>1365.0</ele>
        <time>2015-03-15T15:13:40Z</time>
      </trkpt>
      <trkpt lat="40.284317" lon="-4.609967">
        <ele>1365.0</ele>
        <time>2015-03-15T15:13:41Z</time>
      </trkpt>
      <trkpt lat="40.284250" lon="-4.609850">
        <ele>1365.0</ele>
        <time>2015-03-15T15:13:42Z</time>
      </trkpt>
      <trkpt lat="40.284183" lon="-4.609750">
        <ele>1365.0</ele>
        <time>2015-03-15T15:13:43Z</time>
      </trkpt>
      <trkpt lat="40.284117" lon="-4.609650">
        <ele>1365.0</ele>
        <time>2015-03-15T15:13:44Z</time>
      </trkpt>
      <trkpt lat="40.284033" lon="-4.609567">
        <ele>1365.0</ele>
        <time>2015-03-15T15:13:45Z</time>
      </trkpt>
      <trkpt lat="40.283950" lon="-4.609467">
        <ele>1365.0</ele>
        <time>2015-03-15T15:13:46Z</time>
      </trkpt>
      <trkpt lat="40.283850" lon="-4.609400">
        <ele>1366.0</ele>
        <time>2015-03-15T15:13:47Z</time>
      </trkpt>
      <trkpt lat="40.283767" lon="-4.609333">
        <ele>1367.0</ele>
        <time>2015-03-15T15:13:48Z</time>
      </trkpt>
      <trkpt lat="40.283667" lon="-4.609283">
        <ele>1368.0</ele>
        <time>2015-03-15T15:13:49Z</time>
      </trkpt>
      <trkpt lat="40.283567" lon="-4.609250">
        <ele>1368.0</ele>
        <time>2015-03-15T15:13:50Z</time>
      </trkpt>
      <trkpt lat="40.283483" lon="-4.609217">
        <ele>1368.0</ele>
        <time>2015-03-15T15:13:51Z</time>
      </trkpt>
      <trkpt lat="40.283367" lon="-4.609183">
        <ele>1368.0</ele>
        <time>2015-03-15T15:13:52Z</time>
      </trkpt>
      <trkpt lat="40.283250" lon="-4.609167">
        <ele>1367.0</ele>
        <time>2015-03-15T15:13:53Z</time>
      </trkpt>
      <trkpt lat="40.283117" lon="-4.609150">
        <ele>1368.0</ele>
        <time>2015-03-15T15:13:54Z</time>
      </trkpt>
      <trkpt lat="40.283000" lon="-4.609133">
        <ele>1370.0</ele>
        <time>2015-03-15T15:13:55Z</time>
      </trkpt>
      <trkpt lat="40.282900" lon="-4.609117">
        <ele>1372.0</ele>
        <time>2015-03-15T15:13:56Z</time>
      </trkpt>
      <trkpt lat="40.282800" lon="-4.609100">
        <ele>1374.0</ele>
        <time>2015-03-15T15:13:57Z</time>
      </trkpt>
      <trkpt lat="40.282700" lon="-4.609050">
        <ele>1375.0</ele>
        <time>2015-03-15T15:13:58Z</time>
      </trkpt>
      <trkpt lat="40.282600" lon="-4.609000">
        <ele>1375.0</ele>
        <time>2015-03-15T15:13:59Z</time>
      </trkpt>
      <trkpt lat="40.282517" lon="-4.608950">
        <ele>1375.0</ele>
        <time>2015-03-15T15:14:00Z</time>
      </trkpt>
      <trkpt lat="40.282433" lon="-4.608883">
        <ele>1375.0</ele>
        <time>2015-03-15T15:14:01Z</time>
      </trkpt>
      <trkpt lat="40.282333" lon="-4.608833">
        <ele>1374.0</ele>
        <time>2015-03-15T15:14:02Z</time>
      </trkpt>
      <trkpt lat="40.282233" lon="-4.608767">
        <ele>1374.0</ele>
        <time>2015-03-15T15:14:03Z</time>
      </trkpt>
      <trkpt lat="40.282150" lon="-4.608683">
        <ele>1375.0</ele>
        <time>2015-03-15T15:14:04Z</time>
      </trkpt>
      <trkpt lat="40.282083" lon="-4.608617">
        <ele>1375.0</ele>
        <time>2015-03-15T15:14:05Z</time>
      </trkpt>
      <trkpt lat="40.282017" lon="-4.608533">
        <ele>1374.0</ele>
        <time>2015-03-15T15:14:06Z</time>
      </trkpt>
      <trkpt lat="40.281950" lon="-4.608450">
        <ele>1373.0</ele>
        <time>2015-03-15T15:14:07Z</time>
      </trkpt>
      <trkpt lat="40.281883" lon="-4.608350">
        <ele>1371.0</ele>
        <time>2015-03-15T15:14:08Z</time>
      </trkpt>
      <trkpt lat="40.281817" lon="-4.608250">
        <ele>1369.0</ele>
        <time>2015-03-15T15:14:09Z</time>
      </trkpt>
      <trkpt lat="40.281750" lon="-4.608133">
        <ele>1367.0</ele>
        <time>2015-03-15T15:14:10Z</time>
      </trkpt>
      <trkpt lat="40.281683" lon="-4.608017">
        <ele>1367.0</ele>
        <time>2015-03-15T15:14:11Z</time>
      </trkpt>
      <trkpt lat="40.281617" lon="-4.607900">
        <ele>1368.0</ele>
        <time>2015-03-15T15:14:12Z</time>
      </trkpt>
      <trkpt lat="40.281567" lon="-4.607817">
        <ele>1368.0</ele>
        <time>2015-03-15T15:14:13Z</time>
      </trkpt>
      <trkpt lat="40.281500" lon="-4.607717">
        <ele>1368.0</ele>
        <time>2015-03-15T15:14:14Z</time>
      </trkpt>
      <trkpt lat="40.281433" lon="-4.607633">
        <ele>1367.0</ele>
        <time>2015-03-15T15:14:15Z</time>
      </trkpt>
      <trkpt lat="40.281350" lon="-4.607533">
        <ele>1366.0</ele>
        <time>2015-03-15T15:14:16Z</time>
      </trkpt>
      <trkpt lat="40.281283" lon="-4.607417">
        <ele>1366.0</ele>
        <time>2015-03-15T15:14:17Z</time>
      </trkpt>
      <trkpt lat="40.281217" lon="-4.607317">
        <ele>1366.0</ele>
        <time>2015-03-15T15:14:18Z</time>
      </trkpt>
      <trkpt lat="40.281150" lon="-4.607217">
        <ele>1368.0</ele>
        <time>2015-03-15T15:14:19Z</time>
      </trkpt>
      <trkpt lat="40.281083" lon="-4.607150">
        <ele>1368.0</ele>
        <time>2015-03-15T15:14:20Z</time>
      </trkpt>
      <trkpt lat="40.281017" lon="-4.607067">
        <ele>1368.0</ele>
        <time>2015-03-15T15:14:21Z</time>
      </trkpt>
      <trkpt lat="40.280950" lon="-4.606967">
        <ele>1367.0</ele>
        <time>2015-03-15T15:14:22Z</time>
      </trkpt>
      <trkpt lat="40.280883" lon="-4.606850">
        <ele>1366.0</ele>
        <time>2015-03-15T15:14:23Z</time>
      </trkpt>
      <trkpt lat="40.280817" lon="-4.606733">
        <ele>1366.0</ele>
        <time>2015-03-15T15:14:24Z</time>
      </trkpt>
      <trkpt lat="40.280750" lon="-4.606600">
        <ele>1367.0</ele>
        <time>2015-03-15T15:14:25Z</time>
      </trkpt>
      <trkpt lat="40.280683" lon="-4.606500">
        <ele>1368.0</ele>
        <time>2015-03-15T15:14:26Z</time>
      </trkpt>
      <trkpt lat="40.280617" lon="-4.606400">
        <ele>1369.0</ele>
        <time>2015-03-15T15:14:27Z</time>
      </trkpt>
      <trkpt lat="40.280550" lon="-4.606317">
        <ele>1369.0</ele>
        <time>2015-03-15T15:14:28Z</time>
      </trkpt>
      <trkpt lat="40.280483" lon="-4.606217">
        <ele>1368.0</ele>
        <time>2015-03-15T15:14:29Z</time>
      </trkpt>
      <trkpt lat="40.280417" lon="-4.606117">
        <ele>1368.0</ele>
        <time>2015-03-15T15:14:30Z</time>
      </trkpt>
      <trkpt lat="40.280333" lon="-4.606017">
        <ele>1367.0</ele>
        <time>2015-03-15T15:14:31Z</time>
      </trkpt>
      <trkpt lat="40.280233" lon="-4.605900">
        <ele>1367.0</ele>
        <time>2015-03-15T15:14:32Z</time>
      </trkpt>
      <trkpt lat="40.280167" lon="-4.605817">
        <ele>1368.0</ele>
        <time>2015-03-15T15:14:33Z</time>
      </trkpt>
      <trkpt lat="40.280083" lon="-4.605717">
        <ele>1369.0</ele>
        <time>2015-03-15T15:14:34Z</time>
      </trkpt>
      <trkpt lat="40.280000" lon="-4.605633">
        <ele>1369.0</ele>
        <time>2015-03-15T15:14:35Z</time>
      </trkpt>
      <trkpt lat="40.279900" lon="-4.605550">
        <ele>1368.0</ele>
        <time>2015-03-15T15:14:36Z</time>
      </trkpt>
      <trkpt lat="40.279817" lon="-4.605467">
        <ele>1368.0</ele>
        <time>2015-03-15T15:14:37Z</time>
      </trkpt>
      <trkpt lat="40.279733" lon="-4.605383">
        <ele>1368.0</ele>
        <time>2015-03-15T15:14:38Z</time>
      </trkpt>
      <trkpt lat="40.279650" lon="-4.605283">
        <ele>1368.0</ele>
        <time>2015-03-15T15:14:39Z</time>
      </trkpt>
      <trkpt lat="40.279567" lon="-4.605217">
        <ele>1368.0</ele>
        <time>2015-03-15T15:14:40Z</time>
      </trkpt>
      <trkpt lat="40.279483" lon="-4.605133">
        <ele>1367.0</ele>
        <time>2015-03-15T15:14:41Z</time>
      </trkpt>
      <trkpt lat="40.279400" lon="-4.605050">
        <ele>1365.0</ele>
        <time>2015-03-15T15:14:42Z</time>
      </trkpt>
      <trkpt lat="40.279317" lon="-4.604950">
        <ele>1363.0</ele>
        <time>2015-03-15T15:14:43Z</time>
      </trkpt>
      <trkpt lat="40.279233" lon="-4.604850">
        <ele>1362.0</ele>
        <time>2015-03-15T15:14:44Z</time>
      </trkpt>
      <trkpt lat="40.279167" lon="-4.604733">
        <ele>1361.0</ele>
        <time>2015-03-15T15:14:45Z</time>
      </trkpt>
      <trkpt lat="40.279083" lon="-4.604633">
        <ele>1361.0</ele>
        <time>2015-03-15T15:14:46Z</time>
      </trkpt>
      <trkpt lat="40.279000" lon="-4.604533">
        <ele>1361.0</ele>
        <time>2015-03-15T15:14:47Z</time>
      </trkpt>
      <trkpt lat="40.278933" lon="-4.604433">
        <ele>1361.0</ele>
        <time>2015-03-15T15:14:48Z</time>
      </trkpt>
      <trkpt lat="40.278850" lon="-4.604317">
        <ele>1362.0</ele>
        <time>2015-03-15T15:14:49Z</time>
      </trkpt>
      <trkpt lat="40.278783" lon="-4.604217">
        <ele>1363.0</ele>
        <time>2015-03-15T15:14:50Z</time>
      </trkpt>
      <trkpt lat="40.278717" lon="-4.604100">
        <ele>1364.0</ele>
        <time>2015-03-15T15:14:51Z</time>
      </trkpt>
      <trkpt lat="40.278667" lon="-4.604000">
        <ele>1364.0</ele>
        <time>2015-03-15T15:14:52Z</time>
      </trkpt>
      <trkpt lat="40.278600" lon="-4.603900">
        <ele>1364.0</ele>
        <time>2015-03-15T15:14:53Z</time>
      </trkpt>
      <trkpt lat="40.278533" lon="-4.603783">
        <ele>1365.0</ele>
        <time>2015-03-15T15:14:54Z</time>
      </trkpt>
      <trkpt lat="40.278467" lon="-4.603683">
        <ele>1365.0</ele>
        <time>2015-03-15T15:14:55Z</time>
      </trkpt>
      <trkpt lat="40.278417" lon="-4.603583">
        <ele>1365.0</ele>
        <time>2015-03-15T15:14:56Z</time>
      </trkpt>
      <trkpt lat="40.278350" lon="-4.603483">
        <ele>1365.0</ele>
        <time>2015-03-15T15:14:57Z</time>
      </trkpt>
      <trkpt lat="40.278300" lon="-4.603383">
        <ele>1364.0</ele>
        <time>2015-03-15T15:14:58Z</time>
      </trkpt>
      <trkpt lat="40.278233" lon="-4.603267">
        <ele>1363.0</ele>
        <time>2015-03-15T15:14:59Z</time>
      </trkpt>
      <trkpt lat="40.278167" lon="-4.603167">
        <ele>1362.0</ele>
        <time>2015-03-15T15:15:00Z</time>
      </trkpt>
      <trkpt lat="40.278100" lon="-4.603067">
        <ele>1362.0</ele>
        <time>2015-03-15T15:15:01Z</time>
      </trkpt>
      <trkpt lat="40.278033" lon="-4.602967">
        <ele>1362.0</ele>
        <time>2015-03-15T15:15:02Z</time>
      </trkpt>
      <trkpt lat="40.277967" lon="-4.602883">
        <ele>1362.0</ele>
        <time>2015-03-15T15:15:03Z</time>
      </trkpt>
      <trkpt lat="40.277917" lon="-4.602783">
        <ele>1361.0</ele>
        <time>2015-03-15T15:15:04Z</time>
      </trkpt>
      <trkpt lat="40.277850" lon="-4.602700">
        <ele>1361.0</ele>
        <time>2015-03-15T15:15:05Z</time>
      </trkpt>
      <trkpt lat="40.277783" lon="-4.602600">
        <ele>1360.0</ele>
        <time>2015-03-15T15:15:06Z</time>
      </trkpt>
      <trkpt lat="40.277717" lon="-4.602500">
        <ele>1360.0</ele>
        <time>2015-03-15T15:15:07Z</time>
      </trkpt>
      <trkpt lat="40.277650" lon="-4.602400">
        <ele>1360.0</ele>
        <time>2015-03-15T15:15:08Z</time>
      </trkpt>
      <trkpt lat="40.277583" lon="-4.602317">
        <ele>1360.0</ele>
        <time>2015-03-15T15:15:09Z</time>
      </trkpt>
      <trkpt lat="40.277517" lon="-4.602233">
        <ele>1360.0</ele>
        <time>2015-03-15T15:15:10Z</time>
      </trkpt>
      <trkpt lat="40.277450" lon="-4.602133">
        <ele>1359.0</ele>
        <time>2015-03-15T15:15:11Z</time>
      </trkpt>
      <trkpt lat="40.277383" lon="-4.602050">
        <ele>1359.0</ele>
        <time>2015-03-15T15:15:12Z</time>
      </trkpt>
      <trkpt lat="40.277317" lon="-4.601950">
        <ele>1358.0</ele>
        <time>2015-03-15T15:15:13Z</time>
      </trkpt>
      <trkpt lat="40.277250" lon="-4.601850">
        <ele>1357.0</ele>
        <time>2015-03-15T15:15:14Z</time>
      </trkpt>
      <trkpt lat="40.277183" lon="-4.601733">
        <ele>1355.0</ele>
        <time>2015-03-15T15:15:15Z</time>
      </trkpt>
      <trkpt lat="40.277100" lon="-4.601633">
        <ele>1355.0</ele>
        <time>2015-03-15T15:15:16Z</time>
      </trkpt>
      <trkpt lat="40.277033" lon="-4.601550">
        <ele>1354.0</ele>
        <time>2015-03-15T15:15:17Z</time>
      </trkpt>
      <trkpt lat="40.276950" lon="-4.601450">
        <ele>1353.0</ele>
        <time>2015-03-15T15:15:18Z</time>
      </trkpt>
      <trkpt lat="40.276900" lon="-4.601350">
        <ele>1353.0</ele>
        <time>2015-03-15T15:15:19Z</time>
      </trkpt>
      <trkpt lat="40.276833" lon="-4.601250">
        <ele>1352.0</ele>
        <time>2015-03-15T15:15:20Z</time>
      </trkpt>
      <trkpt lat="40.276767" lon="-4.601150">
        <ele>1351.0</ele>
        <time>2015-03-15T15:15:21Z</time>
      </trkpt>
      <trkpt lat="40.276717" lon="-4.601033">
        <ele>1349.0</ele>
        <time>2015-03-15T15:15:22Z</time>
      </trkpt>
      <trkpt lat="40.276650" lon="-4.600917">
        <ele>1348.0</ele>
        <time>2015-03-15T15:15:23Z</time>
      </trkpt>
      <trkpt lat="40.276600" lon="-4.600800">
        <ele>1347.0</ele>
        <time>2015-03-15T15:15:24Z</time>
      </trkpt>
      <trkpt lat="40.276550" lon="-4.600700">
        <ele>1346.0</ele>
        <time>2015-03-15T15:15:25Z</time>
      </trkpt>
      <trkpt lat="40.276483" lon="-4.600583">
        <ele>1345.0</ele>
        <time>2015-03-15T15:15:26Z</time>
      </trkpt>
      <trkpt lat="40.276417" lon="-4.600483">
        <ele>1343.0</ele>
        <time>2015-03-15T15:15:27Z</time>
      </trkpt>
      <trkpt lat="40.276333" lon="-4.600367">
        <ele>1342.0</ele>
        <time>2015-03-15T15:15:28Z</time>
      </trkpt>
      <trkpt lat="40.276250" lon="-4.600267">
        <ele>1340.0</ele>
        <time>2015-03-15T15:15:29Z</time>
      </trkpt>
      <trkpt lat="40.276167" lon="-4.600150">
        <ele>1339.0</ele>
        <time>2015-03-15T15:15:30Z</time>
      </trkpt>
      <trkpt lat="40.276067" lon="-4.600050">
        <ele>1339.0</ele>
        <time>2015-03-15T15:15:31Z</time>
      </trkpt>
      <trkpt lat="40.275983" lon="-4.599933">
        <ele>1339.0</ele>
        <time>2015-03-15T15:15:32Z</time>
      </trkpt>
      <trkpt lat="40.275900" lon="-4.599833">
        <ele>1339.0</ele>
        <time>2015-03-15T15:15:33Z</time>
      </trkpt>
      <trkpt lat="40.275817" lon="-4.599733">
        <ele>1338.0</ele>
        <time>2015-03-15T15:15:34Z</time>
      </trkpt>
      <trkpt lat="40.275750" lon="-4.599633">
        <ele>1337.0</ele>
        <time>2015-03-15T15:15:35Z</time>
      </trkpt>
      <trkpt lat="40.275667" lon="-4.599517">
        <ele>1336.0</ele>
        <time>2015-03-15T15:15:36Z</time>
      </trkpt>
      <trkpt lat="40.275583" lon="-4.599417">
        <ele>1335.0</ele>
        <time>2015-03-15T15:15:37Z</time>
      </trkpt>
      <trkpt lat="40.275500" lon="-4.599317">
        <ele>1334.0</ele>
        <time>2015-03-15T15:15:38Z</time>
      </trkpt>
      <trkpt lat="40.275417" lon="-4.599217">
        <ele>1333.0</ele>
        <time>2015-03-15T15:15:39Z</time>
      </trkpt>
      <trkpt lat="40.275333" lon="-4.599117">
        <ele>1333.0</ele>
        <time>2015-03-15T15:15:40Z</time>
      </trkpt>
      <trkpt lat="40.275250" lon="-4.599000">
        <ele>1332.0</ele>
        <time>2015-03-15T15:15:41Z</time>
      </trkpt>
      <trkpt lat="40.275200" lon="-4.598900">
        <ele>1331.0</ele>
        <time>2015-03-15T15:15:42Z</time>
      </trkpt>
      <trkpt lat="40.275117" lon="-4.598800">
        <ele>1329.0</ele>
        <time>2015-03-15T15:15:43Z</time>
      </trkpt>
      <trkpt lat="40.275050" lon="-4.598683">
        <ele>1327.0</ele>
        <time>2015-03-15T15:15:44Z</time>
      </trkpt>
      <trkpt lat="40.274967" lon="-4.598567">
        <ele>1325.0</ele>
        <time>2015-03-15T15:15:45Z</time>
      </trkpt>
      <trkpt lat="40.274900" lon="-4.598433">
        <ele>1325.0</ele>
        <time>2015-03-15T15:15:46Z</time>
      </trkpt>
      <trkpt lat="40.274833" lon="-4.598300">
        <ele>1324.0</ele>
        <time>2015-03-15T15:15:47Z</time>
      </trkpt>
      <trkpt lat="40.274767" lon="-4.598183">
        <ele>1324.0</ele>
        <time>2015-03-15T15:15:48Z</time>
      </trkpt>
      <trkpt lat="40.274700" lon="-4.598083">
        <ele>1324.0</ele>
        <time>2015-03-15T15:15:49Z</time>
      </trkpt>
      <trkpt lat="40.274633" lon="-4.597983">
        <ele>1323.0</ele>
        <time>2015-03-15T15:15:50Z</time>
      </trkpt>
      <trkpt lat="40.274583" lon="-4.597867">
        <ele>1321.0</ele>
        <time>2015-03-15T15:15:51Z</time>
      </trkpt>
      <trkpt lat="40.274517" lon="-4.597733">
        <ele>1320.0</ele>
        <time>2015-03-15T15:15:52Z</time>
      </trkpt>
      <trkpt lat="40.274450" lon="-4.597600">
        <ele>1320.0</ele>
        <time>2015-03-15T15:15:53Z</time>
      </trkpt>
      <trkpt lat="40.274383" lon="-4.597467">
        <ele>1321.0</ele>
        <time>2015-03-15T15:15:54Z</time>
      </trkpt>
      <trkpt lat="40.274333" lon="-4.597350">
        <ele>1322.0</ele>
        <time>2015-03-15T15:15:55Z</time>
      </trkpt>
      <trkpt lat="40.274267" lon="-4.597250">
        <ele>1324.0</ele>
        <time>2015-03-15T15:15:56Z</time>
      </trkpt>
      <trkpt lat="40.274200" lon="-4.597150">
        <ele>1325.0</ele>
        <time>2015-03-15T15:15:57Z</time>
      </trkpt>
      <trkpt lat="40.274133" lon="-4.597050">
        <ele>1325.0</ele>
        <time>2015-03-15T15:15:58Z</time>
      </trkpt>
      <trkpt lat="40.274083" lon="-4.596950">
        <ele>1325.0</ele>
        <time>2015-03-15T15:15:59Z</time>
      </trkpt>
      <trkpt lat="40.274017" lon="-4.596833">
        <ele>1325.0</ele>
        <time>2015-03-15T15:16:00Z</time>
      </trkpt>
      <trkpt lat="40.273967" lon="-4.596733">
        <ele>1325.0</ele>
        <time>2015-03-15T15:16:01Z</time>
      </trkpt>
      <trkpt lat="40.273900" lon="-4.596617">
        <ele>1325.0</ele>
        <time>2015-03-15T15:16:02Z</time>
      </trkpt>
      <trkpt lat="40.273833" lon="-4.596517">
        <ele>1324.0</ele>
        <time>2015-03-15T15:16:03Z</time>
      </trkpt>
      <trkpt lat="40.273767" lon="-4.596417">
        <ele>1323.0</ele>
        <time>2015-03-15T15:16:04Z</time>
      </trkpt>
      <trkpt lat="40.273700" lon="-4.596300">
        <ele>1321.0</ele>
        <time>2015-03-15T15:16:05Z</time>
      </trkpt>
      <trkpt lat="40.273633" lon="-4.596183">
        <ele>1320.0</ele>
        <time>2015-03-15T15:16:06Z</time>
      </trkpt>
      <trkpt lat="40.273567" lon="-4.596050">
        <ele>1319.0</ele>
        <time>2015-03-15T15:16:07Z</time>
      </trkpt>
      <trkpt lat="40.273483" lon="-4.595933">
        <ele>1319.0</ele>
        <time>2015-03-15T15:16:08Z</time>
      </trkpt>
      <trkpt lat="40.273417" lon="-4.595817">
        <ele>1320.0</ele>
        <time>2015-03-15T15:16:09Z</time>
      </trkpt>
      <trkpt lat="40.273367" lon="-4.595717">
        <ele>1320.0</ele>
        <time>2015-03-15T15:16:10Z</time>
      </trkpt>
      <trkpt lat="40.273300" lon="-4.595617">
        <ele>1319.0</ele>
        <time>2015-03-15T15:16:11Z</time>
      </trkpt>
      <trkpt lat="40.273233" lon="-4.595517">
        <ele>1317.0</ele>
        <time>2015-03-15T15:16:12Z</time>
      </trkpt>
      <trkpt lat="40.273150" lon="-4.595400">
        <ele>1314.0</ele>
        <time>2015-03-15T15:16:13Z</time>
      </trkpt>
      <trkpt lat="40.273067" lon="-4.595283">
        <ele>1313.0</ele>
        <time>2015-03-15T15:16:14Z</time>
      </trkpt>
      <trkpt lat="40.272967" lon="-4.595167">
        <ele>1312.0</ele>
        <time>2015-03-15T15:16:15Z</time>
      </trkpt>
      <trkpt lat="40.272883" lon="-4.595050">
        <ele>1312.0</ele>
        <time>2015-03-15T15:16:16Z</time>
      </trkpt>
      <trkpt lat="40.272817" lon="-4.594950">
        <ele>1312.0</ele>
        <time>2015-03-15T15:16:17Z</time>
      </trkpt>
      <trkpt lat="40.272750" lon="-4.594850">
        <ele>1311.0</ele>
        <time>2015-03-15T15:16:18Z</time>
      </trkpt>
      <trkpt lat="40.272667" lon="-4.594733">
        <ele>1310.0</ele>
        <time>2015-03-15T15:16:19Z</time>
      </trkpt>
      <trkpt lat="40.272583" lon="-4.594633">
        <ele>1308.0</ele>
        <time>2015-03-15T15:16:20Z</time>
      </trkpt>
      <trkpt lat="40.272500" lon="-4.594517">
        <ele>1306.0</ele>
        <time>2015-03-15T15:16:21Z</time>
      </trkpt>
      <trkpt lat="40.272433" lon="-4.594400">
        <ele>1305.0</ele>
        <time>2015-03-15T15:16:22Z</time>
      </trkpt>
      <trkpt lat="40.272367" lon="-4.594267">
        <ele>1305.0</ele>
        <time>2015-03-15T15:16:23Z</time>
      </trkpt>
      <trkpt lat="40.272317" lon="-4.594133">
        <ele>1304.0</ele>
        <time>2015-03-15T15:16:24Z</time>
      </trkpt>
      <trkpt lat="40.272250" lon="-4.594017">
        <ele>1304.0</ele>
        <time>2015-03-15T15:16:25Z</time>
      </trkpt>
      <trkpt lat="40.272183" lon="-4.593917">
        <ele>1304.0</ele>
        <time>2015-03-15T15:16:26Z</time>
      </trkpt>
      <trkpt lat="40.272117" lon="-4.593800">
        <ele>1303.0</ele>
        <time>2015-03-15T15:16:27Z</time>
      </trkpt>
      <trkpt lat="40.272050" lon="-4.593683">
        <ele>1301.0</ele>
        <time>2015-03-15T15:16:28Z</time>
      </trkpt>
      <trkpt lat="40.272000" lon="-4.593567">
        <ele>1300.0</ele>
        <time>2015-03-15T15:16:29Z</time>
      </trkpt>
      <trkpt lat="40.271950" lon="-4.593433">
        <ele>1298.0</ele>
        <time>2015-03-15T15:16:30Z</time>
      </trkpt>
      <trkpt lat="40.271900" lon="-4.593317">
        <ele>1297.0</ele>
        <time>2015-03-15T15:16:31Z</time>
      </trkpt>
      <trkpt lat="40.271867" lon="-4.593200">
        <ele>1297.0</ele>
        <time>2015-03-15T15:16:32Z</time>
      </trkpt>
      <trkpt lat="40.271817" lon="-4.593083">
        <ele>1296.0</ele>
        <time>2015-03-15T15:16:33Z</time>
      </trkpt>
      <trkpt lat="40.271783" lon="-4.592983">
        <ele>1295.0</ele>
        <time>2015-03-15T15:16:34Z</time>
      </trkpt>
      <trkpt lat="40.271733" lon="-4.592867">
        <ele>1293.0</ele>
        <time>2015-03-15T15:16:35Z</time>
      </trkpt>
      <trkpt lat="40.271700" lon="-4.592750">
        <ele>1291.0</ele>
        <time>2015-03-15T15:16:36Z</time>
      </trkpt>
      <trkpt lat="40.271650" lon="-4.592617">
        <ele>1289.0</ele>
        <time>2015-03-15T15:16:37Z</time>
      </trkpt>
      <trkpt lat="40.271600" lon="-4.592483">
        <ele>1287.0</ele>
        <time>2015-03-15T15:16:38Z</time>
      </trkpt>
      <trkpt lat="40.271567" lon="-4.592367">
        <ele>1287.0</ele>
        <time>2015-03-15T15:16:39Z</time>
      </trkpt>
      <trkpt lat="40.271517" lon="-4.592250">
        <ele>1287.0</ele>
        <time>2015-03-15T15:16:40Z</time>
      </trkpt>
      <trkpt lat="40.271467" lon="-4.592150">
        <ele>1287.0</ele>
        <time>2015-03-15T15:16:41Z</time>
      </trkpt>
      <trkpt lat="40.271417" lon="-4.592050">
        <ele>1285.0</ele>
        <time>2015-03-15T15:16:42Z</time>
      </trkpt>
      <trkpt lat="40.271367" lon="-4.591933">
        <ele>1284.0</ele>
        <time>2015-03-15T15:16:43Z</time>
      </trkpt>
      <trkpt lat="40.271317" lon="-4.591800">
        <ele>1282.0</ele>
        <time>2015-03-15T15:16:44Z</time>
      </trkpt>
      <trkpt lat="40.271267" lon="-4.591683">
        <ele>1282.0</ele>
        <time>2015-03-15T15:16:45Z</time>
      </trkpt>
      <trkpt lat="40.271217" lon="-4.591567">
        <ele>1281.0</ele>
        <time>2015-03-15T15:16:46Z</time>
      </trkpt>
      <trkpt lat="40.271167" lon="-4.591450">
        <ele>1281.0</ele>
        <time>2015-03-15T15:16:47Z</time>
      </trkpt>
      <trkpt lat="40.271117" lon="-4.591333">
        <ele>1280.0</ele>
        <time>2015-03-15T15:16:48Z</time>
      </trkpt>
      <trkpt lat="40.271083" lon="-4.591217">
        <ele>1279.0</ele>
        <time>2015-03-15T15:16:49Z</time>
      </trkpt>
      <trkpt lat="40.271050" lon="-4.591100">
        <ele>1277.0</ele>
        <time>2015-03-15T15:16:50Z</time>
      </trkpt>
      <trkpt lat="40.271033" lon="-4.590983">
        <ele>1275.0</ele>
        <time>2015-03-15T15:16:51Z</time>
      </trkpt>
      <trkpt lat="40.270983" lon="-4.590850">
        <ele>1273.0</ele>
        <time>2015-03-15T15:16:52Z</time>
      </trkpt>
      <trkpt lat="40.270933" lon="-4.590733">
        <ele>1272.0</ele>
        <time>2015-03-15T15:16:53Z</time>
      </trkpt>
      <trkpt lat="40.270883" lon="-4.590617">
        <ele>1271.0</ele>
        <time>2015-03-15T15:16:54Z</time>
      </trkpt>
      <trkpt lat="40.270850" lon="-4.590500">
        <ele>1271.0</ele>
        <time>2015-03-15T15:16:55Z</time>
      </trkpt>
      <trkpt lat="40.270800" lon="-4.590383">
        <ele>1270.0</ele>
        <time>2015-03-15T15:16:56Z</time>
      </trkpt>
      <trkpt lat="40.270767" lon="-4.590267">
        <ele>1270.0</ele>
        <time>2015-03-15T15:16:57Z</time>
      </trkpt>
      <trkpt lat="40.270717" lon="-4.590167">
        <ele>1269.0</ele>
        <time>2015-03-15T15:16:58Z</time>
      </trkpt>
      <trkpt lat="40.270683" lon="-4.590050">
        <ele>1268.0</ele>
        <time>2015-03-15T15:16:59Z</time>
      </trkpt>
      <trkpt lat="40.270650" lon="-4.589917">
        <ele>1267.0</ele>
        <time>2015-03-15T15:17:00Z</time>
      </trkpt>
      <trkpt lat="40.270617" lon="-4.589800">
        <ele>1266.0</ele>
        <time>2015-03-15T15:17:01Z</time>
      </trkpt>
      <trkpt lat="40.270567" lon="-4.589683">
        <ele>1266.0</ele>
        <time>2015-03-15T15:17:02Z</time>
      </trkpt>
      <trkpt lat="40.270517" lon="-4.589583">
        <ele>1265.0</ele>
        <time>2015-03-15T15:17:03Z</time>
      </trkpt>
      <trkpt lat="40.270483" lon="-4.589483">
        <ele>1265.0</ele>
        <time>2015-03-15T15:17:04Z</time>
      </trkpt>
      <trkpt lat="40.270450" lon="-4.589383">
        <ele>1264.0</ele>
        <time>2015-03-15T15:17:05Z</time>
      </trkpt>
      <trkpt lat="40.270417" lon="-4.589267">
        <ele>1263.0</ele>
        <time>2015-03-15T15:17:06Z</time>
      </trkpt>
      <trkpt lat="40.270383" lon="-4.589150">
        <ele>1261.0</ele>
        <time>2015-03-15T15:17:07Z</time>
      </trkpt>
      <trkpt lat="40.270350" lon="-4.589033">
        <ele>1261.0</ele>
        <time>2015-03-15T15:17:08Z</time>
      </trkpt>
      <trkpt lat="40.270317" lon="-4.588917">
        <ele>1260.0</ele>
        <time>2015-03-15T15:17:09Z</time>
      </trkpt>
      <trkpt lat="40.270300" lon="-4.588817">
        <ele>1259.0</ele>
        <time>2015-03-15T15:17:10Z</time>
      </trkpt>
      <trkpt lat="40.270267" lon="-4.588700">
        <ele>1258.0</ele>
        <time>2015-03-15T15:17:11Z</time>
      </trkpt>
      <trkpt lat="40.270250" lon="-4.588583">
        <ele>1257.0</ele>
        <time>2015-03-15T15:17:12Z</time>
      </trkpt>
      <trkpt lat="40.270217" lon="-4.588483">
        <ele>1257.0</ele>
        <time>2015-03-15T15:17:13Z</time>
      </trkpt>
      <trkpt lat="40.270183" lon="-4.588367">
        <ele>1256.0</ele>
        <time>2015-03-15T15:17:14Z</time>
      </trkpt>
      <trkpt lat="40.270133" lon="-4.588250">
        <ele>1256.0</ele>
        <time>2015-03-15T15:17:15Z</time>
      </trkpt>
      <trkpt lat="40.270083" lon="-4.588150">
        <ele>1256.0</ele>
        <time>2015-03-15T15:17:16Z</time>
      </trkpt>
      <trkpt lat="40.270033" lon="-4.588033">
        <ele>1255.0</ele>
        <time>2015-03-15T15:17:17Z</time>
      </trkpt>
      <trkpt lat="40.269967" lon="-4.587917">
        <ele>1255.0</ele>
        <time>2015-03-15T15:17:18Z</time>
      </trkpt>
      <trkpt lat="40.269917" lon="-4.587800">
        <ele>1255.0</ele>
        <time>2015-03-15T15:17:19Z</time>
      </trkpt>
      <trkpt lat="40.269850" lon="-4.587683">
        <ele>1255.0</ele>
        <time>2015-03-15T15:17:20Z</time>
      </trkpt>
      <trkpt lat="40.269800" lon="-4.587550">
        <ele>1255.0</ele>
        <time>2015-03-15T15:17:21Z</time>
      </trkpt>
      <trkpt lat="40.269733" lon="-4.587433">
        <ele>1254.0</ele>
        <time>2015-03-15T15:17:22Z</time>
      </trkpt>
      <trkpt lat="40.269683" lon="-4.587317">
        <ele>1253.0</ele>
        <time>2015-03-15T15:17:23Z</time>
      </trkpt>
      <trkpt lat="40.269617" lon="-4.587200">
        <ele>1252.0</ele>
        <time>2015-03-15T15:17:24Z</time>
      </trkpt>
      <trkpt lat="40.269550" lon="-4.587083">
        <ele>1251.0</ele>
        <time>2015-03-15T15:17:25Z</time>
      </trkpt>
      <trkpt lat="40.269483" lon="-4.586967">
        <ele>1248.0</ele>
        <time>2015-03-15T15:17:26Z</time>
      </trkpt>
      <trkpt lat="40.269433" lon="-4.586833">
        <ele>1246.0</ele>
        <time>2015-03-15T15:17:27Z</time>
      </trkpt>
      <trkpt lat="40.269400" lon="-4.586700">
        <ele>1245.0</ele>
        <time>2015-03-15T15:17:28Z</time>
      </trkpt>
      <trkpt lat="40.269350" lon="-4.586550">
        <ele>1245.0</ele>
        <time>2015-03-15T15:17:29Z</time>
      </trkpt>
      <trkpt lat="40.269300" lon="-4.586433">
        <ele>1246.0</ele>
        <time>2015-03-15T15:17:30Z</time>
      </trkpt>
      <trkpt lat="40.269250" lon="-4.586317">
        <ele>1246.0</ele>
        <time>2015-03-15T15:17:31Z</time>
      </trkpt>
      <trkpt lat="40.269217" lon="-4.586217">
        <ele>1245.0</ele>
        <time>2015-03-15T15:17:32Z</time>
      </trkpt>
      <trkpt lat="40.269167" lon="-4.586083">
        <ele>1243.0</ele>
        <time>2015-03-15T15:17:33Z</time>
      </trkpt>
      <trkpt lat="40.269133" lon="-4.585950">
        <ele>1242.0</ele>
        <time>2015-03-15T15:17:34Z</time>
      </trkpt>
      <trkpt lat="40.269100" lon="-4.585817">
        <ele>1241.0</ele>
        <time>2015-03-15T15:17:35Z</time>
      </trkpt>
      <trkpt lat="40.269067" lon="-4.585700">
        <ele>1240.0</ele>
        <time>2015-03-15T15:17:36Z</time>
      </trkpt>
      <trkpt lat="40.269033" lon="-4.585583">
        <ele>1240.0</ele>
        <time>2015-03-15T15:17:37Z</time>
      </trkpt>
      <trkpt lat="40.269000" lon="-4.585467">
        <ele>1239.0</ele>
        <time>2015-03-15T15:17:38Z</time>
      </trkpt>
      <trkpt lat="40.268983" lon="-4.585367">
        <ele>1238.0</ele>
        <time>2015-03-15T15:17:39Z</time>
      </trkpt>
      <trkpt lat="40.268950" lon="-4.585267">
        <ele>1235.0</ele>
        <time>2015-03-15T15:17:40Z</time>
      </trkpt>
      <trkpt lat="40.268933" lon="-4.585150">
        <ele>1233.0</ele>
        <time>2015-03-15T15:17:41Z</time>
      </trkpt>
      <trkpt lat="40.268900" lon="-4.585017">
        <ele>1229.0</ele>
        <time>2015-03-15T15:17:42Z</time>
      </trkpt>
      <trkpt lat="40.268883" lon="-4.584883">
        <ele>1227.0</ele>
        <time>2015-03-15T15:17:43Z</time>
      </trkpt>
      <trkpt lat="40.268867" lon="-4.584767">
        <ele>1225.0</ele>
        <time>2015-03-15T15:17:44Z</time>
      </trkpt>
      <trkpt lat="40.268867" lon="-4.584667">
        <ele>1224.0</ele>
        <time>2015-03-15T15:17:45Z</time>
      </trkpt>
      <trkpt lat="40.268850" lon="-4.584583">
        <ele>1223.0</ele>
        <time>2015-03-15T15:17:46Z</time>
      </trkpt>
      <trkpt lat="40.268833" lon="-4.584483">
        <ele>1220.0</ele>
        <time>2015-03-15T15:17:47Z</time>
      </trkpt>
      <trkpt lat="40.268800" lon="-4.584383">
        <ele>1217.0</ele>
        <time>2015-03-15T15:17:48Z</time>
      </trkpt>
      <trkpt lat="40.268783" lon="-4.584283">
        <ele>1214.0</ele>
        <time>2015-03-15T15:17:49Z</time>
      </trkpt>
      <trkpt lat="40.268767" lon="-4.584167">
        <ele>1210.0</ele>
        <time>2015-03-15T15:17:50Z</time>
      </trkpt>
      <trkpt lat="40.268750" lon="-4.584033">
        <ele>1209.0</ele>
        <time>2015-03-15T15:17:51Z</time>
      </trkpt>
      <trkpt lat="40.268733" lon="-4.583883">
        <ele>1208.0</ele>
        <time>2015-03-15T15:17:52Z</time>
      </trkpt>
      <trkpt lat="40.268717" lon="-4.583750">
        <ele>1210.0</ele>
        <time>2015-03-15T15:17:53Z</time>
      </trkpt>
      <trkpt lat="40.268700" lon="-4.583650">
        <ele>1213.0</ele>
        <time>2015-03-15T15:17:54Z</time>
      </trkpt>
      <trkpt lat="40.268683" lon="-4.583567">
        <ele>1215.0</ele>
        <time>2015-03-15T15:17:55Z</time>
      </trkpt>
      <trkpt lat="40.268667" lon="-4.583500">
        <ele>1215.0</ele>
        <time>2015-03-15T15:17:56Z</time>
      </trkpt>
      <trkpt lat="40.268650" lon="-4.583433">
        <ele>1215.0</ele>
        <time>2015-03-15T15:17:57Z</time>
      </trkpt>
      <trkpt lat="40.268633" lon="-4.583333">
        <ele>1213.0</ele>
        <time>2015-03-15T15:17:58Z</time>
      </trkpt>
      <trkpt lat="40.268633" lon="-4.583233">
        <ele>1211.0</ele>
        <time>2015-03-15T15:17:59Z</time>
      </trkpt>
      <trkpt lat="40.268617" lon="-4.583100">
        <ele>1208.0</ele>
        <time>2015-03-15T15:18:00Z</time>
      </trkpt>
      <trkpt lat="40.268583" lon="-4.582983">
        <ele>1207.0</ele>
        <time>2015-03-15T15:18:01Z</time>
      </trkpt>
      <trkpt lat="40.268550" lon="-4.582850">
        <ele>1206.0</ele>
        <time>2015-03-15T15:18:02Z</time>
      </trkpt>
      <trkpt lat="40.268517" lon="-4.582733">
        <ele>1206.0</ele>
        <time>2015-03-15T15:18:03Z</time>
      </trkpt>
      <trkpt lat="40.268483" lon="-4.582633">
        <ele>1205.0</ele>
        <time>2015-03-15T15:18:04Z</time>
      </trkpt>
      <trkpt lat="40.268450" lon="-4.582533">
        <ele>1204.0</ele>
        <time>2015-03-15T15:18:05Z</time>
      </trkpt>
      <trkpt lat="40.268433" lon="-4.582450">
        <ele>1202.0</ele>
        <time>2015-03-15T15:18:06Z</time>
      </trkpt>
      <trkpt lat="40.268400" lon="-4.582333">
        <ele>1200.0</ele>
        <time>2015-03-15T15:18:07Z</time>
      </trkpt>
      <trkpt lat="40.268350" lon="-4.582217">
        <ele>1199.0</ele>
        <time>2015-03-15T15:18:08Z</time>
      </trkpt>
      <trkpt lat="40.268317" lon="-4.582100">
        <ele>1198.0</ele>
        <time>2015-03-15T15:18:09Z</time>
      </trkpt>
      <trkpt lat="40.268267" lon="-4.581983">
        <ele>1199.0</ele>
        <time>2015-03-15T15:18:10Z</time>
      </trkpt>
      <trkpt lat="40.268233" lon="-4.581900">
        <ele>1199.0</ele>
        <time>2015-03-15T15:18:11Z</time>
      </trkpt>
      <trkpt lat="40.268200" lon="-4.581800">
        <ele>1198.0</ele>
        <time>2015-03-15T15:18:12Z</time>
      </trkpt>
      <trkpt lat="40.268150" lon="-4.581700">
        <ele>1197.0</ele>
        <time>2015-03-15T15:18:13Z</time>
      </trkpt>
      <trkpt lat="40.268083" lon="-4.581583">
        <ele>1195.0</ele>
        <time>2015-03-15T15:18:14Z</time>
      </trkpt>
      <trkpt lat="40.268033" lon="-4.581483">
        <ele>1194.0</ele>
        <time>2015-03-15T15:18:15Z</time>
      </trkpt>
      <trkpt lat="40.267967" lon="-4.581383">
        <ele>1193.0</ele>
        <time>2015-03-15T15:18:16Z</time>
      </trkpt>
      <trkpt lat="40.267900" lon="-4.581300">
        <ele>1192.0</ele>
        <time>2015-03-15T15:18:17Z</time>
      </trkpt>
      <trkpt lat="40.267850" lon="-4.581217">
        <ele>1191.0</ele>
        <time>2015-03-15T15:18:18Z</time>
      </trkpt>
      <trkpt lat="40.267783" lon="-4.581133">
        <ele>1190.0</ele>
        <time>2015-03-15T15:18:19Z</time>
      </trkpt>
      <trkpt lat="40.267733" lon="-4.581050">
        <ele>1190.0</ele>
        <time>2015-03-15T15:18:20Z</time>
      </trkpt>
      <trkpt lat="40.267700" lon="-4.580950">
        <ele>1190.0</ele>
        <time>2015-03-15T15:18:21Z</time>
      </trkpt>
      <trkpt lat="40.267667" lon="-4.580850">
        <ele>1190.0</ele>
        <time>2015-03-15T15:18:22Z</time>
      </trkpt>
      <trkpt lat="40.267633" lon="-4.580750">
        <ele>1190.0</ele>
        <time>2015-03-15T15:18:23Z</time>
      </trkpt>
      <trkpt lat="40.267600" lon="-4.580667">
        <ele>1189.0</ele>
        <time>2015-03-15T15:18:24Z</time>
      </trkpt>
      <trkpt lat="40.267583" lon="-4.580567">
        <ele>1189.0</ele>
        <time>2015-03-15T15:18:25Z</time>
      </trkpt>
      <trkpt lat="40.267550" lon="-4.580467">
        <ele>1189.0</ele>
        <time>2015-03-15T15:18:26Z</time>
      </trkpt>
      <trkpt lat="40.267533" lon="-4.580367">
        <ele>1190.0</ele>
        <time>2015-03-15T15:18:27Z</time>
      </trkpt>
      <trkpt lat="40.267517" lon="-4.580267">
        <ele>1192.0</ele>
        <time>2015-03-15T15:18:28Z</time>
      </trkpt>
      <trkpt lat="40.267483" lon="-4.580167">
        <ele>1193.0</ele>
        <time>2015-03-15T15:18:29Z</time>
      </trkpt>
      <trkpt lat="40.267467" lon="-4.580067">
        <ele>1192.0</ele>
        <time>2015-03-15T15:18:30Z</time>
      </trkpt>
      <trkpt lat="40.267417" lon="-4.579967">
        <ele>1192.0</ele>
        <time>2015-03-15T15:18:31Z</time>
      </trkpt>
      <trkpt lat="40.267383" lon="-4.579867">
        <ele>1190.0</ele>
        <time>2015-03-15T15:18:32Z</time>
      </trkpt>
      <trkpt lat="40.267333" lon="-4.579750">
        <ele>1189.0</ele>
        <time>2015-03-15T15:18:33Z</time>
      </trkpt>
      <trkpt lat="40.267283" lon="-4.579617">
        <ele>1187.0</ele>
        <time>2015-03-15T15:18:34Z</time>
      </trkpt>
      <trkpt lat="40.267250" lon="-4.579500">
        <ele>1187.0</ele>
        <time>2015-03-15T15:18:35Z</time>
      </trkpt>
      <trkpt lat="40.267217" lon="-4.579383">
        <ele>1188.0</ele>
        <time>2015-03-15T15:18:36Z</time>
      </trkpt>
      <trkpt lat="40.267200" lon="-4.579283">
        <ele>1188.0</ele>
        <time>2015-03-15T15:18:37Z</time>
      </trkpt>
      <trkpt lat="40.267183" lon="-4.579200">
        <ele>1189.0</ele>
        <time>2015-03-15T15:18:38Z</time>
      </trkpt>
      <trkpt lat="40.267167" lon="-4.579117">
        <ele>1189.0</ele>
        <time>2015-03-15T15:18:39Z</time>
      </trkpt>
      <trkpt lat="40.267150" lon="-4.579017">
        <ele>1189.0</ele>
        <time>2015-03-15T15:18:40Z</time>
      </trkpt>
      <trkpt lat="40.267133" lon="-4.578917">
        <ele>1189.0</ele>
        <time>2015-03-15T15:18:41Z</time>
      </trkpt>
      <trkpt lat="40.267133" lon="-4.578817">
        <ele>1187.0</ele>
        <time>2015-03-15T15:18:42Z</time>
      </trkpt>
      <trkpt lat="40.267133" lon="-4.578717">
        <ele>1185.0</ele>
        <time>2015-03-15T15:18:43Z</time>
      </trkpt>
      <trkpt lat="40.267150" lon="-4.578617">
        <ele>1183.0</ele>
        <time>2015-03-15T15:18:44Z</time>
      </trkpt>
      <trkpt lat="40.267167" lon="-4.578533">
        <ele>1181.0</ele>
        <time>2015-03-15T15:18:45Z</time>
      </trkpt>
      <trkpt lat="40.267167" lon="-4.578433">
        <ele>1179.0</ele>
        <time>2015-03-15T15:18:46Z</time>
      </trkpt>
      <trkpt lat="40.267167" lon="-4.578333">
        <ele>1176.0</ele>
        <time>2015-03-15T15:18:47Z</time>
      </trkpt>
      <trkpt lat="40.267183" lon="-4.578233">
        <ele>1172.0</ele>
        <time>2015-03-15T15:18:48Z</time>
      </trkpt>
      <trkpt lat="40.267200" lon="-4.578133">
        <ele>1169.0</ele>
        <time>2015-03-15T15:18:49Z</time>
      </trkpt>
      <trkpt lat="40.267217" lon="-4.578017">
        <ele>1168.0</ele>
        <time>2015-03-15T15:18:50Z</time>
      </trkpt>
      <trkpt lat="40.267233" lon="-4.577917">
        <ele>1167.0</ele>
        <time>2015-03-15T15:18:51Z</time>
      </trkpt>
      <trkpt lat="40.267233" lon="-4.577817">
        <ele>1166.0</ele>
        <time>2015-03-15T15:18:52Z</time>
      </trkpt>
      <trkpt lat="40.267233" lon="-4.577717">
        <ele>1164.0</ele>
        <time>2015-03-15T15:18:53Z</time>
      </trkpt>
      <trkpt lat="40.267233" lon="-4.577633">
        <ele>1162.0</ele>
        <time>2015-03-15T15:18:54Z</time>
      </trkpt>
      <trkpt lat="40.267250" lon="-4.577533">
        <ele>1160.0</ele>
        <time>2015-03-15T15:18:55Z</time>
      </trkpt>
      <trkpt lat="40.267283" lon="-4.577467">
        <ele>1159.0</ele>
        <time>2015-03-15T15:18:56Z</time>
      </trkpt>
      <trkpt lat="40.267300" lon="-4.577417">
        <ele>1158.0</ele>
        <time>2015-03-15T15:18:57Z</time>
      </trkpt>
      <trkpt lat="40.267317" lon="-4.577367">
        <ele>1157.0</ele>
        <time>2015-03-15T15:18:58Z</time>
      </trkpt>
      <trkpt lat="40.267333" lon="-4.577317">
        <ele>1155.0</ele>
        <time>2015-03-15T15:18:59Z</time>
      </trkpt>
      <trkpt lat="40.267317" lon="-4.577250">
        <ele>1153.0</ele>
        <time>2015-03-15T15:19:00Z</time>
      </trkpt>
      <trkpt lat="40.267317" lon="-4.577183">
        <ele>1151.0</ele>
        <time>2015-03-15T15:19:01Z</time>
      </trkpt>
      <trkpt lat="40.267317" lon="-4.577133">
        <ele>1148.0</ele>
        <time>2015-03-15T15:19:02Z</time>
      </trkpt>
      <trkpt lat="40.267333" lon="-4.577083">
        <ele>1147.0</ele>
        <time>2015-03-15T15:19:03Z</time>
      </trkpt>
      <trkpt lat="40.267350" lon="-4.577033">
        <ele>1145.0</ele>
        <time>2015-03-15T15:19:04Z</time>
      </trkpt>
      <trkpt lat="40.267383" lon="-4.576983">
        <ele>1145.0</ele>
        <time>2015-03-15T15:19:05Z</time>
      </trkpt>
      <trkpt lat="40.267400" lon="-4.576917">
        <ele>1144.0</ele>
        <time>2015-03-15T15:19:06Z</time>
      </trkpt>
      <trkpt lat="40.267433" lon="-4.576867">
        <ele>1144.0</ele>
        <time>2015-03-15T15:19:07Z</time>
      </trkpt>
      <trkpt lat="40.267467" lon="-4.576817">
        <ele>1143.0</ele>
        <time>2015-03-15T15:19:08Z</time>
      </trkpt>
      <trkpt lat="40.267500" lon="-4.576783">
        <ele>1142.0</ele>
        <time>2015-03-15T15:19:09Z</time>
      </trkpt>
      <trkpt lat="40.267533" lon="-4.576733">
        <ele>1140.0</ele>
        <time>2015-03-15T15:19:10Z</time>
      </trkpt>
      <trkpt lat="40.267567" lon="-4.576667">
        <ele>1139.0</ele>
        <time>2015-03-15T15:19:11Z</time>
      </trkpt>
      <trkpt lat="40.267600" lon="-4.576617">
        <ele>1140.0</ele>
        <time>2015-03-15T15:19:12Z</time>
      </trkpt>
      <trkpt lat="40.267633" lon="-4.576583">
        <ele>1141.0</ele>
        <time>2015-03-15T15:19:13Z</time>
      </trkpt>
      <trkpt lat="40.267650" lon="-4.576567">
        <ele>1141.0</ele>
        <time>2015-03-15T15:19:14Z</time>
      </trkpt>
      <trkpt lat="40.267667" lon="-4.576550">
        <ele>1139.0</ele>
        <time>2015-03-15T15:19:15Z</time>
      </trkpt>
      <trkpt lat="40.267683" lon="-4.576517">
        <ele>1138.0</ele>
        <time>2015-03-15T15:19:16Z</time>
      </trkpt>
      <trkpt lat="40.267700" lon="-4.576467">
        <ele>1136.0</ele>
        <time>2015-03-15T15:19:17Z</time>
      </trkpt>
      <trkpt lat="40.267733" lon="-4.576433">
        <ele>1134.0</ele>
        <time>2015-03-15T15:19:18Z</time>
      </trkpt>
      <trkpt lat="40.267767" lon="-4.576417">
        <ele>1133.0</ele>
        <time>2015-03-15T15:19:19Z</time>
      </trkpt>
      <trkpt lat="40.267800" lon="-4.576400">
        <ele>1132.0</ele>
        <time>2015-03-15T15:19:20Z</time>
      </trkpt>
      <trkpt lat="40.267817" lon="-4.576383">
        <ele>1131.0</ele>
        <time>2015-03-15T15:19:21Z</time>
      </trkpt>
      <trkpt lat="40.267850" lon="-4.576350">
        <ele>1129.0</ele>
        <time>2015-03-15T15:19:22Z</time>
      </trkpt>
      <trkpt lat="40.267867" lon="-4.576300">
        <ele>1128.0</ele>
        <time>2015-03-15T15:19:23Z</time>
      </trkpt>
      <trkpt lat="40.267900" lon="-4.576250">
        <ele>1127.0</ele>
        <time>2015-03-15T15:19:24Z</time>
      </trkpt>
      <trkpt lat="40.267933" lon="-4.576217">
        <ele>1127.0</ele>
        <time>2015-03-15T15:19:25Z</time>
      </trkpt>
      <trkpt lat="40.267967" lon="-4.576200">
        <ele>1126.0</ele>
        <time>2015-03-15T15:19:26Z</time>
      </trkpt>
      <trkpt lat="40.268000" lon="-4.576167">
        <ele>1125.0</ele>
        <time>2015-03-15T15:19:27Z</time>
      </trkpt>
      <trkpt lat="40.268033" lon="-4.576150">
        <ele>1123.0</ele>
        <time>2015-03-15T15:19:28Z</time>
      </trkpt>
      <trkpt lat="40.268067" lon="-4.576117">
        <ele>1121.0</ele>
        <time>2015-03-15T15:19:29Z</time>
      </trkpt>
      <trkpt lat="40.268100" lon="-4.576083">
        <ele>1120.0</ele>
        <time>2015-03-15T15:19:30Z</time>
      </trkpt>
      <trkpt lat="40.268150" lon="-4.576050">
        <ele>1119.0</ele>
        <time>2015-03-15T15:19:31Z</time>
      </trkpt>
      <trkpt lat="40.268200" lon="-4.576033">
        <ele>1119.0</ele>
        <time>2015-03-15T15:19:32Z</time>
      </trkpt>
      <trkpt lat="40.268250" lon="-4.576033">
        <ele>1119.0</ele>
        <time>2015-03-15T15:19:33Z</time>
      </trkpt>
      <trkpt lat="40.268283" lon="-4.576033">
        <ele>1118.0</ele>
        <time>2015-03-15T15:19:34Z</time>
      </trkpt>
      <trkpt lat="40.268300" lon="-4.576033">
        <ele>1117.0</ele>
        <time>2015-03-15T15:19:35Z</time>
      </trkpt>
      <trkpt lat="40.268350" lon="-4.576017">
        <ele>1114.0</ele>
        <time>2015-03-15T15:19:36Z</time>
      </trkpt>
      <trkpt lat="40.268400" lon="-4.575983">
        <ele>1112.0</ele>
        <time>2015-03-15T15:19:37Z</time>
      </trkpt>
      <trkpt lat="40.268450" lon="-4.575967">
        <ele>1110.0</ele>
        <time>2015-03-15T15:19:38Z</time>
      </trkpt>
      <trkpt lat="40.268500" lon="-4.575933">
        <ele>1109.0</ele>
        <time>2015-03-15T15:19:39Z</time>
      </trkpt>
      <trkpt lat="40.268533" lon="-4.575900">
        <ele>1108.0</ele>
        <time>2015-03-15T15:19:40Z</time>
      </trkpt>
      <trkpt lat="40.268583" lon="-4.575883">
        <ele>1107.0</ele>
        <time>2015-03-15T15:19:41Z</time>
      </trkpt>
      <trkpt lat="40.268617" lon="-4.575850">
        <ele>1104.0</ele>
        <time>2015-03-15T15:19:42Z</time>
      </trkpt>
      <trkpt lat="40.268667" lon="-4.575817">
        <ele>1102.0</ele>
        <time>2015-03-15T15:19:43Z</time>
      </trkpt>
      <trkpt lat="40.268733" lon="-4.575800">
        <ele>1100.0</ele>
        <time>2015-03-15T15:19:44Z</time>
      </trkpt>
      <trkpt lat="40.268783" lon="-4.575767">
        <ele>1098.0</ele>
        <time>2015-03-15T15:19:45Z</time>
      </trkpt>
      <trkpt lat="40.268817" lon="-4.575733">
        <ele>1098.0</ele>
        <time>2015-03-15T15:19:46Z</time>
      </trkpt>
      <trkpt lat="40.268850" lon="-4.575700">
        <ele>1097.0</ele>
        <time>2015-03-15T15:19:47Z</time>
      </trkpt>
      <trkpt lat="40.268883" lon="-4.575683">
        <ele>1095.0</ele>
        <time>2015-03-15T15:19:48Z</time>
      </trkpt>
      <trkpt lat="40.268917" lon="-4.575667">
        <ele>1092.0</ele>
        <time>2015-03-15T15:19:49Z</time>
      </trkpt>
      <trkpt lat="40.268950" lon="-4.575633">
        <ele>1090.0</ele>
        <time>2015-03-15T15:19:50Z</time>
      </trkpt>
      <trkpt lat="40.268983" lon="-4.575600">
        <ele>1088.0</ele>
        <time>2015-03-15T15:19:51Z</time>
      </trkpt>
      <trkpt lat="40.269033" lon="-4.575550">
        <ele>1086.0</ele>
        <time>2015-03-15T15:19:52Z</time>
      </trkpt>
      <trkpt lat="40.269050" lon="-4.575517">
        <ele>1086.0</ele>
        <time>2015-03-15T15:19:53Z</time>
      </trkpt>
      <trkpt lat="40.269067" lon="-4.575500">
        <ele>1087.0</ele>
        <time>2015-03-15T15:19:54Z</time>
      </trkpt>
      <trkpt lat="40.269067" lon="-4.575467">
        <ele>1086.0</ele>
        <time>2015-03-15T15:19:55Z</time>
      </trkpt>
      <trkpt lat="40.269067" lon="-4.575450">
        <ele>1085.0</ele>
        <time>2015-03-15T15:19:56Z</time>
      </trkpt>
      <trkpt lat="40.269083" lon="-4.575417">
        <ele>1084.0</ele>
        <time>2015-03-15T15:19:57Z</time>
      </trkpt>
      <trkpt lat="40.269100" lon="-4.575383">
        <ele>1083.0</ele>
        <time>2015-03-15T15:19:58Z</time>
      </trkpt>
      <trkpt lat="40.269150" lon="-4.575367">
        <ele>1080.0</ele>
        <time>2015-03-15T15:19:59Z</time>
      </trkpt>
      <trkpt lat="40.269183" lon="-4.575350">
        <ele>1078.0</ele>
        <time>2015-03-15T15:20:00Z</time>
      </trkpt>
      <trkpt lat="40.269233" lon="-4.575333">
        <ele>1077.0</ele>
        <time>2015-03-15T15:20:01Z</time>
      </trkpt>
      <trkpt lat="40.269267" lon="-4.575317">
        <ele>1077.0</ele>
        <time>2015-03-15T15:20:02Z</time>
      </trkpt>
      <trkpt lat="40.269300" lon="-4.575300">
        <ele>1076.0</ele>
        <time>2015-03-15T15:20:03Z</time>
      </trkpt>
      <trkpt lat="40.269317" lon="-4.575283">
        <ele>1074.0</ele>
        <time>2015-03-15T15:20:04Z</time>
      </trkpt>
      <trkpt lat="40.269350" lon="-4.575250">
        <ele>1072.0</ele>
        <time>2015-03-15T15:20:05Z</time>
      </trkpt>
      <trkpt lat="40.269383" lon="-4.575233">
        <ele>1070.0</ele>
        <time>2015-03-15T15:20:06Z</time>
      </trkpt>
      <trkpt lat="40.269433" lon="-4.575200">
        <ele>1069.0</ele>
        <time>2015-03-15T15:20:07Z</time>
      </trkpt>
      <trkpt lat="40.269467" lon="-4.575183">
        <ele>1067.0</ele>
        <time>2015-03-15T15:20:08Z</time>
      </trkpt>
      <trkpt lat="40.269483" lon="-4.575150">
        <ele>1065.0</ele>
        <time>2015-03-15T15:20:09Z</time>
      </trkpt>
      <trkpt lat="40.269517" lon="-4.575117">
        <ele>1064.0</ele>
        <time>2015-03-15T15:20:10Z</time>
      </trkpt>
      <trkpt lat="40.269550" lon="-4.575100">
        <ele>1062.0</ele>
        <time>2015-03-15T15:20:11Z</time>
      </trkpt>
      <trkpt lat="40.269600" lon="-4.575067">
        <ele>1061.0</ele>
        <time>2015-03-15T15:20:12Z</time>
      </trkpt>
      <trkpt lat="40.269633" lon="-4.575050">
        <ele>1060.0</ele>
        <time>2015-03-15T15:20:13Z</time>
      </trkpt>
      <trkpt lat="40.269650" lon="-4.575017">
        <ele>1060.0</ele>
        <time>2015-03-15T15:20:14Z</time>
      </trkpt>
      <trkpt lat="40.269667" lon="-4.575017">
        <ele>1060.0</ele>
        <time>2015-03-15T15:20:15Z</time>
      </trkpt>
      <trkpt lat="40.269700" lon="-4.575000">
        <ele>1059.0</ele>
        <time>2015-03-15T15:20:16Z</time>
      </trkpt>
      <trkpt lat="40.269717" lon="-4.574983">
        <ele>1057.0</ele>
        <time>2015-03-15T15:20:17Z</time>
      </trkpt>
      <trkpt lat="40.269750" lon="-4.574950">
        <ele>1055.0</ele>
        <time>2015-03-15T15:20:18Z</time>
      </trkpt>
      <trkpt lat="40.269783" lon="-4.574917">
        <ele>1053.0</ele>
        <time>2015-03-15T15:20:19Z</time>
      </trkpt>
      <trkpt lat="40.269800" lon="-4.574883">
        <ele>1051.0</ele>
        <time>2015-03-15T15:20:20Z</time>
      </trkpt>
      <trkpt lat="40.269833" lon="-4.574867">
        <ele>1050.0</ele>
        <time>2015-03-15T15:20:21Z</time>
      </trkpt>
      <trkpt lat="40.269867" lon="-4.574850">
        <ele>1048.0</ele>
        <time>2015-03-15T15:20:22Z</time>
      </trkpt>
      <trkpt lat="40.269917" lon="-4.574833">
        <ele>1047.0</ele>
        <time>2015-03-15T15:20:23Z</time>
      </trkpt>
      <trkpt lat="40.269950" lon="-4.574817">
        <ele>1045.0</ele>
        <time>2015-03-15T15:20:24Z</time>
      </trkpt>
      <trkpt lat="40.269983" lon="-4.574817">
        <ele>1043.0</ele>
        <time>2015-03-15T15:20:25Z</time>
      </trkpt>
      <trkpt lat="40.270033" lon="-4.574800">
        <ele>1042.0</ele>
        <time>2015-03-15T15:20:26Z</time>
      </trkpt>
      <trkpt lat="40.270067" lon="-4.574783">
        <ele>1041.0</ele>
        <time>2015-03-15T15:20:27Z</time>
      </trkpt>
      <trkpt lat="40.270117" lon="-4.574783">
        <ele>1040.0</ele>
        <time>2015-03-15T15:20:28Z</time>
      </trkpt>
      <trkpt lat="40.270150" lon="-4.574767">
        <ele>1039.0</ele>
        <time>2015-03-15T15:20:29Z</time>
      </trkpt>
      <trkpt lat="40.270183" lon="-4.574750">
        <ele>1039.0</ele>
        <time>2015-03-15T15:20:30Z</time>
      </trkpt>
      <trkpt lat="40.270217" lon="-4.574733">
        <ele>1038.0</ele>
        <time>2015-03-15T15:20:31Z</time>
      </trkpt>
      <trkpt lat="40.270233" lon="-4.574717">
        <ele>1037.0</ele>
        <time>2015-03-15T15:20:32Z</time>
      </trkpt>
      <trkpt lat="40.270250" lon="-4.574683">
        <ele>1035.0</ele>
        <time>2015-03-15T15:20:33Z</time>
      </trkpt>
      <trkpt lat="40.270267" lon="-4.574633">
        <ele>1032.0</ele>
        <time>2015-03-15T15:20:34Z</time>
      </trkpt>
      <trkpt lat="40.270300" lon="-4.574583">
        <ele>1031.0</ele>
        <time>2015-03-15T15:20:35Z</time>
      </trkpt>
      <trkpt lat="40.270317" lon="-4.574533">
        <ele>1030.0</ele>
        <time>2015-03-15T15:20:36Z</time>
      </trkpt>
      <trkpt lat="40.270333" lon="-4.574500">
        <ele>1029.0</ele>
        <time>2015-03-15T15:20:37Z</time>
      </trkpt>
      <trkpt lat="40.270350" lon="-4.574450">
        <ele>1028.0</ele>
        <time>2015-03-15T15:20:38Z</time>
      </trkpt>
      <trkpt lat="40.270350" lon="-4.574400">
        <ele>1026.0</ele>
        <time>2015-03-15T15:20:39Z</time>
      </trkpt>
      <trkpt lat="40.270350" lon="-4.574333">
        <ele>1023.0</ele>
        <time>2015-03-15T15:20:40Z</time>
      </trkpt>
      <trkpt lat="40.270350" lon="-4.574250">
        <ele>1022.0</ele>
        <time>2015-03-15T15:20:41Z</time>
      </trkpt>
      <trkpt lat="40.270350" lon="-4.574183">
        <ele>1021.0</ele>
        <time>2015-03-15T15:20:42Z</time>
      </trkpt>
      <trkpt lat="40.270350" lon="-4.574117">
        <ele>1020.0</ele>
        <time>2015-03-15T15:20:43Z</time>
      </trkpt>
      <trkpt lat="40.270350" lon="-4.574050">
        <ele>1018.0</ele>
        <time>2015-03-15T15:20:44Z</time>
      </trkpt>
      <trkpt lat="40.270350" lon="-4.573983">
        <ele>1015.0</ele>
        <time>2015-03-15T15:20:45Z</time>
      </trkpt>
      <trkpt lat="40.270333" lon="-4.573900">
        <ele>1012.0</ele>
        <time>2015-03-15T15:20:46Z</time>
      </trkpt>
      <trkpt lat="40.270317" lon="-4.573817">
        <ele>1010.0</ele>
        <time>2015-03-15T15:20:47Z</time>
      </trkpt>
      <trkpt lat="40.270300" lon="-4.573733">
        <ele>1007.0</ele>
        <time>2015-03-15T15:20:48Z</time>
      </trkpt>
      <trkpt lat="40.270283" lon="-4.573633">
        <ele>1006.0</ele>
        <time>2015-03-15T15:20:49Z</time>
      </trkpt>
      <trkpt lat="40.270267" lon="-4.573550">
        <ele>1004.0</ele>
        <time>2015-03-15T15:20:50Z</time>
      </trkpt>
      <trkpt lat="40.270250" lon="-4.573483">
        <ele>1003.0</ele>
        <time>2015-03-15T15:20:51Z</time>
      </trkpt>
      <trkpt lat="40.270250" lon="-4.573400">
        <ele>1001.0</ele>
        <time>2015-03-15T15:20:52Z</time>
      </trkpt>
      <trkpt lat="40.270233" lon="-4.573333">
        <ele>999.0</ele>
        <time>2015-03-15T15:20:53Z</time>
      </trkpt>
      <trkpt lat="40.270233" lon="-4.573250">
        <ele>997.0</ele>
        <time>2015-03-15T15:20:54Z</time>
      </trkpt>
      <trkpt lat="40.270200" lon="-4.573167">
        <ele>995.0</ele>
        <time>2015-03-15T15:20:55Z</time>
      </trkpt>
      <trkpt lat="40.270183" lon="-4.573083">
        <ele>992.0</ele>
        <time>2015-03-15T15:20:56Z</time>
      </trkpt>
      <trkpt lat="40.270167" lon="-4.572983">
        <ele>990.0</ele>
        <time>2015-03-15T15:20:57Z</time>
      </trkpt>
      <trkpt lat="40.270150" lon="-4.572900">
        <ele>987.0</ele>
        <time>2015-03-15T15:20:58Z</time>
      </trkpt>
      <trkpt lat="40.270133" lon="-4.572800">
        <ele>985.0</ele>
        <time>2015-03-15T15:20:59Z</time>
      </trkpt>
      <trkpt lat="40.270133" lon="-4.572717">
        <ele>983.0</ele>
        <time>2015-03-15T15:21:00Z</time>
      </trkpt>
      <trkpt lat="40.270117" lon="-4.572650">
        <ele>983.0</ele>
        <time>2015-03-15T15:21:01Z</time>
      </trkpt>
      <trkpt lat="40.270100" lon="-4.572567">
        <ele>982.0</ele>
        <time>2015-03-15T15:21:02Z</time>
      </trkpt>
      <trkpt lat="40.270100" lon="-4.572500">
        <ele>980.0</ele>
        <time>2015-03-15T15:21:03Z</time>
      </trkpt>
      <trkpt lat="40.270083" lon="-4.572433">
        <ele>978.0</ele>
        <time>2015-03-15T15:21:04Z</time>
      </trkpt>
      <trkpt lat="40.270083" lon="-4.572350">
        <ele>977.0</ele>
        <time>2015-03-15T15:21:05Z</time>
      </trkpt>
      <trkpt lat="40.270100" lon="-4.572283">
        <ele>975.0</ele>
        <time>2015-03-15T15:21:06Z</time>
      </trkpt>
      <trkpt lat="40.270100" lon="-4.572200">
        <ele>975.0</ele>
        <time>2015-03-15T15:21:07Z</time>
      </trkpt>
      <trkpt lat="40.270083" lon="-4.572133">
        <ele>975.0</ele>
        <time>2015-03-15T15:21:08Z</time>
      </trkpt>
      <trkpt lat="40.270083" lon="-4.572083">
        <ele>976.0</ele>
        <time>2015-03-15T15:21:09Z</time>
      </trkpt>
      <trkpt lat="40.270100" lon="-4.572033">
        <ele>976.0</ele>
        <time>2015-03-15T15:21:10Z</time>
      </trkpt>
      <trkpt lat="40.270100" lon="-4.571983">
        <ele>975.0</ele>
        <time>2015-03-15T15:21:11Z</time>
      </trkpt>
      <trkpt lat="40.270100" lon="-4.571933">
        <ele>975.0</ele>
        <time>2015-03-15T15:21:12Z</time>
      </trkpt>
      <trkpt lat="40.270083" lon="-4.571883">
        <ele>974.0</ele>
        <time>2015-03-15T15:21:13Z</time>
      </trkpt>
      <trkpt lat="40.270067" lon="-4.571833">
        <ele>973.0</ele>
        <time>2015-03-15T15:21:14Z</time>
      </trkpt>
      <trkpt lat="40.270050" lon="-4.571767">
        <ele>971.0</ele>
        <time>2015-03-15T15:21:15Z</time>
      </trkpt>
      <trkpt lat="40.270017" lon="-4.571700">
        <ele>970.0</ele>
        <time>2015-03-15T15:21:16Z</time>
      </trkpt>
      <trkpt lat="40.269967" lon="-4.571617">
        <ele>969.0</ele>
        <time>2015-03-15T15:21:17Z</time>
      </trkpt>
      <trkpt lat="40.269900" lon="-4.571550">
        <ele>969.0</ele>
        <time>2015-03-15T15:21:18Z</time>
      </trkpt>
      <trkpt lat="40.269833" lon="-4.571483">
        <ele>969.0</ele>
        <time>2015-03-15T15:21:19Z</time>
      </trkpt>
      <trkpt lat="40.269767" lon="-4.571433">
        <ele>969.0</ele>
        <time>2015-03-15T15:21:20Z</time>
      </trkpt>
      <trkpt lat="40.269683" lon="-4.571383">
        <ele>969.0</ele>
        <time>2015-03-15T15:21:21Z</time>
      </trkpt>
      <trkpt lat="40.269600" lon="-4.571333">
        <ele>968.0</ele>
        <time>2015-03-15T15:21:22Z</time>
      </trkpt>
      <trkpt lat="40.269517" lon="-4.571267">
        <ele>966.0</ele>
        <time>2015-03-15T15:21:23Z</time>
      </trkpt>
      <trkpt lat="40.269400" lon="-4.571217">
        <ele>965.0</ele>
        <time>2015-03-15T15:21:24Z</time>
      </trkpt>
      <trkpt lat="40.269267" lon="-4.571183">
        <ele>965.0</ele>
        <time>2015-03-15T15:21:25Z</time>
      </trkpt>
      <trkpt lat="40.269150" lon="-4.571167">
        <ele>966.0</ele>
        <time>2015-03-15T15:21:26Z</time>
      </trkpt>
      <trkpt lat="40.269050" lon="-4.571183">
        <ele>966.0</ele>
        <time>2015-03-15T15:21:27Z</time>
      </trkpt>
      <trkpt lat="40.268950" lon="-4.571183">
        <ele>964.0</ele>
        <time>2015-03-15T15:21:28Z</time>
      </trkpt>
      <trkpt lat="40.268833" lon="-4.571200">
        <ele>961.0</ele>
        <time>2015-03-15T15:21:29Z</time>
      </trkpt>
      <trkpt lat="40.268683" lon="-4.571200">
        <ele>956.0</ele>
        <time>2015-03-15T15:21:30Z</time>
      </trkpt>
      <trkpt lat="40.268533" lon="-4.571217">
        <ele>953.0</ele>
        <time>2015-03-15T15:21:31Z</time>
      </trkpt>
      <trkpt lat="40.268383" lon="-4.571217">
        <ele>952.0</ele>
        <time>2015-03-15T15:21:32Z</time>
      </trkpt>
      <trkpt lat="40.268250" lon="-4.571233">
        <ele>952.0</ele>
        <time>2015-03-15T15:21:33Z</time>
      </trkpt>
      <trkpt lat="40.268133" lon="-4.571233">
        <ele>951.0</ele>
        <time>2015-03-15T15:21:34Z</time>
      </trkpt>
      <trkpt lat="40.268017" lon="-4.571250">
        <ele>949.0</ele>
        <time>2015-03-15T15:21:35Z</time>
      </trkpt>
      <trkpt lat="40.267883" lon="-4.571267">
        <ele>946.0</ele>
        <time>2015-03-15T15:21:36Z</time>
      </trkpt>
      <trkpt lat="40.267750" lon="-4.571283">
        <ele>943.0</ele>
        <time>2015-03-15T15:21:37Z</time>
      </trkpt>
      <trkpt lat="40.267600" lon="-4.571317">
        <ele>941.0</ele>
        <time>2015-03-15T15:21:38Z</time>
      </trkpt>
      <trkpt lat="40.267467" lon="-4.571367">
        <ele>940.0</ele>
        <time>2015-03-15T15:21:39Z</time>
      </trkpt>
      <trkpt lat="40.267333" lon="-4.571417">
        <ele>939.0</ele>
        <time>2015-03-15T15:21:40Z</time>
      </trkpt>
      <trkpt lat="40.267200" lon="-4.571467">
        <ele>937.0</ele>
        <time>2015-03-15T15:21:41Z</time>
      </trkpt>
      <trkpt lat="40.267083" lon="-4.571517">
        <ele>935.0</ele>
        <time>2015-03-15T15:21:42Z</time>
      </trkpt>
      <trkpt lat="40.266967" lon="-4.571550">
        <ele>932.0</ele>
        <time>2015-03-15T15:21:43Z</time>
      </trkpt>
      <trkpt lat="40.266817" lon="-4.571583">
        <ele>930.0</ele>
        <time>2015-03-15T15:21:44Z</time>
      </trkpt>
      <trkpt lat="40.266683" lon="-4.571633">
        <ele>929.0</ele>
        <time>2015-03-15T15:21:45Z</time>
      </trkpt>
      <trkpt lat="40.266550" lon="-4.571683">
        <ele>929.0</ele>
        <time>2015-03-15T15:21:46Z</time>
      </trkpt>
      <trkpt lat="40.266433" lon="-4.571750">
        <ele>929.0</ele>
        <time>2015-03-15T15:21:47Z</time>
      </trkpt>
      <trkpt lat="40.266333" lon="-4.571800">
        <ele>928.0</ele>
        <time>2015-03-15T15:21:48Z</time>
      </trkpt>
      <trkpt lat="40.266217" lon="-4.571850">
        <ele>926.0</ele>
        <time>2015-03-15T15:21:49Z</time>
      </trkpt>
      <trkpt lat="40.266083" lon="-4.571900">
        <ele>923.0</ele>
        <time>2015-03-15T15:21:50Z</time>
      </trkpt>
      <trkpt lat="40.265950" lon="-4.571933">
        <ele>920.0</ele>
        <time>2015-03-15T15:21:51Z</time>
      </trkpt>
      <trkpt lat="40.265817" lon="-4.572000">
        <ele>918.0</ele>
        <time>2015-03-15T15:21:52Z</time>
      </trkpt>
      <trkpt lat="40.265683" lon="-4.572067">
        <ele>916.0</ele>
        <time>2015-03-15T15:21:53Z</time>
      </trkpt>
      <trkpt lat="40.265567" lon="-4.572133">
        <ele>915.0</ele>
        <time>2015-03-15T15:21:54Z</time>
      </trkpt>
      <trkpt lat="40.265433" lon="-4.572183">
        <ele>913.0</ele>
        <time>2015-03-15T15:21:55Z</time>
      </trkpt>
      <trkpt lat="40.265317" lon="-4.572217">
        <ele>911.0</ele>
        <time>2015-03-15T15:21:56Z</time>
      </trkpt>
      <trkpt lat="40.265200" lon="-4.572267">
        <ele>909.0</ele>
        <time>2015-03-15T15:21:57Z</time>
      </trkpt>
      <trkpt lat="40.265067" lon="-4.572333">
        <ele>906.0</ele>
        <time>2015-03-15T15:21:58Z</time>
      </trkpt>
      <trkpt lat="40.264950" lon="-4.572400">
        <ele>906.0</ele>
        <time>2015-03-15T15:21:59Z</time>
      </trkpt>
      <trkpt lat="40.264833" lon="-4.572500">
        <ele>905.0</ele>
        <time>2015-03-15T15:22:00Z</time>
      </trkpt>
      <trkpt lat="40.264750" lon="-4.572617">
        <ele>904.0</ele>
        <time>2015-03-15T15:22:01Z</time>
      </trkpt>
      <trkpt lat="40.264683" lon="-4.572767">
        <ele>902.0</ele>
        <time>2015-03-15T15:22:02Z</time>
      </trkpt>
      <trkpt lat="40.264650" lon="-4.572900">
        <ele>900.0</ele>
        <time>2015-03-15T15:22:03Z</time>
      </trkpt>
      <trkpt lat="40.264600" lon="-4.573050">
        <ele>898.0</ele>
        <time>2015-03-15T15:22:04Z</time>
      </trkpt>
      <trkpt lat="40.264567" lon="-4.573200">
        <ele>895.0</ele>
        <time>2015-03-15T15:22:05Z</time>
      </trkpt>
      <trkpt lat="40.264550" lon="-4.573367">
        <ele>892.0</ele>
        <time>2015-03-15T15:22:06Z</time>
      </trkpt>
      <trkpt lat="40.264517" lon="-4.573517">
        <ele>890.0</ele>
        <time>2015-03-15T15:22:07Z</time>
      </trkpt>
      <trkpt lat="40.264500" lon="-4.573683">
        <ele>889.0</ele>
        <time>2015-03-15T15:22:08Z</time>
      </trkpt>
      <trkpt lat="40.264500" lon="-4.573833">
        <ele>888.0</ele>
        <time>2015-03-15T15:22:09Z</time>
      </trkpt>
      <trkpt lat="40.264500" lon="-4.573983">
        <ele>887.0</ele>
        <time>2015-03-15T15:22:10Z</time>
      </trkpt>
      <trkpt lat="40.264517" lon="-4.574117">
        <ele>886.0</ele>
        <time>2015-03-15T15:22:11Z</time>
      </trkpt>
      <trkpt lat="40.264517" lon="-4.574267">
        <ele>884.0</ele>
        <time>2015-03-15T15:22:12Z</time>
      </trkpt>
      <trkpt lat="40.264517" lon="-4.574417">
        <ele>883.0</ele>
        <time>2015-03-15T15:22:13Z</time>
      </trkpt>
      <trkpt lat="40.264533" lon="-4.574567">
        <ele>882.0</ele>
        <time>2015-03-15T15:22:14Z</time>
      </trkpt>
      <trkpt lat="40.264567" lon="-4.574683">
        <ele>882.0</ele>
        <time>2015-03-15T15:22:15Z</time>
      </trkpt>
      <trkpt lat="40.264600" lon="-4.574800">
        <ele>881.0</ele>
        <time>2015-03-15T15:22:16Z</time>
      </trkpt>
      <trkpt lat="40.264633" lon="-4.574900">
        <ele>880.0</ele>
        <time>2015-03-15T15:22:17Z</time>
      </trkpt>
      <trkpt lat="40.264650" lon="-4.575000">
        <ele>878.0</ele>
        <time>2015-03-15T15:22:18Z</time>
      </trkpt>
      <trkpt lat="40.264683" lon="-4.575133">
        <ele>876.0</ele>
        <time>2015-03-15T15:22:19Z</time>
      </trkpt>
      <trkpt lat="40.264700" lon="-4.575250">
        <ele>874.0</ele>
        <time>2015-03-15T15:22:20Z</time>
      </trkpt>
      <trkpt lat="40.264733" lon="-4.575367">
        <ele>872.0</ele>
        <time>2015-03-15T15:22:21Z</time>
      </trkpt>
      <trkpt lat="40.264783" lon="-4.575500">
        <ele>870.0</ele>
        <time>2015-03-15T15:22:22Z</time>
      </trkpt>
      <trkpt lat="40.264833" lon="-4.575617">
        <ele>869.0</ele>
        <time>2015-03-15T15:22:23Z</time>
      </trkpt>
      <trkpt lat="40.264867" lon="-4.575717">
        <ele>869.0</ele>
        <time>2015-03-15T15:22:24Z</time>
      </trkpt>
      <trkpt lat="40.264917" lon="-4.575817">
        <ele>868.0</ele>
        <time>2015-03-15T15:22:25Z</time>
      </trkpt>
      <trkpt lat="40.264950" lon="-4.575900">
        <ele>868.0</ele>
        <time>2015-03-15T15:22:26Z</time>
      </trkpt>
      <trkpt lat="40.265000" lon="-4.575983">
        <ele>866.0</ele>
        <time>2015-03-15T15:22:27Z</time>
      </trkpt>
      <trkpt lat="40.265050" lon="-4.576067">
        <ele>865.0</ele>
        <time>2015-03-15T15:22:28Z</time>
      </trkpt>
      <trkpt lat="40.265100" lon="-4.576133">
        <ele>864.0</ele>
        <time>2015-03-15T15:22:29Z</time>
      </trkpt>
      <trkpt lat="40.265150" lon="-4.576200">
        <ele>863.0</ele>
        <time>2015-03-15T15:22:30Z</time>
      </trkpt>
      <trkpt lat="40.265200" lon="-4.576267">
        <ele>862.0</ele>
        <time>2015-03-15T15:22:31Z</time>
      </trkpt>
      <trkpt lat="40.265233" lon="-4.576300">
        <ele>861.0</ele>
        <time>2015-03-15T15:22:32Z</time>
      </trkpt>
      <trkpt lat="40.265283" lon="-4.576333">
        <ele>859.0</ele>
        <time>2015-03-15T15:22:33Z</time>
      </trkpt>
      <trkpt lat="40.265333" lon="-4.576367">
        <ele>856.0</ele>
        <time>2015-03-15T15:22:34Z</time>
      </trkpt>
      <trkpt lat="40.265383" lon="-4.576383">
        <ele>855.0</ele>
        <time>2015-03-15T15:22:35Z</time>
      </trkpt>
      <trkpt lat="40.265433" lon="-4.576400">
        <ele>854.0</ele>
        <time>2015-03-15T15:22:36Z</time>
      </trkpt>
      <trkpt lat="40.265467" lon="-4.576400">
        <ele>853.0</ele>
        <time>2015-03-15T15:22:37Z</time>
      </trkpt>
      <trkpt lat="40.265467" lon="-4.576383">
        <ele>852.0</ele>
        <time>2015-03-15T15:22:38Z</time>
      </trkpt>
      <trkpt lat="40.265450" lon="-4.576350">
        <ele>850.0</ele>
        <time>2015-03-15T15:22:39Z</time>
      </trkpt>
      <trkpt lat="40.265433" lon="-4.576300">
        <ele>847.0</ele>
        <time>2015-03-15T15:22:40Z</time>
      </trkpt>
      <trkpt lat="40.265383" lon="-4.576267">
        <ele>847.0</ele>
        <time>2015-03-15T15:22:41Z</time>
      </trkpt>
      <trkpt lat="40.265333" lon="-4.576233">
        <ele>846.0</ele>
        <time>2015-03-15T15:22:42Z</time>
      </trkpt>
      <trkpt lat="40.265283" lon="-4.576183">
        <ele>844.0</ele>
        <time>2015-03-15T15:22:43Z</time>
      </trkpt>
      <trkpt lat="40.265217" lon="-4.576150">
        <ele>842.0</ele>
        <time>2015-03-15T15:22:44Z</time>
      </trkpt>
      <trkpt lat="40.265167" lon="-4.576100">
        <ele>840.0</ele>
        <time>2015-03-15T15:22:45Z</time>
      </trkpt>
      <trkpt lat="40.265133" lon="-4.576050">
        <ele>837.0</ele>
        <time>2015-03-15T15:22:46Z</time>
      </trkpt>
      <trkpt lat="40.265100" lon="-4.575983">
        <ele>835.0</ele>
        <time>2015-03-15T15:22:47Z</time>
      </trkpt>
      <trkpt lat="40.265050" lon="-4.575950">
        <ele>833.0</ele>
        <time>2015-03-15T15:22:48Z</time>
      </trkpt>
      <trkpt lat="40.265017" lon="-4.575900">
        <ele>832.0</ele>
        <time>2015-03-15T15:22:49Z</time>
      </trkpt>
      <trkpt lat="40.264983" lon="-4.575867">
        <ele>830.0</ele>
        <time>2015-03-15T15:22:50Z</time>
      </trkpt>
      <trkpt lat="40.264967" lon="-4.575833">
        <ele>827.0</ele>
        <time>2015-03-15T15:22:51Z</time>
      </trkpt>
      <trkpt lat="40.264983" lon="-4.575800">
        <ele>824.0</ele>
        <time>2015-03-15T15:22:52Z</time>
      </trkpt>
      <trkpt lat="40.265000" lon="-4.575767">
        <ele>822.0</ele>
        <time>2015-03-15T15:22:53Z</time>
      </trkpt>
      <trkpt lat="40.265017" lon="-4.575733">
        <ele>819.0</ele>
        <time>2015-03-15T15:22:54Z</time>
      </trkpt>
      <trkpt lat="40.265033" lon="-4.575717">
        <ele>817.0</ele>
        <time>2015-03-15T15:22:55Z</time>
      </trkpt>
      <trkpt lat="40.265067" lon="-4.575700">
        <ele>814.0</ele>
        <time>2015-03-15T15:22:56Z</time>
      </trkpt>
      <trkpt lat="40.265100" lon="-4.575667">
        <ele>812.0</ele>
        <time>2015-03-15T15:22:57Z</time>
      </trkpt>
      <trkpt lat="40.265150" lon="-4.575633">
        <ele>810.0</ele>
        <time>2015-03-15T15:22:58Z</time>
      </trkpt>
      <trkpt lat="40.265183" lon="-4.575600">
        <ele>809.0</ele>
        <time>2015-03-15T15:22:59Z</time>
      </trkpt>
      <trkpt lat="40.265217" lon="-4.575583">
        <ele>809.0</ele>
        <time>2015-03-15T15:23:00Z</time>
      </trkpt>
      <trkpt lat="40.265233" lon="-4.575583">
        <ele>809.0</ele>
        <time>2015-03-15T15:23:01Z</time>
      </trkpt>
      <trkpt lat="40.265250" lon="-4.575567">
        <ele>808.0</ele>
        <time>2015-03-15T15:23:02Z</time>
      </trkpt>
      <trkpt lat="40.265283" lon="-4.575567">
        <ele>807.0</ele>
        <time>2015-03-15T15:23:03Z</time>
      </trkpt>
      <trkpt lat="40.265300" lon="-4.575567">
        <ele>805.0</ele>
        <time>2015-03-15T15:23:04Z</time>
      </trkpt>
      <trkpt lat="40.265333" lon="-4.575550">
        <ele>803.0</ele>
        <time>2015-03-15T15:23:05Z</time>
      </trkpt>
      <trkpt lat="40.265333" lon="-4.575517">
        <ele>800.0</ele>
        <time>2015-03-15T15:23:06Z</time>
      </trkpt>
      <trkpt lat="40.265350" lon="-4.575483">
        <ele>798.0</ele>
        <time>2015-03-15T15:23:07Z</time>
      </trkpt>
      <trkpt lat="40.265367" lon="-4.575433">
        <ele>796.0</ele>
        <time>2015-03-15T15:23:08Z</time>
      </trkpt>
      <trkpt lat="40.265383" lon="-4.575400">
        <ele>794.0</ele>
        <time>2015-03-15T15:23:09Z</time>
      </trkpt>
      <trkpt lat="40.265400" lon="-4.575350">
        <ele>793.0</ele>
        <time>2015-03-15T15:23:10Z</time>
      </trkpt>
      <trkpt lat="40.265433" lon="-4.575317">
        <ele>791.0</ele>
        <time>2015-03-15T15:23:11Z</time>
      </trkpt>
      <trkpt lat="40.265467" lon="-4.575300">
        <ele>789.0</ele>
        <time>2015-03-15T15:23:12Z</time>
      </trkpt>
      <trkpt lat="40.265500" lon="-4.575283">
        <ele>787.0</ele>
        <time>2015-03-15T15:23:13Z</time>
      </trkpt>
      <trkpt lat="40.265533" lon="-4.575267">
        <ele>785.0</ele>
        <time>2015-03-15T15:23:14Z</time>
      </trkpt>
      <trkpt lat="40.265567" lon="-4.575250">
        <ele>782.0</ele>
        <time>2015-03-15T15:23:15Z</time>
      </trkpt>
      <trkpt lat="40.265617" lon="-4.575233">
        <ele>780.0</ele>
        <time>2015-03-15T15:23:16Z</time>
      </trkpt>
      <trkpt lat="40.265650" lon="-4.575233">
        <ele>777.0</ele>
        <time>2015-03-15T15:23:17Z</time>
      </trkpt>
      <trkpt lat="40.265700" lon="-4.575217">
        <ele>775.0</ele>
        <time>2015-03-15T15:23:18Z</time>
      </trkpt>
      <trkpt lat="40.265750" lon="-4.575217">
        <ele>773.0</ele>
        <time>2015-03-15T15:23:19Z</time>
      </trkpt>
      <trkpt lat="40.265800" lon="-4.575217">
        <ele>771.0</ele>
        <time>2015-03-15T15:23:20Z</time>
      </trkpt>
      <trkpt lat="40.265850" lon="-4.575200">
        <ele>769.0</ele>
        <time>2015-03-15T15:23:21Z</time>
      </trkpt>
      <trkpt lat="40.265900" lon="-4.575183">
        <ele>767.0</ele>
        <time>2015-03-15T15:23:22Z</time>
      </trkpt>
      <trkpt lat="40.265933" lon="-4.575167">
        <ele>766.0</ele>
        <time>2015-03-15T15:23:23Z</time>
      </trkpt>
      <trkpt lat="40.265967" lon="-4.575150">
        <ele>766.0</ele>
        <time>2015-03-15T15:23:24Z</time>
      </trkpt>
      <trkpt lat="40.266000" lon="-4.575150">
        <ele>766.0</ele>
        <time>2015-03-15T15:23:25Z</time>
      </trkpt>
      <trkpt lat="40.266017" lon="-4.575117">
        <ele>766.0</ele>
        <time>2015-03-15T15:23:26Z</time>
      </trkpt>
      <trkpt lat="40.266050" lon="-4.575100">
        <ele>766.0</ele>
        <time>2015-03-15T15:23:27Z</time>
      </trkpt>
      <trkpt lat="40.266083" lon="-4.575083">
        <ele>766.0</ele>
        <time>2015-03-15T15:23:28Z</time>
      </trkpt>
      <trkpt lat="40.266117" lon="-4.575067">
        <ele>766.0</ele>
        <time>2015-03-15T15:23:29Z</time>
      </trkpt>
      <trkpt lat="40.266150" lon="-4.575067">
        <ele>766.0</ele>
        <time>2015-03-15T15:23:30Z</time>
      </trkpt>
      <trkpt lat="40.266183" lon="-4.575050">
        <ele>766.0</ele>
        <time>2015-03-15T15:23:31Z</time>
      </trkpt>
      <trkpt lat="40.266217" lon="-4.575033">
        <ele>765.0</ele>
        <time>2015-03-15T15:23:32Z</time>
      </trkpt>
      <trkpt lat="40.266250" lon="-4.575000">
        <ele>764.0</ele>
        <time>2015-03-15T15:23:33Z</time>
      </trkpt>
      <trkpt lat="40.266267" lon="-4.574983">
        <ele>763.0</ele>
        <time>2015-03-15T15:23:34Z</time>
      </trkpt>
      <trkpt lat="40.266283" lon="-4.574950">
        <ele>761.0</ele>
        <time>2015-03-15T15:23:35Z</time>
      </trkpt>
      <trkpt lat="40.266300" lon="-4.574933">
        <ele>759.0</ele>
        <time>2015-03-15T15:23:36Z</time>
      </trkpt>
      <trkpt lat="40.266317" lon="-4.574900">
        <ele>756.0</ele>
        <time>2015-03-15T15:23:37Z</time>
      </trkpt>
      <trkpt lat="40.266350" lon="-4.574883">
        <ele>753.0</ele>
        <time>2015-03-15T15:23:38Z</time>
      </trkpt>
      <trkpt lat="40.266367" lon="-4.574867">
        <ele>749.0</ele>
        <time>2015-03-15T15:23:39Z</time>
      </trkpt>
      <trkpt lat="40.266400" lon="-4.574850">
        <ele>746.0</ele>
        <time>2015-03-15T15:23:40Z</time>
      </trkpt>
      <trkpt lat="40.266433" lon="-4.574850">
        <ele>744.0</ele>
        <time>2015-03-15T15:23:41Z</time>
      </trkpt>
      <trkpt lat="40.266450" lon="-4.574850">
        <ele>743.0</ele>
        <time>2015-03-15T15:23:42Z</time>
      </trkpt>
      <trkpt lat="40.266467" lon="-4.574850">
        <ele>741.0</ele>
        <time>2015-03-15T15:23:43Z</time>
      </trkpt>
      <trkpt lat="40.266500" lon="-4.574833">
        <ele>739.0</ele>
        <time>2015-03-15T15:23:44Z</time>
      </trkpt>
      <trkpt lat="40.266533" lon="-4.574833">
        <ele>736.0</ele>
        <time>2015-03-15T15:23:45Z</time>
      </trkpt>
      <trkpt lat="40.266567" lon="-4.574800">
        <ele>733.0</ele>
        <time>2015-03-15T15:23:46Z</time>
      </trkpt>
      <trkpt lat="40.266600" lon="-4.574800">
        <ele>732.0</ele>
        <time>2015-03-15T15:23:47Z</time>
      </trkpt>
      <trkpt lat="40.266633" lon="-4.574783">
        <ele>731.0</ele>
        <time>2015-03-15T15:23:48Z</time>
      </trkpt>
      <trkpt lat="40.266650" lon="-4.574783">
        <ele>730.0</ele>
        <time>2015-03-15T15:23:49Z</time>
      </trkpt>
      <trkpt lat="40.266650" lon="-4.574783">
        <ele>729.0</ele>
        <time>2015-03-15T15:23:50Z</time>
      </trkpt>
      <trkpt lat="40.266667" lon="-4.574767">
        <ele>728.0</ele>
        <time>2015-03-15T15:23:51Z</time>
      </trkpt>
      <trkpt lat="40.266683" lon="-4.574733">
        <ele>727.0</ele>
        <time>2015-03-15T15:23:52Z</time>
      </trkpt>
      <trkpt lat="40.266717" lon="-4.574717">
        <ele>725.0</ele>
        <time>2015-03-15T15:23:53Z</time>
      </trkpt>
      <trkpt lat="40.266750" lon="-4.574717">
        <ele>723.0</ele>
        <time>2015-03-15T15:23:54Z</time>
      </trkpt>
      <trkpt lat="40.266783" lon="-4.574717">
        <ele>722.0</ele>
        <time>2015-03-15T15:23:55Z</time>
      </trkpt>
      <trkpt lat="40.266800" lon="-4.574717">
        <ele>722.0</ele>
        <time>2015-03-15T15:23:56Z</time>
      </trkpt>
      <trkpt lat="40.266817" lon="-4.574717">
        <ele>722.0</ele>
        <time>2015-03-15T15:23:57Z</time>
      </trkpt>
      <trkpt lat="40.266833" lon="-4.574700">
        <ele>717.0</ele>
        <time>2015-03-15T15:23:58Z</time>
      </trkpt>
      <trkpt lat="40.266867" lon="-4.574683">
        <ele>714.0</ele>
        <time>2015-03-15T15:23:59Z</time>
      </trkpt>
      <trkpt lat="40.266883" lon="-4.574667">
        <ele>713.0</ele>
        <time>2015-03-15T15:24:00Z</time>
      </trkpt>
      <trkpt lat="40.266917" lon="-4.574650">
        <ele>712.0</ele>
        <time>2015-03-15T15:24:01Z</time>
      </trkpt>
      <trkpt lat="40.266950" lon="-4.574650">
        <ele>711.0</ele>
        <time>2015-03-15T15:24:02Z</time>
      </trkpt>
      <trkpt lat="40.266950" lon="-4.574650">
        <ele>710.0</ele>
        <time>2015-03-15T15:24:03Z</time>
      </trkpt>
      <trkpt lat="40.266967" lon="-4.574633">
        <ele>708.0</ele>
        <time>2015-03-15T15:24:04Z</time>
      </trkpt>
      <trkpt lat="40.266967" lon="-4.574600">
        <ele>707.0</ele>
        <time>2015-03-15T15:24:06Z</time>
      </trkpt>
      <trkpt lat="40.266967" lon="-4.574567">
        <ele>705.0</ele>
        <time>2015-03-15T15:24:07Z</time>
      </trkpt>
      <trkpt lat="40.266983" lon="-4.574567">
        <ele>704.0</ele>
        <time>2015-03-15T15:24:08Z</time>
      </trkpt>
      <trkpt lat="40.267000" lon="-4.574550">
        <ele>703.0</ele>
        <time>2015-03-15T15:24:09Z</time>
      </trkpt>
      <trkpt lat="40.267017" lon="-4.574550">
        <ele>703.0</ele>
        <time>2015-03-15T15:24:10Z</time>
      </trkpt>
      <trkpt lat="40.267033" lon="-4.574567">
        <ele>703.0</ele>
        <time>2015-03-15T15:24:11Z</time>
      </trkpt>
      <trkpt lat="40.267050" lon="-4.574567">
        <ele>701.0</ele>
        <time>2015-03-15T15:24:12Z</time>
      </trkpt>
      <trkpt lat="40.267067" lon="-4.574567">
        <ele>700.0</ele>
        <time>2015-03-15T15:24:13Z</time>
      </trkpt>
      <trkpt lat="40.267067" lon="-4.574550">
        <ele>698.0</ele>
        <time>2015-03-15T15:24:14Z</time>
      </trkpt>
      <trkpt lat="40.267083" lon="-4.574533">
        <ele>696.0</ele>
        <time>2015-03-15T15:24:15Z</time>
      </trkpt>
      <trkpt lat="40.267100" lon="-4.574517">
        <ele>695.0</ele>
        <time>2015-03-15T15:24:16Z</time>
      </trkpt>
      <trkpt lat="40.267117" lon="-4.574533">
        <ele>694.0</ele>
        <time>2015-03-15T15:24:17Z</time>
      </trkpt>
      <trkpt lat="40.267150" lon="-4.574533">
        <ele>693.0</ele>
        <time>2015-03-15T15:24:18Z</time>
      </trkpt>
      <trkpt lat="40.267150" lon="-4.574517">
        <ele>691.0</ele>
        <time>2015-03-15T15:24:19Z</time>
      </trkpt>
      <trkpt lat="40.267167" lon="-4.574483">
        <ele>689.0</ele>
        <time>2015-03-15T15:24:20Z</time>
      </trkpt>
      <trkpt lat="40.267183" lon="-4.574450">
        <ele>687.0</ele>
        <time>2015-03-15T15:24:21Z</time>
      </trkpt>
      <trkpt lat="40.267200" lon="-4.574450">
        <ele>686.0</ele>
        <time>2015-03-15T15:24:22Z</time>
      </trkpt>
      <trkpt lat="40.267217" lon="-4.574450">
        <ele>686.0</ele>
        <time>2015-03-15T15:24:23Z</time>
      </trkpt>
      <trkpt lat="40.267233" lon="-4.574467">
        <ele>685.0</ele>
        <time>2015-03-15T15:24:24Z</time>
      </trkpt>
      <trkpt lat="40.267233" lon="-4.574467">
        <ele>684.0</ele>
        <time>2015-03-15T15:24:25Z</time>
      </trkpt>
      <trkpt lat="40.267250" lon="-4.574450">
        <ele>681.0</ele>
        <time>2015-03-15T15:24:26Z</time>
      </trkpt>
      <trkpt lat="40.267267" lon="-4.574433">
        <ele>678.0</ele>
        <time>2015-03-15T15:24:27Z</time>
      </trkpt>
      <trkpt lat="40.267300" lon="-4.574400">
        <ele>674.0</ele>
        <time>2015-03-15T15:24:28Z</time>
      </trkpt>
      <trkpt lat="40.267317" lon="-4.574350">
        <ele>671.0</ele>
        <time>2015-03-15T15:24:29Z</time>
      </trkpt>
      <trkpt lat="40.267333" lon="-4.574317">
        <ele>669.0</ele>
        <time>2015-03-15T15:24:30Z</time>
      </trkpt>
      <trkpt lat="40.267367" lon="-4.574267">
        <ele>668.0</ele>
        <time>2015-03-15T15:24:31Z</time>
      </trkpt>
      <trkpt lat="40.267383" lon="-4.574250">
        <ele>667.0</ele>
        <time>2015-03-15T15:24:32Z</time>
      </trkpt>
      <trkpt lat="40.267433" lon="-4.574217">
        <ele>664.0</ele>
        <time>2015-03-15T15:24:33Z</time>
      </trkpt>
      <trkpt lat="40.267467" lon="-4.574183">
        <ele>662.0</ele>
        <time>2015-03-15T15:24:34Z</time>
      </trkpt>
      <trkpt lat="40.267500" lon="-4.574150">
        <ele>660.0</ele>
        <time>2015-03-15T15:24:35Z</time>
      </trkpt>
      <trkpt lat="40.267533" lon="-4.574083">
        <ele>658.0</ele>
        <time>2015-03-15T15:24:36Z</time>
      </trkpt>
      <trkpt lat="40.267533" lon="-4.574000">
        <ele>656.0</ele>
        <time>2015-03-15T15:24:37Z</time>
      </trkpt>
      <trkpt lat="40.267533" lon="-4.573950">
        <ele>654.0</ele>
        <time>2015-03-15T15:24:38Z</time>
      </trkpt>
      <trkpt lat="40.267567" lon="-4.573917">
        <ele>654.0</ele>
        <time>2015-03-15T15:24:39Z</time>
      </trkpt>
      <trkpt lat="40.267600" lon="-4.573883">
        <ele>652.0</ele>
        <time>2015-03-15T15:24:40Z</time>
      </trkpt>
      <trkpt lat="40.267633" lon="-4.573883">
        <ele>649.0</ele>
        <time>2015-03-15T15:24:41Z</time>
      </trkpt>
      <trkpt lat="40.267667" lon="-4.573850">
        <ele>647.0</ele>
        <time>2015-03-15T15:24:42Z</time>
      </trkpt>
      <trkpt lat="40.267717" lon="-4.573850">
        <ele>646.0</ele>
        <time>2015-03-15T15:24:43Z</time>
      </trkpt>
      <trkpt lat="40.267733" lon="-4.573850">
        <ele>645.0</ele>
        <time>2015-03-15T15:24:44Z</time>
      </trkpt>
      <trkpt lat="40.267717" lon="-4.573850">
        <ele>644.0</ele>
        <time>2015-03-15T15:24:45Z</time>
      </trkpt>
      <trkpt lat="40.267717" lon="-4.573867">
        <ele>643.0</ele>
        <time>2015-03-15T15:24:46Z</time>
      </trkpt>
      <trkpt lat="40.267717" lon="-4.573850">
        <ele>643.0</ele>
        <time>2015-03-15T15:24:47Z</time>
      </trkpt>
      <trkpt lat="40.267717" lon="-4.573850">
        <ele>642.0</ele>
        <time>2015-03-15T15:24:48Z</time>
      </trkpt>
      <trkpt lat="40.267717" lon="-4.573867">
        <ele>642.0</ele>
        <time>2015-03-15T15:24:49Z</time>
      </trkpt>
      <trkpt lat="40.267717" lon="-4.573867">
        <ele>642.0</ele>
        <time>2015-03-15T15:24:50Z</time>
      </trkpt>
      <trkpt lat="40.267717" lon="-4.573867">
        <ele>642.0</ele>
        <time>2015-03-15T15:24:51Z</time>
      </trkpt>
      <trkpt lat="40.267717" lon="-4.573867">
        <ele>642.0</ele>
        <time>2015-03-15T15:24:52Z</time>
      </trkpt>
      <trkpt lat="40.267717" lon="-4.573867">
        <ele>642.0</ele>
        <time>2015-03-15T15:24:53Z</time>
      </trkpt>
      <trkpt lat="40.267717" lon="-4.573867">
        <ele>642.0</ele>
        <time>2015-03-15T15:24:54Z</time>
      </trkpt>
      <trkpt lat="40.267717" lon="-4.573867">
        <ele>642.0</ele>
        <time>2015-03-15T15:24:55Z</time>
      </trkpt>
      <trkpt lat="40.267717" lon="-4.573850">
        <ele>642.0</ele>
        <time>2015-03-15T15:24:56Z</time>
      </trkpt>
      <trkpt lat="40.267717" lon="-4.573867">
        <ele>643.0</ele>
        <time>2015-03-15T15:24:57Z</time>
      </trkpt>
      <trkpt lat="40.267717" lon="-4.573867">
        <ele>643.0</ele>
        <time>2015-03-15T15:24:58Z</time>
      </trkpt>
      <trkpt lat="40.267717" lon="-4.573867">
        <ele>643.0</ele>
        <time>2015-03-15T15:24:59Z</time>
      </trkpt>
      <trkpt lat="40.267717" lon="-4.573867">
        <ele>643.0</ele>
        <time>2015-03-15T15:25:00Z</time>
      </trkpt>
      <trkpt lat="40.267717" lon="-4.573867">
        <ele>644.0</ele>
        <time>2015-03-15T15:25:01Z</time>
      </trkpt>
      <trkpt lat="40.267717" lon="-4.573867">
        <ele>644.0</ele>
        <time>2015-03-15T15:25:02Z</time>
      </trkpt>
      <trkpt lat="40.267717" lon="-4.573867">
        <ele>644.0</ele>
        <time>2015-03-15T15:25:03Z</time>
      </trkpt>
      <trkpt lat="40.267717" lon="-4.573883">
        <ele>644.0</ele>
        <time>2015-03-15T15:25:04Z</time>
      </trkpt>
      <trkpt lat="40.267717" lon="-4.573883">
        <ele>645.0</ele>
        <time>2015-03-15T15:25:05Z</time>
      </trkpt>
      <trkpt lat="40.267733" lon="-4.573883">
        <ele>645.0</ele>
        <time>2015-03-15T15:25:06Z</time>
      </trkpt>
      <trkpt lat="40.267733" lon="-4.573900">
        <ele>645.0</ele>
        <time>2015-03-15T15:25:07Z</time>
      </trkpt>
      <trkpt lat="40.267733" lon="-4.573900">
        <ele>645.0</ele>
        <time>2015-03-15T15:25:08Z</time>
      </trkpt>
      <trkpt lat="40.267733" lon="-4.573917">
        <ele>646.0</ele>
        <time>2015-03-15T15:25:09Z</time>
      </trkpt>
      <trkpt lat="40.267750" lon="-4.573917">
        <ele>646.0</ele>
        <time>2015-03-15T15:25:10Z</time>
      </trkpt>
      <trkpt lat="40.267750" lon="-4.573933">
        <ele>646.0</ele>
        <time>2015-03-15T15:25:11Z</time>
      </trkpt>
      <trkpt lat="40.267750" lon="-4.573933">
        <ele>646.0</ele>
        <time>2015-03-15T15:25:12Z</time>
      </trkpt>
      <trkpt lat="40.267750" lon="-4.573933">
        <ele>647.0</ele>
        <time>2015-03-15T15:25:13Z</time>
      </trkpt>
      <trkpt lat="40.267750" lon="-4.573933">
        <ele>647.0</ele>
        <time>2015-03-15T15:25:14Z</time>
      </trkpt>
      <trkpt lat="40.267750" lon="-4.573933">
        <ele>647.0</ele>
        <time>2015-03-15T15:25:15Z</time>
      </trkpt>
      <trkpt lat="40.267750" lon="-4.573933">
        <ele>647.0</ele>
        <time>2015-03-15T15:25:16Z</time>
      </trkpt>
      <trkpt lat="40.267767" lon="-4.573933">
        <ele>648.0</ele>
        <time>2015-03-15T15:25:17Z</time>
      </trkpt>
      <trkpt lat="40.267750" lon="-4.573933">
        <ele>647.0</ele>
        <time>2015-03-15T15:25:18Z</time>
      </trkpt>
      <trkpt lat="40.267750" lon="-4.573933">
        <ele>647.0</ele>
        <time>2015-03-15T15:25:19Z</time>
      </trkpt>
      <trkpt lat="40.267750" lon="-4.573933">
        <ele>647.0</ele>
        <time>2015-03-15T15:25:20Z</time>
      </trkpt>
      <trkpt lat="40.267750" lon="-4.573917">
        <ele>648.0</ele>
        <time>2015-03-15T15:25:21Z</time>
      </trkpt>
      <trkpt lat="40.267750" lon="-4.573917">
        <ele>648.0</ele>
        <time>2015-03-15T15:25:22Z</time>
      </trkpt>
      <trkpt lat="40.267733" lon="-4.573900">
        <ele>648.0</ele>
        <time>2015-03-15T15:25:23Z</time>
      </trkpt>
      <trkpt lat="40.267733" lon="-4.573900">
        <ele>648.0</ele>
        <time>2015-03-15T15:25:24Z</time>
      </trkpt>
      <trkpt lat="40.267717" lon="-4.573883">
        <ele>648.0</ele>
        <time>2015-03-15T15:25:25Z</time>
      </trkpt>
      <trkpt lat="40.267717" lon="-4.573883">
        <ele>648.0</ele>
        <time>2015-03-15T15:25:26Z</time>
      </trkpt>
      <trkpt lat="40.267717" lon="-4.573867">
        <ele>648.0</ele>
        <time>2015-03-15T15:25:27Z</time>
      </trkpt>
      <trkpt lat="40.267700" lon="-4.573850">
        <ele>648.0</ele>
        <time>2015-03-15T15:25:28Z</time>
      </trkpt>
      <trkpt lat="40.267700" lon="-4.573850">
        <ele>648.0</ele>
        <time>2015-03-15T15:25:29Z</time>
      </trkpt>
      <trkpt lat="40.267700" lon="-4.573833">
        <ele>649.0</ele>
        <time>2015-03-15T15:25:30Z</time>
      </trkpt>
      <trkpt lat="40.267683" lon="-4.573817">
        <ele>648.0</ele>
        <time>2015-03-15T15:25:31Z</time>
      </trkpt>
      <trkpt lat="40.267683" lon="-4.573817">
        <ele>648.0</ele>
        <time>2015-03-15T15:25:32Z</time>
      </trkpt>
      <trkpt lat="40.267667" lon="-4.573800">
        <ele>648.0</ele>
        <time>2015-03-15T15:25:33Z</time>
      </trkpt>
      <trkpt lat="40.267667" lon="-4.573800">
        <ele>648.0</ele>
        <time>2015-03-15T15:25:34Z</time>
      </trkpt>
      <trkpt lat="40.267667" lon="-4.573783">
        <ele>648.0</ele>
        <time>2015-03-15T15:25:35Z</time>
      </trkpt>
      <trkpt lat="40.267650" lon="-4.573767">
        <ele>648.0</ele>
        <time>2015-03-15T15:25:36Z</time>
      </trkpt>
      <trkpt lat="40.267650" lon="-4.573767">
        <ele>648.0</ele>
        <time>2015-03-15T15:25:37Z</time>
      </trkpt>
      <trkpt lat="40.267633" lon="-4.573750">
        <ele>648.0</ele>
        <time>2015-03-15T15:25:38Z</time>
      </trkpt>
      <trkpt lat="40.267633" lon="-4.573750">
        <ele>648.0</ele>
        <time>2015-03-15T15:25:39Z</time>
      </trkpt>
      <trkpt lat="40.267633" lon="-4.573750">
        <ele>648.0</ele>
        <time>2015-03-15T15:25:40Z</time>
      </trkpt>
      <trkpt lat="40.267633" lon="-4.573750">
        <ele>648.0</ele>
        <time>2015-03-15T15:25:41Z</time>
      </trkpt>
      <trkpt lat="40.267633" lon="-4.573750">
        <ele>648.0</ele>
        <time>2015-03-15T15:25:42Z</time>
      </trkpt>
      <trkpt lat="40.267633" lon="-4.573750">
        <ele>648.0</ele>
        <time>2015-03-15T15:25:43Z</time>
      </trkpt>
      <trkpt lat="40.267633" lon="-4.573750">
        <ele>648.0</ele>
        <time>2015-03-15T15:25:44Z</time>
      </trkpt>
      <trkpt lat="40.267633" lon="-4.573750">
        <ele>648.0</ele>
        <time>2015-03-15T15:25:45Z</time>
      </trkpt>
      <trkpt lat="40.267633" lon="-4.573750">
        <ele>648.0</ele>
        <time>2015-03-15T15:25:46Z</time>
      </trkpt>
      <trkpt lat="40.267633" lon="-4.573750">
        <ele>648.0</ele>
        <time>2015-03-15T15:25:47Z</time>
      </trkpt>
      <trkpt lat="40.267633" lon="-4.573750">
        <ele>648.0</ele>
        <time>2015-03-15T15:25:48Z</time>
      </trkpt>
      <trkpt lat="40.267633" lon="-4.573750">
        <ele>647.0</ele>
        <time>2015-03-15T15:25:49Z</time>
      </trkpt>
      <trkpt lat="40.267633" lon="-4.573750">
        <ele>647.0</ele>
        <time>2015-03-15T15:25:50Z</time>
      </trkpt>
      <trkpt lat="40.267633" lon="-4.573750">
        <ele>647.0</ele>
        <time>2015-03-15T15:25:51Z</time>
      </trkpt>
      <trkpt lat="40.267633" lon="-4.573750">
        <ele>647.0</ele>
        <time>2015-03-15T15:25:52Z</time>
      </trkpt>
      <trkpt lat="40.267633" lon="-4.573750">
        <ele>646.0</ele>
        <time>2015-03-15T15:25:53Z</time>
      </trkpt>
      <trkpt lat="40.267633" lon="-4.573750">
        <ele>646.0</ele>
        <time>2015-03-15T15:25:54Z</time>
      </trkpt>
      <trkpt lat="40.267633" lon="-4.573733">
        <ele>646.0</ele>
        <time>2015-03-15T15:25:55Z</time>
      </trkpt>
      <trkpt lat="40.267617" lon="-4.573733">
        <ele>647.0</ele>
        <time>2015-03-15T15:25:56Z</time>
      </trkpt>
      <trkpt lat="40.267617" lon="-4.573733">
        <ele>646.0</ele>
        <time>2015-03-15T15:25:57Z</time>
      </trkpt>
      <trkpt lat="40.267617" lon="-4.573733">
        <ele>646.0</ele>
        <time>2015-03-15T15:25:58Z</time>
      </trkpt>
      <trkpt lat="40.267617" lon="-4.573733">
        <ele>646.0</ele>
        <time>2015-03-15T15:25:59Z</time>
      </trkpt>
      <trkpt lat="40.267617" lon="-4.573733">
        <ele>646.0</ele>
        <time>2015-03-15T15:26:00Z</time>
      </trkpt>
      <trkpt lat="40.267617" lon="-4.573733">
        <ele>646.0</ele>
        <time>2015-03-15T15:26:01Z</time>
      </trkpt>
      <trkpt lat="40.267617" lon="-4.573733">
        <ele>646.0</ele>
        <time>2015-03-15T15:26:02Z</time>
      </trkpt>
      <trkpt lat="40.267617" lon="-4.573733">
        <ele>646.0</ele>
        <time>2015-03-15T15:26:03Z</time>
      </trkpt>
      <trkpt lat="40.267617" lon="-4.573733">
        <ele>646.0</ele>
        <time>2015-03-15T15:26:04Z</time>
      </trkpt>
      <trkpt lat="40.267617" lon="-4.573733">
        <ele>646.0</ele>
        <time>2015-03-15T15:26:05Z</time>
      </trkpt>
      <trkpt lat="40.267617" lon="-4.573733">
        <ele>646.0</ele>
        <time>2015-03-15T15:26:06Z</time>
      </trkpt>
      <trkpt lat="40.267617" lon="-4.573733">
        <ele>646.0</ele>
        <time>2015-03-15T15:26:07Z</time>
      </trkpt>
      <trkpt lat="40.267600" lon="-4.573733">
        <ele>646.0</ele>
        <time>2015-03-15T15:26:08Z</time>
      </trkpt>
      <trkpt lat="40.267600" lon="-4.573733">
        <ele>646.0</ele>
        <time>2015-03-15T15:26:09Z</time>
      </trkpt>
      <trkpt lat="40.267600" lon="-4.573733">
        <ele>646.0</ele>
        <time>2015-03-15T15:26:10Z</time>
      </trkpt>
      <trkpt lat="40.267600" lon="-4.573733">
        <ele>646.0</ele>
        <time>2015-03-15T15:26:11Z</time>
      </trkpt>
      <trkpt lat="40.267600" lon="-4.573733">
        <ele>646.0</ele>
        <time>2015-03-15T15:26:12Z</time>
      </trkpt>
    </trkseg>
  </trk>
</gpx>
